Hoppmann, Mario; Tippenhauer, Sandra; Badewien, Thomas Henry (2026): Continuous thermosalinograph oceanography along RV HEINCKE cruise track HE667 [dataset]. Alfred Wegener Institute, Helmholtz Centre for Polar and Marine Research, Bremerhaven, PANGAEA, https://doi.pangaea.de/10.1594/PANGAEA.993571 (DOI registration in progress)
Always quote citation above when using data! You can download the citation in several formats below.
Published: 2026-05-05
Abstract:
Raw data acquired by a thermosalinograph (SBE21, Sea-Bird GmbH) in combination with an external temperature sensor (SBE38, Sea-Bird GmbH) aboard RV Heincke were processed to generate a calibrated, quality-controlled dataset of seawater temperature and salinity. The raw sensor data were initially retrieved from the DSHIP database (https://dship.awi.de) at a temporal resolution of 1 second and converted into temperature and conductivity using the pre-deployment calibration coefficients. The thermosalinograph system aboard RV Heincke is typically replaced after each expedition season, with a recalibration conducted at the manufacturer's facilities after each exchange. After post-cruise recalibration of the instruments, additional correction factors were calculated and applied to account for sensor drift. Salinity was calculated from internally measured temperatures and conductivities following the Practical Salinity Scale (PSS-78). The processed dataset is provided as 1-minute averages of salinity and seawater external temperature, synchronized with the positional data from the expedition's master track. Quality flags were assigned in accordance with the SeaDataNet Data Quality Control Procedures (May 2010).
Related to:
Badewien, Thomas Henry (2025): Master tracks in different resolutions of HEINCKE cruise HE667, Bremerhaven - Bremerhaven, 2025-09-07 - 2025-09-22 [dataset]. Alfred Wegener Institute, Helmholtz Centre for Polar and Marine Research, Bremerhaven, PANGAEA, https://doi.org/10.1594/PANGAEA.986329
Data processing report:
Hoppmann, Mario; Tippenhauer, Sandra (2026): Continuous thermosalinograph oceanography along RV HEINCKE cruise track HE667 - Data Processing Report. FIELAX - Gesellschaft für wissenschaftliche Datenverarbeitung mbH, HE667_TSG_nav.pdf
Project(s):
DAM Underway Research Data (DAM_Underway)
Physical Oceanography @ AWI (AWI_PhyOce)
Coverage:
Median Latitude: 57.473480 * Median Longitude: 8.938998 * South-bound Latitude: 53.874609 * West-bound Longitude: 7.278884 * North-bound Latitude: 58.366963 * East-bound Longitude: 10.314661
Date/Time Start: 2025-09-07T11:36:00 * Date/Time End: 2025-09-22T00:31:00
Minimum DEPTH, water: 2.0 m * Maximum DEPTH, water: 2.0 m
Event(s):
HE667_0_Underway-6 * Latitude Start: 53.864309 * Longitude Start: 8.122360 * Latitude End: 53.873347 * Longitude End: 8.109903 * Date/Time Start: 2025-09-07T11:31:54 * Date/Time End: 2025-09-22T00:32:52 * Elevation Start: -12.0 m * Elevation End: -17.0 m * O2A Registry URI: https://registry.o2a-data.de/items/8558 * Campaign: HE667 (SkaMix) * Basis: Heincke * Method/Device: Thermosalinograph (TSG) * Comment: interrupted during DKHIR
Parameter(s):
License:
Creative Commons Attribution 4.0 International (CC-BY-4.0)
Status:
Curation Level: Enhanced curation (CurationLevelC) * Processing Level: PANGAEA data processing level 2 (ProcLevel2)
Size:
86298 data points
Data
| 1 Date/Time | 2 Latitude | 3 Longitude | 4 Depth water [m] | 5 Temp [°C] | 6 QF water temp | 7 Cond [mS/cm] | 8 T intern [°C] | 9 Sal | 10 QF sal |
|---|---|---|---|---|---|---|---|---|---|
| 2025-09-07T11:36:00 | 53.874609 | 8.112983 | 2.0 | 18.897 | 2 | 43.029 | 19.210 | 31.616 | 2 |
| 2025-09-07T11:37:00 | 53.877221 | 8.110758 | 2.0 | 18.893 | 2 | 43.168 | 19.110 | 31.806 | 2 |
| 2025-09-07T11:38:00 | 53.879578 | 8.107904 | 2.0 | 18.902 | 2 | 43.198 | 19.092 | 31.845 | 2 |
| 2025-09-07T11:39:00 | 53.881060 | 8.103661 | 2.0 | 18.883 | 2 | 43.234 | 19.083 | 31.881 | 2 |
| 2025-09-07T11:40:00 | 53.882473 | 8.099255 | 2.0 | 18.878 | 2 | 43.244 | 19.069 | 31.900 | 2 |
| 2025-09-07T11:41:00 | 53.883993 | 8.094874 | 2.0 | 18.870 | 2 | 43.274 | 19.058 | 31.934 | 2 |
| 2025-09-07T11:42:00 | 53.885507 | 8.090452 | 2.0 | 18.853 | 2 | 43.306 | 19.041 | 31.973 | 2 |
| 2025-09-07T11:43:00 | 53.887031 | 8.086042 | 2.0 | 18.844 | 2 | 43.330 | 19.029 | 32.002 | 2 |
| 2025-09-07T11:44:00 | 53.888522 | 8.081576 | 2.0 | 18.827 | 2 | 43.337 | 19.014 | 32.019 | 2 |
| 2025-09-07T11:45:00 | 53.890030 | 8.077084 | 2.0 | 18.841 | 2 | 43.342 | 19.002 | 32.033 | 2 |
| 2025-09-07T11:46:00 | 53.891497 | 8.072543 | 2.0 | 18.836 | 2 | 43.367 | 19.013 | 32.045 | 2 |
| 2025-09-07T11:47:00 | 53.893013 | 8.068067 | 2.0 | 18.838 | 2 | 43.377 | 19.008 | 32.057 | 2 |
| 2025-09-07T11:48:00 | 53.894468 | 8.063514 | 2.0 | 18.838 | 2 | 43.386 | 19.007 | 32.065 | 2 |
| 2025-09-07T11:49:00 | 53.895958 | 8.058957 | 2.0 | 18.848 | 2 | 43.407 | 19.015 | 32.076 | 2 |
| 2025-09-07T11:50:00 | 53.897464 | 8.054382 | 2.0 | 18.855 | 2 | 43.419 | 19.020 | 32.083 | 2 |
| 2025-09-07T11:51:00 | 53.898970 | 8.049779 | 2.0 | 18.840 | 2 | 43.422 | 19.019 | 32.086 | 2 |
| 2025-09-07T11:52:00 | 53.900484 | 8.045177 | 2.0 | 18.856 | 2 | 43.420 | 19.013 | 32.089 | 2 |
| 2025-09-07T11:53:00 | 53.902110 | 8.040723 | 2.0 | 18.858 | 2 | 43.435 | 19.027 | 32.090 | 2 |
| 2025-09-07T11:54:00 | 53.903931 | 8.036430 | 2.0 | 18.855 | 2 | 43.435 | 19.022 | 32.094 | 2 |
| 2025-09-07T11:55:00 | 53.905734 | 8.032062 | 2.0 | 18.848 | 2 | 43.441 | 19.021 | 32.100 | 2 |
| 2025-09-07T11:56:00 | 53.907530 | 8.027704 | 2.0 | 18.846 | 2 | 43.443 | 19.015 | 32.106 | 2 |
| 2025-09-07T11:57:00 | 53.909338 | 8.023338 | 2.0 | 18.853 | 2 | 43.452 | 19.018 | 32.111 | 2 |
| 2025-09-07T11:58:00 | 53.911143 | 8.018947 | 2.0 | 18.853 | 2 | 43.463 | 19.020 | 32.119 | 2 |
| 2025-09-07T11:59:00 | 53.912974 | 8.014587 | 2.0 | 18.831 | 2 | 43.457 | 19.016 | 32.117 | 2 |
| 2025-09-07T12:00:00 | 53.914785 | 8.010215 | 2.0 | 18.846 | 2 | 43.433 | 19.005 | 32.106 | 2 |
| 2025-09-07T12:01:00 | 53.916592 | 8.005826 | 2.0 | 18.856 | 2 | 43.438 | 19.014 | 32.103 | 2 |
| 2025-09-07T12:02:00 | 53.918440 | 8.001459 | 2.0 | 18.869 | 2 | 43.451 | 19.025 | 32.105 | 2 |
| 2025-09-07T12:03:00 | 53.920244 | 7.997018 | 2.0 | 18.865 | 2 | 43.467 | 19.034 | 32.111 | 2 |
| 2025-09-07T12:04:00 | 53.922120 | 7.992663 | 2.0 | 18.869 | 2 | 43.470 | 19.033 | 32.115 | 2 |
| 2025-09-07T12:05:00 | 53.924397 | 7.989006 | 2.0 | 18.873 | 2 | 43.475 | 19.038 | 32.115 | 2 |
| 2025-09-07T12:06:00 | 53.926940 | 7.986031 | 2.0 | 18.883 | 2 | 43.477 | 19.043 | 32.113 | 2 |
| 2025-09-07T12:07:00 | 53.929638 | 7.983469 | 2.0 | 18.881 | 2 | 43.481 | 19.049 | 32.111 | 2 |
| 2025-09-07T12:08:00 | 53.932309 | 7.980795 | 2.0 | 18.878 | 2 | 43.475 | 19.048 | 32.107 | 2 |
| 2025-09-07T12:09:00 | 53.934976 | 7.978112 | 2.0 | 18.878 | 2 | 43.467 | 19.042 | 32.105 | 2 |
| 2025-09-07T12:10:00 | 53.937623 | 7.975373 | 2.0 | 18.871 | 2 | 43.459 | 19.038 | 32.102 | 2 |
| 2025-09-07T12:11:00 | 53.940277 | 7.972687 | 2.0 | 18.866 | 2 | 43.461 | 19.038 | 32.103 | 2 |
| 2025-09-07T12:12:00 | 53.942945 | 7.970064 | 2.0 | 18.863 | 2 | 43.458 | 19.033 | 32.105 | 2 |
| 2025-09-07T12:13:00 | 53.945571 | 7.967323 | 2.0 | 18.851 | 2 | 43.457 | 19.028 | 32.108 | 2 |
| 2025-09-07T12:14:00 | 53.948205 | 7.964656 | 2.0 | 18.859 | 2 | 43.461 | 19.021 | 32.116 | 2 |
| 2025-09-07T12:15:00 | 53.950821 | 7.961933 | 2.0 | 18.852 | 2 | 43.472 | 19.022 | 32.125 | 2 |
| 2025-09-07T12:16:00 | 53.953468 | 7.959289 | 2.0 | 18.848 | 2 | 43.470 | 19.019 | 32.125 | 2 |
| 2025-09-07T12:17:00 | 53.956114 | 7.956620 | 2.0 | 18.855 | 2 | 43.472 | 19.018 | 32.128 | 2 |
| 2025-09-07T12:18:00 | 53.958753 | 7.953951 | 2.0 | 18.856 | 2 | 43.483 | 19.021 | 32.135 | 2 |
| 2025-09-07T12:19:00 | 53.961357 | 7.951222 | 2.0 | 18.856 | 2 | 43.498 | 19.024 | 32.145 | 2 |
| 2025-09-07T12:20:00 | 53.964000 | 7.948590 | 2.0 | 18.850 | 2 | 43.504 | 19.019 | 32.153 | 2 |
| 2025-09-07T12:21:00 | 53.966618 | 7.945882 | 2.0 | 18.856 | 2 | 43.510 | 19.017 | 32.160 | 2 |
| 2025-09-07T12:22:00 | 53.969270 | 7.943255 | 2.0 | 18.849 | 2 | 43.515 | 19.022 | 32.160 | 2 |
| 2025-09-07T12:23:00 | 53.971877 | 7.940561 | 2.0 | 18.850 | 2 | 43.505 | 19.009 | 32.162 | 2 |
| 2025-09-07T12:24:00 | 53.974480 | 7.937892 | 2.0 | 18.842 | 2 | 43.515 | 19.015 | 32.166 | 2 |
| 2025-09-07T12:25:00 | 53.977094 | 7.935268 | 2.0 | 18.833 | 2 | 43.513 | 19.004 | 32.173 | 2 |
| 2025-09-07T12:26:00 | 53.979712 | 7.932606 | 2.0 | 18.825 | 2 | 43.512 | 19.000 | 32.175 | 2 |
| 2025-09-07T12:27:00 | 53.982324 | 7.929957 | 2.0 | 18.825 | 2 | 43.512 | 18.994 | 32.179 | 2 |
| 2025-09-07T12:28:00 | 53.984907 | 7.927243 | 2.0 | 18.835 | 2 | 43.517 | 18.993 | 32.184 | 2 |
| 2025-09-07T12:29:00 | 53.987524 | 7.924630 | 2.0 | 18.838 | 2 | 43.534 | 19.001 | 32.192 | 2 |
| 2025-09-07T12:30:00 | 53.990145 | 7.921989 | 2.0 | 18.816 | 2 | 43.544 | 18.999 | 32.202 | 2 |
| 2025-09-07T12:31:00 | 53.992793 | 7.919432 | 2.0 | 18.820 | 2 | 43.536 | 18.982 | 32.209 | 2 |
| 2025-09-07T12:32:00 | 53.995424 | 7.916838 | 2.0 | 18.819 | 2 | 43.550 | 18.986 | 32.217 | 2 |
| 2025-09-07T12:33:00 | 53.998049 | 7.914239 | 2.0 | 18.823 | 2 | 43.561 | 18.986 | 32.226 | 2 |
| 2025-09-07T12:34:00 | 54.000680 | 7.911707 | 2.0 | 18.827 | 2 | 43.571 | 18.988 | 32.233 | 2 |
| 2025-09-07T12:35:00 | 54.003268 | 7.909046 | 2.0 | 18.827 | 2 | 43.588 | 18.993 | 32.243 | 2 |
| 2025-09-07T12:36:00 | 54.005897 | 7.906532 | 2.0 | 18.825 | 2 | 43.596 | 18.991 | 32.251 | 2 |
| 2025-09-07T12:37:00 | 54.008513 | 7.903984 | 2.0 | 18.824 | 2 | 43.601 | 18.990 | 32.256 | 2 |
| 2025-09-07T12:38:00 | 54.011127 | 7.901353 | 2.0 | 18.841 | 2 | 43.612 | 18.993 | 32.263 | 2 |
| 2025-09-07T12:39:00 | 54.013760 | 7.898755 | 2.0 | 18.851 | 2 | 43.634 | 19.008 | 32.269 | 2 |
| 2025-09-07T12:40:00 | 54.016411 | 7.896190 | 2.0 | 18.850 | 2 | 43.645 | 19.015 | 32.273 | 2 |
| 2025-09-07T12:41:00 | 54.019047 | 7.893600 | 2.0 | 18.843 | 2 | 43.643 | 19.014 | 32.272 | 2 |
| 2025-09-07T12:42:00 | 54.021682 | 7.890985 | 2.0 | 18.820 | 2 | 43.636 | 19.009 | 32.270 | 2 |
| 2025-09-07T12:43:00 | 54.024338 | 7.888438 | 2.0 | 18.820 | 2 | 43.618 | 18.989 | 32.271 | 2 |
| 2025-09-07T12:44:00 | 54.026952 | 7.885805 | 2.0 | 18.821 | 2 | 43.609 | 18.983 | 32.268 | 2 |
| 2025-09-07T12:45:00 | 54.029605 | 7.883214 | 2.0 | 18.833 | 2 | 43.610 | 18.990 | 32.264 | 2 |
| 2025-09-07T12:46:00 | 54.032228 | 7.880604 | 2.0 | 18.837 | 2 | 43.615 | 19.000 | 32.260 | 2 |
| 2025-09-07T12:47:00 | 54.034888 | 7.878098 | 2.0 | 18.846 | 2 | 43.614 | 19.004 | 32.256 | 2 |
| 2025-09-07T12:48:00 | 54.037501 | 7.875442 | 2.0 | 18.855 | 2 | 43.622 | 19.014 | 32.255 | 2 |
| 2025-09-07T12:49:00 | 54.040160 | 7.872914 | 2.0 | 18.862 | 2 | 43.632 | 19.021 | 32.258 | 2 |
| 2025-09-07T12:50:00 | 54.042815 | 7.870373 | 2.0 | 18.858 | 2 | 43.637 | 19.024 | 32.259 | 2 |
| 2025-09-07T12:51:00 | 54.045427 | 7.867734 | 2.0 | 18.864 | 2 | 43.638 | 19.024 | 32.260 | 2 |
| 2025-09-07T12:52:00 | 54.048064 | 7.865154 | 2.0 | 18.868 | 2 | 43.645 | 19.030 | 32.261 | 2 |
| 2025-09-07T12:53:00 | 54.050703 | 7.862553 | 2.0 | 18.866 | 2 | 43.652 | 19.033 | 32.265 | 2 |
| 2025-09-07T12:54:00 | 54.053364 | 7.860012 | 2.0 | 18.858 | 2 | 43.653 | 19.030 | 32.268 | 2 |
| 2025-09-07T12:55:00 | 54.055995 | 7.857418 | 2.0 | 18.860 | 2 | 43.647 | 19.023 | 32.268 | 2 |
| 2025-09-07T12:56:00 | 54.058619 | 7.854766 | 2.0 | 18.856 | 2 | 43.644 | 19.022 | 32.267 | 2 |
| 2025-09-07T12:57:00 | 54.061276 | 7.852253 | 2.0 | 18.877 | 2 | 43.640 | 19.022 | 32.263 | 2 |
| 2025-09-07T12:58:00 | 54.063910 | 7.849585 | 2.0 | 18.903 | 2 | 43.673 | 19.046 | 32.272 | 2 |
| 2025-09-07T12:59:00 | 54.066585 | 7.847011 | 2.0 | 18.914 | 2 | 43.706 | 19.067 | 32.283 | 2 |
| 2025-09-07T13:00:00 | 54.069237 | 7.844334 | 2.0 | 18.919 | 2 | 43.731 | 19.078 | 32.295 | 2 |
| 2025-09-07T13:01:00 | 54.071897 | 7.841666 | 2.0 | 18.924 | 2 | 43.752 | 19.082 | 32.309 | 2 |
| 2025-09-07T13:02:00 | 54.074582 | 7.839077 | 2.0 | 18.916 | 2 | 43.771 | 19.085 | 32.323 | 2 |
| 2025-09-07T13:03:00 | 54.077243 | 7.836442 | 2.0 | 18.873 | 2 | 43.784 | 19.075 | 32.341 | 2 |
| 2025-09-07T13:04:00 | 54.079919 | 7.833881 | 2.0 | 18.876 | 2 | 43.787 | 19.042 | 32.369 | 2 |
| 2025-09-07T13:05:00 | 54.082566 | 7.831250 | 2.0 | 18.896 | 2 | 43.800 | 19.043 | 32.379 | 2 |
| 2025-09-07T13:06:00 | 54.085230 | 7.828529 | 2.0 | 18.889 | 2 | 43.819 | 19.058 | 32.383 | 2 |
| 2025-09-07T13:07:00 | 54.087939 | 7.825925 | 2.0 | 18.831 | 2 | 43.828 | 19.041 | 32.404 | 2 |
| 2025-09-07T13:08:00 | 54.090639 | 7.823303 | 2.0 | 18.845 | 2 | 43.829 | 19.006 | 32.432 | 2 |
| 2025-09-07T13:09:00 | 54.093233 | 7.820380 | 2.0 | 18.827 | 2 | 43.847 | 19.011 | 32.443 | 2 |
| 2025-09-07T13:10:00 | 54.095856 | 7.817479 | 2.0 | 18.808 | 2 | 43.851 | 18.986 | 32.466 | 2 |
| 2025-09-07T13:11:00 | 54.098477 | 7.814666 | 2.0 | 18.812 | 2 | 43.858 | 18.978 | 32.478 | 2 |
| 2025-09-07T13:12:00 | 54.101065 | 7.811719 | 2.0 | 18.802 | 2 | 43.863 | 18.975 | 32.485 | 2 |
| 2025-09-07T13:13:00 | 54.103689 | 7.808855 | 2.0 | 18.800 | 2 | 43.868 | 18.970 | 32.493 | 2 |
| 2025-09-07T13:14:00 | 54.106307 | 7.805962 | 2.0 | 18.790 | 2 | 43.878 | 18.964 | 32.506 | 2 |
| 2025-09-07T13:15:00 | 54.108921 | 7.803069 | 2.0 | 18.776 | 2 | 43.885 | 18.951 | 32.522 | 2 |
| 2025-09-07T13:16:00 | 54.111527 | 7.800217 | 2.0 | 18.740 | 2 | 43.891 | 18.945 | 32.531 | 2 |
| 2025-09-07T13:17:00 | 54.114133 | 7.797254 | 2.0 | 18.676 | 2 | 43.862 | 18.894 | 32.547 | 2 |
| 2025-09-07T13:18:00 | 54.116779 | 7.794376 | 2.0 | 18.679 | 2 | 43.824 | 18.852 | 32.549 | 2 |
| 2025-09-07T13:19:00 | 54.119403 | 7.791437 | 2.0 | 18.659 | 2 | 43.815 | 18.840 | 32.551 | 2 |
| 2025-09-07T13:20:00 | 54.122045 | 7.788535 | 2.0 | 18.623 | 2 | 43.798 | 18.820 | 32.552 | 2 |
| 2025-09-07T13:21:00 | 54.124696 | 7.785645 | 2.0 | 18.621 | 2 | 43.770 | 18.792 | 32.551 | 2 |
| 2025-09-07T13:22:00 | 54.127321 | 7.782739 | 2.0 | 18.613 | 2 | 43.768 | 18.789 | 32.552 | 2 |
| 2025-09-07T13:23:00 | 54.129932 | 7.779781 | 2.0 | 18.604 | 2 | 43.762 | 18.780 | 32.554 | 2 |
| 2025-09-07T13:24:00 | 54.132564 | 7.776906 | 2.0 | 18.602 | 2 | 43.759 | 18.772 | 32.558 | 2 |
| 2025-09-07T13:25:00 | 54.135199 | 7.773946 | 2.0 | 18.598 | 2 | 43.758 | 18.768 | 32.560 | 2 |
| 2025-09-07T13:26:00 | 54.137837 | 7.771016 | 2.0 | 18.588 | 2 | 43.753 | 18.759 | 32.563 | 2 |
| 2025-09-07T13:27:00 | 54.140496 | 7.768165 | 2.0 | 18.597 | 2 | 43.756 | 18.753 | 32.570 | 2 |
| 2025-09-07T13:28:00 | 54.143127 | 7.765237 | 2.0 | 18.622 | 2 | 43.781 | 18.767 | 32.580 | 2 |
| 2025-09-07T13:29:00 | 54.145743 | 7.762282 | 2.0 | 18.631 | 2 | 43.817 | 18.789 | 32.593 | 2 |
| 2025-09-07T13:30:00 | 54.148403 | 7.759365 | 2.0 | 18.636 | 2 | 43.835 | 18.796 | 32.602 | 2 |
| 2025-09-07T13:31:00 | 54.151066 | 7.756453 | 2.0 | 18.650 | 2 | 43.846 | 18.805 | 32.604 | 2 |
| 2025-09-07T13:32:00 | 54.153701 | 7.753492 | 2.0 | 18.657 | 2 | 43.869 | 18.817 | 32.614 | 2 |
| 2025-09-07T13:33:00 | 54.156347 | 7.750558 | 2.0 | 18.662 | 2 | 43.886 | 18.825 | 32.622 | 2 |
| 2025-09-07T13:34:00 | 54.159011 | 7.747635 | 2.0 | 18.667 | 2 | 43.896 | 18.828 | 32.627 | 2 |
| 2025-09-07T13:35:00 | 54.161679 | 7.744750 | 2.0 | 18.682 | 2 | 43.911 | 18.836 | 32.634 | 2 |
| 2025-09-07T13:36:00 | 54.164302 | 7.741738 | 2.0 | 18.683 | 2 | 43.934 | 18.848 | 32.643 | 2 |
| 2025-09-07T13:37:00 | 54.166968 | 7.738835 | 2.0 | 18.678 | 2 | 43.942 | 18.847 | 32.651 | 2 |
| 2025-09-07T13:38:00 | 54.169614 | 7.735894 | 2.0 | 18.672 | 2 | 43.948 | 18.844 | 32.658 | 2 |
| 2025-09-07T13:39:00 | 54.172266 | 7.732964 | 2.0 | 18.680 | 2 | 43.950 | 18.838 | 32.664 | 2 |
| 2025-09-07T13:40:00 | 54.174902 | 7.730041 | 2.0 | 18.686 | 2 | 43.966 | 18.845 | 32.672 | 2 |
| 2025-09-07T13:41:00 | 54.177563 | 7.727156 | 2.0 | 18.678 | 2 | 43.986 | 18.850 | 32.685 | 2 |
| 2025-09-07T13:42:00 | 54.180203 | 7.724184 | 2.0 | 18.670 | 2 | 43.984 | 18.844 | 32.688 | 2 |
| 2025-09-07T13:43:00 | 54.182868 | 7.721246 | 2.0 | 18.669 | 2 | 43.981 | 18.836 | 32.692 | 2 |
| 2025-09-07T13:44:00 | 54.185496 | 7.718244 | 2.0 | 18.657 | 2 | 43.987 | 18.834 | 32.698 | 2 |
| 2025-09-07T13:45:00 | 54.188164 | 7.715342 | 2.0 | 18.639 | 2 | 43.976 | 18.820 | 32.700 | 2 |
| 2025-09-07T13:46:00 | 54.190807 | 7.712379 | 2.0 | 18.636 | 2 | 43.960 | 18.805 | 32.699 | 2 |
| 2025-09-07T13:47:00 | 54.193485 | 7.709496 | 2.0 | 18.624 | 2 | 43.956 | 18.801 | 32.699 | 2 |
| 2025-09-07T13:48:00 | 54.196096 | 7.706467 | 2.0 | 18.617 | 2 | 43.947 | 18.792 | 32.698 | 2 |
| 2025-09-07T13:49:00 | 54.198776 | 7.703621 | 2.0 | 18.607 | 2 | 43.938 | 18.782 | 32.699 | 2 |
| 2025-09-07T13:50:00 | 54.201411 | 7.700670 | 2.0 | 18.597 | 2 | 43.932 | 18.774 | 32.700 | 2 |
| 2025-09-07T13:51:00 | 54.204063 | 7.697746 | 2.0 | 18.586 | 2 | 43.923 | 18.760 | 32.704 | 2 |
| 2025-09-07T13:52:00 | 54.206699 | 7.694788 | 2.0 | 18.587 | 2 | 43.917 | 18.752 | 32.705 | 2 |
| 2025-09-07T13:53:00 | 54.209349 | 7.691841 | 2.0 | 18.587 | 2 | 43.922 | 18.754 | 32.708 | 2 |
| 2025-09-07T13:54:00 | 54.212004 | 7.688951 | 2.0 | 18.589 | 2 | 43.929 | 18.755 | 32.713 | 2 |
| 2025-09-07T13:55:00 | 54.214636 | 7.685993 | 2.0 | 18.567 | 2 | 43.933 | 18.751 | 32.719 | 2 |
| 2025-09-07T13:56:00 | 54.217298 | 7.683060 | 2.0 | 18.559 | 2 | 43.922 | 18.731 | 32.726 | 2 |
| 2025-09-07T13:57:00 | 54.219896 | 7.680022 | 2.0 | 18.557 | 2 | 43.920 | 18.725 | 32.729 | 2 |
| 2025-09-07T13:58:00 | 54.222228 | 7.676365 | 2.0 | 18.551 | 2 | 43.922 | 18.722 | 32.733 | 2 |
| 2025-09-07T13:59:00 | 54.224643 | 7.672852 | 2.0 | 18.549 | 2 | 43.922 | 18.716 | 32.738 | 2 |
| 2025-09-07T14:00:00 | 54.227142 | 7.669586 | 2.0 | 18.542 | 2 | 43.926 | 18.715 | 32.742 | 2 |
| 2025-09-07T14:01:00 | 54.229883 | 7.667014 | 2.0 | 18.538 | 2 | 43.926 | 18.707 | 32.748 | 2 |
| 2025-09-07T14:02:00 | 54.232577 | 7.664238 | 2.0 | 18.521 | 2 | 43.926 | 18.701 | 32.753 | 2 |
| 2025-09-07T14:03:00 | 54.235312 | 7.661612 | 2.0 | 18.511 | 2 | 43.920 | 18.687 | 32.759 | 2 |
| 2025-09-07T14:04:00 | 54.238038 | 7.658867 | 2.0 | 18.506 | 2 | 43.917 | 18.679 | 32.763 | 2 |
| 2025-09-07T14:05:00 | 54.240763 | 7.656146 | 2.0 | 18.501 | 2 | 43.917 | 18.671 | 32.769 | 2 |
| 2025-09-07T14:06:00 | 54.243511 | 7.653508 | 2.0 | 18.485 | 2 | 43.918 | 18.665 | 32.775 | 2 |
| 2025-09-07T14:07:00 | 54.246257 | 7.650838 | 2.0 | 18.486 | 2 | 43.912 | 18.653 | 32.779 | 2 |
| 2025-09-07T14:08:00 | 54.248979 | 7.648088 | 2.0 | 18.475 | 2 | 43.916 | 18.650 | 32.785 | 2 |
| 2025-09-07T14:09:00 | 54.251697 | 7.645363 | 2.0 | 18.472 | 2 | 43.915 | 18.640 | 32.792 | 2 |
| 2025-09-07T14:10:00 | 54.254423 | 7.642732 | 2.0 | 18.469 | 2 | 43.922 | 18.640 | 32.798 | 2 |
| 2025-09-07T14:11:00 | 54.257131 | 7.640045 | 2.0 | 18.470 | 2 | 43.928 | 18.635 | 32.807 | 2 |
| 2025-09-07T14:12:00 | 54.259838 | 7.637339 | 2.0 | 18.476 | 2 | 43.938 | 18.639 | 32.812 | 2 |
| 2025-09-07T14:13:00 | 54.262554 | 7.634659 | 2.0 | 18.477 | 2 | 43.947 | 18.642 | 32.817 | 2 |
| 2025-09-07T14:14:00 | 54.265278 | 7.632041 | 2.0 | 18.476 | 2 | 43.950 | 18.642 | 32.820 | 2 |
| 2025-09-07T14:15:00 | 54.267987 | 7.629310 | 2.0 | 18.473 | 2 | 43.949 | 18.641 | 32.820 | 2 |
| 2025-09-07T14:16:00 | 54.270693 | 7.626615 | 2.0 | 18.475 | 2 | 43.948 | 18.640 | 32.820 | 2 |
| 2025-09-07T14:17:00 | 54.273406 | 7.623959 | 2.0 | 18.475 | 2 | 43.948 | 18.641 | 32.819 | 2 |
| 2025-09-07T14:18:00 | 54.276092 | 7.621206 | 2.0 | 18.473 | 2 | 43.949 | 18.642 | 32.819 | 2 |
| 2025-09-07T14:19:00 | 54.278811 | 7.618615 | 2.0 | 18.476 | 2 | 43.944 | 18.641 | 32.816 | 2 |
| 2025-09-07T14:20:00 | 54.281498 | 7.615888 | 2.0 | 18.476 | 2 | 43.940 | 18.642 | 32.811 | 2 |
| 2025-09-07T14:21:00 | 54.284210 | 7.613201 | 2.0 | 18.481 | 2 | 43.936 | 18.643 | 32.807 | 2 |
| 2025-09-07T14:22:00 | 54.286913 | 7.610537 | 2.0 | 18.480 | 2 | 43.934 | 18.647 | 32.802 | 2 |
| 2025-09-07T14:23:00 | 54.289628 | 7.607895 | 2.0 | 18.474 | 2 | 43.926 | 18.643 | 32.799 | 2 |
| 2025-09-07T14:24:00 | 54.292343 | 7.605222 | 2.0 | 18.467 | 2 | 43.916 | 18.639 | 32.794 | 2 |
| 2025-09-07T14:25:00 | 54.295050 | 7.602506 | 2.0 | 18.460 | 2 | 43.905 | 18.633 | 32.789 | 2 |
| 2025-09-07T14:26:00 | 54.297768 | 7.599834 | 2.0 | 18.463 | 2 | 43.893 | 18.629 | 32.782 | 2 |
| 2025-09-07T14:27:00 | 54.300483 | 7.597177 | 2.0 | 18.462 | 2 | 43.891 | 18.630 | 32.780 | 2 |
| 2025-09-07T14:28:00 | 54.303196 | 7.594462 | 2.0 | 18.464 | 2 | 43.885 | 18.628 | 32.777 | 2 |
| 2025-09-07T14:29:00 | 54.305926 | 7.591822 | 2.0 | 18.461 | 2 | 43.880 | 18.629 | 32.772 | 2 |
| 2025-09-07T14:30:00 | 54.308643 | 7.589118 | 2.0 | 18.456 | 2 | 43.874 | 18.627 | 32.768 | 2 |
| 2025-09-07T14:31:00 | 54.311352 | 7.586434 | 2.0 | 18.453 | 2 | 43.866 | 18.622 | 32.765 | 2 |
| 2025-09-07T14:32:00 | 54.314062 | 7.583704 | 2.0 | 18.454 | 2 | 43.858 | 18.619 | 32.761 | 2 |
| 2025-09-07T14:33:00 | 54.316792 | 7.581019 | 2.0 | 18.456 | 2 | 43.856 | 18.622 | 32.757 | 2 |
| 2025-09-07T14:34:00 | 54.319490 | 7.578267 | 2.0 | 18.454 | 2 | 43.860 | 18.621 | 32.761 | 2 |
| 2025-09-07T14:35:00 | 54.321895 | 7.574736 | 2.0 | 18.464 | 2 | 43.863 | 18.623 | 32.762 | 2 |
| 2025-09-07T14:36:00 | 54.324497 | 7.571519 | 2.0 | 18.467 | 2 | 43.873 | 18.630 | 32.765 | 2 |
| 2025-09-07T14:37:00 | 54.327363 | 7.570807 | 2.0 | 18.436 | 2 | 43.874 | 18.630 | 32.766 | 2 |
| 2025-09-07T14:38:00 | 54.330308 | 7.570349 | 2.0 | 18.421 | 2 | 43.843 | 18.599 | 32.765 | 2 |
| 2025-09-07T14:39:00 | 54.333285 | 7.569687 | 2.0 | 18.443 | 2 | 43.823 | 18.592 | 32.753 | 2 |
| 2025-09-07T14:40:00 | 54.336274 | 7.569124 | 2.0 | 18.483 | 2 | 43.837 | 18.618 | 32.744 | 2 |
| 2025-09-07T14:41:00 | 54.339248 | 7.568593 | 2.0 | 18.471 | 2 | 43.859 | 18.647 | 32.740 | 2 |
| 2025-09-07T14:42:00 | 54.342221 | 7.568020 | 2.0 | 18.437 | 2 | 43.828 | 18.631 | 32.727 | 2 |
| 2025-09-07T14:43:00 | 54.345175 | 7.567541 | 2.0 | 18.425 | 2 | 43.794 | 18.604 | 32.720 | 2 |
| 2025-09-07T14:44:00 | 54.348127 | 7.567014 | 2.0 | 18.422 | 2 | 43.776 | 18.591 | 32.715 | 2 |
| 2025-09-07T14:45:00 | 54.351052 | 7.566535 | 2.0 | 18.404 | 2 | 43.762 | 18.586 | 32.707 | 2 |
| 2025-09-07T14:46:00 | 54.353970 | 7.566012 | 2.0 | 18.408 | 2 | 43.736 | 18.570 | 32.698 | 2 |
| 2025-09-07T14:47:00 | 54.356910 | 7.565383 | 2.0 | 18.402 | 2 | 43.733 | 18.575 | 32.692 | 2 |
| 2025-09-07T14:48:00 | 54.359863 | 7.564882 | 2.0 | 18.398 | 2 | 43.723 | 18.569 | 32.688 | 2 |
| 2025-09-07T14:49:00 | 54.362798 | 7.564371 | 2.0 | 18.401 | 2 | 43.710 | 18.565 | 32.680 | 2 |
| 2025-09-07T14:50:00 | 54.365727 | 7.563908 | 2.0 | 18.416 | 2 | 43.703 | 18.568 | 32.672 | 2 |
| 2025-09-07T14:51:00 | 54.368665 | 7.563314 | 2.0 | 18.437 | 2 | 43.713 | 18.586 | 32.666 | 2 |
| 2025-09-07T14:52:00 | 54.371616 | 7.562781 | 2.0 | 18.444 | 2 | 43.724 | 18.604 | 32.661 | 2 |
| 2025-09-07T14:53:00 | 54.374577 | 7.562240 | 2.0 | 18.460 | 2 | 43.719 | 18.613 | 32.650 | 2 |
| 2025-09-07T14:54:00 | 54.377554 | 7.561655 | 2.0 | 18.462 | 2 | 43.703 | 18.627 | 32.625 | 2 |
| 2025-09-07T14:55:00 | 54.380527 | 7.561194 | 2.0 | 18.480 | 2 | 43.655 | 18.633 | 32.581 | 2 |
| 2025-09-07T14:56:00 | 54.383509 | 7.560585 | 2.0 | 18.485 | 2 | 43.628 | 18.644 | 32.549 | 2 |
| 2025-09-07T14:57:00 | 54.386496 | 7.560039 | 2.0 | 18.489 | 2 | 43.617 | 18.648 | 32.537 | 2 |
| 2025-09-07T14:58:00 | 54.389470 | 7.559557 | 2.0 | 18.528 | 2 | 43.609 | 18.653 | 32.527 | 2 |
| 2025-09-07T14:59:00 | 54.392455 | 7.558871 | 2.0 | 18.611 | 2 | 43.629 | 18.709 | 32.499 | 2 |
| 2025-09-07T15:00:00 | 54.395456 | 7.558322 | 2.0 | 18.668 | 2 | 43.611 | 18.777 | 32.431 | 2 |
| 2025-09-07T15:01:00 | 54.398463 | 7.557746 | 2.0 | 18.676 | 2 | 43.575 | 18.832 | 32.358 | 2 |
| 2025-09-07T15:02:00 | 54.401470 | 7.557262 | 2.0 | 18.651 | 2 | 43.515 | 18.830 | 32.310 | 2 |
| 2025-09-07T15:03:00 | 54.404463 | 7.556706 | 2.0 | 18.636 | 2 | 43.426 | 18.813 | 32.249 | 2 |
| 2025-09-07T15:04:00 | 54.407451 | 7.556143 | 2.0 | 18.688 | 2 | 43.335 | 18.819 | 32.169 | 2 |
| 2025-09-07T15:05:00 | 54.410439 | 7.555611 | 2.0 | 18.704 | 2 | 43.287 | 18.848 | 32.106 | 2 |
| 2025-09-07T15:06:00 | 54.413424 | 7.555084 | 2.0 | 18.718 | 2 | 43.230 | 18.866 | 32.045 | 2 |
| 2025-09-07T15:07:00 | 54.416419 | 7.554506 | 2.0 | 18.763 | 2 | 43.202 | 18.894 | 32.001 | 2 |
| 2025-09-07T15:08:00 | 54.419416 | 7.554001 | 2.0 | 18.770 | 2 | 43.196 | 18.927 | 31.970 | 2 |
| 2025-09-07T15:09:00 | 54.422414 | 7.553489 | 2.0 | 18.718 | 2 | 43.173 | 18.916 | 31.960 | 2 |
| 2025-09-07T15:10:00 | 54.425422 | 7.552899 | 2.0 | 18.721 | 2 | 43.125 | 18.885 | 31.944 | 2 |
| 2025-09-07T15:11:00 | 54.428412 | 7.552425 | 2.0 | 18.731 | 2 | 43.098 | 18.887 | 31.920 | 2 |
| 2025-09-07T15:12:00 | 54.431393 | 7.551867 | 2.0 | 18.731 | 2 | 43.089 | 18.895 | 31.906 | 2 |
| 2025-09-07T15:13:00 | 54.434349 | 7.551450 | 2.0 | 18.741 | 2 | 43.083 | 18.896 | 31.901 | 2 |
| 2025-09-07T15:14:00 | 54.437311 | 7.550799 | 2.0 | 18.745 | 2 | 43.085 | 18.904 | 31.896 | 2 |
| 2025-09-07T15:15:00 | 54.440267 | 7.550298 | 2.0 | 18.759 | 2 | 43.083 | 18.911 | 31.889 | 2 |
| 2025-09-07T15:16:00 | 54.443238 | 7.549782 | 2.0 | 18.763 | 2 | 43.088 | 18.922 | 31.885 | 2 |
| 2025-09-07T15:17:00 | 54.446211 | 7.549283 | 2.0 | 18.768 | 2 | 43.090 | 18.926 | 31.883 | 2 |
| 2025-09-07T15:18:00 | 54.449186 | 7.548764 | 2.0 | 18.757 | 2 | 43.089 | 18.928 | 31.881 | 2 |
| 2025-09-07T15:19:00 | 54.452153 | 7.548180 | 2.0 | 18.749 | 2 | 43.082 | 18.920 | 31.881 | 2 |
| 2025-09-07T15:20:00 | 54.455119 | 7.547691 | 2.0 | 18.747 | 2 | 43.075 | 18.911 | 31.882 | 2 |
| 2025-09-07T15:21:00 | 54.458092 | 7.547164 | 2.0 | 18.749 | 2 | 43.074 | 18.909 | 31.883 | 2 |
| 2025-09-07T15:22:00 | 54.461070 | 7.546582 | 2.0 | 18.760 | 2 | 43.079 | 18.915 | 31.883 | 2 |
| 2025-09-07T15:23:00 | 54.464048 | 7.546116 | 2.0 | 18.741 | 2 | 43.084 | 18.916 | 31.886 | 2 |
| 2025-09-07T15:24:00 | 54.467023 | 7.545575 | 2.0 | 18.739 | 2 | 43.078 | 18.903 | 31.891 | 2 |
| 2025-09-07T15:25:00 | 54.469990 | 7.545046 | 2.0 | 18.743 | 2 | 43.081 | 18.904 | 31.893 | 2 |
| 2025-09-07T15:26:00 | 54.472955 | 7.544485 | 2.0 | 18.758 | 2 | 43.087 | 18.907 | 31.895 | 2 |
| 2025-09-07T15:27:00 | 54.475936 | 7.543929 | 2.0 | 18.741 | 2 | 43.102 | 18.920 | 31.898 | 2 |
| 2025-09-07T15:28:00 | 54.478902 | 7.543478 | 2.0 | 18.728 | 2 | 43.096 | 18.900 | 31.908 | 2 |
| 2025-09-07T15:29:00 | 54.481858 | 7.542931 | 2.0 | 18.726 | 2 | 43.094 | 18.891 | 31.913 | 2 |
| 2025-09-07T15:30:00 | 54.484832 | 7.542308 | 2.0 | 18.728 | 2 | 43.097 | 18.889 | 31.918 | 2 |
| 2025-09-07T15:31:00 | 54.487807 | 7.541863 | 2.0 | 18.734 | 2 | 43.102 | 18.894 | 31.918 | 2 |
| 2025-09-07T15:32:00 | 54.490783 | 7.541330 | 2.0 | 18.726 | 2 | 43.107 | 18.896 | 31.920 | 2 |
| 2025-09-07T15:33:00 | 54.493765 | 7.540730 | 2.0 | 18.733 | 2 | 43.108 | 18.892 | 31.924 | 2 |
| 2025-09-07T15:34:00 | 54.496750 | 7.540232 | 2.0 | 18.756 | 2 | 43.113 | 18.901 | 31.922 | 2 |
| 2025-09-07T15:35:00 | 54.499737 | 7.539660 | 2.0 | 18.777 | 2 | 43.129 | 18.925 | 31.916 | 2 |
| 2025-09-07T15:36:00 | 54.502733 | 7.539198 | 2.0 | 18.779 | 2 | 43.149 | 18.939 | 31.922 | 2 |
| 2025-09-07T15:37:00 | 54.505718 | 7.538566 | 2.0 | 18.790 | 2 | 43.158 | 18.943 | 31.926 | 2 |
| 2025-09-07T15:38:00 | 54.508707 | 7.538081 | 2.0 | 18.786 | 2 | 43.174 | 18.952 | 31.933 | 2 |
| 2025-09-07T15:39:00 | 54.511694 | 7.537514 | 2.0 | 18.798 | 2 | 43.182 | 18.950 | 31.941 | 2 |
| 2025-09-07T15:40:00 | 54.514700 | 7.536985 | 2.0 | 18.786 | 2 | 43.195 | 18.957 | 31.946 | 2 |
| 2025-09-07T15:41:00 | 54.517709 | 7.536457 | 2.0 | 18.792 | 2 | 43.200 | 18.950 | 31.956 | 2 |
| 2025-09-07T15:42:00 | 54.520722 | 7.535847 | 2.0 | 18.797 | 2 | 43.209 | 18.956 | 31.958 | 2 |
| 2025-09-07T15:43:00 | 54.523741 | 7.535311 | 2.0 | 18.759 | 2 | 43.218 | 18.959 | 31.964 | 2 |
| 2025-09-07T15:44:00 | 54.526747 | 7.534809 | 2.0 | 18.716 | 2 | 43.241 | 18.922 | 32.011 | 2 |
| 2025-09-07T15:45:00 | 54.529717 | 7.534199 | 2.0 | 18.693 | 2 | 43.239 | 18.878 | 32.044 | 2 |
| 2025-09-07T15:46:00 | 54.532678 | 7.533737 | 2.0 | 18.690 | 2 | 43.228 | 18.857 | 32.051 | 2 |
| 2025-09-07T15:47:00 | 54.535652 | 7.533159 | 2.0 | 18.723 | 2 | 43.215 | 18.860 | 32.038 | 2 |
| 2025-09-07T15:48:00 | 54.538632 | 7.532618 | 2.0 | 18.752 | 2 | 43.203 | 18.893 | 32.002 | 2 |
| 2025-09-07T15:49:00 | 54.541627 | 7.532070 | 2.0 | 18.770 | 2 | 43.187 | 18.916 | 31.971 | 2 |
| 2025-09-07T15:50:00 | 54.544640 | 7.531500 | 2.0 | 18.783 | 2 | 43.176 | 18.936 | 31.947 | 2 |
| 2025-09-07T15:51:00 | 54.547661 | 7.530963 | 2.0 | 18.790 | 2 | 43.155 | 18.948 | 31.920 | 2 |
| 2025-09-07T15:52:00 | 54.550685 | 7.530422 | 2.0 | 18.779 | 2 | 43.127 | 18.950 | 31.895 | 2 |
| 2025-09-07T15:53:00 | 54.553708 | 7.529866 | 2.0 | 18.741 | 2 | 43.108 | 18.939 | 31.888 | 2 |
| 2025-09-07T15:54:00 | 54.556724 | 7.529339 | 2.0 | 18.737 | 2 | 43.065 | 18.906 | 31.878 | 2 |
| 2025-09-07T15:55:00 | 54.559726 | 7.528743 | 2.0 | 18.749 | 2 | 43.030 | 18.904 | 31.851 | 2 |
| 2025-09-07T15:56:00 | 54.562723 | 7.528222 | 2.0 | 18.754 | 2 | 43.008 | 18.912 | 31.826 | 2 |
| 2025-09-07T15:57:00 | 54.565713 | 7.527672 | 2.0 | 18.762 | 2 | 42.996 | 18.918 | 31.812 | 2 |
| 2025-09-07T15:58:00 | 54.568707 | 7.527094 | 2.0 | 18.766 | 2 | 43.001 | 18.927 | 31.809 | 2 |
| 2025-09-07T15:59:00 | 54.571708 | 7.526616 | 2.0 | 18.770 | 2 | 43.007 | 18.930 | 31.812 | 2 |
| 2025-09-07T16:00:00 | 54.574699 | 7.526087 | 2.0 | 18.724 | 2 | 43.014 | 18.932 | 31.816 | 2 |
| 2025-09-07T16:01:00 | 54.577666 | 7.525572 | 2.0 | 18.652 | 2 | 42.988 | 18.873 | 31.840 | 2 |
| 2025-09-07T16:02:00 | 54.580605 | 7.525055 | 2.0 | 18.668 | 2 | 42.962 | 18.825 | 31.855 | 2 |
| 2025-09-07T16:03:00 | 54.583528 | 7.524509 | 2.0 | 18.672 | 2 | 42.957 | 18.834 | 31.844 | 2 |
| 2025-09-07T16:04:00 | 54.586469 | 7.524047 | 2.0 | 18.682 | 2 | 42.957 | 18.841 | 31.839 | 2 |
| 2025-09-07T16:05:00 | 54.589408 | 7.523469 | 2.0 | 18.677 | 2 | 42.959 | 18.845 | 31.837 | 2 |
| 2025-09-07T16:06:00 | 54.592343 | 7.522970 | 2.0 | 18.689 | 2 | 42.961 | 18.841 | 31.842 | 2 |
| 2025-09-07T16:07:00 | 54.595287 | 7.522349 | 2.0 | 18.731 | 2 | 42.964 | 18.859 | 31.831 | 2 |
| 2025-09-07T16:08:00 | 54.598232 | 7.521850 | 2.0 | 18.769 | 2 | 42.981 | 18.900 | 31.813 | 2 |
| 2025-09-07T16:09:00 | 54.601189 | 7.521336 | 2.0 | 18.783 | 2 | 43.002 | 18.934 | 31.804 | 2 |
| 2025-09-07T16:10:00 | 54.604146 | 7.520752 | 2.0 | 18.793 | 2 | 43.007 | 18.947 | 31.799 | 2 |
| 2025-09-07T16:11:00 | 54.607102 | 7.520220 | 2.0 | 18.794 | 2 | 43.015 | 18.957 | 31.798 | 2 |
| 2025-09-07T16:12:00 | 54.610062 | 7.519735 | 2.0 | 18.769 | 2 | 43.015 | 18.953 | 31.801 | 2 |
| 2025-09-07T16:13:00 | 54.613008 | 7.519149 | 2.0 | 18.747 | 2 | 42.992 | 18.930 | 31.799 | 2 |
| 2025-09-07T16:14:00 | 54.615935 | 7.518710 | 2.0 | 18.753 | 2 | 42.973 | 18.914 | 31.796 | 2 |
| 2025-09-07T16:15:00 | 54.618864 | 7.518209 | 2.0 | 18.758 | 2 | 42.973 | 18.917 | 31.793 | 2 |
| 2025-09-07T16:16:00 | 54.621797 | 7.517634 | 2.0 | 18.759 | 2 | 42.978 | 18.923 | 31.793 | 2 |
| 2025-09-07T16:17:00 | 54.624741 | 7.517136 | 2.0 | 18.760 | 2 | 42.995 | 18.923 | 31.807 | 2 |
| 2025-09-07T16:18:00 | 54.627685 | 7.516575 | 2.0 | 18.772 | 2 | 43.017 | 18.926 | 31.823 | 2 |
| 2025-09-07T16:19:00 | 54.630626 | 7.516098 | 2.0 | 18.791 | 2 | 43.046 | 18.938 | 31.838 | 2 |
| 2025-09-07T16:20:00 | 54.633554 | 7.515525 | 2.0 | 18.810 | 2 | 43.085 | 18.955 | 31.857 | 2 |
| 2025-09-07T16:21:00 | 54.636476 | 7.515038 | 2.0 | 18.807 | 2 | 43.120 | 18.973 | 31.872 | 2 |
| 2025-09-07T16:22:00 | 54.639406 | 7.514490 | 2.0 | 18.807 | 2 | 43.135 | 18.969 | 31.887 | 2 |
| 2025-09-07T16:23:00 | 54.642333 | 7.514005 | 2.0 | 18.814 | 2 | 43.153 | 18.971 | 31.901 | 2 |
| 2025-09-07T16:24:00 | 54.645253 | 7.513428 | 2.0 | 18.806 | 2 | 43.178 | 18.977 | 31.917 | 2 |
| 2025-09-07T16:25:00 | 54.648177 | 7.512859 | 2.0 | 18.782 | 2 | 43.182 | 18.965 | 31.929 | 2 |
| 2025-09-07T16:26:00 | 54.651109 | 7.512417 | 2.0 | 18.777 | 2 | 43.159 | 18.945 | 31.926 | 2 |
| 2025-09-07T16:27:00 | 54.654043 | 7.511837 | 2.0 | 18.781 | 2 | 43.145 | 18.943 | 31.916 | 2 |
| 2025-09-07T16:28:00 | 54.656968 | 7.511318 | 2.0 | 18.781 | 2 | 43.145 | 18.945 | 31.914 | 2 |
| 2025-09-07T16:29:00 | 54.659897 | 7.510771 | 2.0 | 18.784 | 2 | 43.142 | 18.944 | 31.912 | 2 |
| 2025-09-07T16:30:00 | 54.662829 | 7.510279 | 2.0 | 18.785 | 2 | 43.136 | 18.947 | 31.905 | 2 |
| 2025-09-07T16:31:00 | 54.665768 | 7.509705 | 2.0 | 18.782 | 2 | 43.131 | 18.948 | 31.900 | 2 |
| 2025-09-07T16:32:00 | 54.668709 | 7.509190 | 2.0 | 18.776 | 2 | 43.133 | 18.944 | 31.905 | 2 |
| 2025-09-07T16:33:00 | 54.671647 | 7.508684 | 2.0 | 18.768 | 2 | 43.133 | 18.940 | 31.908 | 2 |
| 2025-09-07T16:34:00 | 54.674592 | 7.508124 | 2.0 | 18.754 | 2 | 43.136 | 18.930 | 31.918 | 2 |
| 2025-09-07T16:35:00 | 54.677543 | 7.507658 | 2.0 | 18.742 | 2 | 43.136 | 18.916 | 31.929 | 2 |
| 2025-09-07T16:36:00 | 54.680487 | 7.507036 | 2.0 | 18.726 | 2 | 43.142 | 18.904 | 31.943 | 2 |
| 2025-09-07T16:37:00 | 54.683438 | 7.506497 | 2.0 | 18.712 | 2 | 43.147 | 18.887 | 31.960 | 2 |
| 2025-09-07T16:38:00 | 54.686388 | 7.506007 | 2.0 | 18.709 | 2 | 43.148 | 18.877 | 31.969 | 2 |
| 2025-09-07T16:39:00 | 54.689324 | 7.505484 | 2.0 | 18.704 | 2 | 43.159 | 18.873 | 31.981 | 2 |
| 2025-09-07T16:40:00 | 54.692258 | 7.504943 | 2.0 | 18.697 | 2 | 43.174 | 18.868 | 31.997 | 2 |
| 2025-09-07T16:41:00 | 54.695192 | 7.504428 | 2.0 | 18.694 | 2 | 43.197 | 18.860 | 32.023 | 2 |
| 2025-09-07T16:42:00 | 54.698104 | 7.503856 | 2.0 | 18.698 | 2 | 43.233 | 18.860 | 32.052 | 2 |
| 2025-09-07T16:43:00 | 54.701012 | 7.503302 | 2.0 | 18.654 | 2 | 43.296 | 18.855 | 32.109 | 2 |
| 2025-09-07T16:44:00 | 54.703920 | 7.502799 | 2.0 | 18.584 | 2 | 43.341 | 18.817 | 32.175 | 2 |
| 2025-09-07T16:45:00 | 54.706798 | 7.502286 | 2.0 | 18.581 | 2 | 43.366 | 18.748 | 32.250 | 2 |
| 2025-09-07T16:46:00 | 54.709677 | 7.501740 | 2.0 | 18.619 | 2 | 43.371 | 18.755 | 32.249 | 2 |
| 2025-09-07T16:47:00 | 54.712550 | 7.501164 | 2.0 | 18.589 | 2 | 43.383 | 18.779 | 32.240 | 2 |
| 2025-09-07T16:48:00 | 54.715401 | 7.500683 | 2.0 | 18.614 | 2 | 43.406 | 18.758 | 32.275 | 2 |
| 2025-09-07T16:49:00 | 54.718266 | 7.500125 | 2.0 | 18.648 | 2 | 43.414 | 18.781 | 32.264 | 2 |
| 2025-09-07T16:50:00 | 54.721140 | 7.499548 | 2.0 | 18.657 | 2 | 43.440 | 18.815 | 32.259 | 2 |
| 2025-09-07T16:51:00 | 54.724016 | 7.499018 | 2.0 | 18.574 | 2 | 43.459 | 18.814 | 32.276 | 2 |
| 2025-09-07T16:52:00 | 54.726870 | 7.498588 | 2.0 | 18.531 | 2 | 43.411 | 18.732 | 32.300 | 2 |
| 2025-09-07T16:53:00 | 54.729704 | 7.498032 | 2.0 | 18.537 | 2 | 43.370 | 18.697 | 32.293 | 2 |
| 2025-09-07T16:54:00 | 54.732554 | 7.497482 | 2.0 | 18.547 | 2 | 43.353 | 18.706 | 32.272 | 2 |
| 2025-09-07T16:55:00 | 54.735400 | 7.497011 | 2.0 | 18.547 | 2 | 43.349 | 18.713 | 32.263 | 2 |
| 2025-09-07T16:56:00 | 54.738238 | 7.496512 | 2.0 | 18.531 | 2 | 43.336 | 18.711 | 32.254 | 2 |
| 2025-09-07T16:57:00 | 54.741049 | 7.495972 | 2.0 | 18.511 | 2 | 43.321 | 18.693 | 32.255 | 2 |
| 2025-09-07T16:58:00 | 54.743845 | 7.495477 | 2.0 | 18.493 | 2 | 43.292 | 18.675 | 32.245 | 2 |
| 2025-09-07T16:59:00 | 54.746629 | 7.494954 | 2.0 | 18.498 | 2 | 43.255 | 18.663 | 32.224 | 2 |
| 2025-09-07T17:00:00 | 54.749410 | 7.494464 | 2.0 | 18.500 | 2 | 43.246 | 18.665 | 32.215 | 2 |
| 2025-09-07T17:01:00 | 54.752195 | 7.493904 | 2.0 | 18.490 | 2 | 43.242 | 18.666 | 32.211 | 2 |
| 2025-09-07T17:02:00 | 54.754997 | 7.493407 | 2.0 | 18.495 | 2 | 43.228 | 18.658 | 32.205 | 2 |
| 2025-09-07T17:03:00 | 54.757800 | 7.492884 | 2.0 | 18.502 | 2 | 43.224 | 18.661 | 32.200 | 2 |
| 2025-09-07T17:04:00 | 54.760606 | 7.492384 | 2.0 | 18.508 | 2 | 43.224 | 18.668 | 32.194 | 2 |
| 2025-09-07T17:05:00 | 54.763408 | 7.491915 | 2.0 | 18.515 | 2 | 43.222 | 18.675 | 32.187 | 2 |
| 2025-09-07T17:06:00 | 54.766225 | 7.491402 | 2.0 | 18.515 | 2 | 43.223 | 18.679 | 32.185 | 2 |
| 2025-09-07T17:07:00 | 54.769040 | 7.490858 | 2.0 | 18.509 | 2 | 43.222 | 18.679 | 32.184 | 2 |
| 2025-09-07T17:08:00 | 54.771864 | 7.490376 | 2.0 | 18.507 | 2 | 43.216 | 18.674 | 32.183 | 2 |
| 2025-09-07T17:09:00 | 54.774701 | 7.489876 | 2.0 | 18.499 | 2 | 43.212 | 18.670 | 32.183 | 2 |
| 2025-09-07T17:10:00 | 54.777535 | 7.489375 | 2.0 | 18.498 | 2 | 43.206 | 18.664 | 32.182 | 2 |
| 2025-09-07T17:11:00 | 54.780376 | 7.488889 | 2.0 | 18.499 | 2 | 43.209 | 18.663 | 32.186 | 2 |
| 2025-09-07T17:12:00 | 54.783214 | 7.488241 | 2.0 | 18.502 | 2 | 43.212 | 18.664 | 32.187 | 2 |
| 2025-09-07T17:13:00 | 54.786047 | 7.487812 | 2.0 | 18.509 | 2 | 43.217 | 18.667 | 32.189 | 2 |
| 2025-09-07T17:14:00 | 54.788878 | 7.487343 | 2.0 | 18.511 | 2 | 43.229 | 18.674 | 32.194 | 2 |
| 2025-09-07T17:15:00 | 54.791703 | 7.486841 | 2.0 | 18.517 | 2 | 43.242 | 18.676 | 32.203 | 2 |
| 2025-09-07T17:16:00 | 54.794533 | 7.486325 | 2.0 | 18.522 | 2 | 43.248 | 18.682 | 32.203 | 2 |
| 2025-09-07T17:17:00 | 54.797376 | 7.485771 | 2.0 | 18.523 | 2 | 43.256 | 18.686 | 32.207 | 2 |
| 2025-09-07T17:18:00 | 54.800222 | 7.485236 | 2.0 | 18.519 | 2 | 43.267 | 18.686 | 32.216 | 2 |
| 2025-09-07T17:19:00 | 54.803066 | 7.484776 | 2.0 | 18.510 | 2 | 43.277 | 18.683 | 32.227 | 2 |
| 2025-09-07T17:20:00 | 54.805912 | 7.484221 | 2.0 | 18.504 | 2 | 43.287 | 18.672 | 32.243 | 2 |
| 2025-09-07T17:21:00 | 54.808758 | 7.483759 | 2.0 | 18.502 | 2 | 43.293 | 18.668 | 32.252 | 2 |
| 2025-09-07T17:22:00 | 54.811607 | 7.483168 | 2.0 | 18.494 | 2 | 43.299 | 18.665 | 32.259 | 2 |
| 2025-09-07T17:23:00 | 54.814446 | 7.482658 | 2.0 | 18.492 | 2 | 43.301 | 18.659 | 32.265 | 2 |
| 2025-09-07T17:24:00 | 54.817284 | 7.482158 | 2.0 | 18.491 | 2 | 43.305 | 18.657 | 32.270 | 2 |
| 2025-09-07T17:25:00 | 54.820123 | 7.481690 | 2.0 | 18.494 | 2 | 43.311 | 18.655 | 32.277 | 2 |
| 2025-09-07T17:26:00 | 54.822953 | 7.481187 | 2.0 | 18.491 | 2 | 43.318 | 18.657 | 32.281 | 2 |
| 2025-09-07T17:27:00 | 54.825779 | 7.480671 | 2.0 | 18.487 | 2 | 43.324 | 18.654 | 32.288 | 2 |
| 2025-09-07T17:28:00 | 54.828603 | 7.480139 | 2.0 | 18.499 | 2 | 43.334 | 18.655 | 32.296 | 2 |
| 2025-09-07T17:29:00 | 54.831427 | 7.479588 | 2.0 | 18.500 | 2 | 43.349 | 18.663 | 32.302 | 2 |
| 2025-09-07T17:30:00 | 54.834249 | 7.479140 | 2.0 | 18.493 | 2 | 43.364 | 18.662 | 32.315 | 2 |
| 2025-09-07T17:31:00 | 54.837075 | 7.478676 | 2.0 | 18.485 | 2 | 43.378 | 18.656 | 32.332 | 2 |
| 2025-09-07T17:32:00 | 54.839889 | 7.478354 | 2.0 | 18.480 | 2 | 43.390 | 18.648 | 32.348 | 2 |
| 2025-09-07T17:33:00 | 54.842705 | 7.477868 | 2.0 | 18.472 | 2 | 43.404 | 18.645 | 32.362 | 2 |
| 2025-09-07T17:34:00 | 54.845516 | 7.477495 | 2.0 | 18.449 | 2 | 43.419 | 18.633 | 32.384 | 2 |
| 2025-09-07T17:35:00 | 54.848314 | 7.477053 | 2.0 | 18.420 | 2 | 43.421 | 18.606 | 32.407 | 2 |
| 2025-09-07T17:36:00 | 54.851097 | 7.476645 | 2.0 | 18.424 | 2 | 43.416 | 18.589 | 32.416 | 2 |
| 2025-09-07T17:37:00 | 54.853881 | 7.476210 | 2.0 | 18.413 | 2 | 43.418 | 18.588 | 32.418 | 2 |
| 2025-09-07T17:38:00 | 54.856672 | 7.475694 | 2.0 | 18.391 | 2 | 43.412 | 18.576 | 32.423 | 2 |
| 2025-09-07T17:39:00 | 54.859460 | 7.475322 | 2.0 | 18.369 | 2 | 43.394 | 18.553 | 32.426 | 2 |
| 2025-09-07T17:40:00 | 54.862240 | 7.474918 | 2.0 | 18.337 | 2 | 43.377 | 18.534 | 32.427 | 2 |
| 2025-09-07T17:41:00 | 54.865014 | 7.474428 | 2.0 | 18.298 | 2 | 43.342 | 18.498 | 32.426 | 2 |
| 2025-09-07T17:42:00 | 54.867777 | 7.473972 | 2.0 | 18.318 | 2 | 43.307 | 18.472 | 32.417 | 2 |
| 2025-09-07T17:43:00 | 54.870541 | 7.473581 | 2.0 | 18.339 | 2 | 43.312 | 18.488 | 32.409 | 2 |
| 2025-09-07T17:44:00 | 54.873302 | 7.473208 | 2.0 | 18.352 | 2 | 43.325 | 18.506 | 32.405 | 2 |
| 2025-09-07T17:45:00 | 54.876048 | 7.472782 | 2.0 | 18.357 | 2 | 43.336 | 18.518 | 32.405 | 2 |
| 2025-09-07T17:46:00 | 54.878805 | 7.472328 | 2.0 | 18.359 | 2 | 43.336 | 18.522 | 32.402 | 2 |
| 2025-09-07T17:47:00 | 54.881561 | 7.471958 | 2.0 | 18.366 | 2 | 43.328 | 18.526 | 32.392 | 2 |
| 2025-09-07T17:48:00 | 54.884323 | 7.471516 | 2.0 | 18.381 | 2 | 43.324 | 18.533 | 32.383 | 2 |
| 2025-09-07T17:49:00 | 54.887090 | 7.471052 | 2.0 | 18.380 | 2 | 43.323 | 18.544 | 32.374 | 2 |
| 2025-09-07T17:50:00 | 54.889866 | 7.470694 | 2.0 | 18.352 | 2 | 43.307 | 18.537 | 32.366 | 2 |
| 2025-09-07T17:51:00 | 54.892631 | 7.470291 | 2.0 | 18.364 | 2 | 43.272 | 18.524 | 32.347 | 2 |
| 2025-09-07T17:52:00 | 54.895389 | 7.469822 | 2.0 | 18.364 | 2 | 43.260 | 18.527 | 32.334 | 2 |
| 2025-09-07T17:53:00 | 54.898164 | 7.469402 | 2.0 | 18.380 | 2 | 43.249 | 18.531 | 32.322 | 2 |
| 2025-09-07T17:54:00 | 54.900934 | 7.468991 | 2.0 | 18.384 | 2 | 43.250 | 18.547 | 32.310 | 2 |
| 2025-09-07T17:55:00 | 54.903715 | 7.468575 | 2.0 | 18.375 | 2 | 43.242 | 18.545 | 32.305 | 2 |
| 2025-09-07T17:56:00 | 54.906482 | 7.468189 | 2.0 | 18.390 | 2 | 43.228 | 18.541 | 32.297 | 2 |
| 2025-09-07T17:57:00 | 54.909252 | 7.467800 | 2.0 | 18.397 | 2 | 43.229 | 18.554 | 32.287 | 2 |
| 2025-09-07T17:58:00 | 54.912037 | 7.467354 | 2.0 | 18.414 | 2 | 43.231 | 18.564 | 32.281 | 2 |
| 2025-09-07T17:59:00 | 54.914826 | 7.466915 | 2.0 | 18.418 | 2 | 43.235 | 18.578 | 32.274 | 2 |
| 2025-09-07T18:00:00 | 54.917607 | 7.466535 | 2.0 | 18.424 | 2 | 43.235 | 18.583 | 32.270 | 2 |
| 2025-09-07T18:01:00 | 54.920397 | 7.466086 | 2.0 | 18.429 | 2 | 43.235 | 18.589 | 32.265 | 2 |
| 2025-09-07T18:02:00 | 54.923175 | 7.465630 | 2.0 | 18.424 | 2 | 43.237 | 18.593 | 32.264 | 2 |
| 2025-09-07T18:03:00 | 54.925957 | 7.465252 | 2.0 | 18.409 | 2 | 43.237 | 18.586 | 32.269 | 2 |
| 2025-09-07T18:04:00 | 54.928740 | 7.464826 | 2.0 | 18.392 | 2 | 43.235 | 18.570 | 32.280 | 2 |
| 2025-09-07T18:05:00 | 54.931517 | 7.464424 | 2.0 | 18.378 | 2 | 43.227 | 18.555 | 32.285 | 2 |
| 2025-09-07T18:06:00 | 54.934307 | 7.463960 | 2.0 | 18.377 | 2 | 43.232 | 18.544 | 32.298 | 2 |
| 2025-09-07T18:07:00 | 54.937106 | 7.463573 | 2.0 | 18.373 | 2 | 43.237 | 18.541 | 32.304 | 2 |
| 2025-09-07T18:08:00 | 54.939895 | 7.463173 | 2.0 | 18.374 | 2 | 43.243 | 18.539 | 32.311 | 2 |
| 2025-09-07T18:09:00 | 54.942685 | 7.462720 | 2.0 | 18.373 | 2 | 43.248 | 18.538 | 32.316 | 2 |
| 2025-09-07T18:10:00 | 54.945470 | 7.462311 | 2.0 | 18.371 | 2 | 43.254 | 18.538 | 32.321 | 2 |
| 2025-09-07T18:11:00 | 54.948245 | 7.461891 | 2.0 | 18.371 | 2 | 43.261 | 18.535 | 32.329 | 2 |
| 2025-09-07T18:12:00 | 54.951025 | 7.461447 | 2.0 | 18.371 | 2 | 43.269 | 18.537 | 32.334 | 2 |
| 2025-09-07T18:13:00 | 54.953817 | 7.461066 | 2.0 | 18.371 | 2 | 43.276 | 18.535 | 32.342 | 2 |
| 2025-09-07T18:14:00 | 54.956618 | 7.460645 | 2.0 | 18.373 | 2 | 43.283 | 18.537 | 32.346 | 2 |
| 2025-09-07T18:15:00 | 54.959420 | 7.460266 | 2.0 | 18.356 | 2 | 43.291 | 18.535 | 32.354 | 2 |
| 2025-09-07T18:16:00 | 54.962218 | 7.459778 | 2.0 | 18.341 | 2 | 43.303 | 18.519 | 32.377 | 2 |
| 2025-09-07T18:17:00 | 54.965012 | 7.459318 | 2.0 | 18.340 | 2 | 43.316 | 18.507 | 32.397 | 2 |
| 2025-09-07T18:18:00 | 54.967809 | 7.458947 | 2.0 | 18.354 | 2 | 43.329 | 18.507 | 32.408 | 2 |
| 2025-09-07T18:19:00 | 54.970617 | 7.458543 | 2.0 | 18.337 | 2 | 43.335 | 18.515 | 32.407 | 2 |
| 2025-09-07T18:20:00 | 54.973428 | 7.458101 | 2.0 | 18.336 | 2 | 43.350 | 18.503 | 32.429 | 2 |
| 2025-09-07T18:21:00 | 54.976231 | 7.457608 | 2.0 | 18.339 | 2 | 43.363 | 18.501 | 32.441 | 2 |
| 2025-09-07T18:22:00 | 54.979049 | 7.457254 | 2.0 | 18.347 | 2 | 43.371 | 18.505 | 32.444 | 2 |
| 2025-09-07T18:23:00 | 54.981846 | 7.456821 | 2.0 | 18.330 | 2 | 43.377 | 18.509 | 32.446 | 2 |
| 2025-09-07T18:24:00 | 54.984635 | 7.456357 | 2.0 | 18.339 | 2 | 43.390 | 18.497 | 32.467 | 2 |
| 2025-09-07T18:25:00 | 54.987433 | 7.455955 | 2.0 | 18.350 | 2 | 43.396 | 18.509 | 32.462 | 2 |
| 2025-09-07T18:26:00 | 54.990253 | 7.455570 | 2.0 | 18.331 | 2 | 43.403 | 18.512 | 32.466 | 2 |
| 2025-09-07T18:27:00 | 54.993067 | 7.455132 | 2.0 | 18.318 | 2 | 43.406 | 18.495 | 32.482 | 2 |
| 2025-09-07T18:28:00 | 54.995876 | 7.454633 | 2.0 | 18.320 | 2 | 43.407 | 18.484 | 32.491 | 2 |
| 2025-09-07T18:29:00 | 54.998682 | 7.454254 | 2.0 | 18.320 | 2 | 43.410 | 18.485 | 32.493 | 2 |
| 2025-09-07T18:30:00 | 55.001484 | 7.453794 | 2.0 | 18.321 | 2 | 43.417 | 18.485 | 32.499 | 2 |
| 2025-09-07T18:31:00 | 55.004293 | 7.453375 | 2.0 | 18.322 | 2 | 43.427 | 18.485 | 32.507 | 2 |
| 2025-09-07T18:32:00 | 55.007097 | 7.452970 | 2.0 | 18.320 | 2 | 43.439 | 18.486 | 32.516 | 2 |
| 2025-09-07T18:33:00 | 55.009894 | 7.452560 | 2.0 | 18.321 | 2 | 43.449 | 18.485 | 32.525 | 2 |
| 2025-09-07T18:34:00 | 55.012705 | 7.452140 | 2.0 | 18.321 | 2 | 43.454 | 18.486 | 32.529 | 2 |
| 2025-09-07T18:35:00 | 55.015517 | 7.451732 | 2.0 | 18.322 | 2 | 43.461 | 18.486 | 32.535 | 2 |
| 2025-09-07T18:36:00 | 55.018316 | 7.451244 | 2.0 | 18.319 | 2 | 43.467 | 18.486 | 32.540 | 2 |
| 2025-09-07T18:37:00 | 55.021116 | 7.450640 | 2.0 | 18.318 | 2 | 43.470 | 18.484 | 32.544 | 2 |
| 2025-09-07T18:38:00 | 55.023921 | 7.450115 | 2.0 | 18.318 | 2 | 43.482 | 18.482 | 32.555 | 2 |
| 2025-09-07T18:39:00 | 55.026729 | 7.449479 | 2.0 | 18.315 | 2 | 43.495 | 18.482 | 32.566 | 2 |
| 2025-09-07T18:40:00 | 55.029525 | 7.448846 | 2.0 | 18.314 | 2 | 43.510 | 18.479 | 32.581 | 2 |
| 2025-09-07T18:41:00 | 55.032328 | 7.448243 | 2.0 | 18.311 | 2 | 43.525 | 18.478 | 32.595 | 2 |
| 2025-09-07T18:42:00 | 55.035138 | 7.447664 | 2.0 | 18.309 | 2 | 43.545 | 18.476 | 32.613 | 2 |
| 2025-09-07T18:43:00 | 55.037951 | 7.447039 | 2.0 | 18.299 | 2 | 43.552 | 18.474 | 32.620 | 2 |
| 2025-09-07T18:44:00 | 55.040760 | 7.446452 | 2.0 | 18.292 | 2 | 43.568 | 18.462 | 32.643 | 2 |
| 2025-09-07T18:45:00 | 55.043573 | 7.445837 | 2.0 | 18.284 | 2 | 43.571 | 18.457 | 32.650 | 2 |
| 2025-09-07T18:46:00 | 55.046365 | 7.445229 | 2.0 | 18.297 | 2 | 43.569 | 18.452 | 32.652 | 2 |
| 2025-09-07T18:47:00 | 55.049148 | 7.444566 | 2.0 | 18.312 | 2 | 43.579 | 18.464 | 32.651 | 2 |
| 2025-09-07T18:48:00 | 55.051880 | 7.443870 | 2.0 | 18.312 | 2 | 43.590 | 18.477 | 32.650 | 2 |
| 2025-09-07T18:49:00 | 55.054585 | 7.443319 | 2.0 | 18.187 | 2 | 43.521 | 18.466 | 32.601 | 2 |
| 2025-09-07T18:50:00 | 55.057267 | 7.442959 | 2.0 | 18.145 | 2 | 43.353 | 18.349 | 32.553 | 2 |
| 2025-09-07T18:51:00 | 55.059940 | 7.442180 | 2.0 | 18.143 | 2 | 43.264 | 18.315 | 32.505 | 2 |
| 2025-09-07T18:52:00 | 55.062637 | 7.441648 | 2.0 | 18.164 | 2 | 43.235 | 18.312 | 32.483 | 2 |
| 2025-09-07T18:53:00 | 55.065322 | 7.441092 | 2.0 | 18.196 | 2 | 43.230 | 18.334 | 32.461 | 2 |
| 2025-09-07T18:54:00 | 55.068020 | 7.440565 | 2.0 | 18.243 | 2 | 43.236 | 18.370 | 32.438 | 2 |
| 2025-09-07T18:55:00 | 55.070714 | 7.440025 | 2.0 | 18.271 | 2 | 43.212 | 18.413 | 32.384 | 2 |
| 2025-09-07T18:56:00 | 55.073404 | 7.439463 | 2.0 | 18.263 | 2 | 43.205 | 18.433 | 32.362 | 2 |
| 2025-09-07T18:57:00 | 55.076084 | 7.438847 | 2.0 | 18.253 | 2 | 43.188 | 18.426 | 32.354 | 2 |
| 2025-09-07T18:58:00 | 55.078772 | 7.438229 | 2.0 | 18.248 | 2 | 43.177 | 18.417 | 32.351 | 2 |
| 2025-09-07T18:59:00 | 55.081453 | 7.437681 | 2.0 | 18.246 | 2 | 43.171 | 18.412 | 32.350 | 2 |
| 2025-09-07T19:00:00 | 55.084113 | 7.437146 | 2.0 | 18.252 | 2 | 43.170 | 18.412 | 32.350 | 2 |
| 2025-09-07T19:01:00 | 55.086752 | 7.436624 | 2.0 | 18.261 | 2 | 43.183 | 18.419 | 32.355 | 2 |
| 2025-09-07T19:02:00 | 55.089387 | 7.436022 | 2.0 | 18.267 | 2 | 43.196 | 18.428 | 32.359 | 2 |
| 2025-09-07T19:03:00 | 55.092021 | 7.435489 | 2.0 | 18.273 | 2 | 43.211 | 18.431 | 32.369 | 2 |
| 2025-09-07T19:04:00 | 55.094672 | 7.434923 | 2.0 | 18.276 | 2 | 43.232 | 18.437 | 32.382 | 2 |
| 2025-09-07T19:05:00 | 55.097325 | 7.434391 | 2.0 | 18.278 | 2 | 43.251 | 18.440 | 32.395 | 2 |
| 2025-09-07T19:06:00 | 55.099976 | 7.433848 | 2.0 | 18.284 | 2 | 43.271 | 18.442 | 32.410 | 2 |
| 2025-09-07T19:07:00 | 55.102619 | 7.433232 | 2.0 | 18.288 | 2 | 43.294 | 18.448 | 32.425 | 2 |
| 2025-09-07T19:08:00 | 55.105272 | 7.432624 | 2.0 | 18.291 | 2 | 43.309 | 18.454 | 32.433 | 2 |
| 2025-09-07T19:09:00 | 55.107926 | 7.432160 | 2.0 | 18.291 | 2 | 43.316 | 18.454 | 32.439 | 2 |
| 2025-09-07T19:10:00 | 55.110597 | 7.431478 | 2.0 | 18.286 | 2 | 43.323 | 18.454 | 32.445 | 2 |
| 2025-09-07T19:11:00 | 55.113240 | 7.430919 | 2.0 | 18.274 | 2 | 43.328 | 18.448 | 32.453 | 2 |
| 2025-09-07T19:12:00 | 55.115896 | 7.430426 | 2.0 | 18.278 | 2 | 43.345 | 18.439 | 32.475 | 2 |
| 2025-09-07T19:13:00 | 55.118518 | 7.429841 | 2.0 | 18.280 | 2 | 43.379 | 18.443 | 32.500 | 2 |
| 2025-09-07T19:14:00 | 55.121118 | 7.429301 | 2.0 | 18.275 | 2 | 43.392 | 18.442 | 32.512 | 2 |
| 2025-09-07T19:15:00 | 55.123684 | 7.428862 | 2.0 | 18.233 | 2 | 43.396 | 18.433 | 32.522 | 2 |
| 2025-09-07T19:16:00 | 55.126239 | 7.428228 | 2.0 | 18.190 | 2 | 43.361 | 18.388 | 32.528 | 2 |
| 2025-09-07T19:17:00 | 55.128837 | 7.427680 | 2.0 | 18.177 | 2 | 43.321 | 18.355 | 32.521 | 2 |
| 2025-09-07T19:18:00 | 55.131446 | 7.427074 | 2.0 | 18.174 | 2 | 43.309 | 18.343 | 32.520 | 2 |
| 2025-09-07T19:19:00 | 55.134063 | 7.426474 | 2.0 | 18.175 | 2 | 43.307 | 18.340 | 32.521 | 2 |
| 2025-09-07T19:20:00 | 55.136691 | 7.425918 | 2.0 | 18.176 | 2 | 43.308 | 18.339 | 32.523 | 2 |
| 2025-09-07T19:21:00 | 55.139335 | 7.425353 | 2.0 | 18.178 | 2 | 43.313 | 18.342 | 32.525 | 2 |
| 2025-09-07T19:22:00 | 55.141960 | 7.424870 | 2.0 | 18.184 | 2 | 43.317 | 18.344 | 32.526 | 2 |
| 2025-09-07T19:23:00 | 55.144547 | 7.424263 | 2.0 | 18.190 | 2 | 43.322 | 18.350 | 32.526 | 2 |
| 2025-09-07T19:24:00 | 55.147171 | 7.423700 | 2.0 | 18.202 | 2 | 43.327 | 18.357 | 32.525 | 2 |
| 2025-09-07T19:25:00 | 55.149790 | 7.423210 | 2.0 | 18.217 | 2 | 43.334 | 18.368 | 32.522 | 2 |
| 2025-09-07T19:26:00 | 55.152403 | 7.422572 | 2.0 | 18.229 | 2 | 43.345 | 18.383 | 32.519 | 2 |
| 2025-09-07T19:27:00 | 55.155035 | 7.421982 | 2.0 | 18.218 | 2 | 43.356 | 18.391 | 32.522 | 2 |
| 2025-09-07T19:28:00 | 55.157700 | 7.421382 | 2.0 | 18.212 | 2 | 43.363 | 18.381 | 32.536 | 2 |
| 2025-09-07T19:29:00 | 55.160367 | 7.420880 | 2.0 | 18.138 | 2 | 43.363 | 18.372 | 32.543 | 2 |
| 2025-09-07T19:30:00 | 55.163030 | 7.420318 | 2.0 | 18.082 | 2 | 43.325 | 18.292 | 32.574 | 2 |
| 2025-09-07T19:31:00 | 55.165664 | 7.419703 | 2.0 | 18.079 | 2 | 43.300 | 18.252 | 32.585 | 2 |
| 2025-09-07T19:32:00 | 55.168308 | 7.419159 | 2.0 | 18.078 | 2 | 43.299 | 18.246 | 32.589 | 2 |
| 2025-09-07T19:33:00 | 55.170937 | 7.418630 | 2.0 | 18.076 | 2 | 43.301 | 18.244 | 32.592 | 2 |
| 2025-09-07T19:34:00 | 55.173562 | 7.418107 | 2.0 | 18.070 | 2 | 43.305 | 18.241 | 32.598 | 2 |
| 2025-09-07T19:35:00 | 55.176172 | 7.417488 | 2.0 | 18.070 | 2 | 43.307 | 18.236 | 32.604 | 2 |
| 2025-09-07T19:36:00 | 55.178790 | 7.416914 | 2.0 | 18.071 | 2 | 43.311 | 18.236 | 32.607 | 2 |
| 2025-09-07T19:37:00 | 55.181427 | 7.416423 | 2.0 | 18.072 | 2 | 43.316 | 18.238 | 32.610 | 2 |
| 2025-09-07T19:38:00 | 55.184052 | 7.415829 | 2.0 | 18.073 | 2 | 43.323 | 18.239 | 32.615 | 2 |
| 2025-09-07T19:39:00 | 55.186661 | 7.415284 | 2.0 | 18.071 | 2 | 43.327 | 18.238 | 32.619 | 2 |
| 2025-09-07T19:40:00 | 55.189276 | 7.414761 | 2.0 | 18.067 | 2 | 43.330 | 18.237 | 32.622 | 2 |
| 2025-09-07T19:41:00 | 55.191899 | 7.414198 | 2.0 | 18.059 | 2 | 43.331 | 18.232 | 32.627 | 2 |
| 2025-09-07T19:42:00 | 55.194518 | 7.413620 | 2.0 | 18.055 | 2 | 43.331 | 18.224 | 32.633 | 2 |
| 2025-09-07T19:43:00 | 55.197149 | 7.413002 | 2.0 | 18.051 | 2 | 43.333 | 18.220 | 32.638 | 2 |
| 2025-09-07T19:44:00 | 55.199811 | 7.412552 | 2.0 | 18.048 | 2 | 43.326 | 18.217 | 32.635 | 2 |
| 2025-09-07T19:45:00 | 55.202435 | 7.412015 | 2.0 | 18.043 | 2 | 43.334 | 18.214 | 32.644 | 2 |
| 2025-09-07T19:46:00 | 55.205070 | 7.411473 | 2.0 | 18.040 | 2 | 43.341 | 18.210 | 32.653 | 2 |
| 2025-09-07T19:47:00 | 55.207703 | 7.410808 | 2.0 | 18.042 | 2 | 43.348 | 18.207 | 32.661 | 2 |
| 2025-09-07T19:48:00 | 55.210320 | 7.410259 | 2.0 | 18.039 | 2 | 43.358 | 18.207 | 32.670 | 2 |
| 2025-09-07T19:49:00 | 55.212956 | 7.409711 | 2.0 | 18.036 | 2 | 43.364 | 18.204 | 32.677 | 2 |
| 2025-09-07T19:50:00 | 55.215581 | 7.409127 | 2.0 | 18.035 | 2 | 43.369 | 18.201 | 32.684 | 2 |
| 2025-09-07T19:51:00 | 55.218215 | 7.408602 | 2.0 | 18.034 | 2 | 43.375 | 18.202 | 32.688 | 2 |
| 2025-09-07T19:52:00 | 55.220824 | 7.408030 | 2.0 | 18.030 | 2 | 43.385 | 18.199 | 32.699 | 2 |
| 2025-09-07T19:53:00 | 55.223456 | 7.407512 | 2.0 | 18.025 | 2 | 43.391 | 18.193 | 32.709 | 2 |
| 2025-09-07T19:54:00 | 55.226112 | 7.406912 | 2.0 | 18.020 | 2 | 43.393 | 18.189 | 32.714 | 2 |
| 2025-09-07T19:55:00 | 55.228744 | 7.406340 | 2.0 | 18.018 | 2 | 43.397 | 18.185 | 32.720 | 2 |
| 2025-09-07T19:56:00 | 55.231367 | 7.405835 | 2.0 | 18.015 | 2 | 43.400 | 18.183 | 32.724 | 2 |
| 2025-09-07T19:57:00 | 55.233989 | 7.405253 | 2.0 | 18.018 | 2 | 43.408 | 18.181 | 32.733 | 2 |
| 2025-09-07T19:58:00 | 55.236609 | 7.404684 | 2.0 | 18.020 | 2 | 43.419 | 18.184 | 32.739 | 2 |
| 2025-09-07T19:59:00 | 55.239231 | 7.404091 | 2.0 | 18.020 | 2 | 43.427 | 18.186 | 32.745 | 2 |
| 2025-09-07T20:00:00 | 55.241855 | 7.403593 | 2.0 | 18.022 | 2 | 43.435 | 18.186 | 32.751 | 2 |
| 2025-09-07T20:01:00 | 55.244454 | 7.403059 | 2.0 | 18.025 | 2 | 43.444 | 18.187 | 32.758 | 2 |
| 2025-09-07T20:02:00 | 55.247065 | 7.402400 | 2.0 | 18.028 | 2 | 43.449 | 18.192 | 32.758 | 2 |
| 2025-09-07T20:03:00 | 55.249653 | 7.401880 | 2.0 | 18.026 | 2 | 43.456 | 18.193 | 32.763 | 2 |
| 2025-09-07T20:04:00 | 55.252275 | 7.401197 | 2.0 | 18.016 | 2 | 43.462 | 18.191 | 32.770 | 2 |
| 2025-09-07T20:05:00 | 55.254914 | 7.400722 | 2.0 | 18.011 | 2 | 43.467 | 18.181 | 32.782 | 2 |
| 2025-09-07T20:06:00 | 55.257560 | 7.400219 | 2.0 | 18.017 | 2 | 43.475 | 18.178 | 32.791 | 2 |
| 2025-09-07T20:07:00 | 55.260193 | 7.399612 | 2.0 | 18.017 | 2 | 43.483 | 18.182 | 32.795 | 2 |
| 2025-09-07T20:08:00 | 55.262830 | 7.398958 | 2.0 | 18.010 | 2 | 43.476 | 18.181 | 32.790 | 2 |
| 2025-09-07T20:09:00 | 55.265467 | 7.398528 | 2.0 | 18.011 | 2 | 43.480 | 18.176 | 32.797 | 2 |
| 2025-09-07T20:10:00 | 55.268132 | 7.397923 | 2.0 | 18.013 | 2 | 43.489 | 18.175 | 32.806 | 2 |
| 2025-09-07T20:11:00 | 55.270776 | 7.397377 | 2.0 | 18.014 | 2 | 43.494 | 18.178 | 32.807 | 2 |
| 2025-09-07T20:12:00 | 55.273424 | 7.396660 | 2.0 | 18.006 | 2 | 43.493 | 18.178 | 32.807 | 2 |
| 2025-09-07T20:13:00 | 55.276081 | 7.396165 | 2.0 | 17.998 | 2 | 43.497 | 18.170 | 32.816 | 2 |
| 2025-09-07T20:14:00 | 55.278714 | 7.395658 | 2.0 | 17.998 | 2 | 43.502 | 18.164 | 32.825 | 2 |
| 2025-09-07T20:15:00 | 55.281357 | 7.395049 | 2.0 | 17.992 | 2 | 43.509 | 18.163 | 32.832 | 2 |
| 2025-09-07T20:16:00 | 55.284038 | 7.394494 | 2.0 | 17.987 | 2 | 43.519 | 18.158 | 32.845 | 2 |
| 2025-09-07T20:17:00 | 55.286683 | 7.394023 | 2.0 | 17.985 | 2 | 43.537 | 18.153 | 32.864 | 2 |
| 2025-09-07T20:18:00 | 55.289240 | 7.393381 | 2.0 | 17.983 | 2 | 43.542 | 18.151 | 32.870 | 2 |
| 2025-09-07T20:19:00 | 55.291855 | 7.392787 | 2.0 | 17.978 | 2 | 43.546 | 18.148 | 32.875 | 2 |
| 2025-09-07T20:20:00 | 55.294528 | 7.392242 | 2.0 | 17.983 | 2 | 43.568 | 18.146 | 32.896 | 2 |
| 2025-09-07T20:21:00 | 55.297184 | 7.391602 | 2.0 | 17.988 | 2 | 43.580 | 18.149 | 32.903 | 2 |
| 2025-09-07T20:22:00 | 55.299831 | 7.391198 | 2.0 | 17.993 | 2 | 43.592 | 18.155 | 32.909 | 2 |
| 2025-09-07T20:23:00 | 55.302475 | 7.390529 | 2.0 | 17.981 | 2 | 43.598 | 18.157 | 32.912 | 2 |
| 2025-09-07T20:24:00 | 55.305091 | 7.389905 | 2.0 | 17.979 | 2 | 43.614 | 18.145 | 32.935 | 2 |
| 2025-09-07T20:25:00 | 55.307683 | 7.389372 | 2.0 | 17.982 | 2 | 43.630 | 18.144 | 32.949 | 2 |
| 2025-09-07T20:26:00 | 55.310296 | 7.388815 | 2.0 | 17.973 | 2 | 43.633 | 18.145 | 32.951 | 2 |
| 2025-09-07T20:27:00 | 55.312906 | 7.388289 | 2.0 | 17.973 | 2 | 43.616 | 18.139 | 32.942 | 2 |
| 2025-09-07T20:28:00 | 55.315512 | 7.387695 | 2.0 | 17.973 | 2 | 43.616 | 18.139 | 32.942 | 2 |
| 2025-09-07T20:29:00 | 55.318098 | 7.387125 | 2.0 | 17.974 | 2 | 43.611 | 18.139 | 32.937 | 2 |
| 2025-09-07T20:30:00 | 55.320688 | 7.386604 | 2.0 | 17.976 | 2 | 43.605 | 18.139 | 32.932 | 2 |
| 2025-09-07T20:31:00 | 55.323306 | 7.385964 | 2.0 | 17.978 | 2 | 43.605 | 18.142 | 32.930 | 2 |
| 2025-09-07T20:32:00 | 55.325921 | 7.385494 | 2.0 | 17.981 | 2 | 43.608 | 18.144 | 32.931 | 2 |
| 2025-09-07T20:33:00 | 55.328569 | 7.385019 | 2.0 | 17.943 | 2 | 43.609 | 18.142 | 32.933 | 2 |
| 2025-09-07T20:34:00 | 55.331219 | 7.384472 | 2.0 | 17.908 | 2 | 43.578 | 18.103 | 32.939 | 2 |
| 2025-09-07T20:35:00 | 55.333815 | 7.383779 | 2.0 | 17.889 | 2 | 43.545 | 18.073 | 32.935 | 2 |
| 2025-09-07T20:36:00 | 55.336400 | 7.383226 | 2.0 | 17.879 | 2 | 43.526 | 18.055 | 32.933 | 2 |
| 2025-09-07T20:37:00 | 55.339025 | 7.382798 | 2.0 | 17.874 | 2 | 43.519 | 18.046 | 32.935 | 2 |
| 2025-09-07T20:38:00 | 55.341658 | 7.382089 | 2.0 | 17.875 | 2 | 43.518 | 18.041 | 32.938 | 2 |
| 2025-09-07T20:39:00 | 55.344322 | 7.381579 | 2.0 | 17.878 | 2 | 43.522 | 18.042 | 32.940 | 2 |
| 2025-09-07T20:40:00 | 55.346993 | 7.380996 | 2.0 | 17.884 | 2 | 43.526 | 18.044 | 32.942 | 2 |
| 2025-09-07T20:41:00 | 55.349660 | 7.380382 | 2.0 | 17.889 | 2 | 43.532 | 18.050 | 32.942 | 2 |
| 2025-09-07T20:42:00 | 55.352297 | 7.379873 | 2.0 | 17.894 | 2 | 43.538 | 18.055 | 32.943 | 2 |
| 2025-09-07T20:43:00 | 55.354923 | 7.379283 | 2.0 | 17.898 | 2 | 43.546 | 18.060 | 32.946 | 2 |
| 2025-09-07T20:44:00 | 55.357555 | 7.378787 | 2.0 | 17.897 | 2 | 43.553 | 18.062 | 32.950 | 2 |
| 2025-09-07T20:45:00 | 55.360191 | 7.378216 | 2.0 | 17.894 | 2 | 43.559 | 18.062 | 32.955 | 2 |
| 2025-09-07T20:46:00 | 55.362821 | 7.377602 | 2.0 | 17.890 | 2 | 43.562 | 18.059 | 32.960 | 2 |
| 2025-09-07T20:47:00 | 55.365471 | 7.377051 | 2.0 | 17.887 | 2 | 43.566 | 18.055 | 32.967 | 2 |
| 2025-09-07T20:48:00 | 55.368117 | 7.376499 | 2.0 | 17.884 | 2 | 43.569 | 18.051 | 32.973 | 2 |
| 2025-09-07T20:49:00 | 55.370766 | 7.375991 | 2.0 | 17.883 | 2 | 43.576 | 18.049 | 32.980 | 2 |
| 2025-09-07T20:50:00 | 55.373429 | 7.375364 | 2.0 | 17.880 | 2 | 43.583 | 18.048 | 32.987 | 2 |
| 2025-09-07T20:51:00 | 55.376086 | 7.374799 | 2.0 | 17.877 | 2 | 43.591 | 18.047 | 32.995 | 2 |
| 2025-09-07T20:52:00 | 55.378737 | 7.374249 | 2.0 | 17.865 | 2 | 43.595 | 18.041 | 33.003 | 2 |
| 2025-09-07T20:53:00 | 55.381372 | 7.373631 | 2.0 | 17.861 | 2 | 43.595 | 18.031 | 33.011 | 2 |
| 2025-09-07T20:54:00 | 55.383998 | 7.373031 | 2.0 | 17.857 | 2 | 43.594 | 18.028 | 33.013 | 2 |
| 2025-09-07T20:55:00 | 55.386610 | 7.372539 | 2.0 | 17.842 | 2 | 43.596 | 18.023 | 33.018 | 2 |
| 2025-09-07T20:56:00 | 55.389137 | 7.371847 | 2.0 | 17.831 | 2 | 43.593 | 18.007 | 33.029 | 2 |
| 2025-09-07T20:57:00 | 55.391731 | 7.371415 | 2.0 | 17.828 | 2 | 43.595 | 17.999 | 33.037 | 2 |
| 2025-09-07T20:58:00 | 55.394311 | 7.370876 | 2.0 | 17.818 | 2 | 43.597 | 17.993 | 33.043 | 2 |
| 2025-09-07T20:59:00 | 55.396938 | 7.370196 | 2.0 | 17.808 | 2 | 43.598 | 17.984 | 33.051 | 2 |
| 2025-09-07T21:00:00 | 55.399570 | 7.369665 | 2.0 | 17.798 | 2 | 43.595 | 17.974 | 33.057 | 2 |
| 2025-09-07T21:01:00 | 55.402178 | 7.369058 | 2.0 | 17.790 | 2 | 43.589 | 17.963 | 33.061 | 2 |
| 2025-09-07T21:02:00 | 55.404802 | 7.368473 | 2.0 | 17.780 | 2 | 43.583 | 17.955 | 33.062 | 2 |
| 2025-09-07T21:03:00 | 55.407446 | 7.368026 | 2.0 | 17.767 | 2 | 43.573 | 17.944 | 33.063 | 2 |
| 2025-09-07T21:04:00 | 55.410104 | 7.367471 | 2.0 | 17.770 | 2 | 43.567 | 17.935 | 33.065 | 2 |
| 2025-09-07T21:05:00 | 55.412713 | 7.366766 | 2.0 | 17.777 | 2 | 43.567 | 17.939 | 33.062 | 2 |
| 2025-09-07T21:06:00 | 55.415325 | 7.366297 | 2.0 | 17.782 | 2 | 43.573 | 17.944 | 33.063 | 2 |
| 2025-09-07T21:07:00 | 55.417956 | 7.365690 | 2.0 | 17.795 | 2 | 43.580 | 17.951 | 33.063 | 2 |
| 2025-09-07T21:08:00 | 55.420571 | 7.365045 | 2.0 | 17.807 | 2 | 43.590 | 17.962 | 33.063 | 2 |
| 2025-09-07T21:09:00 | 55.423193 | 7.364610 | 2.0 | 17.812 | 2 | 43.602 | 17.974 | 33.063 | 2 |
| 2025-09-07T21:10:00 | 55.425839 | 7.364020 | 2.0 | 17.818 | 2 | 43.609 | 17.979 | 33.065 | 2 |
| 2025-09-07T21:11:00 | 55.428487 | 7.363464 | 2.0 | 17.816 | 2 | 43.614 | 17.985 | 33.064 | 2 |
| 2025-09-07T21:12:00 | 55.431103 | 7.362849 | 2.0 | 17.794 | 2 | 43.605 | 17.978 | 33.062 | 2 |
| 2025-09-07T21:13:00 | 55.433702 | 7.362266 | 2.0 | 17.753 | 2 | 43.569 | 17.954 | 33.051 | 2 |
| 2025-09-07T21:14:00 | 55.436251 | 7.361735 | 2.0 | 17.742 | 2 | 43.517 | 17.918 | 33.036 | 2 |
| 2025-09-07T21:15:00 | 55.438811 | 7.361262 | 2.0 | 17.746 | 2 | 43.498 | 17.910 | 33.027 | 2 |
| 2025-09-07T21:16:00 | 55.441430 | 7.360749 | 2.0 | 17.748 | 2 | 43.492 | 17.912 | 33.020 | 2 |
| 2025-09-07T21:17:00 | 55.443942 | 7.360038 | 2.0 | 17.749 | 2 | 43.488 | 17.915 | 33.014 | 2 |
| 2025-09-07T21:18:00 | 55.446332 | 7.359553 | 2.0 | 17.748 | 2 | 43.478 | 17.914 | 33.006 | 2 |
| 2025-09-07T21:19:00 | 55.448889 | 7.359066 | 2.0 | 17.749 | 2 | 43.473 | 17.914 | 33.002 | 2 |
| 2025-09-07T21:20:00 | 55.451490 | 7.358503 | 2.0 | 17.754 | 2 | 43.468 | 17.916 | 32.996 | 2 |
| 2025-09-07T21:21:00 | 55.454122 | 7.357915 | 2.0 | 17.759 | 2 | 43.473 | 17.921 | 32.996 | 2 |
| 2025-09-07T21:22:00 | 55.456770 | 7.357379 | 2.0 | 17.761 | 2 | 43.479 | 17.925 | 32.998 | 2 |
| 2025-09-07T21:23:00 | 55.459397 | 7.356679 | 2.0 | 17.764 | 2 | 43.483 | 17.928 | 32.999 | 2 |
| 2025-09-07T21:24:00 | 55.461955 | 7.356145 | 2.0 | 17.769 | 2 | 43.488 | 17.930 | 33.002 | 2 |
| 2025-09-07T21:25:00 | 55.464566 | 7.355608 | 2.0 | 17.771 | 2 | 43.496 | 17.934 | 33.005 | 2 |
| 2025-09-07T21:26:00 | 55.467180 | 7.355255 | 2.0 | 17.774 | 2 | 43.498 | 17.937 | 33.005 | 2 |
| 2025-09-07T21:27:00 | 55.469825 | 7.354650 | 2.0 | 17.776 | 2 | 43.506 | 17.941 | 33.008 | 2 |
| 2025-09-07T21:28:00 | 55.472464 | 7.354015 | 2.0 | 17.780 | 2 | 43.513 | 17.943 | 33.013 | 2 |
| 2025-09-07T21:29:00 | 55.475118 | 7.353449 | 2.0 | 17.782 | 2 | 43.526 | 17.946 | 33.021 | 2 |
| 2025-09-07T21:30:00 | 55.477754 | 7.352876 | 2.0 | 17.784 | 2 | 43.540 | 17.949 | 33.031 | 2 |
| 2025-09-07T21:31:00 | 55.480362 | 7.352290 | 2.0 | 17.784 | 2 | 43.553 | 17.949 | 33.042 | 2 |
| 2025-09-07T21:32:00 | 55.482954 | 7.351748 | 2.0 | 17.784 | 2 | 43.569 | 17.949 | 33.055 | 2 |
| 2025-09-07T21:33:00 | 55.485537 | 7.351135 | 2.0 | 17.785 | 2 | 43.586 | 17.949 | 33.070 | 2 |
| 2025-09-07T21:34:00 | 55.488153 | 7.350658 | 2.0 | 17.786 | 2 | 43.610 | 17.950 | 33.089 | 2 |
| 2025-09-07T21:35:00 | 55.490776 | 7.350037 | 2.0 | 17.796 | 2 | 43.643 | 17.955 | 33.113 | 2 |
| 2025-09-07T21:36:00 | 55.493356 | 7.349426 | 2.0 | 17.802 | 2 | 43.681 | 17.963 | 33.139 | 2 |
| 2025-09-07T21:37:00 | 55.495948 | 7.348959 | 2.0 | 17.801 | 2 | 43.699 | 17.967 | 33.151 | 2 |
| 2025-09-07T21:38:00 | 55.498545 | 7.348432 | 2.0 | 17.732 | 2 | 43.694 | 17.963 | 33.150 | 2 |
| 2025-09-07T21:39:00 | 55.501140 | 7.347695 | 2.0 | 17.725 | 2 | 43.550 | 17.893 | 33.084 | 2 |
| 2025-09-07T21:40:00 | 55.503730 | 7.347200 | 2.0 | 17.739 | 2 | 43.473 | 17.896 | 33.017 | 2 |
| 2025-09-07T21:41:00 | 55.506312 | 7.346661 | 2.0 | 17.772 | 2 | 43.467 | 17.910 | 33.000 | 2 |
| 2025-09-07T21:42:00 | 55.508901 | 7.345976 | 2.0 | 17.777 | 2 | 43.488 | 17.941 | 32.993 | 2 |
| 2025-09-07T21:43:00 | 55.511473 | 7.345463 | 2.0 | 17.773 | 2 | 43.482 | 17.938 | 32.990 | 2 |
| 2025-09-07T21:44:00 | 55.514032 | 7.344951 | 2.0 | 17.798 | 2 | 43.471 | 17.945 | 32.975 | 2 |
| 2025-09-07T21:45:00 | 55.516559 | 7.344298 | 2.0 | 17.771 | 2 | 43.472 | 17.960 | 32.964 | 2 |
| 2025-09-07T21:46:00 | 55.519080 | 7.343806 | 2.0 | 17.756 | 2 | 43.460 | 17.934 | 32.975 | 2 |
| 2025-09-07T21:47:00 | 55.521568 | 7.343187 | 2.0 | 17.774 | 2 | 43.453 | 17.927 | 32.975 | 2 |
| 2025-09-07T21:48:00 | 55.524040 | 7.342783 | 2.0 | 17.783 | 2 | 43.457 | 17.942 | 32.966 | 2 |
| 2025-09-07T21:49:00 | 55.526552 | 7.342226 | 2.0 | 17.798 | 2 | 43.459 | 17.951 | 32.960 | 2 |
| 2025-09-07T21:50:00 | 55.529100 | 7.341519 | 2.0 | 17.812 | 2 | 43.460 | 17.963 | 32.952 | 2 |
| 2025-09-07T21:51:00 | 55.531643 | 7.341084 | 2.0 | 17.833 | 2 | 43.465 | 17.980 | 32.942 | 2 |
| 2025-09-07T21:52:00 | 55.534035 | 7.340516 | 2.0 | 17.847 | 2 | 43.476 | 17.999 | 32.936 | 2 |
| 2025-09-07T21:53:00 | 55.536540 | 7.339912 | 2.0 | 17.861 | 2 | 43.487 | 18.014 | 32.933 | 2 |
| 2025-09-07T21:54:00 | 55.539071 | 7.339371 | 2.0 | 17.870 | 2 | 43.493 | 18.027 | 32.928 | 2 |
| 2025-09-07T21:55:00 | 55.541667 | 7.338858 | 2.0 | 17.877 | 2 | 43.501 | 18.036 | 32.927 | 2 |
| 2025-09-07T21:56:00 | 55.544261 | 7.338212 | 2.0 | 17.880 | 2 | 43.505 | 18.042 | 32.926 | 2 |
| 2025-09-07T21:57:00 | 55.546844 | 7.337762 | 2.0 | 17.882 | 2 | 43.507 | 18.044 | 32.926 | 2 |
| 2025-09-07T21:58:00 | 55.549414 | 7.337279 | 2.0 | 17.882 | 2 | 43.509 | 18.046 | 32.926 | 2 |
| 2025-09-07T21:59:00 | 55.551988 | 7.336731 | 2.0 | 17.880 | 2 | 43.512 | 18.047 | 32.928 | 2 |
| 2025-09-07T22:00:00 | 55.554582 | 7.336097 | 2.0 | 17.875 | 2 | 43.512 | 18.044 | 32.930 | 2 |
| 2025-09-07T22:01:00 | 55.557195 | 7.335489 | 2.0 | 17.866 | 2 | 43.510 | 18.039 | 32.933 | 2 |
| 2025-09-07T22:02:00 | 55.559809 | 7.335040 | 2.0 | 17.860 | 2 | 43.505 | 18.030 | 32.936 | 2 |
| 2025-09-07T22:03:00 | 55.562406 | 7.334388 | 2.0 | 17.855 | 2 | 43.501 | 18.024 | 32.937 | 2 |
| 2025-09-07T22:04:00 | 55.565009 | 7.333823 | 2.0 | 17.849 | 2 | 43.498 | 18.020 | 32.938 | 2 |
| 2025-09-07T22:05:00 | 55.567644 | 7.333365 | 2.0 | 17.842 | 2 | 43.495 | 18.014 | 32.940 | 2 |
| 2025-09-07T22:06:00 | 55.570244 | 7.332658 | 2.0 | 17.837 | 2 | 43.491 | 18.007 | 32.942 | 2 |
| 2025-09-07T22:07:00 | 55.572863 | 7.332122 | 2.0 | 17.832 | 2 | 43.488 | 18.001 | 32.945 | 2 |
| 2025-09-07T22:08:00 | 55.575504 | 7.331579 | 2.0 | 17.830 | 2 | 43.476 | 17.997 | 32.938 | 2 |
| 2025-09-07T22:09:00 | 55.578128 | 7.330976 | 2.0 | 17.826 | 2 | 43.481 | 17.994 | 32.944 | 2 |
| 2025-09-07T22:10:00 | 55.580762 | 7.330441 | 2.0 | 17.827 | 2 | 43.483 | 17.993 | 32.947 | 2 |
| 2025-09-07T22:11:00 | 55.583422 | 7.329922 | 2.0 | 17.827 | 2 | 43.485 | 17.992 | 32.949 | 2 |
| 2025-09-07T22:12:00 | 55.586076 | 7.329264 | 2.0 | 17.827 | 2 | 43.489 | 17.992 | 32.953 | 2 |
| 2025-09-07T22:13:00 | 55.588704 | 7.328649 | 2.0 | 17.826 | 2 | 43.492 | 17.992 | 32.955 | 2 |
| 2025-09-07T22:14:00 | 55.591349 | 7.328103 | 2.0 | 17.829 | 2 | 43.495 | 17.991 | 32.959 | 2 |
| 2025-09-07T22:15:00 | 55.593987 | 7.327521 | 2.0 | 17.835 | 2 | 43.496 | 17.995 | 32.956 | 2 |
| 2025-09-07T22:16:00 | 55.596592 | 7.326876 | 2.0 | 17.842 | 2 | 43.495 | 18.001 | 32.951 | 2 |
| 2025-09-07T22:17:00 | 55.599244 | 7.326327 | 2.0 | 17.841 | 2 | 43.505 | 18.007 | 32.954 | 2 |
| 2025-09-07T22:18:00 | 55.601941 | 7.325739 | 2.0 | 17.841 | 2 | 43.506 | 18.005 | 32.957 | 2 |
| 2025-09-07T22:19:00 | 55.604647 | 7.325137 | 2.0 | 17.865 | 2 | 43.496 | 18.008 | 32.946 | 2 |
| 2025-09-07T22:20:00 | 55.607360 | 7.324527 | 2.0 | 17.891 | 2 | 43.463 | 18.034 | 32.897 | 2 |
| 2025-09-07T22:21:00 | 55.610064 | 7.323893 | 2.0 | 17.906 | 2 | 43.437 | 18.056 | 32.857 | 2 |
| 2025-09-07T22:22:00 | 55.612744 | 7.323404 | 2.0 | 17.939 | 2 | 43.420 | 18.074 | 32.828 | 2 |
| 2025-09-07T22:23:00 | 55.615448 | 7.322723 | 2.0 | 17.969 | 2 | 43.406 | 18.107 | 32.790 | 2 |
| 2025-09-07T22:24:00 | 55.618127 | 7.322160 | 2.0 | 17.981 | 2 | 43.410 | 18.132 | 32.773 | 2 |
| 2025-09-07T22:25:00 | 55.620753 | 7.321749 | 2.0 | 17.986 | 2 | 43.409 | 18.144 | 32.763 | 2 |
| 2025-09-07T22:26:00 | 55.623408 | 7.321095 | 2.0 | 17.992 | 2 | 43.411 | 18.149 | 32.761 | 2 |
| 2025-09-07T22:27:00 | 55.626100 | 7.320511 | 2.0 | 18.002 | 2 | 43.416 | 18.156 | 32.759 | 2 |
| 2025-09-07T22:28:00 | 55.628797 | 7.319862 | 2.0 | 18.007 | 2 | 43.418 | 18.165 | 32.754 | 2 |
| 2025-09-07T22:29:00 | 55.631465 | 7.319335 | 2.0 | 18.015 | 2 | 43.418 | 18.172 | 32.748 | 2 |
| 2025-09-07T22:30:00 | 55.634163 | 7.318686 | 2.0 | 18.020 | 2 | 43.424 | 18.179 | 32.748 | 2 |
| 2025-09-07T22:31:00 | 55.636827 | 7.318106 | 2.0 | 18.022 | 2 | 43.431 | 18.183 | 32.750 | 2 |
| 2025-09-07T22:32:00 | 55.639496 | 7.317538 | 2.0 | 18.022 | 2 | 43.437 | 18.185 | 32.754 | 2 |
| 2025-09-07T22:33:00 | 55.642178 | 7.316997 | 2.0 | 18.018 | 2 | 43.440 | 18.185 | 32.756 | 2 |
| 2025-09-07T22:34:00 | 55.644858 | 7.316443 | 2.0 | 18.014 | 2 | 43.442 | 18.181 | 32.761 | 2 |
| 2025-09-07T22:35:00 | 55.647547 | 7.315844 | 2.0 | 18.007 | 2 | 43.447 | 18.178 | 32.768 | 2 |
| 2025-09-07T22:36:00 | 55.650263 | 7.315188 | 2.0 | 17.998 | 2 | 43.452 | 18.171 | 32.778 | 2 |
| 2025-09-07T22:37:00 | 55.653011 | 7.314652 | 2.0 | 17.989 | 2 | 43.463 | 18.162 | 32.794 | 2 |
| 2025-09-07T22:38:00 | 55.655738 | 7.314051 | 2.0 | 17.977 | 2 | 43.467 | 18.153 | 32.805 | 2 |
| 2025-09-07T22:39:00 | 55.658445 | 7.313447 | 2.0 | 17.975 | 2 | 43.472 | 18.142 | 32.818 | 2 |
| 2025-09-07T22:40:00 | 55.661098 | 7.312869 | 2.0 | 17.962 | 2 | 43.404 | 18.137 | 32.764 | 2 |
| 2025-09-07T22:41:00 | 55.663828 | 7.312222 | 2.0 | 17.946 | 2 | 43.376 | 18.124 | 32.751 | 2 |
| 2025-09-07T22:42:00 | 55.666577 | 7.311686 | 2.0 | 17.952 | 2 | 43.454 | 18.112 | 32.827 | 2 |
| 2025-09-07T22:43:00 | 55.669338 | 7.311117 | 2.0 | 17.961 | 2 | 43.460 | 18.118 | 32.827 | 2 |
| 2025-09-07T22:44:00 | 55.672086 | 7.310461 | 2.0 | 17.967 | 2 | 43.458 | 18.126 | 32.819 | 2 |
| 2025-09-07T22:45:00 | 55.674829 | 7.309894 | 2.0 | 17.966 | 2 | 43.449 | 18.131 | 32.807 | 2 |
| 2025-09-07T22:46:00 | 55.677557 | 7.309275 | 2.0 | 17.958 | 2 | 43.394 | 18.130 | 32.762 | 2 |
| 2025-09-07T22:47:00 | 55.680234 | 7.308663 | 2.0 | 17.956 | 2 | 43.386 | 18.122 | 32.761 | 2 |
| 2025-09-07T22:48:00 | 55.682956 | 7.308006 | 2.0 | 17.969 | 2 | 43.369 | 18.123 | 32.746 | 2 |
| 2025-09-07T22:49:00 | 55.685724 | 7.307486 | 2.0 | 17.992 | 2 | 43.165 | 18.136 | 32.564 | 2 |
| 2025-09-07T22:50:00 | 55.688549 | 7.306748 | 2.0 | 18.008 | 2 | 43.359 | 18.158 | 32.710 | 2 |
| 2025-09-07T22:51:00 | 55.691393 | 7.306246 | 2.0 | 18.027 | 2 | 43.103 | 18.174 | 32.481 | 2 |
| 2025-09-07T22:52:00 | 55.694226 | 7.305614 | 2.0 | 18.042 | 2 | 43.262 | 18.192 | 32.601 | 2 |
| 2025-09-07T22:53:00 | 55.697023 | 7.305047 | 2.0 | 18.048 | 2 | 43.172 | 18.206 | 32.514 | 2 |
| 2025-09-07T22:54:00 | 55.699780 | 7.304451 | 2.0 | 18.046 | 2 | 43.155 | 18.209 | 32.497 | 2 |
| 2025-09-07T22:55:00 | 55.702550 | 7.303825 | 2.0 | 18.048 | 2 | 43.304 | 18.210 | 32.622 | 2 |
| 2025-09-07T22:56:00 | 55.705324 | 7.303376 | 2.0 | 18.045 | 2 | 43.248 | 18.212 | 32.573 | 2 |
| 2025-09-07T22:57:00 | 55.708140 | 7.303110 | 2.0 | 18.044 | 2 | 43.328 | 18.208 | 32.644 | 2 |
| 2025-09-07T22:58:00 | 55.710919 | 7.302751 | 2.0 | 18.055 | 2 | 43.283 | 18.211 | 32.603 | 2 |
| 2025-09-07T22:59:00 | 55.713705 | 7.302560 | 2.0 | 18.057 | 2 | 43.279 | 18.219 | 32.594 | 2 |
| 2025-09-07T23:00:00 | 55.716499 | 7.302433 | 2.0 | 18.060 | 2 | 43.183 | 18.225 | 32.508 | 2 |
| 2025-09-07T23:01:00 | 55.719316 | 7.302355 | 2.0 | 18.047 | 2 | 43.153 | 18.221 | 32.486 | 2 |
| 2025-09-07T23:02:00 | 55.722146 | 7.302380 | 2.0 | 18.054 | 2 | 43.265 | 18.213 | 32.587 | 2 |
| 2025-09-07T23:03:00 | 55.724945 | 7.302442 | 2.0 | 18.070 | 2 | 43.055 | 18.223 | 32.402 | 2 |
| 2025-09-07T23:04:00 | 55.727713 | 7.302333 | 2.0 | 18.077 | 2 | 43.136 | 18.235 | 32.461 | 2 |
| 2025-09-07T23:05:00 | 55.730466 | 7.302415 | 2.0 | 18.079 | 2 | 43.030 | 18.241 | 32.367 | 2 |
| 2025-09-07T23:06:00 | 55.733278 | 7.302499 | 2.0 | 18.077 | 2 | 43.161 | 18.242 | 32.476 | 2 |
| 2025-09-07T23:07:00 | 55.736090 | 7.302463 | 2.0 | 18.073 | 2 | 43.076 | 18.240 | 32.406 | 2 |
| 2025-09-07T23:08:00 | 55.738894 | 7.302400 | 2.0 | 18.064 | 2 | 43.045 | 18.236 | 32.383 | 2 |
| 2025-09-07T23:09:00 | 55.741696 | 7.302427 | 2.0 | 18.054 | 2 | 43.137 | 18.228 | 32.467 | 2 |
| 2025-09-07T23:10:00 | 55.744531 | 7.302578 | 2.0 | 18.043 | 2 | 43.139 | 18.217 | 32.477 | 2 |
| 2025-09-07T23:11:00 | 55.747388 | 7.302458 | 2.0 | 18.030 | 2 | 43.172 | 18.206 | 32.514 | 2 |
| 2025-09-07T23:12:00 | 55.750226 | 7.302429 | 2.0 | 18.016 | 2 | 43.184 | 18.193 | 32.534 | 2 |
| 2025-09-07T23:13:00 | 55.753083 | 7.302383 | 2.0 | 18.001 | 2 | 43.205 | 18.179 | 32.563 | 2 |
| 2025-09-07T23:14:00 | 55.755956 | 7.302415 | 2.0 | 17.972 | 2 | 43.232 | 18.161 | 32.600 | 2 |
| 2025-09-07T23:15:00 | 55.758829 | 7.302421 | 2.0 | 17.950 | 2 | 43.274 | 18.136 | 32.655 | 2 |
| 2025-09-07T23:16:00 | 55.761664 | 7.302381 | 2.0 | 17.930 | 2 | 43.255 | 18.113 | 32.658 | 2 |
| 2025-09-07T23:17:00 | 55.764505 | 7.302390 | 2.0 | 17.918 | 2 | 43.289 | 18.095 | 32.701 | 2 |
| 2025-09-07T23:18:00 | 55.767340 | 7.302349 | 2.0 | 17.908 | 2 | 43.294 | 18.083 | 32.715 | 2 |
| 2025-09-07T23:19:00 | 55.770160 | 7.302445 | 2.0 | 17.898 | 2 | 43.306 | 18.072 | 32.734 | 2 |
| 2025-09-07T23:20:00 | 55.772994 | 7.302393 | 2.0 | 17.890 | 2 | 43.318 | 18.064 | 32.750 | 2 |
| 2025-09-07T23:21:00 | 55.775835 | 7.302426 | 2.0 | 17.878 | 2 | 43.326 | 18.054 | 32.765 | 2 |
| 2025-09-07T23:22:00 | 55.778669 | 7.302479 | 2.0 | 17.876 | 2 | 43.312 | 18.044 | 32.761 | 2 |
| 2025-09-07T23:23:00 | 55.781556 | 7.302396 | 2.0 | 17.872 | 2 | 43.347 | 18.041 | 32.793 | 2 |
| 2025-09-07T23:24:00 | 55.784419 | 7.302399 | 2.0 | 17.867 | 2 | 43.347 | 18.036 | 32.797 | 2 |
| 2025-09-07T23:25:00 | 55.787250 | 7.302448 | 2.0 | 17.861 | 2 | 43.375 | 18.031 | 32.825 | 2 |
| 2025-09-07T23:26:00 | 55.790088 | 7.302382 | 2.0 | 17.854 | 2 | 43.384 | 18.027 | 32.836 | 2 |
| 2025-09-07T23:27:00 | 55.792926 | 7.302452 | 2.0 | 17.841 | 2 | 43.373 | 18.019 | 32.833 | 2 |
| 2025-09-07T23:28:00 | 55.795767 | 7.302537 | 2.0 | 17.829 | 2 | 43.392 | 18.005 | 32.860 | 2 |
| 2025-09-07T23:29:00 | 55.798582 | 7.302381 | 2.0 | 17.821 | 2 | 43.403 | 17.994 | 32.878 | 2 |
| 2025-09-07T23:30:00 | 55.801397 | 7.302454 | 2.0 | 17.815 | 2 | 43.413 | 17.986 | 32.893 | 2 |
| 2025-09-07T23:31:00 | 55.804208 | 7.302389 | 2.0 | 17.802 | 2 | 43.416 | 17.979 | 32.901 | 2 |
| 2025-09-07T23:32:00 | 55.807034 | 7.302502 | 2.0 | 17.796 | 2 | 43.417 | 17.967 | 32.912 | 2 |
| 2025-09-07T23:33:00 | 55.809861 | 7.302460 | 2.0 | 17.792 | 2 | 43.436 | 17.963 | 32.931 | 2 |
| 2025-09-07T23:34:00 | 55.812696 | 7.302426 | 2.0 | 17.796 | 2 | 43.441 | 17.958 | 32.939 | 2 |
| 2025-09-07T23:35:00 | 55.815504 | 7.302459 | 2.0 | 17.809 | 2 | 43.449 | 17.963 | 32.942 | 2 |
| 2025-09-07T23:36:00 | 55.818342 | 7.302454 | 2.0 | 17.815 | 2 | 43.470 | 17.975 | 32.950 | 2 |
| 2025-09-07T23:37:00 | 55.821193 | 7.302470 | 2.0 | 17.819 | 2 | 43.487 | 17.981 | 32.960 | 2 |
| 2025-09-07T23:38:00 | 55.824027 | 7.302524 | 2.0 | 17.815 | 2 | 43.494 | 17.983 | 32.964 | 2 |
| 2025-09-07T23:39:00 | 55.826834 | 7.302517 | 2.0 | 17.799 | 2 | 43.507 | 17.980 | 32.978 | 2 |
| 2025-09-07T23:40:00 | 55.829671 | 7.302428 | 2.0 | 17.760 | 2 | 43.502 | 17.958 | 32.991 | 2 |
| 2025-09-07T23:41:00 | 55.832462 | 7.302431 | 2.0 | 17.755 | 2 | 43.474 | 17.927 | 32.992 | 2 |
| 2025-09-07T23:42:00 | 55.835270 | 7.302441 | 2.0 | 17.767 | 2 | 43.455 | 17.924 | 32.979 | 2 |
| 2025-09-07T23:43:00 | 55.838078 | 7.302440 | 2.0 | 17.774 | 2 | 43.451 | 17.933 | 32.968 | 2 |
| 2025-09-07T23:44:00 | 55.840918 | 7.302414 | 2.0 | 17.786 | 2 | 43.461 | 17.941 | 32.970 | 2 |
| 2025-09-07T23:45:00 | 55.843774 | 7.302377 | 2.0 | 17.796 | 2 | 43.483 | 17.953 | 32.979 | 2 |
| 2025-09-07T23:46:00 | 55.846631 | 7.302488 | 2.0 | 17.798 | 2 | 43.503 | 17.961 | 32.990 | 2 |
| 2025-09-07T23:47:00 | 55.849496 | 7.302617 | 2.0 | 17.794 | 2 | 43.515 | 17.961 | 33.000 | 2 |
| 2025-09-07T23:48:00 | 55.852371 | 7.302651 | 2.0 | 17.790 | 2 | 43.524 | 17.958 | 33.010 | 2 |
| 2025-09-07T23:49:00 | 55.855160 | 7.302867 | 2.0 | 17.785 | 2 | 43.532 | 17.954 | 33.020 | 2 |
| 2025-09-07T23:50:00 | 55.857969 | 7.302882 | 2.0 | 17.780 | 2 | 43.538 | 17.951 | 33.027 | 2 |
| 2025-09-07T23:51:00 | 55.860813 | 7.302958 | 2.0 | 17.776 | 2 | 43.540 | 17.945 | 33.034 | 2 |
| 2025-09-07T23:52:00 | 55.863667 | 7.303027 | 2.0 | 17.775 | 2 | 43.548 | 17.942 | 33.043 | 2 |
| 2025-09-07T23:53:00 | 55.866527 | 7.303154 | 2.0 | 17.773 | 2 | 43.552 | 17.940 | 33.048 | 2 |
| 2025-09-07T23:54:00 | 55.869368 | 7.303277 | 2.0 | 17.774 | 2 | 43.555 | 17.939 | 33.051 | 2 |
| 2025-09-07T23:55:00 | 55.872188 | 7.303299 | 2.0 | 17.768 | 2 | 43.557 | 17.939 | 33.053 | 2 |
| 2025-09-07T23:56:00 | 55.874956 | 7.303239 | 2.0 | 17.761 | 2 | 43.548 | 17.931 | 33.052 | 2 |
| 2025-09-07T23:57:00 | 55.877713 | 7.303458 | 2.0 | 17.763 | 2 | 43.534 | 17.927 | 33.043 | 2 |
| 2025-09-07T23:58:00 | 55.880530 | 7.303510 | 2.0 | 17.766 | 2 | 43.532 | 17.929 | 33.040 | 2 |
| 2025-09-07T23:59:00 | 55.883362 | 7.303508 | 2.0 | 17.766 | 2 | 43.530 | 17.931 | 33.037 | 2 |
| 2025-09-08T00:00:00 | 55.886202 | 7.303480 | 2.0 | 17.761 | 2 | 43.526 | 17.930 | 33.034 | 2 |
| 2025-09-08T00:01:00 | 55.889014 | 7.303551 | 2.0 | 17.760 | 2 | 43.516 | 17.925 | 33.030 | 2 |
| 2025-09-08T00:02:00 | 55.891849 | 7.303472 | 2.0 | 17.760 | 2 | 43.509 | 17.925 | 33.024 | 2 |
| 2025-09-08T00:03:00 | 55.894706 | 7.303469 | 2.0 | 17.764 | 2 | 43.500 | 17.925 | 33.016 | 2 |
| 2025-09-08T00:04:00 | 55.897580 | 7.303505 | 2.0 | 17.772 | 2 | 43.488 | 17.930 | 33.002 | 2 |
| 2025-09-08T00:05:00 | 55.900455 | 7.303447 | 2.0 | 17.767 | 2 | 43.478 | 17.936 | 32.989 | 2 |
| 2025-09-08T00:06:00 | 55.903318 | 7.303475 | 2.0 | 17.751 | 2 | 43.476 | 17.929 | 32.993 | 2 |
| 2025-09-08T00:07:00 | 55.906180 | 7.303517 | 2.0 | 17.747 | 2 | 43.472 | 17.918 | 32.998 | 2 |
| 2025-09-08T00:08:00 | 55.909062 | 7.303463 | 2.0 | 17.739 | 2 | 43.465 | 17.911 | 32.998 | 2 |
| 2025-09-08T00:09:00 | 55.911891 | 7.303543 | 2.0 | 17.734 | 2 | 43.455 | 17.905 | 32.994 | 2 |
| 2025-09-08T00:10:00 | 55.914680 | 7.303462 | 2.0 | 17.743 | 2 | 43.448 | 17.900 | 32.992 | 2 |
| 2025-09-08T00:11:00 | 55.917511 | 7.303453 | 2.0 | 17.749 | 2 | 43.441 | 17.909 | 32.979 | 2 |
| 2025-09-08T00:12:00 | 55.920367 | 7.303520 | 2.0 | 17.759 | 2 | 43.441 | 17.915 | 32.974 | 2 |
| 2025-09-08T00:13:00 | 55.923208 | 7.303432 | 2.0 | 17.767 | 2 | 43.444 | 17.925 | 32.969 | 2 |
| 2025-09-08T00:14:00 | 55.926078 | 7.303546 | 2.0 | 17.771 | 2 | 43.450 | 17.933 | 32.967 | 2 |
| 2025-09-08T00:15:00 | 55.928967 | 7.303514 | 2.0 | 17.769 | 2 | 43.457 | 17.936 | 32.971 | 2 |
| 2025-09-08T00:16:00 | 55.931837 | 7.303612 | 2.0 | 17.769 | 2 | 43.463 | 17.934 | 32.977 | 2 |
| 2025-09-08T00:17:00 | 55.934637 | 7.303425 | 2.0 | 17.770 | 2 | 43.472 | 17.934 | 32.985 | 2 |
| 2025-09-08T00:18:00 | 55.937484 | 7.303482 | 2.0 | 17.762 | 2 | 43.481 | 17.933 | 32.994 | 2 |
| 2025-09-08T00:19:00 | 55.940355 | 7.303488 | 2.0 | 17.756 | 2 | 43.490 | 17.927 | 33.006 | 2 |
| 2025-09-08T00:20:00 | 55.943236 | 7.303553 | 2.0 | 17.740 | 2 | 43.497 | 17.920 | 33.018 | 2 |
| 2025-09-08T00:21:00 | 55.946090 | 7.303561 | 2.0 | 17.723 | 2 | 43.503 | 17.904 | 33.036 | 2 |
| 2025-09-08T00:22:00 | 55.948960 | 7.303458 | 2.0 | 17.708 | 2 | 43.511 | 17.886 | 33.057 | 2 |
| 2025-09-08T00:23:00 | 55.951845 | 7.303444 | 2.0 | 17.695 | 2 | 43.518 | 17.873 | 33.074 | 2 |
| 2025-09-08T00:24:00 | 55.954689 | 7.303571 | 2.0 | 17.677 | 2 | 43.524 | 17.858 | 33.091 | 2 |
| 2025-09-08T00:25:00 | 55.957527 | 7.303486 | 2.0 | 17.655 | 2 | 43.532 | 17.839 | 33.113 | 2 |
| 2025-09-08T00:26:00 | 55.960349 | 7.303520 | 2.0 | 17.639 | 2 | 43.531 | 17.820 | 33.128 | 2 |
| 2025-09-08T00:27:00 | 55.963194 | 7.303442 | 2.0 | 17.619 | 2 | 43.541 | 17.805 | 33.148 | 2 |
| 2025-09-08T00:28:00 | 55.966066 | 7.303497 | 2.0 | 17.607 | 2 | 43.543 | 17.784 | 33.167 | 2 |
| 2025-09-08T00:29:00 | 55.968942 | 7.303523 | 2.0 | 17.597 | 2 | 43.545 | 17.773 | 33.178 | 2 |
| 2025-09-08T00:30:00 | 55.971794 | 7.303492 | 2.0 | 17.590 | 2 | 43.543 | 17.763 | 33.184 | 2 |
| 2025-09-08T00:31:00 | 55.974641 | 7.303430 | 2.0 | 17.577 | 2 | 43.539 | 17.755 | 33.187 | 2 |
| 2025-09-08T00:32:00 | 55.977498 | 7.303500 | 2.0 | 17.559 | 2 | 43.534 | 17.739 | 33.196 | 2 |
| 2025-09-08T00:33:00 | 55.980356 | 7.303521 | 2.0 | 17.559 | 2 | 43.534 | 17.727 | 33.206 | 2 |
| 2025-09-08T00:34:00 | 55.983209 | 7.303464 | 2.0 | 17.549 | 2 | 43.535 | 17.723 | 33.210 | 2 |
| 2025-09-08T00:35:00 | 55.985993 | 7.303577 | 2.0 | 17.543 | 2 | 43.532 | 17.713 | 33.216 | 2 |
| 2025-09-08T00:36:00 | 55.988820 | 7.303514 | 2.0 | 17.543 | 2 | 43.535 | 17.709 | 33.221 | 2 |
| 2025-09-08T00:37:00 | 55.991655 | 7.303458 | 2.0 | 17.541 | 2 | 43.541 | 17.708 | 33.227 | 2 |
| 2025-09-08T00:38:00 | 55.994471 | 7.303520 | 2.0 | 17.541 | 2 | 43.547 | 17.708 | 33.233 | 2 |
| 2025-09-08T00:39:00 | 55.997286 | 7.303486 | 2.0 | 17.540 | 2 | 43.555 | 17.707 | 33.240 | 2 |
| 2025-09-08T00:40:00 | 56.000135 | 7.303502 | 2.0 | 17.535 | 2 | 43.560 | 17.706 | 33.245 | 2 |
| 2025-09-08T00:41:00 | 56.002984 | 7.303444 | 2.0 | 17.531 | 2 | 43.563 | 17.701 | 33.252 | 2 |
| 2025-09-08T00:42:00 | 56.005785 | 7.303404 | 2.0 | 17.527 | 2 | 43.565 | 17.696 | 33.258 | 2 |
| 2025-09-08T00:43:00 | 56.008601 | 7.303485 | 2.0 | 17.522 | 2 | 43.568 | 17.693 | 33.263 | 2 |
| 2025-09-08T00:44:00 | 56.011435 | 7.303478 | 2.0 | 17.513 | 2 | 43.568 | 17.688 | 33.267 | 2 |
| 2025-09-08T00:45:00 | 56.014227 | 7.303463 | 2.0 | 17.509 | 2 | 43.564 | 17.680 | 33.270 | 2 |
| 2025-09-08T00:46:00 | 56.017078 | 7.303452 | 2.0 | 17.500 | 2 | 43.561 | 17.673 | 33.273 | 2 |
| 2025-09-08T00:47:00 | 56.019928 | 7.303418 | 2.0 | 17.494 | 2 | 43.557 | 17.666 | 33.275 | 2 |
| 2025-09-08T00:48:00 | 56.022739 | 7.303479 | 2.0 | 17.487 | 2 | 43.558 | 17.659 | 33.282 | 2 |
| 2025-09-08T00:49:00 | 56.025557 | 7.303288 | 2.0 | 17.478 | 2 | 43.557 | 17.652 | 33.287 | 2 |
| 2025-09-08T00:50:00 | 56.028405 | 7.303483 | 2.0 | 17.470 | 2 | 43.442 | 17.644 | 33.195 | 2 |
| 2025-09-08T00:51:00 | 56.031246 | 7.303420 | 2.0 | 17.468 | 2 | 43.488 | 17.637 | 33.240 | 2 |
| 2025-09-08T00:52:00 | 56.034102 | 7.303386 | 2.0 | 17.465 | 2 | 43.461 | 17.634 | 33.220 | 2 |
| 2025-09-08T00:53:00 | 56.036950 | 7.303406 | 2.0 | 17.467 | 2 | 43.532 | 17.632 | 33.282 | 2 |
| 2025-09-08T00:54:00 | 56.039786 | 7.303476 | 2.0 | 17.473 | 2 | 43.525 | 17.634 | 33.274 | 2 |
| 2025-09-08T00:55:00 | 56.042630 | 7.303464 | 2.0 | 17.480 | 2 | 43.578 | 17.641 | 33.314 | 2 |
| 2025-09-08T00:56:00 | 56.045476 | 7.303376 | 2.0 | 17.482 | 2 | 43.595 | 17.647 | 33.323 | 2 |
| 2025-09-08T00:57:00 | 56.048345 | 7.303390 | 2.0 | 17.480 | 2 | 43.605 | 17.649 | 33.330 | 2 |
| 2025-09-08T00:58:00 | 56.051204 | 7.303388 | 2.0 | 17.465 | 2 | 43.593 | 17.644 | 33.324 | 2 |
| 2025-09-08T00:59:00 | 56.054073 | 7.303323 | 2.0 | 17.438 | 2 | 43.595 | 17.628 | 33.339 | 2 |
| 2025-09-08T01:00:00 | 56.056949 | 7.303386 | 2.0 | 17.404 | 2 | 43.589 | 17.603 | 33.354 | 2 |
| 2025-09-08T01:01:00 | 56.059781 | 7.303457 | 2.0 | 17.407 | 2 | 43.535 | 17.574 | 33.332 | 2 |
| 2025-09-08T01:02:00 | 56.062635 | 7.303380 | 2.0 | 17.415 | 2 | 43.516 | 17.575 | 33.315 | 2 |
| 2025-09-08T01:03:00 | 56.065471 | 7.303368 | 2.0 | 17.423 | 2 | 43.523 | 17.584 | 33.314 | 2 |
| 2025-09-08T01:04:00 | 56.068292 | 7.303407 | 2.0 | 17.424 | 2 | 43.528 | 17.590 | 33.313 | 2 |
| 2025-09-08T01:05:00 | 56.071109 | 7.303440 | 2.0 | 17.429 | 2 | 43.529 | 17.591 | 33.313 | 2 |
| 2025-09-08T01:06:00 | 56.073909 | 7.303402 | 2.0 | 17.444 | 2 | 43.539 | 17.597 | 33.317 | 2 |
| 2025-09-08T01:07:00 | 56.076751 | 7.303461 | 2.0 | 17.464 | 2 | 43.562 | 17.614 | 33.322 | 2 |
| 2025-09-08T01:08:00 | 56.079633 | 7.303416 | 2.0 | 17.470 | 2 | 43.585 | 17.630 | 33.329 | 2 |
| 2025-09-08T01:09:00 | 56.082498 | 7.303505 | 2.0 | 17.471 | 2 | 43.599 | 17.634 | 33.338 | 2 |
| 2025-09-08T01:10:00 | 56.085329 | 7.303684 | 2.0 | 17.471 | 2 | 43.608 | 17.636 | 33.344 | 2 |
| 2025-09-08T01:11:00 | 56.088169 | 7.303656 | 2.0 | 17.468 | 2 | 43.615 | 17.636 | 33.350 | 2 |
| 2025-09-08T01:12:00 | 56.091024 | 7.303789 | 2.0 | 17.462 | 2 | 43.623 | 17.632 | 33.360 | 2 |
| 2025-09-08T01:13:00 | 56.093909 | 7.303847 | 2.0 | 17.451 | 2 | 43.626 | 17.626 | 33.367 | 2 |
| 2025-09-08T01:14:00 | 56.096791 | 7.303988 | 2.0 | 17.444 | 2 | 43.626 | 17.615 | 33.376 | 2 |
| 2025-09-08T01:15:00 | 56.099686 | 7.304054 | 2.0 | 17.438 | 2 | 43.630 | 17.609 | 33.385 | 2 |
| 2025-09-08T01:16:00 | 56.102590 | 7.304133 | 2.0 | 17.429 | 2 | 43.632 | 17.603 | 33.391 | 2 |
| 2025-09-08T01:17:00 | 56.105470 | 7.304267 | 2.0 | 17.420 | 2 | 43.634 | 17.594 | 33.400 | 2 |
| 2025-09-08T01:18:00 | 56.108354 | 7.304305 | 2.0 | 17.410 | 2 | 43.621 | 17.585 | 33.397 | 2 |
| 2025-09-08T01:19:00 | 56.111241 | 7.304286 | 2.0 | 17.399 | 2 | 43.618 | 17.575 | 33.402 | 2 |
| 2025-09-08T01:20:00 | 56.114127 | 7.304354 | 2.0 | 17.390 | 2 | 43.615 | 17.564 | 33.409 | 2 |
| 2025-09-08T01:21:00 | 56.117058 | 7.304300 | 2.0 | 17.385 | 2 | 43.612 | 17.557 | 33.412 | 2 |
| 2025-09-08T01:22:00 | 56.119972 | 7.304381 | 2.0 | 17.385 | 2 | 43.619 | 17.553 | 33.421 | 2 |
| 2025-09-08T01:23:00 | 56.122912 | 7.304270 | 2.0 | 17.385 | 2 | 43.628 | 17.553 | 33.429 | 2 |
| 2025-09-08T01:24:00 | 56.125820 | 7.304228 | 2.0 | 17.386 | 2 | 43.644 | 17.551 | 33.444 | 2 |
| 2025-09-08T01:25:00 | 56.128731 | 7.304324 | 2.0 | 17.386 | 2 | 43.657 | 17.552 | 33.455 | 2 |
| 2025-09-08T01:26:00 | 56.131588 | 7.304343 | 2.0 | 17.380 | 2 | 43.660 | 17.551 | 33.458 | 2 |
| 2025-09-08T01:27:00 | 56.134445 | 7.304270 | 2.0 | 17.374 | 2 | 43.667 | 17.546 | 33.468 | 2 |
| 2025-09-08T01:28:00 | 56.137294 | 7.304337 | 2.0 | 17.367 | 2 | 43.673 | 17.541 | 33.477 | 2 |
| 2025-09-08T01:29:00 | 56.140203 | 7.304356 | 2.0 | 17.364 | 2 | 43.684 | 17.534 | 33.493 | 2 |
| 2025-09-08T01:30:00 | 56.143091 | 7.304369 | 2.0 | 17.360 | 2 | 43.699 | 17.530 | 33.509 | 2 |
| 2025-09-08T01:31:00 | 56.145973 | 7.304341 | 2.0 | 17.355 | 2 | 43.709 | 17.526 | 33.521 | 2 |
| 2025-09-08T01:32:00 | 56.148876 | 7.304366 | 2.0 | 17.350 | 2 | 43.712 | 17.521 | 33.527 | 2 |
| 2025-09-08T01:33:00 | 56.151788 | 7.304376 | 2.0 | 17.345 | 2 | 43.728 | 17.515 | 33.546 | 2 |
| 2025-09-08T01:34:00 | 56.154704 | 7.304327 | 2.0 | 17.337 | 2 | 43.742 | 17.510 | 33.562 | 2 |
| 2025-09-08T01:35:00 | 56.157619 | 7.304314 | 2.0 | 17.328 | 2 | 43.749 | 17.502 | 33.575 | 2 |
| 2025-09-08T01:36:00 | 56.160532 | 7.304349 | 2.0 | 17.319 | 2 | 43.752 | 17.494 | 33.584 | 2 |
| 2025-09-08T01:37:00 | 56.163434 | 7.304341 | 2.0 | 17.308 | 2 | 43.751 | 17.484 | 33.591 | 2 |
| 2025-09-08T01:38:00 | 56.166322 | 7.304302 | 2.0 | 17.299 | 2 | 43.754 | 17.474 | 33.602 | 2 |
| 2025-09-08T01:39:00 | 56.169165 | 7.304236 | 2.0 | 17.295 | 2 | 43.760 | 17.466 | 33.614 | 2 |
| 2025-09-08T01:40:00 | 56.172055 | 7.304339 | 2.0 | 17.290 | 2 | 43.766 | 17.461 | 33.623 | 2 |
| 2025-09-08T01:41:00 | 56.174985 | 7.304311 | 2.0 | 17.281 | 2 | 43.774 | 17.456 | 33.634 | 2 |
| 2025-09-08T01:42:00 | 56.177911 | 7.304310 | 2.0 | 17.229 | 2 | 43.770 | 17.437 | 33.647 | 2 |
| 2025-09-08T01:43:00 | 56.180821 | 7.304318 | 2.0 | 17.222 | 2 | 43.757 | 17.398 | 33.668 | 2 |
| 2025-09-08T01:44:00 | 56.183734 | 7.304337 | 2.0 | 17.241 | 2 | 43.758 | 17.394 | 33.672 | 2 |
| 2025-09-08T01:45:00 | 56.186666 | 7.304355 | 2.0 | 17.237 | 2 | 43.777 | 17.411 | 33.674 | 2 |
| 2025-09-08T01:46:00 | 56.189571 | 7.304287 | 2.0 | 17.190 | 2 | 43.749 | 17.391 | 33.667 | 2 |
| 2025-09-08T01:47:00 | 56.192471 | 7.304351 | 2.0 | 17.193 | 2 | 43.699 | 17.359 | 33.651 | 2 |
| 2025-09-08T01:48:00 | 56.195322 | 7.304280 | 2.0 | 17.183 | 2 | 43.687 | 17.359 | 33.640 | 2 |
| 2025-09-08T01:49:00 | 56.198200 | 7.304431 | 2.0 | 17.179 | 2 | 43.667 | 17.351 | 33.630 | 2 |
| 2025-09-08T01:50:00 | 56.201106 | 7.304390 | 2.0 | 17.174 | 2 | 43.647 | 17.346 | 33.617 | 2 |
| 2025-09-08T01:51:00 | 56.203997 | 7.304361 | 2.0 | 17.179 | 2 | 43.643 | 17.343 | 33.616 | 2 |
| 2025-09-08T01:52:00 | 56.206912 | 7.304380 | 2.0 | 17.182 | 2 | 43.650 | 17.348 | 33.617 | 2 |
| 2025-09-08T01:53:00 | 56.209787 | 7.304451 | 2.0 | 17.183 | 2 | 43.656 | 17.350 | 33.621 | 2 |
| 2025-09-08T01:54:00 | 56.212691 | 7.304430 | 2.0 | 17.181 | 2 | 43.657 | 17.350 | 33.622 | 2 |
| 2025-09-08T01:55:00 | 56.215492 | 7.305133 | 2.0 | 17.181 | 2 | 43.659 | 17.349 | 33.624 | 2 |
| 2025-09-08T01:56:00 | 56.218208 | 7.306372 | 2.0 | 17.173 | 2 | 43.665 | 17.347 | 33.631 | 2 |
| 2025-09-08T01:57:00 | 56.220989 | 7.307414 | 2.0 | 17.158 | 2 | 43.666 | 17.338 | 33.640 | 2 |
| 2025-09-08T01:58:00 | 56.223777 | 7.308481 | 2.0 | 17.152 | 2 | 43.664 | 17.323 | 33.650 | 2 |
| 2025-09-08T01:59:00 | 56.226600 | 7.309550 | 2.0 | 17.155 | 2 | 43.676 | 17.321 | 33.662 | 2 |
| 2025-09-08T02:00:00 | 56.229433 | 7.310569 | 2.0 | 17.095 | 2 | 43.699 | 17.316 | 33.686 | 2 |
| 2025-09-08T02:01:00 | 56.232247 | 7.311641 | 2.0 | 17.064 | 2 | 43.675 | 17.255 | 33.716 | 2 |
| 2025-09-08T02:02:00 | 56.235019 | 7.312733 | 2.0 | 17.057 | 2 | 43.651 | 17.231 | 33.716 | 2 |
| 2025-09-08T02:03:00 | 56.237801 | 7.313782 | 2.0 | 17.059 | 2 | 43.639 | 17.226 | 33.710 | 2 |
| 2025-09-08T02:04:00 | 56.240587 | 7.314828 | 2.0 | 17.046 | 2 | 43.636 | 17.227 | 33.706 | 2 |
| 2025-09-08T02:05:00 | 56.243372 | 7.315967 | 2.0 | 17.025 | 2 | 43.619 | 17.211 | 33.705 | 2 |
| 2025-09-08T02:06:00 | 56.246179 | 7.316964 | 2.0 | 17.006 | 2 | 43.602 | 17.192 | 33.706 | 2 |
| 2025-09-08T02:07:00 | 56.248988 | 7.318033 | 2.0 | 17.000 | 2 | 43.587 | 17.173 | 33.709 | 2 |
| 2025-09-08T02:08:00 | 56.251790 | 7.319181 | 2.0 | 17.010 | 2 | 43.586 | 17.171 | 33.710 | 2 |
| 2025-09-08T02:09:00 | 56.254612 | 7.320249 | 2.0 | 17.009 | 2 | 43.594 | 17.179 | 33.710 | 2 |
| 2025-09-08T02:10:00 | 56.257404 | 7.321201 | 2.0 | 17.008 | 2 | 43.588 | 17.176 | 33.707 | 2 |
| 2025-09-08T02:11:00 | 56.260144 | 7.322318 | 2.0 | 17.001 | 2 | 43.588 | 17.174 | 33.709 | 2 |
| 2025-09-08T02:12:00 | 56.262926 | 7.323443 | 2.0 | 17.002 | 2 | 43.584 | 17.170 | 33.709 | 2 |
| 2025-09-08T02:13:00 | 56.265710 | 7.324454 | 2.0 | 16.992 | 2 | 43.584 | 17.168 | 33.710 | 2 |
| 2025-09-08T02:14:00 | 56.268461 | 7.325482 | 2.0 | 16.998 | 2 | 43.581 | 17.162 | 33.713 | 2 |
| 2025-09-08T02:15:00 | 56.271220 | 7.326615 | 2.0 | 17.001 | 2 | 43.585 | 17.166 | 33.713 | 2 |
| 2025-09-08T02:16:00 | 56.274006 | 7.327648 | 2.0 | 16.987 | 2 | 43.588 | 17.167 | 33.715 | 2 |
| 2025-09-08T02:17:00 | 56.276793 | 7.328685 | 2.0 | 16.974 | 2 | 43.582 | 17.156 | 33.719 | 2 |
| 2025-09-08T02:18:00 | 56.279551 | 7.329813 | 2.0 | 16.931 | 2 | 43.566 | 17.134 | 33.723 | 2 |
| 2025-09-08T02:19:00 | 56.282305 | 7.330838 | 2.0 | 16.933 | 2 | 43.545 | 17.104 | 33.730 | 2 |
| 2025-09-08T02:20:00 | 56.285060 | 7.331883 | 2.0 | 16.940 | 2 | 43.534 | 17.103 | 33.722 | 2 |
| 2025-09-08T02:21:00 | 56.287841 | 7.332874 | 2.0 | 16.952 | 2 | 43.539 | 17.110 | 33.720 | 2 |
| 2025-09-08T02:22:00 | 56.290586 | 7.334061 | 2.0 | 16.976 | 2 | 43.545 | 17.123 | 33.714 | 2 |
| 2025-09-08T02:23:00 | 56.293369 | 7.335033 | 2.0 | 16.985 | 2 | 43.560 | 17.143 | 33.711 | 2 |
| 2025-09-08T02:24:00 | 56.296110 | 7.336123 | 2.0 | 16.988 | 2 | 43.569 | 17.152 | 33.711 | 2 |
| 2025-09-08T02:25:00 | 56.298905 | 7.337098 | 2.0 | 16.979 | 2 | 43.568 | 17.154 | 33.708 | 2 |
| 2025-09-08T02:26:00 | 56.301717 | 7.338140 | 2.0 | 16.972 | 2 | 43.563 | 17.146 | 33.711 | 2 |
| 2025-09-08T02:27:00 | 56.304509 | 7.339339 | 2.0 | 16.963 | 2 | 43.559 | 17.139 | 33.713 | 2 |
| 2025-09-08T02:28:00 | 56.307314 | 7.340448 | 2.0 | 16.947 | 2 | 43.552 | 17.129 | 33.715 | 2 |
| 2025-09-08T02:29:00 | 56.310131 | 7.341449 | 2.0 | 16.919 | 2 | 43.536 | 17.111 | 33.717 | 2 |
| 2025-09-08T02:30:00 | 56.312923 | 7.342574 | 2.0 | 16.903 | 2 | 43.512 | 17.086 | 33.717 | 2 |
| 2025-09-08T02:31:00 | 56.315739 | 7.343621 | 2.0 | 16.901 | 2 | 43.500 | 17.072 | 33.718 | 2 |
| 2025-09-08T02:32:00 | 56.318518 | 7.344677 | 2.0 | 16.905 | 2 | 43.501 | 17.069 | 33.721 | 2 |
| 2025-09-08T02:33:00 | 56.321276 | 7.345700 | 2.0 | 16.913 | 2 | 43.508 | 17.074 | 33.723 | 2 |
| 2025-09-08T02:34:00 | 56.324047 | 7.346825 | 2.0 | 16.911 | 2 | 43.514 | 17.080 | 33.723 | 2 |
| 2025-09-08T02:35:00 | 56.326838 | 7.347858 | 2.0 | 16.906 | 2 | 43.517 | 17.077 | 33.729 | 2 |
| 2025-09-08T02:36:00 | 56.329626 | 7.348904 | 2.0 | 16.893 | 2 | 43.522 | 17.071 | 33.738 | 2 |
| 2025-09-08T02:37:00 | 56.332417 | 7.350044 | 2.0 | 16.884 | 2 | 43.519 | 17.061 | 33.744 | 2 |
| 2025-09-08T02:38:00 | 56.335201 | 7.351109 | 2.0 | 16.868 | 2 | 43.513 | 17.051 | 33.747 | 2 |
| 2025-09-08T02:39:00 | 56.337994 | 7.352184 | 2.0 | 16.854 | 2 | 43.497 | 17.035 | 33.746 | 2 |
| 2025-09-08T02:40:00 | 56.340786 | 7.353222 | 2.0 | 16.839 | 2 | 43.487 | 17.020 | 33.750 | 2 |
| 2025-09-08T02:41:00 | 56.343565 | 7.354316 | 2.0 | 16.808 | 2 | 43.479 | 17.004 | 33.757 | 2 |
| 2025-09-08T02:42:00 | 56.346362 | 7.355328 | 2.0 | 16.702 | 2 | 43.457 | 16.943 | 33.789 | 2 |
| 2025-09-08T02:43:00 | 56.349141 | 7.356403 | 2.0 | 16.706 | 2 | 43.427 | 16.879 | 33.817 | 2 |
| 2025-09-08T02:44:00 | 56.351932 | 7.357414 | 2.0 | 16.707 | 2 | 43.426 | 16.877 | 33.817 | 2 |
| 2025-09-08T02:45:00 | 56.354717 | 7.358437 | 2.0 | 16.700 | 2 | 43.421 | 16.876 | 33.814 | 2 |
| 2025-09-08T02:46:00 | 56.357476 | 7.359596 | 2.0 | 16.690 | 2 | 43.416 | 16.868 | 33.816 | 2 |
| 2025-09-08T02:47:00 | 56.360263 | 7.360565 | 2.0 | 16.687 | 2 | 43.414 | 16.859 | 33.822 | 2 |
| 2025-09-08T02:48:00 | 56.363017 | 7.361729 | 2.0 | 16.685 | 2 | 43.416 | 16.855 | 33.827 | 2 |
| 2025-09-08T02:49:00 | 56.365802 | 7.362789 | 2.0 | 16.685 | 2 | 43.420 | 16.855 | 33.831 | 2 |
| 2025-09-08T02:50:00 | 56.368593 | 7.363795 | 2.0 | 16.682 | 2 | 43.424 | 16.854 | 33.835 | 2 |
| 2025-09-08T02:51:00 | 56.371366 | 7.364927 | 2.0 | 16.678 | 2 | 43.424 | 16.850 | 33.838 | 2 |
| 2025-09-08T02:52:00 | 56.374166 | 7.365947 | 2.0 | 16.674 | 2 | 43.422 | 16.846 | 33.840 | 2 |
| 2025-09-08T02:53:00 | 56.376964 | 7.367013 | 2.0 | 16.673 | 2 | 43.421 | 16.843 | 33.842 | 2 |
| 2025-09-08T02:54:00 | 56.379733 | 7.368125 | 2.0 | 16.663 | 2 | 43.417 | 16.839 | 33.842 | 2 |
| 2025-09-08T02:55:00 | 56.382518 | 7.369148 | 2.0 | 16.664 | 2 | 43.415 | 16.833 | 33.845 | 2 |
| 2025-09-08T02:56:00 | 56.385323 | 7.370156 | 2.0 | 16.681 | 2 | 43.408 | 16.836 | 33.836 | 2 |
| 2025-09-08T02:57:00 | 56.388131 | 7.371246 | 2.0 | 16.686 | 2 | 43.386 | 16.850 | 33.805 | 2 |
| 2025-09-08T02:58:00 | 56.390911 | 7.372348 | 2.0 | 16.690 | 2 | 43.367 | 16.855 | 33.785 | 2 |
| 2025-09-08T02:59:00 | 56.393685 | 7.373451 | 2.0 | 16.694 | 2 | 43.358 | 16.859 | 33.773 | 2 |
| 2025-09-08T03:00:00 | 56.396478 | 7.374347 | 2.0 | 16.695 | 2 | 43.351 | 16.863 | 33.764 | 2 |
| 2025-09-08T03:01:00 | 56.399251 | 7.375481 | 2.0 | 16.708 | 2 | 43.354 | 16.864 | 33.766 | 2 |
| 2025-09-08T03:02:00 | 56.402000 | 7.376573 | 2.0 | 16.722 | 2 | 43.360 | 16.879 | 33.758 | 2 |
| 2025-09-08T03:03:00 | 56.404774 | 7.377675 | 2.0 | 16.727 | 2 | 43.371 | 16.890 | 33.759 | 2 |
| 2025-09-08T03:04:00 | 56.407570 | 7.378728 | 2.0 | 16.731 | 2 | 43.380 | 16.895 | 33.762 | 2 |
| 2025-09-08T03:05:00 | 56.410360 | 7.379758 | 2.0 | 16.721 | 2 | 43.381 | 16.897 | 33.761 | 2 |
| 2025-09-08T03:06:00 | 56.413118 | 7.380933 | 2.0 | 16.699 | 2 | 43.375 | 16.886 | 33.765 | 2 |
| 2025-09-08T03:07:00 | 56.415881 | 7.381888 | 2.0 | 16.652 | 2 | 43.358 | 16.859 | 33.773 | 2 |
| 2025-09-08T03:08:00 | 56.418629 | 7.382967 | 2.0 | 16.670 | 2 | 43.308 | 16.822 | 33.761 | 2 |
| 2025-09-08T03:09:00 | 56.421414 | 7.383991 | 2.0 | 16.704 | 2 | 43.326 | 16.845 | 33.757 | 2 |
| 2025-09-08T03:10:00 | 56.424190 | 7.385065 | 2.0 | 16.719 | 2 | 43.352 | 16.873 | 33.756 | 2 |
| 2025-09-08T03:11:00 | 56.426957 | 7.386145 | 2.0 | 16.706 | 2 | 43.356 | 16.883 | 33.751 | 2 |
| 2025-09-08T03:12:00 | 56.429700 | 7.387250 | 2.0 | 16.695 | 2 | 43.331 | 16.873 | 33.738 | 2 |
| 2025-09-08T03:13:00 | 56.432481 | 7.388273 | 2.0 | 16.683 | 2 | 43.308 | 16.860 | 33.729 | 2 |
| 2025-09-08T03:14:00 | 56.435265 | 7.389349 | 2.0 | 16.691 | 2 | 43.294 | 16.853 | 33.723 | 2 |
| 2025-09-08T03:15:00 | 56.438043 | 7.390386 | 2.0 | 16.698 | 2 | 43.298 | 16.859 | 33.721 | 2 |
| 2025-09-08T03:16:00 | 56.440801 | 7.391461 | 2.0 | 16.707 | 2 | 43.308 | 16.866 | 33.724 | 2 |
| 2025-09-08T03:17:00 | 56.443550 | 7.392548 | 2.0 | 16.710 | 2 | 43.304 | 16.874 | 33.714 | 2 |
| 2025-09-08T03:18:00 | 56.446314 | 7.393531 | 2.0 | 16.714 | 2 | 43.315 | 16.878 | 33.720 | 2 |
| 2025-09-08T03:19:00 | 56.449075 | 7.394692 | 2.0 | 16.715 | 2 | 43.322 | 16.881 | 33.724 | 2 |
| 2025-09-08T03:20:00 | 56.451877 | 7.395721 | 2.0 | 16.716 | 2 | 43.335 | 16.883 | 33.733 | 2 |
| 2025-09-08T03:21:00 | 56.454672 | 7.396788 | 2.0 | 16.719 | 2 | 43.344 | 16.884 | 33.740 | 2 |
| 2025-09-08T03:22:00 | 56.457398 | 7.397924 | 2.0 | 16.722 | 2 | 43.349 | 16.886 | 33.743 | 2 |
| 2025-09-08T03:23:00 | 56.460158 | 7.398855 | 2.0 | 16.722 | 2 | 43.351 | 16.889 | 33.742 | 2 |
| 2025-09-08T03:24:00 | 56.462924 | 7.399900 | 2.0 | 16.733 | 2 | 43.350 | 16.891 | 33.740 | 2 |
| 2025-09-08T03:25:00 | 56.465701 | 7.400966 | 2.0 | 16.756 | 2 | 43.352 | 16.904 | 33.730 | 2 |
| 2025-09-08T03:26:00 | 56.468509 | 7.402016 | 2.0 | 16.770 | 2 | 43.355 | 16.924 | 33.716 | 2 |
| 2025-09-08T03:27:00 | 56.471294 | 7.403106 | 2.0 | 16.785 | 2 | 43.351 | 16.938 | 33.701 | 2 |
| 2025-09-08T03:28:00 | 56.474060 | 7.404161 | 2.0 | 16.798 | 2 | 43.337 | 16.951 | 33.678 | 2 |
| 2025-09-08T03:29:00 | 56.476841 | 7.405183 | 2.0 | 16.826 | 2 | 43.322 | 16.969 | 33.650 | 2 |
| 2025-09-08T03:30:00 | 56.479653 | 7.406253 | 2.0 | 16.862 | 2 | 43.324 | 16.995 | 33.630 | 2 |
| 2025-09-08T03:31:00 | 56.482461 | 7.407390 | 2.0 | 16.898 | 2 | 43.337 | 17.031 | 33.611 | 2 |
| 2025-09-08T03:32:00 | 56.485265 | 7.408477 | 2.0 | 16.928 | 2 | 43.351 | 17.067 | 33.593 | 2 |
| 2025-09-08T03:33:00 | 56.488104 | 7.409456 | 2.0 | 16.951 | 2 | 43.363 | 17.094 | 33.581 | 2 |
| 2025-09-08T03:34:00 | 56.490884 | 7.410594 | 2.0 | 16.983 | 2 | 43.366 | 17.119 | 33.563 | 2 |
| 2025-09-08T03:35:00 | 56.493677 | 7.411657 | 2.0 | 17.001 | 2 | 43.379 | 17.150 | 33.548 | 2 |
| 2025-09-08T03:36:00 | 56.496489 | 7.412721 | 2.0 | 17.004 | 2 | 43.381 | 17.163 | 33.539 | 2 |
| 2025-09-08T03:37:00 | 56.499296 | 7.413862 | 2.0 | 17.016 | 2 | 43.392 | 17.171 | 33.542 | 2 |
| 2025-09-08T03:38:00 | 56.502146 | 7.414920 | 2.0 | 17.027 | 2 | 43.399 | 17.182 | 33.539 | 2 |
| 2025-09-08T03:39:00 | 56.504984 | 7.416060 | 2.0 | 17.032 | 2 | 43.405 | 17.193 | 33.535 | 2 |
| 2025-09-08T03:40:00 | 56.507812 | 7.417109 | 2.0 | 17.036 | 2 | 43.411 | 17.196 | 33.538 | 2 |
| 2025-09-08T03:41:00 | 56.510630 | 7.418158 | 2.0 | 17.037 | 2 | 43.411 | 17.200 | 33.534 | 2 |
| 2025-09-08T03:42:00 | 56.513450 | 7.419294 | 2.0 | 17.039 | 2 | 43.412 | 17.202 | 33.533 | 2 |
| 2025-09-08T03:43:00 | 56.516299 | 7.420413 | 2.0 | 17.031 | 2 | 43.410 | 17.202 | 33.532 | 2 |
| 2025-09-08T03:44:00 | 56.519132 | 7.421531 | 2.0 | 17.025 | 2 | 43.412 | 17.195 | 33.539 | 2 |
| 2025-09-08T03:45:00 | 56.521981 | 7.422621 | 2.0 | 17.012 | 2 | 43.421 | 17.187 | 33.554 | 2 |
| 2025-09-08T03:46:00 | 56.524806 | 7.423602 | 2.0 | 17.002 | 2 | 43.422 | 17.175 | 33.565 | 2 |
| 2025-09-08T03:47:00 | 56.527599 | 7.424700 | 2.0 | 16.995 | 2 | 43.425 | 17.166 | 33.575 | 2 |
| 2025-09-08T03:48:00 | 56.530405 | 7.425877 | 2.0 | 16.979 | 2 | 43.422 | 17.158 | 33.579 | 2 |
| 2025-09-08T03:49:00 | 56.533255 | 7.426947 | 2.0 | 16.972 | 2 | 43.409 | 17.145 | 33.578 | 2 |
| 2025-09-08T03:50:00 | 56.536107 | 7.427941 | 2.0 | 16.970 | 2 | 43.402 | 17.138 | 33.578 | 2 |
| 2025-09-08T03:51:00 | 56.538909 | 7.429050 | 2.0 | 16.944 | 2 | 43.395 | 17.134 | 33.575 | 2 |
| 2025-09-08T03:52:00 | 56.541723 | 7.430144 | 2.0 | 16.942 | 2 | 43.387 | 17.109 | 33.589 | 2 |
| 2025-09-08T03:53:00 | 56.544515 | 7.431206 | 2.0 | 16.946 | 2 | 43.386 | 17.108 | 33.589 | 2 |
| 2025-09-08T03:54:00 | 56.547303 | 7.432282 | 2.0 | 16.934 | 2 | 43.388 | 17.111 | 33.588 | 2 |
| 2025-09-08T03:55:00 | 56.550144 | 7.433374 | 2.0 | 16.900 | 2 | 43.390 | 17.098 | 33.601 | 2 |
| 2025-09-08T03:56:00 | 56.552962 | 7.434445 | 2.0 | 16.895 | 2 | 43.396 | 17.071 | 33.629 | 2 |
| 2025-09-08T03:57:00 | 56.555796 | 7.435632 | 2.0 | 16.874 | 2 | 43.395 | 17.060 | 33.637 | 2 |
| 2025-09-08T03:58:00 | 56.558630 | 7.436733 | 2.0 | 16.863 | 2 | 43.405 | 17.040 | 33.662 | 2 |
| 2025-09-08T03:59:00 | 56.561499 | 7.437704 | 2.0 | 16.827 | 2 | 43.405 | 17.021 | 33.678 | 2 |
| 2025-09-08T04:00:00 | 56.564291 | 7.438785 | 2.0 | 16.821 | 2 | 43.409 | 16.995 | 33.704 | 2 |
| 2025-09-08T04:01:00 | 56.566981 | 7.439970 | 2.0 | 16.839 | 2 | 43.410 | 16.995 | 33.704 | 2 |
| 2025-09-08T04:02:00 | 56.569744 | 7.440921 | 2.0 | 16.810 | 2 | 43.409 | 16.999 | 33.700 | 2 |
| 2025-09-08T04:03:00 | 56.572490 | 7.441940 | 2.0 | 16.804 | 2 | 43.415 | 16.978 | 33.723 | 2 |
| 2025-09-08T04:04:00 | 56.575258 | 7.443057 | 2.0 | 16.804 | 2 | 43.424 | 16.972 | 33.736 | 2 |
| 2025-09-08T04:05:00 | 56.578055 | 7.444188 | 2.0 | 16.809 | 2 | 43.434 | 16.973 | 33.744 | 2 |
| 2025-09-08T04:06:00 | 56.580878 | 7.445185 | 2.0 | 16.812 | 2 | 43.438 | 16.977 | 33.744 | 2 |
| 2025-09-08T04:07:00 | 56.583689 | 7.446302 | 2.0 | 16.812 | 2 | 43.440 | 16.978 | 33.745 | 2 |
| 2025-09-08T04:08:00 | 56.586510 | 7.447431 | 2.0 | 16.807 | 2 | 43.444 | 16.978 | 33.748 | 2 |
| 2025-09-08T04:09:00 | 56.589317 | 7.448560 | 2.0 | 16.806 | 2 | 43.455 | 16.974 | 33.761 | 2 |
| 2025-09-08T04:10:00 | 56.592138 | 7.449616 | 2.0 | 16.802 | 2 | 43.474 | 16.972 | 33.779 | 2 |
| 2025-09-08T04:11:00 | 56.594954 | 7.450762 | 2.0 | 16.802 | 2 | 43.489 | 16.968 | 33.796 | 2 |
| 2025-09-08T04:12:00 | 56.597790 | 7.451849 | 2.0 | 16.800 | 2 | 43.492 | 16.968 | 33.798 | 2 |
| 2025-09-08T04:13:00 | 56.600601 | 7.452904 | 2.0 | 16.787 | 2 | 43.488 | 16.964 | 33.798 | 2 |
| 2025-09-08T04:14:00 | 56.603413 | 7.453967 | 2.0 | 16.787 | 2 | 43.493 | 16.954 | 33.811 | 2 |
| 2025-09-08T04:15:00 | 56.606254 | 7.455037 | 2.0 | 16.782 | 2 | 43.492 | 16.954 | 33.810 | 2 |
| 2025-09-08T04:16:00 | 56.609101 | 7.456140 | 2.0 | 16.749 | 2 | 43.487 | 16.945 | 33.813 | 2 |
| 2025-09-08T04:17:00 | 56.611906 | 7.457225 | 2.0 | 16.721 | 2 | 43.502 | 16.909 | 33.857 | 2 |
| 2025-09-08T04:18:00 | 56.614719 | 7.458336 | 2.0 | 16.701 | 2 | 43.506 | 16.887 | 33.879 | 2 |
| 2025-09-08T04:19:00 | 56.617533 | 7.459447 | 2.0 | 16.700 | 2 | 43.509 | 16.866 | 33.899 | 2 |
| 2025-09-08T04:20:00 | 56.620341 | 7.460543 | 2.0 | 16.683 | 2 | 43.501 | 16.866 | 33.892 | 2 |
| 2025-09-08T04:21:00 | 56.623183 | 7.461509 | 2.0 | 16.626 | 2 | 43.490 | 16.846 | 33.899 | 2 |
| 2025-09-08T04:22:00 | 56.626005 | 7.462609 | 2.0 | 16.584 | 2 | 43.483 | 16.790 | 33.941 | 2 |
| 2025-09-08T04:23:00 | 56.628795 | 7.463717 | 2.0 | 16.566 | 2 | 43.474 | 16.758 | 33.960 | 2 |
| 2025-09-08T04:24:00 | 56.631589 | 7.464860 | 2.0 | 16.522 | 2 | 43.455 | 16.726 | 33.970 | 2 |
| 2025-09-08T04:25:00 | 56.634388 | 7.465870 | 2.0 | 16.373 | 2 | 43.415 | 16.668 | 33.985 | 2 |
| 2025-09-08T04:26:00 | 56.637086 | 7.466875 | 2.0 | 16.249 | 2 | 43.304 | 16.513 | 34.019 | 2 |
| 2025-09-08T04:27:00 | 56.639823 | 7.467847 | 2.0 | 16.270 | 2 | 43.255 | 16.435 | 34.042 | 2 |
| 2025-09-08T04:28:00 | 56.642534 | 7.468920 | 2.0 | 16.289 | 2 | 43.259 | 16.444 | 34.038 | 2 |
| 2025-09-08T04:29:00 | 56.645248 | 7.470000 | 2.0 | 16.306 | 2 | 43.289 | 16.462 | 34.049 | 2 |
| 2025-09-08T04:30:00 | 56.647994 | 7.471083 | 2.0 | 16.316 | 2 | 43.300 | 16.477 | 34.046 | 2 |
| 2025-09-08T04:31:00 | 56.650746 | 7.472045 | 2.0 | 16.325 | 2 | 43.295 | 16.487 | 34.033 | 2 |
| 2025-09-08T04:32:00 | 56.653494 | 7.473119 | 2.0 | 16.358 | 2 | 43.292 | 16.497 | 34.022 | 2 |
| 2025-09-08T04:33:00 | 56.656253 | 7.474195 | 2.0 | 16.386 | 2 | 43.310 | 16.530 | 34.010 | 2 |
| 2025-09-08T04:34:00 | 56.659015 | 7.475290 | 2.0 | 16.400 | 2 | 43.323 | 16.554 | 34.001 | 2 |
| 2025-09-08T04:35:00 | 56.661809 | 7.476338 | 2.0 | 16.421 | 2 | 43.329 | 16.572 | 33.991 | 2 |
| 2025-09-08T04:36:00 | 56.664572 | 7.477430 | 2.0 | 16.428 | 2 | 43.338 | 16.589 | 33.984 | 2 |
| 2025-09-08T04:37:00 | 56.667341 | 7.478515 | 2.0 | 16.427 | 2 | 43.341 | 16.594 | 33.983 | 2 |
| 2025-09-08T04:38:00 | 56.670105 | 7.479590 | 2.0 | 16.430 | 2 | 43.343 | 16.595 | 33.983 | 2 |
| 2025-09-08T04:39:00 | 56.672885 | 7.480628 | 2.0 | 16.427 | 2 | 43.343 | 16.597 | 33.982 | 2 |
| 2025-09-08T04:40:00 | 56.675641 | 7.481732 | 2.0 | 16.430 | 2 | 43.344 | 16.595 | 33.984 | 2 |
| 2025-09-08T04:41:00 | 56.678397 | 7.482682 | 2.0 | 16.477 | 2 | 43.350 | 16.599 | 33.986 | 2 |
| 2025-09-08T04:42:00 | 56.681146 | 7.483583 | 2.0 | 16.597 | 2 | 43.381 | 16.664 | 33.958 | 2 |
| 2025-09-08T04:43:00 | 56.683852 | 7.484694 | 2.0 | 16.664 | 2 | 43.419 | 16.766 | 33.905 | 2 |
| 2025-09-08T04:44:00 | 56.686605 | 7.485788 | 2.0 | 16.731 | 2 | 43.417 | 16.837 | 33.843 | 2 |
| 2025-09-08T04:45:00 | 56.689367 | 7.486818 | 2.0 | 16.730 | 2 | 43.408 | 16.891 | 33.790 | 2 |
| 2025-09-08T04:46:00 | 56.692117 | 7.487932 | 2.0 | 16.769 | 2 | 43.409 | 16.902 | 33.782 | 2 |
| 2025-09-08T04:47:00 | 56.694920 | 7.489022 | 2.0 | 16.784 | 2 | 43.407 | 16.932 | 33.755 | 2 |
| 2025-09-08T04:48:00 | 56.697729 | 7.490115 | 2.0 | 16.806 | 2 | 43.402 | 16.950 | 33.735 | 2 |
| 2025-09-08T04:49:00 | 56.700555 | 7.491170 | 2.0 | 16.810 | 2 | 43.392 | 16.970 | 33.710 | 2 |
| 2025-09-08T04:50:00 | 56.703359 | 7.492280 | 2.0 | 16.818 | 2 | 43.393 | 16.975 | 33.706 | 2 |
| 2025-09-08T04:51:00 | 56.706168 | 7.493387 | 2.0 | 16.827 | 2 | 43.385 | 16.984 | 33.692 | 2 |
| 2025-09-08T04:52:00 | 56.708958 | 7.494560 | 2.0 | 16.828 | 2 | 43.388 | 16.992 | 33.688 | 2 |
| 2025-09-08T04:53:00 | 56.711743 | 7.495598 | 2.0 | 16.827 | 2 | 43.394 | 16.993 | 33.692 | 2 |
| 2025-09-08T04:54:00 | 56.714522 | 7.496692 | 2.0 | 16.817 | 2 | 43.401 | 16.989 | 33.702 | 2 |
| 2025-09-08T04:55:00 | 56.717289 | 7.497797 | 2.0 | 16.823 | 2 | 43.406 | 16.984 | 33.710 | 2 |
| 2025-09-08T04:56:00 | 56.720069 | 7.498908 | 2.0 | 16.804 | 2 | 43.406 | 16.986 | 33.708 | 2 |
| 2025-09-08T04:57:00 | 56.722838 | 7.499998 | 2.0 | 16.798 | 2 | 43.413 | 16.968 | 33.730 | 2 |
| 2025-09-08T04:58:00 | 56.725604 | 7.500986 | 2.0 | 16.796 | 2 | 43.419 | 16.965 | 33.737 | 2 |
| 2025-09-08T04:59:00 | 56.728356 | 7.502099 | 2.0 | 16.793 | 2 | 43.427 | 16.963 | 33.746 | 2 |
| 2025-09-08T05:00:00 | 56.731126 | 7.503161 | 2.0 | 16.768 | 2 | 43.425 | 16.953 | 33.753 | 2 |
| 2025-09-08T05:01:00 | 56.733893 | 7.504233 | 2.0 | 16.761 | 2 | 43.420 | 16.934 | 33.764 | 2 |
| 2025-09-08T05:02:00 | 56.736685 | 7.505257 | 2.0 | 16.754 | 2 | 43.418 | 16.926 | 33.769 | 2 |
| 2025-09-08T05:03:00 | 56.739460 | 7.506371 | 2.0 | 16.727 | 2 | 43.413 | 16.916 | 33.773 | 2 |
| 2025-09-08T05:04:00 | 56.742198 | 7.507497 | 2.0 | 16.700 | 2 | 43.392 | 16.891 | 33.776 | 2 |
| 2025-09-08T05:05:00 | 56.744943 | 7.508524 | 2.0 | 16.662 | 2 | 43.386 | 16.860 | 33.797 | 2 |
| 2025-09-08T05:06:00 | 56.747685 | 7.509581 | 2.0 | 16.650 | 2 | 43.377 | 16.831 | 33.813 | 2 |
| 2025-09-08T05:07:00 | 56.750398 | 7.510717 | 2.0 | 16.638 | 2 | 43.375 | 16.816 | 33.824 | 2 |
| 2025-09-08T05:08:00 | 56.753133 | 7.511706 | 2.0 | 16.630 | 2 | 43.374 | 16.804 | 33.834 | 2 |
| 2025-09-08T05:09:00 | 56.755857 | 7.512763 | 2.0 | 16.620 | 2 | 43.374 | 16.796 | 33.840 | 2 |
| 2025-09-08T05:10:00 | 56.758564 | 7.513790 | 2.0 | 16.622 | 2 | 43.374 | 16.789 | 33.846 | 2 |
| 2025-09-08T05:11:00 | 56.761286 | 7.514848 | 2.0 | 16.625 | 2 | 43.373 | 16.791 | 33.844 | 2 |
| 2025-09-08T05:12:00 | 56.764013 | 7.515897 | 2.0 | 16.620 | 2 | 43.372 | 16.792 | 33.842 | 2 |
| 2025-09-08T05:13:00 | 56.766740 | 7.516960 | 2.0 | 16.591 | 2 | 43.367 | 16.780 | 33.848 | 2 |
| 2025-09-08T05:14:00 | 56.769479 | 7.517990 | 2.0 | 16.585 | 2 | 43.360 | 16.760 | 33.859 | 2 |
| 2025-09-08T05:15:00 | 56.772200 | 7.519051 | 2.0 | 16.568 | 2 | 43.352 | 16.749 | 33.861 | 2 |
| 2025-09-08T05:16:00 | 56.774870 | 7.520099 | 2.0 | 16.539 | 2 | 43.337 | 16.728 | 33.865 | 2 |
| 2025-09-08T05:17:00 | 56.777537 | 7.521174 | 2.0 | 16.530 | 2 | 43.341 | 16.707 | 33.887 | 2 |
| 2025-09-08T05:18:00 | 56.780243 | 7.522097 | 2.0 | 16.523 | 2 | 43.343 | 16.697 | 33.897 | 2 |
| 2025-09-08T05:19:00 | 56.782918 | 7.523189 | 2.0 | 16.504 | 2 | 43.338 | 16.688 | 33.900 | 2 |
| 2025-09-08T05:20:00 | 56.785593 | 7.524293 | 2.0 | 16.487 | 2 | 43.330 | 16.669 | 33.909 | 2 |
| 2025-09-08T05:21:00 | 56.788292 | 7.525281 | 2.0 | 16.486 | 2 | 43.327 | 16.656 | 33.918 | 2 |
| 2025-09-08T05:22:00 | 56.790999 | 7.526248 | 2.0 | 16.492 | 2 | 43.327 | 16.655 | 33.919 | 2 |
| 2025-09-08T05:23:00 | 56.793686 | 7.527279 | 2.0 | 16.472 | 2 | 43.330 | 16.654 | 33.922 | 2 |
| 2025-09-08T05:24:00 | 56.796375 | 7.528363 | 2.0 | 16.440 | 2 | 43.325 | 16.635 | 33.934 | 2 |
| 2025-09-08T05:25:00 | 56.799073 | 7.529455 | 2.0 | 16.422 | 2 | 43.312 | 16.606 | 33.947 | 2 |
| 2025-09-08T05:26:00 | 56.801785 | 7.530413 | 2.0 | 16.416 | 2 | 43.301 | 16.591 | 33.950 | 2 |
| 2025-09-08T05:27:00 | 56.804476 | 7.531497 | 2.0 | 16.397 | 2 | 43.292 | 16.581 | 33.951 | 2 |
| 2025-09-08T05:28:00 | 56.807165 | 7.532520 | 2.0 | 16.381 | 2 | 43.279 | 16.564 | 33.954 | 2 |
| 2025-09-08T05:29:00 | 56.809860 | 7.533586 | 2.0 | 16.361 | 2 | 43.264 | 16.546 | 33.956 | 2 |
| 2025-09-08T05:30:00 | 56.812563 | 7.534613 | 2.0 | 16.359 | 2 | 43.253 | 16.529 | 33.961 | 2 |
| 2025-09-08T05:31:00 | 56.815264 | 7.535593 | 2.0 | 16.368 | 2 | 43.252 | 16.530 | 33.959 | 2 |
| 2025-09-08T05:32:00 | 56.817937 | 7.536678 | 2.0 | 16.373 | 2 | 43.259 | 16.538 | 33.958 | 2 |
| 2025-09-08T05:33:00 | 56.820629 | 7.537683 | 2.0 | 16.365 | 2 | 43.256 | 16.540 | 33.954 | 2 |
| 2025-09-08T05:34:00 | 56.823343 | 7.538701 | 2.0 | 16.356 | 2 | 43.251 | 16.532 | 33.956 | 2 |
| 2025-09-08T05:35:00 | 56.826037 | 7.539808 | 2.0 | 16.351 | 2 | 43.253 | 16.523 | 33.966 | 2 |
| 2025-09-08T05:36:00 | 56.828743 | 7.540858 | 2.0 | 16.341 | 2 | 43.253 | 16.519 | 33.969 | 2 |
| 2025-09-08T05:37:00 | 56.831468 | 7.541926 | 2.0 | 16.325 | 2 | 43.251 | 16.506 | 33.978 | 2 |
| 2025-09-08T05:38:00 | 56.834183 | 7.542979 | 2.0 | 16.311 | 2 | 43.242 | 16.492 | 33.982 | 2 |
| 2025-09-08T05:39:00 | 56.836877 | 7.544002 | 2.0 | 16.320 | 2 | 43.251 | 16.480 | 34.001 | 2 |
| 2025-09-08T05:40:00 | 56.839596 | 7.545025 | 2.0 | 16.327 | 2 | 43.278 | 16.489 | 34.017 | 2 |
| 2025-09-08T05:41:00 | 56.842334 | 7.546040 | 2.0 | 16.330 | 2 | 43.291 | 16.496 | 34.022 | 2 |
| 2025-09-08T05:42:00 | 56.845050 | 7.547062 | 2.0 | 16.326 | 2 | 43.298 | 16.497 | 34.027 | 2 |
| 2025-09-08T05:43:00 | 56.847742 | 7.548076 | 2.0 | 16.303 | 2 | 43.297 | 16.491 | 34.032 | 2 |
| 2025-09-08T05:44:00 | 56.850440 | 7.549191 | 2.0 | 16.297 | 2 | 43.295 | 16.473 | 34.045 | 2 |
| 2025-09-08T05:45:00 | 56.853141 | 7.550231 | 2.0 | 16.272 | 2 | 43.288 | 16.462 | 34.048 | 2 |
| 2025-09-08T05:46:00 | 56.855826 | 7.551267 | 2.0 | 16.258 | 2 | 43.273 | 16.440 | 34.054 | 2 |
| 2025-09-08T05:47:00 | 56.858514 | 7.552305 | 2.0 | 16.244 | 2 | 43.266 | 16.427 | 34.059 | 2 |
| 2025-09-08T05:48:00 | 56.861215 | 7.553310 | 2.0 | 16.236 | 2 | 43.260 | 16.413 | 34.066 | 2 |
| 2025-09-08T05:49:00 | 56.863935 | 7.554363 | 2.0 | 16.221 | 2 | 43.256 | 16.404 | 34.070 | 2 |
| 2025-09-08T05:50:00 | 56.866632 | 7.555429 | 2.0 | 16.208 | 2 | 43.252 | 16.389 | 34.079 | 2 |
| 2025-09-08T05:51:00 | 56.869341 | 7.556421 | 2.0 | 16.222 | 2 | 43.250 | 16.380 | 34.085 | 2 |
| 2025-09-08T05:52:00 | 56.872050 | 7.557420 | 2.0 | 16.213 | 2 | 43.269 | 16.390 | 34.093 | 2 |
| 2025-09-08T05:53:00 | 56.874737 | 7.558554 | 2.0 | 16.202 | 2 | 43.265 | 16.380 | 34.098 | 2 |
| 2025-09-08T05:54:00 | 56.877440 | 7.559598 | 2.0 | 16.183 | 2 | 43.252 | 16.368 | 34.097 | 2 |
| 2025-09-08T05:55:00 | 56.880140 | 7.560575 | 2.0 | 16.164 | 2 | 43.227 | 16.349 | 34.091 | 2 |
| 2025-09-08T05:56:00 | 56.882817 | 7.561719 | 2.0 | 16.152 | 2 | 43.208 | 16.332 | 34.089 | 2 |
| 2025-09-08T05:57:00 | 56.885543 | 7.562701 | 2.0 | 16.139 | 2 | 43.197 | 16.319 | 34.090 | 2 |
| 2025-09-08T05:58:00 | 56.888252 | 7.563735 | 2.0 | 16.144 | 2 | 43.192 | 16.310 | 34.094 | 2 |
| 2025-09-08T05:59:00 | 56.890957 | 7.564830 | 2.0 | 16.155 | 2 | 43.202 | 16.315 | 34.098 | 2 |
| 2025-09-08T06:00:00 | 56.893673 | 7.565873 | 2.0 | 16.162 | 2 | 43.235 | 16.325 | 34.119 | 2 |
| 2025-09-08T06:01:00 | 56.896390 | 7.566927 | 2.0 | 16.164 | 2 | 43.252 | 16.331 | 34.129 | 2 |
| 2025-09-08T06:02:00 | 56.899089 | 7.568024 | 2.0 | 16.180 | 2 | 43.260 | 16.334 | 34.133 | 2 |
| 2025-09-08T06:03:00 | 56.901780 | 7.569066 | 2.0 | 16.193 | 2 | 43.299 | 16.349 | 34.155 | 2 |
| 2025-09-08T06:04:00 | 56.904456 | 7.570142 | 2.0 | 16.201 | 2 | 43.326 | 16.362 | 34.167 | 2 |
| 2025-09-08T06:05:00 | 56.907134 | 7.571173 | 2.0 | 16.211 | 2 | 43.341 | 16.370 | 34.174 | 2 |
| 2025-09-08T06:06:00 | 56.909827 | 7.572241 | 2.0 | 16.217 | 2 | 43.365 | 16.380 | 34.186 | 2 |
| 2025-09-08T06:07:00 | 56.912535 | 7.573293 | 2.0 | 16.225 | 2 | 43.384 | 16.385 | 34.199 | 2 |
| 2025-09-08T06:08:00 | 56.915242 | 7.574376 | 2.0 | 16.229 | 2 | 43.405 | 16.393 | 34.211 | 2 |
| 2025-09-08T06:09:00 | 56.917946 | 7.575510 | 2.0 | 16.232 | 2 | 43.420 | 16.397 | 34.220 | 2 |
| 2025-09-08T06:10:00 | 56.920682 | 7.576478 | 2.0 | 16.230 | 2 | 43.425 | 16.399 | 34.223 | 2 |
| 2025-09-08T06:11:00 | 56.923413 | 7.577503 | 2.0 | 16.229 | 2 | 43.424 | 16.397 | 34.224 | 2 |
| 2025-09-08T06:12:00 | 56.926140 | 7.578677 | 2.0 | 16.236 | 2 | 43.437 | 16.398 | 34.234 | 2 |
| 2025-09-08T06:13:00 | 56.928901 | 7.579699 | 2.0 | 16.238 | 2 | 43.463 | 16.404 | 34.252 | 2 |
| 2025-09-08T06:14:00 | 56.931630 | 7.580811 | 2.0 | 16.238 | 2 | 43.470 | 16.405 | 34.258 | 2 |
| 2025-09-08T06:15:00 | 56.934377 | 7.581862 | 2.0 | 16.232 | 2 | 43.476 | 16.403 | 34.265 | 2 |
| 2025-09-08T06:16:00 | 56.937146 | 7.582893 | 2.0 | 16.241 | 2 | 43.485 | 16.400 | 34.275 | 2 |
| 2025-09-08T06:17:00 | 56.939651 | 7.584818 | 2.0 | 16.240 | 2 | 43.506 | 16.407 | 34.288 | 2 |
| 2025-09-08T06:18:00 | 56.941099 | 7.588482 | 2.0 | 16.219 | 2 | 43.509 | 16.406 | 34.291 | 2 |
| 2025-09-08T06:19:00 | 56.942189 | 7.592448 | 2.0 | 16.199 | 2 | 43.463 | 16.382 | 34.271 | 2 |
| 2025-09-08T06:20:00 | 56.943327 | 7.596427 | 2.0 | 16.191 | 2 | 43.429 | 16.367 | 34.254 | 2 |
| 2025-09-08T06:21:00 | 56.944442 | 7.600466 | 2.0 | 16.193 | 2 | 43.423 | 16.361 | 34.254 | 2 |
| 2025-09-08T06:22:00 | 56.945557 | 7.604508 | 2.0 | 16.191 | 2 | 43.421 | 16.360 | 34.253 | 2 |
| 2025-09-08T06:23:00 | 56.946725 | 7.608564 | 2.0 | 16.207 | 2 | 43.418 | 16.362 | 34.249 | 2 |
| 2025-09-08T06:24:00 | 56.947841 | 7.612630 | 2.0 | 16.214 | 2 | 43.435 | 16.374 | 34.253 | 2 |
| 2025-09-08T06:25:00 | 56.948960 | 7.616656 | 2.0 | 16.214 | 2 | 43.441 | 16.381 | 34.253 | 2 |
| 2025-09-08T06:26:00 | 56.950045 | 7.620709 | 2.0 | 16.212 | 2 | 43.436 | 16.381 | 34.248 | 2 |
| 2025-09-08T06:27:00 | 56.951171 | 7.624693 | 2.0 | 16.213 | 2 | 43.435 | 16.381 | 34.247 | 2 |
| 2025-09-08T06:28:00 | 56.952264 | 7.628673 | 2.0 | 16.207 | 2 | 43.432 | 16.381 | 34.245 | 2 |
| 2025-09-08T06:29:00 | 56.953401 | 7.632656 | 2.0 | 16.204 | 2 | 43.420 | 16.375 | 34.239 | 2 |
| 2025-09-08T06:30:00 | 56.954480 | 7.636642 | 2.0 | 16.200 | 2 | 43.412 | 16.372 | 34.235 | 2 |
| 2025-09-08T06:31:00 | 56.955595 | 7.640611 | 2.0 | 16.206 | 2 | 43.405 | 16.369 | 34.231 | 2 |
| 2025-09-08T06:32:00 | 56.956704 | 7.644561 | 2.0 | 16.217 | 2 | 43.413 | 16.375 | 34.233 | 2 |
| 2025-09-08T06:33:00 | 56.957788 | 7.648503 | 2.0 | 16.233 | 2 | 43.432 | 16.388 | 34.239 | 2 |
| 2025-09-08T06:34:00 | 56.958904 | 7.652458 | 2.0 | 16.235 | 2 | 43.447 | 16.400 | 34.242 | 2 |
| 2025-09-08T06:35:00 | 56.959983 | 7.656461 | 2.0 | 16.239 | 2 | 43.450 | 16.402 | 34.242 | 2 |
| 2025-09-08T06:36:00 | 56.961072 | 7.660416 | 2.0 | 16.239 | 2 | 43.458 | 16.407 | 34.245 | 2 |
| 2025-09-08T06:37:00 | 56.962165 | 7.664316 | 2.0 | 16.238 | 2 | 43.459 | 16.406 | 34.247 | 2 |
| 2025-09-08T06:38:00 | 56.963289 | 7.668253 | 2.0 | 16.243 | 2 | 43.457 | 16.407 | 34.244 | 2 |
| 2025-09-08T06:39:00 | 56.964379 | 7.672231 | 2.0 | 16.249 | 2 | 43.461 | 16.410 | 34.245 | 2 |
| 2025-09-08T06:40:00 | 56.965467 | 7.676149 | 2.0 | 16.263 | 2 | 43.481 | 16.419 | 34.255 | 2 |
| 2025-09-08T06:41:00 | 56.966541 | 7.680073 | 2.0 | 16.264 | 2 | 43.506 | 16.431 | 34.267 | 2 |
| 2025-09-08T06:42:00 | 56.967611 | 7.683986 | 2.0 | 16.252 | 2 | 43.512 | 16.429 | 34.274 | 2 |
| 2025-09-08T06:43:00 | 56.968713 | 7.687901 | 2.0 | 16.250 | 2 | 43.504 | 16.419 | 34.275 | 2 |
| 2025-09-08T06:44:00 | 56.969825 | 7.691857 | 2.0 | 16.241 | 2 | 43.502 | 16.416 | 34.276 | 2 |
| 2025-09-08T06:45:00 | 56.970934 | 7.695782 | 2.0 | 16.236 | 2 | 43.481 | 16.408 | 34.265 | 2 |
| 2025-09-08T06:46:00 | 56.971993 | 7.699701 | 2.0 | 16.230 | 2 | 43.458 | 16.402 | 34.250 | 2 |
| 2025-09-08T06:47:00 | 56.973053 | 7.703623 | 2.0 | 16.223 | 2 | 43.447 | 16.396 | 34.245 | 2 |
| 2025-09-08T06:48:00 | 56.974158 | 7.707502 | 2.0 | 16.219 | 2 | 43.432 | 16.390 | 34.237 | 2 |
| 2025-09-08T06:49:00 | 56.975219 | 7.711379 | 2.0 | 16.213 | 2 | 43.420 | 16.384 | 34.231 | 2 |
| 2025-09-08T06:50:00 | 56.976293 | 7.715260 | 2.0 | 16.208 | 2 | 43.414 | 16.380 | 34.230 | 2 |
| 2025-09-08T06:51:00 | 56.977390 | 7.719166 | 2.0 | 16.205 | 2 | 43.414 | 16.376 | 34.233 | 2 |
| 2025-09-08T06:52:00 | 56.978456 | 7.723109 | 2.0 | 16.193 | 2 | 43.406 | 16.369 | 34.232 | 2 |
| 2025-09-08T06:53:00 | 56.979559 | 7.727024 | 2.0 | 16.190 | 2 | 43.393 | 16.361 | 34.227 | 2 |
| 2025-09-08T06:54:00 | 56.980647 | 7.730987 | 2.0 | 16.175 | 2 | 43.383 | 16.356 | 34.223 | 2 |
| 2025-09-08T06:55:00 | 56.981777 | 7.734928 | 2.0 | 16.161 | 2 | 43.350 | 16.342 | 34.206 | 2 |
| 2025-09-08T06:56:00 | 56.982878 | 7.738925 | 2.0 | 16.147 | 2 | 43.312 | 16.326 | 34.186 | 2 |
| 2025-09-08T06:57:00 | 56.983998 | 7.742922 | 2.0 | 16.142 | 2 | 43.267 | 16.315 | 34.156 | 2 |
| 2025-09-08T06:58:00 | 56.985112 | 7.746939 | 2.0 | 16.147 | 2 | 43.240 | 16.310 | 34.136 | 2 |
| 2025-09-08T06:59:00 | 56.986254 | 7.750953 | 2.0 | 16.167 | 2 | 43.228 | 16.318 | 34.119 | 2 |
| 2025-09-08T07:00:00 | 56.987373 | 7.755004 | 2.0 | 16.181 | 2 | 43.229 | 16.336 | 34.104 | 2 |
| 2025-09-08T07:01:00 | 56.988509 | 7.759074 | 2.0 | 16.186 | 2 | 43.232 | 16.348 | 34.097 | 2 |
| 2025-09-08T07:02:00 | 56.989637 | 7.763149 | 2.0 | 16.185 | 2 | 43.231 | 16.352 | 34.092 | 2 |
| 2025-09-08T07:03:00 | 56.990766 | 7.767225 | 2.0 | 16.182 | 2 | 43.224 | 16.352 | 34.086 | 2 |
| 2025-09-08T07:04:00 | 56.991904 | 7.771309 | 2.0 | 16.178 | 2 | 43.226 | 16.348 | 34.091 | 2 |
| 2025-09-08T07:05:00 | 56.993014 | 7.775421 | 2.0 | 16.172 | 2 | 43.226 | 16.344 | 34.095 | 2 |
| 2025-09-08T07:06:00 | 56.994145 | 7.779505 | 2.0 | 16.168 | 2 | 43.207 | 16.339 | 34.082 | 2 |
| 2025-09-08T07:07:00 | 56.995289 | 7.783580 | 2.0 | 16.160 | 2 | 43.197 | 16.334 | 34.078 | 2 |
| 2025-09-08T07:08:00 | 56.996440 | 7.787632 | 2.0 | 16.158 | 2 | 43.189 | 16.327 | 34.077 | 2 |
| 2025-09-08T07:09:00 | 56.997548 | 7.791739 | 2.0 | 16.163 | 2 | 43.189 | 16.325 | 34.078 | 2 |
| 2025-09-08T07:10:00 | 56.998658 | 7.795829 | 2.0 | 16.167 | 2 | 43.190 | 16.331 | 34.074 | 2 |
| 2025-09-08T07:11:00 | 56.999812 | 7.799931 | 2.0 | 16.167 | 2 | 43.184 | 16.334 | 34.066 | 2 |
| 2025-09-08T07:12:00 | 57.000992 | 7.804023 | 2.0 | 16.167 | 2 | 43.178 | 16.334 | 34.061 | 2 |
| 2025-09-08T07:13:00 | 57.002091 | 7.808183 | 2.0 | 16.176 | 2 | 43.182 | 16.334 | 34.064 | 2 |
| 2025-09-08T07:14:00 | 57.003295 | 7.812281 | 2.0 | 16.199 | 2 | 43.191 | 16.347 | 34.061 | 2 |
| 2025-09-08T07:15:00 | 57.004446 | 7.816448 | 2.0 | 16.223 | 2 | 43.187 | 16.368 | 34.040 | 2 |
| 2025-09-08T07:16:00 | 57.005573 | 7.820634 | 2.0 | 16.226 | 2 | 43.193 | 16.388 | 34.028 | 2 |
| 2025-09-08T07:17:00 | 57.006720 | 7.824771 | 2.0 | 16.235 | 2 | 43.193 | 16.394 | 34.023 | 2 |
| 2025-09-08T07:18:00 | 57.007869 | 7.828923 | 2.0 | 16.262 | 2 | 43.186 | 16.405 | 34.007 | 2 |
| 2025-09-08T07:19:00 | 57.009073 | 7.833056 | 2.0 | 16.287 | 2 | 43.180 | 16.431 | 33.980 | 2 |
| 2025-09-08T07:20:00 | 57.010229 | 7.837242 | 2.0 | 16.296 | 2 | 43.168 | 16.453 | 33.951 | 2 |
| 2025-09-08T07:21:00 | 57.011365 | 7.841406 | 2.0 | 16.294 | 2 | 43.162 | 16.462 | 33.938 | 2 |
| 2025-09-08T07:22:00 | 57.012451 | 7.845198 | 2.0 | 16.292 | 2 | 43.168 | 16.457 | 33.947 | 2 |
| 2025-09-08T07:23:00 | 57.013462 | 7.848930 | 2.0 | 16.296 | 2 | 43.176 | 16.460 | 33.952 | 2 |
| 2025-09-08T07:24:00 | 57.014483 | 7.852575 | 2.0 | 16.297 | 2 | 43.182 | 16.463 | 33.954 | 2 |
| 2025-09-08T07:25:00 | 57.015478 | 7.856225 | 2.0 | 16.292 | 2 | 43.181 | 16.462 | 33.954 | 2 |
| 2025-09-08T07:26:00 | 57.016478 | 7.859862 | 2.0 | 16.300 | 2 | 43.175 | 16.459 | 33.952 | 2 |
| 2025-09-08T07:27:00 | 57.017494 | 7.863498 | 2.0 | 16.306 | 2 | 43.176 | 16.467 | 33.946 | 2 |
| 2025-09-08T07:28:00 | 57.018553 | 7.867125 | 2.0 | 16.304 | 2 | 43.176 | 16.471 | 33.942 | 2 |
| 2025-09-08T07:29:00 | 57.019573 | 7.870817 | 2.0 | 16.326 | 2 | 43.174 | 16.469 | 33.942 | 2 |
| 2025-09-08T07:30:00 | 57.020607 | 7.874495 | 2.0 | 16.364 | 2 | 43.168 | 16.498 | 33.912 | 2 |
| 2025-09-08T07:31:00 | 57.021656 | 7.878198 | 2.0 | 16.336 | 2 | 43.174 | 16.518 | 33.901 | 2 |
| 2025-09-08T07:32:00 | 57.022676 | 7.881981 | 2.0 | 16.371 | 2 | 43.184 | 16.506 | 33.920 | 2 |
| 2025-09-08T07:33:00 | 57.023816 | 7.885999 | 2.0 | 16.399 | 2 | 43.176 | 16.540 | 33.884 | 2 |
| 2025-09-08T07:34:00 | 57.024949 | 7.890180 | 2.0 | 16.416 | 2 | 43.182 | 16.562 | 33.870 | 2 |
| 2025-09-08T07:35:00 | 57.026177 | 7.894354 | 2.0 | 16.433 | 2 | 43.187 | 16.585 | 33.855 | 2 |
| 2025-09-08T07:36:00 | 57.027293 | 7.898639 | 2.0 | 16.447 | 2 | 43.192 | 16.596 | 33.850 | 2 |
| 2025-09-08T07:37:00 | 57.028512 | 7.902860 | 2.0 | 16.484 | 2 | 43.183 | 16.628 | 33.815 | 2 |
| 2025-09-08T07:38:00 | 57.029613 | 7.907176 | 2.0 | 16.473 | 2 | 43.200 | 16.638 | 33.822 | 2 |
| 2025-09-08T07:39:00 | 57.030770 | 7.911386 | 2.0 | 16.501 | 2 | 43.201 | 16.647 | 33.815 | 2 |
| 2025-09-08T07:40:00 | 57.032001 | 7.915580 | 2.0 | 16.506 | 2 | 43.203 | 16.662 | 33.804 | 2 |
| 2025-09-08T07:41:00 | 57.033180 | 7.919811 | 2.0 | 16.546 | 2 | 43.201 | 16.676 | 33.791 | 2 |
| 2025-09-08T07:42:00 | 57.034337 | 7.924062 | 2.0 | 16.563 | 2 | 43.198 | 16.712 | 33.758 | 2 |
| 2025-09-08T07:43:00 | 57.035510 | 7.928300 | 2.0 | 16.596 | 2 | 43.202 | 16.730 | 33.746 | 2 |
| 2025-09-08T07:44:00 | 57.036713 | 7.932539 | 2.0 | 16.628 | 2 | 43.202 | 16.775 | 33.708 | 2 |
| 2025-09-08T07:45:00 | 57.037837 | 7.936843 | 2.0 | 16.558 | 2 | 43.221 | 16.768 | 33.730 | 2 |
| 2025-09-08T07:46:00 | 57.039059 | 7.941061 | 2.0 | 16.660 | 2 | 43.220 | 16.748 | 33.746 | 2 |
| 2025-09-08T07:47:00 | 57.040260 | 7.945343 | 2.0 | 16.597 | 2 | 43.223 | 16.813 | 33.694 | 2 |
| 2025-09-08T07:48:00 | 57.041426 | 7.949636 | 2.0 | 16.666 | 2 | 43.236 | 16.776 | 33.737 | 2 |
| 2025-09-08T07:49:00 | 57.042645 | 7.953916 | 2.0 | 16.762 | 2 | 43.219 | 16.844 | 33.665 | 2 |
| 2025-09-08T07:50:00 | 57.043822 | 7.958222 | 2.0 | 16.757 | 2 | 43.223 | 16.917 | 33.607 | 2 |
| 2025-09-08T07:51:00 | 57.044936 | 7.962539 | 2.0 | 16.743 | 2 | 43.242 | 16.907 | 33.632 | 2 |
| 2025-09-08T07:52:00 | 57.046171 | 7.966756 | 2.0 | 16.807 | 2 | 43.242 | 16.919 | 33.622 | 2 |
| 2025-09-08T07:53:00 | 57.047404 | 7.971011 | 2.0 | 16.877 | 2 | 43.244 | 16.983 | 33.570 | 2 |
| 2025-09-08T07:54:00 | 57.048545 | 7.975315 | 2.0 | 16.892 | 2 | 43.251 | 17.033 | 33.535 | 2 |
| 2025-09-08T07:55:00 | 57.049737 | 7.979553 | 2.0 | 16.924 | 2 | 43.254 | 17.055 | 33.519 | 2 |
| 2025-09-08T07:56:00 | 57.050992 | 7.983790 | 2.0 | 16.933 | 2 | 43.278 | 17.088 | 33.512 | 2 |
| 2025-09-08T07:57:00 | 57.052155 | 7.988011 | 2.0 | 16.958 | 2 | 43.294 | 17.101 | 33.515 | 2 |
| 2025-09-08T07:58:00 | 57.053230 | 7.992257 | 2.0 | 16.919 | 2 | 43.294 | 17.114 | 33.505 | 2 |
| 2025-09-08T07:59:00 | 57.054389 | 7.996459 | 2.0 | 16.978 | 2 | 43.287 | 17.082 | 33.525 | 2 |
| 2025-09-08T08:00:00 | 57.055644 | 8.000631 | 2.0 | 17.125 | 2 | 43.290 | 17.175 | 33.450 | 2 |
| 2025-09-08T08:01:00 | 57.056865 | 8.004873 | 2.0 | 17.115 | 2 | 43.305 | 17.281 | 33.376 | 2 |
| 2025-09-08T08:02:00 | 57.057973 | 8.009177 | 2.0 | 17.161 | 2 | 43.310 | 17.279 | 33.382 | 2 |
| 2025-09-08T08:03:00 | 57.059126 | 8.013416 | 2.0 | 17.169 | 2 | 43.305 | 17.320 | 33.344 | 2 |
| 2025-09-08T08:04:00 | 57.060263 | 8.017660 | 2.0 | 17.166 | 2 | 43.297 | 17.326 | 33.332 | 2 |
| 2025-09-08T08:05:00 | 57.061500 | 8.021864 | 2.0 | 17.152 | 2 | 43.291 | 17.327 | 33.326 | 2 |
| 2025-09-08T08:06:00 | 57.062697 | 8.026127 | 2.0 | 17.121 | 2 | 43.289 | 17.305 | 33.342 | 2 |
| 2025-09-08T08:07:00 | 57.063856 | 8.030396 | 2.0 | 17.115 | 2 | 43.287 | 17.281 | 33.360 | 2 |
| 2025-09-08T08:08:00 | 57.065036 | 8.034622 | 2.0 | 17.119 | 2 | 43.281 | 17.280 | 33.356 | 2 |
| 2025-09-08T08:09:00 | 57.066201 | 8.038843 | 2.0 | 17.101 | 2 | 43.276 | 17.278 | 33.353 | 2 |
| 2025-09-08T08:10:00 | 57.067297 | 8.042903 | 2.0 | 17.098 | 2 | 43.273 | 17.263 | 33.363 | 2 |
| 2025-09-08T08:11:00 | 57.068398 | 8.046809 | 2.0 | 17.090 | 2 | 43.269 | 17.259 | 33.363 | 2 |
| 2025-09-08T08:12:00 | 57.069475 | 8.050658 | 2.0 | 17.084 | 2 | 43.261 | 17.251 | 33.363 | 2 |
| 2025-09-08T08:13:00 | 57.070531 | 8.054502 | 2.0 | 17.080 | 2 | 43.253 | 17.245 | 33.361 | 2 |
| 2025-09-08T08:14:00 | 57.071598 | 8.058337 | 2.0 | 17.074 | 2 | 43.245 | 17.242 | 33.356 | 2 |
| 2025-09-08T08:15:00 | 57.072664 | 8.062179 | 2.0 | 17.063 | 2 | 43.231 | 17.234 | 33.351 | 2 |
| 2025-09-08T08:16:00 | 57.073723 | 8.066044 | 2.0 | 17.055 | 2 | 43.222 | 17.224 | 33.351 | 2 |
| 2025-09-08T08:17:00 | 57.074812 | 8.069903 | 2.0 | 17.061 | 2 | 43.216 | 17.217 | 33.352 | 2 |
| 2025-09-08T08:18:00 | 57.075880 | 8.073759 | 2.0 | 17.109 | 2 | 43.218 | 17.232 | 33.341 | 2 |
| 2025-09-08T08:19:00 | 57.076836 | 8.077302 | 2.0 | 17.129 | 2 | 43.249 | 17.274 | 33.333 | 2 |
| 2025-09-08T08:20:00 | 57.077587 | 8.079552 | 2.0 | 17.133 | 2 | 43.265 | 17.289 | 33.335 | 2 |
| 2025-09-08T08:21:00 | 57.078288 | 8.080749 | 2.0 | 17.132 | 2 | 43.268 | 17.292 | 33.335 | 2 |
| 2025-09-08T08:22:00 | 57.078539 | 8.081557 | 2.0 | 17.135 | 2 | 43.266 | 17.292 | 33.333 | 2 |
| 2025-09-08T08:23:00 | 57.078694 | 8.081994 | 2.0 | 17.137 | 2 | 43.266 | 17.294 | 33.331 | 2 |
| 2025-09-08T08:24:00 | 57.078804 | 8.082163 | 2.0 | 17.141 | 2 | 43.265 | 17.295 | 33.330 | 2 |
| 2025-09-08T08:25:00 | 57.078821 | 8.082176 | 2.0 | 17.142 | 2 | 43.266 | 17.300 | 33.326 | 2 |
| 2025-09-08T08:26:00 | 57.078779 | 8.082178 | 2.0 | 17.140 | 2 | 43.266 | 17.301 | 33.326 | 2 |
| 2025-09-08T08:27:00 | 57.078800 | 8.082171 | 2.0 | 17.140 | 2 | 43.265 | 17.299 | 33.326 | 2 |
| 2025-09-08T08:28:00 | 57.078851 | 8.082138 | 2.0 | 17.143 | 2 | 43.264 | 17.300 | 33.325 | 2 |
| 2025-09-08T08:29:00 | 57.078888 | 8.082204 | 2.0 | 17.141 | 2 | 43.266 | 17.303 | 33.324 | 2 |
| 2025-09-08T08:30:00 | 57.078917 | 8.082316 | 2.0 | 17.142 | 2 | 43.264 | 17.301 | 33.324 | 2 |
| 2025-09-08T08:31:00 | 57.078935 | 8.082457 | 2.0 | 17.142 | 2 | 43.257 | 17.302 | 33.317 | 2 |
| 2025-09-08T08:32:00 | 57.078923 | 8.082507 | 2.0 | 17.143 | 2 | 43.258 | 17.302 | 33.318 | 2 |
| 2025-09-08T08:33:00 | 57.078906 | 8.082524 | 2.0 | 17.144 | 2 | 43.260 | 17.304 | 33.318 | 2 |
| 2025-09-08T08:34:00 | 57.078916 | 8.082627 | 2.0 | 17.146 | 2 | 43.262 | 17.304 | 33.320 | 2 |
| 2025-09-08T08:35:00 | 57.078912 | 8.082743 | 2.0 | 17.149 | 2 | 43.264 | 17.307 | 33.319 | 2 |
| 2025-09-08T08:36:00 | 57.078903 | 8.082837 | 2.0 | 17.150 | 2 | 43.265 | 17.309 | 33.318 | 2 |
| 2025-09-08T08:37:00 | 57.078890 | 8.082866 | 2.0 | 17.150 | 2 | 43.266 | 17.309 | 33.319 | 2 |
| 2025-09-08T08:38:00 | 57.078898 | 8.082886 | 2.0 | 17.155 | 2 | 43.267 | 17.311 | 33.318 | 2 |
| 2025-09-08T08:39:00 | 57.078927 | 8.082931 | 2.0 | 17.152 | 2 | 43.271 | 17.313 | 33.320 | 2 |
| 2025-09-08T08:40:00 | 57.078954 | 8.082980 | 2.0 | 17.156 | 2 | 43.272 | 17.314 | 33.320 | 2 |
| 2025-09-08T08:41:00 | 57.078984 | 8.083055 | 2.0 | 17.160 | 2 | 43.274 | 17.317 | 33.319 | 2 |
| 2025-09-08T08:42:00 | 57.078979 | 8.083102 | 2.0 | 17.164 | 2 | 43.276 | 17.319 | 33.319 | 2 |
| 2025-09-08T08:43:00 | 57.079026 | 8.083173 | 2.0 | 17.165 | 2 | 43.276 | 17.324 | 33.315 | 2 |
| 2025-09-08T08:44:00 | 57.079119 | 8.083238 | 2.0 | 17.168 | 2 | 43.279 | 17.325 | 33.317 | 2 |
| 2025-09-08T08:45:00 | 57.079194 | 8.083286 | 2.0 | 17.168 | 2 | 43.281 | 17.327 | 33.317 | 2 |
| 2025-09-08T08:46:00 | 57.079190 | 8.083395 | 2.0 | 17.169 | 2 | 43.282 | 17.328 | 33.317 | 2 |
| 2025-09-08T08:47:00 | 57.079150 | 8.083510 | 2.0 | 17.172 | 2 | 43.283 | 17.329 | 33.317 | 2 |
| 2025-09-08T08:48:00 | 57.079121 | 8.083563 | 2.0 | 17.173 | 2 | 43.285 | 17.332 | 33.316 | 2 |
| 2025-09-08T08:49:00 | 57.079139 | 8.083532 | 2.0 | 17.172 | 2 | 43.285 | 17.331 | 33.317 | 2 |
| 2025-09-08T08:50:00 | 57.079234 | 8.083440 | 2.0 | 17.176 | 2 | 43.286 | 17.332 | 33.317 | 2 |
| 2025-09-08T08:51:00 | 57.079325 | 8.083343 | 2.0 | 17.181 | 2 | 43.289 | 17.337 | 33.316 | 2 |
| 2025-09-08T08:52:00 | 57.079339 | 8.083289 | 2.0 | 17.186 | 2 | 43.293 | 17.341 | 33.316 | 2 |
| 2025-09-08T08:53:00 | 57.079361 | 8.083350 | 2.0 | 17.178 | 2 | 43.298 | 17.347 | 33.315 | 2 |
| 2025-09-08T08:54:00 | 57.079367 | 8.083459 | 2.0 | 17.179 | 2 | 43.292 | 17.339 | 33.317 | 2 |
| 2025-09-08T08:55:00 | 57.079332 | 8.083609 | 2.0 | 17.181 | 2 | 43.291 | 17.339 | 33.316 | 2 |
| 2025-09-08T08:56:00 | 57.079267 | 8.083835 | 2.0 | 17.180 | 2 | 43.293 | 17.342 | 33.315 | 2 |
| 2025-09-08T08:57:00 | 57.079252 | 8.084034 | 2.0 | 17.187 | 2 | 43.292 | 17.341 | 33.315 | 2 |
| 2025-09-08T08:58:00 | 57.079254 | 8.084112 | 2.0 | 17.191 | 2 | 43.299 | 17.348 | 33.315 | 2 |
| 2025-09-08T08:59:00 | 57.079250 | 8.084046 | 2.0 | 17.191 | 2 | 43.304 | 17.352 | 33.316 | 2 |
| 2025-09-08T09:00:00 | 57.079295 | 8.083937 | 2.0 | 17.192 | 2 | 43.304 | 17.351 | 33.317 | 2 |
| 2025-09-08T09:01:00 | 57.079391 | 8.083792 | 2.0 | 17.193 | 2 | 43.302 | 17.352 | 33.315 | 2 |
| 2025-09-08T09:02:00 | 57.079492 | 8.083628 | 2.0 | 17.195 | 2 | 43.302 | 17.352 | 33.315 | 2 |
| 2025-09-08T09:03:00 | 57.079553 | 8.083595 | 2.0 | 17.197 | 2 | 43.304 | 17.355 | 33.314 | 2 |
| 2025-09-08T09:04:00 | 57.079561 | 8.083554 | 2.0 | 17.203 | 2 | 43.307 | 17.358 | 33.314 | 2 |
| 2025-09-08T09:05:00 | 57.079490 | 8.083616 | 2.0 | 17.204 | 2 | 43.311 | 17.363 | 33.313 | 2 |
| 2025-09-08T09:06:00 | 57.079399 | 8.083819 | 2.0 | 17.205 | 2 | 43.312 | 17.365 | 33.312 | 2 |
| 2025-09-08T09:07:00 | 57.079312 | 8.084084 | 2.0 | 17.203 | 2 | 43.311 | 17.364 | 33.312 | 2 |
| 2025-09-08T09:08:00 | 57.079193 | 8.084402 | 2.0 | 17.207 | 2 | 43.309 | 17.364 | 33.311 | 2 |
| 2025-09-08T09:09:00 | 57.079109 | 8.084633 | 2.0 | 17.210 | 2 | 43.312 | 17.368 | 33.310 | 2 |
| 2025-09-08T09:10:00 | 57.079061 | 8.084769 | 2.0 | 17.213 | 2 | 43.316 | 17.372 | 33.310 | 2 |
| 2025-09-08T09:11:00 | 57.079014 | 8.084820 | 2.0 | 17.241 | 2 | 43.318 | 17.376 | 33.309 | 2 |
| 2025-09-08T09:12:00 | 57.078962 | 8.084830 | 2.0 | 17.246 | 2 | 43.327 | 17.400 | 33.297 | 2 |
| 2025-09-08T09:13:00 | 57.078906 | 8.084844 | 2.0 | 17.244 | 2 | 43.329 | 17.406 | 33.293 | 2 |
| 2025-09-08T09:14:00 | 57.078849 | 8.084866 | 2.0 | 17.251 | 2 | 43.328 | 17.406 | 33.293 | 2 |
| 2025-09-08T09:15:00 | 57.078822 | 8.084948 | 2.0 | 17.258 | 2 | 43.326 | 17.412 | 33.286 | 2 |
| 2025-09-08T09:16:00 | 57.078846 | 8.085060 | 2.0 | 17.256 | 2 | 43.322 | 17.417 | 33.278 | 2 |
| 2025-09-08T09:17:00 | 57.078820 | 8.085094 | 2.0 | 17.267 | 2 | 43.326 | 17.419 | 33.280 | 2 |
| 2025-09-08T09:18:00 | 57.078789 | 8.085166 | 2.0 | 17.262 | 2 | 43.331 | 17.426 | 33.279 | 2 |
| 2025-09-08T09:19:00 | 57.078763 | 8.085245 | 2.0 | 17.265 | 2 | 43.329 | 17.422 | 33.280 | 2 |
| 2025-09-08T09:20:00 | 57.078756 | 8.085258 | 2.0 | 17.261 | 2 | 43.332 | 17.425 | 33.280 | 2 |
| 2025-09-08T09:21:00 | 57.078776 | 8.085239 | 2.0 | 17.263 | 2 | 43.331 | 17.422 | 33.282 | 2 |
| 2025-09-08T09:22:00 | 57.078831 | 8.085234 | 2.0 | 17.270 | 2 | 43.333 | 17.425 | 33.281 | 2 |
| 2025-09-08T09:23:00 | 57.078857 | 8.085198 | 2.0 | 17.272 | 2 | 43.337 | 17.430 | 33.281 | 2 |
| 2025-09-08T09:24:00 | 57.078832 | 8.085078 | 2.0 | 17.273 | 2 | 43.338 | 17.432 | 33.280 | 2 |
| 2025-09-08T09:25:00 | 57.078810 | 8.084964 | 2.0 | 17.270 | 2 | 43.340 | 17.433 | 33.281 | 2 |
| 2025-09-08T09:26:00 | 57.078804 | 8.084938 | 2.0 | 17.268 | 2 | 43.338 | 17.430 | 33.281 | 2 |
| 2025-09-08T09:27:00 | 57.078800 | 8.084956 | 2.0 | 17.269 | 2 | 43.337 | 17.428 | 33.282 | 2 |
| 2025-09-08T09:28:00 | 57.078790 | 8.085033 | 2.0 | 17.264 | 2 | 43.337 | 17.428 | 33.282 | 2 |
| 2025-09-08T09:29:00 | 57.078770 | 8.085121 | 2.0 | 17.268 | 2 | 43.336 | 17.427 | 33.282 | 2 |
| 2025-09-08T09:30:00 | 57.078719 | 8.085205 | 2.0 | 17.258 | 2 | 43.335 | 17.423 | 33.285 | 2 |
| 2025-09-08T09:31:00 | 57.078696 | 8.085336 | 2.0 | 17.263 | 2 | 43.334 | 17.421 | 33.285 | 2 |
| 2025-09-08T09:32:00 | 57.078638 | 8.085472 | 2.0 | 17.270 | 2 | 43.335 | 17.425 | 33.283 | 2 |
| 2025-09-08T09:33:00 | 57.078571 | 8.085599 | 2.0 | 17.257 | 2 | 43.336 | 17.426 | 33.283 | 2 |
| 2025-09-08T09:34:00 | 57.078511 | 8.085662 | 2.0 | 17.256 | 2 | 43.331 | 17.420 | 33.284 | 2 |
| 2025-09-08T09:35:00 | 57.078500 | 8.085713 | 2.0 | 17.263 | 2 | 43.331 | 17.418 | 33.285 | 2 |
| 2025-09-08T09:36:00 | 57.078497 | 8.085770 | 2.0 | 17.264 | 2 | 43.335 | 17.424 | 33.284 | 2 |
| 2025-09-08T09:37:00 | 57.078465 | 8.085783 | 2.0 | 17.263 | 2 | 43.335 | 17.424 | 33.284 | 2 |
| 2025-09-08T09:38:00 | 57.078421 | 8.085790 | 2.0 | 17.260 | 2 | 43.334 | 17.423 | 33.284 | 2 |
| 2025-09-08T09:39:00 | 57.078370 | 8.085807 | 2.0 | 17.265 | 2 | 43.333 | 17.422 | 33.284 | 2 |
| 2025-09-08T09:40:00 | 57.078311 | 8.085799 | 2.0 | 17.266 | 2 | 43.335 | 17.424 | 33.284 | 2 |
| 2025-09-08T09:41:00 | 57.078254 | 8.085788 | 2.0 | 17.256 | 2 | 43.336 | 17.425 | 33.284 | 2 |
| 2025-09-08T09:42:00 | 57.078242 | 8.085815 | 2.0 | 17.250 | 2 | 43.329 | 17.416 | 33.285 | 2 |
| 2025-09-08T09:43:00 | 57.078208 | 8.085812 | 2.0 | 17.259 | 2 | 43.326 | 17.411 | 33.287 | 2 |
| 2025-09-08T09:44:00 | 57.078187 | 8.085826 | 2.0 | 17.253 | 2 | 43.331 | 17.417 | 33.286 | 2 |
| 2025-09-08T09:45:00 | 57.078164 | 8.085875 | 2.0 | 17.259 | 2 | 43.329 | 17.415 | 33.286 | 2 |
| 2025-09-08T09:46:00 | 57.078117 | 8.085943 | 2.0 | 17.261 | 2 | 43.331 | 17.421 | 33.283 | 2 |
| 2025-09-08T09:47:00 | 57.078046 | 8.085989 | 2.0 | 17.248 | 2 | 43.330 | 17.417 | 33.285 | 2 |
| 2025-09-08T09:48:00 | 57.077966 | 8.086030 | 2.0 | 17.256 | 2 | 43.327 | 17.412 | 33.287 | 2 |
| 2025-09-08T09:49:00 | 57.077884 | 8.086101 | 2.0 | 17.263 | 2 | 43.330 | 17.416 | 33.286 | 2 |
| 2025-09-08T09:50:00 | 57.077786 | 8.086119 | 2.0 | 17.272 | 2 | 43.337 | 17.426 | 33.284 | 2 |
| 2025-09-08T09:51:00 | 57.077750 | 8.086102 | 2.0 | 17.267 | 2 | 43.340 | 17.429 | 33.284 | 2 |
| 2025-09-08T09:52:00 | 57.077778 | 8.086124 | 2.0 | 17.269 | 2 | 43.341 | 17.430 | 33.284 | 2 |
| 2025-09-08T09:53:00 | 57.077825 | 8.086116 | 2.0 | 17.269 | 2 | 43.341 | 17.429 | 33.285 | 2 |
| 2025-09-08T09:54:00 | 57.077826 | 8.086088 | 2.0 | 17.276 | 2 | 43.341 | 17.431 | 33.283 | 2 |
| 2025-09-08T09:55:00 | 57.077805 | 8.086065 | 2.0 | 17.275 | 2 | 43.344 | 17.436 | 33.282 | 2 |
| 2025-09-08T09:56:00 | 57.077760 | 8.086080 | 2.0 | 17.275 | 2 | 43.344 | 17.437 | 33.281 | 2 |
| 2025-09-08T09:57:00 | 57.077719 | 8.086131 | 2.0 | 17.276 | 2 | 43.343 | 17.436 | 33.281 | 2 |
| 2025-09-08T09:58:00 | 57.077693 | 8.086221 | 2.0 | 17.276 | 2 | 43.343 | 17.435 | 33.282 | 2 |
| 2025-09-08T09:59:00 | 57.077661 | 8.086332 | 2.0 | 17.270 | 2 | 43.344 | 17.436 | 33.282 | 2 |
| 2025-09-08T10:00:00 | 57.077611 | 8.086491 | 2.0 | 17.268 | 2 | 43.339 | 17.429 | 33.283 | 2 |
| 2025-09-08T10:01:00 | 57.077388 | 8.086407 | 2.0 | 17.268 | 2 | 43.337 | 17.429 | 33.281 | 2 |
| 2025-09-08T10:02:00 | 57.077049 | 8.086018 | 2.0 | 17.268 | 2 | 43.339 | 17.427 | 33.285 | 2 |
| 2025-09-08T10:03:00 | 57.076720 | 8.085299 | 2.0 | 17.301 | 2 | 43.346 | 17.435 | 33.284 | 2 |
| 2025-09-08T10:04:00 | 57.076596 | 8.084254 | 2.0 | 17.264 | 2 | 43.356 | 17.452 | 33.279 | 2 |
| 2025-09-08T10:05:00 | 57.076718 | 8.083058 | 2.0 | 17.265 | 2 | 43.347 | 17.427 | 33.292 | 2 |
| 2025-09-08T10:06:00 | 57.076889 | 8.081821 | 2.0 | 17.263 | 2 | 43.350 | 17.428 | 33.293 | 2 |
| 2025-09-08T10:07:00 | 57.077082 | 8.080644 | 2.0 | 17.256 | 2 | 43.351 | 17.423 | 33.298 | 2 |
| 2025-09-08T10:08:00 | 57.077436 | 8.079762 | 2.0 | 17.259 | 2 | 43.345 | 17.414 | 33.301 | 2 |
| 2025-09-08T10:09:00 | 57.077874 | 8.079190 | 2.0 | 17.260 | 2 | 43.346 | 17.421 | 33.296 | 2 |
| 2025-09-08T10:10:00 | 57.078331 | 8.078860 | 2.0 | 17.275 | 2 | 43.347 | 17.425 | 33.293 | 2 |
| 2025-09-08T10:11:00 | 57.078661 | 8.078741 | 2.0 | 17.289 | 2 | 43.353 | 17.437 | 33.289 | 2 |
| 2025-09-08T10:12:00 | 57.078894 | 8.078659 | 2.0 | 17.307 | 2 | 43.362 | 17.451 | 33.285 | 2 |
| 2025-09-08T10:13:00 | 57.079107 | 8.078666 | 2.0 | 17.301 | 2 | 43.375 | 17.466 | 33.284 | 2 |
| 2025-09-08T10:14:00 | 57.079138 | 8.078805 | 2.0 | 17.282 | 2 | 43.375 | 17.456 | 33.292 | 2 |
| 2025-09-08T10:15:00 | 57.078860 | 8.078846 | 2.0 | 17.305 | 2 | 43.368 | 17.446 | 33.294 | 2 |
| 2025-09-08T10:16:00 | 57.078466 | 8.078533 | 2.0 | 17.297 | 2 | 43.375 | 17.467 | 33.283 | 2 |
| 2025-09-08T10:17:00 | 57.078105 | 8.077963 | 2.0 | 17.267 | 2 | 43.366 | 17.449 | 33.290 | 2 |
| 2025-09-08T10:18:00 | 57.077774 | 8.077183 | 2.0 | 17.276 | 2 | 43.356 | 17.433 | 33.294 | 2 |
| 2025-09-08T10:19:00 | 57.077420 | 8.076495 | 2.0 | 17.269 | 2 | 43.361 | 17.435 | 33.297 | 2 |
| 2025-09-08T10:20:00 | 57.077063 | 8.075682 | 2.0 | 17.257 | 2 | 43.362 | 17.428 | 33.304 | 2 |
| 2025-09-08T10:21:00 | 57.076707 | 8.074787 | 2.0 | 17.282 | 2 | 43.364 | 17.426 | 33.307 | 2 |
| 2025-09-08T10:22:00 | 57.076385 | 8.073898 | 2.0 | 17.313 | 2 | 43.376 | 17.448 | 33.299 | 2 |
| 2025-09-08T10:23:00 | 57.076073 | 8.072993 | 2.0 | 17.312 | 2 | 43.388 | 17.469 | 33.292 | 2 |
| 2025-09-08T10:24:00 | 57.075748 | 8.072052 | 2.0 | 17.312 | 2 | 43.389 | 17.469 | 33.293 | 2 |
| 2025-09-08T10:25:00 | 57.075464 | 8.071188 | 2.0 | 17.305 | 2 | 43.391 | 17.471 | 33.293 | 2 |
| 2025-09-08T10:26:00 | 57.075250 | 8.070387 | 2.0 | 17.300 | 2 | 43.390 | 17.467 | 33.296 | 2 |
| 2025-09-08T10:27:00 | 57.075083 | 8.069636 | 2.0 | 17.293 | 2 | 43.392 | 17.460 | 33.303 | 2 |
| 2025-09-08T10:28:00 | 57.074931 | 8.068889 | 2.0 | 17.294 | 2 | 43.390 | 17.453 | 33.307 | 2 |
| 2025-09-08T10:29:00 | 57.074786 | 8.068197 | 2.0 | 17.290 | 2 | 43.394 | 17.454 | 33.310 | 2 |
| 2025-09-08T10:30:00 | 57.074689 | 8.067543 | 2.0 | 17.288 | 2 | 43.395 | 17.453 | 33.311 | 2 |
| 2025-09-08T10:31:00 | 57.074653 | 8.066923 | 2.0 | 17.298 | 2 | 43.395 | 17.452 | 33.312 | 2 |
| 2025-09-08T10:32:00 | 57.074633 | 8.066302 | 2.0 | 17.283 | 2 | 43.399 | 17.454 | 33.314 | 2 |
| 2025-09-08T10:33:00 | 57.074532 | 8.065621 | 2.0 | 17.289 | 2 | 43.396 | 17.448 | 33.316 | 2 |
| 2025-09-08T10:34:00 | 57.074364 | 8.064880 | 2.0 | 17.258 | 2 | 43.394 | 17.442 | 33.320 | 2 |
| 2025-09-08T10:35:00 | 57.074145 | 8.064091 | 2.0 | 17.241 | 2 | 43.377 | 17.418 | 33.325 | 2 |
| 2025-09-08T10:36:00 | 57.073948 | 8.063353 | 2.0 | 17.219 | 2 | 43.359 | 17.394 | 33.329 | 2 |
| 2025-09-08T10:37:00 | 57.073729 | 8.062566 | 2.0 | 17.199 | 2 | 43.349 | 17.381 | 33.331 | 2 |
| 2025-09-08T10:38:00 | 57.073475 | 8.061794 | 2.0 | 17.199 | 2 | 43.333 | 17.366 | 33.330 | 2 |
| 2025-09-08T10:39:00 | 57.073147 | 8.060951 | 2.0 | 17.194 | 2 | 43.330 | 17.362 | 33.330 | 2 |
| 2025-09-08T10:40:00 | 57.072771 | 8.060035 | 2.0 | 17.193 | 2 | 43.325 | 17.357 | 33.330 | 2 |
| 2025-09-08T10:41:00 | 57.072421 | 8.059144 | 2.0 | 17.201 | 2 | 43.326 | 17.357 | 33.331 | 2 |
| 2025-09-08T10:42:00 | 57.072098 | 8.058330 | 2.0 | 17.202 | 2 | 43.337 | 17.364 | 33.335 | 2 |
| 2025-09-08T10:43:00 | 57.071756 | 8.057483 | 2.0 | 17.205 | 2 | 43.342 | 17.366 | 33.337 | 2 |
| 2025-09-08T10:44:00 | 57.071420 | 8.056628 | 2.0 | 17.204 | 2 | 43.344 | 17.365 | 33.340 | 2 |
| 2025-09-08T10:45:00 | 57.071084 | 8.055741 | 2.0 | 17.208 | 2 | 43.345 | 17.366 | 33.340 | 2 |
| 2025-09-08T10:46:00 | 57.070758 | 8.054883 | 2.0 | 17.210 | 2 | 43.348 | 17.370 | 33.339 | 2 |
| 2025-09-08T10:47:00 | 57.070425 | 8.054029 | 2.0 | 17.201 | 2 | 43.348 | 17.367 | 33.342 | 2 |
| 2025-09-08T10:48:00 | 57.070064 | 8.053164 | 2.0 | 17.203 | 2 | 43.344 | 17.362 | 33.342 | 2 |
| 2025-09-08T10:49:00 | 57.069693 | 8.052302 | 2.0 | 17.208 | 2 | 43.346 | 17.364 | 33.343 | 2 |
| 2025-09-08T10:50:00 | 57.069324 | 8.051417 | 2.0 | 17.211 | 2 | 43.351 | 17.369 | 33.343 | 2 |
| 2025-09-08T10:51:00 | 57.068923 | 8.050501 | 2.0 | 17.213 | 2 | 43.354 | 17.372 | 33.343 | 2 |
| 2025-09-08T10:52:00 | 57.068514 | 8.049556 | 2.0 | 17.202 | 2 | 43.354 | 17.370 | 33.344 | 2 |
| 2025-09-08T10:53:00 | 57.068108 | 8.048627 | 2.0 | 17.201 | 2 | 43.349 | 17.365 | 33.344 | 2 |
| 2025-09-08T10:54:00 | 57.067709 | 8.047717 | 2.0 | 17.192 | 2 | 43.346 | 17.360 | 33.346 | 2 |
| 2025-09-08T10:55:00 | 57.067333 | 8.046853 | 2.0 | 17.183 | 2 | 43.339 | 17.351 | 33.347 | 2 |
| 2025-09-08T10:56:00 | 57.066959 | 8.045992 | 2.0 | 17.167 | 2 | 43.330 | 17.340 | 33.349 | 2 |
| 2025-09-08T10:57:00 | 57.066582 | 8.045121 | 2.0 | 17.171 | 2 | 43.322 | 17.330 | 33.350 | 2 |
| 2025-09-08T10:58:00 | 57.066218 | 8.044284 | 2.0 | 17.184 | 2 | 43.324 | 17.332 | 33.350 | 2 |
| 2025-09-08T10:59:00 | 57.065839 | 8.043424 | 2.0 | 17.180 | 2 | 43.336 | 17.343 | 33.351 | 2 |
| 2025-09-08T11:00:00 | 57.065425 | 8.042548 | 2.0 | 17.178 | 2 | 43.333 | 17.340 | 33.351 | 2 |
| 2025-09-08T11:01:00 | 57.065012 | 8.041685 | 2.0 | 17.160 | 2 | 43.331 | 17.336 | 33.353 | 2 |
| 2025-09-08T11:02:00 | 57.064625 | 8.040841 | 2.0 | 17.167 | 2 | 43.321 | 17.325 | 33.353 | 2 |
| 2025-09-08T11:03:00 | 57.064244 | 8.039981 | 2.0 | 17.164 | 2 | 43.322 | 17.326 | 33.353 | 2 |
| 2025-09-08T11:04:00 | 57.063904 | 8.039148 | 2.0 | 17.153 | 2 | 43.317 | 17.322 | 33.352 | 2 |
| 2025-09-08T11:05:00 | 57.063564 | 8.038333 | 2.0 | 17.159 | 2 | 43.314 | 17.316 | 33.355 | 2 |
| 2025-09-08T11:06:00 | 57.063246 | 8.037516 | 2.0 | 17.152 | 2 | 43.318 | 17.320 | 33.355 | 2 |
| 2025-09-08T11:07:00 | 57.062911 | 8.036683 | 2.0 | 17.160 | 2 | 43.315 | 17.317 | 33.355 | 2 |
| 2025-09-08T11:08:00 | 57.062609 | 8.035875 | 2.0 | 17.162 | 2 | 43.319 | 17.321 | 33.355 | 2 |
| 2025-09-08T11:09:00 | 57.062338 | 8.035083 | 2.0 | 17.174 | 2 | 43.324 | 17.325 | 33.356 | 2 |
| 2025-09-08T11:10:00 | 57.062062 | 8.034269 | 2.0 | 17.202 | 2 | 43.335 | 17.342 | 33.351 | 2 |
| 2025-09-08T11:11:00 | 57.061765 | 8.033441 | 2.0 | 17.209 | 2 | 43.338 | 17.361 | 33.338 | 2 |
| 2025-09-08T11:12:00 | 57.061423 | 8.032573 | 2.0 | 17.217 | 2 | 43.340 | 17.369 | 33.333 | 2 |
| 2025-09-08T11:13:00 | 57.061074 | 8.031712 | 2.0 | 17.217 | 2 | 43.347 | 17.377 | 33.333 | 2 |
| 2025-09-08T11:14:00 | 57.060697 | 8.030852 | 2.0 | 17.222 | 2 | 43.350 | 17.379 | 33.334 | 2 |
| 2025-09-08T11:15:00 | 57.060301 | 8.029992 | 2.0 | 17.232 | 2 | 43.353 | 17.385 | 33.331 | 2 |
| 2025-09-08T11:16:00 | 57.059926 | 8.029143 | 2.0 | 17.225 | 2 | 43.350 | 17.389 | 33.325 | 2 |
| 2025-09-08T11:17:00 | 57.059520 | 8.028262 | 2.0 | 17.231 | 2 | 43.349 | 17.388 | 33.325 | 2 |
| 2025-09-08T11:18:00 | 57.059086 | 8.027368 | 2.0 | 17.240 | 2 | 43.361 | 17.395 | 33.330 | 2 |
| 2025-09-08T11:19:00 | 57.058667 | 8.026523 | 2.0 | 17.236 | 2 | 43.370 | 17.400 | 33.334 | 2 |
| 2025-09-08T11:20:00 | 57.058275 | 8.025684 | 2.0 | 17.236 | 2 | 43.370 | 17.397 | 33.336 | 2 |
| 2025-09-08T11:21:00 | 57.057868 | 8.024862 | 2.0 | 17.231 | 2 | 43.368 | 17.393 | 33.338 | 2 |
| 2025-09-08T11:22:00 | 57.057433 | 8.024010 | 2.0 | 17.230 | 2 | 43.368 | 17.391 | 33.339 | 2 |
| 2025-09-08T11:23:00 | 57.057022 | 8.023166 | 2.0 | 17.230 | 2 | 43.370 | 17.392 | 33.340 | 2 |
| 2025-09-08T11:24:00 | 57.056615 | 8.022318 | 2.0 | 17.244 | 2 | 43.374 | 17.394 | 33.342 | 2 |
| 2025-09-08T11:25:00 | 57.056196 | 8.021465 | 2.0 | 17.249 | 2 | 43.385 | 17.405 | 33.342 | 2 |
| 2025-09-08T11:26:00 | 57.055806 | 8.020632 | 2.0 | 17.252 | 2 | 43.387 | 17.408 | 33.342 | 2 |
| 2025-09-08T11:27:00 | 57.055462 | 8.019847 | 2.0 | 17.243 | 2 | 43.388 | 17.410 | 33.341 | 2 |
| 2025-09-08T11:28:00 | 57.055158 | 8.019106 | 2.0 | 17.249 | 2 | 43.387 | 17.408 | 33.342 | 2 |
| 2025-09-08T11:29:00 | 57.054839 | 8.018349 | 2.0 | 17.245 | 2 | 43.386 | 17.406 | 33.342 | 2 |
| 2025-09-08T11:30:00 | 57.054477 | 8.017551 | 2.0 | 17.248 | 2 | 43.387 | 17.408 | 33.342 | 2 |
| 2025-09-08T11:31:00 | 57.054153 | 8.016798 | 2.0 | 17.252 | 2 | 43.385 | 17.409 | 33.339 | 2 |
| 2025-09-08T11:32:00 | 57.053863 | 8.016080 | 2.0 | 17.265 | 2 | 43.392 | 17.415 | 33.340 | 2 |
| 2025-09-08T11:33:00 | 57.053549 | 8.015328 | 2.0 | 17.279 | 2 | 43.405 | 17.429 | 33.340 | 2 |
| 2025-09-08T11:34:00 | 57.053262 | 8.014595 | 2.0 | 17.276 | 2 | 43.405 | 17.436 | 33.334 | 2 |
| 2025-09-08T11:35:00 | 57.052970 | 8.013845 | 2.0 | 17.272 | 2 | 43.401 | 17.437 | 33.330 | 2 |
| 2025-09-08T11:36:00 | 57.052680 | 8.013101 | 2.0 | 17.259 | 2 | 43.398 | 17.429 | 33.334 | 2 |
| 2025-09-08T11:37:00 | 57.052274 | 8.012267 | 2.0 | 17.270 | 2 | 43.391 | 17.421 | 33.334 | 2 |
| 2025-09-08T11:38:00 | 57.051780 | 8.011403 | 2.0 | 17.268 | 2 | 43.399 | 17.429 | 33.335 | 2 |
| 2025-09-08T11:39:00 | 57.051267 | 8.010524 | 2.0 | 17.270 | 2 | 43.397 | 17.427 | 33.335 | 2 |
| 2025-09-08T11:40:00 | 57.050753 | 8.009645 | 2.0 | 17.273 | 2 | 43.400 | 17.432 | 33.333 | 2 |
| 2025-09-08T11:41:00 | 57.050250 | 8.008768 | 2.0 | 17.270 | 2 | 43.401 | 17.434 | 33.332 | 2 |
| 2025-09-08T11:42:00 | 57.049778 | 8.007897 | 2.0 | 17.272 | 2 | 43.400 | 17.434 | 33.331 | 2 |
| 2025-09-08T11:43:00 | 57.049399 | 8.007070 | 2.0 | 17.278 | 2 | 43.403 | 17.435 | 33.333 | 2 |
| 2025-09-08T11:44:00 | 57.049036 | 8.006270 | 2.0 | 17.274 | 2 | 43.408 | 17.437 | 33.336 | 2 |
| 2025-09-08T11:45:00 | 57.048697 | 8.005527 | 2.0 | 17.271 | 2 | 43.408 | 17.435 | 33.337 | 2 |
| 2025-09-08T11:46:00 | 57.048365 | 8.004758 | 2.0 | 17.297 | 2 | 43.413 | 17.437 | 33.340 | 2 |
| 2025-09-08T11:47:00 | 57.047996 | 8.003933 | 2.0 | 17.303 | 2 | 43.429 | 17.458 | 33.336 | 2 |
| 2025-09-08T11:48:00 | 57.047592 | 8.003076 | 2.0 | 17.302 | 2 | 43.433 | 17.463 | 33.336 | 2 |
| 2025-09-08T11:49:00 | 57.047181 | 8.002216 | 2.0 | 17.302 | 2 | 43.435 | 17.462 | 33.338 | 2 |
| 2025-09-08T11:50:00 | 57.046773 | 8.001355 | 2.0 | 17.315 | 2 | 43.435 | 17.462 | 33.338 | 2 |
| 2025-09-08T11:51:00 | 57.046364 | 8.000486 | 2.0 | 17.318 | 2 | 43.430 | 17.474 | 33.324 | 2 |
| 2025-09-08T11:52:00 | 57.045987 | 7.999647 | 2.0 | 17.331 | 2 | 43.418 | 17.482 | 33.307 | 2 |
| 2025-09-08T11:53:00 | 57.045617 | 7.998845 | 2.0 | 17.345 | 2 | 43.429 | 17.490 | 33.310 | 2 |
| 2025-09-08T11:54:00 | 57.045246 | 7.998050 | 2.0 | 17.349 | 2 | 43.448 | 17.504 | 33.315 | 2 |
| 2025-09-08T11:55:00 | 57.044838 | 7.997208 | 2.0 | 17.346 | 2 | 43.450 | 17.507 | 33.314 | 2 |
| 2025-09-08T11:56:00 | 57.044412 | 7.996353 | 2.0 | 17.344 | 2 | 43.444 | 17.506 | 33.310 | 2 |
| 2025-09-08T11:57:00 | 57.043970 | 7.995473 | 2.0 | 17.336 | 2 | 43.443 | 17.505 | 33.310 | 2 |
| 2025-09-08T11:58:00 | 57.043517 | 7.994596 | 2.0 | 17.307 | 2 | 43.434 | 17.487 | 33.317 | 2 |
| 2025-09-08T11:59:00 | 57.043085 | 7.993731 | 2.0 | 17.300 | 2 | 43.419 | 17.468 | 33.320 | 2 |
| 2025-09-08T12:00:00 | 57.042643 | 7.992900 | 2.0 | 17.313 | 2 | 43.419 | 17.461 | 33.325 | 2 |
| 2025-09-08T12:01:00 | 57.042187 | 7.992038 | 2.0 | 17.320 | 2 | 43.435 | 17.476 | 33.327 | 2 |
| 2025-09-08T12:02:00 | 57.041704 | 7.991178 | 2.0 | 17.324 | 2 | 43.443 | 17.480 | 33.330 | 2 |
| 2025-09-08T12:03:00 | 57.041236 | 7.990301 | 2.0 | 17.327 | 2 | 43.450 | 17.483 | 33.334 | 2 |
| 2025-09-08T12:04:00 | 57.040753 | 7.989411 | 2.0 | 17.330 | 2 | 43.454 | 17.486 | 33.335 | 2 |
| 2025-09-08T12:05:00 | 57.040294 | 7.988522 | 2.0 | 17.346 | 2 | 43.459 | 17.495 | 33.332 | 2 |
| 2025-09-08T12:06:00 | 57.039864 | 7.987639 | 2.0 | 17.361 | 2 | 43.467 | 17.508 | 33.328 | 2 |
| 2025-09-08T12:07:00 | 57.039479 | 7.986755 | 2.0 | 17.382 | 2 | 43.478 | 17.528 | 33.321 | 2 |
| 2025-09-08T12:08:00 | 57.039141 | 7.985926 | 2.0 | 17.381 | 2 | 43.485 | 17.540 | 33.317 | 2 |
| 2025-09-08T12:09:00 | 57.038831 | 7.985047 | 2.0 | 17.363 | 2 | 43.479 | 17.536 | 33.315 | 2 |
| 2025-09-08T12:10:00 | 57.038678 | 7.983865 | 2.0 | 17.377 | 2 | 43.464 | 17.527 | 33.310 | 2 |
| 2025-09-08T12:11:00 | 57.038767 | 7.982509 | 2.0 | 17.372 | 2 | 43.478 | 17.531 | 33.318 | 2 |
| 2025-09-08T12:12:00 | 57.039043 | 7.981158 | 2.0 | 17.380 | 2 | 43.493 | 17.539 | 33.325 | 2 |
| 2025-09-08T12:13:00 | 57.039529 | 7.980067 | 2.0 | 17.358 | 2 | 43.494 | 17.536 | 33.328 | 2 |
| 2025-09-08T12:14:00 | 57.040143 | 7.979237 | 2.0 | 17.373 | 2 | 43.481 | 17.519 | 33.331 | 2 |
| 2025-09-08T12:15:00 | 57.040771 | 7.978410 | 2.0 | 17.370 | 2 | 43.489 | 17.529 | 33.330 | 2 |
| 2025-09-08T12:16:00 | 57.041384 | 7.977640 | 2.0 | 17.337 | 2 | 43.502 | 17.531 | 33.339 | 2 |
| 2025-09-08T12:17:00 | 57.041968 | 7.976864 | 2.0 | 17.248 | 2 | 43.490 | 17.477 | 33.373 | 2 |
| 2025-09-08T12:18:00 | 57.042548 | 7.976128 | 2.0 | 17.209 | 2 | 43.441 | 17.394 | 33.400 | 2 |
| 2025-09-08T12:19:00 | 57.043117 | 7.975404 | 2.0 | 17.274 | 2 | 43.428 | 17.382 | 33.398 | 2 |
| 2025-09-08T12:20:00 | 57.043676 | 7.974691 | 2.0 | 17.294 | 2 | 43.467 | 17.435 | 33.388 | 2 |
| 2025-09-08T12:21:00 | 57.044239 | 7.973964 | 2.0 | 17.221 | 2 | 43.490 | 17.457 | 33.390 | 2 |
| 2025-09-08T12:22:00 | 57.044805 | 7.973241 | 2.0 | 17.173 | 2 | 43.446 | 17.367 | 33.426 | 2 |
| 2025-09-08T12:23:00 | 57.045370 | 7.972507 | 2.0 | 17.175 | 2 | 43.419 | 17.338 | 33.427 | 2 |
| 2025-09-08T12:24:00 | 57.045934 | 7.971803 | 2.0 | 17.166 | 2 | 43.423 | 17.337 | 33.431 | 2 |
| 2025-09-08T12:25:00 | 57.046479 | 7.971109 | 2.0 | 17.168 | 2 | 43.424 | 17.328 | 33.439 | 2 |
| 2025-09-08T12:26:00 | 57.047011 | 7.970418 | 2.0 | 17.228 | 2 | 43.433 | 17.346 | 33.432 | 2 |
| 2025-09-08T12:27:00 | 57.047548 | 7.969737 | 2.0 | 17.210 | 2 | 43.461 | 17.385 | 33.424 | 2 |
| 2025-09-08T12:28:00 | 57.048102 | 7.969033 | 2.0 | 17.218 | 2 | 43.454 | 17.368 | 33.432 | 2 |
| 2025-09-08T12:29:00 | 57.048665 | 7.968309 | 2.0 | 17.190 | 2 | 43.458 | 17.378 | 33.427 | 2 |
| 2025-09-08T12:30:00 | 57.049236 | 7.967625 | 2.0 | 17.232 | 2 | 43.442 | 17.350 | 33.437 | 2 |
| 2025-09-08T12:31:00 | 57.049800 | 7.966936 | 2.0 | 17.264 | 2 | 43.469 | 17.400 | 33.419 | 2 |
| 2025-09-08T12:32:00 | 57.050365 | 7.966234 | 2.0 | 17.284 | 2 | 43.494 | 17.425 | 33.419 | 2 |
| 2025-09-08T12:33:00 | 57.050941 | 7.965528 | 2.0 | 17.268 | 2 | 43.511 | 17.441 | 33.421 | 2 |
| 2025-09-08T12:34:00 | 57.051527 | 7.964815 | 2.0 | 17.261 | 2 | 43.509 | 17.427 | 33.431 | 2 |
| 2025-09-08T12:35:00 | 57.052127 | 7.964083 | 2.0 | 17.266 | 2 | 43.507 | 17.429 | 33.427 | 2 |
| 2025-09-08T12:36:00 | 57.052730 | 7.963344 | 2.0 | 17.250 | 2 | 43.502 | 17.421 | 33.430 | 2 |
| 2025-09-08T12:37:00 | 57.053330 | 7.962614 | 2.0 | 17.243 | 2 | 43.494 | 17.411 | 33.431 | 2 |
| 2025-09-08T12:38:00 | 57.053928 | 7.961885 | 2.0 | 17.229 | 2 | 43.485 | 17.398 | 33.434 | 2 |
| 2025-09-08T12:39:00 | 57.054533 | 7.961188 | 2.0 | 17.223 | 2 | 43.482 | 17.393 | 33.436 | 2 |
| 2025-09-08T12:40:00 | 57.055121 | 7.960479 | 2.0 | 17.210 | 2 | 43.478 | 17.377 | 33.445 | 2 |
| 2025-09-08T12:41:00 | 57.055691 | 7.959799 | 2.0 | 17.123 | 2 | 43.471 | 17.354 | 33.458 | 2 |
| 2025-09-08T12:42:00 | 57.056255 | 7.959115 | 2.0 | 17.132 | 2 | 43.443 | 17.293 | 33.485 | 2 |
| 2025-09-08T12:43:00 | 57.056822 | 7.958428 | 2.0 | 17.148 | 2 | 43.443 | 17.301 | 33.478 | 2 |
| 2025-09-08T12:44:00 | 57.057386 | 7.957736 | 2.0 | 17.152 | 2 | 43.441 | 17.285 | 33.490 | 2 |
| 2025-09-08T12:45:00 | 57.057939 | 7.957056 | 2.0 | 17.157 | 2 | 43.448 | 17.312 | 33.473 | 2 |
| 2025-09-08T12:46:00 | 57.058482 | 7.956410 | 2.0 | 17.169 | 2 | 43.455 | 17.318 | 33.474 | 2 |
| 2025-09-08T12:47:00 | 57.059016 | 7.955761 | 2.0 | 17.201 | 2 | 43.464 | 17.333 | 33.470 | 2 |
| 2025-09-08T12:48:00 | 57.059552 | 7.955112 | 2.0 | 17.166 | 2 | 43.482 | 17.357 | 33.465 | 2 |
| 2025-09-08T12:49:00 | 57.060082 | 7.954470 | 2.0 | 17.111 | 2 | 43.468 | 17.316 | 33.487 | 2 |
| 2025-09-08T12:50:00 | 57.060622 | 7.953826 | 2.0 | 17.069 | 2 | 43.439 | 17.251 | 33.516 | 2 |
| 2025-09-08T12:51:00 | 57.061164 | 7.953197 | 2.0 | 17.133 | 2 | 43.438 | 17.256 | 33.511 | 2 |
| 2025-09-08T12:52:00 | 57.061720 | 7.952554 | 2.0 | 17.086 | 2 | 43.454 | 17.271 | 33.512 | 2 |
| 2025-09-08T12:53:00 | 57.062291 | 7.951928 | 2.0 | 17.137 | 2 | 43.451 | 17.266 | 33.514 | 2 |
| 2025-09-08T12:54:00 | 57.062844 | 7.951279 | 2.0 | 17.110 | 2 | 43.473 | 17.290 | 33.513 | 2 |
| 2025-09-08T12:55:00 | 57.063392 | 7.950657 | 2.0 | 17.116 | 2 | 43.464 | 17.261 | 33.529 | 2 |
| 2025-09-08T12:56:00 | 57.063929 | 7.950047 | 2.0 | 17.082 | 2 | 43.468 | 17.261 | 33.533 | 2 |
| 2025-09-08T12:57:00 | 57.064467 | 7.949431 | 2.0 | 16.999 | 2 | 43.459 | 17.228 | 33.552 | 2 |
| 2025-09-08T12:58:00 | 57.065014 | 7.948841 | 2.0 | 17.037 | 2 | 43.434 | 17.177 | 33.573 | 2 |
| 2025-09-08T12:59:00 | 57.065561 | 7.948246 | 2.0 | 17.098 | 2 | 43.447 | 17.203 | 33.563 | 2 |
| 2025-09-08T13:00:00 | 57.066115 | 7.947612 | 2.0 | 16.918 | 2 | 43.472 | 17.228 | 33.564 | 2 |
| 2025-09-08T13:01:00 | 57.066676 | 7.946985 | 2.0 | 16.867 | 2 | 43.406 | 17.093 | 33.619 | 2 |
| 2025-09-08T13:02:00 | 57.067237 | 7.946358 | 2.0 | 16.795 | 2 | 43.373 | 17.008 | 33.661 | 2 |
| 2025-09-08T13:03:00 | 57.067789 | 7.945760 | 2.0 | 16.820 | 2 | 43.337 | 16.969 | 33.663 | 2 |
| 2025-09-08T13:04:00 | 57.068335 | 7.945150 | 2.0 | 16.780 | 2 | 43.359 | 16.978 | 33.674 | 2 |
| 2025-09-08T13:05:00 | 57.068877 | 7.944513 | 2.0 | 16.703 | 2 | 43.370 | 16.944 | 33.712 | 2 |
| 2025-09-08T13:06:00 | 57.069419 | 7.943889 | 2.0 | 16.628 | 2 | 43.329 | 16.849 | 33.757 | 2 |
| 2025-09-08T13:07:00 | 57.069944 | 7.943290 | 2.0 | 16.700 | 2 | 43.301 | 16.809 | 33.766 | 2 |
| 2025-09-08T13:08:00 | 57.070445 | 7.942734 | 2.0 | 16.711 | 2 | 43.334 | 16.860 | 33.752 | 2 |
| 2025-09-08T13:09:00 | 57.070941 | 7.942173 | 2.0 | 16.761 | 2 | 43.346 | 16.883 | 33.743 | 2 |
| 2025-09-08T13:10:00 | 57.071454 | 7.941605 | 2.0 | 16.765 | 2 | 43.377 | 16.931 | 33.729 | 2 |
| 2025-09-08T13:11:00 | 57.071974 | 7.941049 | 2.0 | 16.688 | 2 | 43.386 | 16.906 | 33.758 | 2 |
| 2025-09-08T13:12:00 | 57.072493 | 7.940482 | 2.0 | 16.707 | 2 | 43.368 | 16.866 | 33.776 | 2 |
| 2025-09-08T13:13:00 | 57.073002 | 7.939916 | 2.0 | 16.674 | 2 | 43.363 | 16.858 | 33.779 | 2 |
| 2025-09-08T13:14:00 | 57.073498 | 7.939375 | 2.0 | 16.722 | 2 | 43.353 | 16.851 | 33.776 | 2 |
| 2025-09-08T13:15:00 | 57.073987 | 7.938835 | 2.0 | 16.673 | 2 | 43.384 | 16.890 | 33.770 | 2 |
| 2025-09-08T13:16:00 | 57.074477 | 7.938242 | 2.0 | 16.537 | 2 | 43.336 | 16.819 | 33.788 | 2 |
| 2025-09-08T13:17:00 | 57.074960 | 7.937578 | 2.0 | 16.582 | 2 | 43.261 | 16.722 | 33.804 | 2 |
| 2025-09-08T13:18:00 | 57.075452 | 7.936946 | 2.0 | 16.550 | 2 | 43.283 | 16.751 | 33.799 | 2 |
| 2025-09-08T13:19:00 | 57.075928 | 7.936266 | 2.0 | 16.534 | 2 | 43.261 | 16.707 | 33.817 | 2 |
| 2025-09-08T13:20:00 | 57.076410 | 7.935622 | 2.0 | 16.466 | 2 | 43.252 | 16.694 | 33.820 | 2 |
| 2025-09-08T13:21:00 | 57.076891 | 7.935021 | 2.0 | 16.504 | 2 | 43.223 | 16.640 | 33.840 | 2 |
| 2025-09-08T13:22:00 | 57.077371 | 7.934530 | 2.0 | 16.578 | 2 | 43.246 | 16.684 | 33.823 | 2 |
| 2025-09-08T13:23:00 | 57.077849 | 7.933987 | 2.0 | 16.634 | 2 | 43.291 | 16.753 | 33.804 | 2 |
| 2025-09-08T13:24:00 | 57.078331 | 7.933452 | 2.0 | 16.661 | 2 | 43.323 | 16.798 | 33.794 | 2 |
| 2025-09-08T13:25:00 | 57.078809 | 7.932905 | 2.0 | 16.615 | 2 | 43.347 | 16.823 | 33.794 | 2 |
| 2025-09-08T13:26:00 | 57.079296 | 7.932265 | 2.0 | 16.523 | 2 | 43.313 | 16.762 | 33.816 | 2 |
| 2025-09-08T13:27:00 | 57.079799 | 7.931542 | 2.0 | 16.437 | 2 | 43.255 | 16.671 | 33.842 | 2 |
| 2025-09-08T13:28:00 | 57.080311 | 7.930818 | 2.0 | 16.420 | 2 | 43.218 | 16.604 | 33.866 | 2 |
| 2025-09-08T13:29:00 | 57.080834 | 7.930093 | 2.0 | 16.466 | 2 | 43.213 | 16.598 | 33.867 | 2 |
| 2025-09-08T13:30:00 | 57.081384 | 7.929371 | 2.0 | 16.568 | 2 | 43.239 | 16.643 | 33.852 | 2 |
| 2025-09-08T13:31:00 | 57.081941 | 7.928672 | 2.0 | 16.673 | 2 | 43.302 | 16.743 | 33.822 | 2 |
| 2025-09-08T13:32:00 | 57.082490 | 7.928034 | 2.0 | 16.714 | 2 | 43.378 | 16.840 | 33.807 | 2 |
| 2025-09-08T13:33:00 | 57.083028 | 7.927343 | 2.0 | 16.355 | 2 | 43.398 | 16.835 | 33.828 | 2 |
| 2025-09-08T13:34:00 | 57.083563 | 7.926644 | 2.0 | 16.440 | 2 | 43.237 | 16.570 | 33.912 | 2 |
| 2025-09-08T13:35:00 | 57.084088 | 7.925962 | 2.0 | 16.504 | 2 | 43.248 | 16.629 | 33.871 | 2 |
| 2025-09-08T13:36:00 | 57.084610 | 7.925307 | 2.0 | 16.446 | 2 | 43.273 | 16.657 | 33.870 | 2 |
| 2025-09-08T13:37:00 | 57.085138 | 7.924721 | 2.0 | 16.532 | 2 | 43.261 | 16.627 | 33.884 | 2 |
| 2025-09-08T13:38:00 | 57.085666 | 7.924141 | 2.0 | 16.618 | 2 | 43.313 | 16.722 | 33.850 | 2 |
| 2025-09-08T13:39:00 | 57.086202 | 7.923550 | 2.0 | 16.557 | 2 | 43.358 | 16.770 | 33.848 | 2 |
| 2025-09-08T13:40:00 | 57.086713 | 7.922921 | 2.0 | 16.381 | 2 | 43.316 | 16.670 | 33.896 | 2 |
| 2025-09-08T13:41:00 | 57.087217 | 7.922258 | 2.0 | 16.389 | 2 | 43.238 | 16.554 | 33.926 | 2 |
| 2025-09-08T13:42:00 | 57.087721 | 7.921609 | 2.0 | 16.398 | 2 | 43.246 | 16.568 | 33.921 | 2 |
| 2025-09-08T13:43:00 | 57.088231 | 7.920986 | 2.0 | 16.465 | 2 | 43.252 | 16.569 | 33.926 | 2 |
| 2025-09-08T13:44:00 | 57.088740 | 7.920375 | 2.0 | 16.595 | 2 | 43.287 | 16.643 | 33.894 | 2 |
| 2025-09-08T13:45:00 | 57.089228 | 7.919779 | 2.0 | 16.606 | 2 | 43.361 | 16.764 | 33.856 | 2 |
| 2025-09-08T13:46:00 | 57.089715 | 7.919190 | 2.0 | 16.611 | 2 | 43.377 | 16.765 | 33.869 | 2 |
| 2025-09-08T13:47:00 | 57.090220 | 7.918596 | 2.0 | 16.615 | 2 | 43.389 | 16.781 | 33.866 | 2 |
| 2025-09-08T13:48:00 | 57.090725 | 7.918000 | 2.0 | 16.583 | 2 | 43.394 | 16.776 | 33.875 | 2 |
| 2025-09-08T13:49:00 | 57.091232 | 7.917419 | 2.0 | 16.500 | 2 | 43.372 | 16.721 | 33.902 | 2 |
| 2025-09-08T13:50:00 | 57.091747 | 7.916828 | 2.0 | 16.579 | 2 | 43.335 | 16.671 | 33.912 | 2 |
| 2025-09-08T13:51:00 | 57.092266 | 7.916245 | 2.0 | 16.554 | 2 | 43.374 | 16.739 | 33.889 | 2 |
| 2025-09-08T13:52:00 | 57.092796 | 7.915674 | 2.0 | 16.540 | 2 | 43.366 | 16.714 | 33.903 | 2 |
| 2025-09-08T13:53:00 | 57.093336 | 7.915117 | 2.0 | 16.553 | 2 | 43.360 | 16.705 | 33.905 | 2 |
| 2025-09-08T13:54:00 | 57.093869 | 7.914569 | 2.0 | 16.574 | 2 | 43.372 | 16.723 | 33.900 | 2 |
| 2025-09-08T13:55:00 | 57.094398 | 7.914017 | 2.0 | 16.560 | 2 | 43.385 | 16.732 | 33.904 | 2 |
| 2025-09-08T13:56:00 | 57.094920 | 7.913480 | 2.0 | 16.572 | 2 | 43.385 | 16.728 | 33.907 | 2 |
| 2025-09-08T13:57:00 | 57.095440 | 7.912960 | 2.0 | 16.601 | 2 | 43.394 | 16.740 | 33.905 | 2 |
| 2025-09-08T13:58:00 | 57.095952 | 7.912424 | 2.0 | 16.592 | 2 | 43.414 | 16.768 | 33.899 | 2 |
| 2025-09-08T13:59:00 | 57.096477 | 7.911903 | 2.0 | 16.619 | 2 | 43.418 | 16.756 | 33.913 | 2 |
| 2025-09-08T14:00:00 | 57.097010 | 7.911385 | 2.0 | 16.517 | 2 | 43.435 | 16.776 | 33.911 | 2 |
| 2025-09-08T14:01:00 | 57.097549 | 7.910832 | 2.0 | 16.479 | 2 | 43.405 | 16.693 | 33.955 | 2 |
| 2025-09-08T14:02:00 | 57.098059 | 7.910279 | 2.0 | 16.291 | 2 | 43.350 | 16.589 | 33.995 | 2 |
| 2025-09-08T14:03:00 | 57.098539 | 7.909715 | 2.0 | 16.322 | 2 | 43.268 | 16.474 | 34.021 | 2 |
| 2025-09-08T14:04:00 | 57.098993 | 7.909200 | 2.0 | 16.330 | 2 | 43.274 | 16.492 | 34.011 | 2 |
| 2025-09-08T14:05:00 | 57.099426 | 7.908733 | 2.0 | 16.347 | 2 | 43.284 | 16.501 | 34.012 | 2 |
| 2025-09-08T14:06:00 | 57.099844 | 7.908266 | 2.0 | 16.406 | 2 | 43.301 | 16.520 | 34.010 | 2 |
| 2025-09-08T14:07:00 | 57.100263 | 7.907823 | 2.0 | 16.400 | 2 | 43.343 | 16.578 | 33.998 | 2 |
| 2025-09-08T14:08:00 | 57.100670 | 7.907371 | 2.0 | 16.362 | 2 | 43.337 | 16.555 | 34.012 | 2 |
| 2025-09-08T14:09:00 | 57.101072 | 7.906955 | 2.0 | 16.401 | 2 | 43.324 | 16.540 | 34.014 | 2 |
| 2025-09-08T14:10:00 | 57.101462 | 7.906549 | 2.0 | 16.422 | 2 | 43.350 | 16.574 | 34.007 | 2 |
| 2025-09-08T14:11:00 | 57.101865 | 7.906186 | 2.0 | 16.409 | 2 | 43.355 | 16.579 | 34.008 | 2 |
| 2025-09-08T14:12:00 | 57.102265 | 7.905819 | 2.0 | 16.425 | 2 | 43.359 | 16.576 | 34.014 | 2 |
| 2025-09-08T14:13:00 | 57.102676 | 7.905442 | 2.0 | 16.470 | 2 | 43.383 | 16.605 | 34.010 | 2 |
| 2025-09-08T14:14:00 | 57.103080 | 7.905048 | 2.0 | 16.459 | 2 | 43.403 | 16.620 | 34.015 | 2 |
| 2025-09-08T14:15:00 | 57.103501 | 7.904640 | 2.0 | 16.481 | 2 | 43.410 | 16.635 | 34.008 | 2 |
| 2025-09-08T14:16:00 | 57.103930 | 7.904211 | 2.0 | 16.390 | 2 | 43.413 | 16.623 | 34.021 | 2 |
| 2025-09-08T14:17:00 | 57.104342 | 7.903767 | 2.0 | 16.385 | 2 | 43.364 | 16.554 | 34.037 | 2 |
| 2025-09-08T14:18:00 | 57.104746 | 7.903336 | 2.0 | 16.449 | 2 | 43.362 | 16.565 | 34.026 | 2 |
| 2025-09-08T14:19:00 | 57.105143 | 7.902912 | 2.0 | 16.446 | 2 | 43.409 | 16.620 | 34.020 | 2 |
| 2025-09-08T14:20:00 | 57.105528 | 7.902468 | 2.0 | 16.435 | 2 | 43.400 | 16.602 | 34.028 | 2 |
| 2025-09-08T14:21:00 | 57.105909 | 7.902057 | 2.0 | 16.451 | 2 | 43.399 | 16.604 | 34.025 | 2 |
| 2025-09-08T14:22:00 | 57.106300 | 7.901669 | 2.0 | 16.489 | 2 | 43.416 | 16.623 | 34.024 | 2 |
| 2025-09-08T14:23:00 | 57.106702 | 7.901263 | 2.0 | 16.504 | 2 | 43.448 | 16.657 | 34.023 | 2 |
| 2025-09-08T14:24:00 | 57.107103 | 7.900825 | 2.0 | 16.461 | 2 | 43.460 | 16.662 | 34.029 | 2 |
| 2025-09-08T14:25:00 | 57.107512 | 7.900400 | 2.0 | 16.466 | 2 | 43.432 | 16.624 | 34.037 | 2 |
| 2025-09-08T14:26:00 | 57.107924 | 7.899982 | 2.0 | 16.481 | 2 | 43.436 | 16.632 | 34.034 | 2 |
| 2025-09-08T14:27:00 | 57.108337 | 7.899577 | 2.0 | 16.519 | 2 | 43.450 | 16.652 | 34.029 | 2 |
| 2025-09-08T14:28:00 | 57.108770 | 7.899183 | 2.0 | 16.478 | 2 | 43.479 | 16.676 | 34.034 | 2 |
| 2025-09-08T14:29:00 | 57.109204 | 7.898740 | 2.0 | 16.461 | 2 | 43.469 | 16.637 | 34.058 | 2 |
| 2025-09-08T14:30:00 | 57.109629 | 7.898293 | 2.0 | 16.463 | 2 | 43.464 | 16.625 | 34.064 | 2 |
| 2025-09-08T14:31:00 | 57.110047 | 7.897861 | 2.0 | 16.473 | 2 | 43.473 | 16.632 | 34.066 | 2 |
| 2025-09-08T14:32:00 | 57.110458 | 7.897440 | 2.0 | 16.482 | 2 | 43.474 | 16.632 | 34.067 | 2 |
| 2025-09-08T14:33:00 | 57.110881 | 7.897039 | 2.0 | 16.519 | 2 | 43.481 | 16.654 | 34.054 | 2 |
| 2025-09-08T14:34:00 | 57.111312 | 7.896614 | 2.0 | 16.517 | 2 | 43.501 | 16.684 | 34.046 | 2 |
| 2025-09-08T14:35:00 | 57.111741 | 7.896175 | 2.0 | 16.508 | 2 | 43.504 | 16.675 | 34.057 | 2 |
| 2025-09-08T14:36:00 | 57.112175 | 7.895680 | 2.0 | 16.512 | 2 | 43.490 | 16.679 | 34.041 | 2 |
| 2025-09-08T14:37:00 | 57.112610 | 7.895183 | 2.0 | 16.468 | 2 | 43.477 | 16.659 | 34.046 | 2 |
| 2025-09-08T14:38:00 | 57.113049 | 7.894656 | 2.0 | 16.484 | 2 | 43.403 | 16.635 | 34.002 | 2 |
| 2025-09-08T14:39:00 | 57.113495 | 7.894181 | 2.0 | 16.533 | 2 | 43.445 | 16.657 | 34.020 | 2 |
| 2025-09-08T14:40:00 | 57.113917 | 7.893728 | 2.0 | 16.519 | 2 | 43.462 | 16.698 | 34.000 | 2 |
| 2025-09-08T14:41:00 | 57.114334 | 7.893276 | 2.0 | 16.516 | 2 | 43.462 | 16.678 | 34.017 | 2 |
| 2025-09-08T14:42:00 | 57.114751 | 7.892833 | 2.0 | 16.522 | 2 | 43.499 | 16.681 | 34.047 | 2 |
| 2025-09-08T14:43:00 | 57.115165 | 7.892370 | 2.0 | 16.581 | 2 | 43.501 | 16.701 | 34.032 | 2 |
| 2025-09-08T14:44:00 | 57.115578 | 7.891901 | 2.0 | 16.574 | 2 | 43.516 | 16.743 | 34.009 | 2 |
| 2025-09-08T14:45:00 | 57.116007 | 7.891463 | 2.0 | 16.550 | 2 | 43.556 | 16.733 | 34.053 | 2 |
| 2025-09-08T14:46:00 | 57.116441 | 7.891011 | 2.0 | 16.576 | 2 | 43.567 | 16.717 | 34.076 | 2 |
| 2025-09-08T14:47:00 | 57.116891 | 7.890569 | 2.0 | 16.595 | 2 | 43.604 | 16.742 | 34.087 | 2 |
| 2025-09-08T14:48:00 | 57.117329 | 7.890084 | 2.0 | 16.573 | 2 | 43.628 | 16.753 | 34.099 | 2 |
| 2025-09-08T14:49:00 | 57.117776 | 7.889634 | 2.0 | 16.546 | 2 | 43.621 | 16.734 | 34.109 | 2 |
| 2025-09-08T14:50:00 | 57.118214 | 7.889195 | 2.0 | 16.568 | 2 | 43.620 | 16.714 | 34.125 | 2 |
| 2025-09-08T14:51:00 | 57.118651 | 7.888775 | 2.0 | 16.570 | 2 | 43.643 | 16.735 | 34.127 | 2 |
| 2025-09-08T14:52:00 | 57.119097 | 7.888348 | 2.0 | 16.584 | 2 | 43.675 | 16.739 | 34.152 | 2 |
| 2025-09-08T14:53:00 | 57.119582 | 7.887909 | 2.0 | 16.580 | 2 | 43.678 | 16.749 | 34.146 | 2 |
| 2025-09-08T14:54:00 | 57.120062 | 7.887474 | 2.0 | 16.582 | 2 | 43.683 | 16.748 | 34.151 | 2 |
| 2025-09-08T14:55:00 | 57.120552 | 7.887045 | 2.0 | 16.586 | 2 | 43.683 | 16.744 | 34.154 | 2 |
| 2025-09-08T14:56:00 | 57.121052 | 7.886580 | 2.0 | 16.596 | 2 | 43.692 | 16.756 | 34.152 | 2 |
| 2025-09-08T14:57:00 | 57.121545 | 7.886115 | 2.0 | 16.582 | 2 | 43.708 | 16.755 | 34.167 | 2 |
| 2025-09-08T14:58:00 | 57.122053 | 7.885661 | 2.0 | 16.616 | 2 | 43.705 | 16.751 | 34.168 | 2 |
| 2025-09-08T14:59:00 | 57.122566 | 7.885205 | 2.0 | 16.598 | 2 | 43.728 | 16.774 | 34.168 | 2 |
| 2025-09-08T15:00:00 | 57.123061 | 7.884737 | 2.0 | 16.597 | 2 | 43.723 | 16.760 | 34.176 | 2 |
| 2025-09-08T15:01:00 | 57.123554 | 7.884313 | 2.0 | 16.588 | 2 | 43.727 | 16.759 | 34.180 | 2 |
| 2025-09-08T15:02:00 | 57.124031 | 7.883857 | 2.0 | 16.599 | 2 | 43.728 | 16.758 | 34.182 | 2 |
| 2025-09-08T15:03:00 | 57.124516 | 7.883415 | 2.0 | 16.611 | 2 | 43.730 | 16.764 | 34.179 | 2 |
| 2025-09-08T15:04:00 | 57.124990 | 7.882954 | 2.0 | 16.620 | 2 | 43.743 | 16.779 | 34.177 | 2 |
| 2025-09-08T15:05:00 | 57.125483 | 7.882468 | 2.0 | 16.634 | 2 | 43.757 | 16.787 | 34.183 | 2 |
| 2025-09-08T15:06:00 | 57.126061 | 7.881975 | 2.0 | 16.639 | 2 | 43.774 | 16.795 | 34.191 | 2 |
| 2025-09-08T15:07:00 | 57.126728 | 7.881670 | 2.0 | 16.635 | 2 | 43.786 | 16.800 | 34.197 | 2 |
| 2025-09-08T15:08:00 | 57.127382 | 7.881774 | 2.0 | 16.639 | 2 | 43.787 | 16.799 | 34.198 | 2 |
| 2025-09-08T15:09:00 | 57.127973 | 7.882225 | 2.0 | 16.639 | 2 | 43.792 | 16.802 | 34.200 | 2 |
| 2025-09-08T15:10:00 | 57.128447 | 7.882954 | 2.0 | 16.637 | 2 | 43.791 | 16.799 | 34.202 | 2 |
| 2025-09-08T15:11:00 | 57.128831 | 7.883796 | 2.0 | 16.636 | 2 | 43.790 | 16.800 | 34.200 | 2 |
| 2025-09-08T15:12:00 | 57.129077 | 7.884703 | 2.0 | 16.639 | 2 | 43.786 | 16.799 | 34.198 | 2 |
| 2025-09-08T15:13:00 | 57.129205 | 7.885613 | 2.0 | 16.639 | 2 | 43.781 | 16.800 | 34.192 | 2 |
| 2025-09-08T15:14:00 | 57.129219 | 7.886469 | 2.0 | 16.637 | 2 | 43.780 | 16.801 | 34.191 | 2 |
| 2025-09-08T15:15:00 | 57.129148 | 7.887193 | 2.0 | 16.617 | 2 | 43.772 | 16.796 | 34.188 | 2 |
| 2025-09-08T15:16:00 | 57.129060 | 7.887710 | 2.0 | 16.601 | 2 | 43.749 | 16.779 | 34.182 | 2 |
| 2025-09-08T15:17:00 | 57.128853 | 7.888109 | 2.0 | 16.583 | 2 | 43.726 | 16.760 | 34.178 | 2 |
| 2025-09-08T15:18:00 | 57.128520 | 7.888521 | 2.0 | 16.599 | 2 | 43.712 | 16.747 | 34.177 | 2 |
| 2025-09-08T15:19:00 | 57.128117 | 7.889000 | 2.0 | 16.595 | 2 | 43.719 | 16.763 | 34.170 | 2 |
| 2025-09-08T15:20:00 | 57.127633 | 7.889564 | 2.0 | 16.595 | 2 | 43.714 | 16.757 | 34.170 | 2 |
| 2025-09-08T15:21:00 | 57.127078 | 7.890217 | 2.0 | 16.594 | 2 | 43.713 | 16.757 | 34.170 | 2 |
| 2025-09-08T15:22:00 | 57.126497 | 7.890913 | 2.0 | 16.587 | 2 | 43.712 | 16.757 | 34.169 | 2 |
| 2025-09-08T15:23:00 | 57.125859 | 7.891626 | 2.0 | 16.616 | 2 | 43.709 | 16.754 | 34.169 | 2 |
| 2025-09-08T15:24:00 | 57.125187 | 7.892382 | 2.0 | 16.601 | 2 | 43.719 | 16.771 | 34.163 | 2 |
| 2025-09-08T15:25:00 | 57.124541 | 7.893134 | 2.0 | 16.632 | 2 | 43.712 | 16.768 | 34.159 | 2 |
| 2025-09-08T15:26:00 | 57.123872 | 7.893872 | 2.0 | 16.626 | 2 | 43.723 | 16.791 | 34.149 | 2 |
| 2025-09-08T15:27:00 | 57.123198 | 7.894653 | 2.0 | 16.647 | 2 | 43.724 | 16.794 | 34.148 | 2 |
| 2025-09-08T15:28:00 | 57.122516 | 7.895448 | 2.0 | 16.621 | 2 | 43.727 | 16.806 | 34.140 | 2 |
| 2025-09-08T15:29:00 | 57.121856 | 7.896236 | 2.0 | 16.575 | 2 | 43.694 | 16.770 | 34.142 | 2 |
| 2025-09-08T15:30:00 | 57.121183 | 7.897020 | 2.0 | 16.603 | 2 | 43.669 | 16.755 | 34.133 | 2 |
| 2025-09-08T15:31:00 | 57.120490 | 7.897817 | 2.0 | 16.559 | 2 | 43.665 | 16.754 | 34.130 | 2 |
| 2025-09-08T15:32:00 | 57.119792 | 7.898617 | 2.0 | 16.577 | 2 | 43.644 | 16.726 | 34.136 | 2 |
| 2025-09-08T15:33:00 | 57.119068 | 7.899409 | 2.0 | 16.583 | 2 | 43.645 | 16.743 | 34.122 | 2 |
| 2025-09-08T15:34:00 | 57.118447 | 7.900193 | 2.0 | 16.572 | 2 | 43.630 | 16.742 | 34.110 | 2 |
| 2025-09-08T15:35:00 | 57.117897 | 7.900818 | 2.0 | 16.524 | 2 | 43.616 | 16.729 | 34.109 | 2 |
| 2025-09-08T15:36:00 | 57.117431 | 7.901388 | 2.0 | 16.541 | 2 | 43.588 | 16.688 | 34.119 | 2 |
| 2025-09-08T15:37:00 | 57.116988 | 7.901983 | 2.0 | 16.536 | 2 | 43.565 | 16.702 | 34.087 | 2 |
| 2025-09-08T15:38:00 | 57.116587 | 7.902610 | 2.0 | 16.518 | 2 | 43.527 | 16.693 | 34.061 | 2 |
| 2025-09-08T15:39:00 | 57.116122 | 7.903205 | 2.0 | 16.508 | 2 | 43.518 | 16.681 | 34.064 | 2 |
| 2025-09-08T15:40:00 | 57.115612 | 7.903869 | 2.0 | 16.507 | 2 | 43.508 | 16.671 | 34.063 | 2 |
| 2025-09-08T15:41:00 | 57.115048 | 7.904591 | 2.0 | 16.495 | 2 | 43.506 | 16.677 | 34.057 | 2 |
| 2025-09-08T15:42:00 | 57.114455 | 7.905309 | 2.0 | 16.504 | 2 | 43.497 | 16.660 | 34.063 | 2 |
| 2025-09-08T15:43:00 | 57.113852 | 7.906033 | 2.0 | 16.497 | 2 | 43.491 | 16.666 | 34.053 | 2 |
| 2025-09-08T15:44:00 | 57.113260 | 7.906763 | 2.0 | 16.499 | 2 | 43.477 | 16.658 | 34.047 | 2 |
| 2025-09-08T15:45:00 | 57.112675 | 7.907472 | 2.0 | 16.464 | 2 | 43.468 | 16.660 | 34.038 | 2 |
| 2025-09-08T15:46:00 | 57.112129 | 7.908150 | 2.0 | 16.466 | 2 | 43.443 | 16.632 | 34.040 | 2 |
| 2025-09-08T15:47:00 | 57.111602 | 7.908802 | 2.0 | 16.481 | 2 | 43.435 | 16.631 | 34.034 | 2 |
| 2025-09-08T15:48:00 | 57.111072 | 7.909454 | 2.0 | 16.474 | 2 | 43.440 | 16.643 | 34.028 | 2 |
| 2025-09-08T15:49:00 | 57.110539 | 7.910090 | 2.0 | 16.461 | 2 | 43.436 | 16.637 | 34.029 | 2 |
| 2025-09-08T15:50:00 | 57.109982 | 7.910737 | 2.0 | 16.461 | 2 | 43.425 | 16.623 | 34.032 | 2 |
| 2025-09-08T15:51:00 | 57.109404 | 7.911399 | 2.0 | 16.452 | 2 | 43.426 | 16.624 | 34.032 | 2 |
| 2025-09-08T15:52:00 | 57.108821 | 7.912048 | 2.0 | 16.441 | 2 | 43.422 | 16.617 | 34.034 | 2 |
| 2025-09-08T15:53:00 | 57.108238 | 7.912698 | 2.0 | 16.454 | 2 | 43.411 | 16.602 | 34.037 | 2 |
| 2025-09-08T15:54:00 | 57.107679 | 7.913312 | 2.0 | 16.443 | 2 | 43.410 | 16.614 | 34.026 | 2 |
| 2025-09-08T15:55:00 | 57.107117 | 7.913889 | 2.0 | 16.453 | 2 | 43.399 | 16.600 | 34.028 | 2 |
| 2025-09-08T15:56:00 | 57.106565 | 7.914458 | 2.0 | 16.448 | 2 | 43.401 | 16.615 | 34.017 | 2 |
| 2025-09-08T15:57:00 | 57.106007 | 7.915026 | 2.0 | 16.472 | 2 | 43.398 | 16.619 | 34.011 | 2 |
| 2025-09-08T15:58:00 | 57.105483 | 7.915599 | 2.0 | 16.526 | 2 | 43.408 | 16.648 | 33.995 | 2 |
| 2025-09-08T15:59:00 | 57.104987 | 7.916108 | 2.0 | 16.518 | 2 | 43.424 | 16.682 | 33.981 | 2 |
| 2025-09-08T16:00:00 | 57.104469 | 7.916602 | 2.0 | 16.562 | 2 | 43.426 | 16.691 | 33.975 | 2 |
| 2025-09-08T16:01:00 | 57.103933 | 7.917130 | 2.0 | 16.609 | 2 | 43.443 | 16.735 | 33.952 | 2 |
| 2025-09-08T16:02:00 | 57.103466 | 7.917689 | 2.0 | 16.627 | 2 | 43.455 | 16.768 | 33.935 | 2 |
| 2025-09-08T16:03:00 | 57.103018 | 7.918190 | 2.0 | 16.616 | 2 | 43.458 | 16.781 | 33.926 | 2 |
| 2025-09-08T16:04:00 | 57.102604 | 7.918660 | 2.0 | 16.629 | 2 | 43.455 | 16.782 | 33.923 | 2 |
| 2025-09-08T16:05:00 | 57.102217 | 7.919082 | 2.0 | 16.632 | 2 | 43.455 | 16.788 | 33.918 | 2 |
| 2025-09-08T16:06:00 | 57.101833 | 7.919521 | 2.0 | 16.634 | 2 | 43.456 | 16.797 | 33.911 | 2 |
| 2025-09-08T16:07:00 | 57.101383 | 7.919968 | 2.0 | 16.657 | 2 | 43.453 | 16.795 | 33.910 | 2 |
| 2025-09-08T16:08:00 | 57.100914 | 7.920448 | 2.0 | 16.675 | 2 | 43.465 | 16.824 | 33.896 | 2 |
| 2025-09-08T16:09:00 | 57.100426 | 7.920920 | 2.0 | 16.638 | 2 | 43.466 | 16.828 | 33.894 | 2 |
| 2025-09-08T16:10:00 | 57.099901 | 7.921409 | 2.0 | 16.634 | 2 | 43.446 | 16.798 | 33.902 | 2 |
| 2025-09-08T16:11:00 | 57.099373 | 7.921904 | 2.0 | 16.642 | 2 | 43.435 | 16.802 | 33.889 | 2 |
| 2025-09-08T16:12:00 | 57.098824 | 7.922398 | 2.0 | 16.625 | 2 | 43.426 | 16.801 | 33.882 | 2 |
| 2025-09-08T16:13:00 | 57.098268 | 7.922936 | 2.0 | 16.647 | 2 | 43.421 | 16.806 | 33.873 | 2 |
| 2025-09-08T16:14:00 | 57.097685 | 7.923488 | 2.0 | 16.582 | 2 | 43.412 | 16.793 | 33.876 | 2 |
| 2025-09-08T16:15:00 | 57.097075 | 7.924020 | 2.0 | 16.596 | 2 | 43.382 | 16.750 | 33.886 | 2 |
| 2025-09-08T16:16:00 | 57.096478 | 7.924571 | 2.0 | 16.587 | 2 | 43.383 | 16.758 | 33.880 | 2 |
| 2025-09-08T16:17:00 | 57.095881 | 7.925118 | 2.0 | 16.623 | 2 | 43.376 | 16.748 | 33.883 | 2 |
| 2025-09-08T16:18:00 | 57.095298 | 7.925687 | 2.0 | 16.653 | 2 | 43.402 | 16.800 | 33.861 | 2 |
| 2025-09-08T16:19:00 | 57.094708 | 7.926259 | 2.0 | 16.657 | 2 | 43.411 | 16.815 | 33.857 | 2 |
| 2025-09-08T16:20:00 | 57.094130 | 7.926843 | 2.0 | 16.628 | 2 | 43.411 | 16.816 | 33.856 | 2 |
| 2025-09-08T16:21:00 | 57.093526 | 7.927412 | 2.0 | 16.632 | 2 | 43.390 | 16.790 | 33.859 | 2 |
| 2025-09-08T16:22:00 | 57.092895 | 7.927988 | 2.0 | 16.633 | 2 | 43.388 | 16.792 | 33.856 | 2 |
| 2025-09-08T16:23:00 | 57.092340 | 7.928553 | 2.0 | 16.643 | 2 | 43.387 | 16.797 | 33.851 | 2 |
| 2025-09-08T16:24:00 | 57.091875 | 7.929090 | 2.0 | 16.620 | 2 | 43.384 | 16.801 | 33.845 | 2 |
| 2025-09-08T16:25:00 | 57.091549 | 7.929542 | 2.0 | 16.602 | 2 | 43.367 | 16.780 | 33.848 | 2 |
| 2025-09-08T16:26:00 | 57.091299 | 7.929875 | 2.0 | 16.575 | 2 | 43.353 | 16.762 | 33.851 | 2 |
| 2025-09-08T16:27:00 | 57.091126 | 7.930139 | 2.0 | 16.571 | 2 | 43.331 | 16.740 | 33.850 | 2 |
| 2025-09-08T16:28:00 | 57.090973 | 7.930341 | 2.0 | 16.564 | 2 | 43.325 | 16.733 | 33.851 | 2 |
| 2025-09-08T16:29:00 | 57.090807 | 7.930540 | 2.0 | 16.562 | 2 | 43.319 | 16.727 | 33.851 | 2 |
| 2025-09-08T16:30:00 | 57.090660 | 7.930764 | 2.0 | 16.564 | 2 | 43.319 | 16.725 | 33.852 | 2 |
| 2025-09-08T16:31:00 | 57.090505 | 7.930969 | 2.0 | 16.567 | 2 | 43.320 | 16.727 | 33.851 | 2 |
| 2025-09-08T16:32:00 | 57.090316 | 7.931203 | 2.0 | 16.582 | 2 | 43.319 | 16.732 | 33.846 | 2 |
| 2025-09-08T16:33:00 | 57.090076 | 7.931496 | 2.0 | 16.577 | 2 | 43.321 | 16.746 | 33.836 | 2 |
| 2025-09-08T16:34:00 | 57.089787 | 7.931835 | 2.0 | 16.579 | 2 | 43.318 | 16.739 | 33.840 | 2 |
| 2025-09-08T16:35:00 | 57.089480 | 7.932228 | 2.0 | 16.596 | 2 | 43.315 | 16.747 | 33.830 | 2 |
| 2025-09-08T16:36:00 | 57.089189 | 7.932614 | 2.0 | 16.651 | 2 | 43.313 | 16.759 | 33.818 | 2 |
| 2025-09-08T16:37:00 | 57.088937 | 7.932996 | 2.0 | 16.768 | 2 | 43.342 | 16.830 | 33.784 | 2 |
| 2025-09-08T16:38:00 | 57.088742 | 7.933369 | 2.0 | 16.754 | 2 | 43.404 | 16.920 | 33.762 | 2 |
| 2025-09-08T16:39:00 | 57.088594 | 7.933731 | 2.0 | 16.817 | 2 | 43.405 | 16.916 | 33.766 | 2 |
| 2025-09-08T16:40:00 | 57.088460 | 7.934052 | 2.0 | 16.969 | 2 | 43.437 | 16.991 | 33.731 | 2 |
| 2025-09-08T16:41:00 | 57.088339 | 7.934433 | 2.0 | 16.980 | 2 | 43.484 | 17.121 | 33.663 | 2 |
| 2025-09-08T16:42:00 | 57.088220 | 7.934821 | 2.0 | 16.991 | 2 | 43.491 | 17.136 | 33.657 | 2 |
| 2025-09-08T16:43:00 | 57.088115 | 7.935201 | 2.0 | 16.987 | 2 | 43.488 | 17.146 | 33.646 | 2 |
| 2025-09-08T16:44:00 | 57.087989 | 7.935519 | 2.0 | 16.972 | 2 | 43.478 | 17.140 | 33.642 | 2 |
| 2025-09-08T16:45:00 | 57.087865 | 7.935869 | 2.0 | 16.959 | 2 | 43.470 | 17.127 | 33.646 | 2 |
| 2025-09-08T16:46:00 | 57.087749 | 7.936207 | 2.0 | 16.963 | 2 | 43.462 | 17.121 | 33.644 | 2 |
| 2025-09-08T16:47:00 | 57.087621 | 7.936547 | 2.0 | 16.955 | 2 | 43.458 | 17.120 | 33.642 | 2 |
| 2025-09-08T16:48:00 | 57.087496 | 7.936909 | 2.0 | 16.960 | 2 | 43.448 | 17.116 | 33.636 | 2 |
| 2025-09-08T16:49:00 | 57.087370 | 7.937290 | 2.0 | 16.965 | 2 | 43.443 | 17.121 | 33.628 | 2 |
| 2025-09-08T16:50:00 | 57.087185 | 7.937707 | 2.0 | 16.958 | 2 | 43.443 | 17.123 | 33.626 | 2 |
| 2025-09-08T16:51:00 | 57.086955 | 7.938179 | 2.0 | 16.945 | 2 | 43.440 | 17.116 | 33.629 | 2 |
| 2025-09-08T16:52:00 | 57.086708 | 7.938694 | 2.0 | 16.937 | 2 | 43.434 | 17.104 | 33.634 | 2 |
| 2025-09-08T16:53:00 | 57.086438 | 7.939229 | 2.0 | 16.923 | 2 | 43.428 | 17.095 | 33.636 | 2 |
| 2025-09-08T16:54:00 | 57.086179 | 7.939767 | 2.0 | 16.914 | 2 | 43.422 | 17.083 | 33.641 | 2 |
| 2025-09-08T16:55:00 | 57.085917 | 7.940252 | 2.0 | 16.898 | 2 | 43.414 | 17.073 | 33.643 | 2 |
| 2025-09-08T16:56:00 | 57.085604 | 7.940647 | 2.0 | 16.874 | 2 | 43.404 | 17.056 | 33.648 | 2 |
| 2025-09-08T16:57:00 | 57.085278 | 7.941012 | 2.0 | 16.862 | 2 | 43.393 | 17.034 | 33.657 | 2 |
| 2025-09-08T16:58:00 | 57.084975 | 7.941326 | 2.0 | 16.854 | 2 | 43.381 | 17.020 | 33.658 | 2 |
| 2025-09-08T16:59:00 | 57.084643 | 7.941636 | 2.0 | 16.873 | 2 | 43.371 | 17.017 | 33.652 | 2 |
| 2025-09-08T17:00:00 | 57.084265 | 7.941958 | 2.0 | 16.892 | 2 | 43.374 | 17.040 | 33.636 | 2 |
| 2025-09-08T17:01:00 | 57.083869 | 7.942313 | 2.0 | 16.891 | 2 | 43.378 | 17.046 | 33.634 | 2 |
| 2025-09-08T17:02:00 | 57.083483 | 7.942681 | 2.0 | 16.954 | 2 | 43.385 | 17.066 | 33.623 | 2 |
| 2025-09-08T17:03:00 | 57.083093 | 7.943083 | 2.0 | 16.990 | 2 | 43.419 | 17.121 | 33.607 | 2 |
| 2025-09-08T17:04:00 | 57.082718 | 7.943484 | 2.0 | 16.978 | 2 | 43.435 | 17.140 | 33.605 | 2 |
| 2025-09-08T17:05:00 | 57.082347 | 7.943890 | 2.0 | 16.963 | 2 | 43.431 | 17.133 | 33.607 | 2 |
| 2025-09-08T17:06:00 | 57.081980 | 7.944297 | 2.0 | 16.987 | 2 | 43.423 | 17.123 | 33.609 | 2 |
| 2025-09-08T17:07:00 | 57.081615 | 7.944687 | 2.0 | 17.021 | 2 | 43.432 | 17.147 | 33.597 | 2 |
| 2025-09-08T17:08:00 | 57.081252 | 7.945066 | 2.0 | 17.025 | 2 | 43.451 | 17.179 | 33.586 | 2 |
| 2025-09-08T17:09:00 | 57.080914 | 7.945458 | 2.0 | 17.024 | 2 | 43.456 | 17.183 | 33.587 | 2 |
| 2025-09-08T17:10:00 | 57.080569 | 7.945825 | 2.0 | 17.013 | 2 | 43.456 | 17.183 | 33.587 | 2 |
| 2025-09-08T17:11:00 | 57.080211 | 7.946212 | 2.0 | 16.991 | 2 | 43.450 | 17.171 | 33.592 | 2 |
| 2025-09-08T17:12:00 | 57.079870 | 7.946588 | 2.0 | 16.981 | 2 | 43.433 | 17.151 | 33.594 | 2 |
| 2025-09-08T17:13:00 | 57.079503 | 7.946933 | 2.0 | 16.965 | 2 | 43.422 | 17.139 | 33.595 | 2 |
| 2025-09-08T17:14:00 | 57.079176 | 7.947301 | 2.0 | 16.954 | 2 | 43.416 | 17.126 | 33.600 | 2 |
| 2025-09-08T17:15:00 | 57.078861 | 7.947645 | 2.0 | 16.978 | 2 | 43.410 | 17.111 | 33.607 | 2 |
| 2025-09-08T17:16:00 | 57.078545 | 7.947954 | 2.0 | 17.003 | 2 | 43.431 | 17.147 | 33.596 | 2 |
| 2025-09-08T17:17:00 | 57.078192 | 7.948273 | 2.0 | 17.019 | 2 | 43.444 | 17.161 | 33.595 | 2 |
| 2025-09-08T17:18:00 | 57.077846 | 7.948615 | 2.0 | 17.036 | 2 | 43.458 | 17.183 | 33.589 | 2 |
| 2025-09-08T17:19:00 | 57.077509 | 7.948984 | 2.0 | 17.069 | 2 | 43.466 | 17.196 | 33.585 | 2 |
| 2025-09-08T17:20:00 | 57.077172 | 7.949386 | 2.0 | 17.131 | 2 | 43.481 | 17.247 | 33.556 | 2 |
| 2025-09-08T17:21:00 | 57.076824 | 7.949818 | 2.0 | 17.101 | 2 | 43.500 | 17.282 | 33.543 | 2 |
| 2025-09-08T17:22:00 | 57.076463 | 7.950248 | 2.0 | 17.124 | 2 | 43.479 | 17.264 | 33.540 | 2 |
| 2025-09-08T17:23:00 | 57.076114 | 7.950703 | 2.0 | 17.104 | 2 | 43.489 | 17.277 | 33.538 | 2 |
| 2025-09-08T17:24:00 | 57.075790 | 7.951128 | 2.0 | 17.114 | 2 | 43.483 | 17.263 | 33.544 | 2 |
| 2025-09-08T17:25:00 | 57.075449 | 7.951538 | 2.0 | 17.106 | 2 | 43.484 | 17.271 | 33.538 | 2 |
| 2025-09-08T17:26:00 | 57.075100 | 7.951927 | 2.0 | 17.107 | 2 | 43.480 | 17.266 | 33.539 | 2 |
| 2025-09-08T17:27:00 | 57.074725 | 7.952277 | 2.0 | 17.112 | 2 | 43.477 | 17.264 | 33.538 | 2 |
| 2025-09-08T17:28:00 | 57.074326 | 7.952670 | 2.0 | 17.134 | 2 | 43.480 | 17.281 | 33.527 | 2 |
| 2025-09-08T17:29:00 | 57.073942 | 7.953096 | 2.0 | 17.158 | 2 | 43.490 | 17.299 | 33.520 | 2 |
| 2025-09-08T17:30:00 | 57.073568 | 7.953538 | 2.0 | 17.159 | 2 | 43.496 | 17.315 | 33.512 | 2 |
| 2025-09-08T17:31:00 | 57.073199 | 7.953982 | 2.0 | 17.151 | 2 | 43.495 | 17.317 | 33.510 | 2 |
| 2025-09-08T17:32:00 | 57.072832 | 7.954401 | 2.0 | 17.158 | 2 | 43.491 | 17.311 | 33.511 | 2 |
| 2025-09-08T17:33:00 | 57.072493 | 7.954842 | 2.0 | 17.142 | 2 | 43.490 | 17.316 | 33.506 | 2 |
| 2025-09-08T17:34:00 | 57.072154 | 7.955231 | 2.0 | 17.161 | 2 | 43.482 | 17.299 | 33.513 | 2 |
| 2025-09-08T17:35:00 | 57.071797 | 7.955611 | 2.0 | 17.170 | 2 | 43.484 | 17.324 | 33.494 | 2 |
| 2025-09-08T17:36:00 | 57.071448 | 7.956016 | 2.0 | 17.162 | 2 | 43.488 | 17.329 | 33.494 | 2 |
| 2025-09-08T17:37:00 | 57.071107 | 7.956437 | 2.0 | 17.145 | 2 | 43.485 | 17.317 | 33.501 | 2 |
| 2025-09-08T17:38:00 | 57.070772 | 7.956816 | 2.0 | 17.149 | 2 | 43.475 | 17.304 | 33.503 | 2 |
| 2025-09-08T17:39:00 | 57.070470 | 7.957207 | 2.0 | 17.156 | 2 | 43.474 | 17.309 | 33.498 | 2 |
| 2025-09-08T17:40:00 | 57.070154 | 7.957581 | 2.0 | 17.204 | 2 | 43.479 | 17.326 | 33.488 | 2 |
| 2025-09-08T17:41:00 | 57.069812 | 7.957967 | 2.0 | 17.230 | 2 | 43.496 | 17.365 | 33.471 | 2 |
| 2025-09-08T17:42:00 | 57.069461 | 7.958373 | 2.0 | 17.177 | 2 | 43.505 | 17.374 | 33.471 | 2 |
| 2025-09-08T17:43:00 | 57.069085 | 7.958771 | 2.0 | 17.189 | 2 | 43.488 | 17.341 | 33.484 | 2 |
| 2025-09-08T17:44:00 | 57.068690 | 7.959174 | 2.0 | 17.187 | 2 | 43.488 | 17.351 | 33.475 | 2 |
| 2025-09-08T17:45:00 | 57.068294 | 7.959579 | 2.0 | 17.134 | 2 | 43.481 | 17.341 | 33.478 | 2 |
| 2025-09-08T17:46:00 | 57.067914 | 7.959949 | 2.0 | 17.135 | 2 | 43.458 | 17.293 | 33.498 | 2 |
| 2025-09-08T17:47:00 | 57.067535 | 7.960328 | 2.0 | 17.123 | 2 | 43.456 | 17.304 | 33.487 | 2 |
| 2025-09-08T17:48:00 | 57.067137 | 7.960655 | 2.0 | 17.112 | 2 | 43.422 | 17.248 | 33.504 | 2 |
| 2025-09-08T17:49:00 | 57.066749 | 7.960990 | 2.0 | 17.340 | 2 | 43.437 | 17.310 | 33.465 | 2 |
| 2025-09-08T17:50:00 | 57.066376 | 7.961340 | 2.0 | 17.277 | 2 | 43.525 | 17.467 | 33.411 | 2 |
| 2025-09-08T17:51:00 | 57.066012 | 7.961646 | 2.0 | 17.261 | 2 | 43.507 | 17.417 | 33.437 | 2 |
| 2025-09-08T17:52:00 | 57.065663 | 7.961960 | 2.0 | 17.370 | 2 | 43.506 | 17.426 | 33.429 | 2 |
| 2025-09-08T17:53:00 | 57.065300 | 7.962313 | 2.0 | 17.395 | 2 | 43.549 | 17.523 | 33.386 | 2 |
| 2025-09-08T17:54:00 | 57.064942 | 7.962661 | 2.0 | 17.405 | 2 | 43.567 | 17.554 | 33.376 | 2 |
| 2025-09-08T17:55:00 | 57.064558 | 7.963005 | 2.0 | 17.413 | 2 | 43.570 | 17.562 | 33.372 | 2 |
| 2025-09-08T17:56:00 | 57.064181 | 7.963355 | 2.0 | 17.407 | 2 | 43.571 | 17.566 | 33.369 | 2 |
| 2025-09-08T17:57:00 | 57.063774 | 7.963715 | 2.0 | 17.406 | 2 | 43.569 | 17.563 | 33.370 | 2 |
| 2025-09-08T17:58:00 | 57.063352 | 7.964104 | 2.0 | 17.411 | 2 | 43.566 | 17.565 | 33.366 | 2 |
| 2025-09-08T17:59:00 | 57.062928 | 7.964498 | 2.0 | 17.422 | 2 | 43.566 | 17.572 | 33.360 | 2 |
| 2025-09-08T18:00:00 | 57.062549 | 7.964884 | 2.0 | 17.428 | 2 | 43.568 | 17.581 | 33.355 | 2 |
| 2025-09-08T18:01:00 | 57.062193 | 7.965258 | 2.0 | 17.439 | 2 | 43.569 | 17.588 | 33.350 | 2 |
| 2025-09-08T18:02:00 | 57.061860 | 7.965605 | 2.0 | 17.449 | 2 | 43.569 | 17.599 | 33.341 | 2 |
| 2025-09-08T18:03:00 | 57.061534 | 7.965948 | 2.0 | 17.454 | 2 | 43.570 | 17.608 | 33.334 | 2 |
| 2025-09-08T18:04:00 | 57.061239 | 7.966297 | 2.0 | 17.459 | 2 | 43.571 | 17.614 | 33.330 | 2 |
| 2025-09-08T18:05:00 | 57.060949 | 7.966616 | 2.0 | 17.475 | 2 | 43.573 | 17.621 | 33.326 | 2 |
| 2025-09-08T18:06:00 | 57.060678 | 7.966952 | 2.0 | 17.482 | 2 | 43.584 | 17.634 | 33.325 | 2 |
| 2025-09-08T18:07:00 | 57.060406 | 7.967270 | 2.0 | 17.484 | 2 | 43.591 | 17.641 | 33.325 | 2 |
| 2025-09-08T18:08:00 | 57.060119 | 7.967592 | 2.0 | 17.485 | 2 | 43.591 | 17.642 | 33.324 | 2 |
| 2025-09-08T18:09:00 | 57.059823 | 7.967916 | 2.0 | 17.486 | 2 | 43.592 | 17.644 | 33.323 | 2 |
| 2025-09-08T18:10:00 | 57.059523 | 7.968246 | 2.0 | 17.477 | 2 | 43.592 | 17.644 | 33.323 | 2 |
| 2025-09-08T18:11:00 | 57.059223 | 7.968572 | 2.0 | 17.459 | 2 | 43.584 | 17.633 | 33.326 | 2 |
| 2025-09-08T18:12:00 | 57.058923 | 7.968904 | 2.0 | 17.452 | 2 | 43.567 | 17.616 | 33.325 | 2 |
| 2025-09-08T18:13:00 | 57.058619 | 7.969232 | 2.0 | 17.442 | 2 | 43.557 | 17.611 | 33.320 | 2 |
| 2025-09-08T18:14:00 | 57.058300 | 7.969567 | 2.0 | 17.436 | 2 | 43.547 | 17.601 | 33.320 | 2 |
| 2025-09-08T18:15:00 | 57.057972 | 7.969895 | 2.0 | 17.432 | 2 | 43.538 | 17.594 | 33.318 | 2 |
| 2025-09-08T18:16:00 | 57.057627 | 7.970250 | 2.0 | 17.429 | 2 | 43.535 | 17.591 | 33.318 | 2 |
| 2025-09-08T18:17:00 | 57.057277 | 7.970612 | 2.0 | 17.426 | 2 | 43.531 | 17.588 | 33.317 | 2 |
| 2025-09-08T18:18:00 | 57.056926 | 7.970984 | 2.0 | 17.425 | 2 | 43.527 | 17.585 | 33.316 | 2 |
| 2025-09-08T18:19:00 | 57.056578 | 7.971346 | 2.0 | 17.422 | 2 | 43.527 | 17.584 | 33.317 | 2 |
| 2025-09-08T18:20:00 | 57.056227 | 7.971712 | 2.0 | 17.419 | 2 | 43.523 | 17.581 | 33.316 | 2 |
| 2025-09-08T18:21:00 | 57.055871 | 7.972078 | 2.0 | 17.414 | 2 | 43.517 | 17.578 | 33.313 | 2 |
| 2025-09-08T18:22:00 | 57.055509 | 7.972443 | 2.0 | 17.413 | 2 | 43.515 | 17.573 | 33.316 | 2 |
| 2025-09-08T18:23:00 | 57.055131 | 7.972824 | 2.0 | 17.413 | 2 | 43.516 | 17.573 | 33.317 | 2 |
| 2025-09-08T18:24:00 | 57.054767 | 7.973210 | 2.0 | 17.412 | 2 | 43.509 | 17.572 | 33.311 | 2 |
| 2025-09-08T18:25:00 | 57.054397 | 7.973594 | 2.0 | 17.409 | 2 | 43.507 | 17.572 | 33.310 | 2 |
| 2025-09-08T18:26:00 | 57.054024 | 7.973981 | 2.0 | 17.406 | 2 | 43.503 | 17.568 | 33.310 | 2 |
| 2025-09-08T18:27:00 | 57.053650 | 7.974375 | 2.0 | 17.404 | 2 | 43.501 | 17.565 | 33.310 | 2 |
| 2025-09-08T18:28:00 | 57.053290 | 7.974761 | 2.0 | 17.394 | 2 | 43.498 | 17.563 | 33.309 | 2 |
| 2025-09-08T18:29:00 | 57.052939 | 7.975113 | 2.0 | 17.386 | 2 | 43.489 | 17.553 | 33.310 | 2 |
| 2025-09-08T18:30:00 | 57.052578 | 7.975465 | 2.0 | 17.381 | 2 | 43.479 | 17.545 | 33.308 | 2 |
| 2025-09-08T18:31:00 | 57.052218 | 7.975848 | 2.0 | 17.375 | 2 | 43.473 | 17.541 | 33.306 | 2 |
| 2025-09-08T18:32:00 | 57.051862 | 7.976204 | 2.0 | 17.371 | 2 | 43.467 | 17.533 | 33.307 | 2 |
| 2025-09-08T18:33:00 | 57.051511 | 7.976582 | 2.0 | 17.372 | 2 | 43.458 | 17.531 | 33.301 | 2 |
| 2025-09-08T18:34:00 | 57.051149 | 7.976973 | 2.0 | 17.371 | 2 | 43.459 | 17.533 | 33.301 | 2 |
| 2025-09-08T18:35:00 | 57.050773 | 7.977341 | 2.0 | 17.363 | 2 | 43.459 | 17.531 | 33.302 | 2 |
| 2025-09-08T18:36:00 | 57.050396 | 7.977704 | 2.0 | 17.357 | 2 | 43.453 | 17.522 | 33.304 | 2 |
| 2025-09-08T18:37:00 | 57.050010 | 7.978069 | 2.0 | 17.348 | 2 | 43.446 | 17.516 | 33.303 | 2 |
| 2025-09-08T18:38:00 | 57.049641 | 7.978429 | 2.0 | 17.336 | 2 | 43.438 | 17.507 | 33.304 | 2 |
| 2025-09-08T18:39:00 | 57.049278 | 7.978769 | 2.0 | 17.336 | 2 | 43.429 | 17.497 | 33.304 | 2 |
| 2025-09-08T18:40:00 | 57.048899 | 7.979097 | 2.0 | 17.339 | 2 | 43.427 | 17.497 | 33.303 | 2 |
| 2025-09-08T18:41:00 | 57.048517 | 7.979422 | 2.0 | 17.326 | 2 | 43.427 | 17.497 | 33.303 | 2 |
| 2025-09-08T18:42:00 | 57.048145 | 7.979722 | 2.0 | 17.330 | 2 | 43.419 | 17.488 | 33.303 | 2 |
| 2025-09-08T18:43:00 | 57.047778 | 7.980041 | 2.0 | 17.365 | 2 | 43.423 | 17.498 | 33.298 | 2 |
| 2025-09-08T18:44:00 | 57.047393 | 7.980371 | 2.0 | 17.366 | 2 | 43.444 | 17.522 | 33.297 | 2 |
| 2025-09-08T18:45:00 | 57.047026 | 7.980707 | 2.0 | 17.362 | 2 | 43.450 | 17.530 | 33.295 | 2 |
| 2025-09-08T18:46:00 | 57.046691 | 7.981037 | 2.0 | 17.337 | 2 | 43.439 | 17.514 | 33.299 | 2 |
| 2025-09-08T18:47:00 | 57.046343 | 7.981315 | 2.0 | 17.334 | 2 | 43.424 | 17.499 | 33.298 | 2 |
| 2025-09-08T18:48:00 | 57.045983 | 7.981616 | 2.0 | 17.348 | 2 | 43.418 | 17.491 | 33.300 | 2 |
| 2025-09-08T18:49:00 | 57.045636 | 7.981927 | 2.0 | 17.371 | 2 | 43.432 | 17.512 | 33.295 | 2 |
| 2025-09-08T18:50:00 | 57.045314 | 7.982187 | 2.0 | 17.386 | 2 | 43.449 | 17.532 | 33.293 | 2 |
| 2025-09-08T18:51:00 | 57.045096 | 7.982358 | 2.0 | 17.396 | 2 | 43.462 | 17.546 | 33.292 | 2 |
| 2025-09-08T18:52:00 | 57.044989 | 7.982441 | 2.0 | 17.398 | 2 | 43.469 | 17.554 | 33.292 | 2 |
| 2025-09-08T18:53:00 | 57.044951 | 7.982433 | 2.0 | 17.397 | 2 | 43.471 | 17.557 | 33.291 | 2 |
| 2025-09-08T18:54:00 | 57.044980 | 7.982380 | 2.0 | 17.395 | 2 | 43.466 | 17.557 | 33.287 | 2 |
| 2025-09-08T18:55:00 | 57.045044 | 7.982316 | 2.0 | 17.392 | 2 | 43.466 | 17.554 | 33.289 | 2 |
| 2025-09-08T18:56:00 | 57.044654 | 7.981968 | 2.0 | 17.361 | 2 | 43.456 | 17.547 | 33.287 | 2 |
| 2025-09-08T18:57:00 | 57.043802 | 7.980242 | 2.0 | 17.348 | 2 | 43.428 | 17.519 | 33.286 | 2 |
| 2025-09-08T18:58:00 | 57.044697 | 7.977402 | 2.0 | 17.296 | 2 | 43.408 | 17.493 | 33.290 | 2 |
| 2025-09-08T18:59:00 | 57.045843 | 7.973404 | 2.0 | 17.341 | 2 | 43.391 | 17.466 | 33.297 | 2 |
| 2025-09-08T19:00:00 | 57.047059 | 7.971646 | 2.0 | 17.358 | 2 | 43.441 | 17.505 | 33.308 | 2 |
| 2025-09-08T19:01:00 | 57.047715 | 7.972292 | 2.0 | 17.357 | 2 | 43.467 | 17.516 | 33.321 | 2 |
| 2025-09-08T19:02:00 | 57.048092 | 7.972829 | 2.0 | 17.363 | 2 | 43.470 | 17.517 | 33.323 | 2 |
| 2025-09-08T19:03:00 | 57.048373 | 7.973126 | 2.0 | 17.365 | 2 | 43.472 | 17.522 | 33.321 | 2 |
| 2025-09-08T19:04:00 | 57.048606 | 7.973324 | 2.0 | 17.365 | 2 | 43.473 | 17.523 | 33.321 | 2 |
| 2025-09-08T19:05:00 | 57.048760 | 7.973401 | 2.0 | 17.363 | 2 | 43.472 | 17.524 | 33.319 | 2 |
| 2025-09-08T19:06:00 | 57.048859 | 7.973457 | 2.0 | 17.360 | 2 | 43.472 | 17.521 | 33.322 | 2 |
| 2025-09-08T19:07:00 | 57.048933 | 7.973582 | 2.0 | 17.360 | 2 | 43.471 | 17.520 | 33.322 | 2 |
| 2025-09-08T19:08:00 | 57.048974 | 7.973774 | 2.0 | 17.357 | 2 | 43.469 | 17.519 | 33.321 | 2 |
| 2025-09-08T19:09:00 | 57.048991 | 7.973998 | 2.0 | 17.356 | 2 | 43.466 | 17.517 | 33.320 | 2 |
| 2025-09-08T19:10:00 | 57.049049 | 7.974234 | 2.0 | 17.354 | 2 | 43.464 | 17.516 | 33.319 | 2 |
| 2025-09-08T19:11:00 | 57.049148 | 7.974359 | 2.0 | 17.350 | 2 | 43.461 | 17.514 | 33.318 | 2 |
| 2025-09-08T19:12:00 | 57.049257 | 7.974351 | 2.0 | 17.349 | 2 | 43.458 | 17.511 | 33.318 | 2 |
| 2025-09-08T19:13:00 | 57.049384 | 7.974268 | 2.0 | 17.346 | 2 | 43.457 | 17.509 | 33.319 | 2 |
| 2025-09-08T19:14:00 | 57.049550 | 7.974146 | 2.0 | 17.339 | 2 | 43.457 | 17.505 | 33.322 | 2 |
| 2025-09-08T19:15:00 | 57.049713 | 7.974007 | 2.0 | 17.325 | 2 | 43.458 | 17.499 | 33.328 | 2 |
| 2025-09-08T19:16:00 | 57.049883 | 7.973891 | 2.0 | 17.321 | 2 | 43.456 | 17.484 | 33.338 | 2 |
| 2025-09-08T19:17:00 | 57.050020 | 7.973879 | 2.0 | 17.318 | 2 | 43.455 | 17.481 | 33.340 | 2 |
| 2025-09-08T19:18:00 | 57.050041 | 7.974107 | 2.0 | 17.321 | 2 | 43.453 | 17.476 | 33.342 | 2 |
| 2025-09-08T19:19:00 | 57.049961 | 7.973553 | 2.0 | 17.344 | 2 | 43.452 | 17.487 | 33.332 | 2 |
| 2025-09-08T19:20:00 | 57.049703 | 7.971298 | 2.0 | 17.345 | 2 | 43.464 | 17.504 | 33.329 | 2 |
| 2025-09-08T19:21:00 | 57.049180 | 7.967681 | 2.0 | 17.367 | 2 | 43.476 | 17.507 | 33.337 | 2 |
| 2025-09-08T19:22:00 | 57.048764 | 7.963212 | 2.0 | 17.339 | 2 | 43.504 | 17.526 | 33.345 | 2 |
| 2025-09-08T19:23:00 | 57.048772 | 7.958353 | 2.0 | 17.314 | 2 | 43.506 | 17.499 | 33.369 | 2 |
| 2025-09-08T19:24:00 | 57.049180 | 7.953378 | 2.0 | 17.295 | 2 | 43.504 | 17.477 | 33.385 | 2 |
| 2025-09-08T19:25:00 | 57.049939 | 7.948451 | 2.0 | 17.241 | 2 | 43.480 | 17.452 | 33.385 | 2 |
| 2025-09-08T19:26:00 | 57.051186 | 7.943764 | 2.0 | 17.211 | 2 | 43.431 | 17.396 | 33.389 | 2 |
| 2025-09-08T19:27:00 | 57.052859 | 7.939457 | 2.0 | 17.193 | 2 | 43.411 | 17.378 | 33.387 | 2 |
| 2025-09-08T19:28:00 | 57.054787 | 7.935432 | 2.0 | 17.119 | 2 | 43.409 | 17.342 | 33.415 | 2 |
| 2025-09-08T19:29:00 | 57.057167 | 7.932179 | 2.0 | 17.104 | 2 | 43.395 | 17.279 | 33.455 | 2 |
| 2025-09-08T19:30:00 | 57.059793 | 7.929890 | 2.0 | 17.264 | 2 | 43.423 | 17.301 | 33.461 | 2 |
| 2025-09-08T19:31:00 | 57.062473 | 7.928229 | 2.0 | 17.296 | 2 | 43.484 | 17.429 | 33.408 | 2 |
| 2025-09-08T19:32:00 | 57.065233 | 7.927231 | 2.0 | 17.250 | 2 | 43.508 | 17.444 | 33.416 | 2 |
| 2025-09-08T19:33:00 | 57.068055 | 7.927293 | 2.0 | 17.186 | 2 | 43.503 | 17.401 | 33.447 | 2 |
| 2025-09-08T19:34:00 | 57.070826 | 7.928405 | 2.0 | 17.140 | 2 | 43.502 | 17.346 | 33.492 | 2 |
| 2025-09-08T19:35:00 | 57.073473 | 7.930250 | 2.0 | 17.107 | 2 | 43.499 | 17.294 | 33.532 | 2 |
| 2025-09-08T19:36:00 | 57.076009 | 7.932529 | 2.0 | 17.016 | 2 | 43.490 | 17.237 | 33.572 | 2 |
| 2025-09-08T19:37:00 | 57.078022 | 7.935997 | 2.0 | 17.043 | 2 | 43.476 | 17.186 | 33.602 | 2 |
| 2025-09-08T19:38:00 | 57.079780 | 7.939900 | 2.0 | 17.123 | 2 | 43.483 | 17.228 | 33.573 | 2 |
| 2025-09-08T19:39:00 | 57.081375 | 7.944043 | 2.0 | 17.145 | 2 | 43.502 | 17.292 | 33.536 | 2 |
| 2025-09-08T19:40:00 | 57.082509 | 7.948585 | 2.0 | 17.138 | 2 | 43.484 | 17.302 | 33.513 | 2 |
| 2025-09-08T19:41:00 | 57.083083 | 7.953508 | 2.0 | 17.157 | 2 | 43.458 | 17.313 | 33.481 | 2 |
| 2025-09-08T19:42:00 | 57.083151 | 7.958527 | 2.0 | 17.091 | 2 | 43.449 | 17.297 | 33.487 | 2 |
| 2025-09-08T19:43:00 | 57.082679 | 7.963377 | 2.0 | 17.147 | 2 | 43.435 | 17.265 | 33.501 | 2 |
| 2025-09-08T19:44:00 | 57.082097 | 7.968268 | 2.0 | 17.184 | 2 | 43.448 | 17.313 | 33.472 | 2 |
| 2025-09-08T19:45:00 | 57.081018 | 7.972816 | 2.0 | 17.141 | 2 | 43.462 | 17.336 | 33.465 | 2 |
| 2025-09-08T19:46:00 | 57.079719 | 7.976352 | 2.0 | 17.204 | 2 | 43.440 | 17.318 | 33.461 | 2 |
| 2025-09-08T19:47:00 | 57.078622 | 7.979024 | 2.0 | 17.286 | 2 | 43.457 | 17.376 | 33.428 | 2 |
| 2025-09-08T19:48:00 | 57.077816 | 7.980881 | 2.0 | 17.312 | 2 | 43.483 | 17.445 | 33.394 | 2 |
| 2025-09-08T19:49:00 | 57.077157 | 7.982100 | 2.0 | 17.336 | 2 | 43.495 | 17.475 | 33.379 | 2 |
| 2025-09-08T19:50:00 | 57.076544 | 7.982741 | 2.0 | 17.340 | 2 | 43.503 | 17.495 | 33.370 | 2 |
| 2025-09-08T19:51:00 | 57.075683 | 7.983089 | 2.0 | 17.349 | 2 | 43.504 | 17.497 | 33.369 | 2 |
| 2025-09-08T19:52:00 | 57.074277 | 7.983534 | 2.0 | 17.345 | 2 | 43.507 | 17.506 | 33.364 | 2 |
| 2025-09-08T19:53:00 | 57.072570 | 7.984079 | 2.0 | 17.371 | 2 | 43.508 | 17.511 | 33.361 | 2 |
| 2025-09-08T19:54:00 | 57.070732 | 7.984611 | 2.0 | 17.374 | 2 | 43.512 | 17.531 | 33.348 | 2 |
| 2025-09-08T19:55:00 | 57.068859 | 7.984903 | 2.0 | 17.373 | 2 | 43.511 | 17.534 | 33.344 | 2 |
| 2025-09-08T19:56:00 | 57.066941 | 7.984952 | 2.0 | 17.368 | 2 | 43.507 | 17.532 | 33.343 | 2 |
| 2025-09-08T19:57:00 | 57.064980 | 7.984946 | 2.0 | 17.364 | 2 | 43.501 | 17.528 | 33.341 | 2 |
| 2025-09-08T19:58:00 | 57.063013 | 7.984701 | 2.0 | 17.356 | 2 | 43.490 | 17.525 | 33.334 | 2 |
| 2025-09-08T19:59:00 | 57.061058 | 7.984234 | 2.0 | 17.323 | 2 | 43.475 | 17.512 | 33.332 | 2 |
| 2025-09-08T20:00:00 | 57.059113 | 7.983465 | 2.0 | 17.299 | 2 | 43.448 | 17.483 | 33.332 | 2 |
| 2025-09-08T20:01:00 | 57.057268 | 7.982475 | 2.0 | 17.271 | 2 | 43.426 | 17.460 | 33.332 | 2 |
| 2025-09-08T20:02:00 | 57.055577 | 7.981255 | 2.0 | 17.246 | 2 | 43.392 | 17.428 | 33.329 | 2 |
| 2025-09-08T20:03:00 | 57.053953 | 7.979503 | 2.0 | 17.249 | 2 | 43.368 | 17.409 | 33.324 | 2 |
| 2025-09-08T20:04:00 | 57.053587 | 7.976807 | 2.0 | 17.319 | 2 | 43.368 | 17.418 | 33.317 | 2 |
| 2025-09-08T20:05:00 | 57.055155 | 7.975129 | 2.0 | 17.342 | 2 | 43.439 | 17.481 | 33.326 | 2 |
| 2025-09-08T20:06:00 | 57.057001 | 7.973317 | 2.0 | 17.328 | 2 | 43.472 | 17.499 | 33.340 | 2 |
| 2025-09-08T20:07:00 | 57.058913 | 7.971354 | 2.0 | 17.318 | 2 | 43.481 | 17.490 | 33.355 | 2 |
| 2025-09-08T20:08:00 | 57.060838 | 7.969277 | 2.0 | 17.307 | 2 | 43.489 | 17.477 | 33.372 | 2 |
| 2025-09-08T20:09:00 | 57.062776 | 7.967204 | 2.0 | 17.292 | 2 | 43.496 | 17.467 | 33.387 | 2 |
| 2025-09-08T20:10:00 | 57.064706 | 7.965116 | 2.0 | 17.275 | 2 | 43.491 | 17.451 | 33.395 | 2 |
| 2025-09-08T20:11:00 | 57.066639 | 7.963036 | 2.0 | 17.253 | 2 | 43.483 | 17.435 | 33.402 | 2 |
| 2025-09-08T20:12:00 | 57.068573 | 7.960959 | 2.0 | 17.176 | 2 | 43.463 | 17.404 | 33.410 | 2 |
| 2025-09-08T20:13:00 | 57.070521 | 7.958887 | 2.0 | 17.108 | 2 | 43.422 | 17.328 | 33.438 | 2 |
| 2025-09-08T20:14:00 | 57.072462 | 7.956812 | 2.0 | 17.105 | 2 | 43.397 | 17.273 | 33.462 | 2 |
| 2025-09-08T20:15:00 | 57.074401 | 7.954770 | 2.0 | 17.105 | 2 | 43.395 | 17.274 | 33.459 | 2 |
| 2025-09-08T20:16:00 | 57.076347 | 7.952753 | 2.0 | 17.081 | 2 | 43.393 | 17.261 | 33.468 | 2 |
| 2025-09-08T20:17:00 | 57.078298 | 7.950722 | 2.0 | 17.141 | 2 | 43.404 | 17.245 | 33.491 | 2 |
| 2025-09-08T20:18:00 | 57.080216 | 7.948573 | 2.0 | 17.223 | 2 | 43.454 | 17.325 | 33.468 | 2 |
| 2025-09-08T20:19:00 | 57.082144 | 7.946423 | 2.0 | 17.170 | 2 | 43.500 | 17.374 | 33.467 | 2 |
| 2025-09-08T20:20:00 | 57.084069 | 7.944273 | 2.0 | 17.081 | 2 | 43.501 | 17.319 | 33.513 | 2 |
| 2025-09-08T20:21:00 | 57.085962 | 7.942150 | 2.0 | 17.020 | 2 | 43.482 | 17.231 | 33.570 | 2 |
| 2025-09-08T20:22:00 | 57.087841 | 7.940036 | 2.0 | 16.903 | 2 | 43.462 | 17.171 | 33.602 | 2 |
| 2025-09-08T20:23:00 | 57.089702 | 7.937911 | 2.0 | 16.867 | 2 | 43.455 | 17.072 | 33.679 | 2 |
| 2025-09-08T20:24:00 | 57.091557 | 7.935811 | 2.0 | 16.851 | 2 | 43.462 | 17.033 | 33.718 | 2 |
| 2025-09-08T20:25:00 | 57.093411 | 7.933686 | 2.0 | 16.763 | 2 | 43.460 | 16.999 | 33.744 | 2 |
| 2025-09-08T20:26:00 | 57.095253 | 7.931554 | 2.0 | 16.731 | 2 | 43.448 | 16.933 | 33.789 | 2 |
| 2025-09-08T20:27:00 | 57.097060 | 7.929468 | 2.0 | 16.671 | 2 | 43.441 | 16.891 | 33.819 | 2 |
| 2025-09-08T20:28:00 | 57.098430 | 7.929001 | 2.0 | 16.644 | 2 | 43.413 | 16.832 | 33.844 | 2 |
| 2025-09-08T20:29:00 | 57.098905 | 7.929734 | 2.0 | 16.652 | 2 | 43.410 | 16.813 | 33.857 | 2 |
| 2025-09-08T20:30:00 | 57.099190 | 7.930238 | 2.0 | 16.661 | 2 | 43.413 | 16.818 | 33.856 | 2 |
| 2025-09-08T20:31:00 | 57.099425 | 7.930772 | 2.0 | 16.651 | 2 | 43.421 | 16.826 | 33.856 | 2 |
| 2025-09-08T20:32:00 | 57.099547 | 7.931362 | 2.0 | 16.660 | 2 | 43.414 | 16.816 | 33.858 | 2 |
| 2025-09-08T20:33:00 | 57.099629 | 7.931829 | 2.0 | 16.682 | 2 | 43.415 | 16.831 | 33.847 | 2 |
| 2025-09-08T20:34:00 | 57.099705 | 7.932218 | 2.0 | 16.683 | 2 | 43.420 | 16.845 | 33.839 | 2 |
| 2025-09-08T20:35:00 | 57.099826 | 7.932687 | 2.0 | 16.695 | 2 | 43.420 | 16.845 | 33.839 | 2 |
| 2025-09-08T20:36:00 | 57.099973 | 7.933225 | 2.0 | 16.708 | 2 | 43.422 | 16.864 | 33.825 | 2 |
| 2025-09-08T20:37:00 | 57.100086 | 7.933744 | 2.0 | 16.703 | 2 | 43.426 | 16.870 | 33.823 | 2 |
| 2025-09-08T20:38:00 | 57.100143 | 7.934170 | 2.0 | 16.704 | 2 | 43.425 | 16.864 | 33.828 | 2 |
| 2025-09-08T20:39:00 | 57.100114 | 7.934495 | 2.0 | 16.709 | 2 | 43.426 | 16.869 | 33.824 | 2 |
| 2025-09-08T20:40:00 | 57.100043 | 7.934780 | 2.0 | 16.703 | 2 | 43.427 | 16.870 | 33.824 | 2 |
| 2025-09-08T20:41:00 | 57.099956 | 7.935021 | 2.0 | 16.697 | 2 | 43.425 | 16.866 | 33.826 | 2 |
| 2025-09-08T20:42:00 | 57.099901 | 7.935221 | 2.0 | 16.702 | 2 | 43.423 | 16.861 | 33.828 | 2 |
| 2025-09-08T20:43:00 | 57.099882 | 7.935403 | 2.0 | 16.706 | 2 | 43.424 | 16.868 | 33.823 | 2 |
| 2025-09-08T20:44:00 | 57.099888 | 7.935551 | 2.0 | 16.692 | 2 | 43.424 | 16.867 | 33.824 | 2 |
| 2025-09-08T20:45:00 | 57.099951 | 7.935593 | 2.0 | 16.683 | 2 | 43.421 | 16.853 | 33.833 | 2 |
| 2025-09-08T20:46:00 | 57.100038 | 7.935575 | 2.0 | 16.699 | 2 | 43.418 | 16.851 | 33.832 | 2 |
| 2025-09-08T20:47:00 | 57.100105 | 7.935585 | 2.0 | 16.697 | 2 | 43.421 | 16.862 | 33.826 | 2 |
| 2025-09-08T20:48:00 | 57.100187 | 7.935602 | 2.0 | 16.695 | 2 | 43.422 | 16.858 | 33.830 | 2 |
| 2025-09-08T20:49:00 | 57.100373 | 7.935194 | 2.0 | 16.677 | 2 | 43.423 | 16.856 | 33.833 | 2 |
| 2025-09-08T20:50:00 | 57.101217 | 7.935110 | 2.0 | 16.663 | 2 | 43.419 | 16.836 | 33.846 | 2 |
| 2025-09-08T20:51:00 | 57.101984 | 7.936801 | 2.0 | 16.688 | 2 | 43.411 | 16.832 | 33.842 | 2 |
| 2025-09-08T20:52:00 | 57.102470 | 7.939711 | 2.0 | 16.722 | 2 | 43.415 | 16.852 | 33.829 | 2 |
| 2025-09-08T20:53:00 | 57.102877 | 7.943990 | 2.0 | 16.768 | 2 | 43.423 | 16.894 | 33.801 | 2 |
| 2025-09-08T20:54:00 | 57.103669 | 7.948929 | 2.0 | 16.808 | 2 | 43.429 | 16.935 | 33.771 | 2 |
| 2025-09-08T20:55:00 | 57.104488 | 7.954077 | 2.0 | 16.826 | 2 | 43.423 | 16.976 | 33.732 | 2 |
| 2025-09-08T20:56:00 | 57.105387 | 7.959263 | 2.0 | 16.811 | 2 | 43.400 | 16.983 | 33.706 | 2 |
| 2025-09-08T20:57:00 | 57.106276 | 7.964511 | 2.0 | 16.890 | 2 | 43.379 | 16.988 | 33.683 | 2 |
| 2025-09-08T20:58:00 | 57.107196 | 7.969774 | 2.0 | 17.004 | 2 | 43.387 | 17.063 | 33.628 | 2 |
| 2025-09-08T20:59:00 | 57.108088 | 7.975076 | 2.0 | 17.083 | 2 | 43.421 | 17.180 | 33.560 | 2 |
| 2025-09-08T21:00:00 | 57.108937 | 7.980414 | 2.0 | 17.068 | 2 | 43.443 | 17.227 | 33.539 | 2 |
| 2025-09-08T21:01:00 | 57.109861 | 7.985709 | 2.0 | 17.127 | 2 | 43.439 | 17.240 | 33.525 | 2 |
| 2025-09-08T21:02:00 | 57.110725 | 7.991015 | 2.0 | 17.153 | 2 | 43.458 | 17.288 | 33.502 | 2 |
| 2025-09-08T21:03:00 | 57.111657 | 7.996307 | 2.0 | 17.153 | 2 | 43.468 | 17.317 | 33.486 | 2 |
| 2025-09-08T21:04:00 | 57.112505 | 8.001622 | 2.0 | 17.084 | 2 | 43.466 | 17.289 | 33.508 | 2 |
| 2025-09-08T21:05:00 | 57.113436 | 8.006901 | 2.0 | 17.136 | 2 | 43.423 | 17.256 | 33.498 | 2 |
| 2025-09-08T21:06:00 | 57.114229 | 8.012210 | 2.0 | 17.219 | 2 | 43.428 | 17.302 | 33.464 | 2 |
| 2025-09-08T21:07:00 | 57.115123 | 8.017500 | 2.0 | 17.264 | 2 | 43.456 | 17.384 | 33.421 | 2 |
| 2025-09-08T21:08:00 | 57.115977 | 8.022826 | 2.0 | 17.253 | 2 | 43.480 | 17.433 | 33.401 | 2 |
| 2025-09-08T21:09:00 | 57.116902 | 8.028120 | 2.0 | 17.288 | 2 | 43.467 | 17.417 | 33.403 | 2 |
| 2025-09-08T21:10:00 | 57.117772 | 8.033454 | 2.0 | 17.273 | 2 | 43.461 | 17.432 | 33.385 | 2 |
| 2025-09-08T21:11:00 | 57.118635 | 8.038782 | 2.0 | 17.274 | 2 | 43.471 | 17.459 | 33.372 | 2 |
| 2025-09-08T21:12:00 | 57.119509 | 8.044083 | 2.0 | 17.149 | 2 | 43.462 | 17.409 | 33.405 | 2 |
| 2025-09-08T21:13:00 | 57.120393 | 8.049395 | 2.0 | 17.117 | 2 | 43.400 | 17.312 | 33.432 | 2 |
| 2025-09-08T21:14:00 | 57.121265 | 8.054719 | 2.0 | 17.174 | 2 | 43.380 | 17.290 | 33.433 | 2 |
| 2025-09-08T21:15:00 | 57.122172 | 8.060060 | 2.0 | 17.253 | 2 | 43.398 | 17.356 | 33.394 | 2 |
| 2025-09-08T21:16:00 | 57.123042 | 8.065416 | 2.0 | 17.152 | 2 | 43.414 | 17.392 | 33.378 | 2 |
| 2025-09-08T21:17:00 | 57.123879 | 8.070752 | 2.0 | 17.150 | 2 | 43.386 | 17.325 | 33.409 | 2 |
| 2025-09-08T21:18:00 | 57.124738 | 8.076029 | 2.0 | 17.192 | 2 | 43.382 | 17.315 | 33.414 | 2 |
| 2025-09-08T21:19:00 | 57.125628 | 8.081300 | 2.0 | 17.215 | 2 | 43.394 | 17.354 | 33.392 | 2 |
| 2025-09-08T21:20:00 | 57.126489 | 8.086595 | 2.0 | 17.218 | 2 | 43.401 | 17.377 | 33.379 | 2 |
| 2025-09-08T21:21:00 | 57.127423 | 8.091875 | 2.0 | 17.230 | 2 | 43.402 | 17.376 | 33.381 | 2 |
| 2025-09-08T21:22:00 | 57.128279 | 8.097194 | 2.0 | 17.259 | 2 | 43.412 | 17.403 | 33.367 | 2 |
| 2025-09-08T21:23:00 | 57.129153 | 8.102533 | 2.0 | 17.253 | 2 | 43.426 | 17.418 | 33.367 | 2 |
| 2025-09-08T21:24:00 | 57.130091 | 8.107863 | 2.0 | 17.278 | 2 | 43.429 | 17.417 | 33.370 | 2 |
| 2025-09-08T21:25:00 | 57.130988 | 8.113218 | 2.0 | 17.348 | 2 | 43.445 | 17.453 | 33.354 | 2 |
| 2025-09-08T21:26:00 | 57.131920 | 8.118587 | 2.0 | 17.379 | 2 | 43.459 | 17.513 | 33.317 | 2 |
| 2025-09-08T21:27:00 | 57.132774 | 8.124014 | 2.0 | 17.396 | 2 | 43.459 | 17.543 | 33.292 | 2 |
| 2025-09-08T21:28:00 | 57.133688 | 8.129413 | 2.0 | 17.406 | 2 | 43.452 | 17.558 | 33.274 | 2 |
| 2025-09-08T21:29:00 | 57.134552 | 8.134827 | 2.0 | 17.411 | 2 | 43.442 | 17.567 | 33.258 | 2 |
| 2025-09-08T21:30:00 | 57.135442 | 8.140200 | 2.0 | 17.408 | 2 | 43.438 | 17.572 | 33.251 | 2 |
| 2025-09-08T21:31:00 | 57.136280 | 8.145544 | 2.0 | 17.449 | 2 | 43.434 | 17.575 | 33.245 | 2 |
| 2025-09-08T21:32:00 | 57.137233 | 8.150817 | 2.0 | 17.460 | 2 | 43.429 | 17.612 | 33.210 | 2 |
| 2025-09-08T21:33:00 | 57.138105 | 8.156121 | 2.0 | 17.441 | 2 | 43.425 | 17.616 | 33.203 | 2 |
| 2025-09-08T21:34:00 | 57.138976 | 8.161430 | 2.0 | 17.423 | 2 | 43.419 | 17.598 | 33.213 | 2 |
| 2025-09-08T21:35:00 | 57.139894 | 8.166721 | 2.0 | 17.434 | 2 | 43.413 | 17.588 | 33.216 | 2 |
| 2025-09-08T21:36:00 | 57.140721 | 8.172022 | 2.0 | 17.421 | 2 | 43.406 | 17.592 | 33.207 | 2 |
| 2025-09-08T21:37:00 | 57.141621 | 8.177294 | 2.0 | 17.424 | 2 | 43.395 | 17.584 | 33.204 | 2 |
| 2025-09-08T21:38:00 | 57.142473 | 8.182583 | 2.0 | 17.422 | 2 | 43.387 | 17.583 | 33.198 | 2 |
| 2025-09-08T21:39:00 | 57.143307 | 8.187861 | 2.0 | 17.439 | 2 | 43.384 | 17.588 | 33.191 | 2 |
| 2025-09-08T21:40:00 | 57.144187 | 8.193117 | 2.0 | 17.443 | 2 | 43.397 | 17.602 | 33.191 | 2 |
| 2025-09-08T21:41:00 | 57.145107 | 8.198346 | 2.0 | 17.441 | 2 | 43.390 | 17.598 | 33.188 | 2 |
| 2025-09-08T21:42:00 | 57.145920 | 8.203628 | 2.0 | 17.455 | 2 | 43.396 | 17.606 | 33.187 | 2 |
| 2025-09-08T21:43:00 | 57.146712 | 8.208929 | 2.0 | 17.414 | 2 | 43.419 | 17.613 | 33.201 | 2 |
| 2025-09-08T21:44:00 | 57.147320 | 8.214287 | 2.0 | 17.388 | 2 | 43.401 | 17.567 | 33.223 | 2 |
| 2025-09-08T21:45:00 | 57.147995 | 8.219615 | 2.0 | 17.400 | 2 | 43.413 | 17.554 | 33.244 | 2 |
| 2025-09-08T21:46:00 | 57.148682 | 8.224918 | 2.0 | 17.411 | 2 | 43.454 | 17.562 | 33.273 | 2 |
| 2025-09-08T21:47:00 | 57.149325 | 8.230241 | 2.0 | 17.416 | 2 | 43.440 | 17.574 | 33.251 | 2 |
| 2025-09-08T21:48:00 | 57.150060 | 8.235559 | 2.0 | 17.421 | 2 | 43.431 | 17.581 | 33.237 | 2 |
| 2025-09-08T21:49:00 | 57.150715 | 8.240899 | 2.0 | 17.447 | 2 | 43.441 | 17.585 | 33.243 | 2 |
| 2025-09-08T21:50:00 | 57.151432 | 8.246247 | 2.0 | 17.473 | 2 | 43.459 | 17.613 | 33.235 | 2 |
| 2025-09-08T21:51:00 | 57.152082 | 8.251638 | 2.0 | 17.457 | 2 | 43.474 | 17.632 | 33.232 | 2 |
| 2025-09-08T21:52:00 | 57.152739 | 8.257034 | 2.0 | 17.449 | 2 | 43.456 | 17.614 | 33.232 | 2 |
| 2025-09-08T21:53:00 | 57.153428 | 8.262406 | 2.0 | 17.478 | 2 | 43.445 | 17.616 | 33.221 | 2 |
| 2025-09-08T21:54:00 | 57.154078 | 8.267779 | 2.0 | 17.483 | 2 | 43.448 | 17.639 | 33.204 | 2 |
| 2025-09-08T21:55:00 | 57.154758 | 8.273169 | 2.0 | 17.478 | 2 | 43.431 | 17.642 | 33.187 | 2 |
| 2025-09-08T21:56:00 | 57.155424 | 8.278580 | 2.0 | 17.460 | 2 | 43.409 | 17.637 | 33.173 | 2 |
| 2025-09-08T21:57:00 | 57.156098 | 8.283994 | 2.0 | 17.450 | 2 | 43.382 | 17.619 | 33.164 | 2 |
| 2025-09-08T21:58:00 | 57.156790 | 8.289387 | 2.0 | 17.452 | 2 | 43.366 | 17.612 | 33.156 | 2 |
| 2025-09-08T21:59:00 | 57.157424 | 8.294788 | 2.0 | 17.447 | 2 | 43.357 | 17.613 | 33.148 | 2 |
| 2025-09-08T22:00:00 | 57.158148 | 8.300155 | 2.0 | 17.454 | 2 | 43.338 | 17.609 | 33.135 | 2 |
| 2025-09-08T22:01:00 | 57.158800 | 8.305554 | 2.0 | 17.461 | 2 | 43.326 | 17.617 | 33.118 | 2 |
| 2025-09-08T22:02:00 | 57.159427 | 8.310945 | 2.0 | 17.465 | 2 | 43.323 | 17.623 | 33.111 | 2 |
| 2025-09-08T22:03:00 | 57.160204 | 8.316280 | 2.0 | 17.472 | 2 | 43.318 | 17.627 | 33.103 | 2 |
| 2025-09-08T22:04:00 | 57.160979 | 8.321621 | 2.0 | 17.480 | 2 | 43.317 | 17.634 | 33.097 | 2 |
| 2025-09-08T22:05:00 | 57.161758 | 8.326979 | 2.0 | 17.490 | 2 | 43.317 | 17.643 | 33.089 | 2 |
| 2025-09-08T22:06:00 | 57.162528 | 8.332351 | 2.0 | 17.498 | 2 | 43.316 | 17.653 | 33.080 | 2 |
| 2025-09-08T22:07:00 | 57.163329 | 8.337709 | 2.0 | 17.512 | 2 | 43.315 | 17.661 | 33.073 | 2 |
| 2025-09-08T22:08:00 | 57.164084 | 8.343094 | 2.0 | 17.505 | 2 | 43.314 | 17.670 | 33.065 | 2 |
| 2025-09-08T22:09:00 | 57.164878 | 8.348478 | 2.0 | 17.510 | 2 | 43.313 | 17.667 | 33.066 | 2 |
| 2025-09-08T22:10:00 | 57.165662 | 8.353880 | 2.0 | 17.514 | 2 | 43.309 | 17.670 | 33.060 | 2 |
| 2025-09-08T22:11:00 | 57.166428 | 8.359291 | 2.0 | 17.515 | 2 | 43.306 | 17.674 | 33.055 | 2 |
| 2025-09-08T22:12:00 | 57.167219 | 8.364704 | 2.0 | 17.525 | 2 | 43.304 | 17.678 | 33.050 | 2 |
| 2025-09-08T22:13:00 | 57.168020 | 8.370114 | 2.0 | 17.542 | 2 | 43.305 | 17.689 | 33.042 | 2 |
| 2025-09-08T22:14:00 | 57.168800 | 8.375562 | 2.0 | 17.549 | 2 | 43.302 | 17.703 | 33.028 | 2 |
| 2025-09-08T22:15:00 | 57.169594 | 8.381004 | 2.0 | 17.533 | 2 | 43.298 | 17.708 | 33.020 | 2 |
| 2025-09-08T22:16:00 | 57.170367 | 8.386454 | 2.0 | 17.537 | 2 | 43.276 | 17.693 | 33.014 | 2 |
| 2025-09-08T22:17:00 | 57.171134 | 8.391910 | 2.0 | 17.544 | 2 | 43.252 | 17.699 | 32.988 | 2 |
| 2025-09-08T22:18:00 | 57.171928 | 8.397363 | 2.0 | 17.539 | 2 | 43.239 | 17.703 | 32.974 | 2 |
| 2025-09-08T22:19:00 | 57.172759 | 8.402780 | 2.0 | 17.543 | 2 | 43.228 | 17.699 | 32.968 | 2 |
| 2025-09-08T22:20:00 | 57.173529 | 8.408219 | 2.0 | 17.549 | 2 | 43.215 | 17.706 | 32.951 | 2 |
| 2025-09-08T22:21:00 | 57.174299 | 8.413668 | 2.0 | 17.539 | 2 | 43.207 | 17.707 | 32.943 | 2 |
| 2025-09-08T22:22:00 | 57.175091 | 8.419126 | 2.0 | 17.535 | 2 | 43.202 | 17.699 | 32.946 | 2 |
| 2025-09-08T22:23:00 | 57.175915 | 8.424579 | 2.0 | 17.548 | 2 | 43.212 | 17.698 | 32.955 | 2 |
| 2025-09-08T22:24:00 | 57.176706 | 8.430037 | 2.0 | 17.557 | 2 | 43.224 | 17.710 | 32.955 | 2 |
| 2025-09-08T22:25:00 | 57.177509 | 8.435513 | 2.0 | 17.558 | 2 | 43.229 | 17.718 | 32.953 | 2 |
| 2025-09-08T22:26:00 | 57.178289 | 8.440994 | 2.0 | 17.551 | 2 | 43.233 | 17.717 | 32.957 | 2 |
| 2025-09-08T22:27:00 | 57.179077 | 8.446480 | 2.0 | 17.542 | 2 | 43.220 | 17.711 | 32.951 | 2 |
| 2025-09-08T22:28:00 | 57.179898 | 8.451961 | 2.0 | 17.535 | 2 | 43.210 | 17.703 | 32.949 | 2 |
| 2025-09-08T22:29:00 | 57.180681 | 8.457456 | 2.0 | 17.530 | 2 | 43.201 | 17.696 | 32.947 | 2 |
| 2025-09-08T22:30:00 | 57.181486 | 8.462958 | 2.0 | 17.531 | 2 | 43.198 | 17.693 | 32.947 | 2 |
| 2025-09-08T22:31:00 | 57.182294 | 8.468478 | 2.0 | 17.515 | 2 | 43.192 | 17.689 | 32.945 | 2 |
| 2025-09-08T22:32:00 | 57.183093 | 8.474018 | 2.0 | 17.509 | 2 | 43.183 | 17.679 | 32.946 | 2 |
| 2025-09-08T22:33:00 | 57.183894 | 8.479559 | 2.0 | 17.515 | 2 | 43.174 | 17.671 | 32.944 | 2 |
| 2025-09-08T22:34:00 | 57.184686 | 8.485095 | 2.0 | 17.523 | 2 | 43.180 | 17.678 | 32.944 | 2 |
| 2025-09-08T22:35:00 | 57.185489 | 8.490649 | 2.0 | 17.522 | 2 | 43.183 | 17.684 | 32.942 | 2 |
| 2025-09-08T22:36:00 | 57.186275 | 8.496221 | 2.0 | 17.506 | 2 | 43.182 | 17.680 | 32.944 | 2 |
| 2025-09-08T22:37:00 | 57.187095 | 8.501775 | 2.0 | 17.513 | 2 | 43.180 | 17.670 | 32.950 | 2 |
| 2025-09-08T22:38:00 | 57.187908 | 8.507329 | 2.0 | 17.509 | 2 | 43.188 | 17.674 | 32.954 | 2 |
| 2025-09-08T22:39:00 | 57.188715 | 8.512887 | 2.0 | 17.506 | 2 | 43.186 | 17.671 | 32.955 | 2 |
| 2025-09-08T22:40:00 | 57.189516 | 8.518436 | 2.0 | 17.511 | 2 | 43.187 | 17.668 | 32.958 | 2 |
| 2025-09-08T22:41:00 | 57.190323 | 8.523998 | 2.0 | 17.508 | 2 | 43.185 | 17.673 | 32.952 | 2 |
| 2025-09-08T22:42:00 | 57.191114 | 8.529578 | 2.0 | 17.495 | 2 | 43.192 | 17.669 | 32.961 | 2 |
| 2025-09-08T22:43:00 | 57.191944 | 8.535162 | 2.0 | 17.482 | 2 | 43.208 | 17.655 | 32.986 | 2 |
| 2025-09-08T22:44:00 | 57.192742 | 8.540741 | 2.0 | 17.481 | 2 | 43.233 | 17.646 | 33.015 | 2 |
| 2025-09-08T22:45:00 | 57.193637 | 8.546240 | 2.0 | 17.481 | 2 | 43.241 | 17.641 | 33.026 | 2 |
| 2025-09-08T22:46:00 | 57.194796 | 8.551565 | 2.0 | 17.481 | 2 | 43.249 | 17.644 | 33.030 | 2 |
| 2025-09-08T22:47:00 | 57.195896 | 8.556949 | 2.0 | 17.464 | 2 | 43.255 | 17.640 | 33.039 | 2 |
| 2025-09-08T22:48:00 | 57.197023 | 8.562320 | 2.0 | 17.459 | 2 | 43.254 | 17.627 | 33.048 | 2 |
| 2025-09-08T22:49:00 | 57.198138 | 8.567719 | 2.0 | 17.462 | 2 | 43.249 | 17.623 | 33.047 | 2 |
| 2025-09-08T22:50:00 | 57.199284 | 8.573078 | 2.0 | 17.471 | 2 | 43.268 | 17.626 | 33.061 | 2 |
| 2025-09-08T22:51:00 | 57.200355 | 8.578468 | 2.0 | 17.476 | 2 | 43.283 | 17.633 | 33.068 | 2 |
| 2025-09-08T22:52:00 | 57.201509 | 8.583806 | 2.0 | 17.449 | 2 | 43.287 | 17.635 | 33.070 | 2 |
| 2025-09-08T22:53:00 | 57.202636 | 8.589166 | 2.0 | 17.452 | 2 | 43.297 | 17.613 | 33.097 | 2 |
| 2025-09-08T22:54:00 | 57.203738 | 8.594528 | 2.0 | 17.449 | 2 | 43.290 | 17.615 | 33.089 | 2 |
| 2025-09-08T22:55:00 | 57.204826 | 8.599922 | 2.0 | 17.449 | 2 | 43.276 | 17.610 | 33.081 | 2 |
| 2025-09-08T22:56:00 | 57.205997 | 8.605272 | 2.0 | 17.461 | 2 | 43.276 | 17.614 | 33.078 | 2 |
| 2025-09-08T22:57:00 | 57.207092 | 8.610674 | 2.0 | 17.465 | 2 | 43.282 | 17.624 | 33.075 | 2 |
| 2025-09-08T22:58:00 | 57.208222 | 8.616050 | 2.0 | 17.464 | 2 | 43.278 | 17.627 | 33.069 | 2 |
| 2025-09-08T22:59:00 | 57.209301 | 8.621461 | 2.0 | 17.463 | 2 | 43.274 | 17.624 | 33.068 | 2 |
| 2025-09-08T23:00:00 | 57.210452 | 8.626833 | 2.0 | 17.477 | 2 | 43.276 | 17.627 | 33.067 | 2 |
| 2025-09-08T23:01:00 | 57.211567 | 8.632226 | 2.0 | 17.473 | 2 | 43.284 | 17.638 | 33.065 | 2 |
| 2025-09-08T23:02:00 | 57.212694 | 8.637602 | 2.0 | 17.481 | 2 | 43.284 | 17.637 | 33.066 | 2 |
| 2025-09-08T23:03:00 | 57.213804 | 8.642995 | 2.0 | 17.469 | 2 | 43.290 | 17.638 | 33.070 | 2 |
| 2025-09-08T23:04:00 | 57.214943 | 8.648363 | 2.0 | 17.470 | 2 | 43.290 | 17.631 | 33.076 | 2 |
| 2025-09-08T23:05:00 | 57.216066 | 8.653752 | 2.0 | 17.479 | 2 | 43.295 | 17.633 | 33.079 | 2 |
| 2025-09-08T23:06:00 | 57.217165 | 8.659157 | 2.0 | 17.451 | 2 | 43.297 | 17.640 | 33.075 | 2 |
| 2025-09-08T23:07:00 | 57.218297 | 8.664537 | 2.0 | 17.398 | 2 | 43.267 | 17.600 | 33.082 | 2 |
| 2025-09-08T23:08:00 | 57.219422 | 8.669907 | 2.0 | 17.408 | 2 | 43.233 | 17.568 | 33.079 | 2 |
| 2025-09-08T23:09:00 | 57.220545 | 8.675283 | 2.0 | 17.404 | 2 | 43.236 | 17.572 | 33.078 | 2 |
| 2025-09-08T23:10:00 | 57.221670 | 8.680637 | 2.0 | 17.404 | 2 | 43.228 | 17.567 | 33.075 | 2 |
| 2025-09-08T23:11:00 | 57.222788 | 8.685998 | 2.0 | 17.414 | 2 | 43.224 | 17.568 | 33.071 | 2 |
| 2025-09-08T23:12:00 | 57.223906 | 8.691362 | 2.0 | 17.428 | 2 | 43.226 | 17.580 | 33.063 | 2 |
| 2025-09-08T23:13:00 | 57.225005 | 8.696752 | 2.0 | 17.430 | 2 | 43.230 | 17.590 | 33.058 | 2 |
| 2025-09-08T23:14:00 | 57.226140 | 8.702112 | 2.0 | 17.417 | 2 | 43.226 | 17.590 | 33.055 | 2 |
| 2025-09-08T23:15:00 | 57.227276 | 8.707476 | 2.0 | 17.410 | 2 | 43.224 | 17.580 | 33.061 | 2 |
| 2025-09-08T23:16:00 | 57.228391 | 8.712856 | 2.0 | 17.394 | 2 | 43.219 | 17.568 | 33.067 | 2 |
| 2025-09-08T23:17:00 | 57.229477 | 8.718251 | 2.0 | 17.385 | 2 | 43.203 | 17.556 | 33.063 | 2 |
| 2025-09-08T23:18:00 | 57.230624 | 8.723600 | 2.0 | 17.395 | 2 | 43.193 | 17.549 | 33.060 | 2 |
| 2025-09-08T23:19:00 | 57.231753 | 8.728979 | 2.0 | 17.384 | 2 | 43.204 | 17.558 | 33.062 | 2 |
| 2025-09-08T23:20:00 | 57.232857 | 8.734381 | 2.0 | 17.370 | 2 | 43.205 | 17.541 | 33.077 | 2 |
| 2025-09-08T23:21:00 | 57.233983 | 8.739760 | 2.0 | 17.386 | 2 | 43.211 | 17.537 | 33.085 | 2 |
| 2025-09-08T23:22:00 | 57.235099 | 8.745139 | 2.0 | 17.399 | 2 | 43.227 | 17.549 | 33.089 | 2 |
| 2025-09-08T23:23:00 | 57.236174 | 8.750529 | 2.0 | 17.410 | 2 | 43.237 | 17.563 | 33.086 | 2 |
| 2025-09-08T23:24:00 | 57.237299 | 8.755829 | 2.0 | 17.386 | 2 | 43.241 | 17.568 | 33.085 | 2 |
| 2025-09-08T23:25:00 | 57.238348 | 8.760965 | 2.0 | 17.370 | 2 | 43.236 | 17.547 | 33.098 | 2 |
| 2025-09-08T23:26:00 | 57.239351 | 8.766013 | 2.0 | 17.369 | 2 | 43.237 | 17.534 | 33.110 | 2 |
| 2025-09-08T23:27:00 | 57.240074 | 8.771246 | 2.0 | 17.368 | 2 | 43.238 | 17.528 | 33.115 | 2 |
| 2025-09-08T23:28:00 | 57.240905 | 8.776621 | 2.0 | 17.386 | 2 | 43.238 | 17.534 | 33.111 | 2 |
| 2025-09-08T23:29:00 | 57.241668 | 8.782125 | 2.0 | 17.400 | 2 | 43.249 | 17.550 | 33.107 | 2 |
| 2025-09-08T23:30:00 | 57.242480 | 8.787629 | 2.0 | 17.420 | 2 | 43.260 | 17.565 | 33.104 | 2 |
| 2025-09-08T23:31:00 | 57.243274 | 8.793145 | 2.0 | 17.424 | 2 | 43.270 | 17.581 | 33.100 | 2 |
| 2025-09-08T23:32:00 | 57.244099 | 8.798637 | 2.0 | 17.438 | 2 | 43.278 | 17.590 | 33.099 | 2 |
| 2025-09-08T23:33:00 | 57.245635 | 8.803456 | 2.0 | 17.437 | 2 | 43.287 | 17.600 | 33.099 | 2 |
| 2025-09-08T23:34:00 | 57.248009 | 8.806809 | 2.0 | 17.434 | 2 | 43.293 | 17.597 | 33.106 | 2 |
| 2025-09-08T23:35:00 | 57.250827 | 8.808328 | 2.0 | 17.434 | 2 | 43.305 | 17.598 | 33.116 | 2 |
| 2025-09-08T23:36:00 | 57.253677 | 8.807864 | 2.0 | 17.436 | 2 | 43.317 | 17.596 | 33.128 | 2 |
| 2025-09-08T23:37:00 | 57.256174 | 8.805626 | 2.0 | 17.425 | 2 | 43.327 | 17.597 | 33.135 | 2 |
| 2025-09-08T23:38:00 | 57.258442 | 8.802644 | 2.0 | 17.405 | 2 | 43.320 | 17.584 | 33.140 | 2 |
| 2025-09-08T23:39:00 | 57.260828 | 8.799871 | 2.0 | 17.401 | 2 | 43.325 | 17.569 | 33.156 | 2 |
| 2025-09-08T23:40:00 | 57.263200 | 8.797033 | 2.0 | 17.398 | 2 | 43.335 | 17.563 | 33.170 | 2 |
| 2025-09-08T23:41:00 | 57.265580 | 8.794207 | 2.0 | 17.383 | 2 | 43.341 | 17.556 | 33.181 | 2 |
| 2025-09-08T23:42:00 | 57.267935 | 8.791348 | 2.0 | 17.402 | 2 | 43.341 | 17.549 | 33.186 | 2 |
| 2025-09-08T23:43:00 | 57.270298 | 8.788521 | 2.0 | 17.410 | 2 | 43.348 | 17.566 | 33.179 | 2 |
| 2025-09-08T23:44:00 | 57.272651 | 8.785686 | 2.0 | 17.392 | 2 | 43.354 | 17.569 | 33.181 | 2 |
| 2025-09-08T23:45:00 | 57.275012 | 8.782863 | 2.0 | 17.388 | 2 | 43.348 | 17.554 | 33.188 | 2 |
| 2025-09-08T23:46:00 | 57.277381 | 8.780052 | 2.0 | 17.392 | 2 | 43.347 | 17.552 | 33.189 | 2 |
| 2025-09-08T23:47:00 | 57.279737 | 8.777203 | 2.0 | 17.400 | 2 | 43.351 | 17.558 | 33.188 | 2 |
| 2025-09-08T23:48:00 | 57.282108 | 8.774405 | 2.0 | 17.413 | 2 | 43.361 | 17.565 | 33.190 | 2 |
| 2025-09-08T23:49:00 | 57.284456 | 8.771575 | 2.0 | 17.421 | 2 | 43.373 | 17.577 | 33.191 | 2 |
| 2025-09-08T23:50:00 | 57.286808 | 8.768756 | 2.0 | 17.424 | 2 | 43.381 | 17.584 | 33.192 | 2 |
| 2025-09-08T23:51:00 | 57.289179 | 8.765952 | 2.0 | 17.427 | 2 | 43.384 | 17.587 | 33.192 | 2 |
| 2025-09-08T23:52:00 | 57.291530 | 8.763112 | 2.0 | 17.407 | 2 | 43.381 | 17.588 | 33.189 | 2 |
| 2025-09-08T23:53:00 | 57.293874 | 8.760259 | 2.0 | 17.383 | 2 | 43.375 | 17.566 | 33.202 | 2 |
| 2025-09-08T23:54:00 | 57.296221 | 8.757435 | 2.0 | 17.361 | 2 | 43.357 | 17.542 | 33.206 | 2 |
| 2025-09-08T23:55:00 | 57.298600 | 8.754699 | 2.0 | 17.365 | 2 | 43.336 | 17.523 | 33.203 | 2 |
| 2025-09-08T23:56:00 | 57.300942 | 8.751859 | 2.0 | 17.376 | 2 | 43.339 | 17.533 | 33.198 | 2 |
| 2025-09-08T23:57:00 | 57.303279 | 8.749015 | 2.0 | 17.380 | 2 | 43.340 | 17.537 | 33.195 | 2 |
| 2025-09-08T23:58:00 | 57.305640 | 8.746255 | 2.0 | 17.400 | 2 | 43.350 | 17.546 | 33.197 | 2 |
| 2025-09-08T23:59:00 | 57.307969 | 8.743417 | 2.0 | 17.394 | 2 | 43.371 | 17.563 | 33.201 | 2 |
| 2025-09-09T00:00:00 | 57.310307 | 8.740615 | 2.0 | 17.386 | 2 | 43.367 | 17.554 | 33.205 | 2 |
| 2025-09-09T00:01:00 | 57.312647 | 8.737802 | 2.0 | 17.391 | 2 | 43.367 | 17.550 | 33.208 | 2 |
| 2025-09-09T00:02:00 | 57.315003 | 8.735009 | 2.0 | 17.399 | 2 | 43.371 | 17.556 | 33.206 | 2 |
| 2025-09-09T00:03:00 | 57.317348 | 8.732161 | 2.0 | 17.403 | 2 | 43.377 | 17.563 | 33.206 | 2 |
| 2025-09-09T00:04:00 | 57.319702 | 8.729333 | 2.0 | 17.405 | 2 | 43.385 | 17.567 | 33.209 | 2 |
| 2025-09-09T00:05:00 | 57.322046 | 8.726479 | 2.0 | 17.382 | 2 | 43.386 | 17.563 | 33.213 | 2 |
| 2025-09-09T00:06:00 | 57.324415 | 8.723673 | 2.0 | 17.355 | 2 | 43.378 | 17.539 | 33.226 | 2 |
| 2025-09-09T00:07:00 | 57.326779 | 8.720856 | 2.0 | 17.363 | 2 | 43.368 | 17.522 | 33.232 | 2 |
| 2025-09-09T00:08:00 | 57.329128 | 8.718016 | 2.0 | 17.367 | 2 | 43.379 | 17.526 | 33.238 | 2 |
| 2025-09-09T00:09:00 | 57.331438 | 8.715119 | 2.0 | 17.360 | 2 | 43.384 | 17.530 | 33.239 | 2 |
| 2025-09-09T00:10:00 | 57.333753 | 8.712241 | 2.0 | 17.395 | 2 | 43.390 | 17.528 | 33.246 | 2 |
| 2025-09-09T00:11:00 | 57.336066 | 8.709366 | 2.0 | 17.397 | 2 | 43.412 | 17.555 | 33.242 | 2 |
| 2025-09-09T00:12:00 | 57.338383 | 8.706476 | 2.0 | 17.398 | 2 | 43.410 | 17.560 | 33.236 | 2 |
| 2025-09-09T00:13:00 | 57.340702 | 8.703579 | 2.0 | 17.393 | 2 | 43.412 | 17.558 | 33.240 | 2 |
| 2025-09-09T00:14:00 | 57.343011 | 8.700663 | 2.0 | 17.390 | 2 | 43.415 | 17.554 | 33.246 | 2 |
| 2025-09-09T00:15:00 | 57.345343 | 8.697807 | 2.0 | 17.389 | 2 | 43.420 | 17.553 | 33.251 | 2 |
| 2025-09-09T00:16:00 | 57.347650 | 8.694878 | 2.0 | 17.373 | 2 | 43.420 | 17.550 | 33.253 | 2 |
| 2025-09-09T00:17:00 | 57.349976 | 8.691992 | 2.0 | 17.372 | 2 | 43.418 | 17.537 | 33.262 | 2 |
| 2025-09-09T00:18:00 | 57.352320 | 8.689131 | 2.0 | 17.374 | 2 | 43.424 | 17.536 | 33.268 | 2 |
| 2025-09-09T00:19:00 | 57.354646 | 8.686201 | 2.0 | 17.372 | 2 | 43.434 | 17.537 | 33.276 | 2 |
| 2025-09-09T00:20:00 | 57.356979 | 8.683270 | 2.0 | 17.361 | 2 | 43.438 | 17.533 | 33.283 | 2 |
| 2025-09-09T00:21:00 | 57.359329 | 8.680355 | 2.0 | 17.349 | 2 | 43.435 | 17.522 | 33.289 | 2 |
| 2025-09-09T00:22:00 | 57.361657 | 8.677383 | 2.0 | 17.335 | 2 | 43.431 | 17.510 | 33.295 | 2 |
| 2025-09-09T00:23:00 | 57.364020 | 8.674485 | 2.0 | 17.311 | 2 | 43.422 | 17.497 | 33.298 | 2 |
| 2025-09-09T00:24:00 | 57.366344 | 8.671538 | 2.0 | 17.300 | 2 | 43.412 | 17.473 | 33.310 | 2 |
| 2025-09-09T00:25:00 | 57.368682 | 8.668636 | 2.0 | 17.308 | 2 | 43.411 | 17.466 | 33.314 | 2 |
| 2025-09-09T00:26:00 | 57.371013 | 8.665731 | 2.0 | 17.317 | 2 | 43.419 | 17.473 | 33.316 | 2 |
| 2025-09-09T00:27:00 | 57.373352 | 8.662828 | 2.0 | 17.314 | 2 | 43.428 | 17.480 | 33.318 | 2 |
| 2025-09-09T00:28:00 | 57.375681 | 8.659899 | 2.0 | 17.307 | 2 | 43.430 | 17.477 | 33.322 | 2 |
| 2025-09-09T00:29:00 | 57.378038 | 8.657012 | 2.0 | 17.288 | 2 | 43.428 | 17.468 | 33.327 | 2 |
| 2025-09-09T00:30:00 | 57.380379 | 8.654038 | 2.0 | 17.278 | 2 | 43.424 | 17.451 | 33.338 | 2 |
| 2025-09-09T00:31:00 | 57.382739 | 8.651078 | 2.0 | 17.266 | 2 | 43.424 | 17.440 | 33.347 | 2 |
| 2025-09-09T00:32:00 | 57.385094 | 8.648097 | 2.0 | 17.251 | 2 | 43.424 | 17.428 | 33.357 | 2 |
| 2025-09-09T00:33:00 | 57.387488 | 8.645239 | 2.0 | 17.243 | 2 | 43.420 | 17.413 | 33.366 | 2 |
| 2025-09-09T00:34:00 | 57.389813 | 8.642236 | 2.0 | 17.243 | 2 | 43.422 | 17.407 | 33.372 | 2 |
| 2025-09-09T00:35:00 | 57.392183 | 8.639320 | 2.0 | 17.225 | 2 | 43.424 | 17.405 | 33.376 | 2 |
| 2025-09-09T00:36:00 | 57.394542 | 8.636387 | 2.0 | 17.225 | 2 | 43.421 | 17.390 | 33.386 | 2 |
| 2025-09-09T00:37:00 | 57.396878 | 8.633396 | 2.0 | 17.223 | 2 | 43.416 | 17.389 | 33.382 | 2 |
| 2025-09-09T00:38:00 | 57.399237 | 8.630484 | 2.0 | 17.218 | 2 | 43.430 | 17.386 | 33.397 | 2 |
| 2025-09-09T00:39:00 | 57.401574 | 8.627550 | 2.0 | 17.214 | 2 | 43.442 | 17.382 | 33.410 | 2 |
| 2025-09-09T00:40:00 | 57.403940 | 8.624691 | 2.0 | 17.194 | 2 | 43.450 | 17.375 | 33.423 | 2 |
| 2025-09-09T00:41:00 | 57.406289 | 8.621777 | 2.0 | 17.182 | 2 | 43.448 | 17.358 | 33.435 | 2 |
| 2025-09-09T00:42:00 | 57.408613 | 8.618820 | 2.0 | 17.174 | 2 | 43.445 | 17.345 | 33.443 | 2 |
| 2025-09-09T00:43:00 | 57.410936 | 8.615867 | 2.0 | 17.160 | 2 | 43.445 | 17.337 | 33.450 | 2 |
| 2025-09-09T00:44:00 | 57.413289 | 8.612975 | 2.0 | 17.158 | 2 | 43.447 | 17.324 | 33.463 | 2 |
| 2025-09-09T00:45:00 | 57.415627 | 8.610067 | 2.0 | 17.163 | 2 | 43.459 | 17.326 | 33.471 | 2 |
| 2025-09-09T00:46:00 | 57.417952 | 8.607114 | 2.0 | 17.143 | 2 | 43.462 | 17.323 | 33.476 | 2 |
| 2025-09-09T00:47:00 | 57.420319 | 8.604230 | 2.0 | 17.140 | 2 | 43.456 | 17.308 | 33.484 | 2 |
| 2025-09-09T00:48:00 | 57.422630 | 8.601222 | 2.0 | 17.154 | 2 | 43.462 | 17.310 | 33.487 | 2 |
| 2025-09-09T00:49:00 | 57.424998 | 8.598332 | 2.0 | 17.162 | 2 | 43.469 | 17.318 | 33.486 | 2 |
| 2025-09-09T00:50:00 | 57.427342 | 8.595374 | 2.0 | 17.185 | 2 | 43.480 | 17.331 | 33.485 | 2 |
| 2025-09-09T00:51:00 | 57.429681 | 8.592417 | 2.0 | 17.181 | 2 | 43.496 | 17.348 | 33.485 | 2 |
| 2025-09-09T00:52:00 | 57.432038 | 8.589481 | 2.0 | 17.153 | 2 | 43.494 | 17.339 | 33.491 | 2 |
| 2025-09-09T00:53:00 | 57.434411 | 8.586562 | 2.0 | 17.143 | 2 | 43.483 | 17.317 | 33.499 | 2 |
| 2025-09-09T00:54:00 | 57.436756 | 8.583569 | 2.0 | 17.120 | 2 | 43.471 | 17.304 | 33.500 | 2 |
| 2025-09-09T00:55:00 | 57.439121 | 8.580584 | 2.0 | 17.119 | 2 | 43.452 | 17.287 | 33.497 | 2 |
| 2025-09-09T00:56:00 | 57.441475 | 8.577635 | 2.0 | 17.129 | 2 | 43.443 | 17.286 | 33.491 | 2 |
| 2025-09-09T00:57:00 | 57.443827 | 8.574701 | 2.0 | 17.131 | 2 | 43.443 | 17.293 | 33.485 | 2 |
| 2025-09-09T00:58:00 | 57.446168 | 8.571718 | 2.0 | 17.132 | 2 | 43.448 | 17.296 | 33.487 | 2 |
| 2025-09-09T00:59:00 | 57.448539 | 8.568801 | 2.0 | 17.123 | 2 | 43.447 | 17.295 | 33.487 | 2 |
| 2025-09-09T01:00:00 | 57.450857 | 8.565792 | 2.0 | 17.099 | 2 | 43.460 | 17.283 | 33.508 | 2 |
| 2025-09-09T01:01:00 | 57.453175 | 8.562793 | 2.0 | 16.981 | 2 | 43.458 | 17.249 | 33.534 | 2 |
| 2025-09-09T01:02:00 | 57.455477 | 8.559752 | 2.0 | 16.982 | 2 | 43.425 | 17.157 | 33.582 | 2 |
| 2025-09-09T01:03:00 | 57.457845 | 8.556847 | 2.0 | 16.974 | 2 | 43.417 | 17.148 | 33.583 | 2 |
| 2025-09-09T01:04:00 | 57.460200 | 8.553900 | 2.0 | 16.983 | 2 | 43.417 | 17.141 | 33.589 | 2 |
| 2025-09-09T01:05:00 | 57.462557 | 8.550934 | 2.0 | 16.989 | 2 | 43.435 | 17.150 | 33.597 | 2 |
| 2025-09-09T01:06:00 | 57.464929 | 8.547968 | 2.0 | 16.986 | 2 | 43.445 | 17.155 | 33.601 | 2 |
| 2025-09-09T01:07:00 | 57.467275 | 8.544958 | 2.0 | 16.967 | 2 | 43.436 | 17.149 | 33.598 | 2 |
| 2025-09-09T01:08:00 | 57.469664 | 8.542018 | 2.0 | 16.944 | 2 | 43.424 | 17.130 | 33.604 | 2 |
| 2025-09-09T01:09:00 | 57.472034 | 8.539048 | 2.0 | 16.939 | 2 | 43.413 | 17.111 | 33.610 | 2 |
| 2025-09-09T01:10:00 | 57.474397 | 8.536057 | 2.0 | 16.927 | 2 | 43.411 | 17.104 | 33.614 | 2 |
| 2025-09-09T01:11:00 | 57.476773 | 8.533093 | 2.0 | 16.942 | 2 | 43.404 | 17.095 | 33.616 | 2 |
| 2025-09-09T01:12:00 | 57.479166 | 8.530136 | 2.0 | 16.956 | 2 | 43.414 | 17.108 | 33.613 | 2 |
| 2025-09-09T01:13:00 | 57.481565 | 8.527204 | 2.0 | 16.962 | 2 | 43.427 | 17.120 | 33.615 | 2 |
| 2025-09-09T01:14:00 | 57.483964 | 8.524239 | 2.0 | 16.970 | 2 | 43.432 | 17.127 | 33.613 | 2 |
| 2025-09-09T01:15:00 | 57.486365 | 8.521251 | 2.0 | 16.987 | 2 | 43.440 | 17.138 | 33.611 | 2 |
| 2025-09-09T01:16:00 | 57.488755 | 8.518214 | 2.0 | 16.972 | 2 | 43.447 | 17.149 | 33.608 | 2 |
| 2025-09-09T01:17:00 | 57.491174 | 8.515246 | 2.0 | 16.954 | 2 | 43.439 | 17.135 | 33.613 | 2 |
| 2025-09-09T01:18:00 | 57.493576 | 8.512250 | 2.0 | 16.946 | 2 | 43.426 | 17.118 | 33.615 | 2 |
| 2025-09-09T01:19:00 | 57.495953 | 8.509198 | 2.0 | 16.945 | 2 | 43.418 | 17.111 | 33.614 | 2 |
| 2025-09-09T01:20:00 | 57.498355 | 8.506220 | 2.0 | 16.948 | 2 | 43.415 | 17.111 | 33.612 | 2 |
| 2025-09-09T01:21:00 | 57.500773 | 8.503250 | 2.0 | 16.938 | 2 | 43.415 | 17.112 | 33.611 | 2 |
| 2025-09-09T01:22:00 | 57.503184 | 8.500275 | 2.0 | 16.932 | 2 | 43.408 | 17.103 | 33.612 | 2 |
| 2025-09-09T01:23:00 | 57.505589 | 8.497301 | 2.0 | 16.926 | 2 | 43.402 | 17.097 | 33.612 | 2 |
| 2025-09-09T01:24:00 | 57.507998 | 8.494328 | 2.0 | 16.919 | 2 | 43.392 | 17.091 | 33.609 | 2 |
| 2025-09-09T01:25:00 | 57.510377 | 8.491337 | 2.0 | 16.913 | 2 | 43.386 | 17.085 | 33.608 | 2 |
| 2025-09-09T01:26:00 | 57.512752 | 8.488363 | 2.0 | 16.890 | 2 | 43.382 | 17.074 | 33.614 | 2 |
| 2025-09-09T01:27:00 | 57.515126 | 8.485414 | 2.0 | 16.889 | 2 | 43.374 | 17.057 | 33.621 | 2 |
| 2025-09-09T01:28:00 | 57.517499 | 8.482449 | 2.0 | 16.879 | 2 | 43.374 | 17.054 | 33.624 | 2 |
| 2025-09-09T01:29:00 | 57.519878 | 8.479520 | 2.0 | 16.871 | 2 | 43.370 | 17.043 | 33.630 | 2 |
| 2025-09-09T01:30:00 | 57.522238 | 8.476574 | 2.0 | 16.855 | 2 | 43.369 | 17.036 | 33.635 | 2 |
| 2025-09-09T01:31:00 | 57.524586 | 8.473612 | 2.0 | 16.829 | 2 | 43.361 | 17.016 | 33.644 | 2 |
| 2025-09-09T01:32:00 | 57.526950 | 8.470676 | 2.0 | 16.820 | 2 | 43.349 | 16.995 | 33.651 | 2 |
| 2025-09-09T01:33:00 | 57.529324 | 8.467727 | 2.0 | 16.819 | 2 | 43.342 | 16.986 | 33.653 | 2 |
| 2025-09-09T01:34:00 | 57.531696 | 8.464757 | 2.0 | 16.816 | 2 | 43.340 | 16.986 | 33.651 | 2 |
| 2025-09-09T01:35:00 | 57.534083 | 8.461810 | 2.0 | 16.826 | 2 | 43.330 | 16.982 | 33.646 | 2 |
| 2025-09-09T01:36:00 | 57.536464 | 8.458870 | 2.0 | 16.872 | 2 | 43.331 | 17.001 | 33.631 | 2 |
| 2025-09-09T01:37:00 | 57.538826 | 8.455905 | 2.0 | 16.900 | 2 | 43.364 | 17.041 | 33.626 | 2 |
| 2025-09-09T01:38:00 | 57.541187 | 8.452939 | 2.0 | 16.894 | 2 | 43.396 | 17.064 | 33.635 | 2 |
| 2025-09-09T01:39:00 | 57.543570 | 8.449981 | 2.0 | 16.846 | 2 | 43.398 | 17.052 | 33.646 | 2 |
| 2025-09-09T01:40:00 | 57.545952 | 8.447031 | 2.0 | 16.788 | 2 | 43.381 | 17.004 | 33.672 | 2 |
| 2025-09-09T01:41:00 | 57.548317 | 8.444044 | 2.0 | 16.737 | 2 | 43.371 | 16.950 | 33.708 | 2 |
| 2025-09-09T01:42:00 | 57.550682 | 8.441042 | 2.0 | 16.684 | 2 | 43.373 | 16.898 | 33.754 | 2 |
| 2025-09-09T01:43:00 | 57.553079 | 8.438128 | 2.0 | 16.649 | 2 | 43.386 | 16.847 | 33.808 | 2 |
| 2025-09-09T01:44:00 | 57.555456 | 8.435202 | 2.0 | 16.596 | 2 | 43.399 | 16.808 | 33.852 | 2 |
| 2025-09-09T01:45:00 | 57.557790 | 8.432199 | 2.0 | 16.558 | 2 | 43.402 | 16.762 | 33.894 | 2 |
| 2025-09-09T01:46:00 | 57.560157 | 8.429284 | 2.0 | 16.507 | 2 | 43.399 | 16.722 | 33.925 | 2 |
| 2025-09-09T01:47:00 | 57.562455 | 8.426234 | 2.0 | 16.348 | 2 | 43.389 | 16.663 | 33.966 | 2 |
| 2025-09-09T01:48:00 | 57.564730 | 8.423257 | 2.0 | 16.305 | 2 | 43.234 | 16.506 | 33.963 | 2 |
| 2025-09-09T01:49:00 | 57.567032 | 8.420379 | 2.0 | 16.306 | 2 | 43.171 | 16.481 | 33.929 | 2 |
| 2025-09-09T01:50:00 | 57.569345 | 8.417459 | 2.0 | 16.298 | 2 | 43.115 | 16.475 | 33.885 | 2 |
| 2025-09-09T01:51:00 | 57.571702 | 8.414513 | 2.0 | 16.302 | 2 | 43.061 | 16.469 | 33.843 | 2 |
| 2025-09-09T01:52:00 | 57.574067 | 8.411544 | 2.0 | 16.301 | 2 | 43.074 | 16.473 | 33.851 | 2 |
| 2025-09-09T01:53:00 | 57.576440 | 8.408547 | 2.0 | 16.307 | 2 | 43.059 | 16.472 | 33.839 | 2 |
| 2025-09-09T01:54:00 | 57.578811 | 8.405615 | 2.0 | 16.306 | 2 | 43.070 | 16.477 | 33.844 | 2 |
| 2025-09-09T01:55:00 | 57.581129 | 8.402620 | 2.0 | 16.299 | 2 | 43.044 | 16.473 | 33.825 | 2 |
| 2025-09-09T01:56:00 | 57.583444 | 8.399663 | 2.0 | 16.315 | 2 | 42.984 | 16.471 | 33.774 | 2 |
| 2025-09-09T01:57:00 | 57.585799 | 8.396791 | 2.0 | 16.326 | 2 | 42.978 | 16.483 | 33.758 | 2 |
| 2025-09-09T01:58:00 | 57.588111 | 8.393882 | 2.0 | 16.338 | 2 | 43.003 | 16.498 | 33.767 | 2 |
| 2025-09-09T01:59:00 | 57.590403 | 8.390966 | 2.0 | 16.323 | 2 | 43.018 | 16.503 | 33.776 | 2 |
| 2025-09-09T02:00:00 | 57.592682 | 8.388068 | 2.0 | 16.345 | 2 | 43.008 | 16.495 | 33.774 | 2 |
| 2025-09-09T02:01:00 | 57.594995 | 8.385250 | 2.0 | 16.337 | 2 | 43.019 | 16.509 | 33.772 | 2 |
| 2025-09-09T02:02:00 | 57.597295 | 8.382366 | 2.0 | 16.357 | 2 | 43.005 | 16.506 | 33.762 | 2 |
| 2025-09-09T02:03:00 | 57.599612 | 8.379500 | 2.0 | 16.368 | 2 | 43.022 | 16.524 | 33.762 | 2 |
| 2025-09-09T02:04:00 | 57.601940 | 8.376600 | 2.0 | 16.384 | 2 | 43.039 | 16.538 | 33.765 | 2 |
| 2025-09-09T02:05:00 | 57.604277 | 8.373696 | 2.0 | 16.384 | 2 | 43.070 | 16.549 | 33.783 | 2 |
| 2025-09-09T02:06:00 | 57.606605 | 8.370776 | 2.0 | 16.405 | 2 | 43.134 | 16.555 | 33.834 | 2 |
| 2025-09-09T02:07:00 | 57.608949 | 8.367899 | 2.0 | 16.403 | 2 | 43.206 | 16.570 | 33.885 | 2 |
| 2025-09-09T02:08:00 | 57.611271 | 8.365000 | 2.0 | 16.401 | 2 | 43.242 | 16.569 | 33.917 | 2 |
| 2025-09-09T02:09:00 | 57.613595 | 8.362110 | 2.0 | 16.406 | 2 | 43.259 | 16.568 | 33.933 | 2 |
| 2025-09-09T02:10:00 | 57.615883 | 8.359137 | 2.0 | 16.449 | 2 | 43.319 | 16.585 | 33.971 | 2 |
| 2025-09-09T02:11:00 | 57.618161 | 8.356234 | 2.0 | 16.470 | 2 | 43.410 | 16.610 | 34.029 | 2 |
| 2025-09-09T02:12:00 | 57.620446 | 8.353371 | 2.0 | 16.514 | 2 | 43.428 | 16.645 | 34.015 | 2 |
| 2025-09-09T02:13:00 | 57.622712 | 8.350481 | 2.0 | 16.508 | 2 | 43.444 | 16.671 | 34.007 | 2 |
| 2025-09-09T02:14:00 | 57.624987 | 8.347573 | 2.0 | 16.508 | 2 | 43.434 | 16.674 | 33.996 | 2 |
| 2025-09-09T02:15:00 | 57.627278 | 8.344758 | 2.0 | 16.517 | 2 | 43.401 | 16.673 | 33.968 | 2 |
| 2025-09-09T02:16:00 | 57.629530 | 8.341884 | 2.0 | 16.450 | 2 | 43.392 | 16.684 | 33.951 | 2 |
| 2025-09-09T02:17:00 | 57.631770 | 8.338990 | 2.0 | 16.323 | 2 | 43.133 | 16.585 | 33.808 | 2 |
| 2025-09-09T02:18:00 | 57.634033 | 8.336180 | 2.0 | 16.307 | 2 | 42.895 | 16.496 | 33.674 | 2 |
| 2025-09-09T02:19:00 | 57.636287 | 8.333302 | 2.0 | 16.311 | 2 | 42.794 | 16.477 | 33.602 | 2 |
| 2025-09-09T02:20:00 | 57.638550 | 8.330429 | 2.0 | 16.315 | 2 | 42.760 | 16.481 | 33.568 | 2 |
| 2025-09-09T02:21:00 | 57.640833 | 8.327613 | 2.0 | 16.320 | 2 | 42.754 | 16.484 | 33.561 | 2 |
| 2025-09-09T02:22:00 | 57.643112 | 8.324796 | 2.0 | 16.323 | 2 | 42.753 | 16.487 | 33.557 | 2 |
| 2025-09-09T02:23:00 | 57.645368 | 8.321922 | 2.0 | 16.334 | 2 | 42.758 | 16.492 | 33.557 | 2 |
| 2025-09-09T02:24:00 | 57.647638 | 8.319049 | 2.0 | 16.343 | 2 | 42.774 | 16.503 | 33.562 | 2 |
| 2025-09-09T02:25:00 | 57.649929 | 8.316170 | 2.0 | 16.335 | 2 | 42.788 | 16.510 | 33.569 | 2 |
| 2025-09-09T02:26:00 | 57.652225 | 8.313284 | 2.0 | 16.330 | 2 | 42.777 | 16.501 | 33.567 | 2 |
| 2025-09-09T02:27:00 | 57.654504 | 8.310396 | 2.0 | 16.325 | 2 | 42.765 | 16.497 | 33.559 | 2 |
| 2025-09-09T02:28:00 | 57.656782 | 8.307490 | 2.0 | 16.335 | 2 | 42.746 | 16.495 | 33.544 | 2 |
| 2025-09-09T02:29:00 | 57.659063 | 8.304589 | 2.0 | 16.333 | 2 | 42.742 | 16.501 | 33.536 | 2 |
| 2025-09-09T02:30:00 | 57.661353 | 8.301689 | 2.0 | 16.333 | 2 | 42.733 | 16.501 | 33.528 | 2 |
| 2025-09-09T02:31:00 | 57.663638 | 8.298795 | 2.0 | 16.336 | 2 | 42.733 | 16.502 | 33.527 | 2 |
| 2025-09-09T02:32:00 | 57.665914 | 8.295891 | 2.0 | 16.329 | 2 | 42.730 | 16.503 | 33.524 | 2 |
| 2025-09-09T02:33:00 | 57.668220 | 8.293042 | 2.0 | 16.337 | 2 | 42.720 | 16.499 | 33.518 | 2 |
| 2025-09-09T02:34:00 | 57.670848 | 8.291627 | 2.0 | 16.347 | 2 | 42.733 | 16.506 | 33.524 | 2 |
| 2025-09-09T02:35:00 | 57.673439 | 8.293489 | 2.0 | 16.328 | 2 | 42.746 | 16.513 | 33.529 | 2 |
| 2025-09-09T02:36:00 | 57.674788 | 8.297985 | 2.0 | 16.289 | 2 | 42.691 | 16.490 | 33.500 | 2 |
| 2025-09-09T02:37:00 | 57.674406 | 8.303140 | 2.0 | 16.296 | 2 | 42.630 | 16.462 | 33.470 | 2 |
| 2025-09-09T02:38:00 | 57.672648 | 8.307177 | 2.0 | 16.306 | 2 | 42.616 | 16.460 | 33.460 | 2 |
| 2025-09-09T02:39:00 | 57.670803 | 8.311207 | 2.0 | 16.305 | 2 | 42.638 | 16.475 | 33.466 | 2 |
| 2025-09-09T02:40:00 | 57.668951 | 8.315254 | 2.0 | 16.306 | 2 | 42.638 | 16.472 | 33.469 | 2 |
| 2025-09-09T02:41:00 | 57.667126 | 8.319374 | 2.0 | 16.334 | 2 | 42.664 | 16.480 | 33.485 | 2 |
| 2025-09-09T02:42:00 | 57.665291 | 8.323474 | 2.0 | 16.328 | 2 | 42.723 | 16.498 | 33.522 | 2 |
| 2025-09-09T02:43:00 | 57.663490 | 8.327622 | 2.0 | 16.336 | 2 | 42.743 | 16.493 | 33.543 | 2 |
| 2025-09-09T02:44:00 | 57.661683 | 8.331789 | 2.0 | 16.351 | 2 | 42.757 | 16.507 | 33.544 | 2 |
| 2025-09-09T02:45:00 | 57.659823 | 8.335894 | 2.0 | 16.350 | 2 | 42.767 | 16.516 | 33.545 | 2 |
| 2025-09-09T02:46:00 | 57.657967 | 8.340007 | 2.0 | 16.346 | 2 | 42.768 | 16.515 | 33.547 | 2 |
| 2025-09-09T02:47:00 | 57.656102 | 8.344103 | 2.0 | 16.343 | 2 | 42.767 | 16.512 | 33.549 | 2 |
| 2025-09-09T02:48:00 | 57.654262 | 8.348236 | 2.0 | 16.340 | 2 | 42.767 | 16.509 | 33.551 | 2 |
| 2025-09-09T02:49:00 | 57.652417 | 8.352406 | 2.0 | 16.335 | 2 | 42.767 | 16.507 | 33.553 | 2 |
| 2025-09-09T02:50:00 | 57.650552 | 8.356552 | 2.0 | 16.333 | 2 | 42.767 | 16.502 | 33.557 | 2 |
| 2025-09-09T02:51:00 | 57.648704 | 8.360737 | 2.0 | 16.329 | 2 | 42.768 | 16.500 | 33.559 | 2 |
| 2025-09-09T02:52:00 | 57.646849 | 8.364913 | 2.0 | 16.323 | 2 | 42.770 | 16.496 | 33.565 | 2 |
| 2025-09-09T02:53:00 | 57.644813 | 8.368736 | 2.0 | 16.310 | 2 | 42.774 | 16.489 | 33.574 | 2 |
| 2025-09-09T02:54:00 | 57.642608 | 8.372184 | 2.0 | 16.325 | 2 | 42.791 | 16.478 | 33.598 | 2 |
| 2025-09-09T02:55:00 | 57.640131 | 8.374832 | 2.0 | 16.421 | 2 | 42.924 | 16.510 | 33.688 | 2 |
| 2025-09-09T02:56:00 | 57.637485 | 8.376668 | 2.0 | 16.485 | 2 | 43.141 | 16.592 | 33.809 | 2 |
| 2025-09-09T02:57:00 | 57.634743 | 8.377492 | 2.0 | 16.502 | 2 | 43.297 | 16.649 | 33.897 | 2 |
| 2025-09-09T02:58:00 | 57.632002 | 8.377364 | 2.0 | 16.504 | 2 | 43.354 | 16.666 | 33.933 | 2 |
| 2025-09-09T02:59:00 | 57.629336 | 8.376381 | 2.0 | 16.497 | 2 | 43.365 | 16.668 | 33.941 | 2 |
| 2025-09-09T03:00:00 | 57.626843 | 8.374565 | 2.0 | 16.497 | 2 | 43.367 | 16.662 | 33.948 | 2 |
| 2025-09-09T03:01:00 | 57.624585 | 8.371953 | 2.0 | 16.504 | 2 | 43.400 | 16.666 | 33.973 | 2 |
| 2025-09-09T03:02:00 | 57.622595 | 8.368738 | 2.0 | 16.497 | 2 | 43.414 | 16.667 | 33.985 | 2 |
| 2025-09-09T03:03:00 | 57.620892 | 8.365033 | 2.0 | 16.505 | 2 | 43.408 | 16.663 | 33.983 | 2 |
| 2025-09-09T03:04:00 | 57.619613 | 8.360804 | 2.0 | 16.510 | 2 | 43.434 | 16.673 | 33.997 | 2 |
| 2025-09-09T03:05:00 | 57.618741 | 8.356263 | 2.0 | 16.500 | 2 | 43.455 | 16.674 | 34.014 | 2 |
| 2025-09-09T03:06:00 | 57.618229 | 8.351535 | 2.0 | 16.489 | 2 | 43.449 | 16.663 | 34.019 | 2 |
| 2025-09-09T03:07:00 | 57.617896 | 8.346716 | 2.0 | 16.495 | 2 | 43.442 | 16.656 | 34.018 | 2 |
| 2025-09-09T03:08:00 | 57.617872 | 8.341854 | 2.0 | 16.382 | 2 | 43.429 | 16.655 | 34.008 | 2 |
| 2025-09-09T03:09:00 | 57.618302 | 8.337046 | 2.0 | 16.295 | 2 | 43.034 | 16.531 | 33.767 | 2 |
| 2025-09-09T03:10:00 | 57.619214 | 8.332415 | 2.0 | 16.293 | 2 | 42.824 | 16.467 | 33.636 | 2 |
| 2025-09-09T03:11:00 | 57.620413 | 8.327990 | 2.0 | 16.297 | 2 | 42.774 | 16.464 | 33.595 | 2 |
| 2025-09-09T03:12:00 | 57.622084 | 8.324092 | 2.0 | 16.308 | 2 | 42.755 | 16.467 | 33.576 | 2 |
| 2025-09-09T03:13:00 | 57.624096 | 8.320761 | 2.0 | 16.324 | 2 | 42.760 | 16.478 | 33.571 | 2 |
| 2025-09-09T03:14:00 | 57.626375 | 8.318015 | 2.0 | 16.334 | 2 | 42.767 | 16.492 | 33.565 | 2 |
| 2025-09-09T03:15:00 | 57.628937 | 8.316168 | 2.0 | 16.347 | 2 | 42.788 | 16.502 | 33.575 | 2 |
| 2025-09-09T03:16:00 | 57.631649 | 8.314929 | 2.0 | 16.357 | 2 | 42.814 | 16.514 | 33.588 | 2 |
| 2025-09-09T03:17:00 | 57.634477 | 8.314687 | 2.0 | 16.303 | 2 | 42.833 | 16.520 | 33.600 | 2 |
| 2025-09-09T03:18:00 | 57.637238 | 8.315520 | 2.0 | 16.279 | 2 | 42.733 | 16.460 | 33.562 | 2 |
| 2025-09-09T03:19:00 | 57.639859 | 8.317143 | 2.0 | 16.301 | 2 | 42.686 | 16.451 | 33.529 | 2 |
| 2025-09-09T03:20:00 | 57.642327 | 8.319478 | 2.0 | 16.315 | 2 | 42.699 | 16.471 | 33.523 | 2 |
| 2025-09-09T03:21:00 | 57.644573 | 8.322562 | 2.0 | 16.320 | 2 | 42.709 | 16.481 | 33.524 | 2 |
| 2025-09-09T03:22:00 | 57.646568 | 8.326233 | 2.0 | 16.328 | 2 | 42.715 | 16.488 | 33.523 | 2 |
| 2025-09-09T03:23:00 | 57.648156 | 8.330548 | 2.0 | 16.316 | 2 | 42.720 | 16.493 | 33.523 | 2 |
| 2025-09-09T03:24:00 | 57.649286 | 8.335236 | 2.0 | 16.302 | 2 | 42.712 | 16.479 | 33.528 | 2 |
| 2025-09-09T03:25:00 | 57.649983 | 8.340166 | 2.0 | 16.334 | 2 | 42.731 | 16.473 | 33.550 | 2 |
| 2025-09-09T03:26:00 | 57.650260 | 8.345238 | 2.0 | 16.341 | 2 | 42.780 | 16.500 | 33.570 | 2 |
| 2025-09-09T03:27:00 | 57.650036 | 8.350293 | 2.0 | 16.333 | 2 | 42.786 | 16.505 | 33.571 | 2 |
| 2025-09-09T03:28:00 | 57.649360 | 8.355195 | 2.0 | 16.324 | 2 | 42.771 | 16.497 | 33.565 | 2 |
| 2025-09-09T03:29:00 | 57.648257 | 8.359793 | 2.0 | 16.321 | 2 | 42.756 | 16.490 | 33.557 | 2 |
| 2025-09-09T03:30:00 | 57.646872 | 8.364090 | 2.0 | 16.317 | 2 | 42.750 | 16.486 | 33.555 | 2 |
| 2025-09-09T03:31:00 | 57.645294 | 8.368127 | 2.0 | 16.314 | 2 | 42.744 | 16.482 | 33.554 | 2 |
| 2025-09-09T03:32:00 | 57.642852 | 8.370026 | 2.0 | 16.311 | 2 | 42.757 | 16.480 | 33.567 | 2 |
| 2025-09-09T03:33:00 | 57.640476 | 8.368407 | 2.0 | 16.319 | 2 | 42.764 | 16.478 | 33.574 | 2 |
| 2025-09-09T03:34:00 | 57.639568 | 8.364141 | 2.0 | 16.312 | 2 | 42.772 | 16.484 | 33.576 | 2 |
| 2025-09-09T03:35:00 | 57.640794 | 8.360290 | 2.0 | 16.311 | 2 | 42.753 | 16.479 | 33.564 | 2 |
| 2025-09-09T03:36:00 | 57.643151 | 8.358138 | 2.0 | 16.316 | 2 | 42.746 | 16.478 | 33.559 | 2 |
| 2025-09-09T03:37:00 | 57.645265 | 8.355078 | 2.0 | 16.332 | 2 | 42.754 | 16.486 | 33.559 | 2 |
| 2025-09-09T03:38:00 | 57.647383 | 8.352098 | 2.0 | 16.343 | 2 | 42.773 | 16.499 | 33.565 | 2 |
| 2025-09-09T03:39:00 | 57.649334 | 8.349126 | 2.0 | 16.345 | 2 | 42.789 | 16.509 | 33.570 | 2 |
| 2025-09-09T03:40:00 | 57.651285 | 8.346260 | 2.0 | 16.319 | 2 | 42.793 | 16.509 | 33.574 | 2 |
| 2025-09-09T03:41:00 | 57.653146 | 8.343334 | 2.0 | 16.309 | 2 | 42.759 | 16.483 | 33.566 | 2 |
| 2025-09-09T03:42:00 | 57.654541 | 8.340729 | 2.0 | 16.312 | 2 | 42.737 | 16.476 | 33.552 | 2 |
| 2025-09-09T03:43:00 | 57.655697 | 8.338955 | 2.0 | 16.316 | 2 | 42.733 | 16.477 | 33.548 | 2 |
| 2025-09-09T03:44:00 | 57.656675 | 8.337761 | 2.0 | 16.324 | 2 | 42.732 | 16.481 | 33.544 | 2 |
| 2025-09-09T03:45:00 | 57.657296 | 8.336897 | 2.0 | 16.327 | 2 | 42.734 | 16.489 | 33.539 | 2 |
| 2025-09-09T03:46:00 | 57.657288 | 8.336228 | 2.0 | 16.327 | 2 | 42.733 | 16.491 | 33.536 | 2 |
| 2025-09-09T03:47:00 | 57.657159 | 8.335766 | 2.0 | 16.327 | 2 | 42.732 | 16.491 | 33.535 | 2 |
| 2025-09-09T03:48:00 | 57.657017 | 8.335388 | 2.0 | 16.327 | 2 | 42.730 | 16.491 | 33.534 | 2 |
| 2025-09-09T03:49:00 | 57.656910 | 8.335026 | 2.0 | 16.328 | 2 | 42.729 | 16.491 | 33.533 | 2 |
| 2025-09-09T03:50:00 | 57.656863 | 8.334698 | 2.0 | 16.325 | 2 | 42.727 | 16.490 | 33.532 | 2 |
| 2025-09-09T03:51:00 | 57.656849 | 8.334555 | 2.0 | 16.323 | 2 | 42.723 | 16.488 | 33.530 | 2 |
| 2025-09-09T03:52:00 | 57.656829 | 8.334398 | 2.0 | 16.320 | 2 | 42.720 | 16.486 | 33.529 | 2 |
| 2025-09-09T03:53:00 | 57.656778 | 8.334276 | 2.0 | 16.319 | 2 | 42.714 | 16.483 | 33.526 | 2 |
| 2025-09-09T03:54:00 | 57.656719 | 8.334162 | 2.0 | 16.320 | 2 | 42.712 | 16.482 | 33.525 | 2 |
| 2025-09-09T03:55:00 | 57.656654 | 8.334050 | 2.0 | 16.320 | 2 | 42.711 | 16.482 | 33.525 | 2 |
| 2025-09-09T03:56:00 | 57.656580 | 8.333937 | 2.0 | 16.322 | 2 | 42.711 | 16.483 | 33.524 | 2 |
| 2025-09-09T03:57:00 | 57.656517 | 8.333829 | 2.0 | 16.324 | 2 | 42.712 | 16.485 | 33.523 | 2 |
| 2025-09-09T03:58:00 | 57.656464 | 8.333731 | 2.0 | 16.325 | 2 | 42.713 | 16.487 | 33.522 | 2 |
| 2025-09-09T03:59:00 | 57.656409 | 8.333635 | 2.0 | 16.325 | 2 | 42.713 | 16.488 | 33.521 | 2 |
| 2025-09-09T04:00:00 | 57.656347 | 8.333547 | 2.0 | 16.327 | 2 | 42.713 | 16.488 | 33.521 | 2 |
| 2025-09-09T04:01:00 | 57.656275 | 8.333462 | 2.0 | 16.329 | 2 | 42.715 | 16.490 | 33.521 | 2 |
| 2025-09-09T04:02:00 | 57.656180 | 8.333354 | 2.0 | 16.332 | 2 | 42.716 | 16.492 | 33.521 | 2 |
| 2025-09-09T04:03:00 | 57.656095 | 8.333215 | 2.0 | 16.332 | 2 | 42.718 | 16.494 | 33.521 | 2 |
| 2025-09-09T04:04:00 | 57.656036 | 8.333057 | 2.0 | 16.335 | 2 | 42.718 | 16.496 | 33.519 | 2 |
| 2025-09-09T04:05:00 | 57.655988 | 8.332901 | 2.0 | 16.335 | 2 | 42.720 | 16.498 | 33.519 | 2 |
| 2025-09-09T04:06:00 | 57.655923 | 8.332707 | 2.0 | 16.336 | 2 | 42.720 | 16.498 | 33.519 | 2 |
| 2025-09-09T04:07:00 | 57.655906 | 8.332517 | 2.0 | 16.337 | 2 | 42.719 | 16.498 | 33.518 | 2 |
| 2025-09-09T04:08:00 | 57.655919 | 8.332462 | 2.0 | 16.339 | 2 | 42.720 | 16.499 | 33.518 | 2 |
| 2025-09-09T04:09:00 | 57.655894 | 8.332337 | 2.0 | 16.339 | 2 | 42.722 | 16.501 | 33.518 | 2 |
| 2025-09-09T04:10:00 | 57.655885 | 8.332154 | 2.0 | 16.340 | 2 | 42.723 | 16.503 | 33.517 | 2 |
| 2025-09-09T04:11:00 | 57.655894 | 8.331963 | 2.0 | 16.342 | 2 | 42.723 | 16.503 | 33.517 | 2 |
| 2025-09-09T04:12:00 | 57.655864 | 8.331726 | 2.0 | 16.341 | 2 | 42.723 | 16.504 | 33.517 | 2 |
| 2025-09-09T04:13:00 | 57.655851 | 8.331471 | 2.0 | 16.343 | 2 | 42.724 | 16.505 | 33.517 | 2 |
| 2025-09-09T04:14:00 | 57.655863 | 8.331344 | 2.0 | 16.344 | 2 | 42.725 | 16.506 | 33.517 | 2 |
| 2025-09-09T04:15:00 | 57.655847 | 8.331201 | 2.0 | 16.345 | 2 | 42.726 | 16.507 | 33.517 | 2 |
| 2025-09-09T04:16:00 | 57.655815 | 8.331013 | 2.0 | 16.346 | 2 | 42.727 | 16.509 | 33.516 | 2 |
| 2025-09-09T04:17:00 | 57.655772 | 8.330584 | 2.0 | 16.347 | 2 | 42.726 | 16.508 | 33.516 | 2 |
| 2025-09-09T04:18:00 | 57.655869 | 8.329959 | 2.0 | 16.346 | 2 | 42.728 | 16.509 | 33.517 | 2 |
| 2025-09-09T04:19:00 | 57.656125 | 8.329934 | 2.0 | 16.346 | 2 | 42.728 | 16.509 | 33.517 | 2 |
| 2025-09-09T04:20:00 | 57.656399 | 8.330500 | 2.0 | 16.344 | 2 | 42.727 | 16.508 | 33.517 | 2 |
| 2025-09-09T04:21:00 | 57.656750 | 8.331600 | 2.0 | 16.342 | 2 | 42.726 | 16.507 | 33.517 | 2 |
| 2025-09-09T04:22:00 | 57.657000 | 8.332728 | 2.0 | 16.341 | 2 | 42.725 | 16.507 | 33.516 | 2 |
| 2025-09-09T04:23:00 | 57.657060 | 8.333695 | 2.0 | 16.339 | 2 | 42.723 | 16.503 | 33.517 | 2 |
| 2025-09-09T04:24:00 | 57.656995 | 8.334419 | 2.0 | 16.340 | 2 | 42.722 | 16.502 | 33.517 | 2 |
| 2025-09-09T04:25:00 | 57.656798 | 8.334983 | 2.0 | 16.339 | 2 | 42.723 | 16.503 | 33.517 | 2 |
| 2025-09-09T04:26:00 | 57.656488 | 8.335599 | 2.0 | 16.338 | 2 | 42.723 | 16.502 | 33.518 | 2 |
| 2025-09-09T04:27:00 | 57.656147 | 8.336233 | 2.0 | 16.339 | 2 | 42.722 | 16.503 | 33.517 | 2 |
| 2025-09-09T04:28:00 | 57.655800 | 8.336850 | 2.0 | 16.339 | 2 | 42.722 | 16.503 | 33.517 | 2 |
| 2025-09-09T04:29:00 | 57.655439 | 8.337440 | 2.0 | 16.340 | 2 | 42.723 | 16.503 | 33.517 | 2 |
| 2025-09-09T04:30:00 | 57.655071 | 8.338014 | 2.0 | 16.341 | 2 | 42.723 | 16.503 | 33.517 | 2 |
| 2025-09-09T04:31:00 | 57.654696 | 8.338588 | 2.0 | 16.343 | 2 | 42.725 | 16.505 | 33.518 | 2 |
| 2025-09-09T04:32:00 | 57.654313 | 8.339151 | 2.0 | 16.347 | 2 | 42.727 | 16.507 | 33.518 | 2 |
| 2025-09-09T04:33:00 | 57.653926 | 8.339708 | 2.0 | 16.348 | 2 | 42.729 | 16.510 | 33.517 | 2 |
| 2025-09-09T04:34:00 | 57.653535 | 8.340273 | 2.0 | 16.350 | 2 | 42.732 | 16.513 | 33.517 | 2 |
| 2025-09-09T04:35:00 | 57.653139 | 8.340843 | 2.0 | 16.351 | 2 | 42.734 | 16.514 | 33.518 | 2 |
| 2025-09-09T04:36:00 | 57.652738 | 8.341419 | 2.0 | 16.354 | 2 | 42.735 | 16.515 | 33.518 | 2 |
| 2025-09-09T04:37:00 | 57.652339 | 8.341980 | 2.0 | 16.357 | 2 | 42.738 | 16.517 | 33.519 | 2 |
| 2025-09-09T04:38:00 | 57.651925 | 8.342554 | 2.0 | 16.358 | 2 | 42.741 | 16.519 | 33.520 | 2 |
| 2025-09-09T04:39:00 | 57.651476 | 8.343185 | 2.0 | 16.359 | 2 | 42.742 | 16.521 | 33.519 | 2 |
| 2025-09-09T04:40:00 | 57.650996 | 8.343880 | 2.0 | 16.360 | 2 | 42.744 | 16.522 | 33.520 | 2 |
| 2025-09-09T04:41:00 | 57.650501 | 8.344620 | 2.0 | 16.362 | 2 | 42.745 | 16.524 | 33.519 | 2 |
| 2025-09-09T04:42:00 | 57.650002 | 8.345370 | 2.0 | 16.364 | 2 | 42.747 | 16.526 | 33.519 | 2 |
| 2025-09-09T04:43:00 | 57.649503 | 8.346129 | 2.0 | 16.367 | 2 | 42.750 | 16.528 | 33.520 | 2 |
| 2025-09-09T04:44:00 | 57.649014 | 8.346895 | 2.0 | 16.367 | 2 | 42.755 | 16.530 | 33.523 | 2 |
| 2025-09-09T04:45:00 | 57.648525 | 8.347647 | 2.0 | 16.370 | 2 | 42.757 | 16.531 | 33.524 | 2 |
| 2025-09-09T04:46:00 | 57.648042 | 8.348409 | 2.0 | 16.369 | 2 | 42.759 | 16.533 | 33.524 | 2 |
| 2025-09-09T04:47:00 | 57.647566 | 8.349164 | 2.0 | 16.366 | 2 | 42.758 | 16.532 | 33.524 | 2 |
| 2025-09-09T04:48:00 | 57.647093 | 8.349913 | 2.0 | 16.364 | 2 | 42.756 | 16.530 | 33.524 | 2 |
| 2025-09-09T04:49:00 | 57.646616 | 8.350653 | 2.0 | 16.357 | 2 | 42.752 | 16.525 | 33.524 | 2 |
| 2025-09-09T04:50:00 | 57.646153 | 8.351389 | 2.0 | 16.354 | 2 | 42.743 | 16.520 | 33.521 | 2 |
| 2025-09-09T04:51:00 | 57.645695 | 8.352101 | 2.0 | 16.347 | 2 | 42.741 | 16.516 | 33.522 | 2 |
| 2025-09-09T04:52:00 | 57.645248 | 8.352814 | 2.0 | 16.340 | 2 | 42.735 | 16.510 | 33.522 | 2 |
| 2025-09-09T04:53:00 | 57.644801 | 8.353520 | 2.0 | 16.336 | 2 | 42.727 | 16.503 | 33.521 | 2 |
| 2025-09-09T04:54:00 | 57.644352 | 8.354205 | 2.0 | 16.329 | 2 | 42.722 | 16.498 | 33.521 | 2 |
| 2025-09-09T04:55:00 | 57.643918 | 8.354885 | 2.0 | 16.323 | 2 | 42.716 | 16.492 | 33.521 | 2 |
| 2025-09-09T04:56:00 | 57.643479 | 8.355538 | 2.0 | 16.313 | 2 | 42.708 | 16.484 | 33.520 | 2 |
| 2025-09-09T04:57:00 | 57.643048 | 8.356187 | 2.0 | 16.313 | 2 | 42.703 | 16.478 | 33.521 | 2 |
| 2025-09-09T04:58:00 | 57.642624 | 8.356820 | 2.0 | 16.311 | 2 | 42.705 | 16.477 | 33.524 | 2 |
| 2025-09-09T04:59:00 | 57.642190 | 8.357446 | 2.0 | 16.307 | 2 | 42.703 | 16.474 | 33.524 | 2 |
| 2025-09-09T05:00:00 | 57.641753 | 8.358090 | 2.0 | 16.305 | 2 | 42.701 | 16.470 | 33.526 | 2 |
| 2025-09-09T05:01:00 | 57.641294 | 8.358769 | 2.0 | 16.303 | 2 | 42.701 | 16.468 | 33.528 | 2 |
| 2025-09-09T05:02:00 | 57.640815 | 8.359473 | 2.0 | 16.298 | 2 | 42.701 | 16.466 | 33.529 | 2 |
| 2025-09-09T05:03:00 | 57.640316 | 8.360180 | 2.0 | 16.293 | 2 | 42.696 | 16.460 | 33.530 | 2 |
| 2025-09-09T05:04:00 | 57.639812 | 8.360913 | 2.0 | 16.284 | 2 | 42.691 | 16.455 | 33.530 | 2 |
| 2025-09-09T05:05:00 | 57.639300 | 8.361655 | 2.0 | 16.275 | 2 | 42.683 | 16.446 | 33.530 | 2 |
| 2025-09-09T05:06:00 | 57.638783 | 8.362408 | 2.0 | 16.270 | 2 | 42.676 | 16.439 | 33.530 | 2 |
| 2025-09-09T05:07:00 | 57.638261 | 8.363164 | 2.0 | 16.268 | 2 | 42.670 | 16.433 | 33.530 | 2 |
| 2025-09-09T05:08:00 | 57.637731 | 8.363927 | 2.0 | 16.267 | 2 | 42.673 | 16.432 | 33.533 | 2 |
| 2025-09-09T05:09:00 | 57.637197 | 8.364685 | 2.0 | 16.267 | 2 | 42.674 | 16.431 | 33.535 | 2 |
| 2025-09-09T05:10:00 | 57.636656 | 8.365444 | 2.0 | 16.263 | 2 | 42.674 | 16.430 | 33.536 | 2 |
| 2025-09-09T05:11:00 | 57.636129 | 8.366205 | 2.0 | 16.264 | 2 | 42.674 | 16.428 | 33.537 | 2 |
| 2025-09-09T05:12:00 | 57.635615 | 8.366907 | 2.0 | 16.271 | 2 | 42.680 | 16.428 | 33.543 | 2 |
| 2025-09-09T05:13:00 | 57.635125 | 8.367586 | 2.0 | 16.276 | 2 | 42.695 | 16.435 | 33.550 | 2 |
| 2025-09-09T05:14:00 | 57.634639 | 8.368220 | 2.0 | 16.299 | 2 | 42.711 | 16.443 | 33.557 | 2 |
| 2025-09-09T05:15:00 | 57.634149 | 8.368877 | 2.0 | 16.337 | 2 | 42.757 | 16.470 | 33.575 | 2 |
| 2025-09-09T05:16:00 | 57.633652 | 8.369563 | 2.0 | 16.339 | 2 | 42.802 | 16.497 | 33.592 | 2 |
| 2025-09-09T05:17:00 | 57.633149 | 8.370260 | 2.0 | 16.338 | 2 | 42.808 | 16.501 | 33.594 | 2 |
| 2025-09-09T05:18:00 | 57.632639 | 8.370941 | 2.0 | 16.338 | 2 | 42.806 | 16.501 | 33.592 | 2 |
| 2025-09-09T05:19:00 | 57.632134 | 8.371617 | 2.0 | 16.337 | 2 | 42.803 | 16.500 | 33.590 | 2 |
| 2025-09-09T05:20:00 | 57.631634 | 8.372287 | 2.0 | 16.337 | 2 | 42.801 | 16.500 | 33.588 | 2 |
| 2025-09-09T05:21:00 | 57.631134 | 8.372952 | 2.0 | 16.337 | 2 | 42.800 | 16.500 | 33.588 | 2 |
| 2025-09-09T05:22:00 | 57.630624 | 8.373606 | 2.0 | 16.336 | 2 | 42.799 | 16.500 | 33.587 | 2 |
| 2025-09-09T05:23:00 | 57.630110 | 8.374272 | 2.0 | 16.336 | 2 | 42.796 | 16.499 | 33.585 | 2 |
| 2025-09-09T05:24:00 | 57.629594 | 8.374945 | 2.0 | 16.333 | 2 | 42.795 | 16.499 | 33.584 | 2 |
| 2025-09-09T05:25:00 | 57.629068 | 8.375626 | 2.0 | 16.325 | 2 | 42.789 | 16.493 | 33.584 | 2 |
| 2025-09-09T05:26:00 | 57.628540 | 8.376305 | 2.0 | 16.324 | 2 | 42.779 | 16.488 | 33.579 | 2 |
| 2025-09-09T05:27:00 | 57.628008 | 8.376989 | 2.0 | 16.318 | 2 | 42.773 | 16.485 | 33.576 | 2 |
| 2025-09-09T05:28:00 | 57.627479 | 8.377670 | 2.0 | 16.315 | 2 | 42.764 | 16.480 | 33.573 | 2 |
| 2025-09-09T05:29:00 | 57.626953 | 8.378361 | 2.0 | 16.312 | 2 | 42.758 | 16.478 | 33.569 | 2 |
| 2025-09-09T05:30:00 | 57.626426 | 8.379056 | 2.0 | 16.308 | 2 | 42.756 | 16.475 | 33.570 | 2 |
| 2025-09-09T05:31:00 | 57.625902 | 8.379730 | 2.0 | 16.301 | 2 | 42.750 | 16.469 | 33.570 | 2 |
| 2025-09-09T05:32:00 | 57.625389 | 8.380411 | 2.0 | 16.296 | 2 | 42.744 | 16.463 | 33.570 | 2 |
| 2025-09-09T05:33:00 | 57.624867 | 8.381069 | 2.0 | 16.296 | 2 | 42.741 | 16.459 | 33.570 | 2 |
| 2025-09-09T05:34:00 | 57.624340 | 8.381722 | 2.0 | 16.295 | 2 | 42.742 | 16.459 | 33.571 | 2 |
| 2025-09-09T05:35:00 | 57.623824 | 8.382385 | 2.0 | 16.296 | 2 | 42.739 | 16.459 | 33.568 | 2 |
| 2025-09-09T05:36:00 | 57.623299 | 8.383013 | 2.0 | 16.302 | 2 | 42.748 | 16.459 | 33.576 | 2 |
| 2025-09-09T05:37:00 | 57.622782 | 8.383636 | 2.0 | 16.305 | 2 | 42.769 | 16.465 | 33.590 | 2 |
| 2025-09-09T05:38:00 | 57.622275 | 8.384250 | 2.0 | 16.304 | 2 | 42.778 | 16.468 | 33.595 | 2 |
| 2025-09-09T05:39:00 | 57.621765 | 8.384838 | 2.0 | 16.301 | 2 | 42.778 | 16.467 | 33.596 | 2 |
| 2025-09-09T05:40:00 | 57.621268 | 8.385437 | 2.0 | 16.302 | 2 | 42.776 | 16.464 | 33.597 | 2 |
| 2025-09-09T05:41:00 | 57.620775 | 8.386022 | 2.0 | 16.309 | 2 | 42.789 | 16.467 | 33.606 | 2 |
| 2025-09-09T05:42:00 | 57.620268 | 8.386595 | 2.0 | 16.314 | 2 | 42.809 | 16.472 | 33.619 | 2 |
| 2025-09-09T05:43:00 | 57.619767 | 8.387200 | 2.0 | 16.316 | 2 | 42.825 | 16.477 | 33.629 | 2 |
| 2025-09-09T05:44:00 | 57.619254 | 8.387802 | 2.0 | 16.323 | 2 | 42.830 | 16.479 | 33.632 | 2 |
| 2025-09-09T05:45:00 | 57.618738 | 8.388392 | 2.0 | 16.329 | 2 | 42.849 | 16.487 | 33.641 | 2 |
| 2025-09-09T05:46:00 | 57.618222 | 8.388985 | 2.0 | 16.330 | 2 | 42.858 | 16.492 | 33.645 | 2 |
| 2025-09-09T05:47:00 | 57.617705 | 8.389584 | 2.0 | 16.332 | 2 | 42.869 | 16.493 | 33.654 | 2 |
| 2025-09-09T05:48:00 | 57.617188 | 8.390182 | 2.0 | 16.334 | 2 | 42.876 | 16.494 | 33.659 | 2 |
| 2025-09-09T05:49:00 | 57.616671 | 8.390764 | 2.0 | 16.339 | 2 | 42.891 | 16.495 | 33.672 | 2 |
| 2025-09-09T05:50:00 | 57.616152 | 8.391345 | 2.0 | 16.351 | 2 | 42.919 | 16.503 | 33.689 | 2 |
| 2025-09-09T05:51:00 | 57.615629 | 8.391939 | 2.0 | 16.356 | 2 | 42.949 | 16.513 | 33.707 | 2 |
| 2025-09-09T05:52:00 | 57.615104 | 8.392554 | 2.0 | 16.383 | 2 | 42.986 | 16.521 | 33.733 | 2 |
| 2025-09-09T05:53:00 | 57.614583 | 8.393206 | 2.0 | 16.415 | 2 | 43.106 | 16.551 | 33.813 | 2 |
| 2025-09-09T05:54:00 | 57.614094 | 8.393838 | 2.0 | 16.429 | 2 | 43.229 | 16.579 | 33.897 | 2 |
| 2025-09-09T05:55:00 | 57.613697 | 8.394344 | 2.0 | 16.436 | 2 | 43.292 | 16.590 | 33.943 | 2 |
| 2025-09-09T05:56:00 | 57.613369 | 8.394727 | 2.0 | 16.463 | 2 | 43.346 | 16.600 | 33.982 | 2 |
| 2025-09-09T05:57:00 | 57.613158 | 8.395097 | 2.0 | 16.467 | 2 | 43.456 | 16.625 | 34.057 | 2 |
| 2025-09-09T05:58:00 | 57.613038 | 8.395407 | 2.0 | 16.467 | 2 | 43.477 | 16.628 | 34.073 | 2 |
| 2025-09-09T05:59:00 | 57.612787 | 8.395689 | 2.0 | 16.467 | 2 | 43.479 | 16.628 | 34.075 | 2 |
| 2025-09-09T06:00:00 | 57.612598 | 8.394944 | 2.0 | 16.466 | 2 | 43.481 | 16.630 | 34.075 | 2 |
| 2025-09-09T06:01:00 | 57.613263 | 8.394004 | 2.0 | 16.430 | 2 | 43.417 | 16.620 | 34.027 | 2 |
| 2025-09-09T06:02:00 | 57.614986 | 8.394062 | 2.0 | 16.398 | 2 | 43.282 | 16.595 | 33.930 | 2 |
| 2025-09-09T06:03:00 | 57.617469 | 8.394180 | 2.0 | 16.348 | 2 | 43.076 | 16.552 | 33.786 | 2 |
| 2025-09-09T06:04:00 | 57.620177 | 8.394299 | 2.0 | 16.332 | 2 | 42.919 | 16.513 | 33.681 | 2 |
| 2025-09-09T06:05:00 | 57.622954 | 8.394456 | 2.0 | 16.323 | 2 | 42.869 | 16.498 | 33.650 | 2 |
| 2025-09-09T06:06:00 | 57.625756 | 8.394617 | 2.0 | 16.299 | 2 | 42.822 | 16.484 | 33.620 | 2 |
| 2025-09-09T06:07:00 | 57.628563 | 8.394771 | 2.0 | 16.301 | 2 | 42.760 | 16.468 | 33.579 | 2 |
| 2025-09-09T06:08:00 | 57.631380 | 8.394954 | 2.0 | 16.310 | 2 | 42.749 | 16.469 | 33.569 | 2 |
| 2025-09-09T06:09:00 | 57.634209 | 8.395159 | 2.0 | 16.329 | 2 | 42.761 | 16.480 | 33.570 | 2 |
| 2025-09-09T06:10:00 | 57.637050 | 8.395376 | 2.0 | 16.336 | 2 | 42.778 | 16.496 | 33.572 | 2 |
| 2025-09-09T06:11:00 | 57.639898 | 8.395598 | 2.0 | 16.343 | 2 | 42.789 | 16.503 | 33.575 | 2 |
| 2025-09-09T06:12:00 | 57.642757 | 8.395827 | 2.0 | 16.341 | 2 | 42.798 | 16.508 | 33.579 | 2 |
| 2025-09-09T06:13:00 | 57.645624 | 8.396087 | 2.0 | 16.316 | 2 | 42.793 | 16.502 | 33.580 | 2 |
| 2025-09-09T06:14:00 | 57.648496 | 8.396346 | 2.0 | 16.293 | 2 | 42.762 | 16.477 | 33.574 | 2 |
| 2025-09-09T06:15:00 | 57.651377 | 8.396568 | 2.0 | 16.345 | 2 | 42.747 | 16.470 | 33.566 | 2 |
| 2025-09-09T06:16:00 | 57.654265 | 8.396783 | 2.0 | 16.339 | 2 | 42.792 | 16.507 | 33.575 | 2 |
| 2025-09-09T06:17:00 | 57.657153 | 8.396990 | 2.0 | 16.332 | 2 | 42.782 | 16.502 | 33.570 | 2 |
| 2025-09-09T06:18:00 | 57.660021 | 8.397181 | 2.0 | 16.341 | 2 | 42.760 | 16.498 | 33.554 | 2 |
| 2025-09-09T06:19:00 | 57.662883 | 8.397361 | 2.0 | 16.409 | 2 | 42.758 | 16.509 | 33.543 | 2 |
| 2025-09-09T06:20:00 | 57.665692 | 8.397431 | 2.0 | 16.536 | 2 | 42.446 | 16.587 | 33.205 | 2 |
| 2025-09-09T06:21:00 | 57.668460 | 8.397508 | 2.0 | 16.511 | 2 | 42.064 | 16.689 | 32.788 | 2 |
| 2025-09-09T06:22:00 | 57.671225 | 8.397615 | 2.0 | 16.476 | 2 | 42.086 | 16.664 | 32.827 | 2 |
| 2025-09-09T06:23:00 | 57.673995 | 8.397732 | 2.0 | 16.483 | 2 | 42.194 | 16.639 | 32.942 | 2 |
| 2025-09-09T06:24:00 | 57.676761 | 8.397893 | 2.0 | 16.507 | 2 | 42.140 | 16.655 | 32.882 | 2 |
| 2025-09-09T06:25:00 | 57.679528 | 8.398102 | 2.0 | 16.492 | 2 | 42.088 | 16.667 | 32.827 | 2 |
| 2025-09-09T06:26:00 | 57.682292 | 8.398337 | 2.0 | 16.485 | 2 | 42.103 | 16.655 | 32.849 | 2 |
| 2025-09-09T06:27:00 | 57.685063 | 8.398555 | 2.0 | 16.476 | 2 | 42.067 | 16.649 | 32.823 | 2 |
| 2025-09-09T06:28:00 | 57.687843 | 8.398767 | 2.0 | 16.446 | 2 | 41.947 | 16.637 | 32.728 | 2 |
| 2025-09-09T06:29:00 | 57.690641 | 8.398954 | 2.0 | 16.447 | 2 | 42.044 | 16.606 | 32.838 | 2 |
| 2025-09-09T06:30:00 | 57.693453 | 8.399085 | 2.0 | 16.439 | 2 | 42.173 | 16.611 | 32.947 | 2 |
| 2025-09-09T06:31:00 | 57.696280 | 8.399165 | 2.0 | 16.420 | 2 | 42.194 | 16.599 | 32.975 | 2 |
| 2025-09-09T06:32:00 | 57.699084 | 8.399191 | 2.0 | 16.433 | 2 | 42.210 | 16.587 | 32.999 | 2 |
| 2025-09-09T06:33:00 | 57.701880 | 8.399207 | 2.0 | 16.450 | 2 | 42.171 | 16.600 | 32.954 | 2 |
| 2025-09-09T06:34:00 | 57.704668 | 8.399222 | 2.0 | 16.488 | 2 | 42.134 | 16.619 | 32.906 | 2 |
| 2025-09-09T06:35:00 | 57.707446 | 8.399218 | 2.0 | 16.516 | 2 | 42.091 | 16.661 | 32.834 | 2 |
| 2025-09-09T06:36:00 | 57.710210 | 8.399241 | 2.0 | 16.520 | 2 | 42.044 | 16.676 | 32.781 | 2 |
| 2025-09-09T06:37:00 | 57.712965 | 8.399268 | 2.0 | 16.527 | 2 | 42.032 | 16.685 | 32.763 | 2 |
| 2025-09-09T06:38:00 | 57.715729 | 8.399294 | 2.0 | 16.512 | 2 | 42.056 | 16.688 | 32.781 | 2 |
| 2025-09-09T06:39:00 | 57.718498 | 8.399351 | 2.0 | 16.496 | 2 | 42.107 | 16.674 | 32.837 | 2 |
| 2025-09-09T06:40:00 | 57.720985 | 8.399381 | 2.0 | 16.487 | 2 | 42.134 | 16.660 | 32.872 | 2 |
| 2025-09-09T06:41:00 | 57.722294 | 8.400959 | 2.0 | 16.483 | 2 | 42.146 | 16.649 | 32.892 | 2 |
| 2025-09-09T06:42:00 | 57.721773 | 8.402974 | 2.0 | 16.486 | 2 | 42.168 | 16.646 | 32.913 | 2 |
| 2025-09-09T06:43:00 | 57.720227 | 8.402633 | 2.0 | 16.495 | 2 | 42.143 | 16.650 | 32.888 | 2 |
| 2025-09-09T06:44:00 | 57.718021 | 8.401777 | 2.0 | 16.501 | 2 | 41.936 | 16.658 | 32.702 | 2 |
| 2025-09-09T06:45:00 | 57.715539 | 8.401101 | 2.0 | 16.516 | 2 | 42.138 | 16.667 | 32.870 | 2 |
| 2025-09-09T06:46:00 | 57.712956 | 8.400852 | 2.0 | 16.522 | 2 | 42.103 | 16.680 | 32.829 | 2 |
| 2025-09-09T06:47:00 | 57.710338 | 8.400739 | 2.0 | 16.519 | 2 | 42.067 | 16.684 | 32.794 | 2 |
| 2025-09-09T06:48:00 | 57.707710 | 8.400613 | 2.0 | 16.512 | 2 | 42.038 | 16.679 | 32.773 | 2 |
| 2025-09-09T06:49:00 | 57.705081 | 8.400481 | 2.0 | 16.493 | 2 | 42.061 | 16.678 | 32.794 | 2 |
| 2025-09-09T06:50:00 | 57.702466 | 8.400357 | 2.0 | 16.454 | 2 | 42.122 | 16.649 | 32.871 | 2 |
| 2025-09-09T06:51:00 | 57.699863 | 8.400254 | 2.0 | 16.440 | 2 | 42.164 | 16.617 | 32.934 | 2 |
| 2025-09-09T06:52:00 | 57.697269 | 8.400136 | 2.0 | 16.420 | 2 | 42.017 | 16.601 | 32.819 | 2 |
| 2025-09-09T06:53:00 | 57.694678 | 8.400078 | 2.0 | 16.422 | 2 | 42.097 | 16.586 | 32.901 | 2 |
| 2025-09-09T06:54:00 | 57.692098 | 8.400062 | 2.0 | 16.425 | 2 | 42.092 | 16.588 | 32.895 | 2 |
| 2025-09-09T06:55:00 | 57.689516 | 8.400104 | 2.0 | 16.481 | 2 | 42.026 | 16.597 | 32.830 | 2 |
| 2025-09-09T06:56:00 | 57.686934 | 8.400112 | 2.0 | 16.561 | 2 | 41.627 | 16.657 | 32.433 | 2 |
| 2025-09-09T06:57:00 | 57.684350 | 8.400091 | 2.0 | 16.590 | 2 | 41.906 | 16.728 | 32.618 | 2 |
| 2025-09-09T06:58:00 | 57.681759 | 8.400072 | 2.0 | 16.523 | 2 | 41.927 | 16.740 | 32.627 | 2 |
| 2025-09-09T06:59:00 | 57.679168 | 8.400051 | 2.0 | 16.509 | 2 | 41.968 | 16.682 | 32.710 | 2 |
| 2025-09-09T07:00:00 | 57.676566 | 8.400008 | 2.0 | 16.491 | 2 | 41.946 | 16.670 | 32.700 | 2 |
| 2025-09-09T07:01:00 | 57.673969 | 8.399933 | 2.0 | 16.488 | 2 | 41.981 | 16.657 | 32.742 | 2 |
| 2025-09-09T07:02:00 | 57.671394 | 8.399810 | 2.0 | 16.463 | 2 | 41.863 | 16.643 | 32.650 | 2 |
| 2025-09-09T07:03:00 | 57.668826 | 8.399675 | 2.0 | 16.478 | 2 | 42.156 | 16.629 | 32.917 | 2 |
| 2025-09-09T07:04:00 | 57.666287 | 8.399518 | 2.0 | 16.498 | 2 | 42.021 | 16.644 | 32.787 | 2 |
| 2025-09-09T07:05:00 | 57.663871 | 8.399338 | 2.0 | 16.494 | 2 | 41.979 | 16.663 | 32.735 | 2 |
| 2025-09-09T07:06:00 | 57.661618 | 8.399168 | 2.0 | 16.395 | 2 | 42.091 | 16.650 | 32.843 | 2 |
| 2025-09-09T07:07:00 | 57.659471 | 8.399116 | 2.0 | 16.333 | 2 | 42.390 | 16.539 | 33.196 | 2 |
| 2025-09-09T07:08:00 | 57.657421 | 8.399086 | 2.0 | 16.315 | 2 | 42.599 | 16.500 | 33.411 | 2 |
| 2025-09-09T07:09:00 | 57.655544 | 8.399067 | 2.0 | 16.321 | 2 | 42.611 | 16.482 | 33.437 | 2 |
| 2025-09-09T07:10:00 | 57.654220 | 8.399698 | 2.0 | 16.319 | 2 | 42.616 | 16.487 | 33.437 | 2 |
| 2025-09-09T07:11:00 | 57.653675 | 8.399313 | 2.0 | 16.305 | 2 | 42.545 | 16.480 | 33.381 | 2 |
| 2025-09-09T07:12:00 | 57.653751 | 8.398774 | 2.0 | 16.302 | 2 | 42.528 | 16.469 | 33.375 | 2 |
| 2025-09-09T07:13:00 | 57.653847 | 8.398642 | 2.0 | 16.302 | 2 | 42.537 | 16.466 | 33.385 | 2 |
| 2025-09-09T07:14:00 | 57.653926 | 8.398582 | 2.0 | 16.302 | 2 | 42.531 | 16.466 | 33.380 | 2 |
| 2025-09-09T07:15:00 | 57.654050 | 8.398471 | 2.0 | 16.302 | 2 | 42.544 | 16.464 | 33.393 | 2 |
| 2025-09-09T07:16:00 | 57.654553 | 8.398537 | 2.0 | 16.306 | 2 | 42.543 | 16.464 | 33.392 | 2 |
| 2025-09-09T07:17:00 | 57.655444 | 8.398695 | 2.0 | 16.311 | 2 | 42.580 | 16.470 | 33.420 | 2 |
| 2025-09-09T07:18:00 | 57.656335 | 8.398785 | 2.0 | 16.311 | 2 | 42.578 | 16.474 | 33.415 | 2 |
| 2025-09-09T07:19:00 | 57.657253 | 8.398849 | 2.0 | 16.311 | 2 | 42.601 | 16.473 | 33.436 | 2 |
| 2025-09-09T07:20:00 | 57.658194 | 8.398922 | 2.0 | 16.315 | 2 | 42.615 | 16.475 | 33.446 | 2 |
| 2025-09-09T07:21:00 | 57.659154 | 8.398997 | 2.0 | 16.327 | 2 | 42.639 | 16.481 | 33.462 | 2 |
| 2025-09-09T07:22:00 | 57.660126 | 8.399065 | 2.0 | 16.334 | 2 | 42.645 | 16.492 | 33.458 | 2 |
| 2025-09-09T07:23:00 | 57.661104 | 8.399126 | 2.0 | 16.371 | 2 | 42.653 | 16.496 | 33.462 | 2 |
| 2025-09-09T07:24:00 | 57.662074 | 8.399122 | 2.0 | 16.440 | 2 | 42.455 | 16.546 | 33.247 | 2 |
| 2025-09-09T07:25:00 | 57.663033 | 8.399079 | 2.0 | 16.484 | 2 | 42.261 | 16.607 | 33.027 | 2 |
| 2025-09-09T07:26:00 | 57.663979 | 8.399014 | 2.0 | 16.493 | 2 | 42.161 | 16.641 | 32.911 | 2 |
| 2025-09-09T07:27:00 | 57.664917 | 8.398936 | 2.0 | 16.476 | 2 | 42.097 | 16.648 | 32.850 | 2 |
| 2025-09-09T07:28:00 | 57.665851 | 8.398863 | 2.0 | 16.487 | 2 | 42.160 | 16.635 | 32.916 | 2 |
| 2025-09-09T07:29:00 | 57.666783 | 8.398801 | 2.0 | 16.493 | 2 | 42.146 | 16.645 | 32.895 | 2 |
| 2025-09-09T07:30:00 | 57.667717 | 8.398731 | 2.0 | 16.481 | 2 | 42.119 | 16.648 | 32.869 | 2 |
| 2025-09-09T07:31:00 | 57.668705 | 8.398666 | 2.0 | 16.476 | 2 | 42.173 | 16.641 | 32.922 | 2 |
| 2025-09-09T07:32:00 | 57.669925 | 8.398625 | 2.0 | 16.468 | 2 | 42.212 | 16.635 | 32.961 | 2 |
| 2025-09-09T07:33:00 | 57.671310 | 8.398607 | 2.0 | 16.468 | 2 | 42.264 | 16.629 | 33.011 | 2 |
| 2025-09-09T07:34:00 | 57.672800 | 8.398614 | 2.0 | 16.489 | 2 | 42.274 | 16.634 | 33.016 | 2 |
| 2025-09-09T07:35:00 | 57.674272 | 8.398698 | 2.0 | 16.495 | 2 | 42.160 | 16.654 | 32.900 | 2 |
| 2025-09-09T07:36:00 | 57.674788 | 8.399579 | 2.0 | 16.472 | 2 | 42.161 | 16.647 | 32.907 | 2 |
| 2025-09-09T07:37:00 | 57.674835 | 8.400102 | 2.0 | 16.485 | 2 | 42.189 | 16.640 | 32.937 | 2 |
| 2025-09-09T07:38:00 | 57.674773 | 8.400359 | 2.0 | 16.482 | 2 | 42.160 | 16.646 | 32.906 | 2 |
| 2025-09-09T07:39:00 | 57.674687 | 8.400576 | 2.0 | 16.478 | 2 | 42.185 | 16.643 | 32.931 | 2 |
| 2025-09-09T07:40:00 | 57.674616 | 8.400764 | 2.0 | 16.482 | 2 | 42.231 | 16.639 | 32.974 | 2 |
| 2025-09-09T07:41:00 | 57.674574 | 8.400915 | 2.0 | 16.484 | 2 | 42.199 | 16.644 | 32.942 | 2 |
| 2025-09-09T07:42:00 | 57.674571 | 8.400990 | 2.0 | 16.465 | 2 | 42.218 | 16.643 | 32.960 | 2 |
| 2025-09-09T07:43:00 | 57.674599 | 8.401045 | 2.0 | 16.469 | 2 | 42.330 | 16.629 | 33.069 | 2 |
| 2025-09-09T07:44:00 | 57.674650 | 8.401094 | 2.0 | 16.468 | 2 | 42.321 | 16.631 | 33.059 | 2 |
| 2025-09-09T07:45:00 | 57.674709 | 8.401116 | 2.0 | 16.449 | 2 | 42.324 | 16.630 | 33.063 | 2 |
| 2025-09-09T07:46:00 | 57.674738 | 8.401124 | 2.0 | 16.398 | 2 | 42.412 | 16.594 | 33.169 | 2 |
| 2025-09-09T07:47:00 | 57.674748 | 8.401099 | 2.0 | 16.443 | 2 | 42.449 | 16.575 | 33.217 | 2 |
| 2025-09-09T07:48:00 | 57.674757 | 8.401069 | 2.0 | 16.481 | 2 | 42.355 | 16.611 | 33.105 | 2 |
| 2025-09-09T07:49:00 | 57.674774 | 8.401039 | 2.0 | 16.483 | 2 | 42.226 | 16.640 | 32.969 | 2 |
| 2025-09-09T07:50:00 | 57.674790 | 8.401027 | 2.0 | 16.470 | 2 | 42.239 | 16.640 | 32.980 | 2 |
| 2025-09-09T07:51:00 | 57.674807 | 8.401064 | 2.0 | 16.455 | 2 | 42.334 | 16.629 | 33.072 | 2 |
| 2025-09-09T07:52:00 | 57.674825 | 8.401113 | 2.0 | 16.455 | 2 | 42.397 | 16.618 | 33.136 | 2 |
| 2025-09-09T07:53:00 | 57.674869 | 8.401108 | 2.0 | 16.463 | 2 | 42.379 | 16.620 | 33.119 | 2 |
| 2025-09-09T07:54:00 | 57.674941 | 8.401049 | 2.0 | 16.471 | 2 | 42.362 | 16.622 | 33.102 | 2 |
| 2025-09-09T07:55:00 | 57.674969 | 8.400979 | 2.0 | 16.478 | 2 | 42.267 | 16.637 | 33.007 | 2 |
| 2025-09-09T07:56:00 | 57.674956 | 8.401046 | 2.0 | 16.478 | 2 | 42.238 | 16.639 | 32.980 | 2 |
| 2025-09-09T07:57:00 | 57.674972 | 8.401128 | 2.0 | 16.470 | 2 | 42.265 | 16.639 | 33.004 | 2 |
| 2025-09-09T07:58:00 | 57.675015 | 8.401148 | 2.0 | 16.443 | 2 | 42.310 | 16.626 | 33.054 | 2 |
| 2025-09-09T07:59:00 | 57.675071 | 8.401153 | 2.0 | 16.434 | 2 | 42.373 | 16.606 | 33.125 | 2 |
| 2025-09-09T08:00:00 | 57.675103 | 8.401189 | 2.0 | 16.421 | 2 | 42.434 | 16.588 | 33.194 | 2 |
| 2025-09-09T08:01:00 | 57.675129 | 8.401174 | 2.0 | 16.481 | 2 | 42.425 | 16.591 | 33.183 | 2 |
| 2025-09-09T08:02:00 | 57.675163 | 8.401095 | 2.0 | 16.488 | 2 | 42.242 | 16.639 | 32.984 | 2 |
| 2025-09-09T08:03:00 | 57.675180 | 8.400976 | 2.0 | 16.492 | 2 | 42.194 | 16.650 | 32.933 | 2 |
| 2025-09-09T08:04:00 | 57.675164 | 8.400854 | 2.0 | 16.491 | 2 | 42.185 | 16.652 | 32.923 | 2 |
| 2025-09-09T08:05:00 | 57.675126 | 8.400810 | 2.0 | 16.490 | 2 | 42.186 | 16.652 | 32.924 | 2 |
| 2025-09-09T08:06:00 | 57.675129 | 8.400738 | 2.0 | 16.488 | 2 | 42.198 | 16.651 | 32.936 | 2 |
| 2025-09-09T08:07:00 | 57.675118 | 8.400708 | 2.0 | 16.487 | 2 | 42.202 | 16.649 | 32.941 | 2 |
| 2025-09-09T08:08:00 | 57.675002 | 8.400862 | 2.0 | 16.479 | 2 | 42.226 | 16.646 | 32.964 | 2 |
| 2025-09-09T08:09:00 | 57.674303 | 8.400547 | 2.0 | 16.477 | 2 | 42.279 | 16.642 | 33.014 | 2 |
| 2025-09-09T08:10:00 | 57.673035 | 8.400215 | 2.0 | 16.471 | 2 | 42.338 | 16.636 | 33.070 | 2 |
| 2025-09-09T08:11:00 | 57.670942 | 8.399765 | 2.0 | 16.476 | 2 | 42.357 | 16.636 | 33.087 | 2 |
| 2025-09-09T08:12:00 | 57.668411 | 8.399232 | 2.0 | 16.460 | 2 | 42.300 | 16.642 | 33.032 | 2 |
| 2025-09-09T08:13:00 | 57.665736 | 8.398793 | 2.0 | 16.397 | 2 | 42.312 | 16.626 | 33.056 | 2 |
| 2025-09-09T08:14:00 | 57.663004 | 8.398633 | 2.0 | 16.413 | 2 | 42.457 | 16.568 | 33.230 | 2 |
| 2025-09-09T08:15:00 | 57.660274 | 8.398483 | 2.0 | 16.348 | 2 | 42.558 | 16.560 | 33.325 | 2 |
| 2025-09-09T08:16:00 | 57.657573 | 8.398208 | 2.0 | 16.361 | 2 | 42.731 | 16.522 | 33.509 | 2 |
| 2025-09-09T08:17:00 | 57.654884 | 8.398002 | 2.0 | 16.359 | 2 | 42.752 | 16.528 | 33.522 | 2 |
| 2025-09-09T08:18:00 | 57.652201 | 8.397697 | 2.0 | 16.342 | 2 | 42.749 | 16.522 | 33.524 | 2 |
| 2025-09-09T08:19:00 | 57.649707 | 8.396040 | 2.0 | 16.330 | 2 | 42.728 | 16.506 | 33.519 | 2 |
| 2025-09-09T08:20:00 | 57.647734 | 8.392735 | 2.0 | 16.325 | 2 | 42.722 | 16.495 | 33.523 | 2 |
| 2025-09-09T08:21:00 | 57.646360 | 8.388466 | 2.0 | 16.329 | 2 | 42.723 | 16.493 | 33.526 | 2 |
| 2025-09-09T08:22:00 | 57.646057 | 8.383466 | 2.0 | 16.348 | 2 | 42.728 | 16.498 | 33.526 | 2 |
| 2025-09-09T08:23:00 | 57.646749 | 8.378509 | 2.0 | 16.379 | 2 | 42.745 | 16.516 | 33.526 | 2 |
| 2025-09-09T08:24:00 | 57.648408 | 8.374273 | 2.0 | 16.387 | 2 | 42.772 | 16.546 | 33.524 | 2 |
| 2025-09-09T08:25:00 | 57.650828 | 8.371337 | 2.0 | 16.412 | 2 | 42.778 | 16.557 | 33.520 | 2 |
| 2025-09-09T08:26:00 | 57.653533 | 8.369351 | 2.0 | 16.416 | 2 | 42.797 | 16.577 | 33.520 | 2 |
| 2025-09-09T08:27:00 | 57.656442 | 8.368688 | 2.0 | 16.410 | 2 | 42.809 | 16.581 | 33.527 | 2 |
| 2025-09-09T08:28:00 | 57.659374 | 8.368662 | 2.0 | 16.401 | 2 | 42.793 | 16.572 | 33.521 | 2 |
| 2025-09-09T08:29:00 | 57.662296 | 8.368981 | 2.0 | 16.454 | 2 | 42.676 | 16.577 | 33.414 | 2 |
| 2025-09-09T08:30:00 | 57.664962 | 8.370850 | 2.0 | 16.532 | 2 | 42.331 | 16.629 | 33.070 | 2 |
| 2025-09-09T08:31:00 | 57.667510 | 8.373225 | 2.0 | 16.536 | 2 | 42.144 | 16.692 | 32.855 | 2 |
| 2025-09-09T08:32:00 | 57.669745 | 8.376386 | 2.0 | 16.556 | 2 | 42.177 | 16.702 | 32.875 | 2 |
| 2025-09-09T08:33:00 | 57.671538 | 8.380358 | 2.0 | 16.556 | 2 | 42.207 | 16.712 | 32.893 | 2 |
| 2025-09-09T08:34:00 | 57.673084 | 8.384669 | 2.0 | 16.548 | 2 | 42.233 | 16.713 | 32.915 | 2 |
| 2025-09-09T08:35:00 | 57.674357 | 8.389257 | 2.0 | 16.538 | 2 | 42.243 | 16.710 | 32.926 | 2 |
| 2025-09-09T08:36:00 | 57.674794 | 8.394286 | 2.0 | 16.509 | 2 | 42.249 | 16.698 | 32.941 | 2 |
| 2025-09-09T08:37:00 | 57.675002 | 8.399413 | 2.0 | 16.490 | 2 | 42.324 | 16.674 | 33.026 | 2 |
| 2025-09-09T08:38:00 | 57.674913 | 8.404530 | 2.0 | 16.488 | 2 | 42.367 | 16.655 | 33.080 | 2 |
| 2025-09-09T08:39:00 | 57.674082 | 8.409384 | 2.0 | 16.491 | 2 | 42.356 | 16.653 | 33.072 | 2 |
| 2025-09-09T08:40:00 | 57.672910 | 8.414005 | 2.0 | 16.475 | 2 | 42.367 | 16.655 | 33.080 | 2 |
| 2025-09-09T08:41:00 | 57.671253 | 8.417995 | 2.0 | 16.395 | 2 | 42.394 | 16.626 | 33.127 | 2 |
| 2025-09-09T08:42:00 | 57.669317 | 8.421532 | 2.0 | 16.368 | 2 | 42.538 | 16.560 | 33.308 | 2 |
| 2025-09-09T08:43:00 | 57.667206 | 8.424664 | 2.0 | 16.353 | 2 | 42.739 | 16.532 | 33.507 | 2 |
| 2025-09-09T08:44:00 | 57.664782 | 8.426759 | 2.0 | 16.363 | 2 | 42.794 | 16.523 | 33.563 | 2 |
| 2025-09-09T08:45:00 | 57.662259 | 8.428376 | 2.0 | 16.323 | 2 | 42.804 | 16.519 | 33.575 | 2 |
| 2025-09-09T08:46:00 | 57.659647 | 8.429153 | 2.0 | 16.359 | 2 | 42.783 | 16.501 | 33.572 | 2 |
| 2025-09-09T08:47:00 | 57.657008 | 8.429075 | 2.0 | 16.364 | 2 | 42.812 | 16.523 | 33.579 | 2 |
| 2025-09-09T08:48:00 | 57.654402 | 8.428312 | 2.0 | 16.362 | 2 | 42.819 | 16.530 | 33.579 | 2 |
| 2025-09-09T08:49:00 | 57.651902 | 8.426750 | 2.0 | 16.357 | 2 | 42.815 | 16.527 | 33.578 | 2 |
| 2025-09-09T08:50:00 | 57.649552 | 8.424501 | 2.0 | 16.355 | 2 | 42.809 | 16.522 | 33.577 | 2 |
| 2025-09-09T08:51:00 | 57.647439 | 8.421536 | 2.0 | 16.356 | 2 | 42.809 | 16.521 | 33.578 | 2 |
| 2025-09-09T08:52:00 | 57.646196 | 8.417175 | 2.0 | 16.362 | 2 | 42.813 | 16.523 | 33.580 | 2 |
| 2025-09-09T08:53:00 | 57.645912 | 8.412129 | 2.0 | 16.370 | 2 | 42.824 | 16.529 | 33.584 | 2 |
| 2025-09-09T08:54:00 | 57.646653 | 8.407205 | 2.0 | 16.349 | 2 | 42.839 | 16.534 | 33.593 | 2 |
| 2025-09-09T08:55:00 | 57.648629 | 8.403449 | 2.0 | 16.321 | 2 | 42.804 | 16.508 | 33.584 | 2 |
| 2025-09-09T08:56:00 | 57.651278 | 8.401162 | 2.0 | 16.323 | 2 | 42.752 | 16.487 | 33.556 | 2 |
| 2025-09-09T08:57:00 | 57.653979 | 8.398976 | 2.0 | 16.366 | 2 | 42.732 | 16.494 | 33.533 | 2 |
| 2025-09-09T08:58:00 | 57.656841 | 8.397621 | 2.0 | 16.400 | 2 | 42.761 | 16.535 | 33.524 | 2 |
| 2025-09-09T08:59:00 | 57.659799 | 8.398131 | 2.0 | 16.408 | 2 | 42.795 | 16.565 | 33.529 | 2 |
| 2025-09-09T09:00:00 | 57.662754 | 8.398508 | 2.0 | 16.395 | 2 | 42.802 | 16.572 | 33.529 | 2 |
| 2025-09-09T09:01:00 | 57.665715 | 8.398510 | 2.0 | 16.407 | 2 | 42.766 | 16.559 | 33.508 | 2 |
| 2025-09-09T09:02:00 | 57.668654 | 8.398311 | 2.0 | 16.415 | 2 | 42.559 | 16.580 | 33.309 | 2 |
| 2025-09-09T09:03:00 | 57.671540 | 8.398275 | 2.0 | 16.461 | 2 | 42.484 | 16.577 | 33.246 | 2 |
| 2025-09-09T09:04:00 | 57.673972 | 8.398389 | 2.0 | 16.477 | 2 | 42.397 | 16.624 | 33.131 | 2 |
| 2025-09-09T09:05:00 | 57.675166 | 8.399437 | 2.0 | 16.458 | 2 | 42.416 | 16.635 | 33.139 | 2 |
| 2025-09-09T09:06:00 | 57.675217 | 8.400112 | 2.0 | 16.460 | 2 | 42.467 | 16.615 | 33.200 | 2 |
| 2025-09-09T09:07:00 | 57.675158 | 8.400389 | 2.0 | 16.479 | 2 | 42.453 | 16.622 | 33.182 | 2 |
| 2025-09-09T09:08:00 | 57.675056 | 8.400532 | 2.0 | 16.497 | 2 | 42.378 | 16.643 | 33.099 | 2 |
| 2025-09-09T09:09:00 | 57.674811 | 8.400769 | 2.0 | 16.507 | 2 | 42.344 | 16.657 | 33.058 | 2 |
| 2025-09-09T09:10:00 | 57.674472 | 8.401040 | 2.0 | 16.511 | 2 | 42.331 | 16.670 | 33.036 | 2 |
| 2025-09-09T09:11:00 | 57.674079 | 8.401133 | 2.0 | 16.507 | 2 | 42.328 | 16.670 | 33.033 | 2 |
| 2025-09-09T09:12:00 | 57.673655 | 8.401074 | 2.0 | 16.506 | 2 | 42.329 | 16.669 | 33.035 | 2 |
| 2025-09-09T09:13:00 | 57.673209 | 8.400919 | 2.0 | 16.511 | 2 | 42.334 | 16.667 | 33.041 | 2 |
| 2025-09-09T09:14:00 | 57.672744 | 8.400755 | 2.0 | 16.505 | 2 | 42.319 | 16.671 | 33.025 | 2 |
| 2025-09-09T09:15:00 | 57.672301 | 8.400584 | 2.0 | 16.486 | 2 | 42.328 | 16.662 | 33.040 | 2 |
| 2025-09-09T09:16:00 | 57.671879 | 8.400380 | 2.0 | 16.500 | 2 | 42.349 | 16.651 | 33.067 | 2 |
| 2025-09-09T09:17:00 | 57.671493 | 8.400167 | 2.0 | 16.494 | 2 | 42.335 | 16.658 | 33.049 | 2 |
| 2025-09-09T09:18:00 | 57.671107 | 8.399998 | 2.0 | 16.492 | 2 | 42.337 | 16.657 | 33.052 | 2 |
| 2025-09-09T09:19:00 | 57.670710 | 8.399854 | 2.0 | 16.488 | 2 | 42.353 | 16.649 | 33.072 | 2 |
| 2025-09-09T09:20:00 | 57.670311 | 8.399683 | 2.0 | 16.483 | 2 | 42.357 | 16.649 | 33.076 | 2 |
| 2025-09-09T09:21:00 | 57.669922 | 8.399584 | 2.0 | 16.473 | 2 | 42.365 | 16.642 | 33.089 | 2 |
| 2025-09-09T09:22:00 | 57.669546 | 8.399518 | 2.0 | 16.445 | 2 | 42.394 | 16.630 | 33.124 | 2 |
| 2025-09-09T09:23:00 | 57.669213 | 8.399430 | 2.0 | 16.436 | 2 | 42.453 | 16.607 | 33.194 | 2 |
| 2025-09-09T09:24:00 | 57.668927 | 8.399312 | 2.0 | 16.436 | 2 | 42.515 | 16.598 | 33.256 | 2 |
| 2025-09-09T09:25:00 | 57.668668 | 8.399182 | 2.0 | 16.433 | 2 | 42.535 | 16.599 | 33.273 | 2 |
| 2025-09-09T09:26:00 | 57.668431 | 8.399057 | 2.0 | 16.414 | 2 | 42.548 | 16.594 | 33.288 | 2 |
| 2025-09-09T09:27:00 | 57.668206 | 8.398935 | 2.0 | 16.410 | 2 | 42.598 | 16.575 | 33.348 | 2 |
| 2025-09-09T09:28:00 | 57.667975 | 8.398839 | 2.0 | 16.414 | 2 | 42.603 | 16.574 | 33.353 | 2 |
| 2025-09-09T09:29:00 | 57.667731 | 8.398767 | 2.0 | 16.399 | 2 | 42.627 | 16.571 | 33.376 | 2 |
| 2025-09-09T09:30:00 | 57.667483 | 8.398729 | 2.0 | 16.395 | 2 | 42.661 | 16.564 | 33.412 | 2 |
| 2025-09-09T09:31:00 | 57.667239 | 8.398673 | 2.0 | 16.390 | 2 | 42.692 | 16.556 | 33.446 | 2 |
| 2025-09-09T09:32:00 | 57.666992 | 8.398622 | 2.0 | 16.395 | 2 | 42.725 | 16.554 | 33.476 | 2 |
| 2025-09-09T09:33:00 | 57.666740 | 8.398617 | 2.0 | 16.400 | 2 | 42.752 | 16.559 | 33.496 | 2 |
| 2025-09-09T09:34:00 | 57.666490 | 8.398638 | 2.0 | 16.415 | 2 | 42.769 | 16.566 | 33.505 | 2 |
| 2025-09-09T09:35:00 | 57.666235 | 8.398674 | 2.0 | 16.412 | 2 | 42.801 | 16.576 | 33.525 | 2 |
| 2025-09-09T09:36:00 | 57.665977 | 8.398718 | 2.0 | 16.413 | 2 | 42.802 | 16.575 | 33.526 | 2 |
| 2025-09-09T09:37:00 | 57.665716 | 8.398780 | 2.0 | 16.415 | 2 | 42.804 | 16.576 | 33.527 | 2 |
| 2025-09-09T09:38:00 | 57.665461 | 8.398861 | 2.0 | 16.416 | 2 | 42.809 | 16.579 | 33.529 | 2 |
| 2025-09-09T09:39:00 | 57.665203 | 8.398924 | 2.0 | 16.421 | 2 | 42.810 | 16.578 | 33.531 | 2 |
| 2025-09-09T09:40:00 | 57.664955 | 8.398991 | 2.0 | 16.420 | 2 | 42.816 | 16.582 | 33.533 | 2 |
| 2025-09-09T09:41:00 | 57.664713 | 8.399023 | 2.0 | 16.422 | 2 | 42.819 | 16.584 | 33.534 | 2 |
| 2025-09-09T09:42:00 | 57.664472 | 8.399072 | 2.0 | 16.422 | 2 | 42.820 | 16.582 | 33.536 | 2 |
| 2025-09-09T09:43:00 | 57.664243 | 8.399123 | 2.0 | 16.419 | 2 | 42.820 | 16.583 | 33.535 | 2 |
| 2025-09-09T09:44:00 | 57.664010 | 8.399173 | 2.0 | 16.416 | 2 | 42.817 | 16.581 | 33.534 | 2 |
| 2025-09-09T09:45:00 | 57.663774 | 8.399228 | 2.0 | 16.411 | 2 | 42.811 | 16.577 | 33.533 | 2 |
| 2025-09-09T09:46:00 | 57.663535 | 8.399259 | 2.0 | 16.407 | 2 | 42.806 | 16.573 | 33.531 | 2 |
| 2025-09-09T09:47:00 | 57.663299 | 8.399327 | 2.0 | 16.401 | 2 | 42.797 | 16.567 | 33.529 | 2 |
| 2025-09-09T09:48:00 | 57.663057 | 8.399366 | 2.0 | 16.400 | 2 | 42.790 | 16.563 | 33.526 | 2 |
| 2025-09-09T09:49:00 | 57.662818 | 8.399471 | 2.0 | 16.398 | 2 | 42.788 | 16.561 | 33.526 | 2 |
| 2025-09-09T09:50:00 | 57.662578 | 8.399548 | 2.0 | 16.395 | 2 | 42.787 | 16.559 | 33.527 | 2 |
| 2025-09-09T09:51:00 | 57.662325 | 8.399553 | 2.0 | 16.399 | 2 | 42.786 | 16.558 | 33.527 | 2 |
| 2025-09-09T09:52:00 | 57.662078 | 8.399602 | 2.0 | 16.398 | 2 | 42.789 | 16.560 | 33.528 | 2 |
| 2025-09-09T09:53:00 | 57.661831 | 8.399625 | 2.0 | 16.400 | 2 | 42.790 | 16.562 | 33.527 | 2 |
| 2025-09-09T09:54:00 | 57.661589 | 8.399645 | 2.0 | 16.402 | 2 | 42.791 | 16.562 | 33.528 | 2 |
| 2025-09-09T09:55:00 | 57.661361 | 8.399687 | 2.0 | 16.400 | 2 | 42.795 | 16.564 | 33.529 | 2 |
| 2025-09-09T09:56:00 | 57.661128 | 8.399720 | 2.0 | 16.403 | 2 | 42.794 | 16.562 | 33.530 | 2 |
| 2025-09-09T09:57:00 | 57.660888 | 8.399769 | 2.0 | 16.402 | 2 | 42.799 | 16.565 | 33.532 | 2 |
| 2025-09-09T09:58:00 | 57.660644 | 8.399811 | 2.0 | 16.400 | 2 | 42.799 | 16.563 | 33.534 | 2 |
| 2025-09-09T09:59:00 | 57.660402 | 8.399840 | 2.0 | 16.397 | 2 | 42.799 | 16.563 | 33.534 | 2 |
| 2025-09-09T10:00:00 | 57.660163 | 8.399800 | 2.0 | 16.385 | 2 | 42.790 | 16.556 | 33.532 | 2 |
| 2025-09-09T10:01:00 | 57.659934 | 8.399806 | 2.0 | 16.380 | 2 | 42.781 | 16.547 | 33.531 | 2 |
| 2025-09-09T10:02:00 | 57.659702 | 8.399762 | 2.0 | 16.376 | 2 | 42.771 | 16.542 | 33.527 | 2 |
| 2025-09-09T10:03:00 | 57.659470 | 8.399752 | 2.0 | 16.374 | 2 | 42.768 | 16.538 | 33.528 | 2 |
| 2025-09-09T10:04:00 | 57.659239 | 8.399731 | 2.0 | 16.369 | 2 | 42.767 | 16.535 | 33.529 | 2 |
| 2025-09-09T10:05:00 | 57.659010 | 8.399727 | 2.0 | 16.367 | 2 | 42.764 | 16.532 | 33.529 | 2 |
| 2025-09-09T10:06:00 | 57.658789 | 8.399699 | 2.0 | 16.357 | 2 | 42.746 | 16.527 | 33.518 | 2 |
| 2025-09-09T10:07:00 | 57.658568 | 8.399656 | 2.0 | 16.353 | 2 | 42.754 | 16.519 | 33.531 | 2 |
| 2025-09-09T10:08:00 | 57.658349 | 8.399644 | 2.0 | 16.350 | 2 | 42.749 | 16.515 | 33.530 | 2 |
| 2025-09-09T10:09:00 | 57.658125 | 8.399633 | 2.0 | 16.342 | 2 | 42.681 | 16.511 | 33.474 | 2 |
| 2025-09-09T10:10:00 | 57.657896 | 8.399621 | 2.0 | 16.339 | 2 | 42.744 | 16.505 | 33.534 | 2 |
| 2025-09-09T10:11:00 | 57.657673 | 8.399604 | 2.0 | 16.336 | 2 | 42.741 | 16.501 | 33.535 | 2 |
| 2025-09-09T10:12:00 | 57.657453 | 8.399600 | 2.0 | 16.332 | 2 | 42.739 | 16.498 | 33.536 | 2 |
| 2025-09-09T10:13:00 | 57.657226 | 8.399603 | 2.0 | 16.330 | 2 | 42.541 | 16.494 | 33.365 | 2 |
| 2025-09-09T10:14:00 | 57.657002 | 8.399596 | 2.0 | 16.323 | 2 | 42.741 | 16.491 | 33.543 | 2 |
| 2025-09-09T10:15:00 | 57.656779 | 8.399603 | 2.0 | 16.321 | 2 | 42.489 | 16.485 | 33.327 | 2 |
| 2025-09-09T10:16:00 | 57.656545 | 8.399609 | 2.0 | 16.317 | 2 | 42.740 | 16.484 | 33.548 | 2 |
| 2025-09-09T10:17:00 | 57.656272 | 8.399470 | 2.0 | 16.317 | 2 | 42.741 | 16.477 | 33.555 | 2 |
| 2025-09-09T10:18:00 | 57.656078 | 8.398831 | 2.0 | 16.314 | 2 | 42.728 | 16.477 | 33.544 | 2 |
| 2025-09-09T10:19:00 | 57.656208 | 8.397927 | 2.0 | 16.309 | 2 | 42.734 | 16.476 | 33.550 | 2 |
| 2025-09-09T10:20:00 | 57.656676 | 8.397321 | 2.0 | 16.316 | 2 | 42.640 | 16.473 | 33.470 | 2 |
| 2025-09-09T10:21:00 | 57.657277 | 8.397282 | 2.0 | 16.324 | 2 | 42.735 | 16.481 | 33.546 | 2 |
| 2025-09-09T10:22:00 | 57.657902 | 8.397413 | 2.0 | 16.327 | 2 | 42.504 | 16.485 | 33.341 | 2 |
| 2025-09-09T10:23:00 | 57.658550 | 8.397545 | 2.0 | 16.329 | 2 | 42.545 | 16.489 | 33.373 | 2 |
| 2025-09-09T10:24:00 | 57.659206 | 8.397677 | 2.0 | 16.337 | 2 | 42.738 | 16.493 | 33.539 | 2 |
| 2025-09-09T10:25:00 | 57.659861 | 8.397805 | 2.0 | 16.350 | 2 | 42.616 | 16.501 | 33.425 | 2 |
| 2025-09-09T10:26:00 | 57.660516 | 8.397961 | 2.0 | 16.363 | 2 | 42.752 | 16.514 | 33.534 | 2 |
| 2025-09-09T10:27:00 | 57.661158 | 8.398106 | 2.0 | 16.372 | 2 | 42.761 | 16.526 | 33.531 | 2 |
| 2025-09-09T10:28:00 | 57.661783 | 8.398241 | 2.0 | 16.390 | 2 | 42.770 | 16.538 | 33.529 | 2 |
| 2025-09-09T10:29:00 | 57.662392 | 8.398363 | 2.0 | 16.403 | 2 | 42.787 | 16.554 | 33.531 | 2 |
| 2025-09-09T10:30:00 | 57.662989 | 8.398467 | 2.0 | 16.406 | 2 | 42.772 | 16.564 | 33.509 | 2 |
| 2025-09-09T10:31:00 | 57.663573 | 8.398575 | 2.0 | 16.413 | 2 | 42.741 | 16.569 | 33.478 | 2 |
| 2025-09-09T10:32:00 | 57.664139 | 8.398648 | 2.0 | 16.418 | 2 | 42.591 | 16.575 | 33.342 | 2 |
| 2025-09-09T10:33:00 | 57.664697 | 8.398694 | 2.0 | 16.421 | 2 | 42.704 | 16.580 | 33.436 | 2 |
| 2025-09-09T10:34:00 | 57.665248 | 8.398749 | 2.0 | 16.427 | 2 | 42.669 | 16.584 | 33.402 | 2 |
| 2025-09-09T10:35:00 | 57.665794 | 8.398791 | 2.0 | 16.432 | 2 | 42.621 | 16.589 | 33.356 | 2 |
| 2025-09-09T10:36:00 | 57.666335 | 8.398814 | 2.0 | 16.438 | 2 | 42.660 | 16.595 | 33.385 | 2 |
| 2025-09-09T10:37:00 | 57.666872 | 8.398853 | 2.0 | 16.439 | 2 | 42.672 | 16.600 | 33.392 | 2 |
| 2025-09-09T10:38:00 | 57.667401 | 8.398888 | 2.0 | 16.441 | 2 | 42.625 | 16.602 | 33.349 | 2 |
| 2025-09-09T10:39:00 | 57.667924 | 8.398936 | 2.0 | 16.442 | 2 | 42.655 | 16.602 | 33.375 | 2 |
| 2025-09-09T10:40:00 | 57.668442 | 8.398980 | 2.0 | 16.449 | 2 | 42.641 | 16.607 | 33.359 | 2 |
| 2025-09-09T10:41:00 | 57.668960 | 8.399041 | 2.0 | 16.449 | 2 | 42.650 | 16.610 | 33.364 | 2 |
| 2025-09-09T10:42:00 | 57.669472 | 8.399083 | 2.0 | 16.452 | 2 | 42.671 | 16.612 | 33.381 | 2 |
| 2025-09-09T10:43:00 | 57.669987 | 8.399105 | 2.0 | 16.453 | 2 | 42.664 | 16.613 | 33.374 | 2 |
| 2025-09-09T10:44:00 | 57.670516 | 8.399134 | 2.0 | 16.459 | 2 | 42.710 | 16.615 | 33.412 | 2 |
| 2025-09-09T10:45:00 | 57.671042 | 8.399131 | 2.0 | 16.436 | 2 | 42.718 | 16.618 | 33.417 | 2 |
| 2025-09-09T10:46:00 | 57.671574 | 8.399119 | 2.0 | 16.428 | 2 | 42.704 | 16.595 | 33.424 | 2 |
| 2025-09-09T10:47:00 | 57.672110 | 8.399099 | 2.0 | 16.436 | 2 | 42.698 | 16.593 | 33.420 | 2 |
| 2025-09-09T10:48:00 | 57.672650 | 8.399062 | 2.0 | 16.434 | 2 | 42.704 | 16.596 | 33.423 | 2 |
| 2025-09-09T10:49:00 | 57.673165 | 8.399052 | 2.0 | 16.435 | 2 | 42.708 | 16.597 | 33.426 | 2 |
| 2025-09-09T10:50:00 | 57.673683 | 8.399026 | 2.0 | 16.438 | 2 | 42.715 | 16.596 | 33.433 | 2 |
| 2025-09-09T10:51:00 | 57.674200 | 8.398983 | 2.0 | 16.427 | 2 | 42.742 | 16.599 | 33.454 | 2 |
| 2025-09-09T10:52:00 | 57.674721 | 8.398928 | 2.0 | 16.429 | 2 | 42.715 | 16.590 | 33.438 | 2 |
| 2025-09-09T10:53:00 | 57.675228 | 8.398859 | 2.0 | 16.433 | 2 | 42.728 | 16.593 | 33.446 | 2 |
| 2025-09-09T10:54:00 | 57.675734 | 8.398806 | 2.0 | 16.438 | 2 | 42.719 | 16.595 | 33.437 | 2 |
| 2025-09-09T10:55:00 | 57.676237 | 8.398754 | 2.0 | 16.439 | 2 | 42.746 | 16.601 | 33.456 | 2 |
| 2025-09-09T10:56:00 | 57.676744 | 8.398695 | 2.0 | 16.439 | 2 | 42.744 | 16.601 | 33.454 | 2 |
| 2025-09-09T10:57:00 | 57.677246 | 8.398634 | 2.0 | 16.440 | 2 | 42.742 | 16.600 | 33.453 | 2 |
| 2025-09-09T10:58:00 | 57.677761 | 8.398564 | 2.0 | 16.431 | 2 | 42.732 | 16.600 | 33.444 | 2 |
| 2025-09-09T10:59:00 | 57.678281 | 8.398499 | 2.0 | 16.436 | 2 | 42.726 | 16.593 | 33.445 | 2 |
| 2025-09-09T11:00:00 | 57.678801 | 8.398419 | 2.0 | 16.422 | 2 | 42.713 | 16.593 | 33.433 | 2 |
| 2025-09-09T11:01:00 | 57.679321 | 8.398338 | 2.0 | 16.424 | 2 | 42.702 | 16.586 | 33.430 | 2 |
| 2025-09-09T11:02:00 | 57.679849 | 8.398266 | 2.0 | 16.423 | 2 | 42.686 | 16.586 | 33.416 | 2 |
| 2025-09-09T11:03:00 | 57.680366 | 8.398202 | 2.0 | 16.423 | 2 | 42.674 | 16.585 | 33.406 | 2 |
| 2025-09-09T11:04:00 | 57.680895 | 8.398122 | 2.0 | 16.424 | 2 | 42.659 | 16.586 | 33.392 | 2 |
| 2025-09-09T11:05:00 | 57.681434 | 8.398034 | 2.0 | 16.419 | 2 | 42.648 | 16.585 | 33.383 | 2 |
| 2025-09-09T11:06:00 | 57.681972 | 8.397929 | 2.0 | 16.416 | 2 | 42.642 | 16.577 | 33.385 | 2 |
| 2025-09-09T11:07:00 | 57.682515 | 8.397804 | 2.0 | 16.424 | 2 | 42.637 | 16.578 | 33.379 | 2 |
| 2025-09-09T11:08:00 | 57.683058 | 8.397715 | 2.0 | 16.412 | 2 | 42.627 | 16.585 | 33.365 | 2 |
| 2025-09-09T11:09:00 | 57.683605 | 8.397642 | 2.0 | 16.408 | 2 | 42.603 | 16.570 | 33.356 | 2 |
| 2025-09-09T11:10:00 | 57.684151 | 8.397592 | 2.0 | 16.402 | 2 | 42.577 | 16.569 | 33.334 | 2 |
| 2025-09-09T11:11:00 | 57.684696 | 8.397535 | 2.0 | 16.400 | 2 | 42.563 | 16.561 | 33.329 | 2 |
| 2025-09-09T11:12:00 | 57.685248 | 8.397478 | 2.0 | 16.412 | 2 | 42.556 | 16.566 | 33.319 | 2 |
| 2025-09-09T11:13:00 | 57.685797 | 8.397413 | 2.0 | 16.418 | 2 | 42.557 | 16.574 | 33.313 | 2 |
| 2025-09-09T11:14:00 | 57.686351 | 8.397351 | 2.0 | 16.429 | 2 | 42.557 | 16.581 | 33.307 | 2 |
| 2025-09-09T11:15:00 | 57.686918 | 8.397275 | 2.0 | 16.466 | 2 | 42.520 | 16.603 | 33.256 | 2 |
| 2025-09-09T11:16:00 | 57.687477 | 8.397209 | 2.0 | 16.490 | 2 | 42.476 | 16.626 | 33.199 | 2 |
| 2025-09-09T11:17:00 | 57.688036 | 8.397152 | 2.0 | 16.508 | 2 | 42.435 | 16.653 | 33.141 | 2 |
| 2025-09-09T11:18:00 | 57.688597 | 8.397099 | 2.0 | 16.515 | 2 | 42.421 | 16.669 | 33.115 | 2 |
| 2025-09-09T11:19:00 | 57.689153 | 8.397047 | 2.0 | 16.519 | 2 | 42.412 | 16.676 | 33.101 | 2 |
| 2025-09-09T11:20:00 | 57.689706 | 8.397014 | 2.0 | 16.522 | 2 | 42.411 | 16.681 | 33.096 | 2 |
| 2025-09-09T11:21:00 | 57.690258 | 8.396980 | 2.0 | 16.528 | 2 | 42.414 | 16.684 | 33.097 | 2 |
| 2025-09-09T11:22:00 | 57.690809 | 8.396944 | 2.0 | 16.531 | 2 | 42.418 | 16.688 | 33.097 | 2 |
| 2025-09-09T11:23:00 | 57.691365 | 8.396923 | 2.0 | 16.536 | 2 | 42.423 | 16.691 | 33.099 | 2 |
| 2025-09-09T11:24:00 | 57.691922 | 8.396937 | 2.0 | 16.535 | 2 | 42.432 | 16.697 | 33.102 | 2 |
| 2025-09-09T11:25:00 | 57.692483 | 8.396952 | 2.0 | 16.542 | 2 | 42.444 | 16.698 | 33.111 | 2 |
| 2025-09-09T11:26:00 | 57.693044 | 8.396975 | 2.0 | 16.537 | 2 | 42.442 | 16.702 | 33.106 | 2 |
| 2025-09-09T11:27:00 | 57.693607 | 8.397006 | 2.0 | 16.549 | 2 | 42.428 | 16.701 | 33.095 | 2 |
| 2025-09-09T11:28:00 | 57.694168 | 8.397046 | 2.0 | 16.554 | 2 | 42.417 | 16.712 | 33.076 | 2 |
| 2025-09-09T11:29:00 | 57.694726 | 8.397109 | 2.0 | 16.557 | 2 | 42.388 | 16.714 | 33.049 | 2 |
| 2025-09-09T11:30:00 | 57.695277 | 8.397188 | 2.0 | 16.570 | 2 | 42.362 | 16.722 | 33.020 | 2 |
| 2025-09-09T11:31:00 | 57.695839 | 8.397269 | 2.0 | 16.569 | 2 | 42.349 | 16.730 | 33.002 | 2 |
| 2025-09-09T11:32:00 | 57.696407 | 8.397346 | 2.0 | 16.569 | 2 | 42.343 | 16.728 | 32.998 | 2 |
| 2025-09-09T11:33:00 | 57.696974 | 8.397415 | 2.0 | 16.570 | 2 | 42.330 | 16.730 | 32.986 | 2 |
| 2025-09-09T11:34:00 | 57.697538 | 8.397451 | 2.0 | 16.560 | 2 | 42.332 | 16.726 | 32.991 | 2 |
| 2025-09-09T11:35:00 | 57.698098 | 8.397492 | 2.0 | 16.573 | 2 | 42.318 | 16.725 | 32.979 | 2 |
| 2025-09-09T11:36:00 | 57.698660 | 8.397547 | 2.0 | 16.587 | 2 | 42.295 | 16.739 | 32.948 | 2 |
| 2025-09-09T11:37:00 | 57.699217 | 8.397598 | 2.0 | 16.561 | 2 | 42.283 | 16.742 | 32.935 | 2 |
| 2025-09-09T11:38:00 | 57.699773 | 8.397677 | 2.0 | 16.567 | 2 | 42.259 | 16.728 | 32.925 | 2 |
| 2025-09-09T11:39:00 | 57.700325 | 8.397723 | 2.0 | 16.568 | 2 | 42.250 | 16.729 | 32.917 | 2 |
| 2025-09-09T11:40:00 | 57.700872 | 8.397759 | 2.0 | 16.558 | 2 | 42.243 | 16.731 | 32.909 | 2 |
| 2025-09-09T11:41:00 | 57.701418 | 8.397821 | 2.0 | 16.574 | 2 | 42.233 | 16.730 | 32.901 | 2 |
| 2025-09-09T11:42:00 | 57.701963 | 8.397869 | 2.0 | 16.579 | 2 | 42.226 | 16.734 | 32.892 | 2 |
| 2025-09-09T11:43:00 | 57.702511 | 8.397909 | 2.0 | 16.586 | 2 | 42.214 | 16.741 | 32.876 | 2 |
| 2025-09-09T11:44:00 | 57.703058 | 8.397940 | 2.0 | 16.593 | 2 | 42.207 | 16.752 | 32.860 | 2 |
| 2025-09-09T11:45:00 | 57.703601 | 8.397966 | 2.0 | 16.581 | 2 | 42.203 | 16.750 | 32.859 | 2 |
| 2025-09-09T11:46:00 | 57.704149 | 8.398003 | 2.0 | 16.549 | 2 | 42.195 | 16.734 | 32.865 | 2 |
| 2025-09-09T11:47:00 | 57.704698 | 8.398049 | 2.0 | 16.569 | 2 | 42.199 | 16.715 | 32.884 | 2 |
| 2025-09-09T11:48:00 | 57.705244 | 8.398095 | 2.0 | 16.599 | 2 | 42.183 | 16.736 | 32.853 | 2 |
| 2025-09-09T11:49:00 | 57.705793 | 8.398146 | 2.0 | 16.591 | 2 | 42.177 | 16.760 | 32.828 | 2 |
| 2025-09-09T11:50:00 | 57.706348 | 8.398202 | 2.0 | 16.575 | 2 | 42.178 | 16.747 | 32.839 | 2 |
| 2025-09-09T11:51:00 | 57.706905 | 8.398267 | 2.0 | 16.598 | 2 | 42.160 | 16.743 | 32.827 | 2 |
| 2025-09-09T11:52:00 | 57.707453 | 8.398327 | 2.0 | 16.612 | 2 | 42.135 | 16.762 | 32.790 | 2 |
| 2025-09-09T11:53:00 | 57.708001 | 8.398391 | 2.0 | 16.606 | 2 | 42.130 | 16.774 | 32.776 | 2 |
| 2025-09-09T11:54:00 | 57.708549 | 8.398447 | 2.0 | 16.609 | 2 | 42.131 | 16.763 | 32.785 | 2 |
| 2025-09-09T11:55:00 | 57.709100 | 8.398517 | 2.0 | 16.604 | 2 | 42.119 | 16.769 | 32.770 | 2 |
| 2025-09-09T11:56:00 | 57.709644 | 8.398596 | 2.0 | 16.613 | 2 | 42.105 | 16.767 | 32.760 | 2 |
| 2025-09-09T11:57:00 | 57.710184 | 8.398678 | 2.0 | 16.639 | 2 | 42.090 | 16.780 | 32.736 | 2 |
| 2025-09-09T11:58:00 | 57.710727 | 8.398762 | 2.0 | 16.638 | 2 | 42.081 | 16.801 | 32.711 | 2 |
| 2025-09-09T11:59:00 | 57.711276 | 8.398847 | 2.0 | 16.647 | 2 | 42.061 | 16.799 | 32.695 | 2 |
| 2025-09-09T12:00:00 | 57.711821 | 8.398925 | 2.0 | 16.645 | 2 | 42.048 | 16.805 | 32.679 | 2 |
| 2025-09-09T12:01:00 | 57.712362 | 8.398995 | 2.0 | 16.672 | 2 | 42.044 | 16.806 | 32.675 | 2 |
| 2025-09-09T12:02:00 | 57.712896 | 8.399071 | 2.0 | 16.671 | 2 | 42.042 | 16.834 | 32.650 | 2 |
| 2025-09-09T12:03:00 | 57.713422 | 8.399141 | 2.0 | 16.700 | 2 | 42.021 | 16.836 | 32.630 | 2 |
| 2025-09-09T12:04:00 | 57.713932 | 8.399183 | 2.0 | 16.694 | 2 | 42.021 | 16.856 | 32.614 | 2 |
| 2025-09-09T12:05:00 | 57.714436 | 8.399220 | 2.0 | 16.696 | 2 | 42.006 | 16.857 | 32.600 | 2 |
| 2025-09-09T12:06:00 | 57.714935 | 8.399249 | 2.0 | 16.730 | 2 | 41.977 | 16.859 | 32.574 | 2 |
| 2025-09-09T12:07:00 | 57.715425 | 8.399275 | 2.0 | 16.734 | 2 | 41.972 | 16.892 | 32.543 | 2 |
| 2025-09-09T12:08:00 | 57.715912 | 8.399297 | 2.0 | 16.754 | 2 | 41.943 | 16.899 | 32.512 | 2 |
| 2025-09-09T12:09:00 | 57.716395 | 8.399325 | 2.0 | 16.777 | 2 | 41.934 | 16.917 | 32.489 | 2 |
| 2025-09-09T12:10:00 | 57.716875 | 8.399357 | 2.0 | 16.795 | 2 | 41.936 | 16.942 | 32.471 | 2 |
| 2025-09-09T12:11:00 | 57.717348 | 8.399374 | 2.0 | 16.796 | 2 | 41.931 | 16.954 | 32.457 | 2 |
| 2025-09-09T12:12:00 | 57.717813 | 8.399398 | 2.0 | 16.805 | 2 | 41.922 | 16.956 | 32.448 | 2 |
| 2025-09-09T12:13:00 | 57.718278 | 8.399419 | 2.0 | 16.791 | 2 | 41.922 | 16.966 | 32.440 | 2 |
| 2025-09-09T12:14:00 | 57.718742 | 8.399427 | 2.0 | 16.802 | 2 | 41.897 | 16.950 | 32.431 | 2 |
| 2025-09-09T12:15:00 | 57.719204 | 8.399436 | 2.0 | 16.800 | 2 | 41.903 | 16.964 | 32.425 | 2 |
| 2025-09-09T12:16:00 | 57.719667 | 8.399460 | 2.0 | 16.824 | 2 | 41.904 | 16.966 | 32.424 | 2 |
| 2025-09-09T12:17:00 | 57.720132 | 8.399481 | 2.0 | 16.822 | 2 | 41.914 | 16.978 | 32.423 | 2 |
| 2025-09-09T12:18:00 | 57.720599 | 8.399507 | 2.0 | 16.817 | 2 | 41.917 | 16.983 | 32.422 | 2 |
| 2025-09-09T12:19:00 | 57.721068 | 8.399535 | 2.0 | 16.807 | 2 | 41.907 | 16.974 | 32.420 | 2 |
| 2025-09-09T12:20:00 | 57.721542 | 8.399558 | 2.0 | 16.794 | 2 | 41.902 | 16.971 | 32.418 | 2 |
| 2025-09-09T12:21:00 | 57.722015 | 8.399580 | 2.0 | 16.805 | 2 | 41.887 | 16.956 | 32.417 | 2 |
| 2025-09-09T12:22:00 | 57.722491 | 8.399599 | 2.0 | 16.800 | 2 | 41.892 | 16.964 | 32.415 | 2 |
| 2025-09-09T12:23:00 | 57.722957 | 8.399624 | 2.0 | 16.834 | 2 | 41.892 | 16.965 | 32.414 | 2 |
| 2025-09-09T12:24:00 | 57.723415 | 8.399646 | 2.0 | 16.826 | 2 | 41.919 | 16.995 | 32.414 | 2 |
| 2025-09-09T12:25:00 | 57.723872 | 8.399684 | 2.0 | 16.798 | 2 | 41.907 | 16.979 | 32.416 | 2 |
| 2025-09-09T12:26:00 | 57.724327 | 8.399715 | 2.0 | 16.804 | 2 | 41.886 | 16.961 | 32.412 | 2 |
| 2025-09-09T12:27:00 | 57.724780 | 8.399743 | 2.0 | 16.804 | 2 | 41.886 | 16.965 | 32.409 | 2 |
| 2025-09-09T12:28:00 | 57.725232 | 8.399782 | 2.0 | 16.822 | 2 | 41.890 | 16.970 | 32.409 | 2 |
| 2025-09-09T12:29:00 | 57.725684 | 8.399812 | 2.0 | 16.815 | 2 | 41.896 | 16.976 | 32.409 | 2 |
| 2025-09-09T12:30:00 | 57.726140 | 8.399840 | 2.0 | 16.808 | 2 | 41.897 | 16.977 | 32.409 | 2 |
| 2025-09-09T12:31:00 | 57.726594 | 8.399879 | 2.0 | 16.806 | 2 | 41.888 | 16.967 | 32.409 | 2 |
| 2025-09-09T12:32:00 | 57.727049 | 8.399923 | 2.0 | 16.814 | 2 | 41.885 | 16.966 | 32.408 | 2 |
| 2025-09-09T12:33:00 | 57.727501 | 8.399977 | 2.0 | 16.834 | 2 | 41.899 | 16.984 | 32.405 | 2 |
| 2025-09-09T12:34:00 | 57.727950 | 8.400025 | 2.0 | 16.831 | 2 | 41.909 | 16.992 | 32.407 | 2 |
| 2025-09-09T12:35:00 | 57.728399 | 8.400081 | 2.0 | 16.823 | 2 | 41.905 | 16.990 | 32.406 | 2 |
| 2025-09-09T12:36:00 | 57.728840 | 8.400131 | 2.0 | 16.832 | 2 | 41.902 | 16.987 | 32.405 | 2 |
| 2025-09-09T12:37:00 | 57.729280 | 8.400185 | 2.0 | 16.837 | 2 | 41.903 | 16.990 | 32.404 | 2 |
| 2025-09-09T12:38:00 | 57.729721 | 8.400240 | 2.0 | 16.844 | 2 | 41.911 | 16.998 | 32.404 | 2 |
| 2025-09-09T12:39:00 | 57.730160 | 8.400300 | 2.0 | 16.860 | 2 | 41.918 | 17.008 | 32.402 | 2 |
| 2025-09-09T12:40:00 | 57.730603 | 8.400356 | 2.0 | 16.806 | 2 | 41.919 | 17.001 | 32.409 | 2 |
| 2025-09-09T12:41:00 | 57.731048 | 8.400401 | 2.0 | 16.810 | 2 | 41.892 | 16.967 | 32.413 | 2 |
| 2025-09-09T12:42:00 | 57.731547 | 8.400436 | 2.0 | 16.821 | 2 | 41.893 | 16.973 | 32.409 | 2 |
| 2025-09-09T12:43:00 | 57.732122 | 8.400550 | 2.0 | 16.843 | 2 | 41.906 | 16.988 | 32.408 | 2 |
| 2025-09-09T12:44:00 | 57.732697 | 8.401087 | 2.0 | 16.823 | 2 | 41.915 | 16.995 | 32.410 | 2 |
| 2025-09-09T12:45:00 | 57.733181 | 8.402024 | 2.0 | 16.829 | 2 | 41.904 | 16.985 | 32.409 | 2 |
| 2025-09-09T12:46:00 | 57.733499 | 8.403260 | 2.0 | 16.827 | 2 | 41.908 | 16.989 | 32.409 | 2 |
| 2025-09-09T12:47:00 | 57.733611 | 8.404656 | 2.0 | 16.842 | 2 | 41.906 | 16.985 | 32.410 | 2 |
| 2025-09-09T12:48:00 | 57.733490 | 8.406050 | 2.0 | 16.852 | 2 | 41.924 | 17.003 | 32.411 | 2 |
| 2025-09-09T12:49:00 | 57.733157 | 8.407328 | 2.0 | 16.840 | 2 | 41.928 | 17.009 | 32.410 | 2 |
| 2025-09-09T12:50:00 | 57.732741 | 8.408660 | 2.0 | 16.824 | 2 | 41.916 | 16.993 | 32.413 | 2 |
| 2025-09-09T12:51:00 | 57.732180 | 8.409873 | 2.0 | 16.831 | 2 | 41.909 | 16.987 | 32.411 | 2 |
| 2025-09-09T12:52:00 | 57.731568 | 8.411067 | 2.0 | 16.830 | 2 | 41.912 | 16.991 | 32.411 | 2 |
| 2025-09-09T12:53:00 | 57.730932 | 8.412245 | 2.0 | 16.843 | 2 | 41.913 | 16.989 | 32.413 | 2 |
| 2025-09-09T12:54:00 | 57.730278 | 8.413392 | 2.0 | 16.842 | 2 | 41.925 | 17.003 | 32.412 | 2 |
| 2025-09-09T12:55:00 | 57.729636 | 8.414535 | 2.0 | 16.844 | 2 | 41.922 | 17.001 | 32.411 | 2 |
| 2025-09-09T12:56:00 | 57.728982 | 8.415626 | 2.0 | 16.843 | 2 | 41.923 | 17.003 | 32.411 | 2 |
| 2025-09-09T12:57:00 | 57.728329 | 8.416695 | 2.0 | 16.841 | 2 | 41.923 | 17.001 | 32.412 | 2 |
| 2025-09-09T12:58:00 | 57.727680 | 8.417714 | 2.0 | 16.840 | 2 | 41.923 | 17.001 | 32.412 | 2 |
| 2025-09-09T12:59:00 | 57.727026 | 8.418725 | 2.0 | 16.852 | 2 | 41.921 | 16.999 | 32.412 | 2 |
| 2025-09-09T13:00:00 | 57.726376 | 8.419737 | 2.0 | 16.845 | 2 | 41.927 | 17.009 | 32.409 | 2 |
| 2025-09-09T13:01:00 | 57.725723 | 8.420724 | 2.0 | 16.845 | 2 | 41.927 | 17.006 | 32.412 | 2 |
| 2025-09-09T13:02:00 | 57.725070 | 8.421708 | 2.0 | 16.844 | 2 | 41.927 | 17.004 | 32.413 | 2 |
| 2025-09-09T13:03:00 | 57.724414 | 8.422699 | 2.0 | 16.844 | 2 | 41.929 | 17.004 | 32.415 | 2 |
| 2025-09-09T13:04:00 | 57.723753 | 8.423675 | 2.0 | 16.840 | 2 | 41.930 | 17.003 | 32.417 | 2 |
| 2025-09-09T13:05:00 | 57.723079 | 8.424604 | 2.0 | 16.844 | 2 | 41.932 | 17.001 | 32.420 | 2 |
| 2025-09-09T13:06:00 | 57.722400 | 8.425489 | 2.0 | 16.843 | 2 | 41.937 | 17.003 | 32.423 | 2 |
| 2025-09-09T13:07:00 | 57.721722 | 8.426347 | 2.0 | 16.854 | 2 | 41.942 | 17.003 | 32.427 | 2 |
| 2025-09-09T13:08:00 | 57.721048 | 8.427202 | 2.0 | 16.865 | 2 | 41.959 | 17.014 | 32.433 | 2 |
| 2025-09-09T13:09:00 | 57.720375 | 8.428063 | 2.0 | 16.873 | 2 | 41.979 | 17.026 | 32.440 | 2 |
| 2025-09-09T13:10:00 | 57.719704 | 8.428929 | 2.0 | 16.838 | 2 | 41.990 | 17.027 | 32.449 | 2 |
| 2025-09-09T13:11:00 | 57.719007 | 8.429691 | 2.0 | 16.798 | 2 | 41.965 | 16.988 | 32.459 | 2 |
| 2025-09-09T13:12:00 | 57.718303 | 8.430426 | 2.0 | 16.788 | 2 | 41.953 | 16.962 | 32.470 | 2 |
| 2025-09-09T13:13:00 | 57.717574 | 8.431047 | 2.0 | 16.816 | 2 | 41.966 | 16.951 | 32.490 | 2 |
| 2025-09-09T13:14:00 | 57.716847 | 8.431641 | 2.0 | 16.825 | 2 | 41.995 | 16.975 | 32.495 | 2 |
| 2025-09-09T13:15:00 | 57.716116 | 8.432242 | 2.0 | 16.828 | 2 | 42.027 | 16.987 | 32.513 | 2 |
| 2025-09-09T13:16:00 | 57.715381 | 8.432843 | 2.0 | 16.800 | 2 | 42.078 | 16.981 | 32.562 | 2 |
| 2025-09-09T13:17:00 | 57.714642 | 8.433437 | 2.0 | 16.683 | 2 | 42.169 | 16.943 | 32.672 | 2 |
| 2025-09-09T13:18:00 | 57.713914 | 8.434046 | 2.0 | 16.698 | 2 | 42.277 | 16.849 | 32.842 | 2 |
| 2025-09-09T13:19:00 | 57.713194 | 8.434669 | 2.0 | 16.677 | 2 | 42.373 | 16.854 | 32.921 | 2 |
| 2025-09-09T13:20:00 | 57.712495 | 8.435298 | 2.0 | 16.672 | 2 | 42.414 | 16.839 | 32.969 | 2 |
| 2025-09-09T13:21:00 | 57.711795 | 8.435937 | 2.0 | 16.704 | 2 | 42.460 | 16.845 | 33.004 | 2 |
| 2025-09-09T13:22:00 | 57.711090 | 8.436581 | 2.0 | 16.661 | 2 | 42.508 | 16.858 | 33.035 | 2 |
| 2025-09-09T13:23:00 | 57.710383 | 8.437223 | 2.0 | 16.650 | 2 | 42.490 | 16.825 | 33.046 | 2 |
| 2025-09-09T13:24:00 | 57.709665 | 8.437749 | 2.0 | 16.677 | 2 | 42.513 | 16.813 | 33.076 | 2 |
| 2025-09-09T13:25:00 | 57.708951 | 8.438264 | 2.0 | 16.656 | 2 | 42.591 | 16.836 | 33.125 | 2 |
| 2025-09-09T13:26:00 | 57.708197 | 8.438778 | 2.0 | 16.667 | 2 | 42.592 | 16.821 | 33.138 | 2 |
| 2025-09-09T13:27:00 | 57.707414 | 8.439303 | 2.0 | 16.639 | 2 | 42.603 | 16.824 | 33.146 | 2 |
| 2025-09-09T13:28:00 | 57.706606 | 8.439599 | 2.0 | 16.620 | 2 | 42.591 | 16.796 | 33.158 | 2 |
| 2025-09-09T13:29:00 | 57.705782 | 8.439722 | 2.0 | 16.601 | 2 | 42.591 | 16.779 | 33.172 | 2 |
| 2025-09-09T13:30:00 | 57.704955 | 8.439696 | 2.0 | 16.574 | 2 | 42.598 | 16.762 | 33.192 | 2 |
| 2025-09-09T13:31:00 | 57.704106 | 8.439644 | 2.0 | 16.536 | 2 | 42.604 | 16.722 | 33.231 | 2 |
| 2025-09-09T13:32:00 | 57.703195 | 8.439576 | 2.0 | 16.520 | 2 | 42.621 | 16.699 | 33.265 | 2 |
| 2025-09-09T13:33:00 | 57.702209 | 8.439534 | 2.0 | 16.543 | 2 | 42.660 | 16.685 | 33.310 | 2 |
| 2025-09-09T13:34:00 | 57.701175 | 8.439468 | 2.0 | 16.577 | 2 | 42.715 | 16.714 | 33.334 | 2 |
| 2025-09-09T13:35:00 | 57.700090 | 8.439329 | 2.0 | 16.570 | 2 | 42.769 | 16.732 | 33.366 | 2 |
| 2025-09-09T13:36:00 | 57.698993 | 8.439165 | 2.0 | 16.564 | 2 | 42.797 | 16.732 | 33.391 | 2 |
| 2025-09-09T13:37:00 | 57.697879 | 8.439028 | 2.0 | 16.538 | 2 | 42.801 | 16.717 | 33.407 | 2 |
| 2025-09-09T13:38:00 | 57.696759 | 8.438880 | 2.0 | 16.572 | 2 | 42.821 | 16.712 | 33.428 | 2 |
| 2025-09-09T13:39:00 | 57.695639 | 8.438709 | 2.0 | 16.556 | 2 | 42.868 | 16.737 | 33.448 | 2 |
| 2025-09-09T13:40:00 | 57.694499 | 8.438470 | 2.0 | 16.534 | 2 | 42.866 | 16.711 | 33.468 | 2 |
| 2025-09-09T13:41:00 | 57.693371 | 8.438089 | 2.0 | 16.529 | 2 | 42.864 | 16.696 | 33.479 | 2 |
| 2025-09-09T13:42:00 | 57.692278 | 8.437544 | 2.0 | 16.541 | 2 | 42.882 | 16.698 | 33.493 | 2 |
| 2025-09-09T13:43:00 | 57.691221 | 8.436881 | 2.0 | 16.581 | 2 | 42.905 | 16.708 | 33.505 | 2 |
| 2025-09-09T13:44:00 | 57.690199 | 8.436086 | 2.0 | 16.619 | 2 | 42.961 | 16.747 | 33.521 | 2 |
| 2025-09-09T13:45:00 | 57.689192 | 8.435191 | 2.0 | 16.615 | 2 | 43.004 | 16.780 | 33.531 | 2 |
| 2025-09-09T13:46:00 | 57.688220 | 8.434185 | 2.0 | 16.598 | 2 | 42.998 | 16.772 | 33.533 | 2 |
| 2025-09-09T13:47:00 | 57.687315 | 8.433045 | 2.0 | 16.579 | 2 | 42.980 | 16.758 | 33.529 | 2 |
| 2025-09-09T13:48:00 | 57.686471 | 8.431789 | 2.0 | 16.560 | 2 | 42.958 | 16.740 | 33.524 | 2 |
| 2025-09-09T13:49:00 | 57.685662 | 8.430448 | 2.0 | 16.547 | 2 | 42.938 | 16.719 | 33.525 | 2 |
| 2025-09-09T13:50:00 | 57.684915 | 8.429008 | 2.0 | 16.541 | 2 | 42.929 | 16.711 | 33.523 | 2 |
| 2025-09-09T13:51:00 | 57.684213 | 8.427487 | 2.0 | 16.544 | 2 | 42.924 | 16.702 | 33.527 | 2 |
| 2025-09-09T13:52:00 | 57.683573 | 8.425863 | 2.0 | 16.511 | 2 | 42.934 | 16.702 | 33.535 | 2 |
| 2025-09-09T13:53:00 | 57.682982 | 8.424174 | 2.0 | 16.471 | 2 | 42.915 | 16.674 | 33.542 | 2 |
| 2025-09-09T13:54:00 | 57.682440 | 8.422437 | 2.0 | 16.435 | 2 | 42.884 | 16.627 | 33.554 | 2 |
| 2025-09-09T13:55:00 | 57.681962 | 8.420650 | 2.0 | 16.426 | 2 | 42.870 | 16.596 | 33.568 | 2 |
| 2025-09-09T13:56:00 | 57.681555 | 8.418808 | 2.0 | 16.433 | 2 | 42.871 | 16.591 | 33.573 | 2 |
| 2025-09-09T13:57:00 | 57.681234 | 8.416877 | 2.0 | 16.424 | 2 | 42.875 | 16.596 | 33.573 | 2 |
| 2025-09-09T13:58:00 | 57.680991 | 8.414885 | 2.0 | 16.410 | 2 | 42.866 | 16.583 | 33.576 | 2 |
| 2025-09-09T13:59:00 | 57.680798 | 8.412857 | 2.0 | 16.490 | 2 | 42.875 | 16.589 | 33.578 | 2 |
| 2025-09-09T14:00:00 | 57.680653 | 8.410775 | 2.0 | 16.576 | 2 | 42.950 | 16.662 | 33.583 | 2 |
| 2025-09-09T14:01:00 | 57.680564 | 8.408668 | 2.0 | 16.620 | 2 | 43.057 | 16.744 | 33.608 | 2 |
| 2025-09-09T14:02:00 | 57.680518 | 8.406543 | 2.0 | 16.653 | 2 | 43.108 | 16.783 | 33.619 | 2 |
| 2025-09-09T14:03:00 | 57.680549 | 8.404406 | 2.0 | 16.680 | 2 | 43.138 | 16.816 | 33.618 | 2 |
| 2025-09-09T14:04:00 | 57.680690 | 8.402263 | 2.0 | 16.651 | 2 | 43.154 | 16.832 | 33.618 | 2 |
| 2025-09-09T14:05:00 | 57.681025 | 8.400195 | 2.0 | 16.617 | 2 | 43.129 | 16.805 | 33.619 | 2 |
| 2025-09-09T14:06:00 | 57.681448 | 8.398201 | 2.0 | 16.629 | 2 | 43.108 | 16.786 | 33.617 | 2 |
| 2025-09-09T14:07:00 | 57.681842 | 8.396207 | 2.0 | 16.640 | 2 | 43.111 | 16.792 | 33.614 | 2 |
| 2025-09-09T14:08:00 | 57.682221 | 8.394200 | 2.0 | 16.633 | 2 | 43.117 | 16.799 | 33.614 | 2 |
| 2025-09-09T14:09:00 | 57.682653 | 8.392247 | 2.0 | 16.649 | 2 | 43.112 | 16.796 | 33.612 | 2 |
| 2025-09-09T14:10:00 | 57.683183 | 8.390402 | 2.0 | 16.647 | 2 | 43.126 | 16.810 | 33.612 | 2 |
| 2025-09-09T14:11:00 | 57.683852 | 8.388704 | 2.0 | 16.605 | 2 | 43.120 | 16.799 | 33.616 | 2 |
| 2025-09-09T14:12:00 | 57.684646 | 8.387172 | 2.0 | 16.601 | 2 | 43.089 | 16.767 | 33.616 | 2 |
| 2025-09-09T14:13:00 | 57.685464 | 8.385699 | 2.0 | 16.605 | 2 | 43.085 | 16.766 | 33.613 | 2 |
| 2025-09-09T14:14:00 | 57.686276 | 8.384237 | 2.0 | 16.611 | 2 | 43.088 | 16.769 | 33.614 | 2 |
| 2025-09-09T14:15:00 | 57.687112 | 8.382805 | 2.0 | 16.602 | 2 | 43.087 | 16.767 | 33.614 | 2 |
| 2025-09-09T14:16:00 | 57.687994 | 8.381440 | 2.0 | 16.622 | 2 | 43.087 | 16.770 | 33.612 | 2 |
| 2025-09-09T14:17:00 | 57.688934 | 8.380185 | 2.0 | 16.573 | 2 | 43.103 | 16.785 | 33.613 | 2 |
| 2025-09-09T14:18:00 | 57.689946 | 8.379131 | 2.0 | 16.472 | 2 | 43.066 | 16.725 | 33.631 | 2 |
| 2025-09-09T14:19:00 | 57.690989 | 8.378332 | 2.0 | 16.490 | 2 | 42.990 | 16.630 | 33.645 | 2 |
| 2025-09-09T14:20:00 | 57.692057 | 8.377795 | 2.0 | 16.581 | 2 | 43.012 | 16.679 | 33.623 | 2 |
| 2025-09-09T14:21:00 | 57.693117 | 8.377321 | 2.0 | 16.611 | 2 | 43.062 | 16.739 | 33.616 | 2 |
| 2025-09-09T14:22:00 | 57.694146 | 8.376791 | 2.0 | 16.649 | 2 | 43.099 | 16.790 | 33.606 | 2 |
| 2025-09-09T14:23:00 | 57.695159 | 8.376217 | 2.0 | 16.608 | 2 | 43.084 | 16.803 | 33.582 | 2 |
| 2025-09-09T14:24:00 | 57.696181 | 8.375724 | 2.0 | 16.540 | 2 | 43.017 | 16.757 | 33.562 | 2 |
| 2025-09-09T14:25:00 | 57.697220 | 8.375358 | 2.0 | 16.549 | 2 | 42.937 | 16.706 | 33.535 | 2 |
| 2025-09-09T14:26:00 | 57.698257 | 8.375307 | 2.0 | 16.585 | 2 | 42.931 | 16.722 | 33.516 | 2 |
| 2025-09-09T14:27:00 | 57.699272 | 8.375522 | 2.0 | 16.588 | 2 | 42.942 | 16.734 | 33.516 | 2 |
| 2025-09-09T14:28:00 | 57.700262 | 8.375867 | 2.0 | 16.606 | 2 | 42.957 | 16.755 | 33.511 | 2 |
| 2025-09-09T14:29:00 | 57.701244 | 8.376261 | 2.0 | 16.599 | 2 | 42.970 | 16.764 | 33.515 | 2 |
| 2025-09-09T14:30:00 | 57.702222 | 8.376681 | 2.0 | 16.596 | 2 | 42.966 | 16.758 | 33.516 | 2 |
| 2025-09-09T14:31:00 | 57.703188 | 8.377118 | 2.0 | 16.577 | 2 | 42.974 | 16.767 | 33.516 | 2 |
| 2025-09-09T14:32:00 | 57.704137 | 8.377608 | 2.0 | 16.529 | 2 | 42.940 | 16.723 | 33.523 | 2 |
| 2025-09-09T14:33:00 | 57.705094 | 8.378163 | 2.0 | 16.522 | 2 | 42.906 | 16.695 | 33.517 | 2 |
| 2025-09-09T14:34:00 | 57.706064 | 8.378969 | 2.0 | 16.520 | 2 | 42.897 | 16.688 | 33.515 | 2 |
| 2025-09-09T14:35:00 | 57.707023 | 8.379968 | 2.0 | 16.598 | 2 | 42.918 | 16.713 | 33.512 | 2 |
| 2025-09-09T14:36:00 | 57.707965 | 8.381064 | 2.0 | 16.593 | 2 | 42.962 | 16.757 | 33.514 | 2 |
| 2025-09-09T14:37:00 | 57.708871 | 8.382247 | 2.0 | 16.576 | 2 | 42.953 | 16.750 | 33.512 | 2 |
| 2025-09-09T14:38:00 | 57.709772 | 8.383452 | 2.0 | 16.591 | 2 | 42.942 | 16.741 | 33.510 | 2 |
| 2025-09-09T14:39:00 | 57.710691 | 8.384577 | 2.0 | 16.624 | 2 | 42.963 | 16.759 | 33.513 | 2 |
| 2025-09-09T14:40:00 | 57.711623 | 8.385636 | 2.0 | 16.636 | 2 | 43.007 | 16.791 | 33.525 | 2 |
| 2025-09-09T14:41:00 | 57.712560 | 8.386633 | 2.0 | 16.628 | 2 | 43.028 | 16.796 | 33.539 | 2 |
| 2025-09-09T14:42:00 | 57.713520 | 8.387522 | 2.0 | 16.593 | 2 | 43.015 | 16.777 | 33.543 | 2 |
| 2025-09-09T14:43:00 | 57.714480 | 8.388401 | 2.0 | 16.626 | 2 | 42.970 | 16.760 | 33.518 | 2 |
| 2025-09-09T14:44:00 | 57.715449 | 8.389242 | 2.0 | 16.665 | 2 | 42.900 | 16.797 | 33.426 | 2 |
| 2025-09-09T14:45:00 | 57.716423 | 8.390059 | 2.0 | 16.665 | 2 | 42.799 | 16.825 | 33.315 | 2 |
| 2025-09-09T14:46:00 | 57.717379 | 8.390896 | 2.0 | 16.676 | 2 | 42.701 | 16.830 | 33.226 | 2 |
| 2025-09-09T14:47:00 | 57.718328 | 8.391754 | 2.0 | 16.665 | 2 | 42.597 | 16.835 | 33.131 | 2 |
| 2025-09-09T14:48:00 | 57.719271 | 8.392635 | 2.0 | 16.672 | 2 | 42.502 | 16.826 | 33.056 | 2 |
| 2025-09-09T14:49:00 | 57.720207 | 8.393517 | 2.0 | 16.703 | 2 | 42.454 | 16.839 | 33.004 | 2 |
| 2025-09-09T14:50:00 | 57.721145 | 8.394381 | 2.0 | 16.730 | 2 | 42.427 | 16.875 | 32.951 | 2 |
| 2025-09-09T14:51:00 | 57.722079 | 8.395247 | 2.0 | 16.736 | 2 | 42.404 | 16.889 | 32.919 | 2 |
| 2025-09-09T14:52:00 | 57.723002 | 8.396109 | 2.0 | 16.763 | 2 | 42.383 | 16.902 | 32.890 | 2 |
| 2025-09-09T14:53:00 | 57.723930 | 8.396975 | 2.0 | 16.796 | 2 | 42.366 | 16.933 | 32.850 | 2 |
| 2025-09-09T14:54:00 | 57.724909 | 8.397866 | 2.0 | 16.756 | 2 | 42.340 | 16.950 | 32.814 | 2 |
| 2025-09-09T14:55:00 | 57.725913 | 8.398790 | 2.0 | 16.780 | 2 | 42.259 | 16.918 | 32.770 | 2 |
| 2025-09-09T14:56:00 | 57.726938 | 8.399696 | 2.0 | 16.782 | 2 | 42.212 | 16.943 | 32.709 | 2 |
| 2025-09-09T14:57:00 | 57.727930 | 8.400589 | 2.0 | 16.824 | 2 | 42.154 | 16.949 | 32.654 | 2 |
| 2025-09-09T14:58:00 | 57.728893 | 8.401462 | 2.0 | 16.860 | 2 | 42.141 | 16.987 | 32.612 | 2 |
| 2025-09-09T14:59:00 | 57.729834 | 8.402344 | 2.0 | 16.879 | 2 | 42.132 | 17.022 | 32.576 | 2 |
| 2025-09-09T15:00:00 | 57.730756 | 8.403224 | 2.0 | 16.863 | 2 | 42.109 | 17.034 | 32.546 | 2 |
| 2025-09-09T15:01:00 | 57.731669 | 8.404108 | 2.0 | 16.883 | 2 | 42.071 | 17.026 | 32.520 | 2 |
| 2025-09-09T15:02:00 | 57.732586 | 8.404951 | 2.0 | 16.890 | 2 | 42.059 | 17.045 | 32.494 | 2 |
| 2025-09-09T15:03:00 | 57.733374 | 8.405762 | 2.0 | 16.878 | 2 | 42.040 | 17.049 | 32.474 | 2 |
| 2025-09-09T15:04:00 | 57.733932 | 8.406613 | 2.0 | 16.844 | 2 | 42.019 | 17.033 | 32.469 | 2 |
| 2025-09-09T15:05:00 | 57.734404 | 8.407294 | 2.0 | 16.817 | 2 | 41.987 | 17.000 | 32.468 | 2 |
| 2025-09-09T15:06:00 | 57.734825 | 8.407827 | 2.0 | 16.839 | 2 | 41.964 | 16.984 | 32.461 | 2 |
| 2025-09-09T15:07:00 | 57.735209 | 8.408239 | 2.0 | 16.832 | 2 | 41.968 | 16.996 | 32.455 | 2 |
| 2025-09-09T15:08:00 | 57.735548 | 8.408570 | 2.0 | 16.844 | 2 | 41.963 | 16.997 | 32.450 | 2 |
| 2025-09-09T15:09:00 | 57.735858 | 8.408801 | 2.0 | 16.855 | 2 | 41.969 | 17.007 | 32.447 | 2 |
| 2025-09-09T15:10:00 | 57.736148 | 8.408937 | 2.0 | 16.860 | 2 | 41.973 | 17.015 | 32.444 | 2 |
| 2025-09-09T15:11:00 | 57.736420 | 8.409026 | 2.0 | 16.863 | 2 | 41.976 | 17.021 | 32.442 | 2 |
| 2025-09-09T15:12:00 | 57.736678 | 8.409097 | 2.0 | 16.868 | 2 | 41.973 | 17.022 | 32.438 | 2 |
| 2025-09-09T15:13:00 | 57.736917 | 8.409144 | 2.0 | 16.868 | 2 | 41.978 | 17.029 | 32.437 | 2 |
| 2025-09-09T15:14:00 | 57.737146 | 8.409171 | 2.0 | 16.878 | 2 | 41.979 | 17.030 | 32.437 | 2 |
| 2025-09-09T15:15:00 | 57.737358 | 8.409177 | 2.0 | 16.882 | 2 | 41.984 | 17.037 | 32.436 | 2 |
| 2025-09-09T15:16:00 | 57.737564 | 8.409157 | 2.0 | 16.897 | 2 | 41.990 | 17.048 | 32.432 | 2 |
| 2025-09-09T15:17:00 | 57.737764 | 8.409127 | 2.0 | 16.910 | 2 | 41.999 | 17.059 | 32.431 | 2 |
| 2025-09-09T15:18:00 | 57.737971 | 8.409093 | 2.0 | 16.929 | 2 | 42.011 | 17.073 | 32.430 | 2 |
| 2025-09-09T15:19:00 | 57.738199 | 8.409329 | 2.0 | 16.938 | 2 | 42.024 | 17.089 | 32.428 | 2 |
| 2025-09-09T15:20:00 | 57.738143 | 8.409869 | 2.0 | 16.935 | 2 | 42.033 | 17.099 | 32.428 | 2 |
| 2025-09-09T15:21:00 | 57.737461 | 8.410057 | 2.0 | 16.887 | 2 | 42.020 | 17.077 | 32.435 | 2 |
| 2025-09-09T15:22:00 | 57.736044 | 8.409823 | 2.0 | 16.868 | 2 | 41.998 | 17.047 | 32.440 | 2 |
| 2025-09-09T15:23:00 | 57.733931 | 8.409156 | 2.0 | 16.872 | 2 | 42.001 | 17.030 | 32.456 | 2 |
| 2025-09-09T15:24:00 | 57.731478 | 8.408589 | 2.0 | 16.867 | 2 | 42.029 | 17.040 | 32.472 | 2 |
| 2025-09-09T15:25:00 | 57.728915 | 8.408076 | 2.0 | 16.862 | 2 | 42.060 | 17.025 | 32.511 | 2 |
| 2025-09-09T15:26:00 | 57.726311 | 8.408006 | 2.0 | 16.805 | 2 | 42.132 | 17.013 | 32.583 | 2 |
| 2025-09-09T15:27:00 | 57.723685 | 8.408084 | 2.0 | 16.785 | 2 | 42.201 | 16.963 | 32.683 | 2 |
| 2025-09-09T15:28:00 | 57.721164 | 8.408171 | 2.0 | 16.717 | 2 | 42.355 | 16.943 | 32.833 | 2 |
| 2025-09-09T15:29:00 | 57.719229 | 8.408293 | 2.0 | 16.683 | 2 | 42.449 | 16.886 | 32.961 | 2 |
| 2025-09-09T15:30:00 | 57.717781 | 8.408139 | 2.0 | 16.667 | 2 | 42.491 | 16.859 | 33.019 | 2 |
| 2025-09-09T15:31:00 | 57.717297 | 8.407122 | 2.0 | 16.666 | 2 | 42.619 | 16.847 | 33.140 | 2 |
| 2025-09-09T15:32:00 | 57.717410 | 8.406600 | 2.0 | 16.663 | 2 | 42.693 | 16.844 | 33.207 | 2 |
| 2025-09-09T15:33:00 | 57.717577 | 8.406410 | 2.0 | 16.667 | 2 | 42.679 | 16.845 | 33.194 | 2 |
| 2025-09-09T15:34:00 | 57.717749 | 8.406261 | 2.0 | 16.665 | 2 | 42.650 | 16.846 | 33.168 | 2 |
| 2025-09-09T15:35:00 | 57.717914 | 8.406132 | 2.0 | 16.666 | 2 | 42.639 | 16.845 | 33.159 | 2 |
| 2025-09-09T15:36:00 | 57.718066 | 8.406018 | 2.0 | 16.672 | 2 | 42.627 | 16.849 | 33.146 | 2 |
| 2025-09-09T15:37:00 | 57.718246 | 8.405904 | 2.0 | 16.672 | 2 | 42.609 | 16.853 | 33.127 | 2 |
| 2025-09-09T15:38:00 | 57.718394 | 8.405860 | 2.0 | 16.648 | 2 | 42.611 | 16.842 | 33.138 | 2 |
| 2025-09-09T15:39:00 | 57.718459 | 8.405756 | 2.0 | 16.666 | 2 | 42.614 | 16.838 | 33.144 | 2 |
| 2025-09-09T15:40:00 | 57.718532 | 8.405710 | 2.0 | 16.666 | 2 | 42.596 | 16.849 | 33.119 | 2 |
| 2025-09-09T15:41:00 | 57.718628 | 8.405900 | 2.0 | 16.666 | 2 | 42.599 | 16.849 | 33.121 | 2 |
| 2025-09-09T15:42:00 | 57.718344 | 8.406795 | 2.0 | 16.660 | 2 | 42.600 | 16.845 | 33.126 | 2 |
| 2025-09-09T15:43:00 | 57.717709 | 8.409298 | 2.0 | 16.658 | 2 | 42.598 | 16.849 | 33.121 | 2 |
| 2025-09-09T15:44:00 | 57.716725 | 8.413132 | 2.0 | 16.670 | 2 | 42.637 | 16.847 | 33.156 | 2 |
| 2025-09-09T15:45:00 | 57.715632 | 8.417460 | 2.0 | 16.649 | 2 | 42.707 | 16.855 | 33.210 | 2 |
| 2025-09-09T15:46:00 | 57.714514 | 8.421949 | 2.0 | 16.635 | 2 | 42.826 | 16.835 | 33.330 | 2 |
| 2025-09-09T15:47:00 | 57.713373 | 8.426475 | 2.0 | 16.612 | 2 | 42.906 | 16.819 | 33.413 | 2 |
| 2025-09-09T15:48:00 | 57.712295 | 8.431088 | 2.0 | 16.581 | 2 | 42.960 | 16.797 | 33.479 | 2 |
| 2025-09-09T15:49:00 | 57.711294 | 8.435802 | 2.0 | 16.571 | 2 | 42.976 | 16.773 | 33.513 | 2 |
| 2025-09-09T15:50:00 | 57.710290 | 8.440541 | 2.0 | 16.565 | 2 | 42.966 | 16.762 | 33.513 | 2 |
| 2025-09-09T15:51:00 | 57.709284 | 8.445279 | 2.0 | 16.561 | 2 | 42.963 | 16.758 | 33.514 | 2 |
| 2025-09-09T15:52:00 | 57.708281 | 8.450022 | 2.0 | 16.553 | 2 | 42.944 | 16.752 | 33.502 | 2 |
| 2025-09-09T15:53:00 | 57.707282 | 8.454772 | 2.0 | 16.550 | 2 | 42.935 | 16.745 | 33.500 | 2 |
| 2025-09-09T15:54:00 | 57.706277 | 8.459533 | 2.0 | 16.542 | 2 | 42.920 | 16.739 | 33.492 | 2 |
| 2025-09-09T15:55:00 | 57.705271 | 8.464294 | 2.0 | 16.506 | 2 | 42.912 | 16.735 | 33.489 | 2 |
| 2025-09-09T15:56:00 | 57.704260 | 8.469042 | 2.0 | 16.533 | 2 | 42.874 | 16.697 | 33.487 | 2 |
| 2025-09-09T15:57:00 | 57.703259 | 8.473793 | 2.0 | 16.534 | 2 | 42.874 | 16.723 | 33.465 | 2 |
| 2025-09-09T15:58:00 | 57.702164 | 8.478314 | 2.0 | 16.538 | 2 | 42.860 | 16.727 | 33.450 | 2 |
| 2025-09-09T15:59:00 | 57.701182 | 8.481683 | 2.0 | 16.552 | 2 | 42.870 | 16.732 | 33.454 | 2 |
| 2025-09-09T16:00:00 | 57.700482 | 8.484206 | 2.0 | 16.554 | 2 | 42.884 | 16.741 | 33.459 | 2 |
| 2025-09-09T16:01:00 | 57.699835 | 8.486067 | 2.0 | 16.556 | 2 | 42.892 | 16.744 | 33.464 | 2 |
| 2025-09-09T16:02:00 | 57.699283 | 8.487568 | 2.0 | 16.558 | 2 | 42.899 | 16.746 | 33.468 | 2 |
| 2025-09-09T16:03:00 | 57.698969 | 8.488741 | 2.0 | 16.558 | 2 | 42.908 | 16.748 | 33.474 | 2 |
| 2025-09-09T16:04:00 | 57.698958 | 8.489491 | 2.0 | 16.559 | 2 | 42.907 | 16.748 | 33.473 | 2 |
| 2025-09-09T16:05:00 | 57.698946 | 8.489912 | 2.0 | 16.559 | 2 | 42.908 | 16.750 | 33.473 | 2 |
| 2025-09-09T16:06:00 | 57.698948 | 8.490130 | 2.0 | 16.471 | 2 | 42.907 | 16.747 | 33.474 | 2 |
| 2025-09-09T16:07:00 | 57.698958 | 8.490200 | 2.0 | 16.519 | 2 | 42.851 | 16.671 | 33.489 | 2 |
| 2025-09-09T16:08:00 | 57.698977 | 8.490216 | 2.0 | 16.508 | 2 | 42.877 | 16.711 | 33.478 | 2 |
| 2025-09-09T16:09:00 | 57.698995 | 8.490194 | 2.0 | 16.522 | 2 | 42.872 | 16.701 | 33.482 | 2 |
| 2025-09-09T16:10:00 | 57.699040 | 8.490136 | 2.0 | 16.523 | 2 | 42.879 | 16.712 | 33.479 | 2 |
| 2025-09-09T16:11:00 | 57.699071 | 8.490057 | 2.0 | 16.538 | 2 | 42.885 | 16.721 | 33.477 | 2 |
| 2025-09-09T16:12:00 | 57.699109 | 8.489982 | 2.0 | 16.525 | 2 | 42.893 | 16.726 | 33.479 | 2 |
| 2025-09-09T16:13:00 | 57.699151 | 8.489957 | 2.0 | 16.506 | 2 | 42.882 | 16.713 | 33.481 | 2 |
| 2025-09-09T16:14:00 | 57.699148 | 8.489940 | 2.0 | 16.520 | 2 | 42.872 | 16.704 | 33.480 | 2 |
| 2025-09-09T16:15:00 | 57.699133 | 8.489886 | 2.0 | 16.533 | 2 | 42.881 | 16.717 | 33.477 | 2 |
| 2025-09-09T16:16:00 | 57.699147 | 8.489852 | 2.0 | 16.508 | 2 | 42.886 | 16.719 | 33.479 | 2 |
| 2025-09-09T16:17:00 | 57.699192 | 8.489850 | 2.0 | 16.530 | 2 | 42.876 | 16.708 | 33.480 | 2 |
| 2025-09-09T16:18:00 | 57.699228 | 8.489864 | 2.0 | 16.542 | 2 | 42.889 | 16.728 | 33.474 | 2 |
| 2025-09-09T16:19:00 | 57.699259 | 8.489902 | 2.0 | 16.516 | 2 | 42.892 | 16.728 | 33.477 | 2 |
| 2025-09-09T16:20:00 | 57.699304 | 8.489961 | 2.0 | 16.522 | 2 | 42.881 | 16.716 | 33.477 | 2 |
| 2025-09-09T16:21:00 | 57.699321 | 8.489997 | 2.0 | 16.518 | 2 | 42.880 | 16.714 | 33.478 | 2 |
| 2025-09-09T16:22:00 | 57.699325 | 8.490011 | 2.0 | 16.531 | 2 | 42.879 | 16.714 | 33.477 | 2 |
| 2025-09-09T16:23:00 | 57.699309 | 8.490013 | 2.0 | 16.538 | 2 | 42.889 | 16.726 | 33.476 | 2 |
| 2025-09-09T16:24:00 | 57.699365 | 8.490026 | 2.0 | 16.519 | 2 | 42.894 | 16.730 | 33.477 | 2 |
| 2025-09-09T16:25:00 | 57.699410 | 8.490047 | 2.0 | 16.525 | 2 | 42.884 | 16.718 | 33.478 | 2 |
| 2025-09-09T16:26:00 | 57.699421 | 8.490089 | 2.0 | 16.495 | 2 | 42.882 | 16.715 | 33.479 | 2 |
| 2025-09-09T16:27:00 | 57.699425 | 8.490116 | 2.0 | 16.518 | 2 | 42.870 | 16.700 | 33.481 | 2 |
| 2025-09-09T16:28:00 | 57.699424 | 8.490119 | 2.0 | 16.528 | 2 | 42.883 | 16.719 | 33.477 | 2 |
| 2025-09-09T16:29:00 | 57.699413 | 8.490127 | 2.0 | 16.517 | 2 | 42.889 | 16.724 | 33.478 | 2 |
| 2025-09-09T16:30:00 | 57.699400 | 8.490147 | 2.0 | 16.505 | 2 | 42.882 | 16.713 | 33.481 | 2 |
| 2025-09-09T16:31:00 | 57.699430 | 8.490102 | 2.0 | 16.522 | 2 | 42.876 | 16.705 | 33.482 | 2 |
| 2025-09-09T16:32:00 | 57.699654 | 8.490199 | 2.0 | 16.514 | 2 | 42.885 | 16.714 | 33.483 | 2 |
| 2025-09-09T16:33:00 | 57.699717 | 8.491352 | 2.0 | 16.486 | 2 | 42.882 | 16.714 | 33.480 | 2 |
| 2025-09-09T16:34:00 | 57.699537 | 8.492833 | 2.0 | 16.472 | 2 | 42.855 | 16.674 | 33.490 | 2 |
| 2025-09-09T16:35:00 | 57.699388 | 8.494142 | 2.0 | 16.478 | 2 | 42.854 | 16.680 | 33.484 | 2 |
| 2025-09-09T16:36:00 | 57.699276 | 8.495269 | 2.0 | 16.455 | 2 | 42.853 | 16.676 | 33.486 | 2 |
| 2025-09-09T16:37:00 | 57.699213 | 8.496223 | 2.0 | 16.443 | 2 | 42.843 | 16.661 | 33.490 | 2 |
| 2025-09-09T16:38:00 | 57.699179 | 8.497037 | 2.0 | 16.438 | 2 | 42.831 | 16.641 | 33.496 | 2 |
| 2025-09-09T16:39:00 | 57.699163 | 8.497899 | 2.0 | 16.530 | 2 | 42.842 | 16.663 | 33.488 | 2 |
| 2025-09-09T16:40:00 | 57.699155 | 8.498691 | 2.0 | 16.531 | 2 | 42.890 | 16.722 | 33.480 | 2 |
| 2025-09-09T16:41:00 | 57.699138 | 8.499673 | 2.0 | 16.535 | 2 | 42.897 | 16.732 | 33.478 | 2 |
| 2025-09-09T16:42:00 | 57.699124 | 8.500718 | 2.0 | 16.534 | 2 | 42.897 | 16.733 | 33.477 | 2 |
| 2025-09-09T16:43:00 | 57.699086 | 8.501646 | 2.0 | 16.528 | 2 | 42.897 | 16.733 | 33.477 | 2 |
| 2025-09-09T16:44:00 | 57.699047 | 8.502594 | 2.0 | 16.529 | 2 | 42.895 | 16.728 | 33.480 | 2 |
| 2025-09-09T16:45:00 | 57.699007 | 8.503571 | 2.0 | 16.526 | 2 | 42.895 | 16.727 | 33.480 | 2 |
| 2025-09-09T16:46:00 | 57.698962 | 8.504162 | 2.0 | 16.526 | 2 | 42.894 | 16.725 | 33.481 | 2 |
| 2025-09-09T16:47:00 | 57.698904 | 8.504318 | 2.0 | 16.524 | 2 | 42.894 | 16.725 | 33.481 | 2 |
| 2025-09-09T16:48:00 | 57.698829 | 8.504453 | 2.0 | 16.529 | 2 | 42.894 | 16.725 | 33.481 | 2 |
| 2025-09-09T16:49:00 | 57.698700 | 8.504762 | 2.0 | 16.539 | 2 | 42.898 | 16.729 | 33.481 | 2 |
| 2025-09-09T16:50:00 | 57.698336 | 8.504675 | 2.0 | 16.539 | 2 | 42.908 | 16.738 | 33.483 | 2 |
| 2025-09-09T16:51:00 | 57.698492 | 8.503428 | 2.0 | 16.535 | 2 | 42.910 | 16.737 | 33.485 | 2 |
| 2025-09-09T16:52:00 | 57.699393 | 8.501309 | 2.0 | 16.505 | 2 | 42.907 | 16.735 | 33.484 | 2 |
| 2025-09-09T16:53:00 | 57.700818 | 8.498129 | 2.0 | 16.510 | 2 | 42.876 | 16.709 | 33.479 | 2 |
| 2025-09-09T16:54:00 | 57.702421 | 8.494557 | 2.0 | 16.496 | 2 | 42.866 | 16.712 | 33.468 | 2 |
| 2025-09-09T16:55:00 | 57.703870 | 8.491341 | 2.0 | 16.482 | 2 | 42.848 | 16.696 | 33.465 | 2 |
| 2025-09-09T16:56:00 | 57.705043 | 8.488742 | 2.0 | 16.532 | 2 | 42.825 | 16.679 | 33.459 | 2 |
| 2025-09-09T16:57:00 | 57.705829 | 8.487759 | 2.0 | 16.613 | 2 | 42.668 | 16.750 | 33.263 | 2 |
| 2025-09-09T16:58:00 | 57.706004 | 8.487872 | 2.0 | 16.656 | 2 | 42.564 | 16.813 | 33.121 | 2 |
| 2025-09-09T16:59:00 | 57.705976 | 8.487836 | 2.0 | 16.562 | 2 | 42.524 | 16.837 | 33.066 | 2 |
| 2025-09-09T17:00:00 | 57.705826 | 8.487866 | 2.0 | 16.601 | 2 | 42.660 | 16.775 | 33.236 | 2 |
| 2025-09-09T17:01:00 | 57.705521 | 8.488196 | 2.0 | 16.676 | 2 | 42.549 | 16.822 | 33.100 | 2 |
| 2025-09-09T17:02:00 | 57.705147 | 8.488612 | 2.0 | 16.592 | 2 | 42.450 | 16.862 | 32.981 | 2 |
| 2025-09-09T17:03:00 | 57.704789 | 8.488953 | 2.0 | 16.521 | 2 | 42.668 | 16.763 | 33.253 | 2 |
| 2025-09-09T17:04:00 | 57.704546 | 8.489083 | 2.0 | 16.504 | 2 | 42.739 | 16.729 | 33.343 | 2 |
| 2025-09-09T17:05:00 | 57.704380 | 8.489130 | 2.0 | 16.487 | 2 | 42.807 | 16.702 | 33.424 | 2 |
| 2025-09-09T17:06:00 | 57.704165 | 8.489364 | 2.0 | 16.486 | 2 | 42.843 | 16.689 | 33.467 | 2 |
| 2025-09-09T17:07:00 | 57.703992 | 8.489553 | 2.0 | 16.481 | 2 | 42.848 | 16.686 | 33.474 | 2 |
| 2025-09-09T17:08:00 | 57.703652 | 8.489885 | 2.0 | 16.496 | 2 | 42.849 | 16.686 | 33.474 | 2 |
| 2025-09-09T17:09:00 | 57.703233 | 8.489155 | 2.0 | 16.508 | 2 | 42.865 | 16.701 | 33.476 | 2 |
| 2025-09-09T17:10:00 | 57.702976 | 8.488069 | 2.0 | 16.510 | 2 | 42.882 | 16.709 | 33.484 | 2 |
| 2025-09-09T17:11:00 | 57.702746 | 8.487042 | 2.0 | 16.510 | 2 | 42.891 | 16.712 | 33.489 | 2 |
| 2025-09-09T17:12:00 | 57.702531 | 8.486121 | 2.0 | 16.501 | 2 | 42.897 | 16.709 | 33.497 | 2 |
| 2025-09-09T17:13:00 | 57.702445 | 8.485179 | 2.0 | 16.491 | 2 | 42.898 | 16.702 | 33.504 | 2 |
| 2025-09-09T17:14:00 | 57.702682 | 8.484846 | 2.0 | 16.481 | 2 | 42.886 | 16.691 | 33.503 | 2 |
| 2025-09-09T17:15:00 | 57.702881 | 8.484731 | 2.0 | 16.471 | 2 | 42.874 | 16.682 | 33.500 | 2 |
| 2025-09-09T17:16:00 | 57.703186 | 8.484808 | 2.0 | 16.450 | 2 | 42.863 | 16.671 | 33.499 | 2 |
| 2025-09-09T17:17:00 | 57.703730 | 8.485304 | 2.0 | 16.509 | 2 | 42.811 | 16.665 | 33.459 | 2 |
| 2025-09-09T17:18:00 | 57.704206 | 8.485849 | 2.0 | 16.557 | 2 | 42.716 | 16.713 | 33.336 | 2 |
| 2025-09-09T17:19:00 | 57.704316 | 8.486368 | 2.0 | 16.543 | 2 | 42.664 | 16.753 | 33.257 | 2 |
| 2025-09-09T17:20:00 | 57.704239 | 8.486780 | 2.0 | 16.535 | 2 | 42.694 | 16.744 | 33.291 | 2 |
| 2025-09-09T17:21:00 | 57.704115 | 8.487001 | 2.0 | 16.540 | 2 | 42.710 | 16.737 | 33.311 | 2 |
| 2025-09-09T17:22:00 | 57.703995 | 8.487044 | 2.0 | 16.514 | 2 | 42.703 | 16.741 | 33.301 | 2 |
| 2025-09-09T17:23:00 | 57.703867 | 8.487151 | 2.0 | 16.475 | 2 | 42.760 | 16.704 | 33.382 | 2 |
| 2025-09-09T17:24:00 | 57.703330 | 8.486984 | 2.0 | 16.468 | 2 | 42.796 | 16.677 | 33.436 | 2 |
| 2025-09-09T17:25:00 | 57.703033 | 8.485030 | 2.0 | 16.502 | 2 | 42.786 | 16.674 | 33.429 | 2 |
| 2025-09-09T17:26:00 | 57.702961 | 8.482975 | 2.0 | 16.556 | 2 | 42.732 | 16.716 | 33.347 | 2 |
| 2025-09-09T17:27:00 | 57.703094 | 8.481484 | 2.0 | 16.631 | 2 | 42.725 | 16.762 | 33.303 | 2 |
| 2025-09-09T17:28:00 | 57.703414 | 8.481200 | 2.0 | 16.636 | 2 | 42.551 | 16.823 | 33.101 | 2 |
| 2025-09-09T17:29:00 | 57.703582 | 8.481281 | 2.0 | 16.661 | 2 | 42.494 | 16.843 | 33.035 | 2 |
| 2025-09-09T17:30:00 | 57.703694 | 8.481537 | 2.0 | 16.651 | 2 | 42.462 | 16.856 | 32.997 | 2 |
| 2025-09-09T17:31:00 | 57.703725 | 8.481939 | 2.0 | 16.666 | 2 | 42.503 | 16.849 | 33.038 | 2 |
| 2025-09-09T17:32:00 | 57.703673 | 8.482442 | 2.0 | 16.661 | 2 | 42.432 | 16.867 | 32.962 | 2 |
| 2025-09-09T17:33:00 | 57.703591 | 8.482993 | 2.0 | 16.635 | 2 | 42.452 | 16.860 | 32.985 | 2 |
| 2025-09-09T17:34:00 | 57.703566 | 8.483606 | 2.0 | 16.604 | 2 | 42.521 | 16.835 | 33.065 | 2 |
| 2025-09-09T17:35:00 | 57.703684 | 8.484343 | 2.0 | 16.574 | 2 | 42.600 | 16.804 | 33.159 | 2 |
| 2025-09-09T17:36:00 | 57.703846 | 8.485237 | 2.0 | 16.655 | 2 | 42.619 | 16.789 | 33.188 | 2 |
| 2025-09-09T17:37:00 | 57.704032 | 8.486121 | 2.0 | 16.718 | 2 | 42.389 | 16.873 | 32.919 | 2 |
| 2025-09-09T17:38:00 | 57.704194 | 8.486966 | 2.0 | 16.731 | 2 | 42.291 | 16.919 | 32.797 | 2 |
| 2025-09-09T17:39:00 | 57.704372 | 8.487757 | 2.0 | 16.737 | 2 | 42.250 | 16.926 | 32.756 | 2 |
| 2025-09-09T17:40:00 | 57.704509 | 8.488482 | 2.0 | 16.754 | 2 | 42.217 | 16.929 | 32.725 | 2 |
| 2025-09-09T17:41:00 | 57.704671 | 8.489101 | 2.0 | 16.754 | 2 | 42.165 | 16.939 | 32.671 | 2 |
| 2025-09-09T17:42:00 | 57.704881 | 8.489548 | 2.0 | 16.756 | 2 | 42.160 | 16.938 | 32.668 | 2 |
| 2025-09-09T17:43:00 | 57.705291 | 8.489567 | 2.0 | 16.763 | 2 | 42.144 | 16.939 | 32.653 | 2 |
| 2025-09-09T17:44:00 | 57.706107 | 8.489420 | 2.0 | 16.758 | 2 | 42.120 | 16.943 | 32.629 | 2 |
| 2025-09-09T17:45:00 | 57.707396 | 8.489256 | 2.0 | 16.758 | 2 | 42.084 | 16.938 | 32.602 | 2 |
| 2025-09-09T17:46:00 | 57.709398 | 8.489130 | 2.0 | 16.751 | 2 | 42.027 | 16.938 | 32.553 | 2 |
| 2025-09-09T17:47:00 | 57.711861 | 8.489043 | 2.0 | 16.755 | 2 | 41.974 | 16.932 | 32.512 | 2 |
| 2025-09-09T17:48:00 | 57.714445 | 8.488997 | 2.0 | 16.774 | 2 | 41.950 | 16.941 | 32.484 | 2 |
| 2025-09-09T17:49:00 | 57.717054 | 8.488988 | 2.0 | 16.810 | 2 | 41.926 | 16.959 | 32.449 | 2 |
| 2025-09-09T17:50:00 | 57.719629 | 8.489013 | 2.0 | 16.827 | 2 | 41.924 | 16.993 | 32.420 | 2 |
| 2025-09-09T17:51:00 | 57.721683 | 8.489051 | 2.0 | 16.838 | 2 | 41.929 | 17.008 | 32.412 | 2 |
| 2025-09-09T17:52:00 | 57.723127 | 8.489308 | 2.0 | 16.831 | 2 | 41.931 | 17.013 | 32.409 | 2 |
| 2025-09-09T17:53:00 | 57.723299 | 8.490142 | 2.0 | 16.825 | 2 | 41.923 | 17.006 | 32.408 | 2 |
| 2025-09-09T17:54:00 | 57.723059 | 8.490354 | 2.0 | 16.827 | 2 | 41.918 | 17.001 | 32.408 | 2 |
| 2025-09-09T17:55:00 | 57.722667 | 8.490459 | 2.0 | 16.829 | 2 | 41.919 | 17.002 | 32.408 | 2 |
| 2025-09-09T17:56:00 | 57.722159 | 8.490689 | 2.0 | 16.833 | 2 | 41.921 | 17.004 | 32.408 | 2 |
| 2025-09-09T17:57:00 | 57.721559 | 8.490957 | 2.0 | 16.834 | 2 | 41.925 | 17.008 | 32.408 | 2 |
| 2025-09-09T17:58:00 | 57.720940 | 8.491179 | 2.0 | 16.835 | 2 | 41.927 | 17.009 | 32.409 | 2 |
| 2025-09-09T17:59:00 | 57.720325 | 8.491328 | 2.0 | 16.834 | 2 | 41.929 | 17.011 | 32.409 | 2 |
| 2025-09-09T18:00:00 | 57.719720 | 8.491444 | 2.0 | 16.827 | 2 | 41.927 | 17.006 | 32.412 | 2 |
| 2025-09-09T18:01:00 | 57.719152 | 8.491504 | 2.0 | 16.820 | 2 | 41.923 | 17.001 | 32.412 | 2 |
| 2025-09-09T18:02:00 | 57.718621 | 8.491490 | 2.0 | 16.811 | 2 | 41.917 | 16.993 | 32.413 | 2 |
| 2025-09-09T18:03:00 | 57.718119 | 8.491421 | 2.0 | 16.802 | 2 | 41.912 | 16.985 | 32.416 | 2 |
| 2025-09-09T18:04:00 | 57.717642 | 8.491349 | 2.0 | 16.805 | 2 | 41.910 | 16.974 | 32.423 | 2 |
| 2025-09-09T18:05:00 | 57.717164 | 8.491293 | 2.0 | 16.821 | 2 | 41.913 | 16.983 | 32.418 | 2 |
| 2025-09-09T18:06:00 | 57.716652 | 8.491245 | 2.0 | 16.817 | 2 | 41.921 | 16.993 | 32.417 | 2 |
| 2025-09-09T18:07:00 | 57.716112 | 8.491209 | 2.0 | 16.806 | 2 | 41.922 | 16.989 | 32.421 | 2 |
| 2025-09-09T18:08:00 | 57.715566 | 8.491195 | 2.0 | 16.793 | 2 | 41.916 | 16.977 | 32.425 | 2 |
| 2025-09-09T18:09:00 | 57.715005 | 8.491184 | 2.0 | 16.784 | 2 | 41.882 | 16.966 | 32.405 | 2 |
| 2025-09-09T18:10:00 | 57.714430 | 8.491181 | 2.0 | 16.776 | 2 | 41.905 | 16.955 | 32.434 | 2 |
| 2025-09-09T18:11:00 | 57.713848 | 8.491158 | 2.0 | 16.773 | 2 | 41.903 | 16.949 | 32.437 | 2 |
| 2025-09-09T18:12:00 | 57.713267 | 8.491144 | 2.0 | 16.762 | 2 | 41.733 | 16.945 | 32.293 | 2 |
| 2025-09-09T18:13:00 | 57.712673 | 8.491128 | 2.0 | 16.756 | 2 | 41.919 | 16.932 | 32.464 | 2 |
| 2025-09-09T18:14:00 | 57.712077 | 8.491114 | 2.0 | 16.760 | 2 | 41.929 | 16.931 | 32.474 | 2 |
| 2025-09-09T18:15:00 | 57.711476 | 8.491102 | 2.0 | 16.754 | 2 | 41.939 | 16.931 | 32.482 | 2 |
| 2025-09-09T18:16:00 | 57.710868 | 8.491056 | 2.0 | 16.751 | 2 | 41.946 | 16.926 | 32.493 | 2 |
| 2025-09-09T18:17:00 | 57.710273 | 8.490996 | 2.0 | 16.749 | 2 | 41.955 | 16.925 | 32.501 | 2 |
| 2025-09-09T18:18:00 | 57.709689 | 8.490916 | 2.0 | 16.735 | 2 | 41.960 | 16.918 | 32.511 | 2 |
| 2025-09-09T18:19:00 | 57.709106 | 8.490820 | 2.0 | 16.735 | 2 | 41.908 | 16.907 | 32.475 | 2 |
| 2025-09-09T18:20:00 | 57.708536 | 8.490716 | 2.0 | 16.742 | 2 | 41.948 | 16.909 | 32.508 | 2 |
| 2025-09-09T18:21:00 | 57.707974 | 8.490596 | 2.0 | 16.741 | 2 | 41.962 | 16.914 | 32.516 | 2 |
| 2025-09-09T18:22:00 | 57.707419 | 8.490455 | 2.0 | 16.746 | 2 | 41.783 | 16.913 | 32.362 | 2 |
| 2025-09-09T18:23:00 | 57.706884 | 8.490354 | 2.0 | 16.755 | 2 | 41.980 | 16.921 | 32.526 | 2 |
| 2025-09-09T18:24:00 | 57.706382 | 8.490317 | 2.0 | 16.747 | 2 | 41.904 | 16.925 | 32.457 | 2 |
| 2025-09-09T18:25:00 | 57.705858 | 8.490291 | 2.0 | 16.743 | 2 | 41.835 | 16.916 | 32.405 | 2 |
| 2025-09-09T18:26:00 | 57.705305 | 8.490270 | 2.0 | 16.749 | 2 | 42.029 | 16.916 | 32.572 | 2 |
| 2025-09-09T18:27:00 | 57.704740 | 8.490247 | 2.0 | 16.748 | 2 | 41.959 | 16.920 | 32.509 | 2 |
| 2025-09-09T18:28:00 | 57.704170 | 8.490218 | 2.0 | 16.749 | 2 | 42.029 | 16.919 | 32.570 | 2 |
| 2025-09-09T18:29:00 | 57.703587 | 8.490175 | 2.0 | 16.742 | 2 | 42.086 | 16.919 | 32.619 | 2 |
| 2025-09-09T18:30:00 | 57.703014 | 8.490155 | 2.0 | 16.731 | 2 | 41.929 | 16.910 | 32.491 | 2 |
| 2025-09-09T18:31:00 | 57.702444 | 8.490111 | 2.0 | 16.713 | 2 | 42.074 | 16.900 | 32.624 | 2 |
| 2025-09-09T18:32:00 | 57.701888 | 8.490080 | 2.0 | 16.676 | 2 | 42.061 | 16.880 | 32.629 | 2 |
| 2025-09-09T18:33:00 | 57.701343 | 8.490047 | 2.0 | 16.614 | 2 | 42.160 | 16.839 | 32.749 | 2 |
| 2025-09-09T18:34:00 | 57.700806 | 8.490069 | 2.0 | 16.544 | 2 | 42.434 | 16.776 | 33.038 | 2 |
| 2025-09-09T18:35:00 | 57.700283 | 8.490171 | 2.0 | 16.548 | 2 | 42.627 | 16.719 | 33.253 | 2 |
| 2025-09-09T18:36:00 | 57.699798 | 8.490388 | 2.0 | 16.546 | 2 | 42.760 | 16.720 | 33.368 | 2 |
| 2025-09-09T18:37:00 | 57.699323 | 8.490618 | 2.0 | 16.538 | 2 | 42.769 | 16.717 | 33.379 | 2 |
| 2025-09-09T18:38:00 | 57.698787 | 8.490728 | 2.0 | 16.529 | 2 | 42.771 | 16.708 | 33.388 | 2 |
| 2025-09-09T18:39:00 | 57.698217 | 8.490820 | 2.0 | 16.522 | 2 | 42.760 | 16.700 | 33.385 | 2 |
| 2025-09-09T18:40:00 | 57.697646 | 8.490944 | 2.0 | 16.511 | 2 | 42.759 | 16.693 | 33.390 | 2 |
| 2025-09-09T18:41:00 | 57.697054 | 8.491061 | 2.0 | 16.500 | 2 | 42.777 | 16.681 | 33.416 | 2 |
| 2025-09-09T18:42:00 | 57.696447 | 8.491189 | 2.0 | 16.494 | 2 | 42.766 | 16.672 | 33.414 | 2 |
| 2025-09-09T18:43:00 | 57.695815 | 8.491283 | 2.0 | 16.489 | 2 | 42.766 | 16.665 | 33.420 | 2 |
| 2025-09-09T18:44:00 | 57.695172 | 8.491383 | 2.0 | 16.483 | 2 | 42.781 | 16.660 | 33.437 | 2 |
| 2025-09-09T18:45:00 | 57.694534 | 8.491436 | 2.0 | 16.485 | 2 | 42.794 | 16.654 | 33.453 | 2 |
| 2025-09-09T18:46:00 | 57.693919 | 8.491508 | 2.0 | 16.546 | 2 | 42.845 | 16.661 | 33.492 | 2 |
| 2025-09-09T18:47:00 | 57.693318 | 8.491586 | 2.0 | 16.584 | 2 | 42.946 | 16.725 | 33.527 | 2 |
| 2025-09-09T18:48:00 | 57.692729 | 8.491696 | 2.0 | 16.566 | 2 | 43.012 | 16.749 | 33.564 | 2 |
| 2025-09-09T18:49:00 | 57.692130 | 8.491800 | 2.0 | 16.546 | 2 | 42.989 | 16.733 | 33.557 | 2 |
| 2025-09-09T18:50:00 | 57.691539 | 8.491929 | 2.0 | 16.530 | 2 | 42.972 | 16.713 | 33.559 | 2 |
| 2025-09-09T18:51:00 | 57.690938 | 8.492048 | 2.0 | 16.520 | 2 | 42.951 | 16.700 | 33.552 | 2 |
| 2025-09-09T18:52:00 | 57.690341 | 8.492171 | 2.0 | 16.504 | 2 | 42.957 | 16.687 | 33.568 | 2 |
| 2025-09-09T18:53:00 | 57.689746 | 8.492267 | 2.0 | 16.498 | 2 | 42.944 | 16.674 | 33.568 | 2 |
| 2025-09-09T18:54:00 | 57.689149 | 8.492377 | 2.0 | 16.492 | 2 | 42.944 | 16.668 | 33.573 | 2 |
| 2025-09-09T18:55:00 | 57.688536 | 8.492490 | 2.0 | 16.482 | 2 | 42.951 | 16.662 | 33.584 | 2 |
| 2025-09-09T18:56:00 | 57.687917 | 8.492615 | 2.0 | 16.474 | 2 | 42.947 | 16.652 | 33.589 | 2 |
| 2025-09-09T18:57:00 | 57.687297 | 8.492760 | 2.0 | 16.466 | 2 | 42.951 | 16.644 | 33.599 | 2 |
| 2025-09-09T18:58:00 | 57.686675 | 8.492844 | 2.0 | 16.454 | 2 | 42.944 | 16.636 | 33.599 | 2 |
| 2025-09-09T18:59:00 | 57.686047 | 8.492946 | 2.0 | 16.446 | 2 | 42.937 | 16.624 | 33.603 | 2 |
| 2025-09-09T19:00:00 | 57.685414 | 8.493063 | 2.0 | 16.439 | 2 | 42.929 | 16.616 | 33.603 | 2 |
| 2025-09-09T19:01:00 | 57.684771 | 8.493160 | 2.0 | 16.434 | 2 | 42.926 | 16.610 | 33.605 | 2 |
| 2025-09-09T19:02:00 | 57.684136 | 8.493251 | 2.0 | 16.438 | 2 | 42.924 | 16.606 | 33.607 | 2 |
| 2025-09-09T19:03:00 | 57.683509 | 8.493318 | 2.0 | 16.448 | 2 | 42.926 | 16.611 | 33.605 | 2 |
| 2025-09-09T19:04:00 | 57.682943 | 8.493363 | 2.0 | 16.441 | 2 | 42.928 | 16.618 | 33.601 | 2 |
| 2025-09-09T19:05:00 | 57.682437 | 8.493394 | 2.0 | 16.428 | 2 | 42.925 | 16.610 | 33.605 | 2 |
| 2025-09-09T19:06:00 | 57.681976 | 8.493384 | 2.0 | 16.426 | 2 | 42.916 | 16.599 | 33.606 | 2 |
| 2025-09-09T19:07:00 | 57.681546 | 8.493369 | 2.0 | 16.420 | 2 | 42.914 | 16.595 | 33.608 | 2 |
| 2025-09-09T19:08:00 | 57.681145 | 8.493323 | 2.0 | 16.414 | 2 | 42.911 | 16.589 | 33.610 | 2 |
| 2025-09-09T19:09:00 | 57.680785 | 8.493269 | 2.0 | 16.411 | 2 | 42.908 | 16.584 | 33.612 | 2 |
| 2025-09-09T19:10:00 | 57.680417 | 8.493194 | 2.0 | 16.412 | 2 | 42.907 | 16.581 | 33.613 | 2 |
| 2025-09-09T19:11:00 | 57.680146 | 8.492663 | 2.0 | 16.411 | 2 | 42.903 | 16.582 | 33.609 | 2 |
| 2025-09-09T19:12:00 | 57.680498 | 8.492019 | 2.0 | 16.407 | 2 | 42.899 | 16.579 | 33.608 | 2 |
| 2025-09-09T19:13:00 | 57.681592 | 8.491881 | 2.0 | 16.416 | 2 | 42.901 | 16.577 | 33.611 | 2 |
| 2025-09-09T19:14:00 | 57.683503 | 8.491875 | 2.0 | 16.436 | 2 | 42.908 | 16.587 | 33.609 | 2 |
| 2025-09-09T19:15:00 | 57.685937 | 8.491919 | 2.0 | 16.429 | 2 | 42.918 | 16.607 | 33.601 | 2 |
| 2025-09-09T19:16:00 | 57.688556 | 8.492001 | 2.0 | 16.452 | 2 | 42.919 | 16.604 | 33.604 | 2 |
| 2025-09-09T19:17:00 | 57.691221 | 8.492096 | 2.0 | 16.488 | 2 | 42.945 | 16.630 | 33.605 | 2 |
| 2025-09-09T19:18:00 | 57.693977 | 8.492191 | 2.0 | 16.534 | 2 | 42.979 | 16.662 | 33.608 | 2 |
| 2025-09-09T19:19:00 | 57.696823 | 8.492292 | 2.0 | 16.541 | 2 | 43.030 | 16.712 | 33.611 | 2 |
| 2025-09-09T19:20:00 | 57.699702 | 8.492386 | 2.0 | 16.500 | 2 | 42.980 | 16.693 | 33.583 | 2 |
| 2025-09-09T19:21:00 | 57.702573 | 8.492348 | 2.0 | 16.670 | 2 | 42.819 | 16.706 | 33.432 | 2 |
| 2025-09-09T19:22:00 | 57.705423 | 8.492158 | 2.0 | 16.734 | 2 | 42.278 | 16.854 | 32.839 | 2 |
| 2025-09-09T19:23:00 | 57.708321 | 8.491933 | 2.0 | 16.737 | 2 | 42.044 | 16.896 | 32.602 | 2 |
| 2025-09-09T19:24:00 | 57.711286 | 8.491597 | 2.0 | 16.755 | 2 | 41.967 | 16.905 | 32.528 | 2 |
| 2025-09-09T19:25:00 | 57.714251 | 8.491239 | 2.0 | 16.784 | 2 | 41.915 | 16.928 | 32.464 | 2 |
| 2025-09-09T19:26:00 | 57.717203 | 8.490942 | 2.0 | 16.804 | 2 | 41.902 | 16.956 | 32.430 | 2 |
| 2025-09-09T19:27:00 | 57.720143 | 8.490652 | 2.0 | 16.799 | 2 | 41.902 | 16.967 | 32.421 | 2 |
| 2025-09-09T19:28:00 | 57.723080 | 8.490406 | 2.0 | 16.815 | 2 | 41.892 | 16.970 | 32.410 | 2 |
| 2025-09-09T19:29:00 | 57.726019 | 8.490129 | 2.0 | 16.817 | 2 | 41.901 | 16.984 | 32.407 | 2 |
| 2025-09-09T19:30:00 | 57.728969 | 8.489983 | 2.0 | 16.848 | 2 | 41.916 | 16.992 | 32.413 | 2 |
| 2025-09-09T19:31:00 | 57.731729 | 8.491575 | 2.0 | 16.863 | 2 | 41.955 | 17.019 | 32.425 | 2 |
| 2025-09-09T19:32:00 | 57.734469 | 8.493411 | 2.0 | 16.849 | 2 | 41.985 | 17.028 | 32.444 | 2 |
| 2025-09-09T19:33:00 | 57.737210 | 8.495281 | 2.0 | 16.863 | 2 | 41.990 | 17.018 | 32.456 | 2 |
| 2025-09-09T19:34:00 | 57.739945 | 8.497161 | 2.0 | 16.878 | 2 | 42.003 | 17.035 | 32.454 | 2 |
| 2025-09-09T19:35:00 | 57.742649 | 8.499083 | 2.0 | 16.925 | 2 | 42.022 | 17.055 | 32.454 | 2 |
| 2025-09-09T19:36:00 | 57.745345 | 8.500998 | 2.0 | 16.973 | 2 | 42.051 | 17.097 | 32.445 | 2 |
| 2025-09-09T19:37:00 | 57.748027 | 8.502956 | 2.0 | 16.983 | 2 | 42.076 | 17.146 | 32.427 | 2 |
| 2025-09-09T19:38:00 | 57.750707 | 8.504935 | 2.0 | 16.899 | 2 | 42.080 | 17.143 | 32.433 | 2 |
| 2025-09-09T19:39:00 | 57.753380 | 8.506919 | 2.0 | 16.752 | 2 | 42.077 | 17.048 | 32.507 | 2 |
| 2025-09-09T19:40:00 | 57.756099 | 8.508548 | 2.0 | 16.708 | 2 | 42.172 | 16.930 | 32.685 | 2 |
| 2025-09-09T19:41:00 | 57.758839 | 8.510024 | 2.0 | 16.697 | 2 | 42.256 | 16.876 | 32.802 | 2 |
| 2025-09-09T19:42:00 | 57.761586 | 8.511423 | 2.0 | 16.753 | 2 | 42.434 | 16.890 | 32.944 | 2 |
| 2025-09-09T19:43:00 | 57.764372 | 8.512809 | 2.0 | 16.732 | 2 | 42.565 | 16.919 | 33.034 | 2 |
| 2025-09-09T19:44:00 | 57.767151 | 8.514153 | 2.0 | 16.640 | 2 | 42.485 | 16.877 | 32.999 | 2 |
| 2025-09-09T19:45:00 | 57.769923 | 8.515446 | 2.0 | 16.702 | 2 | 42.374 | 16.829 | 32.942 | 2 |
| 2025-09-09T19:46:00 | 57.772678 | 8.516729 | 2.0 | 16.662 | 2 | 42.411 | 16.864 | 32.946 | 2 |
| 2025-09-09T19:47:00 | 57.775445 | 8.518017 | 2.0 | 16.658 | 2 | 42.306 | 16.835 | 32.878 | 2 |
| 2025-09-09T19:48:00 | 57.778230 | 8.519258 | 2.0 | 16.677 | 2 | 42.280 | 16.836 | 32.855 | 2 |
| 2025-09-09T19:49:00 | 57.781034 | 8.520506 | 2.0 | 16.690 | 2 | 42.261 | 16.851 | 32.826 | 2 |
| 2025-09-09T19:50:00 | 57.783842 | 8.521728 | 2.0 | 16.716 | 2 | 42.198 | 16.867 | 32.759 | 2 |
| 2025-09-09T19:51:00 | 57.786669 | 8.522937 | 2.0 | 16.747 | 2 | 42.142 | 16.891 | 32.691 | 2 |
| 2025-09-09T19:52:00 | 57.789494 | 8.524168 | 2.0 | 16.788 | 2 | 42.088 | 16.921 | 32.619 | 2 |
| 2025-09-09T19:53:00 | 57.792315 | 8.525385 | 2.0 | 16.808 | 2 | 42.042 | 16.962 | 32.546 | 2 |
| 2025-09-09T19:54:00 | 57.795141 | 8.526635 | 2.0 | 16.858 | 2 | 42.012 | 16.979 | 32.507 | 2 |
| 2025-09-09T19:55:00 | 57.797972 | 8.527886 | 2.0 | 16.942 | 2 | 42.019 | 17.042 | 32.462 | 2 |
| 2025-09-09T19:56:00 | 57.800809 | 8.529147 | 2.0 | 17.032 | 2 | 42.062 | 17.124 | 32.433 | 2 |
| 2025-09-09T19:57:00 | 57.803644 | 8.530426 | 2.0 | 17.095 | 2 | 42.090 | 17.200 | 32.396 | 2 |
| 2025-09-09T19:58:00 | 57.806490 | 8.531671 | 2.0 | 17.129 | 2 | 42.101 | 17.260 | 32.358 | 2 |
| 2025-09-09T19:59:00 | 57.809344 | 8.532930 | 2.0 | 17.180 | 2 | 42.090 | 17.304 | 32.313 | 2 |
| 2025-09-09T20:00:00 | 57.812218 | 8.534192 | 2.0 | 17.194 | 2 | 42.112 | 17.346 | 32.298 | 2 |
| 2025-09-09T20:01:00 | 57.815089 | 8.535485 | 2.0 | 17.200 | 2 | 42.092 | 17.360 | 32.270 | 2 |
| 2025-09-09T20:02:00 | 57.817974 | 8.536727 | 2.0 | 17.190 | 2 | 42.079 | 17.362 | 32.257 | 2 |
| 2025-09-09T20:03:00 | 57.820865 | 8.537995 | 2.0 | 17.200 | 2 | 42.089 | 17.359 | 32.268 | 2 |
| 2025-09-09T20:04:00 | 57.823766 | 8.539225 | 2.0 | 17.221 | 2 | 42.080 | 17.370 | 32.252 | 2 |
| 2025-09-09T20:05:00 | 57.826667 | 8.540464 | 2.0 | 17.231 | 2 | 42.080 | 17.389 | 32.237 | 2 |
| 2025-09-09T20:06:00 | 57.829580 | 8.541692 | 2.0 | 17.236 | 2 | 42.084 | 17.399 | 32.232 | 2 |
| 2025-09-09T20:07:00 | 57.832499 | 8.542915 | 2.0 | 17.238 | 2 | 42.086 | 17.399 | 32.234 | 2 |
| 2025-09-09T20:08:00 | 57.835382 | 8.544120 | 2.0 | 17.272 | 2 | 42.105 | 17.410 | 32.241 | 2 |
| 2025-09-09T20:09:00 | 57.837780 | 8.545075 | 2.0 | 17.289 | 2 | 42.109 | 17.443 | 32.218 | 2 |
| 2025-09-09T20:10:00 | 57.839596 | 8.545715 | 2.0 | 17.297 | 2 | 42.046 | 17.452 | 32.157 | 2 |
| 2025-09-09T20:11:00 | 57.841071 | 8.546155 | 2.0 | 17.316 | 2 | 42.013 | 17.461 | 32.122 | 2 |
| 2025-09-09T20:12:00 | 57.841735 | 8.546836 | 2.0 | 17.322 | 2 | 42.007 | 17.480 | 32.102 | 2 |
| 2025-09-09T20:13:00 | 57.841725 | 8.546958 | 2.0 | 17.321 | 2 | 42.009 | 17.483 | 32.101 | 2 |
| 2025-09-09T20:14:00 | 57.841624 | 8.546558 | 2.0 | 17.316 | 2 | 42.011 | 17.483 | 32.103 | 2 |
| 2025-09-09T20:15:00 | 57.841519 | 8.546065 | 2.0 | 17.313 | 2 | 42.008 | 17.478 | 32.104 | 2 |
| 2025-09-09T20:16:00 | 57.841445 | 8.545564 | 2.0 | 17.314 | 2 | 42.007 | 17.476 | 32.105 | 2 |
| 2025-09-09T20:17:00 | 57.841406 | 8.545022 | 2.0 | 17.308 | 2 | 42.008 | 17.476 | 32.106 | 2 |
| 2025-09-09T20:18:00 | 57.841400 | 8.544460 | 2.0 | 17.311 | 2 | 42.008 | 17.472 | 32.109 | 2 |
| 2025-09-09T20:19:00 | 57.841416 | 8.543867 | 2.0 | 17.314 | 2 | 42.008 | 17.474 | 32.108 | 2 |
| 2025-09-09T20:20:00 | 57.841440 | 8.543271 | 2.0 | 17.315 | 2 | 42.006 | 17.476 | 32.104 | 2 |
| 2025-09-09T20:21:00 | 57.841474 | 8.542671 | 2.0 | 17.316 | 2 | 42.007 | 17.477 | 32.104 | 2 |
| 2025-09-09T20:22:00 | 57.841524 | 8.542067 | 2.0 | 17.315 | 2 | 42.007 | 17.478 | 32.104 | 2 |
| 2025-09-09T20:23:00 | 57.841584 | 8.541440 | 2.0 | 17.317 | 2 | 42.004 | 17.478 | 32.101 | 2 |
| 2025-09-09T20:24:00 | 57.841657 | 8.540814 | 2.0 | 17.320 | 2 | 42.004 | 17.480 | 32.099 | 2 |
| 2025-09-09T20:25:00 | 57.841738 | 8.540190 | 2.0 | 17.327 | 2 | 42.008 | 17.485 | 32.099 | 2 |
| 2025-09-09T20:26:00 | 57.841822 | 8.539586 | 2.0 | 17.329 | 2 | 42.014 | 17.490 | 32.100 | 2 |
| 2025-09-09T20:27:00 | 57.841907 | 8.538988 | 2.0 | 17.333 | 2 | 42.015 | 17.493 | 32.099 | 2 |
| 2025-09-09T20:28:00 | 57.841845 | 8.538390 | 2.0 | 17.329 | 2 | 42.015 | 17.493 | 32.099 | 2 |
| 2025-09-09T20:29:00 | 57.841201 | 8.538063 | 2.0 | 17.321 | 2 | 42.015 | 17.491 | 32.100 | 2 |
| 2025-09-09T20:30:00 | 57.839990 | 8.537901 | 2.0 | 17.297 | 2 | 42.013 | 17.480 | 32.107 | 2 |
| 2025-09-09T20:31:00 | 57.838415 | 8.537799 | 2.0 | 17.291 | 2 | 42.025 | 17.460 | 32.133 | 2 |
| 2025-09-09T20:32:00 | 57.836613 | 8.538009 | 2.0 | 17.259 | 2 | 42.088 | 17.452 | 32.193 | 2 |
| 2025-09-09T20:33:00 | 57.834818 | 8.539022 | 2.0 | 17.231 | 2 | 42.127 | 17.417 | 32.254 | 2 |
| 2025-09-09T20:34:00 | 57.833194 | 8.540756 | 2.0 | 17.214 | 2 | 42.115 | 17.392 | 32.264 | 2 |
| 2025-09-09T20:35:00 | 57.831780 | 8.543101 | 2.0 | 17.193 | 2 | 42.108 | 17.377 | 32.270 | 2 |
| 2025-09-09T20:36:00 | 57.830182 | 8.545872 | 2.0 | 17.165 | 2 | 42.098 | 17.354 | 32.280 | 2 |
| 2025-09-09T20:37:00 | 57.828411 | 8.548968 | 2.0 | 17.154 | 2 | 42.094 | 17.332 | 32.294 | 2 |
| 2025-09-09T20:38:00 | 57.826577 | 8.552186 | 2.0 | 17.134 | 2 | 42.107 | 17.319 | 32.315 | 2 |
| 2025-09-09T20:39:00 | 57.824718 | 8.555451 | 2.0 | 17.098 | 2 | 42.117 | 17.295 | 32.343 | 2 |
| 2025-09-09T20:40:00 | 57.822839 | 8.558716 | 2.0 | 16.980 | 2 | 42.120 | 17.248 | 32.383 | 2 |
| 2025-09-09T20:41:00 | 57.820952 | 8.561997 | 2.0 | 16.876 | 2 | 42.106 | 17.130 | 32.466 | 2 |
| 2025-09-09T20:42:00 | 57.819063 | 8.565331 | 2.0 | 16.735 | 2 | 42.070 | 17.020 | 32.524 | 2 |
| 2025-09-09T20:43:00 | 57.817167 | 8.568674 | 2.0 | 16.697 | 2 | 42.090 | 16.910 | 32.630 | 2 |
| 2025-09-09T20:44:00 | 57.815270 | 8.572020 | 2.0 | 16.725 | 2 | 42.264 | 16.871 | 32.813 | 2 |
| 2025-09-09T20:45:00 | 57.813386 | 8.575377 | 2.0 | 16.757 | 2 | 42.463 | 16.901 | 32.961 | 2 |
| 2025-09-09T20:46:00 | 57.811529 | 8.578746 | 2.0 | 16.740 | 2 | 42.563 | 16.925 | 33.028 | 2 |
| 2025-09-09T20:47:00 | 57.809683 | 8.582096 | 2.0 | 16.703 | 2 | 42.554 | 16.902 | 33.039 | 2 |
| 2025-09-09T20:48:00 | 57.807834 | 8.585443 | 2.0 | 16.651 | 2 | 42.516 | 16.866 | 33.035 | 2 |
| 2025-09-09T20:49:00 | 57.805978 | 8.588803 | 2.0 | 16.610 | 2 | 42.498 | 16.816 | 33.061 | 2 |
| 2025-09-09T20:50:00 | 57.804126 | 8.592178 | 2.0 | 16.590 | 2 | 42.505 | 16.777 | 33.099 | 2 |
| 2025-09-09T20:51:00 | 57.802282 | 8.595583 | 2.0 | 16.628 | 2 | 42.528 | 16.768 | 33.127 | 2 |
| 2025-09-09T20:52:00 | 57.800459 | 8.598959 | 2.0 | 16.632 | 2 | 42.533 | 16.798 | 33.106 | 2 |
| 2025-09-09T20:53:00 | 57.798656 | 8.602300 | 2.0 | 16.650 | 2 | 42.535 | 16.799 | 33.107 | 2 |
| 2025-09-09T20:54:00 | 57.796865 | 8.605647 | 2.0 | 16.689 | 2 | 42.536 | 16.830 | 33.082 | 2 |
| 2025-09-09T20:55:00 | 57.795075 | 8.608991 | 2.0 | 16.705 | 2 | 42.515 | 16.856 | 33.043 | 2 |
| 2025-09-09T20:56:00 | 57.793288 | 8.612330 | 2.0 | 16.696 | 2 | 42.495 | 16.873 | 33.011 | 2 |
| 2025-09-09T20:57:00 | 57.791519 | 8.615717 | 2.0 | 16.663 | 2 | 42.507 | 16.860 | 33.032 | 2 |
| 2025-09-09T20:58:00 | 57.789759 | 8.619121 | 2.0 | 16.605 | 2 | 42.543 | 16.820 | 33.097 | 2 |
| 2025-09-09T20:59:00 | 57.788023 | 8.622547 | 2.0 | 16.580 | 2 | 42.620 | 16.766 | 33.208 | 2 |
| 2025-09-09T21:00:00 | 57.786307 | 8.625992 | 2.0 | 16.668 | 2 | 42.748 | 16.771 | 33.316 | 2 |
| 2025-09-09T21:01:00 | 57.784592 | 8.629449 | 2.0 | 16.690 | 2 | 42.849 | 16.835 | 33.350 | 2 |
| 2025-09-09T21:02:00 | 57.782897 | 8.632944 | 2.0 | 16.714 | 2 | 42.869 | 16.857 | 33.349 | 2 |
| 2025-09-09T21:03:00 | 57.781230 | 8.636484 | 2.0 | 16.711 | 2 | 42.803 | 16.878 | 33.275 | 2 |
| 2025-09-09T21:04:00 | 57.779557 | 8.640002 | 2.0 | 16.733 | 2 | 42.632 | 16.885 | 33.120 | 2 |
| 2025-09-09T21:05:00 | 57.777886 | 8.643505 | 2.0 | 16.762 | 2 | 42.571 | 16.904 | 33.052 | 2 |
| 2025-09-09T21:06:00 | 57.776211 | 8.647028 | 2.0 | 16.762 | 2 | 42.554 | 16.927 | 33.018 | 2 |
| 2025-09-09T21:07:00 | 57.774509 | 8.650556 | 2.0 | 16.752 | 2 | 42.553 | 16.926 | 33.018 | 2 |
| 2025-09-09T21:08:00 | 57.772791 | 8.654089 | 2.0 | 16.725 | 2 | 42.574 | 16.915 | 33.045 | 2 |
| 2025-09-09T21:09:00 | 57.771062 | 8.657625 | 2.0 | 16.697 | 2 | 42.593 | 16.889 | 33.083 | 2 |
| 2025-09-09T21:10:00 | 57.769327 | 8.661189 | 2.0 | 16.659 | 2 | 42.613 | 16.861 | 33.124 | 2 |
| 2025-09-09T21:11:00 | 57.767603 | 8.664746 | 2.0 | 16.627 | 2 | 42.629 | 16.823 | 33.169 | 2 |
| 2025-09-09T21:12:00 | 57.765891 | 8.668308 | 2.0 | 16.522 | 2 | 42.636 | 16.783 | 33.208 | 2 |
| 2025-09-09T21:13:00 | 57.764188 | 8.671877 | 2.0 | 16.471 | 2 | 42.563 | 16.680 | 33.230 | 2 |
| 2025-09-09T21:14:00 | 57.762487 | 8.675447 | 2.0 | 16.425 | 2 | 42.541 | 16.635 | 33.248 | 2 |
| 2025-09-09T21:15:00 | 57.760781 | 8.679026 | 2.0 | 16.397 | 2 | 42.537 | 16.597 | 33.276 | 2 |
| 2025-09-09T21:16:00 | 57.759076 | 8.682621 | 2.0 | 16.368 | 2 | 42.560 | 16.560 | 33.327 | 2 |
| 2025-09-09T21:17:00 | 57.757368 | 8.686225 | 2.0 | 16.376 | 2 | 42.596 | 16.540 | 33.375 | 2 |
| 2025-09-09T21:18:00 | 57.755646 | 8.689821 | 2.0 | 16.395 | 2 | 42.648 | 16.551 | 33.412 | 2 |
| 2025-09-09T21:19:00 | 57.753922 | 8.693427 | 2.0 | 16.382 | 2 | 42.701 | 16.559 | 33.451 | 2 |
| 2025-09-09T21:20:00 | 57.752193 | 8.697032 | 2.0 | 16.431 | 2 | 42.773 | 16.576 | 33.500 | 2 |
| 2025-09-09T21:21:00 | 57.750470 | 8.700619 | 2.0 | 16.410 | 2 | 42.868 | 16.596 | 33.566 | 2 |
| 2025-09-09T21:22:00 | 57.748772 | 8.704189 | 2.0 | 16.395 | 2 | 42.881 | 16.576 | 33.595 | 2 |
| 2025-09-09T21:23:00 | 57.747091 | 8.707735 | 2.0 | 16.427 | 2 | 42.890 | 16.569 | 33.608 | 2 |
| 2025-09-09T21:24:00 | 57.745429 | 8.711283 | 2.0 | 16.477 | 2 | 42.991 | 16.609 | 33.663 | 2 |
| 2025-09-09T21:25:00 | 57.743809 | 8.714864 | 2.0 | 16.453 | 2 | 43.091 | 16.635 | 33.729 | 2 |
| 2025-09-09T21:26:00 | 57.742197 | 8.718411 | 2.0 | 16.440 | 2 | 43.039 | 16.620 | 33.696 | 2 |
| 2025-09-09T21:27:00 | 57.740614 | 8.721869 | 2.0 | 16.417 | 2 | 42.993 | 16.608 | 33.666 | 2 |
| 2025-09-09T21:28:00 | 57.739379 | 8.724702 | 2.0 | 16.367 | 2 | 42.936 | 16.578 | 33.641 | 2 |
| 2025-09-09T21:29:00 | 57.738499 | 8.726749 | 2.0 | 16.333 | 2 | 42.848 | 16.528 | 33.606 | 2 |
| 2025-09-09T21:30:00 | 57.737842 | 8.728324 | 2.0 | 16.343 | 2 | 42.783 | 16.504 | 33.569 | 2 |
| 2025-09-09T21:31:00 | 57.737385 | 8.729678 | 2.0 | 16.368 | 2 | 42.763 | 16.515 | 33.542 | 2 |
| 2025-09-09T21:32:00 | 57.737390 | 8.731036 | 2.0 | 16.379 | 2 | 42.757 | 16.536 | 33.520 | 2 |
| 2025-09-09T21:33:00 | 57.737982 | 8.732035 | 2.0 | 16.383 | 2 | 42.754 | 16.546 | 33.509 | 2 |
| 2025-09-09T21:34:00 | 57.738962 | 8.732480 | 2.0 | 16.383 | 2 | 42.755 | 16.548 | 33.508 | 2 |
| 2025-09-09T21:35:00 | 57.740149 | 8.732627 | 2.0 | 16.383 | 2 | 42.755 | 16.550 | 33.506 | 2 |
| 2025-09-09T21:36:00 | 57.741511 | 8.732665 | 2.0 | 16.382 | 2 | 42.759 | 16.547 | 33.512 | 2 |
| 2025-09-09T21:37:00 | 57.743010 | 8.732691 | 2.0 | 16.384 | 2 | 42.758 | 16.550 | 33.509 | 2 |
| 2025-09-09T21:38:00 | 57.744593 | 8.732738 | 2.0 | 16.379 | 2 | 42.759 | 16.551 | 33.509 | 2 |
| 2025-09-09T21:39:00 | 57.746278 | 8.732795 | 2.0 | 16.369 | 2 | 42.760 | 16.545 | 33.515 | 2 |
| 2025-09-09T21:40:00 | 57.748133 | 8.732930 | 2.0 | 16.362 | 2 | 42.764 | 16.535 | 33.527 | 2 |
| 2025-09-09T21:41:00 | 57.750082 | 8.732962 | 2.0 | 16.376 | 2 | 42.767 | 16.530 | 33.533 | 2 |
| 2025-09-09T21:42:00 | 57.752080 | 8.732966 | 2.0 | 16.412 | 2 | 42.846 | 16.550 | 33.586 | 2 |
| 2025-09-09T21:43:00 | 57.754102 | 8.732918 | 2.0 | 16.427 | 2 | 42.915 | 16.580 | 33.621 | 2 |
| 2025-09-09T21:44:00 | 57.756142 | 8.732915 | 2.0 | 16.440 | 2 | 42.936 | 16.596 | 33.626 | 2 |
| 2025-09-09T21:45:00 | 57.758190 | 8.732945 | 2.0 | 16.452 | 2 | 42.946 | 16.609 | 33.624 | 2 |
| 2025-09-09T21:46:00 | 57.760242 | 8.732939 | 2.0 | 16.465 | 2 | 42.965 | 16.620 | 33.631 | 2 |
| 2025-09-09T21:47:00 | 57.762317 | 8.732924 | 2.0 | 16.472 | 2 | 42.985 | 16.632 | 33.639 | 2 |
| 2025-09-09T21:48:00 | 57.764445 | 8.732900 | 2.0 | 16.482 | 2 | 43.004 | 16.640 | 33.649 | 2 |
| 2025-09-09T21:49:00 | 57.766598 | 8.732838 | 2.0 | 16.491 | 2 | 43.030 | 16.650 | 33.663 | 2 |
| 2025-09-09T21:50:00 | 57.768758 | 8.732768 | 2.0 | 16.490 | 2 | 43.047 | 16.657 | 33.672 | 2 |
| 2025-09-09T21:51:00 | 57.770929 | 8.732756 | 2.0 | 16.493 | 2 | 43.033 | 16.658 | 33.659 | 2 |
| 2025-09-09T21:52:00 | 57.773111 | 8.732847 | 2.0 | 16.495 | 2 | 43.033 | 16.660 | 33.657 | 2 |
| 2025-09-09T21:53:00 | 57.775295 | 8.732806 | 2.0 | 16.494 | 2 | 43.031 | 16.662 | 33.654 | 2 |
| 2025-09-09T21:54:00 | 57.777489 | 8.732792 | 2.0 | 16.496 | 2 | 43.027 | 16.661 | 33.651 | 2 |
| 2025-09-09T21:55:00 | 57.779678 | 8.732839 | 2.0 | 16.498 | 2 | 43.039 | 16.663 | 33.660 | 2 |
| 2025-09-09T21:56:00 | 57.781830 | 8.732520 | 2.0 | 16.501 | 2 | 43.041 | 16.665 | 33.660 | 2 |
| 2025-09-09T21:57:00 | 57.783740 | 8.730943 | 2.0 | 16.511 | 2 | 43.050 | 16.669 | 33.664 | 2 |
| 2025-09-09T21:58:00 | 57.785196 | 8.728227 | 2.0 | 16.519 | 2 | 43.091 | 16.676 | 33.694 | 2 |
| 2025-09-09T21:59:00 | 57.786775 | 8.724726 | 2.0 | 16.546 | 2 | 43.150 | 16.686 | 33.737 | 2 |
| 2025-09-09T22:00:00 | 57.788749 | 8.721278 | 2.0 | 16.603 | 2 | 43.254 | 16.720 | 33.800 | 2 |
| 2025-09-09T22:01:00 | 57.790694 | 8.717641 | 2.0 | 16.612 | 2 | 43.366 | 16.777 | 33.849 | 2 |
| 2025-09-09T22:02:00 | 57.792589 | 8.713873 | 2.0 | 16.498 | 2 | 43.369 | 16.755 | 33.871 | 2 |
| 2025-09-09T22:03:00 | 57.794524 | 8.710181 | 2.0 | 16.365 | 2 | 43.129 | 16.649 | 33.750 | 2 |
| 2025-09-09T22:04:00 | 57.796477 | 8.706526 | 2.0 | 16.390 | 2 | 42.743 | 16.535 | 33.508 | 2 |
| 2025-09-09T22:05:00 | 57.798413 | 8.702864 | 2.0 | 16.440 | 2 | 42.647 | 16.569 | 33.396 | 2 |
| 2025-09-09T22:06:00 | 57.800344 | 8.699185 | 2.0 | 16.516 | 2 | 42.646 | 16.620 | 33.352 | 2 |
| 2025-09-09T22:07:00 | 57.802322 | 8.695573 | 2.0 | 16.519 | 2 | 42.691 | 16.681 | 33.341 | 2 |
| 2025-09-09T22:08:00 | 57.804262 | 8.691887 | 2.0 | 16.510 | 2 | 42.697 | 16.685 | 33.343 | 2 |
| 2025-09-09T22:09:00 | 57.806239 | 8.688262 | 2.0 | 16.499 | 2 | 42.685 | 16.675 | 33.340 | 2 |
| 2025-09-09T22:10:00 | 57.808186 | 8.684584 | 2.0 | 16.496 | 2 | 42.679 | 16.666 | 33.343 | 2 |
| 2025-09-09T22:11:00 | 57.810124 | 8.680890 | 2.0 | 16.499 | 2 | 42.680 | 16.664 | 33.345 | 2 |
| 2025-09-09T22:12:00 | 57.812448 | 8.678157 | 2.0 | 16.505 | 2 | 42.678 | 16.666 | 33.342 | 2 |
| 2025-09-09T22:13:00 | 57.815169 | 8.677699 | 2.0 | 16.506 | 2 | 42.684 | 16.672 | 33.342 | 2 |
| 2025-09-09T22:14:00 | 57.817831 | 8.678815 | 2.0 | 16.521 | 2 | 42.686 | 16.673 | 33.343 | 2 |
| 2025-09-09T22:15:00 | 57.820476 | 8.680055 | 2.0 | 16.528 | 2 | 42.695 | 16.688 | 33.338 | 2 |
| 2025-09-09T22:16:00 | 57.823107 | 8.681348 | 2.0 | 16.519 | 2 | 42.703 | 16.691 | 33.343 | 2 |
| 2025-09-09T22:17:00 | 57.825797 | 8.682078 | 2.0 | 16.539 | 2 | 42.706 | 16.691 | 33.345 | 2 |
| 2025-09-09T22:18:00 | 57.828520 | 8.681851 | 2.0 | 16.553 | 2 | 42.720 | 16.707 | 33.344 | 2 |
| 2025-09-09T22:19:00 | 57.830938 | 8.679785 | 2.0 | 16.554 | 2 | 42.730 | 16.718 | 33.344 | 2 |
| 2025-09-09T22:20:00 | 57.832623 | 8.676040 | 2.0 | 16.565 | 2 | 42.734 | 16.724 | 33.342 | 2 |
| 2025-09-09T22:21:00 | 57.833442 | 8.671392 | 2.0 | 16.570 | 2 | 42.739 | 16.731 | 33.341 | 2 |
| 2025-09-09T22:22:00 | 57.833216 | 8.666424 | 2.0 | 16.557 | 2 | 42.739 | 16.734 | 33.338 | 2 |
| 2025-09-09T22:23:00 | 57.831892 | 8.662128 | 2.0 | 16.525 | 2 | 42.722 | 16.718 | 33.337 | 2 |
| 2025-09-09T22:24:00 | 57.829780 | 8.659290 | 2.0 | 16.497 | 2 | 42.695 | 16.688 | 33.338 | 2 |
| 2025-09-09T22:25:00 | 57.827178 | 8.658259 | 2.0 | 16.458 | 2 | 42.672 | 16.658 | 33.343 | 2 |
| 2025-09-09T22:26:00 | 57.824684 | 8.659123 | 2.0 | 16.450 | 2 | 42.652 | 16.626 | 33.352 | 2 |
| 2025-09-09T22:27:00 | 57.822281 | 8.660655 | 2.0 | 16.449 | 2 | 42.648 | 16.619 | 33.355 | 2 |
| 2025-09-09T22:28:00 | 57.819798 | 8.661689 | 2.0 | 16.452 | 2 | 42.649 | 16.616 | 33.358 | 2 |
| 2025-09-09T22:29:00 | 57.817312 | 8.662621 | 2.0 | 16.473 | 2 | 42.655 | 16.623 | 33.358 | 2 |
| 2025-09-09T22:30:00 | 57.814810 | 8.663493 | 2.0 | 16.473 | 2 | 42.669 | 16.639 | 33.356 | 2 |
| 2025-09-09T22:31:00 | 57.812314 | 8.664367 | 2.0 | 16.455 | 2 | 42.671 | 16.638 | 33.359 | 2 |
| 2025-09-09T22:32:00 | 57.809950 | 8.665295 | 2.0 | 16.397 | 2 | 42.660 | 16.616 | 33.368 | 2 |
| 2025-09-09T22:33:00 | 57.807460 | 8.666240 | 2.0 | 16.372 | 2 | 42.638 | 16.565 | 33.391 | 2 |
| 2025-09-09T22:34:00 | 57.804954 | 8.667139 | 2.0 | 16.366 | 2 | 42.633 | 16.542 | 33.406 | 2 |
| 2025-09-09T22:35:00 | 57.802435 | 8.668040 | 2.0 | 16.351 | 2 | 42.454 | 16.531 | 33.258 | 2 |
| 2025-09-09T22:36:00 | 57.799916 | 8.668973 | 2.0 | 16.355 | 2 | 42.485 | 16.519 | 33.296 | 2 |
| 2025-09-09T22:37:00 | 57.797387 | 8.669931 | 2.0 | 16.370 | 2 | 42.510 | 16.524 | 33.313 | 2 |
| 2025-09-09T22:38:00 | 57.794930 | 8.671389 | 2.0 | 16.457 | 2 | 42.759 | 16.552 | 33.508 | 2 |
| 2025-09-09T22:39:00 | 57.792543 | 8.673213 | 2.0 | 16.564 | 2 | 42.800 | 16.631 | 33.478 | 2 |
| 2025-09-09T22:40:00 | 57.790166 | 8.675155 | 2.0 | 16.678 | 2 | 42.673 | 16.753 | 33.265 | 2 |
| 2025-09-09T22:41:00 | 57.787920 | 8.677634 | 2.0 | 16.653 | 2 | 42.565 | 16.828 | 33.109 | 2 |
| 2025-09-09T22:42:00 | 57.785892 | 8.680752 | 2.0 | 16.635 | 2 | 42.546 | 16.814 | 33.104 | 2 |
| 2025-09-09T22:43:00 | 57.784097 | 8.684391 | 2.0 | 16.601 | 2 | 42.579 | 16.796 | 33.148 | 2 |
| 2025-09-09T22:44:00 | 57.782583 | 8.688519 | 2.0 | 16.581 | 2 | 42.500 | 16.764 | 33.105 | 2 |
| 2025-09-09T22:45:00 | 57.781379 | 8.693040 | 2.0 | 16.520 | 2 | 42.621 | 16.737 | 33.233 | 2 |
| 2025-09-09T22:46:00 | 57.780541 | 8.697897 | 2.0 | 16.446 | 2 | 42.583 | 16.679 | 33.248 | 2 |
| 2025-09-09T22:47:00 | 57.780102 | 8.703003 | 2.0 | 16.393 | 2 | 42.401 | 16.609 | 33.147 | 2 |
| 2025-09-09T22:48:00 | 57.780070 | 8.708262 | 2.0 | 16.429 | 2 | 42.578 | 16.570 | 33.334 | 2 |
| 2025-09-09T22:49:00 | 57.780461 | 8.713541 | 2.0 | 16.443 | 2 | 42.762 | 16.600 | 33.470 | 2 |
| 2025-09-09T22:50:00 | 57.781323 | 8.718680 | 2.0 | 16.419 | 2 | 42.755 | 16.605 | 33.460 | 2 |
| 2025-09-09T22:51:00 | 57.782612 | 8.723587 | 2.0 | 16.515 | 2 | 42.766 | 16.588 | 33.484 | 2 |
| 2025-09-09T22:52:00 | 57.784313 | 8.728095 | 2.0 | 16.611 | 2 | 43.089 | 16.706 | 33.667 | 2 |
| 2025-09-09T22:53:00 | 57.786456 | 8.731941 | 2.0 | 16.606 | 2 | 43.252 | 16.773 | 33.753 | 2 |
| 2025-09-09T22:54:00 | 57.788882 | 8.735261 | 2.0 | 16.574 | 2 | 43.448 | 16.767 | 33.929 | 2 |
| 2025-09-09T22:55:00 | 57.791571 | 8.737868 | 2.0 | 16.513 | 2 | 43.322 | 16.725 | 33.855 | 2 |
| 2025-09-09T22:56:00 | 57.794466 | 8.739669 | 2.0 | 16.514 | 2 | 42.947 | 16.683 | 33.563 | 2 |
| 2025-09-09T22:57:00 | 57.797514 | 8.740348 | 2.0 | 16.520 | 2 | 43.067 | 16.682 | 33.668 | 2 |
| 2025-09-09T22:58:00 | 57.800590 | 8.740031 | 2.0 | 16.528 | 2 | 42.882 | 16.688 | 33.502 | 2 |
| 2025-09-09T22:59:00 | 57.803596 | 8.738834 | 2.0 | 16.550 | 2 | 42.930 | 16.695 | 33.538 | 2 |
| 2025-09-09T23:00:00 | 57.806398 | 8.736609 | 2.0 | 16.590 | 2 | 43.102 | 16.724 | 33.664 | 2 |
| 2025-09-09T23:01:00 | 57.808863 | 8.733461 | 2.0 | 16.444 | 2 | 43.182 | 16.734 | 33.725 | 2 |
| 2025-09-09T23:02:00 | 57.811103 | 8.729865 | 2.0 | 16.352 | 2 | 42.737 | 16.575 | 33.469 | 2 |
| 2025-09-09T23:03:00 | 57.813073 | 8.725774 | 2.0 | 16.464 | 2 | 42.366 | 16.538 | 33.176 | 2 |
| 2025-09-09T23:04:00 | 57.814490 | 8.721019 | 2.0 | 16.490 | 2 | 42.463 | 16.634 | 33.181 | 2 |
| 2025-09-09T23:05:00 | 57.815379 | 8.715916 | 2.0 | 16.461 | 2 | 42.484 | 16.648 | 33.187 | 2 |
| 2025-09-09T23:06:00 | 57.816035 | 8.710694 | 2.0 | 16.462 | 2 | 42.458 | 16.625 | 33.184 | 2 |
| 2025-09-09T23:07:00 | 57.816192 | 8.705415 | 2.0 | 16.468 | 2 | 42.434 | 16.629 | 33.160 | 2 |
| 2025-09-09T23:08:00 | 57.815257 | 8.700607 | 2.0 | 16.472 | 2 | 42.463 | 16.635 | 33.180 | 2 |
| 2025-09-09T23:09:00 | 57.813492 | 8.696790 | 2.0 | 16.498 | 2 | 42.492 | 16.641 | 33.200 | 2 |
| 2025-09-09T23:10:00 | 57.811265 | 8.694108 | 2.0 | 16.472 | 2 | 42.516 | 16.663 | 33.203 | 2 |
| 2025-09-09T23:11:00 | 57.808737 | 8.692882 | 2.0 | 16.392 | 2 | 42.469 | 16.629 | 33.190 | 2 |
| 2025-09-09T23:12:00 | 57.806172 | 8.693294 | 2.0 | 16.353 | 2 | 42.493 | 16.556 | 33.272 | 2 |
| 2025-09-09T23:13:00 | 57.803798 | 8.695110 | 2.0 | 16.363 | 2 | 42.529 | 16.524 | 33.330 | 2 |
| 2025-09-09T23:14:00 | 57.801921 | 8.698312 | 2.0 | 16.414 | 2 | 42.659 | 16.544 | 33.427 | 2 |
| 2025-09-09T23:15:00 | 57.800810 | 8.702696 | 2.0 | 16.456 | 2 | 42.741 | 16.585 | 33.465 | 2 |
| 2025-09-09T23:16:00 | 57.800213 | 8.707568 | 2.0 | 16.473 | 2 | 42.776 | 16.626 | 33.461 | 2 |
| 2025-09-09T23:17:00 | 57.799509 | 8.712438 | 2.0 | 16.468 | 2 | 42.801 | 16.640 | 33.471 | 2 |
| 2025-09-09T23:18:00 | 57.798787 | 8.717353 | 2.0 | 16.412 | 2 | 42.802 | 16.622 | 33.487 | 2 |
| 2025-09-09T23:19:00 | 57.798122 | 8.722344 | 2.0 | 16.551 | 2 | 42.819 | 16.594 | 33.525 | 2 |
| 2025-09-09T23:20:00 | 57.797401 | 8.727279 | 2.0 | 16.582 | 2 | 43.180 | 16.724 | 33.732 | 2 |
| 2025-09-09T23:21:00 | 57.796707 | 8.732068 | 2.0 | 16.584 | 2 | 43.276 | 16.746 | 33.797 | 2 |
| 2025-09-09T23:22:00 | 57.796203 | 8.736184 | 2.0 | 16.582 | 2 | 43.337 | 16.749 | 33.848 | 2 |
| 2025-09-09T23:23:00 | 57.795829 | 8.739529 | 2.0 | 16.576 | 2 | 43.395 | 16.744 | 33.903 | 2 |
| 2025-09-09T23:24:00 | 57.795443 | 8.742329 | 2.0 | 16.587 | 2 | 43.391 | 16.743 | 33.900 | 2 |
| 2025-09-09T23:25:00 | 57.795203 | 8.744599 | 2.0 | 16.590 | 2 | 43.357 | 16.750 | 33.864 | 2 |
| 2025-09-09T23:26:00 | 57.795038 | 8.746406 | 2.0 | 16.588 | 2 | 43.351 | 16.753 | 33.857 | 2 |
| 2025-09-09T23:27:00 | 57.794837 | 8.747608 | 2.0 | 16.586 | 2 | 43.344 | 16.751 | 33.852 | 2 |
| 2025-09-09T23:28:00 | 57.794510 | 8.747903 | 2.0 | 16.584 | 2 | 43.340 | 16.749 | 33.850 | 2 |
| 2025-09-09T23:29:00 | 57.794224 | 8.747917 | 2.0 | 16.578 | 2 | 43.364 | 16.746 | 33.874 | 2 |
| 2025-09-09T23:30:00 | 57.793927 | 8.747810 | 2.0 | 16.559 | 2 | 43.358 | 16.739 | 33.875 | 2 |
| 2025-09-09T23:31:00 | 57.793539 | 8.747615 | 2.0 | 16.553 | 2 | 43.309 | 16.716 | 33.851 | 2 |
| 2025-09-09T23:32:00 | 57.793178 | 8.746629 | 2.0 | 16.610 | 2 | 43.304 | 16.732 | 33.833 | 2 |
| 2025-09-09T23:33:00 | 57.793031 | 8.744800 | 2.0 | 16.599 | 2 | 43.355 | 16.772 | 33.844 | 2 |
| 2025-09-09T23:34:00 | 57.792838 | 8.742654 | 2.0 | 16.491 | 2 | 43.287 | 16.741 | 33.811 | 2 |
| 2025-09-09T23:35:00 | 57.792613 | 8.740345 | 2.0 | 16.440 | 2 | 43.081 | 16.652 | 33.706 | 2 |
| 2025-09-09T23:36:00 | 57.792355 | 8.737958 | 2.0 | 16.402 | 2 | 42.968 | 16.600 | 33.651 | 2 |
| 2025-09-09T23:37:00 | 57.792077 | 8.735543 | 2.0 | 16.409 | 2 | 42.881 | 16.571 | 33.599 | 2 |
| 2025-09-09T23:38:00 | 57.791783 | 8.733094 | 2.0 | 16.420 | 2 | 42.851 | 16.577 | 33.568 | 2 |
| 2025-09-09T23:39:00 | 57.791483 | 8.730607 | 2.0 | 16.423 | 2 | 42.850 | 16.587 | 33.558 | 2 |
| 2025-09-09T23:40:00 | 57.791173 | 8.728109 | 2.0 | 16.421 | 2 | 42.847 | 16.586 | 33.556 | 2 |
| 2025-09-09T23:41:00 | 57.790864 | 8.725576 | 2.0 | 16.407 | 2 | 42.827 | 16.587 | 33.538 | 2 |
| 2025-09-09T23:42:00 | 57.790583 | 8.723125 | 2.0 | 16.350 | 2 | 42.681 | 16.557 | 33.435 | 2 |
| 2025-09-09T23:43:00 | 57.790348 | 8.721036 | 2.0 | 16.390 | 2 | 42.558 | 16.524 | 33.355 | 2 |
| 2025-09-09T23:44:00 | 57.790018 | 8.719498 | 2.0 | 16.407 | 2 | 42.528 | 16.557 | 33.302 | 2 |
| 2025-09-09T23:45:00 | 57.789579 | 8.718812 | 2.0 | 16.407 | 2 | 42.529 | 16.571 | 33.291 | 2 |
| 2025-09-09T23:46:00 | 57.789257 | 8.718702 | 2.0 | 16.407 | 2 | 42.542 | 16.571 | 33.302 | 2 |
| 2025-09-09T23:47:00 | 57.789074 | 8.718685 | 2.0 | 16.406 | 2 | 42.527 | 16.570 | 33.290 | 2 |
| 2025-09-09T23:48:00 | 57.788962 | 8.718642 | 2.0 | 16.407 | 2 | 42.546 | 16.570 | 33.306 | 2 |
| 2025-09-09T23:49:00 | 57.788856 | 8.718565 | 2.0 | 16.404 | 2 | 42.553 | 16.572 | 33.311 | 2 |
| 2025-09-09T23:50:00 | 57.788769 | 8.718476 | 2.0 | 16.404 | 2 | 42.552 | 16.568 | 33.313 | 2 |
| 2025-09-09T23:51:00 | 57.788703 | 8.718400 | 2.0 | 16.403 | 2 | 42.538 | 16.568 | 33.301 | 2 |
| 2025-09-09T23:52:00 | 57.788664 | 8.718311 | 2.0 | 16.396 | 2 | 42.535 | 16.565 | 33.301 | 2 |
| 2025-09-09T23:53:00 | 57.788655 | 8.718220 | 2.0 | 16.383 | 2 | 42.534 | 16.558 | 33.306 | 2 |
| 2025-09-09T23:54:00 | 57.788662 | 8.718135 | 2.0 | 16.377 | 2 | 42.518 | 16.547 | 33.301 | 2 |
| 2025-09-09T23:55:00 | 57.788685 | 8.718018 | 2.0 | 16.365 | 2 | 42.501 | 16.539 | 33.293 | 2 |
| 2025-09-09T23:56:00 | 57.788728 | 8.717892 | 2.0 | 16.363 | 2 | 42.477 | 16.529 | 33.280 | 2 |
| 2025-09-09T23:57:00 | 57.788797 | 8.717737 | 2.0 | 16.361 | 2 | 42.470 | 16.526 | 33.277 | 2 |
| 2025-09-09T23:58:00 | 57.788894 | 8.717571 | 2.0 | 16.357 | 2 | 42.467 | 16.524 | 33.276 | 2 |
| 2025-09-09T23:59:00 | 57.789018 | 8.717385 | 2.0 | 16.356 | 2 | 42.462 | 16.521 | 33.274 | 2 |
| 2025-09-10T00:00:00 | 57.789159 | 8.717192 | 2.0 | 16.360 | 2 | 42.461 | 16.520 | 33.274 | 2 |
| 2025-09-10T00:01:00 | 57.789322 | 8.717005 | 2.0 | 16.361 | 2 | 42.464 | 16.525 | 33.272 | 2 |
| 2025-09-10T00:02:00 | 57.789504 | 8.716791 | 2.0 | 16.363 | 2 | 42.462 | 16.525 | 33.270 | 2 |
| 2025-09-10T00:03:00 | 57.789687 | 8.716586 | 2.0 | 16.361 | 2 | 42.458 | 16.526 | 33.266 | 2 |
| 2025-09-10T00:04:00 | 57.789856 | 8.716364 | 2.0 | 16.359 | 2 | 42.453 | 16.524 | 33.263 | 2 |
| 2025-09-10T00:05:00 | 57.790028 | 8.716133 | 2.0 | 16.365 | 2 | 42.442 | 16.524 | 33.254 | 2 |
| 2025-09-10T00:06:00 | 57.790152 | 8.715983 | 2.0 | 16.385 | 2 | 42.443 | 16.531 | 33.249 | 2 |
| 2025-09-10T00:07:00 | 57.790137 | 8.715646 | 2.0 | 16.396 | 2 | 42.435 | 16.553 | 33.223 | 2 |
| 2025-09-10T00:08:00 | 57.790308 | 8.714863 | 2.0 | 16.397 | 2 | 42.409 | 16.559 | 33.196 | 2 |
| 2025-09-10T00:09:00 | 57.790999 | 8.714559 | 2.0 | 16.401 | 2 | 42.384 | 16.560 | 33.173 | 2 |
| 2025-09-10T00:10:00 | 57.791957 | 8.714837 | 2.0 | 16.395 | 2 | 42.386 | 16.565 | 33.171 | 2 |
| 2025-09-10T00:11:00 | 57.793131 | 8.715233 | 2.0 | 16.421 | 2 | 42.406 | 16.559 | 33.193 | 2 |
| 2025-09-10T00:12:00 | 57.794648 | 8.715888 | 2.0 | 16.455 | 2 | 42.460 | 16.590 | 33.215 | 2 |
| 2025-09-10T00:13:00 | 57.796482 | 8.716720 | 2.0 | 16.521 | 2 | 42.518 | 16.626 | 33.235 | 2 |
| 2025-09-10T00:14:00 | 57.798584 | 8.717460 | 2.0 | 16.564 | 2 | 42.592 | 16.695 | 33.243 | 2 |
| 2025-09-10T00:15:00 | 57.801203 | 8.718173 | 2.0 | 16.573 | 2 | 42.624 | 16.725 | 33.246 | 2 |
| 2025-09-10T00:16:00 | 57.804035 | 8.719081 | 2.0 | 16.500 | 2 | 42.636 | 16.729 | 33.253 | 2 |
| 2025-09-10T00:17:00 | 57.806904 | 8.720131 | 2.0 | 16.406 | 2 | 42.607 | 16.644 | 33.298 | 2 |
| 2025-09-10T00:18:00 | 57.809781 | 8.721081 | 2.0 | 16.427 | 2 | 42.611 | 16.582 | 33.353 | 2 |
| 2025-09-10T00:19:00 | 57.812653 | 8.721989 | 2.0 | 16.435 | 2 | 42.721 | 16.594 | 33.440 | 2 |
| 2025-09-10T00:20:00 | 57.815533 | 8.722850 | 2.0 | 16.413 | 2 | 42.817 | 16.603 | 33.516 | 2 |
| 2025-09-10T00:21:00 | 57.818389 | 8.723653 | 2.0 | 16.349 | 2 | 42.871 | 16.566 | 33.594 | 2 |
| 2025-09-10T00:22:00 | 57.821174 | 8.724655 | 2.0 | 16.349 | 2 | 42.755 | 16.519 | 33.532 | 2 |
| 2025-09-10T00:23:00 | 57.823955 | 8.725619 | 2.0 | 16.394 | 2 | 42.661 | 16.521 | 33.448 | 2 |
| 2025-09-10T00:24:00 | 57.826739 | 8.726611 | 2.0 | 16.462 | 2 | 42.644 | 16.578 | 33.386 | 2 |
| 2025-09-10T00:25:00 | 57.829539 | 8.727555 | 2.0 | 16.438 | 2 | 42.660 | 16.617 | 33.367 | 2 |
| 2025-09-10T00:26:00 | 57.832340 | 8.728438 | 2.0 | 16.422 | 2 | 42.638 | 16.602 | 33.360 | 2 |
| 2025-09-10T00:27:00 | 57.835133 | 8.729400 | 2.0 | 16.385 | 2 | 42.632 | 16.583 | 33.371 | 2 |
| 2025-09-10T00:28:00 | 57.837917 | 8.730398 | 2.0 | 16.360 | 2 | 42.635 | 16.548 | 33.403 | 2 |
| 2025-09-10T00:29:00 | 57.840715 | 8.731271 | 2.0 | 16.496 | 2 | 42.691 | 16.549 | 33.451 | 2 |
| 2025-09-10T00:30:00 | 57.843494 | 8.732171 | 2.0 | 16.499 | 2 | 42.877 | 16.653 | 33.527 | 2 |
| 2025-09-10T00:31:00 | 57.846261 | 8.733110 | 2.0 | 16.480 | 2 | 42.872 | 16.657 | 33.519 | 2 |
| 2025-09-10T00:32:00 | 57.849041 | 8.733958 | 2.0 | 16.467 | 2 | 42.829 | 16.644 | 33.492 | 2 |
| 2025-09-10T00:33:00 | 57.851816 | 8.734846 | 2.0 | 16.465 | 2 | 42.799 | 16.632 | 33.476 | 2 |
| 2025-09-10T00:34:00 | 57.854599 | 8.735753 | 2.0 | 16.466 | 2 | 42.790 | 16.631 | 33.469 | 2 |
| 2025-09-10T00:35:00 | 57.857390 | 8.736637 | 2.0 | 16.465 | 2 | 42.777 | 16.631 | 33.458 | 2 |
| 2025-09-10T00:36:00 | 57.860167 | 8.737602 | 2.0 | 16.453 | 2 | 42.765 | 16.628 | 33.450 | 2 |
| 2025-09-10T00:37:00 | 57.862969 | 8.738438 | 2.0 | 16.508 | 2 | 42.756 | 16.618 | 33.450 | 2 |
| 2025-09-10T00:38:00 | 57.865736 | 8.739373 | 2.0 | 16.570 | 2 | 42.811 | 16.686 | 33.441 | 2 |
| 2025-09-10T00:39:00 | 57.868491 | 8.740248 | 2.0 | 16.597 | 2 | 42.713 | 16.737 | 33.313 | 2 |
| 2025-09-10T00:40:00 | 57.871262 | 8.741147 | 2.0 | 16.598 | 2 | 42.571 | 16.757 | 33.173 | 2 |
| 2025-09-10T00:41:00 | 57.874045 | 8.742086 | 2.0 | 16.614 | 2 | 42.470 | 16.765 | 33.079 | 2 |
| 2025-09-10T00:42:00 | 57.876797 | 8.743048 | 2.0 | 16.640 | 2 | 42.380 | 16.780 | 32.988 | 2 |
| 2025-09-10T00:43:00 | 57.879508 | 8.743928 | 2.0 | 16.683 | 2 | 42.278 | 16.811 | 32.874 | 2 |
| 2025-09-10T00:44:00 | 57.882244 | 8.744761 | 2.0 | 16.757 | 2 | 42.173 | 16.861 | 32.742 | 2 |
| 2025-09-10T00:45:00 | 57.884987 | 8.745778 | 2.0 | 16.776 | 2 | 42.133 | 16.917 | 32.662 | 2 |
| 2025-09-10T00:46:00 | 57.887744 | 8.746718 | 2.0 | 16.764 | 2 | 42.083 | 16.932 | 32.606 | 2 |
| 2025-09-10T00:47:00 | 57.890481 | 8.747712 | 2.0 | 16.799 | 2 | 42.034 | 16.936 | 32.561 | 2 |
| 2025-09-10T00:48:00 | 57.893241 | 8.748567 | 2.0 | 16.842 | 2 | 42.039 | 16.967 | 32.540 | 2 |
| 2025-09-10T00:49:00 | 57.895993 | 8.749499 | 2.0 | 16.906 | 2 | 42.056 | 17.007 | 32.522 | 2 |
| 2025-09-10T00:50:00 | 57.898753 | 8.750412 | 2.0 | 17.004 | 2 | 42.086 | 17.082 | 32.488 | 2 |
| 2025-09-10T00:51:00 | 57.901504 | 8.751357 | 2.0 | 17.077 | 2 | 42.102 | 17.170 | 32.431 | 2 |
| 2025-09-10T00:52:00 | 57.904256 | 8.752257 | 2.0 | 17.126 | 2 | 42.094 | 17.241 | 32.367 | 2 |
| 2025-09-10T00:53:00 | 57.907002 | 8.753105 | 2.0 | 17.172 | 2 | 42.067 | 17.287 | 32.307 | 2 |
| 2025-09-10T00:54:00 | 57.909733 | 8.754045 | 2.0 | 17.236 | 2 | 42.047 | 17.340 | 32.247 | 2 |
| 2025-09-10T00:55:00 | 57.912471 | 8.754966 | 2.0 | 17.265 | 2 | 42.036 | 17.394 | 32.195 | 2 |
| 2025-09-10T00:56:00 | 57.915224 | 8.755878 | 2.0 | 17.270 | 2 | 42.023 | 17.422 | 32.162 | 2 |
| 2025-09-10T00:57:00 | 57.917983 | 8.756770 | 2.0 | 17.278 | 2 | 42.005 | 17.432 | 32.138 | 2 |
| 2025-09-10T00:58:00 | 57.920747 | 8.757694 | 2.0 | 17.273 | 2 | 42.011 | 17.434 | 32.142 | 2 |
| 2025-09-10T00:59:00 | 57.923507 | 8.758645 | 2.0 | 17.282 | 2 | 42.009 | 17.435 | 32.139 | 2 |
| 2025-09-10T01:00:00 | 57.926267 | 8.759533 | 2.0 | 17.305 | 2 | 42.032 | 17.444 | 32.152 | 2 |
| 2025-09-10T01:01:00 | 57.929009 | 8.760519 | 2.0 | 17.308 | 2 | 42.025 | 17.463 | 32.131 | 2 |
| 2025-09-10T01:02:00 | 57.931571 | 8.762413 | 2.0 | 17.315 | 2 | 42.032 | 17.470 | 32.131 | 2 |
| 2025-09-10T01:03:00 | 57.933398 | 8.766117 | 2.0 | 17.312 | 2 | 42.036 | 17.473 | 32.132 | 2 |
| 2025-09-10T01:04:00 | 57.934312 | 8.770910 | 2.0 | 17.311 | 2 | 42.039 | 17.471 | 32.136 | 2 |
| 2025-09-10T01:05:00 | 57.934150 | 8.775939 | 2.0 | 17.317 | 2 | 42.037 | 17.472 | 32.134 | 2 |
| 2025-09-10T01:06:00 | 57.932950 | 8.780338 | 2.0 | 17.308 | 2 | 42.031 | 17.476 | 32.126 | 2 |
| 2025-09-10T01:07:00 | 57.931192 | 8.784014 | 2.0 | 17.304 | 2 | 42.031 | 17.468 | 32.132 | 2 |
| 2025-09-10T01:08:00 | 57.929362 | 8.787603 | 2.0 | 17.307 | 2 | 42.018 | 17.465 | 32.123 | 2 |
| 2025-09-10T01:09:00 | 57.927496 | 8.791151 | 2.0 | 17.302 | 2 | 42.001 | 17.468 | 32.106 | 2 |
| 2025-09-10T01:10:00 | 57.925603 | 8.794630 | 2.0 | 17.283 | 2 | 41.995 | 17.460 | 32.108 | 2 |
| 2025-09-10T01:11:00 | 57.923738 | 8.798103 | 2.0 | 17.265 | 2 | 41.992 | 17.444 | 32.118 | 2 |
| 2025-09-10T01:12:00 | 57.921890 | 8.801586 | 2.0 | 17.246 | 2 | 41.974 | 17.423 | 32.119 | 2 |
| 2025-09-10T01:13:00 | 57.920017 | 8.805089 | 2.0 | 17.236 | 2 | 41.985 | 17.409 | 32.139 | 2 |
| 2025-09-10T01:14:00 | 57.918142 | 8.808632 | 2.0 | 17.204 | 2 | 42.014 | 17.393 | 32.177 | 2 |
| 2025-09-10T01:15:00 | 57.916262 | 8.812182 | 2.0 | 17.229 | 2 | 42.030 | 17.372 | 32.207 | 2 |
| 2025-09-10T01:16:00 | 57.914385 | 8.815732 | 2.0 | 17.218 | 2 | 42.046 | 17.389 | 32.207 | 2 |
| 2025-09-10T01:17:00 | 57.912493 | 8.819261 | 2.0 | 17.175 | 2 | 42.040 | 17.368 | 32.219 | 2 |
| 2025-09-10T01:18:00 | 57.910616 | 8.822806 | 2.0 | 17.150 | 2 | 42.044 | 17.337 | 32.247 | 2 |
| 2025-09-10T01:19:00 | 57.908733 | 8.826346 | 2.0 | 17.121 | 2 | 42.065 | 17.309 | 32.287 | 2 |
| 2025-09-10T01:20:00 | 57.906840 | 8.829881 | 2.0 | 17.105 | 2 | 42.057 | 17.284 | 32.301 | 2 |
| 2025-09-10T01:21:00 | 57.904947 | 8.833409 | 2.0 | 17.077 | 2 | 42.068 | 17.264 | 32.326 | 2 |
| 2025-09-10T01:22:00 | 57.903074 | 8.836958 | 2.0 | 17.041 | 2 | 42.063 | 17.236 | 32.344 | 2 |
| 2025-09-10T01:23:00 | 57.901182 | 8.840502 | 2.0 | 17.005 | 2 | 42.054 | 17.199 | 32.366 | 2 |
| 2025-09-10T01:24:00 | 57.899298 | 8.844032 | 2.0 | 16.977 | 2 | 42.046 | 17.166 | 32.386 | 2 |
| 2025-09-10T01:25:00 | 57.897432 | 8.847590 | 2.0 | 16.958 | 2 | 42.043 | 17.139 | 32.405 | 2 |
| 2025-09-10T01:26:00 | 57.895574 | 8.851117 | 2.0 | 16.941 | 2 | 42.035 | 17.122 | 32.411 | 2 |
| 2025-09-10T01:27:00 | 57.893709 | 8.854602 | 2.0 | 16.891 | 2 | 42.037 | 17.098 | 32.432 | 2 |
| 2025-09-10T01:28:00 | 57.891870 | 8.858119 | 2.0 | 16.827 | 2 | 42.056 | 17.045 | 32.492 | 2 |
| 2025-09-10T01:29:00 | 57.890008 | 8.861580 | 2.0 | 16.784 | 2 | 42.044 | 16.990 | 32.526 | 2 |
| 2025-09-10T01:30:00 | 57.888167 | 8.865030 | 2.0 | 16.750 | 2 | 42.069 | 16.944 | 32.584 | 2 |
| 2025-09-10T01:31:00 | 57.886304 | 8.868474 | 2.0 | 16.729 | 2 | 42.108 | 16.913 | 32.643 | 2 |
| 2025-09-10T01:32:00 | 57.884463 | 8.871964 | 2.0 | 16.690 | 2 | 42.204 | 16.885 | 32.749 | 2 |
| 2025-09-10T01:33:00 | 57.882621 | 8.875440 | 2.0 | 16.658 | 2 | 42.301 | 16.857 | 32.856 | 2 |
| 2025-09-10T01:34:00 | 57.880817 | 8.878953 | 2.0 | 16.663 | 2 | 42.348 | 16.828 | 32.921 | 2 |
| 2025-09-10T01:35:00 | 57.878982 | 8.882413 | 2.0 | 16.670 | 2 | 42.391 | 16.829 | 32.957 | 2 |
| 2025-09-10T01:36:00 | 57.877136 | 8.885861 | 2.0 | 16.670 | 2 | 42.450 | 16.838 | 33.001 | 2 |
| 2025-09-10T01:37:00 | 57.875273 | 8.889312 | 2.0 | 16.651 | 2 | 42.496 | 16.831 | 33.047 | 2 |
| 2025-09-10T01:38:00 | 57.873416 | 8.892835 | 2.0 | 16.640 | 2 | 42.568 | 16.817 | 33.121 | 2 |
| 2025-09-10T01:39:00 | 57.871574 | 8.896404 | 2.0 | 16.626 | 2 | 42.681 | 16.803 | 33.231 | 2 |
| 2025-09-10T01:40:00 | 57.869700 | 8.899937 | 2.0 | 16.621 | 2 | 42.701 | 16.793 | 33.256 | 2 |
| 2025-09-10T01:41:00 | 57.867806 | 8.903452 | 2.0 | 16.617 | 2 | 42.687 | 16.786 | 33.250 | 2 |
| 2025-09-10T01:42:00 | 57.865935 | 8.906991 | 2.0 | 16.622 | 2 | 42.671 | 16.784 | 33.238 | 2 |
| 2025-09-10T01:43:00 | 57.864070 | 8.910544 | 2.0 | 16.613 | 2 | 42.671 | 16.785 | 33.237 | 2 |
| 2025-09-10T01:44:00 | 57.862198 | 8.914060 | 2.0 | 16.609 | 2 | 42.659 | 16.779 | 33.231 | 2 |
| 2025-09-10T01:45:00 | 57.860333 | 8.917550 | 2.0 | 16.604 | 2 | 42.649 | 16.775 | 33.226 | 2 |
| 2025-09-10T01:46:00 | 57.858463 | 8.921029 | 2.0 | 16.588 | 2 | 42.643 | 16.768 | 33.227 | 2 |
| 2025-09-10T01:47:00 | 57.856597 | 8.924520 | 2.0 | 16.560 | 2 | 42.627 | 16.752 | 33.226 | 2 |
| 2025-09-10T01:48:00 | 57.854741 | 8.928004 | 2.0 | 16.544 | 2 | 42.600 | 16.722 | 33.227 | 2 |
| 2025-09-10T01:49:00 | 57.852885 | 8.931474 | 2.0 | 16.537 | 2 | 42.579 | 16.710 | 33.219 | 2 |
| 2025-09-10T01:50:00 | 57.851037 | 8.934948 | 2.0 | 16.539 | 2 | 42.572 | 16.704 | 33.218 | 2 |
| 2025-09-10T01:51:00 | 57.849193 | 8.938408 | 2.0 | 16.525 | 2 | 42.567 | 16.702 | 33.215 | 2 |
| 2025-09-10T01:52:00 | 57.847329 | 8.941832 | 2.0 | 16.517 | 2 | 42.556 | 16.692 | 33.214 | 2 |
| 2025-09-10T01:53:00 | 57.845499 | 8.945296 | 2.0 | 16.503 | 2 | 42.550 | 16.681 | 33.218 | 2 |
| 2025-09-10T01:54:00 | 57.843654 | 8.948748 | 2.0 | 16.507 | 2 | 42.540 | 16.671 | 33.217 | 2 |
| 2025-09-10T01:55:00 | 57.841809 | 8.952187 | 2.0 | 16.521 | 2 | 42.523 | 16.677 | 33.197 | 2 |
| 2025-09-10T01:56:00 | 57.839976 | 8.955617 | 2.0 | 16.534 | 2 | 42.523 | 16.688 | 33.188 | 2 |
| 2025-09-10T01:57:00 | 57.838144 | 8.959045 | 2.0 | 16.549 | 2 | 42.531 | 16.701 | 33.185 | 2 |
| 2025-09-10T01:58:00 | 57.836303 | 8.962462 | 2.0 | 16.533 | 2 | 42.538 | 16.711 | 33.182 | 2 |
| 2025-09-10T01:59:00 | 57.834473 | 8.965905 | 2.0 | 16.509 | 2 | 42.529 | 16.694 | 33.189 | 2 |
| 2025-09-10T02:00:00 | 57.832642 | 8.969336 | 2.0 | 16.489 | 2 | 42.525 | 16.672 | 33.203 | 2 |
| 2025-09-10T02:01:00 | 57.830805 | 8.972727 | 2.0 | 16.468 | 2 | 42.518 | 16.652 | 33.214 | 2 |
| 2025-09-10T02:02:00 | 57.828976 | 8.976139 | 2.0 | 16.453 | 2 | 42.519 | 16.633 | 33.230 | 2 |
| 2025-09-10T02:03:00 | 57.827166 | 8.979543 | 2.0 | 16.437 | 2 | 42.526 | 16.613 | 33.253 | 2 |
| 2025-09-10T02:04:00 | 57.825358 | 8.982934 | 2.0 | 16.563 | 2 | 42.596 | 16.617 | 33.311 | 2 |
| 2025-09-10T02:05:00 | 57.823545 | 8.986323 | 2.0 | 16.760 | 2 | 42.895 | 16.762 | 33.451 | 2 |
| 2025-09-10T02:06:00 | 57.821773 | 8.989790 | 2.0 | 16.857 | 2 | 43.257 | 16.938 | 33.619 | 2 |
| 2025-09-10T02:07:00 | 57.819967 | 8.993210 | 2.0 | 16.789 | 2 | 43.436 | 17.001 | 33.722 | 2 |
| 2025-09-10T02:08:00 | 57.818153 | 8.996641 | 2.0 | 16.698 | 2 | 43.366 | 16.930 | 33.721 | 2 |
| 2025-09-10T02:09:00 | 57.816343 | 9.000079 | 2.0 | 16.657 | 2 | 43.277 | 16.861 | 33.701 | 2 |
| 2025-09-10T02:10:00 | 57.814526 | 9.003492 | 2.0 | 16.624 | 2 | 43.222 | 16.818 | 33.689 | 2 |
| 2025-09-10T02:11:00 | 57.812712 | 9.006921 | 2.0 | 16.612 | 2 | 43.182 | 16.791 | 33.677 | 2 |
| 2025-09-10T02:12:00 | 57.810903 | 9.010357 | 2.0 | 16.633 | 2 | 43.167 | 16.782 | 33.672 | 2 |
| 2025-09-10T02:13:00 | 57.809063 | 9.013755 | 2.0 | 16.671 | 2 | 43.184 | 16.800 | 33.671 | 2 |
| 2025-09-10T02:14:00 | 57.807226 | 9.017173 | 2.0 | 16.716 | 2 | 43.235 | 16.839 | 33.683 | 2 |
| 2025-09-10T02:15:00 | 57.805825 | 9.021253 | 2.0 | 16.814 | 2 | 43.320 | 16.900 | 33.706 | 2 |
| 2025-09-10T02:16:00 | 57.805753 | 9.026333 | 2.0 | 16.819 | 2 | 43.430 | 16.978 | 33.736 | 2 |
| 2025-09-10T02:17:00 | 57.807111 | 9.031039 | 2.0 | 16.798 | 2 | 43.459 | 16.976 | 33.763 | 2 |
| 2025-09-10T02:18:00 | 57.809602 | 9.033858 | 2.0 | 16.808 | 2 | 43.457 | 16.964 | 33.771 | 2 |
| 2025-09-10T02:19:00 | 57.812414 | 9.033353 | 2.0 | 16.833 | 2 | 43.464 | 16.976 | 33.767 | 2 |
| 2025-09-10T02:20:00 | 57.815128 | 9.031480 | 2.0 | 16.862 | 2 | 43.447 | 17.001 | 33.732 | 2 |
| 2025-09-10T02:21:00 | 57.817931 | 9.029981 | 2.0 | 16.888 | 2 | 43.484 | 17.029 | 33.740 | 2 |
| 2025-09-10T02:22:00 | 57.820623 | 9.028420 | 2.0 | 16.905 | 2 | 43.500 | 17.052 | 33.735 | 2 |
| 2025-09-10T02:23:00 | 57.823261 | 9.026810 | 2.0 | 16.921 | 2 | 43.488 | 17.070 | 33.709 | 2 |
| 2025-09-10T02:24:00 | 57.825738 | 9.024707 | 2.0 | 16.892 | 2 | 43.544 | 17.084 | 33.746 | 2 |
| 2025-09-10T02:25:00 | 57.827931 | 9.021690 | 2.0 | 16.621 | 2 | 43.352 | 17.003 | 33.647 | 2 |
| 2025-09-10T02:26:00 | 57.830237 | 9.018745 | 2.0 | 16.450 | 2 | 42.895 | 16.755 | 33.457 | 2 |
| 2025-09-10T02:27:00 | 57.832557 | 9.015777 | 2.0 | 16.478 | 2 | 42.590 | 16.634 | 33.292 | 2 |
| 2025-09-10T02:28:00 | 57.834673 | 9.012416 | 2.0 | 16.504 | 2 | 42.532 | 16.653 | 33.225 | 2 |
| 2025-09-10T02:29:00 | 57.836293 | 9.008325 | 2.0 | 16.505 | 2 | 42.535 | 16.671 | 33.213 | 2 |
| 2025-09-10T02:30:00 | 57.837685 | 9.003930 | 2.0 | 16.499 | 2 | 42.531 | 16.672 | 33.209 | 2 |
| 2025-09-10T02:31:00 | 57.838698 | 8.999210 | 2.0 | 16.494 | 2 | 42.524 | 16.664 | 33.209 | 2 |
| 2025-09-10T02:32:00 | 57.839298 | 8.994268 | 2.0 | 16.495 | 2 | 42.524 | 16.661 | 33.212 | 2 |
| 2025-09-10T02:33:00 | 57.839390 | 8.989190 | 2.0 | 16.491 | 2 | 42.525 | 16.662 | 33.212 | 2 |
| 2025-09-10T02:34:00 | 57.839000 | 8.984182 | 2.0 | 16.476 | 2 | 42.524 | 16.655 | 33.217 | 2 |
| 2025-09-10T02:35:00 | 57.838166 | 8.979450 | 2.0 | 16.454 | 2 | 42.520 | 16.639 | 33.226 | 2 |
| 2025-09-10T02:36:00 | 57.836902 | 8.975054 | 2.0 | 16.430 | 2 | 42.518 | 16.618 | 33.242 | 2 |
| 2025-09-10T02:37:00 | 57.835291 | 8.971095 | 2.0 | 16.397 | 2 | 42.516 | 16.594 | 33.260 | 2 |
| 2025-09-10T02:38:00 | 57.833408 | 8.967649 | 2.0 | 16.361 | 2 | 42.513 | 16.559 | 33.287 | 2 |
| 2025-09-10T02:39:00 | 57.831246 | 8.964866 | 2.0 | 16.528 | 2 | 42.547 | 16.547 | 33.326 | 2 |
| 2025-09-10T02:40:00 | 57.828857 | 8.962826 | 2.0 | 16.443 | 2 | 42.842 | 16.696 | 33.460 | 2 |
| 2025-09-10T02:41:00 | 57.826344 | 8.961633 | 2.0 | 16.409 | 2 | 42.812 | 16.611 | 33.505 | 2 |
| 2025-09-10T02:42:00 | 57.823793 | 8.960927 | 2.0 | 16.415 | 2 | 42.753 | 16.577 | 33.482 | 2 |
| 2025-09-10T02:43:00 | 57.821273 | 8.960078 | 2.0 | 16.461 | 2 | 42.781 | 16.592 | 33.494 | 2 |
| 2025-09-10T02:44:00 | 57.818729 | 8.960084 | 2.0 | 16.500 | 2 | 42.890 | 16.633 | 33.555 | 2 |
| 2025-09-10T02:45:00 | 57.816281 | 8.961429 | 2.0 | 16.498 | 2 | 42.986 | 16.664 | 33.613 | 2 |
| 2025-09-10T02:46:00 | 57.813954 | 8.963355 | 2.0 | 16.483 | 2 | 42.971 | 16.660 | 33.603 | 2 |
| 2025-09-10T02:47:00 | 57.811730 | 8.965635 | 2.0 | 16.460 | 2 | 42.918 | 16.648 | 33.567 | 2 |
| 2025-09-10T02:48:00 | 57.809681 | 8.968502 | 2.0 | 16.358 | 2 | 42.862 | 16.613 | 33.547 | 2 |
| 2025-09-10T02:49:00 | 57.807935 | 8.972092 | 2.0 | 16.358 | 2 | 42.789 | 16.527 | 33.555 | 2 |
| 2025-09-10T02:50:00 | 57.806414 | 8.976109 | 2.0 | 16.423 | 2 | 42.828 | 16.534 | 33.584 | 2 |
| 2025-09-10T02:51:00 | 57.805210 | 8.980551 | 2.0 | 16.425 | 2 | 42.953 | 16.590 | 33.646 | 2 |
| 2025-09-10T02:52:00 | 57.804334 | 8.985369 | 2.0 | 16.443 | 2 | 42.956 | 16.591 | 33.648 | 2 |
| 2025-09-10T02:53:00 | 57.803869 | 8.990507 | 2.0 | 16.443 | 2 | 42.967 | 16.610 | 33.641 | 2 |
| 2025-09-10T02:54:00 | 57.803948 | 8.995761 | 2.0 | 16.437 | 2 | 42.943 | 16.608 | 33.622 | 2 |
| 2025-09-10T02:55:00 | 57.804476 | 9.000750 | 2.0 | 16.414 | 2 | 42.927 | 16.601 | 33.614 | 2 |
| 2025-09-10T02:56:00 | 57.805380 | 9.005536 | 2.0 | 16.391 | 2 | 42.906 | 16.573 | 33.619 | 2 |
| 2025-09-10T02:57:00 | 57.806999 | 9.009655 | 2.0 | 16.424 | 2 | 42.901 | 16.561 | 33.625 | 2 |
| 2025-09-10T02:58:00 | 57.809604 | 9.011914 | 2.0 | 16.440 | 2 | 42.949 | 16.596 | 33.637 | 2 |
| 2025-09-10T02:59:00 | 57.812354 | 9.010943 | 2.0 | 16.367 | 2 | 42.951 | 16.585 | 33.648 | 2 |
| 2025-09-10T03:00:00 | 57.814847 | 9.008343 | 2.0 | 16.363 | 2 | 42.879 | 16.539 | 33.624 | 2 |
| 2025-09-10T03:01:00 | 57.817371 | 9.005927 | 2.0 | 16.327 | 2 | 42.839 | 16.525 | 33.601 | 2 |
| 2025-09-10T03:02:00 | 57.819764 | 9.003591 | 2.0 | 16.291 | 2 | 42.784 | 16.488 | 33.584 | 2 |
| 2025-09-10T03:03:00 | 57.822143 | 9.001288 | 2.0 | 16.238 | 2 | 42.731 | 16.451 | 33.568 | 2 |
| 2025-09-10T03:04:00 | 57.824598 | 8.998925 | 2.0 | 16.221 | 2 | 42.658 | 16.404 | 33.544 | 2 |
| 2025-09-10T03:05:00 | 57.827056 | 8.996459 | 2.0 | 16.246 | 2 | 42.621 | 16.392 | 33.521 | 2 |
| 2025-09-10T03:06:00 | 57.829555 | 8.994105 | 2.0 | 16.310 | 2 | 42.635 | 16.425 | 33.506 | 2 |
| 2025-09-10T03:07:00 | 57.831986 | 8.991657 | 2.0 | 16.354 | 2 | 42.680 | 16.481 | 33.498 | 2 |
| 2025-09-10T03:08:00 | 57.834455 | 8.989375 | 2.0 | 16.375 | 2 | 42.723 | 16.524 | 33.500 | 2 |
| 2025-09-10T03:09:00 | 57.836877 | 8.986961 | 2.0 | 16.652 | 2 | 42.822 | 16.590 | 33.531 | 2 |
| 2025-09-10T03:10:00 | 57.839475 | 8.985103 | 2.0 | 16.404 | 2 | 42.951 | 16.751 | 33.509 | 2 |
| 2025-09-10T03:11:00 | 57.842272 | 8.986365 | 2.0 | 16.392 | 2 | 42.606 | 16.570 | 33.359 | 2 |
| 2025-09-10T03:12:00 | 57.844209 | 8.990243 | 2.0 | 16.425 | 2 | 42.516 | 16.567 | 33.283 | 2 |
| 2025-09-10T03:13:00 | 57.844707 | 8.995311 | 2.0 | 16.438 | 2 | 42.511 | 16.591 | 33.258 | 2 |
| 2025-09-10T03:14:00 | 57.844701 | 9.000519 | 2.0 | 16.449 | 2 | 42.503 | 16.605 | 33.240 | 2 |
| 2025-09-10T03:15:00 | 57.844721 | 9.005783 | 2.0 | 16.458 | 2 | 42.515 | 16.616 | 33.241 | 2 |
| 2025-09-10T03:16:00 | 57.844702 | 9.011058 | 2.0 | 16.466 | 2 | 42.517 | 16.625 | 33.235 | 2 |
| 2025-09-10T03:17:00 | 57.844704 | 9.016346 | 2.0 | 16.475 | 2 | 42.520 | 16.632 | 33.232 | 2 |
| 2025-09-10T03:18:00 | 57.844693 | 9.021665 | 2.0 | 16.484 | 2 | 42.522 | 16.641 | 33.226 | 2 |
| 2025-09-10T03:19:00 | 57.844699 | 9.026994 | 2.0 | 16.490 | 2 | 42.182 | 16.650 | 32.922 | 2 |
| 2025-09-10T03:20:00 | 57.844676 | 9.032318 | 2.0 | 16.495 | 2 | 42.503 | 16.655 | 33.198 | 2 |
| 2025-09-10T03:21:00 | 57.844976 | 9.037598 | 2.0 | 16.503 | 2 | 42.529 | 16.660 | 33.217 | 2 |
| 2025-09-10T03:22:00 | 57.846709 | 9.041780 | 2.0 | 16.513 | 2 | 42.500 | 16.669 | 33.184 | 2 |
| 2025-09-10T03:23:00 | 57.849405 | 9.043634 | 2.0 | 16.497 | 2 | 42.530 | 16.676 | 33.204 | 2 |
| 2025-09-10T03:24:00 | 57.852370 | 9.044190 | 2.0 | 16.479 | 2 | 42.483 | 16.657 | 33.179 | 2 |
| 2025-09-10T03:25:00 | 57.855391 | 9.044736 | 2.0 | 16.480 | 2 | 42.407 | 16.645 | 33.123 | 2 |
| 2025-09-10T03:26:00 | 57.858428 | 9.045337 | 2.0 | 16.491 | 2 | 42.254 | 16.646 | 32.988 | 2 |
| 2025-09-10T03:27:00 | 57.861465 | 9.045957 | 2.0 | 16.513 | 2 | 42.433 | 16.662 | 33.131 | 2 |
| 2025-09-10T03:28:00 | 57.864501 | 9.046541 | 2.0 | 16.521 | 2 | 42.525 | 16.679 | 33.198 | 2 |
| 2025-09-10T03:29:00 | 57.867421 | 9.047167 | 2.0 | 16.536 | 2 | 42.279 | 16.689 | 32.975 | 2 |
| 2025-09-10T03:30:00 | 57.870245 | 9.047748 | 2.0 | 16.555 | 2 | 42.308 | 16.702 | 32.989 | 2 |
| 2025-09-10T03:31:00 | 57.873036 | 9.048292 | 2.0 | 16.595 | 2 | 42.457 | 16.726 | 33.099 | 2 |
| 2025-09-10T03:32:00 | 57.875816 | 9.048838 | 2.0 | 16.610 | 2 | 42.432 | 16.759 | 33.050 | 2 |
| 2025-09-10T03:33:00 | 57.878581 | 9.049382 | 2.0 | 16.650 | 2 | 42.534 | 16.782 | 33.120 | 2 |
| 2025-09-10T03:34:00 | 57.881333 | 9.049980 | 2.0 | 16.669 | 2 | 42.657 | 16.815 | 33.200 | 2 |
| 2025-09-10T03:35:00 | 57.884094 | 9.050513 | 2.0 | 16.673 | 2 | 42.679 | 16.832 | 33.205 | 2 |
| 2025-09-10T03:36:00 | 57.886850 | 9.051055 | 2.0 | 16.665 | 2 | 42.678 | 16.836 | 33.201 | 2 |
| 2025-09-10T03:37:00 | 57.889618 | 9.051560 | 2.0 | 16.663 | 2 | 42.652 | 16.826 | 33.186 | 2 |
| 2025-09-10T03:38:00 | 57.892395 | 9.052141 | 2.0 | 16.660 | 2 | 42.459 | 16.826 | 33.019 | 2 |
| 2025-09-10T03:39:00 | 57.895152 | 9.052777 | 2.0 | 16.642 | 2 | 42.587 | 16.822 | 33.133 | 2 |
| 2025-09-10T03:40:00 | 57.897907 | 9.053270 | 2.0 | 16.607 | 2 | 42.500 | 16.803 | 33.073 | 2 |
| 2025-09-10T03:41:00 | 57.900649 | 9.053784 | 2.0 | 16.584 | 2 | 42.447 | 16.767 | 33.057 | 2 |
| 2025-09-10T03:42:00 | 57.903376 | 9.054350 | 2.0 | 16.610 | 2 | 42.416 | 16.755 | 33.040 | 2 |
| 2025-09-10T03:43:00 | 57.906095 | 9.054868 | 2.0 | 16.625 | 2 | 42.127 | 16.771 | 32.775 | 2 |
| 2025-09-10T03:44:00 | 57.908806 | 9.055398 | 2.0 | 16.680 | 2 | 42.111 | 16.802 | 32.736 | 2 |
| 2025-09-10T03:45:00 | 57.911527 | 9.055855 | 2.0 | 16.698 | 2 | 42.087 | 16.843 | 32.682 | 2 |
| 2025-09-10T03:46:00 | 57.914256 | 9.056312 | 2.0 | 16.705 | 2 | 42.102 | 16.861 | 32.680 | 2 |
| 2025-09-10T03:47:00 | 57.917006 | 9.056703 | 2.0 | 16.676 | 2 | 42.110 | 16.864 | 32.685 | 2 |
| 2025-09-10T03:48:00 | 57.919751 | 9.057274 | 2.0 | 16.606 | 2 | 42.159 | 16.825 | 32.759 | 2 |
| 2025-09-10T03:49:00 | 57.922497 | 9.057810 | 2.0 | 16.623 | 2 | 42.160 | 16.777 | 32.799 | 2 |
| 2025-09-10T03:50:00 | 57.925225 | 9.058385 | 2.0 | 16.669 | 2 | 42.132 | 16.797 | 32.758 | 2 |
| 2025-09-10T03:51:00 | 57.927953 | 9.058889 | 2.0 | 16.718 | 2 | 42.092 | 16.840 | 32.689 | 2 |
| 2025-09-10T03:52:00 | 57.930683 | 9.059432 | 2.0 | 16.774 | 2 | 41.993 | 16.889 | 32.563 | 2 |
| 2025-09-10T03:53:00 | 57.933400 | 9.060026 | 2.0 | 16.815 | 2 | 41.942 | 16.939 | 32.479 | 2 |
| 2025-09-10T03:54:00 | 57.936110 | 9.060604 | 2.0 | 16.835 | 2 | 41.916 | 16.980 | 32.423 | 2 |
| 2025-09-10T03:55:00 | 57.938807 | 9.061175 | 2.0 | 16.852 | 2 | 41.868 | 16.997 | 32.368 | 2 |
| 2025-09-10T03:56:00 | 57.941505 | 9.061708 | 2.0 | 16.875 | 2 | 41.875 | 17.014 | 32.360 | 2 |
| 2025-09-10T03:57:00 | 57.944234 | 9.062210 | 2.0 | 16.914 | 2 | 41.871 | 17.047 | 32.330 | 2 |
| 2025-09-10T03:58:00 | 57.946991 | 9.062692 | 2.0 | 16.949 | 2 | 41.882 | 17.080 | 32.313 | 2 |
| 2025-09-10T03:59:00 | 57.949740 | 9.063301 | 2.0 | 17.006 | 2 | 41.922 | 17.117 | 32.318 | 2 |
| 2025-09-10T04:00:00 | 57.952497 | 9.063791 | 2.0 | 17.074 | 2 | 41.961 | 17.173 | 32.307 | 2 |
| 2025-09-10T04:01:00 | 57.955253 | 9.064288 | 2.0 | 17.122 | 2 | 41.965 | 17.241 | 32.256 | 2 |
| 2025-09-10T04:02:00 | 57.958005 | 9.064878 | 2.0 | 17.138 | 2 | 41.990 | 17.288 | 32.240 | 2 |
| 2025-09-10T04:03:00 | 57.960762 | 9.065352 | 2.0 | 17.112 | 2 | 42.023 | 17.291 | 32.266 | 2 |
| 2025-09-10T04:04:00 | 57.963520 | 9.065834 | 2.0 | 17.086 | 2 | 41.997 | 17.271 | 32.260 | 2 |
| 2025-09-10T04:05:00 | 57.966267 | 9.066411 | 2.0 | 17.084 | 2 | 42.023 | 17.245 | 32.303 | 2 |
| 2025-09-10T04:06:00 | 57.969006 | 9.066877 | 2.0 | 17.124 | 2 | 42.004 | 17.253 | 32.280 | 2 |
| 2025-09-10T04:07:00 | 57.971728 | 9.067418 | 2.0 | 17.154 | 2 | 41.995 | 17.290 | 32.243 | 2 |
| 2025-09-10T04:08:00 | 57.974454 | 9.067965 | 2.0 | 17.186 | 2 | 41.955 | 17.321 | 32.184 | 2 |
| 2025-09-10T04:09:00 | 57.977170 | 9.068508 | 2.0 | 17.198 | 2 | 41.927 | 17.347 | 32.139 | 2 |
| 2025-09-10T04:10:00 | 57.979887 | 9.069001 | 2.0 | 17.234 | 2 | 41.926 | 17.363 | 32.126 | 2 |
| 2025-09-10T04:11:00 | 57.982609 | 9.069536 | 2.0 | 17.249 | 2 | 41.959 | 17.394 | 32.129 | 2 |
| 2025-09-10T04:12:00 | 57.985350 | 9.070035 | 2.0 | 17.241 | 2 | 41.974 | 17.406 | 32.132 | 2 |
| 2025-09-10T04:13:00 | 57.988088 | 9.070603 | 2.0 | 17.243 | 2 | 41.989 | 17.402 | 32.148 | 2 |
| 2025-09-10T04:14:00 | 57.990819 | 9.071129 | 2.0 | 17.219 | 2 | 42.013 | 17.398 | 32.172 | 2 |
| 2025-09-10T04:15:00 | 57.993542 | 9.071656 | 2.0 | 17.204 | 2 | 42.017 | 17.377 | 32.192 | 2 |
| 2025-09-10T04:16:00 | 57.996268 | 9.072224 | 2.0 | 17.217 | 2 | 42.009 | 17.370 | 32.191 | 2 |
| 2025-09-10T04:17:00 | 57.998994 | 9.072752 | 2.0 | 17.218 | 2 | 41.994 | 17.378 | 32.172 | 2 |
| 2025-09-10T04:18:00 | 58.001710 | 9.073287 | 2.0 | 17.221 | 2 | 41.974 | 17.379 | 32.154 | 2 |
| 2025-09-10T04:19:00 | 58.004419 | 9.073827 | 2.0 | 17.233 | 2 | 41.962 | 17.384 | 32.140 | 2 |
| 2025-09-10T04:20:00 | 58.007136 | 9.074311 | 2.0 | 17.239 | 2 | 41.964 | 17.395 | 32.133 | 2 |
| 2025-09-10T04:21:00 | 58.009839 | 9.074849 | 2.0 | 17.238 | 2 | 41.970 | 17.399 | 32.135 | 2 |
| 2025-09-10T04:22:00 | 58.012531 | 9.075437 | 2.0 | 17.237 | 2 | 41.976 | 17.399 | 32.140 | 2 |
| 2025-09-10T04:23:00 | 58.015245 | 9.075917 | 2.0 | 17.235 | 2 | 41.977 | 17.398 | 32.141 | 2 |
| 2025-09-10T04:24:00 | 58.017967 | 9.076421 | 2.0 | 17.240 | 2 | 41.981 | 17.397 | 32.146 | 2 |
| 2025-09-10T04:25:00 | 58.020699 | 9.076918 | 2.0 | 17.243 | 2 | 41.982 | 17.403 | 32.142 | 2 |
| 2025-09-10T04:26:00 | 58.023366 | 9.077939 | 2.0 | 17.202 | 2 | 41.965 | 17.401 | 32.129 | 2 |
| 2025-09-10T04:27:00 | 58.025326 | 9.081146 | 2.0 | 17.186 | 2 | 41.935 | 17.359 | 32.136 | 2 |
| 2025-09-10T04:28:00 | 58.026126 | 9.085694 | 2.0 | 17.183 | 2 | 41.896 | 17.348 | 32.112 | 2 |
| 2025-09-10T04:29:00 | 58.025579 | 9.090460 | 2.0 | 17.181 | 2 | 41.876 | 17.345 | 32.097 | 2 |
| 2025-09-10T04:30:00 | 58.024358 | 9.094902 | 2.0 | 17.187 | 2 | 41.866 | 17.344 | 32.089 | 2 |
| 2025-09-10T04:31:00 | 58.023130 | 9.099380 | 2.0 | 17.192 | 2 | 41.874 | 17.349 | 32.092 | 2 |
| 2025-09-10T04:32:00 | 58.021895 | 9.103840 | 2.0 | 17.206 | 2 | 41.892 | 17.355 | 32.103 | 2 |
| 2025-09-10T04:33:00 | 58.020630 | 9.108278 | 2.0 | 17.225 | 2 | 41.848 | 17.370 | 32.053 | 2 |
| 2025-09-10T04:34:00 | 58.019389 | 9.112734 | 2.0 | 17.235 | 2 | 41.937 | 17.387 | 32.116 | 2 |
| 2025-09-10T04:35:00 | 58.018109 | 9.117169 | 2.0 | 17.245 | 2 | 41.934 | 17.398 | 32.105 | 2 |
| 2025-09-10T04:36:00 | 58.016839 | 9.121612 | 2.0 | 17.255 | 2 | 41.948 | 17.408 | 32.109 | 2 |
| 2025-09-10T04:37:00 | 58.015589 | 9.126074 | 2.0 | 17.257 | 2 | 41.960 | 17.416 | 32.113 | 2 |
| 2025-09-10T04:38:00 | 58.014327 | 9.130526 | 2.0 | 17.251 | 2 | 41.941 | 17.418 | 32.095 | 2 |
| 2025-09-10T04:39:00 | 58.013059 | 9.134967 | 2.0 | 17.229 | 2 | 41.974 | 17.410 | 32.129 | 2 |
| 2025-09-10T04:40:00 | 58.011807 | 9.139417 | 2.0 | 17.201 | 2 | 41.999 | 17.386 | 32.170 | 2 |
| 2025-09-10T04:41:00 | 58.010562 | 9.143863 | 2.0 | 17.174 | 2 | 42.016 | 17.360 | 32.205 | 2 |
| 2025-09-10T04:42:00 | 58.009309 | 9.148319 | 2.0 | 17.150 | 2 | 42.028 | 17.335 | 32.235 | 2 |
| 2025-09-10T04:43:00 | 58.008041 | 9.152792 | 2.0 | 17.120 | 2 | 42.034 | 17.308 | 32.262 | 2 |
| 2025-09-10T04:44:00 | 58.006798 | 9.157297 | 2.0 | 17.129 | 2 | 42.042 | 17.288 | 32.285 | 2 |
| 2025-09-10T04:45:00 | 58.005538 | 9.161774 | 2.0 | 17.121 | 2 | 42.059 | 17.293 | 32.295 | 2 |
| 2025-09-10T04:46:00 | 58.004272 | 9.166237 | 2.0 | 17.091 | 2 | 42.064 | 17.279 | 32.311 | 2 |
| 2025-09-10T04:47:00 | 58.002978 | 9.170680 | 2.0 | 17.075 | 2 | 42.051 | 17.254 | 32.319 | 2 |
| 2025-09-10T04:48:00 | 58.001725 | 9.175185 | 2.0 | 17.093 | 2 | 42.052 | 17.241 | 32.331 | 2 |
| 2025-09-10T04:49:00 | 58.000476 | 9.179707 | 2.0 | 17.103 | 2 | 42.086 | 17.258 | 32.346 | 2 |
| 2025-09-10T04:50:00 | 57.999206 | 9.184197 | 2.0 | 17.098 | 2 | 42.101 | 17.265 | 32.354 | 2 |
| 2025-09-10T04:51:00 | 57.997972 | 9.188660 | 2.0 | 17.105 | 2 | 42.099 | 17.261 | 32.355 | 2 |
| 2025-09-10T04:52:00 | 57.996713 | 9.193141 | 2.0 | 17.115 | 2 | 42.108 | 17.269 | 32.356 | 2 |
| 2025-09-10T04:53:00 | 57.995428 | 9.197580 | 2.0 | 17.123 | 2 | 42.116 | 17.278 | 32.356 | 2 |
| 2025-09-10T04:54:00 | 57.994171 | 9.202073 | 2.0 | 17.122 | 2 | 42.122 | 17.286 | 32.355 | 2 |
| 2025-09-10T04:55:00 | 57.992921 | 9.206580 | 2.0 | 17.117 | 2 | 42.115 | 17.284 | 32.350 | 2 |
| 2025-09-10T04:56:00 | 57.991658 | 9.211067 | 2.0 | 17.100 | 2 | 42.106 | 17.278 | 32.347 | 2 |
| 2025-09-10T04:57:00 | 57.990389 | 9.215569 | 2.0 | 17.054 | 2 | 42.086 | 17.260 | 32.345 | 2 |
| 2025-09-10T04:58:00 | 57.989139 | 9.220094 | 2.0 | 17.045 | 2 | 42.055 | 17.219 | 32.351 | 2 |
| 2025-09-10T04:59:00 | 57.987829 | 9.224609 | 2.0 | 17.026 | 2 | 42.060 | 17.206 | 32.366 | 2 |
| 2025-09-10T05:00:00 | 57.986525 | 9.229173 | 2.0 | 16.991 | 2 | 42.069 | 17.187 | 32.389 | 2 |
| 2025-09-10T05:01:00 | 57.985266 | 9.233772 | 2.0 | 16.962 | 2 | 42.062 | 17.153 | 32.410 | 2 |
| 2025-09-10T05:02:00 | 57.983964 | 9.238328 | 2.0 | 16.942 | 2 | 42.048 | 17.124 | 32.421 | 2 |
| 2025-09-10T05:03:00 | 57.982641 | 9.242886 | 2.0 | 16.934 | 2 | 42.035 | 17.106 | 32.424 | 2 |
| 2025-09-10T05:04:00 | 57.981354 | 9.247469 | 2.0 | 16.922 | 2 | 42.032 | 17.096 | 32.430 | 2 |
| 2025-09-10T05:05:00 | 57.980077 | 9.252076 | 2.0 | 16.909 | 2 | 42.029 | 17.084 | 32.437 | 2 |
| 2025-09-10T05:06:00 | 57.978777 | 9.256657 | 2.0 | 16.897 | 2 | 42.027 | 17.071 | 32.446 | 2 |
| 2025-09-10T05:07:00 | 57.977471 | 9.261230 | 2.0 | 16.888 | 2 | 42.023 | 17.060 | 32.451 | 2 |
| 2025-09-10T05:08:00 | 57.976188 | 9.265798 | 2.0 | 16.887 | 2 | 42.015 | 17.052 | 32.451 | 2 |
| 2025-09-10T05:09:00 | 57.974893 | 9.270388 | 2.0 | 16.894 | 2 | 42.016 | 17.053 | 32.451 | 2 |
| 2025-09-10T05:10:00 | 57.973612 | 9.274983 | 2.0 | 16.893 | 2 | 42.029 | 17.056 | 32.459 | 2 |
| 2025-09-10T05:11:00 | 57.972332 | 9.279607 | 2.0 | 16.900 | 2 | 42.023 | 17.058 | 32.453 | 2 |
| 2025-09-10T05:12:00 | 57.971048 | 9.284168 | 2.0 | 16.916 | 2 | 42.006 | 17.066 | 32.431 | 2 |
| 2025-09-10T05:13:00 | 57.969738 | 9.288723 | 2.0 | 16.933 | 2 | 42.005 | 17.083 | 32.417 | 2 |
| 2025-09-10T05:14:00 | 57.968415 | 9.293292 | 2.0 | 16.936 | 2 | 42.007 | 17.097 | 32.407 | 2 |
| 2025-09-10T05:15:00 | 57.967133 | 9.297906 | 2.0 | 16.888 | 2 | 42.001 | 17.095 | 32.404 | 2 |
| 2025-09-10T05:16:00 | 57.965870 | 9.302549 | 2.0 | 16.757 | 2 | 42.018 | 17.025 | 32.475 | 2 |
| 2025-09-10T05:17:00 | 57.964565 | 9.307130 | 2.0 | 16.665 | 2 | 42.078 | 16.920 | 32.612 | 2 |
| 2025-09-10T05:18:00 | 57.963281 | 9.311707 | 2.0 | 16.619 | 2 | 42.232 | 16.828 | 32.820 | 2 |
| 2025-09-10T05:19:00 | 57.961998 | 9.316276 | 2.0 | 16.600 | 2 | 42.332 | 16.786 | 32.941 | 2 |
| 2025-09-10T05:20:00 | 57.960707 | 9.320818 | 2.0 | 16.585 | 2 | 42.356 | 16.767 | 32.978 | 2 |
| 2025-09-10T05:21:00 | 57.959403 | 9.325301 | 2.0 | 16.579 | 2 | 42.375 | 16.751 | 33.007 | 2 |
| 2025-09-10T05:22:00 | 57.958151 | 9.329800 | 2.0 | 16.598 | 2 | 42.446 | 16.748 | 33.072 | 2 |
| 2025-09-10T05:23:00 | 57.956917 | 9.334317 | 2.0 | 16.645 | 2 | 42.548 | 16.771 | 33.141 | 2 |
| 2025-09-10T05:24:00 | 57.955650 | 9.338842 | 2.0 | 16.647 | 2 | 42.622 | 16.809 | 33.174 | 2 |
| 2025-09-10T05:25:00 | 57.954334 | 9.343349 | 2.0 | 16.649 | 2 | 42.633 | 16.812 | 33.182 | 2 |
| 2025-09-10T05:26:00 | 57.953141 | 9.347943 | 2.0 | 16.653 | 2 | 42.636 | 16.816 | 33.181 | 2 |
| 2025-09-10T05:27:00 | 57.953119 | 9.352946 | 2.0 | 16.599 | 2 | 42.617 | 16.807 | 33.172 | 2 |
| 2025-09-10T05:28:00 | 57.954953 | 9.356518 | 2.0 | 16.599 | 2 | 42.552 | 16.770 | 33.146 | 2 |
| 2025-09-10T05:29:00 | 57.957530 | 9.356405 | 2.0 | 16.602 | 2 | 42.459 | 16.766 | 33.068 | 2 |
| 2025-09-10T05:30:00 | 57.958947 | 9.352616 | 2.0 | 16.603 | 2 | 42.386 | 16.767 | 33.004 | 2 |
| 2025-09-10T05:31:00 | 57.959737 | 9.347822 | 2.0 | 16.606 | 2 | 42.380 | 16.769 | 32.997 | 2 |
| 2025-09-10T05:32:00 | 57.960788 | 9.342982 | 2.0 | 16.612 | 2 | 42.392 | 16.772 | 33.005 | 2 |
| 2025-09-10T05:33:00 | 57.961525 | 9.338093 | 2.0 | 16.603 | 2 | 42.368 | 16.776 | 32.981 | 2 |
| 2025-09-10T05:34:00 | 57.963736 | 9.335121 | 2.0 | 16.607 | 2 | 42.341 | 16.769 | 32.963 | 2 |
| 2025-09-10T05:35:00 | 57.965841 | 9.331625 | 2.0 | 16.610 | 2 | 42.298 | 16.773 | 32.922 | 2 |
| 2025-09-10T05:36:00 | 57.967846 | 9.327849 | 2.0 | 16.627 | 2 | 42.281 | 16.779 | 32.903 | 2 |
| 2025-09-10T05:37:00 | 57.969483 | 9.323610 | 2.0 | 16.642 | 2 | 42.269 | 16.795 | 32.879 | 2 |
| 2025-09-10T05:38:00 | 57.970858 | 9.319066 | 2.0 | 16.666 | 2 | 42.248 | 16.809 | 32.849 | 2 |
| 2025-09-10T05:39:00 | 57.971573 | 9.314187 | 2.0 | 16.719 | 2 | 42.226 | 16.842 | 32.803 | 2 |
| 2025-09-10T05:40:00 | 57.971116 | 9.309295 | 2.0 | 16.833 | 2 | 42.096 | 16.898 | 32.645 | 2 |
| 2025-09-10T05:41:00 | 57.969764 | 9.305039 | 2.0 | 16.904 | 2 | 42.000 | 17.001 | 32.479 | 2 |
| 2025-09-10T05:42:00 | 57.967780 | 9.301769 | 2.0 | 16.927 | 2 | 41.987 | 17.066 | 32.415 | 2 |
| 2025-09-10T05:43:00 | 57.965404 | 9.299528 | 2.0 | 16.921 | 2 | 41.997 | 17.084 | 32.409 | 2 |
| 2025-09-10T05:44:00 | 57.962775 | 9.299115 | 2.0 | 16.911 | 2 | 42.004 | 17.081 | 32.418 | 2 |
| 2025-09-10T05:45:00 | 57.960244 | 9.300511 | 2.0 | 16.880 | 2 | 42.006 | 17.069 | 32.429 | 2 |
| 2025-09-10T05:46:00 | 57.958110 | 9.303454 | 2.0 | 16.756 | 2 | 42.030 | 17.018 | 32.491 | 2 |
| 2025-09-10T05:47:00 | 57.956397 | 9.307324 | 2.0 | 16.691 | 2 | 42.080 | 16.919 | 32.614 | 2 |
| 2025-09-10T05:48:00 | 57.955602 | 9.312167 | 2.0 | 16.609 | 2 | 42.211 | 16.846 | 32.787 | 2 |
| 2025-09-10T05:49:00 | 57.955698 | 9.317423 | 2.0 | 16.594 | 2 | 42.386 | 16.779 | 32.994 | 2 |
| 2025-09-10T05:50:00 | 57.956678 | 9.322361 | 2.0 | 16.588 | 2 | 42.449 | 16.762 | 33.063 | 2 |
| 2025-09-10T05:51:00 | 57.958622 | 9.326176 | 2.0 | 16.593 | 2 | 42.480 | 16.756 | 33.095 | 2 |
| 2025-09-10T05:52:00 | 57.961245 | 9.328090 | 2.0 | 16.588 | 2 | 42.515 | 16.759 | 33.123 | 2 |
| 2025-09-10T05:53:00 | 57.964079 | 9.328827 | 2.0 | 16.593 | 2 | 42.151 | 16.754 | 32.810 | 2 |
| 2025-09-10T05:54:00 | 57.966885 | 9.328066 | 2.0 | 16.611 | 2 | 42.307 | 16.762 | 32.939 | 2 |
| 2025-09-10T05:55:00 | 57.969129 | 9.325144 | 2.0 | 16.628 | 2 | 42.187 | 16.779 | 32.821 | 2 |
| 2025-09-10T05:56:00 | 57.970471 | 9.320738 | 2.0 | 16.685 | 2 | 42.104 | 16.797 | 32.734 | 2 |
| 2025-09-10T05:57:00 | 57.971141 | 9.315817 | 2.0 | 16.786 | 2 | 41.993 | 16.864 | 32.583 | 2 |
| 2025-09-10T05:58:00 | 57.971047 | 9.310777 | 2.0 | 16.896 | 2 | 42.015 | 16.967 | 32.519 | 2 |
| 2025-09-10T05:59:00 | 57.970131 | 9.306063 | 2.0 | 16.925 | 2 | 41.985 | 17.056 | 32.421 | 2 |
| 2025-09-10T06:00:00 | 57.968663 | 9.301827 | 2.0 | 16.914 | 2 | 41.789 | 17.082 | 32.232 | 2 |
| 2025-09-10T06:01:00 | 57.967863 | 9.297090 | 2.0 | 16.896 | 2 | 41.999 | 17.072 | 32.421 | 2 |
| 2025-09-10T06:02:00 | 57.968367 | 9.292126 | 2.0 | 16.877 | 2 | 42.006 | 17.056 | 32.440 | 2 |
| 2025-09-10T06:03:00 | 57.969508 | 9.287449 | 2.0 | 16.863 | 2 | 42.011 | 17.039 | 32.458 | 2 |
| 2025-09-10T06:04:00 | 57.970966 | 9.283042 | 2.0 | 16.855 | 2 | 42.017 | 17.025 | 32.474 | 2 |
| 2025-09-10T06:05:00 | 57.972204 | 9.278438 | 2.0 | 16.853 | 2 | 42.021 | 17.020 | 32.481 | 2 |
| 2025-09-10T06:06:00 | 57.973439 | 9.273838 | 2.0 | 16.835 | 2 | 41.862 | 17.014 | 32.349 | 2 |
| 2025-09-10T06:07:00 | 57.974680 | 9.269254 | 2.0 | 16.819 | 2 | 42.004 | 16.996 | 32.486 | 2 |
| 2025-09-10T06:08:00 | 57.975961 | 9.264655 | 2.0 | 16.803 | 2 | 41.752 | 16.983 | 32.279 | 2 |
| 2025-09-10T06:09:00 | 57.977246 | 9.260048 | 2.0 | 16.794 | 2 | 41.977 | 16.966 | 32.487 | 2 |
| 2025-09-10T06:10:00 | 57.978480 | 9.255407 | 2.0 | 16.777 | 2 | 41.969 | 16.957 | 32.487 | 2 |
| 2025-09-10T06:11:00 | 57.979753 | 9.250803 | 2.0 | 16.745 | 2 | 41.790 | 16.937 | 32.349 | 2 |
| 2025-09-10T06:12:00 | 57.980977 | 9.246180 | 2.0 | 16.778 | 2 | 41.825 | 16.913 | 32.398 | 2 |
| 2025-09-10T06:13:00 | 57.982045 | 9.241416 | 2.0 | 16.827 | 2 | 41.951 | 16.949 | 32.478 | 2 |
| 2025-09-10T06:14:00 | 57.983101 | 9.236599 | 2.0 | 16.844 | 2 | 41.898 | 16.992 | 32.398 | 2 |
| 2025-09-10T06:15:00 | 57.984190 | 9.231857 | 2.0 | 16.857 | 2 | 41.823 | 17.009 | 32.319 | 2 |
| 2025-09-10T06:16:00 | 57.985240 | 9.227285 | 2.0 | 16.868 | 2 | 41.833 | 17.023 | 32.317 | 2 |
| 2025-09-10T06:17:00 | 57.986007 | 9.223554 | 2.0 | 16.873 | 2 | 41.792 | 17.032 | 32.274 | 2 |
| 2025-09-10T06:18:00 | 57.986736 | 9.220685 | 2.0 | 16.873 | 2 | 41.808 | 17.034 | 32.287 | 2 |
| 2025-09-10T06:19:00 | 57.987565 | 9.219754 | 2.0 | 16.872 | 2 | 41.905 | 17.034 | 32.370 | 2 |
| 2025-09-10T06:20:00 | 57.988012 | 9.219991 | 2.0 | 16.870 | 2 | 41.908 | 17.032 | 32.374 | 2 |
| 2025-09-10T06:21:00 | 57.988258 | 9.220394 | 2.0 | 16.871 | 2 | 41.841 | 17.031 | 32.317 | 2 |
| 2025-09-10T06:22:00 | 57.988130 | 9.220836 | 2.0 | 16.870 | 2 | 41.882 | 17.033 | 32.351 | 2 |
| 2025-09-10T06:23:00 | 57.987961 | 9.221251 | 2.0 | 16.869 | 2 | 41.847 | 17.032 | 32.322 | 2 |
| 2025-09-10T06:24:00 | 57.987797 | 9.221555 | 2.0 | 16.870 | 2 | 41.865 | 17.031 | 32.338 | 2 |
| 2025-09-10T06:25:00 | 57.987606 | 9.221824 | 2.0 | 16.871 | 2 | 41.882 | 17.031 | 32.353 | 2 |
| 2025-09-10T06:26:00 | 57.987417 | 9.222572 | 2.0 | 16.872 | 2 | 41.875 | 17.032 | 32.346 | 2 |
| 2025-09-10T06:27:00 | 57.987192 | 9.223551 | 2.0 | 16.872 | 2 | 41.879 | 17.034 | 32.348 | 2 |
| 2025-09-10T06:28:00 | 57.986949 | 9.224548 | 2.0 | 16.873 | 2 | 41.873 | 17.034 | 32.343 | 2 |
| 2025-09-10T06:29:00 | 57.986703 | 9.225331 | 2.0 | 16.874 | 2 | 41.894 | 17.035 | 32.360 | 2 |
| 2025-09-10T06:30:00 | 57.986494 | 9.226004 | 2.0 | 16.875 | 2 | 41.896 | 17.035 | 32.362 | 2 |
| 2025-09-10T06:31:00 | 57.986292 | 9.226646 | 2.0 | 16.875 | 2 | 41.917 | 17.036 | 32.379 | 2 |
| 2025-09-10T06:32:00 | 57.986094 | 9.227237 | 2.0 | 16.876 | 2 | 41.912 | 17.036 | 32.375 | 2 |
| 2025-09-10T06:33:00 | 57.985869 | 9.227806 | 2.0 | 16.876 | 2 | 41.928 | 17.037 | 32.388 | 2 |
| 2025-09-10T06:34:00 | 57.985644 | 9.228515 | 2.0 | 16.875 | 2 | 41.930 | 17.037 | 32.389 | 2 |
| 2025-09-10T06:35:00 | 57.985410 | 9.229342 | 2.0 | 16.871 | 2 | 41.927 | 17.036 | 32.388 | 2 |
| 2025-09-10T06:36:00 | 57.985172 | 9.230276 | 2.0 | 16.871 | 2 | 41.948 | 17.033 | 32.408 | 2 |
| 2025-09-10T06:37:00 | 57.984910 | 9.231274 | 2.0 | 16.868 | 2 | 41.947 | 17.032 | 32.408 | 2 |
| 2025-09-10T06:38:00 | 57.984636 | 9.232272 | 2.0 | 16.867 | 2 | 41.946 | 17.030 | 32.409 | 2 |
| 2025-09-10T06:39:00 | 57.984377 | 9.233321 | 2.0 | 16.867 | 2 | 41.962 | 17.028 | 32.424 | 2 |
| 2025-09-10T06:40:00 | 57.984100 | 9.234394 | 2.0 | 16.869 | 2 | 41.978 | 17.028 | 32.438 | 2 |
| 2025-09-10T06:41:00 | 57.983817 | 9.235357 | 2.0 | 16.865 | 2 | 41.991 | 17.030 | 32.448 | 2 |
| 2025-09-10T06:42:00 | 57.983562 | 9.236345 | 2.0 | 16.860 | 2 | 41.988 | 17.025 | 32.449 | 2 |
| 2025-09-10T06:43:00 | 57.983296 | 9.237332 | 2.0 | 16.860 | 2 | 41.979 | 17.021 | 32.444 | 2 |
| 2025-09-10T06:44:00 | 57.983021 | 9.238430 | 2.0 | 16.857 | 2 | 41.982 | 17.020 | 32.448 | 2 |
| 2025-09-10T06:45:00 | 57.982729 | 9.239596 | 2.0 | 16.844 | 2 | 41.992 | 17.017 | 32.459 | 2 |
| 2025-09-10T06:46:00 | 57.982445 | 9.240747 | 2.0 | 16.830 | 2 | 41.979 | 17.003 | 32.459 | 2 |
| 2025-09-10T06:47:00 | 57.982160 | 9.241859 | 2.0 | 16.828 | 2 | 41.969 | 16.992 | 32.459 | 2 |
| 2025-09-10T06:48:00 | 57.981893 | 9.242915 | 2.0 | 16.828 | 2 | 41.971 | 16.990 | 32.463 | 2 |
| 2025-09-10T06:49:00 | 57.981614 | 9.244036 | 2.0 | 16.818 | 2 | 41.973 | 16.988 | 32.466 | 2 |
| 2025-09-10T06:50:00 | 57.981330 | 9.245113 | 2.0 | 16.813 | 2 | 41.966 | 16.979 | 32.467 | 2 |
| 2025-09-10T06:51:00 | 57.981052 | 9.246191 | 2.0 | 16.808 | 2 | 41.964 | 16.975 | 32.469 | 2 |
| 2025-09-10T06:52:00 | 57.980781 | 9.247272 | 2.0 | 16.803 | 2 | 41.961 | 16.970 | 32.470 | 2 |
| 2025-09-10T06:53:00 | 57.980512 | 9.248403 | 2.0 | 16.800 | 2 | 41.958 | 16.965 | 32.471 | 2 |
| 2025-09-10T06:54:00 | 57.980242 | 9.249545 | 2.0 | 16.796 | 2 | 41.956 | 16.961 | 32.473 | 2 |
| 2025-09-10T06:55:00 | 57.979957 | 9.250725 | 2.0 | 16.794 | 2 | 41.956 | 16.958 | 32.475 | 2 |
| 2025-09-10T06:56:00 | 57.979664 | 9.251976 | 2.0 | 16.791 | 2 | 41.956 | 16.955 | 32.478 | 2 |
| 2025-09-10T06:57:00 | 57.979339 | 9.253133 | 2.0 | 16.787 | 2 | 41.955 | 16.952 | 32.479 | 2 |
| 2025-09-10T06:58:00 | 57.979016 | 9.254263 | 2.0 | 16.781 | 2 | 41.953 | 16.947 | 32.482 | 2 |
| 2025-09-10T06:59:00 | 57.978695 | 9.255405 | 2.0 | 16.773 | 2 | 41.951 | 16.942 | 32.484 | 2 |
| 2025-09-10T07:00:00 | 57.978369 | 9.256574 | 2.0 | 16.763 | 2 | 41.948 | 16.933 | 32.489 | 2 |
| 2025-09-10T07:01:00 | 57.978037 | 9.257772 | 2.0 | 16.748 | 2 | 41.943 | 16.922 | 32.493 | 2 |
| 2025-09-10T07:02:00 | 57.977714 | 9.258952 | 2.0 | 16.739 | 2 | 41.935 | 16.909 | 32.497 | 2 |
| 2025-09-10T07:03:00 | 57.977392 | 9.260073 | 2.0 | 16.738 | 2 | 41.930 | 16.902 | 32.498 | 2 |
| 2025-09-10T07:04:00 | 57.977078 | 9.261210 | 2.0 | 16.742 | 2 | 41.932 | 16.902 | 32.500 | 2 |
| 2025-09-10T07:05:00 | 57.976757 | 9.262304 | 2.0 | 16.743 | 2 | 41.933 | 16.904 | 32.499 | 2 |
| 2025-09-10T07:06:00 | 57.976446 | 9.263319 | 2.0 | 16.743 | 2 | 41.935 | 16.905 | 32.500 | 2 |
| 2025-09-10T07:07:00 | 57.976135 | 9.264294 | 2.0 | 16.744 | 2 | 41.939 | 16.905 | 32.503 | 2 |
| 2025-09-10T07:08:00 | 57.975832 | 9.265232 | 2.0 | 16.740 | 2 | 41.940 | 16.905 | 32.504 | 2 |
| 2025-09-10T07:09:00 | 57.975542 | 9.266143 | 2.0 | 16.732 | 2 | 41.940 | 16.901 | 32.508 | 2 |
| 2025-09-10T07:10:00 | 57.975266 | 9.267112 | 2.0 | 16.728 | 2 | 41.937 | 16.895 | 32.510 | 2 |
| 2025-09-10T07:11:00 | 57.974981 | 9.268092 | 2.0 | 16.721 | 2 | 41.938 | 16.889 | 32.516 | 2 |
| 2025-09-10T07:12:00 | 57.974680 | 9.269121 | 2.0 | 16.722 | 2 | 41.940 | 16.884 | 32.521 | 2 |
| 2025-09-10T07:13:00 | 57.974372 | 9.270179 | 2.0 | 16.724 | 2 | 41.946 | 16.886 | 32.525 | 2 |
| 2025-09-10T07:14:00 | 57.974065 | 9.271255 | 2.0 | 16.727 | 2 | 41.908 | 16.888 | 32.490 | 2 |
| 2025-09-10T07:15:00 | 57.973750 | 9.272297 | 2.0 | 16.728 | 2 | 41.908 | 16.889 | 32.490 | 2 |
| 2025-09-10T07:16:00 | 57.973425 | 9.273312 | 2.0 | 16.728 | 2 | 41.940 | 16.890 | 32.516 | 2 |
| 2025-09-10T07:17:00 | 57.973123 | 9.274308 | 2.0 | 16.729 | 2 | 41.929 | 16.891 | 32.506 | 2 |
| 2025-09-10T07:18:00 | 57.972834 | 9.275325 | 2.0 | 16.728 | 2 | 41.924 | 16.891 | 32.502 | 2 |
| 2025-09-10T07:19:00 | 57.972526 | 9.276385 | 2.0 | 16.727 | 2 | 41.940 | 16.890 | 32.516 | 2 |
| 2025-09-10T07:20:00 | 57.972195 | 9.277414 | 2.0 | 16.732 | 2 | 41.956 | 16.890 | 32.530 | 2 |
| 2025-09-10T07:21:00 | 57.971865 | 9.278476 | 2.0 | 16.743 | 2 | 41.970 | 16.897 | 32.537 | 2 |
| 2025-09-10T07:22:00 | 57.971538 | 9.279534 | 2.0 | 16.747 | 2 | 41.982 | 16.906 | 32.540 | 2 |
| 2025-09-10T07:23:00 | 57.971218 | 9.280584 | 2.0 | 16.747 | 2 | 41.987 | 16.909 | 32.542 | 2 |
| 2025-09-10T07:24:00 | 57.970897 | 9.281599 | 2.0 | 16.750 | 2 | 41.975 | 16.910 | 32.531 | 2 |
| 2025-09-10T07:25:00 | 57.970581 | 9.282611 | 2.0 | 16.753 | 2 | 41.977 | 16.912 | 32.531 | 2 |
| 2025-09-10T07:26:00 | 57.970270 | 9.283657 | 2.0 | 16.755 | 2 | 41.973 | 16.915 | 32.525 | 2 |
| 2025-09-10T07:27:00 | 57.969947 | 9.284681 | 2.0 | 16.758 | 2 | 41.974 | 16.917 | 32.524 | 2 |
| 2025-09-10T07:28:00 | 57.969620 | 9.285709 | 2.0 | 16.758 | 2 | 41.972 | 16.919 | 32.521 | 2 |
| 2025-09-10T07:29:00 | 57.969310 | 9.286746 | 2.0 | 16.760 | 2 | 41.974 | 16.920 | 32.522 | 2 |
| 2025-09-10T07:30:00 | 57.968993 | 9.287808 | 2.0 | 16.758 | 2 | 41.973 | 16.921 | 32.520 | 2 |
| 2025-09-10T07:31:00 | 57.968675 | 9.288844 | 2.0 | 16.765 | 2 | 41.971 | 16.920 | 32.519 | 2 |
| 2025-09-10T07:32:00 | 57.968361 | 9.289830 | 2.0 | 16.773 | 2 | 41.971 | 16.927 | 32.513 | 2 |
| 2025-09-10T07:33:00 | 57.968057 | 9.290865 | 2.0 | 16.773 | 2 | 41.973 | 16.933 | 32.510 | 2 |
| 2025-09-10T07:34:00 | 57.967780 | 9.291930 | 2.0 | 16.774 | 2 | 41.975 | 16.934 | 32.511 | 2 |
| 2025-09-10T07:35:00 | 57.967493 | 9.293025 | 2.0 | 16.780 | 2 | 41.978 | 16.938 | 32.511 | 2 |
| 2025-09-10T07:36:00 | 57.967242 | 9.294148 | 2.0 | 16.788 | 2 | 41.980 | 16.941 | 32.510 | 2 |
| 2025-09-10T07:37:00 | 57.966992 | 9.295319 | 2.0 | 16.803 | 2 | 41.982 | 16.951 | 32.503 | 2 |
| 2025-09-10T07:38:00 | 57.966749 | 9.296496 | 2.0 | 16.812 | 2 | 41.987 | 16.965 | 32.496 | 2 |
| 2025-09-10T07:39:00 | 57.966491 | 9.297709 | 2.0 | 16.818 | 2 | 41.990 | 16.973 | 32.493 | 2 |
| 2025-09-10T07:40:00 | 57.966219 | 9.298925 | 2.0 | 16.828 | 2 | 41.994 | 16.981 | 32.490 | 2 |
| 2025-09-10T07:41:00 | 57.965959 | 9.300128 | 2.0 | 16.835 | 2 | 41.998 | 16.990 | 32.486 | 2 |
| 2025-09-10T07:42:00 | 57.965717 | 9.301357 | 2.0 | 16.837 | 2 | 42.002 | 16.996 | 32.484 | 2 |
| 2025-09-10T07:43:00 | 57.965455 | 9.302614 | 2.0 | 16.842 | 2 | 42.005 | 17.000 | 32.484 | 2 |
| 2025-09-10T07:44:00 | 57.965196 | 9.303845 | 2.0 | 16.852 | 2 | 42.008 | 17.006 | 32.482 | 2 |
| 2025-09-10T07:45:00 | 57.964930 | 9.305061 | 2.0 | 16.860 | 2 | 42.012 | 17.015 | 32.478 | 2 |
| 2025-09-10T07:46:00 | 57.964680 | 9.306341 | 2.0 | 16.864 | 2 | 42.010 | 17.021 | 32.471 | 2 |
| 2025-09-10T07:47:00 | 57.964411 | 9.307567 | 2.0 | 16.865 | 2 | 42.013 | 17.026 | 32.470 | 2 |
| 2025-09-10T07:48:00 | 57.964143 | 9.308778 | 2.0 | 16.865 | 2 | 42.012 | 17.026 | 32.469 | 2 |
| 2025-09-10T07:49:00 | 57.963905 | 9.309943 | 2.0 | 16.869 | 2 | 42.013 | 17.027 | 32.469 | 2 |
| 2025-09-10T07:50:00 | 57.963652 | 9.311095 | 2.0 | 16.872 | 2 | 42.013 | 17.030 | 32.467 | 2 |
| 2025-09-10T07:51:00 | 57.963404 | 9.312283 | 2.0 | 16.873 | 2 | 42.013 | 17.032 | 32.465 | 2 |
| 2025-09-10T07:52:00 | 57.963145 | 9.313495 | 2.0 | 16.875 | 2 | 42.012 | 17.034 | 32.462 | 2 |
| 2025-09-10T07:53:00 | 57.962878 | 9.314621 | 2.0 | 16.878 | 2 | 42.012 | 17.035 | 32.462 | 2 |
| 2025-09-10T07:54:00 | 57.962621 | 9.315765 | 2.0 | 16.880 | 2 | 42.013 | 17.039 | 32.459 | 2 |
| 2025-09-10T07:55:00 | 57.962354 | 9.316948 | 2.0 | 16.880 | 2 | 42.012 | 17.040 | 32.458 | 2 |
| 2025-09-10T07:56:00 | 57.962074 | 9.318076 | 2.0 | 16.884 | 2 | 42.012 | 17.042 | 32.456 | 2 |
| 2025-09-10T07:57:00 | 57.961808 | 9.319208 | 2.0 | 16.887 | 2 | 42.015 | 17.044 | 32.457 | 2 |
| 2025-09-10T07:58:00 | 57.961547 | 9.320331 | 2.0 | 16.886 | 2 | 42.017 | 17.047 | 32.456 | 2 |
| 2025-09-10T07:59:00 | 57.961266 | 9.321460 | 2.0 | 16.886 | 2 | 42.018 | 17.046 | 32.458 | 2 |
| 2025-09-10T08:00:00 | 57.960982 | 9.322566 | 2.0 | 16.888 | 2 | 42.020 | 17.047 | 32.459 | 2 |
| 2025-09-10T08:01:00 | 57.960714 | 9.323688 | 2.0 | 16.881 | 2 | 42.023 | 17.047 | 32.461 | 2 |
| 2025-09-10T08:02:00 | 57.960437 | 9.324828 | 2.0 | 16.870 | 2 | 42.028 | 17.040 | 32.471 | 2 |
| 2025-09-10T08:03:00 | 57.960139 | 9.325973 | 2.0 | 16.845 | 2 | 42.030 | 17.028 | 32.483 | 2 |
| 2025-09-10T08:04:00 | 57.959868 | 9.327121 | 2.0 | 16.814 | 2 | 42.035 | 17.002 | 32.508 | 2 |
| 2025-09-10T08:05:00 | 57.959570 | 9.328254 | 2.0 | 16.790 | 2 | 42.035 | 16.973 | 32.532 | 2 |
| 2025-09-10T08:06:00 | 57.959302 | 9.329426 | 2.0 | 16.768 | 2 | 42.043 | 16.949 | 32.558 | 2 |
| 2025-09-10T08:07:00 | 57.959029 | 9.330569 | 2.0 | 16.749 | 2 | 42.047 | 16.927 | 32.579 | 2 |
| 2025-09-10T08:08:00 | 57.958765 | 9.331771 | 2.0 | 16.739 | 2 | 42.053 | 16.912 | 32.596 | 2 |
| 2025-09-10T08:09:00 | 57.958485 | 9.332945 | 2.0 | 16.714 | 2 | 42.056 | 16.897 | 32.611 | 2 |
| 2025-09-10T08:10:00 | 57.958207 | 9.334063 | 2.0 | 16.704 | 2 | 42.058 | 16.875 | 32.631 | 2 |
| 2025-09-10T08:11:00 | 57.957923 | 9.335195 | 2.0 | 16.698 | 2 | 42.076 | 16.866 | 32.654 | 2 |
| 2025-09-10T08:12:00 | 57.957657 | 9.336331 | 2.0 | 16.677 | 2 | 42.112 | 16.856 | 32.693 | 2 |
| 2025-09-10T08:13:00 | 57.957368 | 9.337469 | 2.0 | 16.677 | 2 | 42.126 | 16.840 | 32.718 | 2 |
| 2025-09-10T08:14:00 | 57.957082 | 9.338599 | 2.0 | 16.665 | 2 | 42.166 | 16.838 | 32.755 | 2 |
| 2025-09-10T08:15:00 | 57.956807 | 9.339693 | 2.0 | 16.637 | 2 | 42.209 | 16.822 | 32.805 | 2 |
| 2025-09-10T08:16:00 | 57.956514 | 9.340780 | 2.0 | 16.654 | 2 | 42.231 | 16.806 | 32.837 | 2 |
| 2025-09-10T08:17:00 | 57.956190 | 9.341887 | 2.0 | 16.657 | 2 | 42.280 | 16.819 | 32.869 | 2 |
| 2025-09-10T08:18:00 | 57.955870 | 9.342989 | 2.0 | 16.638 | 2 | 42.344 | 16.816 | 32.927 | 2 |
| 2025-09-10T08:19:00 | 57.955555 | 9.344107 | 2.0 | 16.622 | 2 | 42.433 | 16.798 | 33.019 | 2 |
| 2025-09-10T08:20:00 | 57.955249 | 9.345224 | 2.0 | 16.618 | 2 | 42.505 | 16.783 | 33.094 | 2 |
| 2025-09-10T08:21:00 | 57.954968 | 9.346301 | 2.0 | 16.621 | 2 | 42.543 | 16.782 | 33.128 | 2 |
| 2025-09-10T08:22:00 | 57.954689 | 9.347325 | 2.0 | 16.622 | 2 | 42.568 | 16.783 | 33.149 | 2 |
| 2025-09-10T08:23:00 | 57.954405 | 9.348357 | 2.0 | 16.619 | 2 | 42.594 | 16.784 | 33.171 | 2 |
| 2025-09-10T08:24:00 | 57.954130 | 9.349385 | 2.0 | 16.614 | 2 | 42.617 | 16.781 | 33.193 | 2 |
| 2025-09-10T08:25:00 | 57.953852 | 9.350431 | 2.0 | 16.609 | 2 | 42.636 | 16.777 | 33.213 | 2 |
| 2025-09-10T08:26:00 | 57.953592 | 9.351463 | 2.0 | 16.605 | 2 | 42.650 | 16.772 | 33.229 | 2 |
| 2025-09-10T08:27:00 | 57.953328 | 9.352503 | 2.0 | 16.598 | 2 | 42.661 | 16.767 | 33.243 | 2 |
| 2025-09-10T08:28:00 | 57.953053 | 9.353536 | 2.0 | 16.604 | 2 | 42.673 | 16.761 | 33.259 | 2 |
| 2025-09-10T08:29:00 | 57.952791 | 9.354646 | 2.0 | 16.620 | 2 | 42.710 | 16.773 | 33.281 | 2 |
| 2025-09-10T08:30:00 | 57.952542 | 9.355751 | 2.0 | 16.621 | 2 | 42.728 | 16.783 | 33.288 | 2 |
| 2025-09-10T08:31:00 | 57.952269 | 9.356775 | 2.0 | 16.621 | 2 | 42.724 | 16.783 | 33.285 | 2 |
| 2025-09-10T08:32:00 | 57.952032 | 9.357785 | 2.0 | 16.623 | 2 | 42.728 | 16.785 | 33.287 | 2 |
| 2025-09-10T08:33:00 | 57.951788 | 9.358846 | 2.0 | 16.624 | 2 | 42.730 | 16.786 | 33.287 | 2 |
| 2025-09-10T08:34:00 | 57.951551 | 9.359986 | 2.0 | 16.623 | 2 | 42.732 | 16.786 | 33.289 | 2 |
| 2025-09-10T08:35:00 | 57.951313 | 9.361131 | 2.0 | 16.623 | 2 | 42.732 | 16.785 | 33.290 | 2 |
| 2025-09-10T08:36:00 | 57.951076 | 9.362261 | 2.0 | 16.624 | 2 | 42.733 | 16.785 | 33.291 | 2 |
| 2025-09-10T08:37:00 | 57.950827 | 9.363368 | 2.0 | 16.623 | 2 | 42.734 | 16.786 | 33.291 | 2 |
| 2025-09-10T08:38:00 | 57.950598 | 9.364451 | 2.0 | 16.626 | 2 | 42.735 | 16.785 | 33.293 | 2 |
| 2025-09-10T08:39:00 | 57.950389 | 9.365539 | 2.0 | 16.625 | 2 | 42.737 | 16.788 | 33.292 | 2 |
| 2025-09-10T08:40:00 | 57.950141 | 9.366540 | 2.0 | 16.624 | 2 | 42.735 | 16.786 | 33.292 | 2 |
| 2025-09-10T08:41:00 | 57.949945 | 9.367530 | 2.0 | 16.622 | 2 | 42.734 | 16.785 | 33.292 | 2 |
| 2025-09-10T08:42:00 | 57.949729 | 9.368446 | 2.0 | 16.622 | 2 | 42.733 | 16.785 | 33.291 | 2 |
| 2025-09-10T08:43:00 | 57.949513 | 9.369312 | 2.0 | 16.624 | 2 | 42.731 | 16.784 | 33.290 | 2 |
| 2025-09-10T08:44:00 | 57.949316 | 9.370185 | 2.0 | 16.626 | 2 | 42.729 | 16.787 | 33.286 | 2 |
| 2025-09-10T08:45:00 | 57.949117 | 9.371036 | 2.0 | 16.625 | 2 | 42.724 | 16.787 | 33.281 | 2 |
| 2025-09-10T08:46:00 | 57.948937 | 9.371910 | 2.0 | 16.627 | 2 | 42.722 | 16.787 | 33.280 | 2 |
| 2025-09-10T08:47:00 | 57.948765 | 9.372778 | 2.0 | 16.628 | 2 | 42.721 | 16.788 | 33.278 | 2 |
| 2025-09-10T08:48:00 | 57.948601 | 9.373520 | 2.0 | 16.634 | 2 | 42.721 | 16.792 | 33.275 | 2 |
| 2025-09-10T08:49:00 | 57.948450 | 9.374012 | 2.0 | 16.634 | 2 | 42.722 | 16.795 | 33.273 | 2 |
| 2025-09-10T08:50:00 | 57.948318 | 9.374318 | 2.0 | 16.634 | 2 | 42.720 | 16.794 | 33.272 | 2 |
| 2025-09-10T08:51:00 | 57.948204 | 9.374455 | 2.0 | 16.634 | 2 | 42.715 | 16.795 | 33.267 | 2 |
| 2025-09-10T08:52:00 | 57.948107 | 9.374468 | 2.0 | 16.644 | 2 | 42.718 | 16.796 | 33.269 | 2 |
| 2025-09-10T08:53:00 | 57.947844 | 9.374311 | 2.0 | 16.651 | 2 | 42.722 | 16.807 | 33.263 | 2 |
| 2025-09-10T08:54:00 | 57.947913 | 9.373566 | 2.0 | 16.650 | 2 | 42.720 | 16.812 | 33.257 | 2 |
| 2025-09-10T08:55:00 | 57.948431 | 9.372316 | 2.0 | 16.652 | 2 | 42.722 | 16.813 | 33.258 | 2 |
| 2025-09-10T08:56:00 | 57.948836 | 9.370162 | 2.0 | 16.659 | 2 | 42.725 | 16.816 | 33.258 | 2 |
| 2025-09-10T08:57:00 | 57.949407 | 9.367519 | 2.0 | 16.663 | 2 | 42.731 | 16.823 | 33.258 | 2 |
| 2025-09-10T08:58:00 | 57.950119 | 9.364641 | 2.0 | 16.647 | 2 | 42.720 | 16.823 | 33.248 | 2 |
| 2025-09-10T08:59:00 | 57.950886 | 9.361620 | 2.0 | 16.647 | 2 | 42.517 | 16.812 | 33.081 | 2 |
| 2025-09-10T09:00:00 | 57.951667 | 9.358504 | 2.0 | 16.647 | 2 | 42.429 | 16.811 | 33.005 | 2 |
| 2025-09-10T09:01:00 | 57.952452 | 9.355346 | 2.0 | 16.644 | 2 | 42.436 | 16.810 | 33.012 | 2 |
| 2025-09-10T09:02:00 | 57.953227 | 9.352163 | 2.0 | 16.642 | 2 | 42.473 | 16.807 | 33.047 | 2 |
| 2025-09-10T09:03:00 | 57.953966 | 9.348963 | 2.0 | 16.658 | 2 | 42.507 | 16.806 | 33.077 | 2 |
| 2025-09-10T09:04:00 | 57.954622 | 9.345757 | 2.0 | 16.701 | 2 | 42.387 | 16.832 | 32.951 | 2 |
| 2025-09-10T09:05:00 | 57.955703 | 9.343154 | 2.0 | 16.722 | 2 | 42.193 | 16.865 | 32.756 | 2 |
| 2025-09-10T09:06:00 | 57.957275 | 9.342580 | 2.0 | 16.736 | 2 | 42.089 | 16.884 | 32.650 | 2 |
| 2025-09-10T09:07:00 | 57.958858 | 9.344495 | 2.0 | 16.746 | 2 | 42.057 | 16.899 | 32.610 | 2 |
| 2025-09-10T09:08:00 | 57.959390 | 9.348557 | 2.0 | 16.717 | 2 | 42.055 | 16.903 | 32.605 | 2 |
| 2025-09-10T09:09:00 | 57.959236 | 9.353432 | 2.0 | 16.674 | 2 | 42.089 | 16.877 | 32.656 | 2 |
| 2025-09-10T09:10:00 | 57.959321 | 9.358557 | 2.0 | 16.664 | 2 | 42.163 | 16.838 | 32.752 | 2 |
| 2025-09-10T09:11:00 | 57.959186 | 9.363694 | 2.0 | 16.645 | 2 | 42.358 | 16.825 | 32.932 | 2 |
| 2025-09-10T09:12:00 | 57.958394 | 9.368583 | 2.0 | 16.631 | 2 | 42.536 | 16.810 | 33.099 | 2 |
| 2025-09-10T09:13:00 | 57.956949 | 9.372823 | 2.0 | 16.606 | 2 | 42.654 | 16.793 | 33.216 | 2 |
| 2025-09-10T09:14:00 | 57.954938 | 9.376042 | 2.0 | 16.637 | 2 | 42.712 | 16.780 | 33.277 | 2 |
| 2025-09-10T09:15:00 | 57.952506 | 9.377900 | 2.0 | 16.640 | 2 | 42.740 | 16.800 | 33.285 | 2 |
| 2025-09-10T09:16:00 | 57.949891 | 9.378064 | 2.0 | 16.668 | 2 | 42.739 | 16.811 | 33.275 | 2 |
| 2025-09-10T09:17:00 | 57.947406 | 9.376658 | 2.0 | 16.685 | 2 | 42.489 | 16.832 | 33.040 | 2 |
| 2025-09-10T09:18:00 | 57.945314 | 9.373765 | 2.0 | 16.710 | 2 | 42.223 | 16.855 | 32.790 | 2 |
| 2025-09-10T09:19:00 | 57.943723 | 9.369865 | 2.0 | 16.700 | 2 | 42.197 | 16.871 | 32.755 | 2 |
| 2025-09-10T09:20:00 | 57.942892 | 9.365160 | 2.0 | 16.689 | 2 | 42.328 | 16.860 | 32.877 | 2 |
| 2025-09-10T09:21:00 | 57.942850 | 9.360126 | 2.0 | 16.701 | 2 | 42.536 | 16.854 | 33.063 | 2 |
| 2025-09-10T09:22:00 | 57.943767 | 9.355343 | 2.0 | 16.704 | 2 | 42.636 | 16.866 | 33.140 | 2 |
| 2025-09-10T09:23:00 | 57.945473 | 9.351253 | 2.0 | 16.684 | 2 | 42.661 | 16.865 | 33.162 | 2 |
| 2025-09-10T09:24:00 | 57.947825 | 9.348479 | 2.0 | 16.676 | 2 | 42.688 | 16.847 | 33.200 | 2 |
| 2025-09-10T09:25:00 | 57.950556 | 9.347331 | 2.0 | 16.697 | 2 | 42.662 | 16.840 | 33.184 | 2 |
| 2025-09-10T09:26:00 | 57.953275 | 9.347997 | 2.0 | 16.720 | 2 | 42.336 | 16.866 | 32.879 | 2 |
| 2025-09-10T09:27:00 | 57.955733 | 9.350301 | 2.0 | 16.729 | 2 | 42.181 | 16.884 | 32.730 | 2 |
| 2025-09-10T09:28:00 | 57.957659 | 9.354005 | 2.0 | 16.716 | 2 | 42.119 | 16.891 | 32.671 | 2 |
| 2025-09-10T09:29:00 | 57.959163 | 9.358308 | 2.0 | 16.689 | 2 | 42.116 | 16.877 | 32.679 | 2 |
| 2025-09-10T09:30:00 | 57.959168 | 9.363269 | 2.0 | 16.671 | 2 | 42.169 | 16.850 | 32.747 | 2 |
| 2025-09-10T09:31:00 | 57.958169 | 9.367952 | 2.0 | 16.642 | 2 | 42.384 | 16.833 | 32.948 | 2 |
| 2025-09-10T09:32:00 | 57.956736 | 9.372170 | 2.0 | 16.638 | 2 | 42.643 | 16.806 | 33.195 | 2 |
| 2025-09-10T09:33:00 | 57.954816 | 9.375499 | 2.0 | 16.665 | 2 | 42.745 | 16.807 | 33.283 | 2 |
| 2025-09-10T09:34:00 | 57.952479 | 9.377515 | 2.0 | 16.685 | 2 | 42.586 | 16.835 | 33.122 | 2 |
| 2025-09-10T09:35:00 | 57.949925 | 9.377861 | 2.0 | 16.714 | 2 | 42.330 | 16.853 | 32.885 | 2 |
| 2025-09-10T09:36:00 | 57.947410 | 9.376765 | 2.0 | 16.716 | 2 | 42.244 | 16.879 | 32.789 | 2 |
| 2025-09-10T09:37:00 | 57.945350 | 9.373915 | 2.0 | 16.699 | 2 | 42.298 | 16.878 | 32.836 | 2 |
| 2025-09-10T09:38:00 | 57.944475 | 9.369384 | 2.0 | 16.700 | 2 | 42.471 | 16.863 | 32.999 | 2 |
| 2025-09-10T09:39:00 | 57.944885 | 9.364480 | 2.0 | 16.712 | 2 | 42.628 | 16.868 | 33.131 | 2 |
| 2025-09-10T09:40:00 | 57.946366 | 9.360187 | 2.0 | 16.708 | 2 | 42.662 | 16.876 | 33.154 | 2 |
| 2025-09-10T09:41:00 | 57.947633 | 9.355627 | 2.0 | 16.682 | 2 | 42.664 | 16.868 | 33.162 | 2 |
| 2025-09-10T09:42:00 | 57.948912 | 9.351049 | 2.0 | 16.713 | 2 | 42.664 | 16.850 | 33.177 | 2 |
| 2025-09-10T09:43:00 | 57.950138 | 9.346447 | 2.0 | 16.742 | 2 | 42.310 | 16.881 | 32.844 | 2 |
| 2025-09-10T09:44:00 | 57.951487 | 9.341963 | 2.0 | 16.737 | 2 | 42.123 | 16.907 | 32.661 | 2 |
| 2025-09-10T09:45:00 | 57.952765 | 9.337864 | 2.0 | 16.725 | 2 | 42.104 | 16.900 | 32.650 | 2 |
| 2025-09-10T09:46:00 | 57.954492 | 9.335631 | 2.0 | 16.723 | 2 | 42.105 | 16.889 | 32.660 | 2 |
| 2025-09-10T09:47:00 | 57.956311 | 9.335080 | 2.0 | 16.724 | 2 | 42.099 | 16.888 | 32.656 | 2 |
| 2025-09-10T09:48:00 | 57.957644 | 9.335679 | 2.0 | 16.726 | 2 | 42.085 | 16.887 | 32.644 | 2 |
| 2025-09-10T09:49:00 | 57.958073 | 9.336772 | 2.0 | 16.728 | 2 | 42.072 | 16.889 | 32.632 | 2 |
| 2025-09-10T09:50:00 | 57.958070 | 9.337291 | 2.0 | 16.729 | 2 | 42.070 | 16.891 | 32.628 | 2 |
| 2025-09-10T09:51:00 | 57.957914 | 9.337423 | 2.0 | 16.731 | 2 | 42.070 | 16.890 | 32.629 | 2 |
| 2025-09-10T09:52:00 | 57.957711 | 9.337501 | 2.0 | 16.729 | 2 | 42.071 | 16.892 | 32.628 | 2 |
| 2025-09-10T09:53:00 | 57.957482 | 9.337743 | 2.0 | 16.726 | 2 | 42.074 | 16.889 | 32.633 | 2 |
| 2025-09-10T09:54:00 | 57.957352 | 9.338215 | 2.0 | 16.731 | 2 | 42.076 | 16.888 | 32.636 | 2 |
| 2025-09-10T09:55:00 | 57.957270 | 9.338919 | 2.0 | 16.731 | 2 | 42.078 | 16.893 | 32.634 | 2 |
| 2025-09-10T09:56:00 | 57.957122 | 9.339749 | 2.0 | 16.737 | 2 | 42.079 | 16.894 | 32.634 | 2 |
| 2025-09-10T09:57:00 | 57.956911 | 9.340528 | 2.0 | 16.731 | 2 | 42.079 | 16.897 | 32.631 | 2 |
| 2025-09-10T09:58:00 | 57.956689 | 9.341239 | 2.0 | 16.736 | 2 | 42.080 | 16.895 | 32.634 | 2 |
| 2025-09-10T09:59:00 | 57.956474 | 9.342150 | 2.0 | 16.735 | 2 | 42.080 | 16.896 | 32.633 | 2 |
| 2025-09-10T10:00:00 | 57.956238 | 9.343174 | 2.0 | 16.735 | 2 | 42.080 | 16.897 | 32.632 | 2 |
| 2025-09-10T10:01:00 | 57.955996 | 9.344175 | 2.0 | 16.737 | 2 | 42.079 | 16.897 | 32.631 | 2 |
| 2025-09-10T10:02:00 | 57.955754 | 9.345232 | 2.0 | 16.735 | 2 | 42.079 | 16.899 | 32.630 | 2 |
| 2025-09-10T10:03:00 | 57.955509 | 9.346323 | 2.0 | 16.740 | 2 | 42.078 | 16.898 | 32.629 | 2 |
| 2025-09-10T10:04:00 | 57.955257 | 9.347386 | 2.0 | 16.742 | 2 | 42.078 | 16.900 | 32.628 | 2 |
| 2025-09-10T10:05:00 | 57.955011 | 9.348493 | 2.0 | 16.746 | 2 | 42.079 | 16.905 | 32.625 | 2 |
| 2025-09-10T10:06:00 | 57.954751 | 9.349570 | 2.0 | 16.745 | 2 | 42.080 | 16.906 | 32.625 | 2 |
| 2025-09-10T10:07:00 | 57.954485 | 9.350595 | 2.0 | 16.749 | 2 | 42.081 | 16.907 | 32.625 | 2 |
| 2025-09-10T10:08:00 | 57.954226 | 9.351583 | 2.0 | 16.753 | 2 | 42.085 | 16.912 | 32.624 | 2 |
| 2025-09-10T10:09:00 | 57.953956 | 9.352574 | 2.0 | 16.756 | 2 | 42.088 | 16.915 | 32.624 | 2 |
| 2025-09-10T10:10:00 | 57.953668 | 9.353612 | 2.0 | 16.754 | 2 | 42.088 | 16.916 | 32.624 | 2 |
| 2025-09-10T10:11:00 | 57.953380 | 9.354687 | 2.0 | 16.755 | 2 | 42.090 | 16.916 | 32.625 | 2 |
| 2025-09-10T10:12:00 | 57.953096 | 9.355791 | 2.0 | 16.758 | 2 | 42.094 | 16.917 | 32.628 | 2 |
| 2025-09-10T10:13:00 | 57.952813 | 9.356923 | 2.0 | 16.751 | 2 | 42.101 | 16.918 | 32.633 | 2 |
| 2025-09-10T10:14:00 | 57.952522 | 9.357999 | 2.0 | 16.745 | 2 | 42.110 | 16.912 | 32.646 | 2 |
| 2025-09-10T10:15:00 | 57.952234 | 9.359040 | 2.0 | 16.746 | 2 | 42.135 | 16.907 | 32.671 | 2 |
| 2025-09-10T10:16:00 | 57.951938 | 9.360107 | 2.0 | 16.741 | 2 | 42.184 | 16.905 | 32.716 | 2 |
| 2025-09-10T10:17:00 | 57.951512 | 9.360977 | 2.0 | 16.735 | 2 | 42.230 | 16.903 | 32.757 | 2 |
| 2025-09-10T10:18:00 | 57.950901 | 9.361454 | 2.0 | 16.731 | 2 | 42.244 | 16.894 | 32.776 | 2 |
| 2025-09-10T10:19:00 | 57.950295 | 9.361922 | 2.0 | 16.739 | 2 | 42.187 | 16.894 | 32.727 | 2 |
| 2025-09-10T10:20:00 | 57.949664 | 9.362288 | 2.0 | 16.744 | 2 | 42.164 | 16.901 | 32.701 | 2 |
| 2025-09-10T10:21:00 | 57.949020 | 9.362541 | 2.0 | 16.747 | 2 | 42.161 | 16.906 | 32.695 | 2 |
| 2025-09-10T10:22:00 | 57.948375 | 9.362503 | 2.0 | 16.746 | 2 | 42.169 | 16.907 | 32.701 | 2 |
| 2025-09-10T10:23:00 | 57.947778 | 9.362111 | 2.0 | 16.747 | 2 | 42.175 | 16.907 | 32.706 | 2 |
| 2025-09-10T10:24:00 | 57.947449 | 9.361216 | 2.0 | 16.750 | 2 | 42.169 | 16.910 | 32.699 | 2 |
| 2025-09-10T10:25:00 | 57.947608 | 9.360194 | 2.0 | 16.751 | 2 | 42.158 | 16.911 | 32.688 | 2 |
| 2025-09-10T10:26:00 | 57.947917 | 9.358803 | 2.0 | 16.744 | 2 | 42.145 | 16.910 | 32.678 | 2 |
| 2025-09-10T10:27:00 | 57.948283 | 9.357177 | 2.0 | 16.741 | 2 | 42.142 | 16.908 | 32.677 | 2 |
| 2025-09-10T10:28:00 | 57.948668 | 9.355550 | 2.0 | 16.774 | 2 | 42.141 | 16.904 | 32.679 | 2 |
| 2025-09-10T10:29:00 | 57.949072 | 9.353996 | 2.0 | 16.846 | 2 | 42.059 | 16.949 | 32.572 | 2 |
| 2025-09-10T10:30:00 | 57.949456 | 9.352502 | 2.0 | 16.886 | 2 | 42.046 | 17.010 | 32.511 | 2 |
| 2025-09-10T10:31:00 | 57.949847 | 9.351037 | 2.0 | 16.904 | 2 | 42.046 | 17.046 | 32.482 | 2 |
| 2025-09-10T10:32:00 | 57.950232 | 9.349566 | 2.0 | 16.927 | 2 | 42.046 | 17.067 | 32.465 | 2 |
| 2025-09-10T10:33:00 | 57.950786 | 9.348458 | 2.0 | 16.941 | 2 | 42.051 | 17.088 | 32.453 | 2 |
| 2025-09-10T10:34:00 | 57.951502 | 9.348269 | 2.0 | 16.946 | 2 | 42.060 | 17.099 | 32.451 | 2 |
| 2025-09-10T10:35:00 | 57.952202 | 9.348555 | 2.0 | 16.949 | 2 | 42.064 | 17.105 | 32.450 | 2 |
| 2025-09-10T10:36:00 | 57.952801 | 9.349059 | 2.0 | 16.949 | 2 | 42.067 | 17.108 | 32.450 | 2 |
| 2025-09-10T10:37:00 | 57.953280 | 9.349643 | 2.0 | 16.945 | 2 | 42.068 | 17.107 | 32.452 | 2 |
| 2025-09-10T10:38:00 | 57.953640 | 9.350302 | 2.0 | 16.943 | 2 | 42.066 | 17.104 | 32.453 | 2 |
| 2025-09-10T10:39:00 | 57.953682 | 9.351013 | 2.0 | 16.940 | 2 | 42.065 | 17.102 | 32.453 | 2 |
| 2025-09-10T10:40:00 | 57.953452 | 9.351833 | 2.0 | 16.933 | 2 | 42.064 | 17.099 | 32.455 | 2 |
| 2025-09-10T10:41:00 | 57.953254 | 9.352780 | 2.0 | 16.927 | 2 | 42.062 | 17.093 | 32.458 | 2 |
| 2025-09-10T10:42:00 | 57.953074 | 9.353593 | 2.0 | 16.925 | 2 | 42.061 | 17.088 | 32.461 | 2 |
| 2025-09-10T10:43:00 | 57.952908 | 9.354344 | 2.0 | 16.922 | 2 | 42.061 | 17.084 | 32.464 | 2 |
| 2025-09-10T10:44:00 | 57.952728 | 9.355186 | 2.0 | 16.918 | 2 | 42.060 | 17.081 | 32.466 | 2 |
| 2025-09-10T10:45:00 | 57.952523 | 9.356159 | 2.0 | 16.911 | 2 | 42.060 | 17.078 | 32.468 | 2 |
| 2025-09-10T10:46:00 | 57.952301 | 9.357181 | 2.0 | 16.907 | 2 | 42.060 | 17.072 | 32.473 | 2 |
| 2025-09-10T10:47:00 | 57.952075 | 9.358257 | 2.0 | 16.893 | 2 | 42.062 | 17.066 | 32.480 | 2 |
| 2025-09-10T10:48:00 | 57.951835 | 9.359342 | 2.0 | 16.885 | 2 | 42.060 | 17.055 | 32.487 | 2 |
| 2025-09-10T10:49:00 | 57.951604 | 9.360447 | 2.0 | 16.870 | 2 | 42.063 | 17.044 | 32.498 | 2 |
| 2025-09-10T10:50:00 | 57.951377 | 9.361565 | 2.0 | 16.854 | 2 | 42.064 | 17.029 | 32.511 | 2 |
| 2025-09-10T10:51:00 | 57.951153 | 9.362654 | 2.0 | 16.843 | 2 | 42.064 | 17.013 | 32.524 | 2 |
| 2025-09-10T10:52:00 | 57.950909 | 9.363711 | 2.0 | 16.824 | 2 | 42.065 | 17.001 | 32.535 | 2 |
| 2025-09-10T10:53:00 | 57.950660 | 9.364776 | 2.0 | 16.803 | 2 | 42.065 | 16.983 | 32.549 | 2 |
| 2025-09-10T10:54:00 | 57.950422 | 9.365832 | 2.0 | 16.785 | 2 | 42.070 | 16.963 | 32.570 | 2 |
| 2025-09-10T10:55:00 | 57.950178 | 9.366897 | 2.0 | 16.762 | 2 | 42.108 | 16.941 | 32.621 | 2 |
| 2025-09-10T10:56:00 | 57.949914 | 9.367959 | 2.0 | 16.763 | 2 | 42.146 | 16.927 | 32.665 | 2 |
| 2025-09-10T10:57:00 | 57.949648 | 9.369026 | 2.0 | 16.762 | 2 | 42.144 | 16.924 | 32.665 | 2 |
| 2025-09-10T10:58:00 | 57.949394 | 9.370064 | 2.0 | 16.762 | 2 | 42.142 | 16.924 | 32.664 | 2 |
| 2025-09-10T10:59:00 | 57.949134 | 9.371070 | 2.0 | 16.763 | 2 | 42.144 | 16.926 | 32.664 | 2 |
| 2025-09-10T11:00:00 | 57.948881 | 9.372075 | 2.0 | 16.757 | 2 | 42.074 | 16.922 | 32.607 | 2 |
| 2025-09-10T11:01:00 | 57.948631 | 9.373118 | 2.0 | 16.760 | 2 | 42.109 | 16.920 | 32.638 | 2 |
| 2025-09-10T11:02:00 | 57.948375 | 9.374243 | 2.0 | 16.760 | 2 | 41.998 | 16.922 | 32.541 | 2 |
| 2025-09-10T11:03:00 | 57.948104 | 9.375355 | 2.0 | 16.756 | 2 | 42.072 | 16.920 | 32.606 | 2 |
| 2025-09-10T11:04:00 | 57.947840 | 9.376492 | 2.0 | 16.758 | 2 | 42.014 | 16.918 | 32.558 | 2 |
| 2025-09-10T11:05:00 | 57.947572 | 9.377619 | 2.0 | 16.759 | 2 | 42.117 | 16.919 | 32.646 | 2 |
| 2025-09-10T11:06:00 | 57.947285 | 9.378655 | 2.0 | 16.759 | 2 | 42.054 | 16.921 | 32.590 | 2 |
| 2025-09-10T11:07:00 | 57.947036 | 9.379649 | 2.0 | 16.760 | 2 | 42.063 | 16.921 | 32.598 | 2 |
| 2025-09-10T11:08:00 | 57.946801 | 9.380626 | 2.0 | 16.753 | 2 | 42.105 | 16.920 | 32.635 | 2 |
| 2025-09-10T11:09:00 | 57.946562 | 9.381531 | 2.0 | 16.742 | 2 | 42.041 | 16.913 | 32.585 | 2 |
| 2025-09-10T11:10:00 | 57.946330 | 9.382434 | 2.0 | 16.753 | 2 | 41.982 | 16.909 | 32.537 | 2 |
| 2025-09-10T11:11:00 | 57.946097 | 9.383428 | 2.0 | 16.751 | 2 | 42.103 | 16.914 | 32.638 | 2 |
| 2025-09-10T11:12:00 | 57.945855 | 9.384481 | 2.0 | 16.750 | 2 | 42.020 | 16.913 | 32.567 | 2 |
| 2025-09-10T11:13:00 | 57.945630 | 9.385587 | 2.0 | 16.750 | 2 | 42.005 | 16.912 | 32.555 | 2 |
| 2025-09-10T11:14:00 | 57.945392 | 9.386783 | 2.0 | 16.754 | 2 | 42.113 | 16.913 | 32.648 | 2 |
| 2025-09-10T11:15:00 | 57.945148 | 9.387782 | 2.0 | 16.755 | 2 | 42.153 | 16.916 | 32.680 | 2 |
| 2025-09-10T11:16:00 | 57.944930 | 9.388644 | 2.0 | 16.761 | 2 | 42.126 | 16.918 | 32.655 | 2 |
| 2025-09-10T11:17:00 | 57.944717 | 9.389496 | 2.0 | 16.762 | 2 | 42.137 | 16.922 | 32.661 | 2 |
| 2025-09-10T11:18:00 | 57.944532 | 9.390183 | 2.0 | 16.758 | 2 | 42.153 | 16.922 | 32.675 | 2 |
| 2025-09-10T11:19:00 | 57.944380 | 9.390723 | 2.0 | 16.778 | 2 | 42.162 | 16.920 | 32.684 | 2 |
| 2025-09-10T11:20:00 | 57.944249 | 9.390969 | 2.0 | 16.841 | 2 | 42.116 | 16.955 | 32.616 | 2 |
| 2025-09-10T11:21:00 | 57.944079 | 9.391292 | 2.0 | 16.848 | 2 | 42.069 | 17.001 | 32.538 | 2 |
| 2025-09-10T11:22:00 | 57.943993 | 9.391661 | 2.0 | 16.854 | 2 | 42.049 | 17.010 | 32.514 | 2 |
| 2025-09-10T11:23:00 | 57.943997 | 9.391911 | 2.0 | 16.843 | 2 | 42.061 | 17.011 | 32.523 | 2 |
| 2025-09-10T11:24:00 | 57.944060 | 9.392001 | 2.0 | 16.841 | 2 | 42.079 | 17.003 | 32.545 | 2 |
| 2025-09-10T11:25:00 | 57.944213 | 9.392195 | 2.0 | 16.836 | 2 | 42.091 | 16.999 | 32.559 | 2 |
| 2025-09-10T11:26:00 | 57.944388 | 9.392455 | 2.0 | 16.843 | 2 | 42.086 | 16.998 | 32.555 | 2 |
| 2025-09-10T11:27:00 | 57.944530 | 9.392618 | 2.0 | 16.849 | 2 | 42.086 | 17.004 | 32.551 | 2 |
| 2025-09-10T11:28:00 | 57.944697 | 9.392846 | 2.0 | 16.844 | 2 | 42.086 | 17.010 | 32.546 | 2 |
| 2025-09-10T11:29:00 | 57.944846 | 9.393129 | 2.0 | 16.837 | 2 | 42.090 | 17.004 | 32.554 | 2 |
| 2025-09-10T11:30:00 | 57.944943 | 9.393453 | 2.0 | 16.846 | 2 | 42.104 | 16.997 | 32.572 | 2 |
| 2025-09-10T11:31:00 | 57.945024 | 9.393793 | 2.0 | 16.853 | 2 | 42.099 | 17.011 | 32.556 | 2 |
| 2025-09-10T11:32:00 | 57.945087 | 9.394072 | 2.0 | 16.818 | 2 | 42.101 | 17.010 | 32.559 | 2 |
| 2025-09-10T11:33:00 | 57.945114 | 9.394255 | 2.0 | 16.829 | 2 | 42.120 | 16.982 | 32.598 | 2 |
| 2025-09-10T11:34:00 | 57.945119 | 9.394365 | 2.0 | 16.832 | 2 | 42.110 | 16.993 | 32.580 | 2 |
| 2025-09-10T11:35:00 | 57.945168 | 9.394471 | 2.0 | 16.829 | 2 | 42.120 | 16.989 | 32.592 | 2 |
| 2025-09-10T11:36:00 | 57.945242 | 9.394617 | 2.0 | 16.834 | 2 | 42.108 | 16.992 | 32.579 | 2 |
| 2025-09-10T11:37:00 | 57.945342 | 9.394809 | 2.0 | 16.838 | 2 | 42.110 | 16.994 | 32.579 | 2 |
| 2025-09-10T11:38:00 | 57.945396 | 9.395002 | 2.0 | 16.845 | 2 | 42.104 | 17.001 | 32.568 | 2 |
| 2025-09-10T11:39:00 | 57.945416 | 9.395138 | 2.0 | 16.804 | 2 | 42.103 | 17.002 | 32.567 | 2 |
| 2025-09-10T11:40:00 | 57.945451 | 9.395227 | 2.0 | 16.816 | 2 | 42.085 | 16.967 | 32.580 | 2 |
| 2025-09-10T11:41:00 | 57.945535 | 9.395319 | 2.0 | 16.841 | 2 | 42.086 | 16.985 | 32.566 | 2 |
| 2025-09-10T11:42:00 | 57.945670 | 9.395387 | 2.0 | 16.819 | 2 | 42.075 | 16.992 | 32.551 | 2 |
| 2025-09-10T11:43:00 | 57.945800 | 9.395489 | 2.0 | 16.843 | 2 | 42.075 | 16.989 | 32.553 | 2 |
| 2025-09-10T11:44:00 | 57.945909 | 9.395525 | 2.0 | 16.852 | 2 | 42.084 | 17.008 | 32.546 | 2 |
| 2025-09-10T11:45:00 | 57.945999 | 9.395551 | 2.0 | 16.830 | 2 | 42.085 | 17.008 | 32.546 | 2 |
| 2025-09-10T11:46:00 | 57.946101 | 9.395642 | 2.0 | 16.807 | 2 | 42.084 | 16.988 | 32.562 | 2 |
| 2025-09-10T11:47:00 | 57.946214 | 9.395838 | 2.0 | 16.798 | 2 | 42.108 | 16.965 | 32.601 | 2 |
| 2025-09-10T11:48:00 | 57.946305 | 9.396079 | 2.0 | 16.820 | 2 | 42.122 | 16.965 | 32.613 | 2 |
| 2025-09-10T11:49:00 | 57.946397 | 9.396310 | 2.0 | 16.826 | 2 | 42.067 | 16.983 | 32.551 | 2 |
| 2025-09-10T11:50:00 | 57.946467 | 9.396458 | 2.0 | 16.845 | 2 | 42.092 | 16.992 | 32.565 | 2 |
| 2025-09-10T11:51:00 | 57.946571 | 9.396536 | 2.0 | 16.815 | 2 | 42.097 | 17.001 | 32.562 | 2 |
| 2025-09-10T11:52:00 | 57.946695 | 9.396621 | 2.0 | 16.812 | 2 | 42.099 | 16.976 | 32.584 | 2 |
| 2025-09-10T11:53:00 | 57.946808 | 9.396671 | 2.0 | 16.823 | 2 | 42.103 | 16.972 | 32.591 | 2 |
| 2025-09-10T11:54:00 | 57.946925 | 9.396688 | 2.0 | 16.810 | 2 | 42.095 | 16.986 | 32.573 | 2 |
| 2025-09-10T11:55:00 | 57.946995 | 9.396821 | 2.0 | 16.777 | 2 | 42.100 | 16.965 | 32.594 | 2 |
| 2025-09-10T11:56:00 | 57.946717 | 9.397008 | 2.0 | 16.839 | 2 | 42.105 | 16.951 | 32.610 | 2 |
| 2025-09-10T11:57:00 | 57.946170 | 9.397498 | 2.0 | 16.840 | 2 | 42.084 | 16.996 | 32.555 | 2 |
| 2025-09-10T11:58:00 | 57.945472 | 9.398441 | 2.0 | 16.834 | 2 | 42.083 | 16.998 | 32.553 | 2 |
| 2025-09-10T11:59:00 | 57.944633 | 9.399745 | 2.0 | 16.822 | 2 | 42.082 | 16.993 | 32.556 | 2 |
| 2025-09-10T12:00:00 | 57.943635 | 9.401381 | 2.0 | 16.816 | 2 | 42.080 | 16.982 | 32.563 | 2 |
| 2025-09-10T12:01:00 | 57.942573 | 9.403180 | 2.0 | 16.810 | 2 | 42.080 | 16.975 | 32.569 | 2 |
| 2025-09-10T12:02:00 | 57.941299 | 9.405310 | 2.0 | 16.808 | 2 | 42.076 | 16.972 | 32.568 | 2 |
| 2025-09-10T12:03:00 | 57.939758 | 9.407906 | 2.0 | 16.794 | 2 | 42.064 | 16.968 | 32.561 | 2 |
| 2025-09-10T12:04:00 | 57.938040 | 9.410701 | 2.0 | 16.759 | 2 | 42.055 | 16.950 | 32.567 | 2 |
| 2025-09-10T12:05:00 | 57.936104 | 9.413602 | 2.0 | 16.743 | 2 | 42.060 | 16.923 | 32.594 | 2 |
| 2025-09-10T12:06:00 | 57.934145 | 9.416685 | 2.0 | 16.735 | 2 | 42.057 | 16.906 | 32.605 | 2 |
| 2025-09-10T12:07:00 | 57.932184 | 9.419880 | 2.0 | 16.698 | 2 | 42.069 | 16.893 | 32.626 | 2 |
| 2025-09-10T12:08:00 | 57.930166 | 9.423018 | 2.0 | 16.707 | 2 | 42.078 | 16.865 | 32.656 | 2 |
| 2025-09-10T12:09:00 | 57.928152 | 9.426187 | 2.0 | 16.746 | 2 | 42.103 | 16.879 | 32.667 | 2 |
| 2025-09-10T12:10:00 | 57.926144 | 9.429374 | 2.0 | 16.748 | 2 | 42.166 | 16.909 | 32.697 | 2 |
| 2025-09-10T12:11:00 | 57.924115 | 9.432549 | 2.0 | 16.734 | 2 | 42.193 | 16.908 | 32.721 | 2 |
| 2025-09-10T12:12:00 | 57.922110 | 9.435765 | 2.0 | 16.731 | 2 | 42.212 | 16.897 | 32.746 | 2 |
| 2025-09-10T12:13:00 | 57.920095 | 9.438908 | 2.0 | 16.740 | 2 | 42.234 | 16.895 | 32.767 | 2 |
| 2025-09-10T12:14:00 | 57.918069 | 9.442059 | 2.0 | 16.741 | 2 | 42.272 | 16.907 | 32.790 | 2 |
| 2025-09-10T12:15:00 | 57.916094 | 9.445221 | 2.0 | 16.719 | 2 | 42.310 | 16.899 | 32.830 | 2 |
| 2025-09-10T12:16:00 | 57.914114 | 9.448377 | 2.0 | 16.650 | 2 | 42.326 | 16.876 | 32.862 | 2 |
| 2025-09-10T12:17:00 | 57.912096 | 9.451489 | 2.0 | 16.661 | 2 | 42.388 | 16.818 | 32.964 | 2 |
| 2025-09-10T12:18:00 | 57.910108 | 9.454543 | 2.0 | 16.684 | 2 | 42.494 | 16.834 | 33.043 | 2 |
| 2025-09-10T12:19:00 | 57.908149 | 9.457644 | 2.0 | 16.694 | 2 | 42.554 | 16.848 | 33.083 | 2 |
| 2025-09-10T12:20:00 | 57.906186 | 9.460786 | 2.0 | 16.707 | 2 | 42.570 | 16.860 | 33.087 | 2 |
| 2025-09-10T12:21:00 | 57.904190 | 9.463890 | 2.0 | 16.705 | 2 | 42.586 | 16.870 | 33.093 | 2 |
| 2025-09-10T12:22:00 | 57.902215 | 9.466928 | 2.0 | 16.703 | 2 | 42.591 | 16.868 | 33.099 | 2 |
| 2025-09-10T12:23:00 | 57.900441 | 9.469836 | 2.0 | 16.704 | 2 | 42.455 | 16.867 | 32.982 | 2 |
| 2025-09-10T12:24:00 | 57.898877 | 9.472458 | 2.0 | 16.702 | 2 | 42.359 | 16.868 | 32.897 | 2 |
| 2025-09-10T12:25:00 | 57.897576 | 9.474574 | 2.0 | 16.696 | 2 | 42.461 | 16.864 | 32.989 | 2 |
| 2025-09-10T12:26:00 | 57.896392 | 9.476322 | 2.0 | 16.682 | 2 | 42.576 | 16.858 | 33.094 | 2 |
| 2025-09-10T12:27:00 | 57.895275 | 9.477977 | 2.0 | 16.670 | 2 | 42.425 | 16.844 | 32.974 | 2 |
| 2025-09-10T12:28:00 | 57.894258 | 9.479833 | 2.0 | 16.668 | 2 | 42.577 | 16.833 | 33.115 | 2 |
| 2025-09-10T12:29:00 | 57.893493 | 9.482473 | 2.0 | 16.677 | 2 | 42.604 | 16.831 | 33.141 | 2 |
| 2025-09-10T12:30:00 | 57.893135 | 9.486460 | 2.0 | 16.681 | 2 | 42.628 | 16.840 | 33.154 | 2 |
| 2025-09-10T12:31:00 | 57.893819 | 9.491042 | 2.0 | 16.681 | 2 | 42.339 | 16.843 | 32.901 | 2 |
| 2025-09-10T12:32:00 | 57.895870 | 9.494224 | 2.0 | 16.674 | 2 | 42.667 | 16.843 | 33.185 | 2 |
| 2025-09-10T12:33:00 | 57.898551 | 9.494676 | 2.0 | 16.674 | 2 | 42.491 | 16.835 | 33.039 | 2 |
| 2025-09-10T12:34:00 | 57.901172 | 9.493032 | 2.0 | 16.690 | 2 | 42.480 | 16.842 | 33.024 | 2 |
| 2025-09-10T12:35:00 | 57.903845 | 9.491302 | 2.0 | 16.700 | 2 | 42.599 | 16.855 | 33.116 | 2 |
| 2025-09-10T12:36:00 | 57.906495 | 9.489419 | 2.0 | 16.699 | 2 | 42.556 | 16.865 | 33.071 | 2 |
| 2025-09-10T12:37:00 | 57.909104 | 9.487312 | 2.0 | 16.616 | 2 | 42.507 | 16.844 | 33.046 | 2 |
| 2025-09-10T12:38:00 | 57.911775 | 9.485465 | 2.0 | 16.635 | 2 | 42.439 | 16.793 | 33.028 | 2 |
| 2025-09-10T12:39:00 | 57.914436 | 9.483582 | 2.0 | 16.643 | 2 | 42.374 | 16.803 | 32.964 | 2 |
| 2025-09-10T12:40:00 | 57.917078 | 9.481624 | 2.0 | 16.655 | 2 | 42.372 | 16.812 | 32.955 | 2 |
| 2025-09-10T12:41:00 | 57.919695 | 9.479602 | 2.0 | 16.672 | 2 | 42.231 | 16.823 | 32.823 | 2 |
| 2025-09-10T12:42:00 | 57.922023 | 9.476711 | 2.0 | 16.680 | 2 | 42.193 | 16.839 | 32.777 | 2 |
| 2025-09-10T12:43:00 | 57.924103 | 9.473246 | 2.0 | 16.678 | 2 | 42.134 | 16.844 | 32.722 | 2 |
| 2025-09-10T12:44:00 | 57.925875 | 9.469300 | 2.0 | 16.685 | 2 | 42.168 | 16.846 | 32.750 | 2 |
| 2025-09-10T12:45:00 | 57.927210 | 9.464867 | 2.0 | 16.709 | 2 | 42.266 | 16.858 | 32.825 | 2 |
| 2025-09-10T12:46:00 | 57.928119 | 9.460126 | 2.0 | 16.654 | 2 | 42.155 | 16.865 | 32.723 | 2 |
| 2025-09-10T12:47:00 | 57.928541 | 9.455227 | 2.0 | 16.685 | 2 | 42.019 | 16.828 | 32.635 | 2 |
| 2025-09-10T12:48:00 | 57.928610 | 9.450261 | 2.0 | 16.723 | 2 | 42.042 | 16.855 | 32.633 | 2 |
| 2025-09-10T12:49:00 | 57.928351 | 9.445363 | 2.0 | 16.772 | 2 | 42.120 | 16.895 | 32.668 | 2 |
| 2025-09-10T12:50:00 | 57.927626 | 9.440683 | 2.0 | 16.765 | 2 | 42.131 | 16.931 | 32.649 | 2 |
| 2025-09-10T12:51:00 | 57.926505 | 9.436287 | 2.0 | 16.754 | 2 | 42.131 | 16.926 | 32.653 | 2 |
| 2025-09-10T12:52:00 | 57.925055 | 9.432255 | 2.0 | 16.744 | 2 | 42.178 | 16.914 | 32.703 | 2 |
| 2025-09-10T12:53:00 | 57.923334 | 9.428603 | 2.0 | 16.737 | 2 | 42.249 | 16.908 | 32.769 | 2 |
| 2025-09-10T12:54:00 | 57.921284 | 9.425614 | 2.0 | 16.723 | 2 | 42.318 | 16.899 | 32.837 | 2 |
| 2025-09-10T12:55:00 | 57.919008 | 9.423341 | 2.0 | 16.711 | 2 | 42.316 | 16.887 | 32.845 | 2 |
| 2025-09-10T12:56:00 | 57.916607 | 9.421602 | 2.0 | 16.712 | 2 | 42.360 | 16.873 | 32.894 | 2 |
| 2025-09-10T12:57:00 | 57.914124 | 9.420728 | 2.0 | 16.698 | 2 | 42.447 | 16.874 | 32.969 | 2 |
| 2025-09-10T12:58:00 | 57.911603 | 9.420615 | 2.0 | 16.684 | 2 | 42.475 | 16.862 | 33.003 | 2 |
| 2025-09-10T12:59:00 | 57.909098 | 9.421025 | 2.0 | 16.676 | 2 | 42.450 | 16.846 | 32.994 | 2 |
| 2025-09-10T13:00:00 | 57.906669 | 9.422214 | 2.0 | 16.673 | 2 | 42.544 | 16.841 | 33.080 | 2 |
| 2025-09-10T13:01:00 | 57.904382 | 9.424145 | 2.0 | 16.660 | 2 | 42.555 | 16.836 | 33.094 | 2 |
| 2025-09-10T13:02:00 | 57.902605 | 9.427366 | 2.0 | 16.655 | 2 | 42.568 | 16.824 | 33.115 | 2 |
| 2025-09-10T13:03:00 | 57.900893 | 9.430808 | 2.0 | 16.653 | 2 | 42.472 | 16.820 | 33.035 | 2 |
| 2025-09-10T13:04:00 | 57.899243 | 9.434433 | 2.0 | 16.654 | 2 | 42.534 | 16.818 | 33.090 | 2 |
| 2025-09-10T13:05:00 | 57.897875 | 9.438445 | 2.0 | 16.655 | 2 | 42.535 | 16.818 | 33.091 | 2 |
| 2025-09-10T13:06:00 | 57.896849 | 9.442827 | 2.0 | 16.652 | 2 | 42.521 | 16.817 | 33.080 | 2 |
| 2025-09-10T13:07:00 | 57.895628 | 9.447104 | 2.0 | 16.653 | 2 | 42.543 | 16.816 | 33.100 | 2 |
| 2025-09-10T13:08:00 | 57.894546 | 9.451523 | 2.0 | 16.643 | 2 | 42.533 | 16.816 | 33.091 | 2 |
| 2025-09-10T13:09:00 | 57.894166 | 9.456405 | 2.0 | 16.638 | 2 | 42.631 | 16.804 | 33.186 | 2 |
| 2025-09-10T13:10:00 | 57.894009 | 9.461431 | 2.0 | 16.648 | 2 | 42.660 | 16.805 | 33.211 | 2 |
| 2025-09-10T13:11:00 | 57.893850 | 9.466497 | 2.0 | 16.646 | 2 | 42.649 | 16.811 | 33.196 | 2 |
| 2025-09-10T13:12:00 | 57.893727 | 9.471613 | 2.0 | 16.660 | 2 | 42.665 | 16.813 | 33.209 | 2 |
| 2025-09-10T13:13:00 | 57.893565 | 9.476730 | 2.0 | 16.663 | 2 | 42.702 | 16.825 | 33.231 | 2 |
| 2025-09-10T13:14:00 | 57.893408 | 9.481863 | 2.0 | 16.657 | 2 | 42.721 | 16.827 | 33.246 | 2 |
| 2025-09-10T13:15:00 | 57.893271 | 9.486991 | 2.0 | 16.638 | 2 | 42.730 | 16.819 | 33.260 | 2 |
| 2025-09-10T13:16:00 | 57.892861 | 9.492024 | 2.0 | 16.602 | 2 | 42.750 | 16.799 | 33.294 | 2 |
| 2025-09-10T13:17:00 | 57.891252 | 9.495728 | 2.0 | 16.561 | 2 | 42.764 | 16.759 | 33.339 | 2 |
| 2025-09-10T13:18:00 | 57.888911 | 9.497187 | 2.0 | 16.573 | 2 | 42.785 | 16.730 | 33.382 | 2 |
| 2025-09-10T13:19:00 | 57.886476 | 9.496332 | 2.0 | 16.586 | 2 | 42.884 | 16.742 | 33.458 | 2 |
| 2025-09-10T13:20:00 | 57.884858 | 9.492872 | 2.0 | 16.588 | 2 | 42.956 | 16.751 | 33.514 | 2 |
| 2025-09-10T13:21:00 | 57.884963 | 9.488028 | 2.0 | 16.590 | 2 | 42.985 | 16.754 | 33.536 | 2 |
| 2025-09-10T13:22:00 | 57.886487 | 9.483868 | 2.0 | 16.600 | 2 | 42.975 | 16.758 | 33.524 | 2 |
| 2025-09-10T13:23:00 | 57.889100 | 9.482017 | 2.0 | 16.614 | 2 | 42.949 | 16.768 | 33.493 | 2 |
| 2025-09-10T13:24:00 | 57.891498 | 9.479353 | 2.0 | 16.578 | 2 | 42.893 | 16.779 | 33.435 | 2 |
| 2025-09-10T13:25:00 | 57.893756 | 9.476209 | 2.0 | 16.621 | 2 | 42.789 | 16.750 | 33.369 | 2 |
| 2025-09-10T13:26:00 | 57.896117 | 9.473225 | 2.0 | 16.657 | 2 | 42.744 | 16.791 | 33.295 | 2 |
| 2025-09-10T13:27:00 | 57.898400 | 9.469994 | 2.0 | 16.674 | 2 | 42.703 | 16.822 | 33.234 | 2 |
| 2025-09-10T13:28:00 | 57.900783 | 9.466965 | 2.0 | 16.688 | 2 | 42.652 | 16.838 | 33.177 | 2 |
| 2025-09-10T13:29:00 | 57.903120 | 9.463822 | 2.0 | 16.704 | 2 | 42.614 | 16.854 | 33.130 | 2 |
| 2025-09-10T13:30:00 | 57.905319 | 9.460392 | 2.0 | 16.711 | 2 | 42.605 | 16.869 | 33.110 | 2 |
| 2025-09-10T13:31:00 | 57.907513 | 9.456931 | 2.0 | 16.715 | 2 | 42.599 | 16.876 | 33.099 | 2 |
| 2025-09-10T13:32:00 | 57.909720 | 9.453477 | 2.0 | 16.711 | 2 | 42.589 | 16.878 | 33.089 | 2 |
| 2025-09-10T13:33:00 | 57.911941 | 9.450048 | 2.0 | 16.723 | 2 | 42.578 | 16.878 | 33.079 | 2 |
| 2025-09-10T13:34:00 | 57.914082 | 9.446501 | 2.0 | 16.721 | 2 | 42.578 | 16.885 | 33.074 | 2 |
| 2025-09-10T13:35:00 | 57.916357 | 9.443240 | 2.0 | 16.727 | 2 | 42.572 | 16.886 | 33.067 | 2 |
| 2025-09-10T13:36:00 | 57.918999 | 9.441212 | 2.0 | 16.717 | 2 | 42.560 | 16.890 | 33.054 | 2 |
| 2025-09-10T13:37:00 | 57.921862 | 9.441525 | 2.0 | 16.709 | 2 | 42.509 | 16.878 | 33.019 | 2 |
| 2025-09-10T13:38:00 | 57.924474 | 9.443683 | 2.0 | 16.726 | 2 | 42.439 | 16.878 | 32.959 | 2 |
| 2025-09-10T13:39:00 | 57.926471 | 9.447387 | 2.0 | 16.738 | 2 | 42.415 | 16.889 | 32.929 | 2 |
| 2025-09-10T13:40:00 | 57.927538 | 9.452144 | 2.0 | 16.752 | 2 | 42.404 | 16.905 | 32.906 | 2 |
| 2025-09-10T13:41:00 | 57.927603 | 9.457251 | 2.0 | 16.749 | 2 | 42.376 | 16.913 | 32.875 | 2 |
| 2025-09-10T13:42:00 | 57.926687 | 9.461978 | 2.0 | 16.741 | 2 | 42.349 | 16.912 | 32.853 | 2 |
| 2025-09-10T13:43:00 | 57.924992 | 9.465712 | 2.0 | 16.737 | 2 | 42.343 | 16.903 | 32.855 | 2 |
| 2025-09-10T13:44:00 | 57.922834 | 9.468342 | 2.0 | 16.740 | 2 | 42.356 | 16.903 | 32.866 | 2 |
| 2025-09-10T13:45:00 | 57.920752 | 9.469637 | 2.0 | 16.735 | 2 | 42.371 | 16.904 | 32.878 | 2 |
| 2025-09-10T13:46:00 | 57.919185 | 9.469932 | 2.0 | 16.725 | 2 | 42.385 | 16.898 | 32.895 | 2 |
| 2025-09-10T13:47:00 | 57.918050 | 9.469960 | 2.0 | 16.717 | 2 | 42.399 | 16.887 | 32.917 | 2 |
| 2025-09-10T13:48:00 | 57.917247 | 9.469918 | 2.0 | 16.703 | 2 | 42.407 | 16.879 | 32.930 | 2 |
| 2025-09-10T13:49:00 | 57.916620 | 9.469814 | 2.0 | 16.673 | 2 | 42.416 | 16.856 | 32.957 | 2 |
| 2025-09-10T13:50:00 | 57.916071 | 9.469693 | 2.0 | 16.671 | 2 | 42.420 | 16.835 | 32.977 | 2 |
| 2025-09-10T13:51:00 | 57.915484 | 9.469719 | 2.0 | 16.668 | 2 | 42.431 | 16.834 | 32.988 | 2 |
| 2025-09-10T13:52:00 | 57.914833 | 9.469864 | 2.0 | 16.663 | 2 | 42.450 | 16.828 | 33.009 | 2 |
| 2025-09-10T13:53:00 | 57.914175 | 9.470048 | 2.0 | 16.689 | 2 | 42.472 | 16.827 | 33.029 | 2 |
| 2025-09-10T13:54:00 | 57.913543 | 9.470242 | 2.0 | 16.713 | 2 | 42.300 | 16.857 | 32.855 | 2 |
| 2025-09-10T13:55:00 | 57.912905 | 9.470465 | 2.0 | 16.717 | 2 | 42.287 | 16.875 | 32.829 | 2 |
| 2025-09-10T13:56:00 | 57.912228 | 9.470690 | 2.0 | 16.723 | 2 | 42.569 | 16.881 | 33.069 | 2 |
| 2025-09-10T13:57:00 | 57.911513 | 9.470898 | 2.0 | 16.723 | 2 | 42.524 | 16.886 | 33.026 | 2 |
| 2025-09-10T13:58:00 | 57.910794 | 9.471159 | 2.0 | 16.719 | 2 | 42.445 | 16.884 | 32.959 | 2 |
| 2025-09-10T13:59:00 | 57.910040 | 9.471479 | 2.0 | 16.712 | 2 | 42.583 | 16.879 | 33.083 | 2 |
| 2025-09-10T14:00:00 | 57.909254 | 9.471712 | 2.0 | 16.715 | 2 | 42.582 | 16.877 | 33.084 | 2 |
| 2025-09-10T14:01:00 | 57.908498 | 9.471934 | 2.0 | 16.713 | 2 | 42.475 | 16.879 | 32.989 | 2 |
| 2025-09-10T14:02:00 | 57.907725 | 9.472144 | 2.0 | 16.713 | 2 | 42.571 | 16.875 | 33.076 | 2 |
| 2025-09-10T14:03:00 | 57.906966 | 9.472401 | 2.0 | 16.706 | 2 | 42.534 | 16.875 | 33.044 | 2 |
| 2025-09-10T14:04:00 | 57.906182 | 9.472677 | 2.0 | 16.694 | 2 | 42.494 | 16.868 | 33.015 | 2 |
| 2025-09-10T14:05:00 | 57.905396 | 9.472887 | 2.0 | 16.690 | 2 | 42.405 | 16.858 | 32.946 | 2 |
| 2025-09-10T14:06:00 | 57.904599 | 9.473092 | 2.0 | 16.683 | 2 | 42.497 | 16.851 | 33.031 | 2 |
| 2025-09-10T14:07:00 | 57.903810 | 9.473239 | 2.0 | 16.679 | 2 | 42.529 | 16.847 | 33.062 | 2 |
| 2025-09-10T14:08:00 | 57.903044 | 9.473392 | 2.0 | 16.670 | 2 | 42.617 | 16.843 | 33.142 | 2 |
| 2025-09-10T14:09:00 | 57.902294 | 9.473539 | 2.0 | 16.651 | 2 | 42.585 | 16.833 | 33.122 | 2 |
| 2025-09-10T14:10:00 | 57.901552 | 9.473709 | 2.0 | 16.639 | 2 | 42.649 | 16.814 | 33.194 | 2 |
| 2025-09-10T14:11:00 | 57.900822 | 9.473855 | 2.0 | 16.618 | 2 | 42.634 | 16.799 | 33.193 | 2 |
| 2025-09-10T14:12:00 | 57.900093 | 9.474063 | 2.0 | 16.588 | 2 | 42.584 | 16.776 | 33.169 | 2 |
| 2025-09-10T14:13:00 | 57.899368 | 9.474240 | 2.0 | 16.579 | 2 | 42.679 | 16.753 | 33.270 | 2 |
| 2025-09-10T14:14:00 | 57.898662 | 9.474420 | 2.0 | 16.566 | 2 | 42.659 | 16.745 | 33.260 | 2 |
| 2025-09-10T14:15:00 | 57.897974 | 9.474599 | 2.0 | 16.567 | 2 | 42.617 | 16.730 | 33.235 | 2 |
| 2025-09-10T14:16:00 | 57.897276 | 9.474753 | 2.0 | 16.578 | 2 | 42.672 | 16.732 | 33.282 | 2 |
| 2025-09-10T14:17:00 | 57.896611 | 9.474934 | 2.0 | 16.559 | 2 | 42.689 | 16.736 | 33.293 | 2 |
| 2025-09-10T14:18:00 | 57.895919 | 9.475052 | 2.0 | 16.583 | 2 | 42.705 | 16.728 | 33.314 | 2 |
| 2025-09-10T14:19:00 | 57.895216 | 9.475196 | 2.0 | 16.596 | 2 | 42.774 | 16.748 | 33.357 | 2 |
| 2025-09-10T14:20:00 | 57.894485 | 9.475321 | 2.0 | 16.634 | 2 | 42.771 | 16.765 | 33.341 | 2 |
| 2025-09-10T14:21:00 | 57.893726 | 9.475481 | 2.0 | 16.653 | 2 | 42.861 | 16.804 | 33.387 | 2 |
| 2025-09-10T14:22:00 | 57.892995 | 9.475577 | 2.0 | 16.648 | 2 | 42.883 | 16.813 | 33.398 | 2 |
| 2025-09-10T14:23:00 | 57.892277 | 9.475706 | 2.0 | 16.648 | 2 | 42.912 | 16.810 | 33.426 | 2 |
| 2025-09-10T14:24:00 | 57.891547 | 9.475847 | 2.0 | 16.631 | 2 | 42.903 | 16.808 | 33.420 | 2 |
| 2025-09-10T14:25:00 | 57.890822 | 9.475931 | 2.0 | 16.622 | 2 | 42.926 | 16.793 | 33.452 | 2 |
| 2025-09-10T14:26:00 | 57.890120 | 9.476005 | 2.0 | 16.620 | 2 | 42.959 | 16.786 | 33.487 | 2 |
| 2025-09-10T14:27:00 | 57.889423 | 9.476077 | 2.0 | 16.622 | 2 | 43.030 | 16.784 | 33.550 | 2 |
| 2025-09-10T14:28:00 | 57.888742 | 9.476189 | 2.0 | 16.623 | 2 | 43.073 | 16.785 | 33.587 | 2 |
| 2025-09-10T14:29:00 | 57.888054 | 9.476303 | 2.0 | 16.633 | 2 | 43.115 | 16.789 | 33.620 | 2 |
| 2025-09-10T14:30:00 | 57.887373 | 9.476393 | 2.0 | 16.641 | 2 | 43.193 | 16.798 | 33.681 | 2 |
| 2025-09-10T14:31:00 | 57.886704 | 9.476470 | 2.0 | 16.645 | 2 | 43.230 | 16.806 | 33.706 | 2 |
| 2025-09-10T14:32:00 | 57.886051 | 9.476554 | 2.0 | 16.658 | 2 | 43.272 | 16.809 | 33.740 | 2 |
| 2025-09-10T14:33:00 | 57.885386 | 9.476653 | 2.0 | 16.673 | 2 | 43.310 | 16.822 | 33.763 | 2 |
| 2025-09-10T14:34:00 | 57.884692 | 9.476730 | 2.0 | 16.693 | 2 | 43.334 | 16.839 | 33.769 | 2 |
| 2025-09-10T14:35:00 | 57.884003 | 9.476787 | 2.0 | 16.694 | 2 | 43.365 | 16.857 | 33.781 | 2 |
| 2025-09-10T14:36:00 | 57.883329 | 9.476854 | 2.0 | 16.628 | 2 | 43.392 | 16.844 | 33.816 | 2 |
| 2025-09-10T14:37:00 | 57.882675 | 9.476976 | 2.0 | 16.583 | 2 | 43.366 | 16.785 | 33.843 | 2 |
| 2025-09-10T14:38:00 | 57.882064 | 9.477052 | 2.0 | 16.571 | 2 | 43.334 | 16.746 | 33.848 | 2 |
| 2025-09-10T14:39:00 | 57.881459 | 9.477144 | 2.0 | 16.563 | 2 | 43.329 | 16.736 | 33.852 | 2 |
| 2025-09-10T14:40:00 | 57.880836 | 9.477284 | 2.0 | 16.557 | 2 | 43.329 | 16.727 | 33.859 | 2 |
| 2025-09-10T14:41:00 | 57.880229 | 9.477404 | 2.0 | 16.555 | 2 | 43.330 | 16.720 | 33.866 | 2 |
| 2025-09-10T14:42:00 | 57.879611 | 9.477521 | 2.0 | 16.547 | 2 | 43.334 | 16.718 | 33.871 | 2 |
| 2025-09-10T14:43:00 | 57.878978 | 9.477653 | 2.0 | 16.532 | 2 | 43.329 | 16.708 | 33.875 | 2 |
| 2025-09-10T14:44:00 | 57.878377 | 9.477773 | 2.0 | 16.519 | 2 | 43.311 | 16.695 | 33.871 | 2 |
| 2025-09-10T14:45:00 | 57.877760 | 9.477957 | 2.0 | 16.524 | 2 | 43.298 | 16.685 | 33.868 | 2 |
| 2025-09-10T14:46:00 | 57.877134 | 9.478087 | 2.0 | 16.503 | 2 | 43.306 | 16.685 | 33.875 | 2 |
| 2025-09-10T14:47:00 | 57.876504 | 9.478215 | 2.0 | 16.486 | 2 | 43.296 | 16.665 | 33.883 | 2 |
| 2025-09-10T14:48:00 | 57.875893 | 9.478390 | 2.0 | 16.481 | 2 | 43.287 | 16.651 | 33.887 | 2 |
| 2025-09-10T14:49:00 | 57.875271 | 9.478545 | 2.0 | 16.483 | 2 | 43.283 | 16.647 | 33.887 | 2 |
| 2025-09-10T14:50:00 | 57.874637 | 9.478713 | 2.0 | 16.478 | 2 | 43.285 | 16.646 | 33.889 | 2 |
| 2025-09-10T14:51:00 | 57.874013 | 9.478815 | 2.0 | 16.477 | 2 | 43.285 | 16.643 | 33.892 | 2 |
| 2025-09-10T14:52:00 | 57.873426 | 9.478875 | 2.0 | 16.478 | 2 | 43.281 | 16.642 | 33.889 | 2 |
| 2025-09-10T14:53:00 | 57.872829 | 9.479031 | 2.0 | 16.469 | 2 | 43.284 | 16.642 | 33.892 | 2 |
| 2025-09-10T14:54:00 | 57.872205 | 9.479160 | 2.0 | 16.473 | 2 | 43.276 | 16.634 | 33.892 | 2 |
| 2025-09-10T14:55:00 | 57.871579 | 9.479332 | 2.0 | 16.470 | 2 | 43.281 | 16.637 | 33.894 | 2 |
| 2025-09-10T14:56:00 | 57.870926 | 9.479479 | 2.0 | 16.470 | 2 | 43.280 | 16.634 | 33.895 | 2 |
| 2025-09-10T14:57:00 | 57.870281 | 9.479605 | 2.0 | 16.465 | 2 | 43.288 | 16.633 | 33.903 | 2 |
| 2025-09-10T14:58:00 | 57.869645 | 9.479773 | 2.0 | 16.459 | 2 | 43.282 | 16.627 | 33.903 | 2 |
| 2025-09-10T14:59:00 | 57.868990 | 9.479939 | 2.0 | 16.456 | 2 | 43.277 | 16.622 | 33.903 | 2 |
| 2025-09-10T15:00:00 | 57.868322 | 9.480156 | 2.0 | 16.445 | 2 | 43.278 | 16.620 | 33.905 | 2 |
| 2025-09-10T15:01:00 | 57.867638 | 9.480272 | 2.0 | 16.440 | 2 | 43.270 | 16.610 | 33.907 | 2 |
| 2025-09-10T15:02:00 | 57.866991 | 9.480437 | 2.0 | 16.441 | 2 | 43.268 | 16.605 | 33.909 | 2 |
| 2025-09-10T15:03:00 | 57.866375 | 9.480564 | 2.0 | 16.435 | 2 | 43.272 | 16.605 | 33.913 | 2 |
| 2025-09-10T15:04:00 | 57.865756 | 9.480708 | 2.0 | 16.434 | 2 | 43.266 | 16.600 | 33.912 | 2 |
| 2025-09-10T15:05:00 | 57.865141 | 9.480875 | 2.0 | 16.429 | 2 | 43.266 | 16.598 | 33.913 | 2 |
| 2025-09-10T15:06:00 | 57.864509 | 9.481083 | 2.0 | 16.422 | 2 | 43.257 | 16.592 | 33.911 | 2 |
| 2025-09-10T15:07:00 | 57.863880 | 9.481293 | 2.0 | 16.449 | 2 | 43.177 | 16.591 | 33.841 | 2 |
| 2025-09-10T15:08:00 | 57.863260 | 9.481461 | 2.0 | 16.460 | 2 | 43.232 | 16.615 | 33.869 | 2 |
| 2025-09-10T15:09:00 | 57.862656 | 9.481656 | 2.0 | 16.470 | 2 | 43.192 | 16.627 | 33.824 | 2 |
| 2025-09-10T15:10:00 | 57.862051 | 9.481839 | 2.0 | 16.466 | 2 | 43.183 | 16.632 | 33.812 | 2 |
| 2025-09-10T15:11:00 | 57.861455 | 9.482007 | 2.0 | 16.471 | 2 | 43.243 | 16.631 | 33.865 | 2 |
| 2025-09-10T15:12:00 | 57.860871 | 9.482209 | 2.0 | 16.480 | 2 | 43.240 | 16.634 | 33.860 | 2 |
| 2025-09-10T15:13:00 | 57.860303 | 9.482365 | 2.0 | 16.497 | 2 | 43.201 | 16.647 | 33.815 | 2 |
| 2025-09-10T15:14:00 | 57.859817 | 9.482458 | 2.0 | 16.503 | 2 | 43.234 | 16.662 | 33.831 | 2 |
| 2025-09-10T15:15:00 | 57.859341 | 9.482568 | 2.0 | 16.504 | 2 | 43.275 | 16.666 | 33.864 | 2 |
| 2025-09-10T15:16:00 | 57.858486 | 9.482554 | 2.0 | 16.511 | 2 | 43.270 | 16.667 | 33.858 | 2 |
| 2025-09-10T15:17:00 | 57.857914 | 9.480265 | 2.0 | 16.500 | 2 | 43.282 | 16.672 | 33.865 | 2 |
| 2025-09-10T15:18:00 | 57.859757 | 9.479026 | 2.0 | 16.505 | 2 | 43.279 | 16.666 | 33.867 | 2 |
| 2025-09-10T15:19:00 | 57.862315 | 9.479865 | 2.0 | 16.469 | 2 | 43.289 | 16.668 | 33.874 | 2 |
| 2025-09-10T15:20:00 | 57.865055 | 9.479992 | 2.0 | 16.421 | 2 | 43.254 | 16.630 | 33.876 | 2 |
| 2025-09-10T15:21:00 | 57.867844 | 9.479676 | 2.0 | 16.436 | 2 | 43.245 | 16.593 | 33.899 | 2 |
| 2025-09-10T15:22:00 | 57.870634 | 9.479298 | 2.0 | 16.463 | 2 | 43.256 | 16.609 | 33.895 | 2 |
| 2025-09-10T15:23:00 | 57.873398 | 9.478785 | 2.0 | 16.478 | 2 | 43.264 | 16.631 | 33.884 | 2 |
| 2025-09-10T15:24:00 | 57.876179 | 9.478234 | 2.0 | 16.488 | 2 | 43.280 | 16.645 | 33.886 | 2 |
| 2025-09-10T15:25:00 | 57.878979 | 9.477793 | 2.0 | 16.511 | 2 | 43.290 | 16.659 | 33.883 | 2 |
| 2025-09-10T15:26:00 | 57.881771 | 9.477371 | 2.0 | 16.551 | 2 | 43.298 | 16.678 | 33.874 | 2 |
| 2025-09-10T15:27:00 | 57.884563 | 9.476849 | 2.0 | 16.572 | 2 | 43.320 | 16.716 | 33.861 | 2 |
| 2025-09-10T15:28:00 | 57.887386 | 9.476493 | 2.0 | 16.591 | 2 | 43.323 | 16.738 | 33.845 | 2 |
| 2025-09-10T15:29:00 | 57.890202 | 9.475936 | 2.0 | 16.608 | 2 | 43.326 | 16.756 | 33.832 | 2 |
| 2025-09-10T15:30:00 | 57.893045 | 9.475518 | 2.0 | 16.622 | 2 | 43.335 | 16.774 | 33.825 | 2 |
| 2025-09-10T15:31:00 | 57.895889 | 9.474935 | 2.0 | 16.634 | 2 | 43.336 | 16.789 | 33.813 | 2 |
| 2025-09-10T15:32:00 | 57.898744 | 9.474452 | 2.0 | 16.630 | 2 | 43.263 | 16.794 | 33.745 | 2 |
| 2025-09-10T15:33:00 | 57.901610 | 9.473945 | 2.0 | 16.629 | 2 | 43.156 | 16.794 | 33.652 | 2 |
| 2025-09-10T15:34:00 | 57.904495 | 9.473549 | 2.0 | 16.635 | 2 | 43.003 | 16.793 | 33.519 | 2 |
| 2025-09-10T15:35:00 | 57.907379 | 9.473065 | 2.0 | 16.640 | 2 | 42.963 | 16.803 | 33.476 | 2 |
| 2025-09-10T15:36:00 | 57.910249 | 9.472600 | 2.0 | 16.563 | 2 | 42.921 | 16.795 | 33.446 | 2 |
| 2025-09-10T15:37:00 | 57.913100 | 9.472163 | 2.0 | 16.559 | 2 | 42.804 | 16.730 | 33.399 | 2 |
| 2025-09-10T15:38:00 | 57.915963 | 9.471699 | 2.0 | 16.573 | 2 | 42.746 | 16.729 | 33.349 | 2 |
| 2025-09-10T15:39:00 | 57.918830 | 9.471208 | 2.0 | 16.617 | 2 | 42.693 | 16.743 | 33.291 | 2 |
| 2025-09-10T15:40:00 | 57.921708 | 9.470708 | 2.0 | 16.640 | 2 | 42.672 | 16.783 | 33.239 | 2 |
| 2025-09-10T15:41:00 | 57.924581 | 9.470271 | 2.0 | 16.655 | 2 | 42.649 | 16.805 | 33.201 | 2 |
| 2025-09-10T15:42:00 | 57.927466 | 9.469764 | 2.0 | 16.662 | 2 | 42.630 | 16.819 | 33.173 | 2 |
| 2025-09-10T15:43:00 | 57.930383 | 9.469343 | 2.0 | 16.673 | 2 | 42.621 | 16.828 | 33.158 | 2 |
| 2025-09-10T15:44:00 | 57.933268 | 9.468920 | 2.0 | 16.682 | 2 | 42.610 | 16.837 | 33.141 | 2 |
| 2025-09-10T15:45:00 | 57.936131 | 9.468418 | 2.0 | 16.685 | 2 | 42.594 | 16.845 | 33.120 | 2 |
| 2025-09-10T15:46:00 | 57.938991 | 9.467969 | 2.0 | 16.686 | 2 | 42.579 | 16.848 | 33.105 | 2 |
| 2025-09-10T15:47:00 | 57.941860 | 9.467434 | 2.0 | 16.701 | 2 | 42.564 | 16.852 | 33.089 | 2 |
| 2025-09-10T15:48:00 | 57.944746 | 9.467000 | 2.0 | 16.706 | 2 | 42.564 | 16.865 | 33.078 | 2 |
| 2025-09-10T15:49:00 | 57.947604 | 9.466567 | 2.0 | 16.718 | 2 | 42.558 | 16.872 | 33.067 | 2 |
| 2025-09-10T15:50:00 | 57.950441 | 9.466107 | 2.0 | 16.706 | 2 | 42.534 | 16.878 | 33.041 | 2 |
| 2025-09-10T15:51:00 | 57.953273 | 9.465535 | 2.0 | 16.716 | 2 | 42.513 | 16.874 | 33.026 | 2 |
| 2025-09-10T15:52:00 | 57.956127 | 9.465065 | 2.0 | 16.756 | 2 | 42.506 | 16.884 | 33.012 | 2 |
| 2025-09-10T15:53:00 | 57.959026 | 9.464566 | 2.0 | 16.775 | 2 | 42.431 | 16.925 | 32.913 | 2 |
| 2025-09-10T15:54:00 | 57.961959 | 9.464186 | 2.0 | 16.778 | 2 | 42.394 | 16.938 | 32.871 | 2 |
| 2025-09-10T15:55:00 | 57.964807 | 9.465062 | 2.0 | 16.787 | 2 | 42.344 | 16.941 | 32.825 | 2 |
| 2025-09-10T15:56:00 | 57.967065 | 9.468215 | 2.0 | 16.798 | 2 | 42.286 | 16.950 | 32.767 | 2 |
| 2025-09-10T15:57:00 | 57.968352 | 9.472860 | 2.0 | 16.807 | 2 | 42.243 | 16.963 | 32.719 | 2 |
| 2025-09-10T15:58:00 | 57.968313 | 9.477999 | 2.0 | 16.805 | 2 | 42.226 | 16.969 | 32.700 | 2 |
| 2025-09-10T15:59:00 | 57.967053 | 9.482299 | 2.0 | 16.804 | 2 | 42.229 | 16.968 | 32.703 | 2 |
| 2025-09-10T16:00:00 | 57.964982 | 9.485129 | 2.0 | 16.802 | 2 | 42.236 | 16.967 | 32.710 | 2 |
| 2025-09-10T16:01:00 | 57.962553 | 9.486607 | 2.0 | 16.797 | 2 | 42.240 | 16.965 | 32.715 | 2 |
| 2025-09-10T16:02:00 | 57.960021 | 9.487459 | 2.0 | 16.789 | 2 | 42.206 | 16.959 | 32.691 | 2 |
| 2025-09-10T16:03:00 | 57.957521 | 9.488351 | 2.0 | 16.782 | 2 | 42.265 | 16.952 | 32.747 | 2 |
| 2025-09-10T16:04:00 | 57.954989 | 9.489014 | 2.0 | 16.772 | 2 | 42.184 | 16.944 | 32.684 | 2 |
| 2025-09-10T16:05:00 | 57.952454 | 9.489651 | 2.0 | 16.760 | 2 | 42.188 | 16.935 | 32.695 | 2 |
| 2025-09-10T16:06:00 | 57.949928 | 9.490350 | 2.0 | 16.721 | 2 | 42.320 | 16.913 | 32.827 | 2 |
| 2025-09-10T16:07:00 | 57.947394 | 9.491048 | 2.0 | 16.726 | 2 | 42.327 | 16.889 | 32.853 | 2 |
| 2025-09-10T16:08:00 | 57.944879 | 9.491687 | 2.0 | 16.723 | 2 | 42.301 | 16.891 | 32.828 | 2 |
| 2025-09-10T16:09:00 | 57.942375 | 9.492384 | 2.0 | 16.715 | 2 | 42.386 | 16.886 | 32.906 | 2 |
| 2025-09-10T16:10:00 | 57.939889 | 9.493118 | 2.0 | 16.719 | 2 | 42.390 | 16.880 | 32.915 | 2 |
| 2025-09-10T16:11:00 | 57.937397 | 9.493858 | 2.0 | 16.718 | 2 | 42.427 | 16.884 | 32.943 | 2 |
| 2025-09-10T16:12:00 | 57.934882 | 9.494524 | 2.0 | 16.710 | 2 | 42.488 | 16.882 | 32.998 | 2 |
| 2025-09-10T16:13:00 | 57.932366 | 9.495171 | 2.0 | 16.696 | 2 | 42.516 | 16.874 | 33.029 | 2 |
| 2025-09-10T16:14:00 | 57.929851 | 9.495867 | 2.0 | 16.679 | 2 | 42.524 | 16.858 | 33.049 | 2 |
| 2025-09-10T16:15:00 | 57.927355 | 9.496556 | 2.0 | 16.664 | 2 | 42.524 | 16.843 | 33.061 | 2 |
| 2025-09-10T16:16:00 | 57.924869 | 9.497312 | 2.0 | 16.644 | 2 | 42.529 | 16.826 | 33.080 | 2 |
| 2025-09-10T16:17:00 | 57.922377 | 9.498016 | 2.0 | 16.610 | 2 | 42.551 | 16.805 | 33.116 | 2 |
| 2025-09-10T16:18:00 | 57.919869 | 9.498719 | 2.0 | 16.570 | 2 | 42.589 | 16.771 | 33.177 | 2 |
| 2025-09-10T16:19:00 | 57.917351 | 9.499420 | 2.0 | 16.557 | 2 | 42.615 | 16.735 | 33.230 | 2 |
| 2025-09-10T16:20:00 | 57.914826 | 9.500124 | 2.0 | 16.553 | 2 | 42.674 | 16.723 | 33.291 | 2 |
| 2025-09-10T16:21:00 | 57.912316 | 9.500785 | 2.0 | 16.626 | 2 | 42.753 | 16.728 | 33.356 | 2 |
| 2025-09-10T16:22:00 | 57.909797 | 9.501409 | 2.0 | 16.649 | 2 | 42.879 | 16.793 | 33.411 | 2 |
| 2025-09-10T16:23:00 | 57.907304 | 9.502032 | 2.0 | 16.631 | 2 | 42.951 | 16.806 | 33.463 | 2 |
| 2025-09-10T16:24:00 | 57.904823 | 9.502720 | 2.0 | 16.632 | 2 | 43.023 | 16.795 | 33.535 | 2 |
| 2025-09-10T16:25:00 | 57.902329 | 9.503464 | 2.0 | 16.640 | 2 | 43.148 | 16.795 | 33.644 | 2 |
| 2025-09-10T16:26:00 | 57.899818 | 9.503986 | 2.0 | 16.631 | 2 | 43.274 | 16.804 | 33.746 | 2 |
| 2025-09-10T16:27:00 | 57.897295 | 9.503818 | 2.0 | 16.615 | 2 | 43.332 | 16.793 | 33.806 | 2 |
| 2025-09-10T16:28:00 | 57.894807 | 9.502772 | 2.0 | 16.595 | 2 | 43.320 | 16.777 | 33.809 | 2 |
| 2025-09-10T16:29:00 | 57.892381 | 9.501455 | 2.0 | 16.580 | 2 | 43.317 | 16.759 | 33.822 | 2 |
| 2025-09-10T16:30:00 | 57.890102 | 9.499345 | 2.0 | 16.566 | 2 | 43.315 | 16.743 | 33.834 | 2 |
| 2025-09-10T16:31:00 | 57.888038 | 9.496444 | 2.0 | 16.559 | 2 | 43.308 | 16.732 | 33.837 | 2 |
| 2025-09-10T16:32:00 | 57.886165 | 9.493131 | 2.0 | 16.548 | 2 | 43.313 | 16.724 | 33.848 | 2 |
| 2025-09-10T16:33:00 | 57.884643 | 9.489214 | 2.0 | 16.538 | 2 | 43.313 | 16.713 | 33.857 | 2 |
| 2025-09-10T16:34:00 | 57.883537 | 9.484818 | 2.0 | 16.535 | 2 | 43.309 | 16.705 | 33.860 | 2 |
| 2025-09-10T16:35:00 | 57.882865 | 9.480100 | 2.0 | 16.555 | 2 | 43.306 | 16.703 | 33.860 | 2 |
| 2025-09-10T16:36:00 | 57.882597 | 9.475201 | 2.0 | 16.577 | 2 | 43.311 | 16.726 | 33.844 | 2 |
| 2025-09-10T16:37:00 | 57.882736 | 9.470245 | 2.0 | 16.581 | 2 | 43.326 | 16.740 | 33.846 | 2 |
| 2025-09-10T16:38:00 | 57.883431 | 9.465430 | 2.0 | 16.590 | 2 | 43.337 | 16.746 | 33.850 | 2 |
| 2025-09-10T16:39:00 | 57.884604 | 9.460869 | 2.0 | 16.614 | 2 | 43.345 | 16.759 | 33.846 | 2 |
| 2025-09-10T16:40:00 | 57.885804 | 9.456330 | 2.0 | 16.627 | 2 | 43.359 | 16.779 | 33.842 | 2 |
| 2025-09-10T16:41:00 | 57.887552 | 9.452429 | 2.0 | 16.636 | 2 | 43.366 | 16.793 | 33.836 | 2 |
| 2025-09-10T16:42:00 | 57.889789 | 9.449389 | 2.0 | 16.633 | 2 | 43.370 | 16.800 | 33.834 | 2 |
| 2025-09-10T16:43:00 | 57.892170 | 9.446644 | 2.0 | 16.660 | 2 | 43.360 | 16.798 | 33.826 | 2 |
| 2025-09-10T16:44:00 | 57.894805 | 9.444774 | 2.0 | 16.700 | 2 | 43.356 | 16.831 | 33.795 | 2 |
| 2025-09-10T16:45:00 | 57.897658 | 9.444121 | 2.0 | 16.715 | 2 | 43.354 | 16.864 | 33.766 | 2 |
| 2025-09-10T16:46:00 | 57.900556 | 9.444424 | 2.0 | 16.726 | 2 | 43.357 | 16.880 | 33.755 | 2 |
| 2025-09-10T16:47:00 | 57.903406 | 9.445636 | 2.0 | 16.741 | 2 | 43.360 | 16.891 | 33.748 | 2 |
| 2025-09-10T16:48:00 | 57.906123 | 9.447719 | 2.0 | 16.746 | 2 | 43.373 | 16.907 | 33.746 | 2 |
| 2025-09-10T16:49:00 | 57.908585 | 9.450554 | 2.0 | 16.758 | 2 | 43.380 | 16.912 | 33.748 | 2 |
| 2025-09-10T16:50:00 | 57.910551 | 9.454509 | 2.0 | 16.772 | 2 | 43.398 | 16.924 | 33.754 | 2 |
| 2025-09-10T16:51:00 | 57.912168 | 9.458884 | 2.0 | 16.786 | 2 | 43.412 | 16.932 | 33.759 | 2 |
| 2025-09-10T16:52:00 | 57.913387 | 9.463582 | 2.0 | 16.804 | 2 | 43.430 | 16.950 | 33.760 | 2 |
| 2025-09-10T16:53:00 | 57.914070 | 9.468632 | 2.0 | 16.751 | 2 | 43.443 | 16.964 | 33.759 | 2 |
| 2025-09-10T16:54:00 | 57.914346 | 9.473764 | 2.0 | 16.657 | 2 | 43.360 | 16.894 | 33.746 | 2 |
| 2025-09-10T16:55:00 | 57.914197 | 9.478822 | 2.0 | 16.648 | 2 | 43.233 | 16.826 | 33.692 | 2 |
| 2025-09-10T16:56:00 | 57.913560 | 9.483639 | 2.0 | 16.642 | 2 | 43.192 | 16.812 | 33.668 | 2 |
| 2025-09-10T16:57:00 | 57.913341 | 9.488539 | 2.0 | 16.641 | 2 | 43.201 | 16.807 | 33.680 | 2 |
| 2025-09-10T16:58:00 | 57.914306 | 9.493179 | 2.0 | 16.656 | 2 | 43.198 | 16.808 | 33.677 | 2 |
| 2025-09-10T16:59:00 | 57.916173 | 9.496939 | 2.0 | 16.653 | 2 | 43.181 | 16.821 | 33.651 | 2 |
| 2025-09-10T17:00:00 | 57.918700 | 9.499139 | 2.0 | 16.646 | 2 | 42.971 | 16.815 | 33.473 | 2 |
| 2025-09-10T17:01:00 | 57.921515 | 9.499455 | 2.0 | 16.621 | 2 | 42.961 | 16.811 | 33.468 | 2 |
| 2025-09-10T17:02:00 | 57.924364 | 9.499950 | 2.0 | 16.583 | 2 | 42.841 | 16.780 | 33.389 | 2 |
| 2025-09-10T17:03:00 | 57.927218 | 9.499590 | 2.0 | 16.555 | 2 | 42.797 | 16.747 | 33.378 | 2 |
| 2025-09-10T17:04:00 | 57.930081 | 9.499397 | 2.0 | 16.536 | 2 | 42.701 | 16.718 | 33.319 | 2 |
| 2025-09-10T17:05:00 | 57.932944 | 9.499426 | 2.0 | 16.553 | 2 | 42.625 | 16.706 | 33.262 | 2 |
| 2025-09-10T17:06:00 | 57.935806 | 9.499423 | 2.0 | 16.587 | 2 | 42.556 | 16.725 | 33.186 | 2 |
| 2025-09-10T17:07:00 | 57.938669 | 9.499363 | 2.0 | 16.608 | 2 | 42.564 | 16.753 | 33.170 | 2 |
| 2025-09-10T17:08:00 | 57.941549 | 9.499292 | 2.0 | 16.636 | 2 | 42.592 | 16.777 | 33.175 | 2 |
| 2025-09-10T17:09:00 | 57.944437 | 9.499299 | 2.0 | 16.654 | 2 | 42.592 | 16.801 | 33.155 | 2 |
| 2025-09-10T17:10:00 | 57.947332 | 9.499319 | 2.0 | 16.660 | 2 | 42.569 | 16.818 | 33.121 | 2 |
| 2025-09-10T17:11:00 | 57.950229 | 9.499301 | 2.0 | 16.675 | 2 | 42.563 | 16.826 | 33.109 | 2 |
| 2025-09-10T17:12:00 | 57.953136 | 9.499267 | 2.0 | 16.687 | 2 | 42.533 | 16.839 | 33.072 | 2 |
| 2025-09-10T17:13:00 | 57.956023 | 9.499435 | 2.0 | 16.701 | 2 | 42.561 | 16.852 | 33.086 | 2 |
| 2025-09-10T17:14:00 | 57.958908 | 9.499300 | 2.0 | 16.708 | 2 | 42.564 | 16.866 | 33.077 | 2 |
| 2025-09-10T17:15:00 | 57.961802 | 9.499296 | 2.0 | 16.706 | 2 | 42.550 | 16.871 | 33.061 | 2 |
| 2025-09-10T17:16:00 | 57.964707 | 9.499322 | 2.0 | 16.705 | 2 | 42.539 | 16.871 | 33.051 | 2 |
| 2025-09-10T17:17:00 | 57.967597 | 9.499286 | 2.0 | 16.704 | 2 | 42.536 | 16.869 | 33.050 | 2 |
| 2025-09-10T17:18:00 | 57.969997 | 9.499546 | 2.0 | 16.713 | 2 | 42.521 | 16.870 | 33.036 | 2 |
| 2025-09-10T17:19:00 | 57.971849 | 9.499905 | 2.0 | 16.707 | 2 | 42.504 | 16.875 | 33.018 | 2 |
| 2025-09-10T17:20:00 | 57.973083 | 9.500967 | 2.0 | 16.708 | 2 | 42.504 | 16.870 | 33.022 | 2 |
| 2025-09-10T17:21:00 | 57.973481 | 9.502278 | 2.0 | 16.710 | 2 | 42.490 | 16.870 | 33.009 | 2 |
| 2025-09-10T17:22:00 | 57.973615 | 9.503112 | 2.0 | 16.710 | 2 | 42.483 | 16.871 | 33.003 | 2 |
| 2025-09-10T17:23:00 | 57.973637 | 9.503529 | 2.0 | 16.707 | 2 | 42.486 | 16.870 | 33.006 | 2 |
| 2025-09-10T17:24:00 | 57.973574 | 9.503681 | 2.0 | 16.707 | 2 | 42.494 | 16.868 | 33.015 | 2 |
| 2025-09-10T17:25:00 | 57.973552 | 9.503809 | 2.0 | 16.705 | 2 | 42.491 | 16.868 | 33.012 | 2 |
| 2025-09-10T17:26:00 | 57.973561 | 9.503892 | 2.0 | 16.703 | 2 | 42.497 | 16.866 | 33.019 | 2 |
| 2025-09-10T17:27:00 | 57.973563 | 9.503926 | 2.0 | 16.704 | 2 | 42.501 | 16.865 | 33.023 | 2 |
| 2025-09-10T17:28:00 | 57.973609 | 9.503907 | 2.0 | 16.702 | 2 | 42.503 | 16.864 | 33.026 | 2 |
| 2025-09-10T17:29:00 | 57.973628 | 9.504017 | 2.0 | 16.691 | 2 | 42.512 | 16.862 | 33.035 | 2 |
| 2025-09-10T17:30:00 | 57.973649 | 9.504151 | 2.0 | 16.694 | 2 | 42.536 | 16.853 | 33.063 | 2 |
| 2025-09-10T17:31:00 | 57.973662 | 9.504293 | 2.0 | 16.699 | 2 | 42.537 | 16.856 | 33.062 | 2 |
| 2025-09-10T17:32:00 | 57.973713 | 9.504401 | 2.0 | 16.703 | 2 | 42.521 | 16.861 | 33.044 | 2 |
| 2025-09-10T17:33:00 | 57.973756 | 9.504557 | 2.0 | 16.701 | 2 | 42.511 | 16.864 | 33.033 | 2 |
| 2025-09-10T17:34:00 | 57.973768 | 9.504797 | 2.0 | 16.700 | 2 | 42.517 | 16.863 | 33.039 | 2 |
| 2025-09-10T17:35:00 | 57.973771 | 9.505001 | 2.0 | 16.703 | 2 | 42.523 | 16.862 | 33.045 | 2 |
| 2025-09-10T17:36:00 | 57.973785 | 9.505145 | 2.0 | 16.704 | 2 | 42.510 | 16.865 | 33.031 | 2 |
| 2025-09-10T17:37:00 | 57.973819 | 9.505235 | 2.0 | 16.699 | 2 | 42.513 | 16.864 | 33.034 | 2 |
| 2025-09-10T17:38:00 | 57.973881 | 9.505148 | 2.0 | 16.697 | 2 | 42.526 | 16.860 | 33.049 | 2 |
| 2025-09-10T17:39:00 | 57.973960 | 9.504976 | 2.0 | 16.699 | 2 | 42.534 | 16.858 | 33.058 | 2 |
| 2025-09-10T17:40:00 | 57.974015 | 9.504739 | 2.0 | 16.698 | 2 | 42.530 | 16.861 | 33.052 | 2 |
| 2025-09-10T17:41:00 | 57.974133 | 9.504772 | 2.0 | 16.698 | 2 | 42.532 | 16.860 | 33.054 | 2 |
| 2025-09-10T17:42:00 | 57.974323 | 9.505118 | 2.0 | 16.698 | 2 | 42.533 | 16.860 | 33.055 | 2 |
| 2025-09-10T17:43:00 | 57.974380 | 9.505670 | 2.0 | 16.697 | 2 | 42.533 | 16.860 | 33.055 | 2 |
| 2025-09-10T17:44:00 | 57.974162 | 9.506215 | 2.0 | 16.698 | 2 | 42.533 | 16.860 | 33.055 | 2 |
| 2025-09-10T17:45:00 | 57.973961 | 9.506780 | 2.0 | 16.697 | 2 | 42.521 | 16.860 | 33.045 | 2 |
| 2025-09-10T17:46:00 | 57.973847 | 9.507359 | 2.0 | 16.697 | 2 | 42.522 | 16.860 | 33.045 | 2 |
| 2025-09-10T17:47:00 | 57.973807 | 9.507729 | 2.0 | 16.696 | 2 | 42.488 | 16.859 | 33.017 | 2 |
| 2025-09-10T17:48:00 | 57.973787 | 9.507951 | 2.0 | 16.692 | 2 | 42.458 | 16.857 | 32.992 | 2 |
| 2025-09-10T17:49:00 | 57.973734 | 9.508266 | 2.0 | 16.693 | 2 | 42.460 | 16.854 | 32.997 | 2 |
| 2025-09-10T17:50:00 | 57.973747 | 9.508644 | 2.0 | 16.692 | 2 | 42.484 | 16.854 | 33.017 | 2 |
| 2025-09-10T17:51:00 | 57.973773 | 9.508928 | 2.0 | 16.690 | 2 | 42.504 | 16.854 | 33.035 | 2 |
| 2025-09-10T17:52:00 | 57.973769 | 9.509139 | 2.0 | 16.684 | 2 | 42.478 | 16.851 | 33.015 | 2 |
| 2025-09-10T17:53:00 | 57.973732 | 9.509319 | 2.0 | 16.685 | 2 | 42.459 | 16.847 | 33.001 | 2 |
| 2025-09-10T17:54:00 | 57.973667 | 9.509465 | 2.0 | 16.682 | 2 | 42.486 | 16.846 | 33.026 | 2 |
| 2025-09-10T17:55:00 | 57.973602 | 9.509553 | 2.0 | 16.679 | 2 | 42.490 | 16.843 | 33.032 | 2 |
| 2025-09-10T17:56:00 | 57.973597 | 9.509488 | 2.0 | 16.677 | 2 | 42.496 | 16.841 | 33.039 | 2 |
| 2025-09-10T17:57:00 | 57.973608 | 9.509375 | 2.0 | 16.676 | 2 | 42.495 | 16.838 | 33.040 | 2 |
| 2025-09-10T17:58:00 | 57.973391 | 9.509502 | 2.0 | 16.674 | 2 | 42.497 | 16.838 | 33.042 | 2 |
| 2025-09-10T17:59:00 | 57.972952 | 9.510031 | 2.0 | 16.673 | 2 | 42.502 | 16.835 | 33.049 | 2 |
| 2025-09-10T18:00:00 | 57.972361 | 9.510717 | 2.0 | 16.675 | 2 | 42.514 | 16.836 | 33.058 | 2 |
| 2025-09-10T18:01:00 | 57.971838 | 9.511317 | 2.0 | 16.677 | 2 | 42.514 | 16.838 | 33.057 | 2 |
| 2025-09-10T18:02:00 | 57.971370 | 9.511668 | 2.0 | 16.677 | 2 | 42.518 | 16.840 | 33.058 | 2 |
| 2025-09-10T18:03:00 | 57.970930 | 9.511874 | 2.0 | 16.676 | 2 | 42.518 | 16.839 | 33.059 | 2 |
| 2025-09-10T18:04:00 | 57.970484 | 9.512106 | 2.0 | 16.677 | 2 | 42.518 | 16.838 | 33.060 | 2 |
| 2025-09-10T18:05:00 | 57.970013 | 9.512211 | 2.0 | 16.678 | 2 | 42.520 | 16.840 | 33.060 | 2 |
| 2025-09-10T18:06:00 | 57.969523 | 9.512321 | 2.0 | 16.677 | 2 | 42.517 | 16.840 | 33.058 | 2 |
| 2025-09-10T18:07:00 | 57.969014 | 9.512421 | 2.0 | 16.677 | 2 | 42.518 | 16.839 | 33.059 | 2 |
| 2025-09-10T18:08:00 | 57.968492 | 9.512532 | 2.0 | 16.677 | 2 | 42.520 | 16.840 | 33.060 | 2 |
| 2025-09-10T18:09:00 | 57.967969 | 9.512625 | 2.0 | 16.676 | 2 | 42.520 | 16.839 | 33.061 | 2 |
| 2025-09-10T18:10:00 | 57.967460 | 9.512691 | 2.0 | 16.676 | 2 | 42.519 | 16.839 | 33.060 | 2 |
| 2025-09-10T18:11:00 | 57.966967 | 9.512800 | 2.0 | 16.676 | 2 | 42.521 | 16.839 | 33.062 | 2 |
| 2025-09-10T18:12:00 | 57.966461 | 9.512898 | 2.0 | 16.675 | 2 | 42.523 | 16.838 | 33.064 | 2 |
| 2025-09-10T18:13:00 | 57.965975 | 9.512955 | 2.0 | 16.675 | 2 | 42.521 | 16.837 | 33.064 | 2 |
| 2025-09-10T18:14:00 | 57.965483 | 9.513043 | 2.0 | 16.673 | 2 | 42.526 | 16.838 | 33.067 | 2 |
| 2025-09-10T18:15:00 | 57.964982 | 9.513143 | 2.0 | 16.670 | 2 | 42.525 | 16.835 | 33.069 | 2 |
| 2025-09-10T18:16:00 | 57.964469 | 9.513226 | 2.0 | 16.670 | 2 | 42.521 | 16.833 | 33.067 | 2 |
| 2025-09-10T18:17:00 | 57.963972 | 9.513295 | 2.0 | 16.670 | 2 | 42.527 | 16.833 | 33.072 | 2 |
| 2025-09-10T18:18:00 | 57.963477 | 9.513374 | 2.0 | 16.666 | 2 | 42.534 | 16.832 | 33.079 | 2 |
| 2025-09-10T18:19:00 | 57.962981 | 9.513536 | 2.0 | 16.666 | 2 | 42.534 | 16.828 | 33.082 | 2 |
| 2025-09-10T18:20:00 | 57.962464 | 9.513697 | 2.0 | 16.664 | 2 | 42.540 | 16.828 | 33.087 | 2 |
| 2025-09-10T18:21:00 | 57.961939 | 9.513904 | 2.0 | 16.662 | 2 | 42.540 | 16.826 | 33.089 | 2 |
| 2025-09-10T18:22:00 | 57.961407 | 9.514090 | 2.0 | 16.661 | 2 | 42.550 | 16.825 | 33.099 | 2 |
| 2025-09-10T18:23:00 | 57.960869 | 9.514299 | 2.0 | 16.659 | 2 | 42.549 | 16.823 | 33.099 | 2 |
| 2025-09-10T18:24:00 | 57.960335 | 9.514486 | 2.0 | 16.658 | 2 | 42.549 | 16.822 | 33.100 | 2 |
| 2025-09-10T18:25:00 | 57.959812 | 9.514689 | 2.0 | 16.656 | 2 | 42.549 | 16.819 | 33.103 | 2 |
| 2025-09-10T18:26:00 | 57.959279 | 9.514891 | 2.0 | 16.654 | 2 | 42.553 | 16.819 | 33.106 | 2 |
| 2025-09-10T18:27:00 | 57.958747 | 9.515077 | 2.0 | 16.653 | 2 | 42.550 | 16.817 | 33.105 | 2 |
| 2025-09-10T18:28:00 | 57.958231 | 9.515244 | 2.0 | 16.650 | 2 | 42.556 | 16.815 | 33.112 | 2 |
| 2025-09-10T18:29:00 | 57.957696 | 9.515477 | 2.0 | 16.648 | 2 | 42.560 | 16.813 | 33.117 | 2 |
| 2025-09-10T18:30:00 | 57.957152 | 9.515686 | 2.0 | 16.644 | 2 | 42.561 | 16.811 | 33.120 | 2 |
| 2025-09-10T18:31:00 | 57.956592 | 9.515906 | 2.0 | 16.640 | 2 | 42.556 | 16.806 | 33.120 | 2 |
| 2025-09-10T18:32:00 | 57.956020 | 9.516151 | 2.0 | 16.635 | 2 | 42.572 | 16.802 | 33.137 | 2 |
| 2025-09-10T18:33:00 | 57.955438 | 9.516426 | 2.0 | 16.629 | 2 | 42.574 | 16.797 | 33.143 | 2 |
| 2025-09-10T18:34:00 | 57.954832 | 9.516707 | 2.0 | 16.626 | 2 | 42.567 | 16.791 | 33.141 | 2 |
| 2025-09-10T18:35:00 | 57.954209 | 9.516966 | 2.0 | 16.620 | 2 | 42.579 | 16.789 | 33.154 | 2 |
| 2025-09-10T18:36:00 | 57.953596 | 9.517250 | 2.0 | 16.614 | 2 | 42.580 | 16.783 | 33.159 | 2 |
| 2025-09-10T18:37:00 | 57.953039 | 9.517525 | 2.0 | 16.610 | 2 | 42.577 | 16.777 | 33.162 | 2 |
| 2025-09-10T18:38:00 | 57.952526 | 9.517781 | 2.0 | 16.604 | 2 | 42.582 | 16.772 | 33.170 | 2 |
| 2025-09-10T18:39:00 | 57.952024 | 9.518008 | 2.0 | 16.596 | 2 | 42.580 | 16.766 | 33.173 | 2 |
| 2025-09-10T18:40:00 | 57.951545 | 9.518231 | 2.0 | 16.592 | 2 | 42.582 | 16.759 | 33.181 | 2 |
| 2025-09-10T18:41:00 | 57.951064 | 9.518451 | 2.0 | 16.587 | 2 | 42.587 | 16.755 | 33.189 | 2 |
| 2025-09-10T18:42:00 | 57.950591 | 9.518683 | 2.0 | 16.587 | 2 | 42.591 | 16.750 | 33.196 | 2 |
| 2025-09-10T18:43:00 | 57.950129 | 9.518872 | 2.0 | 16.588 | 2 | 42.590 | 16.750 | 33.195 | 2 |
| 2025-09-10T18:44:00 | 57.949697 | 9.519075 | 2.0 | 16.585 | 2 | 42.578 | 16.750 | 33.185 | 2 |
| 2025-09-10T18:45:00 | 57.949277 | 9.519217 | 2.0 | 16.580 | 2 | 42.605 | 16.747 | 33.211 | 2 |
| 2025-09-10T18:46:00 | 57.948865 | 9.519491 | 2.0 | 16.570 | 2 | 42.608 | 16.742 | 33.218 | 2 |
| 2025-09-10T18:47:00 | 57.948446 | 9.519751 | 2.0 | 16.559 | 2 | 42.593 | 16.732 | 33.213 | 2 |
| 2025-09-10T18:48:00 | 57.948031 | 9.519954 | 2.0 | 16.550 | 2 | 42.594 | 16.721 | 33.223 | 2 |
| 2025-09-10T18:49:00 | 57.947629 | 9.520215 | 2.0 | 16.559 | 2 | 42.603 | 16.715 | 33.236 | 2 |
| 2025-09-10T18:50:00 | 57.947226 | 9.520345 | 2.0 | 16.554 | 2 | 42.610 | 16.721 | 33.237 | 2 |
| 2025-09-10T18:51:00 | 57.946835 | 9.520565 | 2.0 | 16.550 | 2 | 42.619 | 16.717 | 33.248 | 2 |
| 2025-09-10T18:52:00 | 57.946424 | 9.520775 | 2.0 | 16.546 | 2 | 42.626 | 16.713 | 33.257 | 2 |
| 2025-09-10T18:53:00 | 57.945997 | 9.520966 | 2.0 | 16.532 | 2 | 42.635 | 16.706 | 33.271 | 2 |
| 2025-09-10T18:54:00 | 57.945569 | 9.521186 | 2.0 | 16.525 | 2 | 42.652 | 16.695 | 33.295 | 2 |
| 2025-09-10T18:55:00 | 57.945122 | 9.521450 | 2.0 | 16.524 | 2 | 42.663 | 16.689 | 33.310 | 2 |
| 2025-09-10T18:56:00 | 57.944657 | 9.521660 | 2.0 | 16.528 | 2 | 42.682 | 16.687 | 33.328 | 2 |
| 2025-09-10T18:57:00 | 57.944192 | 9.521912 | 2.0 | 16.543 | 2 | 42.713 | 16.695 | 33.348 | 2 |
| 2025-09-10T18:58:00 | 57.943714 | 9.522201 | 2.0 | 16.546 | 2 | 42.744 | 16.707 | 33.365 | 2 |
| 2025-09-10T18:59:00 | 57.943240 | 9.522459 | 2.0 | 16.546 | 2 | 42.759 | 16.708 | 33.378 | 2 |
| 2025-09-10T19:00:00 | 57.942768 | 9.522806 | 2.0 | 16.558 | 2 | 42.772 | 16.711 | 33.386 | 2 |
| 2025-09-10T19:01:00 | 57.942286 | 9.523096 | 2.0 | 16.567 | 2 | 42.793 | 16.721 | 33.396 | 2 |
| 2025-09-10T19:02:00 | 57.941797 | 9.523380 | 2.0 | 16.568 | 2 | 42.805 | 16.730 | 33.399 | 2 |
| 2025-09-10T19:03:00 | 57.941287 | 9.523654 | 2.0 | 16.562 | 2 | 42.810 | 16.729 | 33.405 | 2 |
| 2025-09-10T19:04:00 | 57.940759 | 9.523907 | 2.0 | 16.561 | 2 | 42.813 | 16.725 | 33.411 | 2 |
| 2025-09-10T19:05:00 | 57.940257 | 9.524161 | 2.0 | 16.564 | 2 | 42.820 | 16.724 | 33.417 | 2 |
| 2025-09-10T19:06:00 | 57.939758 | 9.524335 | 2.0 | 16.576 | 2 | 42.835 | 16.728 | 33.427 | 2 |
| 2025-09-10T19:07:00 | 57.939249 | 9.524526 | 2.0 | 16.605 | 2 | 42.872 | 16.743 | 33.447 | 2 |
| 2025-09-10T19:08:00 | 57.938765 | 9.524802 | 2.0 | 16.637 | 2 | 42.807 | 16.772 | 33.366 | 2 |
| 2025-09-10T19:09:00 | 57.938296 | 9.524999 | 2.0 | 16.651 | 2 | 42.972 | 16.802 | 33.485 | 2 |
| 2025-09-10T19:10:00 | 57.937856 | 9.525248 | 2.0 | 16.647 | 2 | 42.999 | 16.811 | 33.501 | 2 |
| 2025-09-10T19:11:00 | 57.937423 | 9.525475 | 2.0 | 16.642 | 2 | 43.067 | 16.808 | 33.563 | 2 |
| 2025-09-10T19:12:00 | 57.937017 | 9.525660 | 2.0 | 16.643 | 2 | 43.041 | 16.805 | 33.542 | 2 |
| 2025-09-10T19:13:00 | 57.936635 | 9.525872 | 2.0 | 16.657 | 2 | 43.033 | 16.806 | 33.535 | 2 |
| 2025-09-10T19:14:00 | 57.936271 | 9.526043 | 2.0 | 16.709 | 2 | 43.089 | 16.826 | 33.567 | 2 |
| 2025-09-10T19:15:00 | 57.935916 | 9.526295 | 2.0 | 16.753 | 2 | 43.159 | 16.878 | 33.584 | 2 |
| 2025-09-10T19:16:00 | 57.935549 | 9.526517 | 2.0 | 16.759 | 2 | 43.275 | 16.911 | 33.657 | 2 |
| 2025-09-10T19:17:00 | 57.935173 | 9.526769 | 2.0 | 16.786 | 2 | 43.325 | 16.922 | 33.692 | 2 |
| 2025-09-10T19:18:00 | 57.934797 | 9.527020 | 2.0 | 16.786 | 2 | 43.347 | 16.945 | 33.692 | 2 |
| 2025-09-10T19:19:00 | 57.934409 | 9.527316 | 2.0 | 16.784 | 2 | 43.337 | 16.946 | 33.682 | 2 |
| 2025-09-10T19:20:00 | 57.934019 | 9.527586 | 2.0 | 16.785 | 2 | 43.321 | 16.946 | 33.668 | 2 |
| 2025-09-10T19:21:00 | 57.933635 | 9.527866 | 2.0 | 16.782 | 2 | 43.347 | 16.946 | 33.691 | 2 |
| 2025-09-10T19:22:00 | 57.933247 | 9.528156 | 2.0 | 16.775 | 2 | 43.311 | 16.942 | 33.663 | 2 |
| 2025-09-10T19:23:00 | 57.932867 | 9.528427 | 2.0 | 16.770 | 2 | 43.330 | 16.936 | 33.684 | 2 |
| 2025-09-10T19:24:00 | 57.932514 | 9.528681 | 2.0 | 16.768 | 2 | 43.348 | 16.932 | 33.703 | 2 |
| 2025-09-10T19:25:00 | 57.932202 | 9.528967 | 2.0 | 16.766 | 2 | 43.264 | 16.929 | 33.633 | 2 |
| 2025-09-10T19:26:00 | 57.931902 | 9.529342 | 2.0 | 16.764 | 2 | 43.329 | 16.927 | 33.691 | 2 |
| 2025-09-10T19:27:00 | 57.931583 | 9.529753 | 2.0 | 16.764 | 2 | 43.333 | 16.926 | 33.695 | 2 |
| 2025-09-10T19:28:00 | 57.931258 | 9.530186 | 2.0 | 16.762 | 2 | 43.345 | 16.925 | 33.707 | 2 |
| 2025-09-10T19:29:00 | 57.930926 | 9.530648 | 2.0 | 16.761 | 2 | 43.331 | 16.924 | 33.695 | 2 |
| 2025-09-10T19:30:00 | 57.930596 | 9.531161 | 2.0 | 16.755 | 2 | 43.319 | 16.921 | 33.687 | 2 |
| 2025-09-10T19:31:00 | 57.930259 | 9.531657 | 2.0 | 16.754 | 2 | 43.330 | 16.917 | 33.700 | 2 |
| 2025-09-10T19:32:00 | 57.929937 | 9.532194 | 2.0 | 16.755 | 2 | 43.326 | 16.916 | 33.698 | 2 |
| 2025-09-10T19:33:00 | 57.929592 | 9.532549 | 2.0 | 16.756 | 2 | 43.316 | 16.917 | 33.688 | 2 |
| 2025-09-10T19:34:00 | 57.929240 | 9.532982 | 2.0 | 16.754 | 2 | 43.309 | 16.917 | 33.682 | 2 |
| 2025-09-10T19:35:00 | 57.928874 | 9.533353 | 2.0 | 16.753 | 2 | 43.302 | 16.916 | 33.677 | 2 |
| 2025-09-10T19:36:00 | 57.928507 | 9.533740 | 2.0 | 16.748 | 2 | 43.287 | 16.913 | 33.666 | 2 |
| 2025-09-10T19:37:00 | 57.928141 | 9.534105 | 2.0 | 16.742 | 2 | 43.276 | 16.909 | 33.660 | 2 |
| 2025-09-10T19:38:00 | 57.927792 | 9.534428 | 2.0 | 16.740 | 2 | 43.258 | 16.904 | 33.649 | 2 |
| 2025-09-10T19:39:00 | 57.927487 | 9.534640 | 2.0 | 16.736 | 2 | 43.245 | 16.901 | 33.640 | 2 |
| 2025-09-10T19:40:00 | 57.927242 | 9.534850 | 2.0 | 16.739 | 2 | 43.243 | 16.899 | 33.640 | 2 |
| 2025-09-10T19:41:00 | 57.927018 | 9.535083 | 2.0 | 16.739 | 2 | 43.255 | 16.900 | 33.649 | 2 |
| 2025-09-10T19:42:00 | 57.926777 | 9.535279 | 2.0 | 16.738 | 2 | 43.254 | 16.900 | 33.648 | 2 |
| 2025-09-10T19:43:00 | 57.926523 | 9.535490 | 2.0 | 16.738 | 2 | 43.251 | 16.900 | 33.646 | 2 |
| 2025-09-10T19:44:00 | 57.926261 | 9.535683 | 2.0 | 16.734 | 2 | 43.256 | 16.900 | 33.650 | 2 |
| 2025-09-10T19:45:00 | 57.925949 | 9.535846 | 2.0 | 16.719 | 2 | 43.246 | 16.893 | 33.647 | 2 |
| 2025-09-10T19:46:00 | 57.925566 | 9.536039 | 2.0 | 16.717 | 2 | 43.204 | 16.880 | 33.622 | 2 |
| 2025-09-10T19:47:00 | 57.925123 | 9.536250 | 2.0 | 16.719 | 2 | 43.227 | 16.879 | 33.643 | 2 |
| 2025-09-10T19:48:00 | 57.924648 | 9.536462 | 2.0 | 16.720 | 2 | 43.220 | 16.880 | 33.636 | 2 |
| 2025-09-10T19:49:00 | 57.924120 | 9.536672 | 2.0 | 16.725 | 2 | 43.213 | 16.882 | 33.628 | 2 |
| 2025-09-10T19:50:00 | 57.923539 | 9.536886 | 2.0 | 16.723 | 2 | 43.237 | 16.885 | 33.646 | 2 |
| 2025-09-10T19:51:00 | 57.922978 | 9.537099 | 2.0 | 16.715 | 2 | 43.236 | 16.883 | 33.647 | 2 |
| 2025-09-10T19:52:00 | 57.922575 | 9.537334 | 2.0 | 16.714 | 2 | 43.207 | 16.876 | 33.628 | 2 |
| 2025-09-10T19:53:00 | 57.922297 | 9.537482 | 2.0 | 16.718 | 2 | 43.236 | 16.877 | 33.652 | 2 |
| 2025-09-10T19:54:00 | 57.922104 | 9.537555 | 2.0 | 16.715 | 2 | 43.254 | 16.880 | 33.665 | 2 |
| 2025-09-10T19:55:00 | 57.921981 | 9.537580 | 2.0 | 16.712 | 2 | 43.233 | 16.876 | 33.650 | 2 |
| 2025-09-10T19:56:00 | 57.921907 | 9.537584 | 2.0 | 16.714 | 2 | 43.221 | 16.873 | 33.642 | 2 |
| 2025-09-10T19:57:00 | 57.921839 | 9.537600 | 2.0 | 16.715 | 2 | 43.225 | 16.875 | 33.644 | 2 |
| 2025-09-10T19:58:00 | 57.921823 | 9.537598 | 2.0 | 16.717 | 2 | 43.235 | 16.876 | 33.652 | 2 |
| 2025-09-10T19:59:00 | 57.921870 | 9.537593 | 2.0 | 16.718 | 2 | 43.246 | 16.878 | 33.660 | 2 |
| 2025-09-10T20:00:00 | 57.921902 | 9.537616 | 2.0 | 16.717 | 2 | 43.237 | 16.879 | 33.651 | 2 |
| 2025-09-10T20:01:00 | 57.921911 | 9.537681 | 2.0 | 16.715 | 2 | 43.224 | 16.878 | 33.641 | 2 |
| 2025-09-10T20:02:00 | 57.921938 | 9.537822 | 2.0 | 16.713 | 2 | 43.223 | 16.877 | 33.641 | 2 |
| 2025-09-10T20:03:00 | 57.921984 | 9.537987 | 2.0 | 16.715 | 2 | 43.222 | 16.876 | 33.641 | 2 |
| 2025-09-10T20:04:00 | 57.922032 | 9.538137 | 2.0 | 16.713 | 2 | 43.218 | 16.875 | 33.638 | 2 |
| 2025-09-10T20:05:00 | 57.922080 | 9.538251 | 2.0 | 16.719 | 2 | 43.217 | 16.875 | 33.637 | 2 |
| 2025-09-10T20:06:00 | 57.922114 | 9.538367 | 2.0 | 16.719 | 2 | 43.244 | 16.880 | 33.656 | 2 |
| 2025-09-10T20:07:00 | 57.922155 | 9.538483 | 2.0 | 16.717 | 2 | 43.241 | 16.879 | 33.655 | 2 |
| 2025-09-10T20:08:00 | 57.922133 | 9.538672 | 2.0 | 16.716 | 2 | 43.235 | 16.879 | 33.649 | 2 |
| 2025-09-10T20:09:00 | 57.922086 | 9.538959 | 2.0 | 16.716 | 2 | 43.230 | 16.878 | 33.646 | 2 |
| 2025-09-10T20:10:00 | 57.922022 | 9.539207 | 2.0 | 16.719 | 2 | 43.228 | 16.878 | 33.644 | 2 |
| 2025-09-10T20:11:00 | 57.921964 | 9.539462 | 2.0 | 16.721 | 2 | 43.238 | 16.881 | 33.650 | 2 |
| 2025-09-10T20:12:00 | 57.921947 | 9.539629 | 2.0 | 16.720 | 2 | 43.238 | 16.882 | 33.650 | 2 |
| 2025-09-10T20:13:00 | 57.921998 | 9.539687 | 2.0 | 16.719 | 2 | 43.229 | 16.880 | 33.643 | 2 |
| 2025-09-10T20:14:00 | 57.922026 | 9.539679 | 2.0 | 16.715 | 2 | 43.230 | 16.880 | 33.644 | 2 |
| 2025-09-10T20:15:00 | 57.922074 | 9.539746 | 2.0 | 16.715 | 2 | 43.210 | 16.877 | 33.629 | 2 |
| 2025-09-10T20:16:00 | 57.922135 | 9.539878 | 2.0 | 16.716 | 2 | 43.210 | 16.876 | 33.630 | 2 |
| 2025-09-10T20:17:00 | 57.922137 | 9.540205 | 2.0 | 16.716 | 2 | 43.179 | 16.877 | 33.602 | 2 |
| 2025-09-10T20:18:00 | 57.922060 | 9.540657 | 2.0 | 16.717 | 2 | 43.190 | 16.878 | 33.611 | 2 |
| 2025-09-10T20:19:00 | 57.921885 | 9.541095 | 2.0 | 16.714 | 2 | 43.197 | 16.879 | 33.616 | 2 |
| 2025-09-10T20:20:00 | 57.921647 | 9.541606 | 2.0 | 16.714 | 2 | 43.178 | 16.876 | 33.602 | 2 |
| 2025-09-10T20:21:00 | 57.921365 | 9.542126 | 2.0 | 16.713 | 2 | 43.164 | 16.876 | 33.590 | 2 |
| 2025-09-10T20:22:00 | 57.921055 | 9.542668 | 2.0 | 16.710 | 2 | 43.170 | 16.875 | 33.596 | 2 |
| 2025-09-10T20:23:00 | 57.920886 | 9.542541 | 2.0 | 16.710 | 2 | 43.159 | 16.873 | 33.588 | 2 |
| 2025-09-10T20:24:00 | 57.921337 | 9.542262 | 2.0 | 16.713 | 2 | 43.182 | 16.872 | 33.609 | 2 |
| 2025-09-10T20:25:00 | 57.921998 | 9.540793 | 2.0 | 16.709 | 2 | 43.187 | 16.873 | 33.613 | 2 |
| 2025-09-10T20:26:00 | 57.923257 | 9.538266 | 2.0 | 16.736 | 2 | 43.161 | 16.875 | 33.588 | 2 |
| 2025-09-10T20:27:00 | 57.925407 | 9.536076 | 2.0 | 16.751 | 2 | 43.201 | 16.899 | 33.603 | 2 |
| 2025-09-10T20:28:00 | 57.927784 | 9.533817 | 2.0 | 16.772 | 2 | 43.213 | 16.917 | 33.599 | 2 |
| 2025-09-10T20:29:00 | 57.930135 | 9.531258 | 2.0 | 16.790 | 2 | 43.229 | 16.937 | 33.596 | 2 |
| 2025-09-10T20:30:00 | 57.932569 | 9.528884 | 2.0 | 16.789 | 2 | 43.254 | 16.951 | 33.606 | 2 |
| 2025-09-10T20:31:00 | 57.935244 | 9.527453 | 2.0 | 16.782 | 2 | 43.248 | 16.951 | 33.601 | 2 |
| 2025-09-10T20:32:00 | 57.938090 | 9.527289 | 2.0 | 16.774 | 2 | 43.241 | 16.944 | 33.600 | 2 |
| 2025-09-10T20:33:00 | 57.940927 | 9.528417 | 2.0 | 16.729 | 2 | 43.226 | 16.935 | 33.595 | 2 |
| 2025-09-10T20:34:00 | 57.943416 | 9.531304 | 2.0 | 16.438 | 2 | 43.067 | 16.817 | 33.555 | 2 |
| 2025-09-10T20:35:00 | 57.945351 | 9.535480 | 2.0 | 16.416 | 2 | 42.852 | 16.620 | 33.532 | 2 |
| 2025-09-10T20:36:00 | 57.946483 | 9.540583 | 2.0 | 16.495 | 2 | 42.817 | 16.588 | 33.529 | 2 |
| 2025-09-10T20:37:00 | 57.946476 | 9.545943 | 2.0 | 16.649 | 2 | 42.956 | 16.699 | 33.557 | 2 |
| 2025-09-10T20:38:00 | 57.945491 | 9.550801 | 2.0 | 16.664 | 2 | 43.096 | 16.798 | 33.596 | 2 |
| 2025-09-10T20:39:00 | 57.943817 | 9.554754 | 2.0 | 16.730 | 2 | 43.145 | 16.840 | 33.604 | 2 |
| 2025-09-10T20:40:00 | 57.941613 | 9.557240 | 2.0 | 16.750 | 2 | 43.215 | 16.895 | 33.619 | 2 |
| 2025-09-10T20:41:00 | 57.939193 | 9.558365 | 2.0 | 16.758 | 2 | 43.241 | 16.912 | 33.627 | 2 |
| 2025-09-10T20:42:00 | 57.936751 | 9.558101 | 2.0 | 16.764 | 2 | 43.246 | 16.921 | 33.624 | 2 |
| 2025-09-10T20:43:00 | 57.934394 | 9.556916 | 2.0 | 16.769 | 2 | 43.260 | 16.926 | 33.632 | 2 |
| 2025-09-10T20:44:00 | 57.932421 | 9.554306 | 2.0 | 16.767 | 2 | 43.258 | 16.931 | 33.626 | 2 |
| 2025-09-10T20:45:00 | 57.931033 | 9.550592 | 2.0 | 16.762 | 2 | 43.242 | 16.928 | 33.615 | 2 |
| 2025-09-10T20:46:00 | 57.930536 | 9.546259 | 2.0 | 16.770 | 2 | 43.234 | 16.925 | 33.610 | 2 |
| 2025-09-10T20:47:00 | 57.932406 | 9.543617 | 2.0 | 16.781 | 2 | 43.220 | 16.933 | 33.591 | 2 |
| 2025-09-10T20:48:00 | 57.934723 | 9.541387 | 2.0 | 16.785 | 2 | 43.221 | 16.945 | 33.582 | 2 |
| 2025-09-10T20:49:00 | 57.936973 | 9.538725 | 2.0 | 16.778 | 2 | 43.198 | 16.946 | 33.561 | 2 |
| 2025-09-10T20:50:00 | 57.939338 | 9.536196 | 2.0 | 16.778 | 2 | 43.247 | 16.939 | 33.610 | 2 |
| 2025-09-10T20:51:00 | 57.941726 | 9.533710 | 2.0 | 16.795 | 2 | 43.259 | 16.945 | 33.615 | 2 |
| 2025-09-10T20:52:00 | 57.944044 | 9.531076 | 2.0 | 16.804 | 2 | 43.273 | 16.961 | 33.614 | 2 |
| 2025-09-10T20:53:00 | 57.946413 | 9.528583 | 2.0 | 16.805 | 2 | 43.266 | 16.968 | 33.602 | 2 |
| 2025-09-10T20:54:00 | 57.948766 | 9.526044 | 2.0 | 16.799 | 2 | 43.277 | 16.968 | 33.612 | 2 |
| 2025-09-10T20:55:00 | 57.951113 | 9.523417 | 2.0 | 16.788 | 2 | 43.276 | 16.962 | 33.616 | 2 |
| 2025-09-10T20:56:00 | 57.953481 | 9.520849 | 2.0 | 16.760 | 2 | 43.252 | 16.950 | 33.605 | 2 |
| 2025-09-10T20:57:00 | 57.955815 | 9.518139 | 2.0 | 16.554 | 2 | 43.184 | 16.901 | 33.587 | 2 |
| 2025-09-10T20:58:00 | 57.958207 | 9.515361 | 2.0 | 16.533 | 2 | 42.780 | 16.736 | 33.373 | 2 |
| 2025-09-10T20:59:00 | 57.960698 | 9.512761 | 2.0 | 16.530 | 2 | 42.678 | 16.702 | 33.312 | 2 |
| 2025-09-10T21:00:00 | 57.963167 | 9.510079 | 2.0 | 16.522 | 2 | 42.690 | 16.697 | 33.327 | 2 |
| 2025-09-10T21:01:00 | 57.965632 | 9.507514 | 2.0 | 16.514 | 2 | 42.690 | 16.688 | 33.334 | 2 |
| 2025-09-10T21:02:00 | 57.968061 | 9.504863 | 2.0 | 16.500 | 2 | 42.666 | 16.681 | 33.319 | 2 |
| 2025-09-10T21:03:00 | 57.970448 | 9.502287 | 2.0 | 16.477 | 2 | 42.623 | 16.662 | 33.297 | 2 |
| 2025-09-10T21:04:00 | 57.972797 | 9.499719 | 2.0 | 16.477 | 2 | 42.572 | 16.645 | 33.267 | 2 |
| 2025-09-10T21:05:00 | 57.975138 | 9.497211 | 2.0 | 16.516 | 2 | 42.549 | 16.645 | 33.247 | 2 |
| 2025-09-10T21:06:00 | 57.977457 | 9.494686 | 2.0 | 16.673 | 2 | 42.443 | 16.718 | 33.094 | 2 |
| 2025-09-10T21:07:00 | 57.979756 | 9.492139 | 2.0 | 16.646 | 2 | 42.267 | 16.822 | 32.855 | 2 |
| 2025-09-10T21:08:00 | 57.982076 | 9.489650 | 2.0 | 16.660 | 2 | 42.200 | 16.808 | 32.809 | 2 |
| 2025-09-10T21:09:00 | 57.984389 | 9.487167 | 2.0 | 16.714 | 2 | 42.132 | 16.831 | 32.731 | 2 |
| 2025-09-10T21:10:00 | 57.986670 | 9.484616 | 2.0 | 16.774 | 2 | 42.106 | 16.885 | 32.664 | 2 |
| 2025-09-10T21:11:00 | 57.988996 | 9.482178 | 2.0 | 16.819 | 2 | 42.115 | 16.940 | 32.627 | 2 |
| 2025-09-10T21:12:00 | 57.991273 | 9.479590 | 2.0 | 16.844 | 2 | 42.084 | 16.983 | 32.566 | 2 |
| 2025-09-10T21:13:00 | 57.993483 | 9.477176 | 2.0 | 16.837 | 2 | 42.055 | 17.005 | 32.523 | 2 |
| 2025-09-10T21:14:00 | 57.995288 | 9.475919 | 2.0 | 16.817 | 2 | 42.056 | 16.994 | 32.533 | 2 |
| 2025-09-10T21:15:00 | 57.995969 | 9.476744 | 2.0 | 16.814 | 2 | 42.087 | 16.976 | 32.574 | 2 |
| 2025-09-10T21:16:00 | 57.996268 | 9.477269 | 2.0 | 16.814 | 2 | 42.094 | 16.974 | 32.582 | 2 |
| 2025-09-10T21:17:00 | 57.996360 | 9.477724 | 2.0 | 16.812 | 2 | 42.097 | 16.973 | 32.585 | 2 |
| 2025-09-10T21:18:00 | 57.996147 | 9.478002 | 2.0 | 16.807 | 2 | 42.104 | 16.971 | 32.593 | 2 |
| 2025-09-10T21:19:00 | 57.995894 | 9.478493 | 2.0 | 16.812 | 2 | 42.106 | 16.968 | 32.597 | 2 |
| 2025-09-10T21:20:00 | 57.995637 | 9.479237 | 2.0 | 16.812 | 2 | 42.081 | 16.972 | 32.572 | 2 |
| 2025-09-10T21:21:00 | 57.995319 | 9.479906 | 2.0 | 16.813 | 2 | 42.072 | 16.973 | 32.563 | 2 |
| 2025-09-10T21:22:00 | 57.995007 | 9.480358 | 2.0 | 16.815 | 2 | 42.073 | 16.975 | 32.563 | 2 |
| 2025-09-10T21:23:00 | 57.994668 | 9.480758 | 2.0 | 16.823 | 2 | 42.062 | 16.979 | 32.550 | 2 |
| 2025-09-10T21:24:00 | 57.994292 | 9.481208 | 2.0 | 16.815 | 2 | 42.065 | 16.980 | 32.552 | 2 |
| 2025-09-10T21:25:00 | 57.993886 | 9.481729 | 2.0 | 16.835 | 2 | 42.064 | 16.982 | 32.549 | 2 |
| 2025-09-10T21:26:00 | 57.993505 | 9.482233 | 2.0 | 16.837 | 2 | 42.041 | 16.995 | 32.519 | 2 |
| 2025-09-10T21:27:00 | 57.993200 | 9.482556 | 2.0 | 16.836 | 2 | 42.036 | 16.997 | 32.513 | 2 |
| 2025-09-10T21:28:00 | 57.992880 | 9.482900 | 2.0 | 16.835 | 2 | 42.050 | 16.996 | 32.526 | 2 |
| 2025-09-10T21:29:00 | 57.992457 | 9.483458 | 2.0 | 16.831 | 2 | 42.058 | 16.994 | 32.534 | 2 |
| 2025-09-10T21:30:00 | 57.991914 | 9.484182 | 2.0 | 16.826 | 2 | 42.071 | 16.991 | 32.548 | 2 |
| 2025-09-10T21:31:00 | 57.991391 | 9.484874 | 2.0 | 16.823 | 2 | 42.075 | 16.987 | 32.555 | 2 |
| 2025-09-10T21:32:00 | 57.990913 | 9.485536 | 2.0 | 16.818 | 2 | 42.086 | 16.984 | 32.567 | 2 |
| 2025-09-10T21:33:00 | 57.990484 | 9.486013 | 2.0 | 16.815 | 2 | 42.090 | 16.979 | 32.574 | 2 |
| 2025-09-10T21:34:00 | 57.990066 | 9.486577 | 2.0 | 16.810 | 2 | 42.094 | 16.976 | 32.580 | 2 |
| 2025-09-10T21:35:00 | 57.989624 | 9.487244 | 2.0 | 16.800 | 2 | 42.101 | 16.971 | 32.590 | 2 |
| 2025-09-10T21:36:00 | 57.989183 | 9.487892 | 2.0 | 16.779 | 2 | 42.108 | 16.958 | 32.607 | 2 |
| 2025-09-10T21:37:00 | 57.988718 | 9.488586 | 2.0 | 16.753 | 2 | 42.118 | 16.938 | 32.632 | 2 |
| 2025-09-10T21:38:00 | 57.988237 | 9.489320 | 2.0 | 16.723 | 2 | 42.119 | 16.911 | 32.654 | 2 |
| 2025-09-10T21:39:00 | 57.987764 | 9.490028 | 2.0 | 16.705 | 2 | 42.110 | 16.885 | 32.668 | 2 |
| 2025-09-10T21:40:00 | 57.987334 | 9.490608 | 2.0 | 16.687 | 2 | 42.107 | 16.865 | 32.681 | 2 |
| 2025-09-10T21:41:00 | 57.986901 | 9.491225 | 2.0 | 16.672 | 2 | 42.127 | 16.848 | 32.713 | 2 |
| 2025-09-10T21:42:00 | 57.986490 | 9.491829 | 2.0 | 16.665 | 2 | 42.149 | 16.833 | 32.744 | 2 |
| 2025-09-10T21:43:00 | 57.986060 | 9.492395 | 2.0 | 16.665 | 2 | 42.166 | 16.828 | 32.763 | 2 |
| 2025-09-10T21:44:00 | 57.985630 | 9.493061 | 2.0 | 16.663 | 2 | 42.135 | 16.827 | 32.737 | 2 |
| 2025-09-10T21:45:00 | 57.985190 | 9.493673 | 2.0 | 16.658 | 2 | 42.099 | 16.825 | 32.707 | 2 |
| 2025-09-10T21:46:00 | 57.984742 | 9.494362 | 2.0 | 16.654 | 2 | 42.179 | 16.820 | 32.781 | 2 |
| 2025-09-10T21:47:00 | 57.984275 | 9.495115 | 2.0 | 16.646 | 2 | 42.103 | 16.814 | 32.719 | 2 |
| 2025-09-10T21:48:00 | 57.983769 | 9.495937 | 2.0 | 16.641 | 2 | 42.158 | 16.808 | 32.772 | 2 |
| 2025-09-10T21:49:00 | 57.983253 | 9.496669 | 2.0 | 16.642 | 2 | 42.078 | 16.804 | 32.706 | 2 |
| 2025-09-10T21:50:00 | 57.982754 | 9.497314 | 2.0 | 16.649 | 2 | 42.184 | 16.806 | 32.796 | 2 |
| 2025-09-10T21:51:00 | 57.982242 | 9.497986 | 2.0 | 16.657 | 2 | 42.170 | 16.812 | 32.779 | 2 |
| 2025-09-10T21:52:00 | 57.981719 | 9.498604 | 2.0 | 16.666 | 2 | 42.201 | 16.820 | 32.800 | 2 |
| 2025-09-10T21:53:00 | 57.981206 | 9.499230 | 2.0 | 16.672 | 2 | 42.181 | 16.829 | 32.775 | 2 |
| 2025-09-10T21:54:00 | 57.980712 | 9.499740 | 2.0 | 16.673 | 2 | 42.209 | 16.834 | 32.795 | 2 |
| 2025-09-10T21:55:00 | 57.980222 | 9.500344 | 2.0 | 16.671 | 2 | 42.281 | 16.835 | 32.857 | 2 |
| 2025-09-10T21:56:00 | 57.979705 | 9.500977 | 2.0 | 16.648 | 2 | 42.270 | 16.830 | 32.851 | 2 |
| 2025-09-10T21:57:00 | 57.979154 | 9.501634 | 2.0 | 16.589 | 2 | 42.306 | 16.800 | 32.907 | 2 |
| 2025-09-10T21:58:00 | 57.978601 | 9.502276 | 2.0 | 16.518 | 2 | 42.389 | 16.744 | 33.025 | 2 |
| 2025-09-10T21:59:00 | 57.978043 | 9.502987 | 2.0 | 16.479 | 2 | 42.480 | 16.677 | 33.160 | 2 |
| 2025-09-10T22:00:00 | 57.977470 | 9.503644 | 2.0 | 16.474 | 2 | 42.518 | 16.644 | 33.220 | 2 |
| 2025-09-10T22:01:00 | 57.976921 | 9.504293 | 2.0 | 16.479 | 2 | 42.545 | 16.641 | 33.247 | 2 |
| 2025-09-10T22:02:00 | 57.976412 | 9.504866 | 2.0 | 16.478 | 2 | 42.557 | 16.644 | 33.255 | 2 |
| 2025-09-10T22:03:00 | 57.975897 | 9.505451 | 2.0 | 16.467 | 2 | 42.579 | 16.639 | 33.278 | 2 |
| 2025-09-10T22:04:00 | 57.975362 | 9.506076 | 2.0 | 16.469 | 2 | 42.579 | 16.632 | 33.284 | 2 |
| 2025-09-10T22:05:00 | 57.974823 | 9.506709 | 2.0 | 16.474 | 2 | 42.589 | 16.634 | 33.291 | 2 |
| 2025-09-10T22:06:00 | 57.974316 | 9.507299 | 2.0 | 16.482 | 2 | 42.609 | 16.638 | 33.305 | 2 |
| 2025-09-10T22:07:00 | 57.973827 | 9.507841 | 2.0 | 16.494 | 2 | 42.637 | 16.647 | 33.322 | 2 |
| 2025-09-10T22:08:00 | 57.973317 | 9.508440 | 2.0 | 16.501 | 2 | 42.654 | 16.658 | 33.328 | 2 |
| 2025-09-10T22:09:00 | 57.972758 | 9.509051 | 2.0 | 16.509 | 2 | 42.668 | 16.666 | 33.333 | 2 |
| 2025-09-10T22:10:00 | 57.972172 | 9.509651 | 2.0 | 16.514 | 2 | 42.674 | 16.673 | 33.333 | 2 |
| 2025-09-10T22:11:00 | 57.971599 | 9.510228 | 2.0 | 16.513 | 2 | 42.684 | 16.676 | 33.339 | 2 |
| 2025-09-10T22:12:00 | 57.971020 | 9.510781 | 2.0 | 16.512 | 2 | 42.691 | 16.675 | 33.346 | 2 |
| 2025-09-10T22:13:00 | 57.970414 | 9.511357 | 2.0 | 16.510 | 2 | 42.709 | 16.675 | 33.361 | 2 |
| 2025-09-10T22:14:00 | 57.969797 | 9.511954 | 2.0 | 16.519 | 2 | 42.733 | 16.672 | 33.385 | 2 |
| 2025-09-10T22:15:00 | 57.969218 | 9.512465 | 2.0 | 16.528 | 2 | 42.774 | 16.684 | 33.411 | 2 |
| 2025-09-10T22:16:00 | 57.968672 | 9.512938 | 2.0 | 16.547 | 2 | 42.824 | 16.696 | 33.444 | 2 |
| 2025-09-10T22:17:00 | 57.968164 | 9.513333 | 2.0 | 16.538 | 2 | 42.862 | 16.706 | 33.469 | 2 |
| 2025-09-10T22:18:00 | 57.967670 | 9.513766 | 2.0 | 16.596 | 2 | 42.872 | 16.705 | 33.479 | 2 |
| 2025-09-10T22:19:00 | 57.967145 | 9.514220 | 2.0 | 16.703 | 2 | 42.997 | 16.775 | 33.529 | 2 |
| 2025-09-10T22:20:00 | 57.966641 | 9.514705 | 2.0 | 16.800 | 2 | 43.161 | 16.877 | 33.587 | 2 |
| 2025-09-10T22:21:00 | 57.966148 | 9.515204 | 2.0 | 16.852 | 2 | 43.301 | 16.973 | 33.628 | 2 |
| 2025-09-10T22:22:00 | 57.965663 | 9.515753 | 2.0 | 16.857 | 2 | 43.354 | 17.007 | 33.646 | 2 |
| 2025-09-10T22:23:00 | 57.965176 | 9.516311 | 2.0 | 16.861 | 2 | 43.363 | 17.015 | 33.647 | 2 |
| 2025-09-10T22:24:00 | 57.964681 | 9.516900 | 2.0 | 16.871 | 2 | 43.374 | 17.021 | 33.651 | 2 |
| 2025-09-10T22:25:00 | 57.964165 | 9.517495 | 2.0 | 16.874 | 2 | 43.388 | 17.030 | 33.656 | 2 |
| 2025-09-10T22:26:00 | 57.963628 | 9.518141 | 2.0 | 16.882 | 2 | 43.398 | 17.035 | 33.661 | 2 |
| 2025-09-10T22:27:00 | 57.963091 | 9.518681 | 2.0 | 16.889 | 2 | 43.410 | 17.042 | 33.665 | 2 |
| 2025-09-10T22:28:00 | 57.962575 | 9.519255 | 2.0 | 16.896 | 2 | 43.418 | 17.050 | 33.665 | 2 |
| 2025-09-10T22:29:00 | 57.962068 | 9.519829 | 2.0 | 16.901 | 2 | 43.427 | 17.056 | 33.668 | 2 |
| 2025-09-10T22:30:00 | 57.961550 | 9.520466 | 2.0 | 16.905 | 2 | 43.430 | 17.061 | 33.667 | 2 |
| 2025-09-10T22:31:00 | 57.961030 | 9.521129 | 2.0 | 16.908 | 2 | 43.430 | 17.065 | 33.663 | 2 |
| 2025-09-10T22:32:00 | 57.960520 | 9.521792 | 2.0 | 16.912 | 2 | 43.433 | 17.069 | 33.662 | 2 |
| 2025-09-10T22:33:00 | 57.960024 | 9.522456 | 2.0 | 16.915 | 2 | 43.438 | 17.072 | 33.664 | 2 |
| 2025-09-10T22:34:00 | 57.959520 | 9.523146 | 2.0 | 16.916 | 2 | 43.442 | 17.075 | 33.665 | 2 |
| 2025-09-10T22:35:00 | 57.958996 | 9.523890 | 2.0 | 16.918 | 2 | 43.444 | 17.076 | 33.666 | 2 |
| 2025-09-10T22:36:00 | 57.958451 | 9.524653 | 2.0 | 16.919 | 2 | 43.445 | 17.078 | 33.665 | 2 |
| 2025-09-10T22:37:00 | 57.957921 | 9.525418 | 2.0 | 16.920 | 2 | 43.448 | 17.079 | 33.667 | 2 |
| 2025-09-10T22:38:00 | 57.957419 | 9.526122 | 2.0 | 16.921 | 2 | 43.449 | 17.081 | 33.666 | 2 |
| 2025-09-10T22:39:00 | 57.956942 | 9.526810 | 2.0 | 16.921 | 2 | 43.449 | 17.081 | 33.666 | 2 |
| 2025-09-10T22:40:00 | 57.956473 | 9.527492 | 2.0 | 16.923 | 2 | 43.451 | 17.082 | 33.667 | 2 |
| 2025-09-10T22:41:00 | 57.956027 | 9.528110 | 2.0 | 16.923 | 2 | 43.454 | 17.083 | 33.669 | 2 |
| 2025-09-10T22:42:00 | 57.955583 | 9.528729 | 2.0 | 16.921 | 2 | 43.453 | 17.083 | 33.668 | 2 |
| 2025-09-10T22:43:00 | 57.955104 | 9.529238 | 2.0 | 16.922 | 2 | 43.433 | 17.082 | 33.652 | 2 |
| 2025-09-10T22:44:00 | 57.954627 | 9.529722 | 2.0 | 16.921 | 2 | 43.450 | 17.082 | 33.666 | 2 |
| 2025-09-10T22:45:00 | 57.954160 | 9.530200 | 2.0 | 16.920 | 2 | 43.448 | 17.081 | 33.665 | 2 |
| 2025-09-10T22:46:00 | 57.953694 | 9.530656 | 2.0 | 16.918 | 2 | 43.445 | 17.080 | 33.664 | 2 |
| 2025-09-10T22:47:00 | 57.953230 | 9.531109 | 2.0 | 16.916 | 2 | 43.400 | 17.078 | 33.626 | 2 |
| 2025-09-10T22:48:00 | 57.952752 | 9.531621 | 2.0 | 16.916 | 2 | 43.440 | 17.076 | 33.663 | 2 |
| 2025-09-10T22:49:00 | 57.952260 | 9.532127 | 2.0 | 16.912 | 2 | 43.440 | 17.076 | 33.663 | 2 |
| 2025-09-10T22:50:00 | 57.951756 | 9.532648 | 2.0 | 16.908 | 2 | 43.436 | 17.072 | 33.663 | 2 |
| 2025-09-10T22:51:00 | 57.951238 | 9.533188 | 2.0 | 16.907 | 2 | 43.238 | 17.068 | 33.494 | 2 |
| 2025-09-10T22:52:00 | 57.950725 | 9.533686 | 2.0 | 16.906 | 2 | 43.380 | 17.068 | 33.617 | 2 |
| 2025-09-10T22:53:00 | 57.950196 | 9.534269 | 2.0 | 16.906 | 2 | 43.165 | 17.066 | 33.433 | 2 |
| 2025-09-10T22:54:00 | 57.949641 | 9.534841 | 2.0 | 16.898 | 2 | 43.386 | 17.065 | 33.625 | 2 |
| 2025-09-10T22:55:00 | 57.949071 | 9.535467 | 2.0 | 16.899 | 2 | 43.093 | 17.059 | 33.376 | 2 |
| 2025-09-10T22:56:00 | 57.948506 | 9.536044 | 2.0 | 16.898 | 2 | 43.408 | 17.060 | 33.648 | 2 |
| 2025-09-10T22:57:00 | 57.947945 | 9.536664 | 2.0 | 16.893 | 2 | 43.241 | 17.058 | 33.505 | 2 |
| 2025-09-10T22:58:00 | 57.947374 | 9.537263 | 2.0 | 16.881 | 2 | 43.400 | 17.052 | 33.648 | 2 |
| 2025-09-10T22:59:00 | 57.946830 | 9.537812 | 2.0 | 16.877 | 2 | 43.303 | 17.041 | 33.573 | 2 |
| 2025-09-10T23:00:00 | 57.946292 | 9.538372 | 2.0 | 16.878 | 2 | 43.377 | 17.038 | 33.640 | 2 |
| 2025-09-10T23:01:00 | 57.945742 | 9.538966 | 2.0 | 16.866 | 2 | 43.309 | 17.036 | 33.583 | 2 |
| 2025-09-10T23:02:00 | 57.945183 | 9.539554 | 2.0 | 16.868 | 2 | 43.171 | 17.027 | 33.470 | 2 |
| 2025-09-10T23:03:00 | 57.944640 | 9.540127 | 2.0 | 16.862 | 2 | 43.349 | 17.027 | 33.625 | 2 |
| 2025-09-10T23:04:00 | 57.944095 | 9.540714 | 2.0 | 16.858 | 2 | 43.322 | 17.022 | 33.605 | 2 |
| 2025-09-10T23:05:00 | 57.943536 | 9.541333 | 2.0 | 16.855 | 2 | 43.232 | 17.020 | 33.529 | 2 |
| 2025-09-10T23:06:00 | 57.942982 | 9.541931 | 2.0 | 16.854 | 2 | 43.342 | 17.017 | 33.627 | 2 |
| 2025-09-10T23:07:00 | 57.942404 | 9.542586 | 2.0 | 16.853 | 2 | 43.330 | 17.016 | 33.617 | 2 |
| 2025-09-10T23:08:00 | 57.941802 | 9.543237 | 2.0 | 16.850 | 2 | 43.342 | 17.013 | 33.630 | 2 |
| 2025-09-10T23:09:00 | 57.941146 | 9.543889 | 2.0 | 16.846 | 2 | 43.322 | 17.012 | 33.614 | 2 |
| 2025-09-10T23:10:00 | 57.940583 | 9.543685 | 2.0 | 16.839 | 2 | 43.323 | 17.006 | 33.620 | 2 |
| 2025-09-10T23:11:00 | 57.940697 | 9.542781 | 2.0 | 16.844 | 2 | 43.246 | 17.003 | 33.555 | 2 |
| 2025-09-10T23:12:00 | 57.941212 | 9.541653 | 2.0 | 16.839 | 2 | 43.138 | 17.005 | 33.460 | 2 |
| 2025-09-10T23:13:00 | 57.941782 | 9.539930 | 2.0 | 16.857 | 2 | 43.201 | 17.003 | 33.516 | 2 |
| 2025-09-10T23:14:00 | 57.942353 | 9.537771 | 2.0 | 16.878 | 2 | 43.174 | 17.021 | 33.478 | 2 |
| 2025-09-10T23:15:00 | 57.943001 | 9.535207 | 2.0 | 16.902 | 2 | 43.203 | 17.041 | 33.486 | 2 |
| 2025-09-10T23:16:00 | 57.943832 | 9.531973 | 2.0 | 16.924 | 2 | 43.217 | 17.065 | 33.479 | 2 |
| 2025-09-10T23:17:00 | 57.944859 | 9.528104 | 2.0 | 16.942 | 2 | 43.227 | 17.088 | 33.468 | 2 |
| 2025-09-10T23:18:00 | 57.945938 | 9.523805 | 2.0 | 16.955 | 2 | 43.255 | 17.105 | 33.478 | 2 |
| 2025-09-10T23:19:00 | 57.947021 | 9.519374 | 2.0 | 16.965 | 2 | 43.290 | 17.119 | 33.497 | 2 |
| 2025-09-10T23:20:00 | 57.948129 | 9.514934 | 2.0 | 16.969 | 2 | 43.282 | 17.128 | 33.483 | 2 |
| 2025-09-10T23:21:00 | 57.949266 | 9.510480 | 2.0 | 16.960 | 2 | 43.299 | 17.130 | 33.496 | 2 |
| 2025-09-10T23:22:00 | 57.950440 | 9.506025 | 2.0 | 16.931 | 2 | 43.289 | 17.119 | 33.496 | 2 |
| 2025-09-10T23:23:00 | 57.951617 | 9.501580 | 2.0 | 16.888 | 2 | 43.295 | 17.087 | 33.528 | 2 |
| 2025-09-10T23:24:00 | 57.953133 | 9.497430 | 2.0 | 16.852 | 2 | 43.278 | 17.049 | 33.545 | 2 |
| 2025-09-10T23:25:00 | 57.955013 | 9.493694 | 2.0 | 16.796 | 2 | 43.218 | 17.007 | 33.528 | 2 |
| 2025-09-10T23:26:00 | 57.957125 | 9.490294 | 2.0 | 16.737 | 2 | 43.175 | 16.954 | 33.535 | 2 |
| 2025-09-10T23:27:00 | 57.959567 | 9.487658 | 2.0 | 16.657 | 2 | 43.077 | 16.894 | 33.500 | 2 |
| 2025-09-10T23:28:00 | 57.962263 | 9.485806 | 2.0 | 16.620 | 2 | 43.007 | 16.822 | 33.499 | 2 |
| 2025-09-10T23:29:00 | 57.965118 | 9.484738 | 2.0 | 16.620 | 2 | 42.990 | 16.787 | 33.513 | 2 |
| 2025-09-10T23:30:00 | 57.968052 | 9.484590 | 2.0 | 16.684 | 2 | 42.997 | 16.801 | 33.507 | 2 |
| 2025-09-10T23:31:00 | 57.970948 | 9.485380 | 2.0 | 16.556 | 2 | 43.042 | 16.828 | 33.524 | 2 |
| 2025-09-10T23:32:00 | 57.973710 | 9.487096 | 2.0 | 16.473 | 2 | 42.802 | 16.708 | 33.415 | 2 |
| 2025-09-10T23:33:00 | 57.976236 | 9.489804 | 2.0 | 16.458 | 2 | 42.684 | 16.640 | 33.369 | 2 |
| 2025-09-10T23:34:00 | 57.978558 | 9.493155 | 2.0 | 16.472 | 2 | 42.624 | 16.630 | 33.325 | 2 |
| 2025-09-10T23:35:00 | 57.980540 | 9.497256 | 2.0 | 16.480 | 2 | 42.626 | 16.640 | 33.318 | 2 |
| 2025-09-10T23:36:00 | 57.982111 | 9.501962 | 2.0 | 16.470 | 2 | 42.625 | 16.644 | 33.314 | 2 |
| 2025-09-10T23:37:00 | 57.983301 | 9.507051 | 2.0 | 16.465 | 2 | 42.626 | 16.637 | 33.321 | 2 |
| 2025-09-10T23:38:00 | 57.983928 | 9.512465 | 2.0 | 16.474 | 2 | 42.619 | 16.633 | 33.318 | 2 |
| 2025-09-10T23:39:00 | 57.984061 | 9.517990 | 2.0 | 16.476 | 2 | 42.622 | 16.640 | 33.315 | 2 |
| 2025-09-10T23:40:00 | 57.983739 | 9.523426 | 2.0 | 16.463 | 2 | 42.615 | 16.639 | 33.309 | 2 |
| 2025-09-10T23:41:00 | 57.982901 | 9.528589 | 2.0 | 16.471 | 2 | 42.613 | 16.629 | 33.316 | 2 |
| 2025-09-10T23:42:00 | 57.981622 | 9.533346 | 2.0 | 16.502 | 2 | 42.649 | 16.642 | 33.337 | 2 |
| 2025-09-10T23:43:00 | 57.979965 | 9.537573 | 2.0 | 16.522 | 2 | 42.713 | 16.667 | 33.372 | 2 |
| 2025-09-10T23:44:00 | 57.978017 | 9.541270 | 2.0 | 16.560 | 2 | 42.792 | 16.691 | 33.421 | 2 |
| 2025-09-10T23:45:00 | 57.975808 | 9.544363 | 2.0 | 16.736 | 2 | 42.932 | 16.740 | 33.502 | 2 |
| 2025-09-10T23:46:00 | 57.973405 | 9.546761 | 2.0 | 16.869 | 2 | 43.235 | 16.935 | 33.603 | 2 |
| 2025-09-10T23:47:00 | 57.970834 | 9.548093 | 2.0 | 16.903 | 2 | 43.393 | 17.027 | 33.663 | 2 |
| 2025-09-10T23:48:00 | 57.968227 | 9.548887 | 2.0 | 16.924 | 2 | 43.434 | 17.064 | 33.668 | 2 |
| 2025-09-10T23:49:00 | 57.965636 | 9.548904 | 2.0 | 16.937 | 2 | 43.450 | 17.085 | 33.664 | 2 |
| 2025-09-10T23:50:00 | 57.963130 | 9.548066 | 2.0 | 16.946 | 2 | 43.458 | 17.098 | 33.660 | 2 |
| 2025-09-10T23:51:00 | 57.960742 | 9.546634 | 2.0 | 16.948 | 2 | 43.457 | 17.107 | 33.652 | 2 |
| 2025-09-10T23:52:00 | 57.958495 | 9.544634 | 2.0 | 16.947 | 2 | 43.440 | 17.108 | 33.636 | 2 |
| 2025-09-10T23:53:00 | 57.956467 | 9.541968 | 2.0 | 16.953 | 2 | 43.428 | 17.109 | 33.625 | 2 |
| 2025-09-10T23:54:00 | 57.954639 | 9.538842 | 2.0 | 16.958 | 2 | 43.427 | 17.116 | 33.618 | 2 |
| 2025-09-10T23:55:00 | 57.953092 | 9.535229 | 2.0 | 16.966 | 2 | 43.429 | 17.121 | 33.616 | 2 |
| 2025-09-10T23:56:00 | 57.951862 | 9.531201 | 2.0 | 16.970 | 2 | 43.438 | 17.129 | 33.617 | 2 |
| 2025-09-10T23:57:00 | 57.950906 | 9.526911 | 2.0 | 16.970 | 2 | 43.437 | 17.131 | 33.614 | 2 |
| 2025-09-10T23:58:00 | 57.950275 | 9.522412 | 2.0 | 16.970 | 2 | 43.427 | 17.132 | 33.605 | 2 |
| 2025-09-10T23:59:00 | 57.950054 | 9.517737 | 2.0 | 16.958 | 2 | 43.416 | 17.131 | 33.596 | 2 |
| 2025-09-11T00:00:00 | 57.950116 | 9.512990 | 2.0 | 16.936 | 2 | 43.405 | 17.116 | 33.599 | 2 |
| 2025-09-11T00:01:00 | 57.950634 | 9.508297 | 2.0 | 16.912 | 2 | 43.385 | 17.096 | 33.598 | 2 |
| 2025-09-11T00:02:00 | 57.951562 | 9.503762 | 2.0 | 16.887 | 2 | 43.351 | 17.072 | 33.589 | 2 |
| 2025-09-11T00:03:00 | 57.952867 | 9.499476 | 2.0 | 16.838 | 2 | 43.244 | 17.043 | 33.520 | 2 |
| 2025-09-11T00:04:00 | 57.954427 | 9.495411 | 2.0 | 16.714 | 2 | 43.208 | 16.982 | 33.540 | 2 |
| 2025-09-11T00:05:00 | 57.956449 | 9.491996 | 2.0 | 16.633 | 2 | 43.089 | 16.872 | 33.528 | 2 |
| 2025-09-11T00:06:00 | 57.959181 | 9.490566 | 2.0 | 16.544 | 2 | 43.026 | 16.789 | 33.543 | 2 |
| 2025-09-11T00:07:00 | 57.962083 | 9.491138 | 2.0 | 16.535 | 2 | 42.917 | 16.715 | 33.510 | 2 |
| 2025-09-11T00:08:00 | 57.964601 | 9.494056 | 2.0 | 16.549 | 2 | 42.911 | 16.706 | 33.512 | 2 |
| 2025-09-11T00:09:00 | 57.966374 | 9.498535 | 2.0 | 16.578 | 2 | 42.954 | 16.721 | 33.537 | 2 |
| 2025-09-11T00:10:00 | 57.966859 | 9.503946 | 2.0 | 16.629 | 2 | 42.968 | 16.750 | 33.525 | 2 |
| 2025-09-11T00:11:00 | 57.966228 | 9.509240 | 2.0 | 16.684 | 2 | 43.053 | 16.799 | 33.558 | 2 |
| 2025-09-11T00:12:00 | 57.965690 | 9.514641 | 2.0 | 16.740 | 2 | 43.112 | 16.855 | 33.563 | 2 |
| 2025-09-11T00:13:00 | 57.965267 | 9.520125 | 2.0 | 16.780 | 2 | 43.183 | 16.906 | 33.582 | 2 |
| 2025-09-11T00:14:00 | 57.964867 | 9.525649 | 2.0 | 16.833 | 2 | 43.227 | 16.949 | 33.584 | 2 |
| 2025-09-11T00:15:00 | 57.964484 | 9.531189 | 2.0 | 16.876 | 2 | 43.293 | 16.998 | 33.600 | 2 |
| 2025-09-11T00:16:00 | 57.964164 | 9.536753 | 2.0 | 16.908 | 2 | 43.346 | 17.042 | 33.610 | 2 |
| 2025-09-11T00:17:00 | 57.963843 | 9.542344 | 2.0 | 16.927 | 2 | 43.380 | 17.070 | 33.616 | 2 |
| 2025-09-11T00:18:00 | 57.963558 | 9.547964 | 2.0 | 16.937 | 2 | 43.395 | 17.088 | 33.614 | 2 |
| 2025-09-11T00:19:00 | 57.963232 | 9.553589 | 2.0 | 16.945 | 2 | 43.403 | 17.099 | 33.611 | 2 |
| 2025-09-11T00:20:00 | 57.962904 | 9.559231 | 2.0 | 16.946 | 2 | 43.415 | 17.106 | 33.616 | 2 |
| 2025-09-11T00:21:00 | 57.962577 | 9.564873 | 2.0 | 16.948 | 2 | 43.419 | 17.107 | 33.619 | 2 |
| 2025-09-11T00:22:00 | 57.962250 | 9.570518 | 2.0 | 16.939 | 2 | 43.438 | 17.109 | 33.633 | 2 |
| 2025-09-11T00:23:00 | 57.961950 | 9.575982 | 2.0 | 16.918 | 2 | 43.442 | 17.100 | 33.644 | 2 |
| 2025-09-11T00:24:00 | 57.961654 | 9.580747 | 2.0 | 16.906 | 2 | 43.425 | 17.079 | 33.647 | 2 |
| 2025-09-11T00:25:00 | 57.961517 | 9.584768 | 2.0 | 16.897 | 2 | 43.418 | 17.067 | 33.651 | 2 |
| 2025-09-11T00:26:00 | 57.961357 | 9.588120 | 2.0 | 16.895 | 2 | 43.415 | 17.060 | 33.654 | 2 |
| 2025-09-11T00:27:00 | 57.961179 | 9.590971 | 2.0 | 16.888 | 2 | 43.414 | 17.056 | 33.657 | 2 |
| 2025-09-11T00:28:00 | 57.960913 | 9.593234 | 2.0 | 16.882 | 2 | 43.402 | 17.048 | 33.653 | 2 |
| 2025-09-11T00:29:00 | 57.960921 | 9.595197 | 2.0 | 16.885 | 2 | 43.398 | 17.045 | 33.652 | 2 |
| 2025-09-11T00:30:00 | 57.960878 | 9.596842 | 2.0 | 16.886 | 2 | 43.402 | 17.047 | 33.654 | 2 |
| 2025-09-11T00:31:00 | 57.960715 | 9.598089 | 2.0 | 16.880 | 2 | 43.404 | 17.046 | 33.657 | 2 |
| 2025-09-11T00:32:00 | 57.960578 | 9.599115 | 2.0 | 16.870 | 2 | 43.392 | 17.040 | 33.651 | 2 |
| 2025-09-11T00:33:00 | 57.960552 | 9.599805 | 2.0 | 16.824 | 2 | 43.233 | 17.020 | 33.530 | 2 |
| 2025-09-11T00:34:00 | 57.960608 | 9.600203 | 2.0 | 16.824 | 2 | 42.935 | 16.987 | 33.299 | 2 |
| 2025-09-11T00:35:00 | 57.960660 | 9.600564 | 2.0 | 16.830 | 2 | 42.933 | 16.986 | 33.298 | 2 |
| 2025-09-11T00:36:00 | 57.960669 | 9.600937 | 2.0 | 16.831 | 2 | 43.006 | 16.992 | 33.356 | 2 |
| 2025-09-11T00:37:00 | 57.960670 | 9.601231 | 2.0 | 16.833 | 2 | 43.044 | 16.995 | 33.387 | 2 |
| 2025-09-11T00:38:00 | 57.960649 | 9.601502 | 2.0 | 16.826 | 2 | 43.030 | 16.993 | 33.376 | 2 |
| 2025-09-11T00:39:00 | 57.960622 | 9.601750 | 2.0 | 16.832 | 2 | 42.988 | 16.989 | 33.343 | 2 |
| 2025-09-11T00:40:00 | 57.960610 | 9.601990 | 2.0 | 16.830 | 2 | 43.041 | 16.991 | 33.388 | 2 |
| 2025-09-11T00:41:00 | 57.960596 | 9.602208 | 2.0 | 16.832 | 2 | 43.057 | 16.992 | 33.401 | 2 |
| 2025-09-11T00:42:00 | 57.960574 | 9.602422 | 2.0 | 16.837 | 2 | 43.071 | 16.996 | 33.409 | 2 |
| 2025-09-11T00:43:00 | 57.960548 | 9.602612 | 2.0 | 16.832 | 2 | 43.067 | 16.998 | 33.404 | 2 |
| 2025-09-11T00:44:00 | 57.960530 | 9.602790 | 2.0 | 16.834 | 2 | 43.042 | 16.994 | 33.386 | 2 |
| 2025-09-11T00:45:00 | 57.960532 | 9.602895 | 2.0 | 16.834 | 2 | 43.063 | 16.995 | 33.403 | 2 |
| 2025-09-11T00:46:00 | 57.960550 | 9.602971 | 2.0 | 16.831 | 2 | 43.068 | 16.995 | 33.408 | 2 |
| 2025-09-11T00:47:00 | 57.960564 | 9.603070 | 2.0 | 16.825 | 2 | 43.044 | 16.990 | 33.391 | 2 |
| 2025-09-11T00:48:00 | 57.960566 | 9.603163 | 2.0 | 16.828 | 2 | 43.039 | 16.987 | 33.389 | 2 |
| 2025-09-11T00:49:00 | 57.960563 | 9.603251 | 2.0 | 16.836 | 2 | 43.080 | 16.992 | 33.421 | 2 |
| 2025-09-11T00:50:00 | 57.960552 | 9.603326 | 2.0 | 16.841 | 2 | 43.106 | 16.996 | 33.440 | 2 |
| 2025-09-11T00:51:00 | 57.960532 | 9.603406 | 2.0 | 16.839 | 2 | 43.153 | 17.003 | 33.475 | 2 |
| 2025-09-11T00:52:00 | 57.960514 | 9.603480 | 2.0 | 16.841 | 2 | 43.151 | 17.001 | 33.475 | 2 |
| 2025-09-11T00:53:00 | 57.960495 | 9.603548 | 2.0 | 16.839 | 2 | 43.152 | 17.002 | 33.475 | 2 |
| 2025-09-11T00:54:00 | 57.960473 | 9.603626 | 2.0 | 16.843 | 2 | 43.136 | 17.000 | 33.462 | 2 |
| 2025-09-11T00:55:00 | 57.960435 | 9.603674 | 2.0 | 16.849 | 2 | 43.157 | 17.005 | 33.477 | 2 |
| 2025-09-11T00:56:00 | 57.960383 | 9.603712 | 2.0 | 16.840 | 2 | 43.178 | 17.008 | 33.492 | 2 |
| 2025-09-11T00:57:00 | 57.960304 | 9.603706 | 2.0 | 16.826 | 2 | 43.157 | 17.001 | 33.480 | 2 |
| 2025-09-11T00:58:00 | 57.960176 | 9.603387 | 2.0 | 16.844 | 2 | 43.114 | 16.990 | 33.452 | 2 |
| 2025-09-11T00:59:00 | 57.960105 | 9.602644 | 2.0 | 16.859 | 2 | 43.200 | 17.007 | 33.512 | 2 |
| 2025-09-11T01:00:00 | 57.960151 | 9.601451 | 2.0 | 16.869 | 2 | 43.287 | 17.022 | 33.575 | 2 |
| 2025-09-11T01:01:00 | 57.960362 | 9.599826 | 2.0 | 16.871 | 2 | 43.309 | 17.031 | 33.587 | 2 |
| 2025-09-11T01:02:00 | 57.960653 | 9.597921 | 2.0 | 16.876 | 2 | 43.293 | 17.031 | 33.573 | 2 |
| 2025-09-11T01:03:00 | 57.961157 | 9.595544 | 2.0 | 16.896 | 2 | 43.282 | 17.039 | 33.557 | 2 |
| 2025-09-11T01:04:00 | 57.961994 | 9.592973 | 2.0 | 16.909 | 2 | 43.285 | 17.055 | 33.546 | 2 |
| 2025-09-11T01:05:00 | 57.963317 | 9.590134 | 2.0 | 16.929 | 2 | 43.315 | 17.075 | 33.555 | 2 |
| 2025-09-11T01:06:00 | 57.965259 | 9.587363 | 2.0 | 16.937 | 2 | 43.342 | 17.092 | 33.564 | 2 |
| 2025-09-11T01:07:00 | 57.967939 | 9.585982 | 2.0 | 16.931 | 2 | 43.339 | 17.096 | 33.559 | 2 |
| 2025-09-11T01:08:00 | 57.970873 | 9.585841 | 2.0 | 16.929 | 2 | 43.322 | 17.093 | 33.546 | 2 |
| 2025-09-11T01:09:00 | 57.973850 | 9.586229 | 2.0 | 16.924 | 2 | 43.339 | 17.091 | 33.563 | 2 |
| 2025-09-11T01:10:00 | 57.976833 | 9.586285 | 2.0 | 16.913 | 2 | 43.346 | 17.088 | 33.571 | 2 |
| 2025-09-11T01:11:00 | 57.979825 | 9.586201 | 2.0 | 16.896 | 2 | 43.331 | 17.075 | 33.569 | 2 |
| 2025-09-11T01:12:00 | 57.982824 | 9.586174 | 2.0 | 16.877 | 2 | 43.332 | 17.060 | 33.582 | 2 |
| 2025-09-11T01:13:00 | 57.985831 | 9.586158 | 2.0 | 16.850 | 2 | 43.317 | 17.039 | 33.587 | 2 |
| 2025-09-11T01:14:00 | 57.988836 | 9.586129 | 2.0 | 16.791 | 2 | 43.308 | 17.007 | 33.606 | 2 |
| 2025-09-11T01:15:00 | 57.991834 | 9.585979 | 2.0 | 16.584 | 2 | 43.208 | 16.930 | 33.583 | 2 |
| 2025-09-11T01:16:00 | 57.994835 | 9.585869 | 2.0 | 16.484 | 2 | 42.768 | 16.737 | 33.361 | 2 |
| 2025-09-11T01:17:00 | 57.997838 | 9.586058 | 2.0 | 16.470 | 2 | 42.590 | 16.659 | 33.271 | 2 |
| 2025-09-11T01:18:00 | 58.000838 | 9.586075 | 2.0 | 16.485 | 2 | 42.527 | 16.641 | 33.231 | 2 |
| 2025-09-11T01:19:00 | 58.003818 | 9.586196 | 2.0 | 16.487 | 2 | 42.564 | 16.653 | 33.253 | 2 |
| 2025-09-11T01:20:00 | 58.006806 | 9.586163 | 2.0 | 16.526 | 2 | 42.528 | 16.658 | 33.218 | 2 |
| 2025-09-11T01:21:00 | 58.009786 | 9.586132 | 2.0 | 16.597 | 2 | 42.433 | 16.708 | 33.093 | 2 |
| 2025-09-11T01:22:00 | 58.012771 | 9.586224 | 2.0 | 16.624 | 2 | 42.312 | 16.767 | 32.939 | 2 |
| 2025-09-11T01:23:00 | 58.015752 | 9.586244 | 2.0 | 16.633 | 2 | 42.236 | 16.789 | 32.855 | 2 |
| 2025-09-11T01:24:00 | 58.018729 | 9.586255 | 2.0 | 16.700 | 2 | 42.134 | 16.808 | 32.751 | 2 |
| 2025-09-11T01:25:00 | 58.021701 | 9.586140 | 2.0 | 16.756 | 2 | 42.089 | 16.875 | 32.658 | 2 |
| 2025-09-11T01:26:00 | 58.024682 | 9.586194 | 2.0 | 16.771 | 2 | 42.064 | 16.920 | 32.599 | 2 |
| 2025-09-11T01:27:00 | 58.027652 | 9.586200 | 2.0 | 16.800 | 2 | 41.960 | 16.935 | 32.497 | 2 |
| 2025-09-11T01:28:00 | 58.030620 | 9.586133 | 2.0 | 16.819 | 2 | 41.928 | 16.967 | 32.444 | 2 |
| 2025-09-11T01:29:00 | 58.033607 | 9.586132 | 2.0 | 16.807 | 2 | 41.893 | 16.979 | 32.404 | 2 |
| 2025-09-11T01:30:00 | 58.036577 | 9.586175 | 2.0 | 16.764 | 2 | 41.840 | 16.964 | 32.370 | 2 |
| 2025-09-11T01:31:00 | 58.039504 | 9.586997 | 2.0 | 16.710 | 2 | 41.879 | 16.917 | 32.442 | 2 |
| 2025-09-11T01:32:00 | 58.041596 | 9.590760 | 2.0 | 16.709 | 2 | 41.948 | 16.872 | 32.538 | 2 |
| 2025-09-11T01:33:00 | 58.042190 | 9.595978 | 2.0 | 16.741 | 2 | 41.976 | 16.878 | 32.557 | 2 |
| 2025-09-11T01:34:00 | 58.041237 | 9.600720 | 2.0 | 16.764 | 2 | 41.937 | 16.907 | 32.500 | 2 |
| 2025-09-11T01:35:00 | 58.039183 | 9.603537 | 2.0 | 16.776 | 2 | 41.930 | 16.929 | 32.476 | 2 |
| 2025-09-11T01:36:00 | 58.036846 | 9.605204 | 2.0 | 16.775 | 2 | 41.926 | 16.937 | 32.466 | 2 |
| 2025-09-11T01:37:00 | 58.034490 | 9.606925 | 2.0 | 16.764 | 2 | 41.908 | 16.935 | 32.452 | 2 |
| 2025-09-11T01:38:00 | 58.032091 | 9.608465 | 2.0 | 16.752 | 2 | 41.875 | 16.924 | 32.433 | 2 |
| 2025-09-11T01:39:00 | 58.029690 | 9.610064 | 2.0 | 16.748 | 2 | 41.937 | 16.915 | 32.494 | 2 |
| 2025-09-11T01:40:00 | 58.027285 | 9.611680 | 2.0 | 16.721 | 2 | 41.994 | 16.908 | 32.549 | 2 |
| 2025-09-11T01:41:00 | 58.024897 | 9.613307 | 2.0 | 16.649 | 2 | 42.015 | 16.872 | 32.596 | 2 |
| 2025-09-11T01:42:00 | 58.022526 | 9.615008 | 2.0 | 16.613 | 2 | 42.070 | 16.813 | 32.692 | 2 |
| 2025-09-11T01:43:00 | 58.020122 | 9.616392 | 2.0 | 16.612 | 2 | 42.169 | 16.780 | 32.804 | 2 |
| 2025-09-11T01:44:00 | 58.017647 | 9.617062 | 2.0 | 16.608 | 2 | 42.313 | 16.778 | 32.931 | 2 |
| 2025-09-11T01:45:00 | 58.015140 | 9.617472 | 2.0 | 16.542 | 2 | 42.385 | 16.765 | 33.005 | 2 |
| 2025-09-11T01:46:00 | 58.012618 | 9.617848 | 2.0 | 16.487 | 2 | 42.442 | 16.698 | 33.109 | 2 |
| 2025-09-11T01:47:00 | 58.010116 | 9.617517 | 2.0 | 16.460 | 2 | 42.517 | 16.653 | 33.212 | 2 |
| 2025-09-11T01:48:00 | 58.007680 | 9.616374 | 2.0 | 16.453 | 2 | 42.440 | 16.627 | 33.166 | 2 |
| 2025-09-11T01:49:00 | 58.005358 | 9.614532 | 2.0 | 16.454 | 2 | 42.447 | 16.621 | 33.178 | 2 |
| 2025-09-11T01:50:00 | 58.003209 | 9.612034 | 2.0 | 16.459 | 2 | 42.429 | 16.621 | 33.162 | 2 |
| 2025-09-11T01:51:00 | 58.001286 | 9.608820 | 2.0 | 16.461 | 2 | 42.459 | 16.625 | 33.185 | 2 |
| 2025-09-11T01:52:00 | 57.999664 | 9.604989 | 2.0 | 16.470 | 2 | 42.510 | 16.629 | 33.226 | 2 |
| 2025-09-11T01:53:00 | 57.998382 | 9.600647 | 2.0 | 16.493 | 2 | 42.517 | 16.640 | 33.223 | 2 |
| 2025-09-11T01:54:00 | 57.997464 | 9.595865 | 2.0 | 16.556 | 2 | 42.594 | 16.670 | 33.265 | 2 |
| 2025-09-11T01:55:00 | 57.997010 | 9.590792 | 2.0 | 16.531 | 2 | 42.758 | 16.714 | 33.372 | 2 |
| 2025-09-11T01:56:00 | 57.997068 | 9.585612 | 2.0 | 16.514 | 2 | 42.745 | 16.691 | 33.380 | 2 |
| 2025-09-11T01:57:00 | 57.997647 | 9.580541 | 2.0 | 16.512 | 2 | 42.727 | 16.680 | 33.373 | 2 |
| 2025-09-11T01:58:00 | 57.998532 | 9.575614 | 2.0 | 16.474 | 2 | 42.690 | 16.672 | 33.347 | 2 |
| 2025-09-11T01:59:00 | 57.999417 | 9.570722 | 2.0 | 16.471 | 2 | 42.599 | 16.637 | 33.297 | 2 |
| 2025-09-11T02:00:00 | 58.001044 | 9.566509 | 2.0 | 16.484 | 2 | 42.571 | 16.637 | 33.273 | 2 |
| 2025-09-11T02:01:00 | 58.003130 | 9.562948 | 2.0 | 16.514 | 2 | 42.572 | 16.654 | 33.259 | 2 |
| 2025-09-11T02:02:00 | 58.005373 | 9.559669 | 2.0 | 16.524 | 2 | 42.614 | 16.680 | 33.274 | 2 |
| 2025-09-11T02:03:00 | 58.007988 | 9.557382 | 2.0 | 16.530 | 2 | 42.617 | 16.689 | 33.270 | 2 |
| 2025-09-11T02:04:00 | 58.010825 | 9.556113 | 2.0 | 16.613 | 2 | 42.568 | 16.699 | 33.218 | 2 |
| 2025-09-11T02:05:00 | 58.013748 | 9.555782 | 2.0 | 16.661 | 2 | 42.298 | 16.785 | 32.913 | 2 |
| 2025-09-11T02:06:00 | 58.016681 | 9.556652 | 2.0 | 16.663 | 2 | 42.268 | 16.822 | 32.856 | 2 |
| 2025-09-11T02:07:00 | 58.019560 | 9.557966 | 2.0 | 16.682 | 2 | 42.242 | 16.828 | 32.829 | 2 |
| 2025-09-11T02:08:00 | 58.022247 | 9.560367 | 2.0 | 16.700 | 2 | 42.202 | 16.848 | 32.778 | 2 |
| 2025-09-11T02:09:00 | 58.024571 | 9.563872 | 2.0 | 16.744 | 2 | 42.153 | 16.863 | 32.723 | 2 |
| 2025-09-11T02:10:00 | 58.026579 | 9.568078 | 2.0 | 16.788 | 2 | 42.153 | 16.922 | 32.675 | 2 |
| 2025-09-11T02:11:00 | 58.028181 | 9.572888 | 2.0 | 16.787 | 2 | 42.133 | 16.949 | 32.636 | 2 |
| 2025-09-11T02:12:00 | 58.029207 | 9.578198 | 2.0 | 16.794 | 2 | 42.087 | 16.951 | 32.594 | 2 |
| 2025-09-11T02:13:00 | 58.029740 | 9.583715 | 2.0 | 16.791 | 2 | 42.085 | 16.955 | 32.589 | 2 |
| 2025-09-11T02:14:00 | 58.029727 | 9.589247 | 2.0 | 16.786 | 2 | 42.083 | 16.952 | 32.590 | 2 |
| 2025-09-11T02:15:00 | 58.029176 | 9.594635 | 2.0 | 16.784 | 2 | 42.089 | 16.949 | 32.598 | 2 |
| 2025-09-11T02:16:00 | 58.028094 | 9.599650 | 2.0 | 16.781 | 2 | 42.102 | 16.946 | 32.611 | 2 |
| 2025-09-11T02:17:00 | 58.026540 | 9.604144 | 2.0 | 16.749 | 2 | 42.115 | 16.942 | 32.626 | 2 |
| 2025-09-11T02:18:00 | 58.024732 | 9.608210 | 2.0 | 16.685 | 2 | 42.107 | 16.896 | 32.656 | 2 |
| 2025-09-11T02:19:00 | 58.022652 | 9.611594 | 2.0 | 16.632 | 2 | 42.161 | 16.837 | 32.751 | 2 |
| 2025-09-11T02:20:00 | 58.020615 | 9.615023 | 2.0 | 16.628 | 2 | 42.259 | 16.799 | 32.867 | 2 |
| 2025-09-11T02:21:00 | 58.019797 | 9.620008 | 2.0 | 16.628 | 2 | 42.345 | 16.795 | 32.945 | 2 |
| 2025-09-11T02:22:00 | 58.020549 | 9.625198 | 2.0 | 16.622 | 2 | 42.403 | 16.790 | 33.000 | 2 |
| 2025-09-11T02:23:00 | 58.022618 | 9.628994 | 2.0 | 16.612 | 2 | 42.400 | 16.784 | 33.002 | 2 |
| 2025-09-11T02:24:00 | 58.025358 | 9.629939 | 2.0 | 16.620 | 2 | 42.354 | 16.780 | 32.965 | 2 |
| 2025-09-11T02:25:00 | 58.027798 | 9.627823 | 2.0 | 16.623 | 2 | 42.261 | 16.784 | 32.881 | 2 |
| 2025-09-11T02:26:00 | 58.030186 | 9.625141 | 2.0 | 16.700 | 2 | 42.161 | 16.796 | 32.784 | 2 |
| 2025-09-11T02:27:00 | 58.032632 | 9.622492 | 2.0 | 16.766 | 2 | 42.104 | 16.875 | 32.671 | 2 |
| 2025-09-11T02:28:00 | 58.035174 | 9.620106 | 2.0 | 16.784 | 2 | 42.048 | 16.927 | 32.580 | 2 |
| 2025-09-11T02:29:00 | 58.037658 | 9.617546 | 2.0 | 16.823 | 2 | 41.985 | 16.953 | 32.504 | 2 |
| 2025-09-11T02:30:00 | 58.040158 | 9.615048 | 2.0 | 16.823 | 2 | 41.979 | 16.984 | 32.474 | 2 |
| 2025-09-11T02:31:00 | 58.042637 | 9.612503 | 2.0 | 16.806 | 2 | 41.842 | 16.983 | 32.357 | 2 |
| 2025-09-11T02:32:00 | 58.045105 | 9.609931 | 2.0 | 16.754 | 2 | 41.829 | 16.961 | 32.363 | 2 |
| 2025-09-11T02:33:00 | 58.047597 | 9.607443 | 2.0 | 16.715 | 2 | 41.752 | 16.915 | 32.334 | 2 |
| 2025-09-11T02:34:00 | 58.049698 | 9.605282 | 2.0 | 16.677 | 2 | 41.946 | 16.875 | 32.534 | 2 |
| 2025-09-11T02:35:00 | 58.051358 | 9.603785 | 2.0 | 16.665 | 2 | 41.835 | 16.839 | 32.467 | 2 |
| 2025-09-11T02:36:00 | 58.052696 | 9.602549 | 2.0 | 16.673 | 2 | 41.831 | 16.833 | 32.468 | 2 |
| 2025-09-11T02:37:00 | 58.053792 | 9.601374 | 2.0 | 16.681 | 2 | 41.936 | 16.836 | 32.557 | 2 |
| 2025-09-11T02:38:00 | 58.054673 | 9.600360 | 2.0 | 16.674 | 2 | 41.967 | 16.841 | 32.580 | 2 |
| 2025-09-11T02:39:00 | 58.054997 | 9.599333 | 2.0 | 16.676 | 2 | 41.924 | 16.836 | 32.546 | 2 |
| 2025-09-11T02:40:00 | 58.055054 | 9.598613 | 2.0 | 16.672 | 2 | 41.871 | 16.837 | 32.500 | 2 |
| 2025-09-11T02:41:00 | 58.055047 | 9.598166 | 2.0 | 16.673 | 2 | 41.879 | 16.835 | 32.508 | 2 |
| 2025-09-11T02:42:00 | 58.055055 | 9.597975 | 2.0 | 16.676 | 2 | 41.879 | 16.835 | 32.508 | 2 |
| 2025-09-11T02:43:00 | 58.055074 | 9.597794 | 2.0 | 16.681 | 2 | 41.893 | 16.838 | 32.518 | 2 |
| 2025-09-11T02:44:00 | 58.055080 | 9.597722 | 2.0 | 16.682 | 2 | 41.896 | 16.842 | 32.517 | 2 |
| 2025-09-11T02:45:00 | 58.055085 | 9.597684 | 2.0 | 16.685 | 2 | 41.902 | 16.844 | 32.521 | 2 |
| 2025-09-11T02:46:00 | 58.055118 | 9.597627 | 2.0 | 16.685 | 2 | 41.930 | 16.847 | 32.543 | 2 |
| 2025-09-11T02:47:00 | 58.055148 | 9.597623 | 2.0 | 16.683 | 2 | 41.937 | 16.845 | 32.550 | 2 |
| 2025-09-11T02:48:00 | 58.055162 | 9.597718 | 2.0 | 16.674 | 2 | 41.934 | 16.842 | 32.550 | 2 |
| 2025-09-11T02:49:00 | 58.055188 | 9.597878 | 2.0 | 16.676 | 2 | 41.928 | 16.837 | 32.549 | 2 |
| 2025-09-11T02:50:00 | 58.055235 | 9.597993 | 2.0 | 16.676 | 2 | 41.904 | 16.837 | 32.528 | 2 |
| 2025-09-11T02:51:00 | 58.055304 | 9.598036 | 2.0 | 16.681 | 2 | 41.912 | 16.838 | 32.534 | 2 |
| 2025-09-11T02:52:00 | 58.055346 | 9.598091 | 2.0 | 16.678 | 2 | 41.921 | 16.841 | 32.540 | 2 |
| 2025-09-11T02:53:00 | 58.055383 | 9.598248 | 2.0 | 16.681 | 2 | 41.934 | 16.840 | 32.552 | 2 |
| 2025-09-11T02:54:00 | 58.055399 | 9.598491 | 2.0 | 16.683 | 2 | 41.946 | 16.842 | 32.561 | 2 |
| 2025-09-11T02:55:00 | 58.055419 | 9.598778 | 2.0 | 16.687 | 2 | 41.956 | 16.845 | 32.567 | 2 |
| 2025-09-11T02:56:00 | 58.055460 | 9.599039 | 2.0 | 16.690 | 2 | 41.965 | 16.848 | 32.572 | 2 |
| 2025-09-11T02:57:00 | 58.055498 | 9.599186 | 2.0 | 16.692 | 2 | 41.959 | 16.851 | 32.564 | 2 |
| 2025-09-11T02:58:00 | 58.055549 | 9.599239 | 2.0 | 16.698 | 2 | 41.946 | 16.853 | 32.552 | 2 |
| 2025-09-11T02:59:00 | 58.055594 | 9.599304 | 2.0 | 16.705 | 2 | 41.885 | 16.860 | 32.493 | 2 |
| 2025-09-11T03:00:00 | 58.055599 | 9.599453 | 2.0 | 16.708 | 2 | 41.869 | 16.866 | 32.474 | 2 |
| 2025-09-11T03:01:00 | 58.055589 | 9.599681 | 2.0 | 16.714 | 2 | 41.867 | 16.870 | 32.469 | 2 |
| 2025-09-11T03:02:00 | 58.055605 | 9.599863 | 2.0 | 16.716 | 2 | 41.856 | 16.876 | 32.455 | 2 |
| 2025-09-11T03:03:00 | 58.055662 | 9.599949 | 2.0 | 16.718 | 2 | 41.856 | 16.877 | 32.454 | 2 |
| 2025-09-11T03:04:00 | 58.055714 | 9.600037 | 2.0 | 16.719 | 2 | 41.861 | 16.878 | 32.458 | 2 |
| 2025-09-11T03:05:00 | 58.055688 | 9.600221 | 2.0 | 16.719 | 2 | 41.875 | 16.879 | 32.469 | 2 |
| 2025-09-11T03:06:00 | 58.055647 | 9.600410 | 2.0 | 16.723 | 2 | 41.891 | 16.880 | 32.482 | 2 |
| 2025-09-11T03:07:00 | 58.055637 | 9.600573 | 2.0 | 16.728 | 2 | 41.891 | 16.885 | 32.478 | 2 |
| 2025-09-11T03:08:00 | 58.055658 | 9.600694 | 2.0 | 16.734 | 2 | 41.893 | 16.890 | 32.476 | 2 |
| 2025-09-11T03:09:00 | 58.055714 | 9.600775 | 2.0 | 16.738 | 2 | 41.904 | 16.895 | 32.481 | 2 |
| 2025-09-11T03:10:00 | 58.055754 | 9.600868 | 2.0 | 16.740 | 2 | 41.908 | 16.899 | 32.481 | 2 |
| 2025-09-11T03:11:00 | 58.055755 | 9.601074 | 2.0 | 16.746 | 2 | 41.915 | 16.902 | 32.485 | 2 |
| 2025-09-11T03:12:00 | 58.055759 | 9.601263 | 2.0 | 16.756 | 2 | 41.913 | 16.909 | 32.478 | 2 |
| 2025-09-11T03:13:00 | 58.055777 | 9.601401 | 2.0 | 16.766 | 2 | 41.909 | 16.917 | 32.468 | 2 |
| 2025-09-11T03:14:00 | 58.055754 | 9.601592 | 2.0 | 16.771 | 2 | 41.914 | 16.926 | 32.465 | 2 |
| 2025-09-11T03:15:00 | 58.055675 | 9.601851 | 2.0 | 16.774 | 2 | 41.928 | 16.932 | 32.472 | 2 |
| 2025-09-11T03:16:00 | 58.055419 | 9.602252 | 2.0 | 16.782 | 2 | 41.940 | 16.936 | 32.479 | 2 |
| 2025-09-11T03:17:00 | 58.055327 | 9.603315 | 2.0 | 16.760 | 2 | 41.958 | 16.938 | 32.493 | 2 |
| 2025-09-11T03:18:00 | 58.055893 | 9.604365 | 2.0 | 16.757 | 2 | 42.000 | 16.919 | 32.545 | 2 |
| 2025-09-11T03:19:00 | 58.057110 | 9.604703 | 2.0 | 16.724 | 2 | 41.981 | 16.908 | 32.537 | 2 |
| 2025-09-11T03:20:00 | 58.058799 | 9.604847 | 2.0 | 16.704 | 2 | 41.971 | 16.885 | 32.547 | 2 |
| 2025-09-11T03:21:00 | 58.060746 | 9.604755 | 2.0 | 16.682 | 2 | 41.992 | 16.864 | 32.583 | 2 |
| 2025-09-11T03:22:00 | 58.062851 | 9.604679 | 2.0 | 16.697 | 2 | 41.959 | 16.843 | 32.571 | 2 |
| 2025-09-11T03:23:00 | 58.065065 | 9.604624 | 2.0 | 16.720 | 2 | 42.043 | 16.867 | 32.624 | 2 |
| 2025-09-11T03:24:00 | 58.067334 | 9.604536 | 2.0 | 16.723 | 2 | 42.085 | 16.882 | 32.649 | 2 |
| 2025-09-11T03:25:00 | 58.069622 | 9.604419 | 2.0 | 16.720 | 2 | 42.069 | 16.885 | 32.632 | 2 |
| 2025-09-11T03:26:00 | 58.071909 | 9.604389 | 2.0 | 16.713 | 2 | 42.051 | 16.882 | 32.619 | 2 |
| 2025-09-11T03:27:00 | 58.074213 | 9.604434 | 2.0 | 16.701 | 2 | 42.025 | 16.874 | 32.603 | 2 |
| 2025-09-11T03:28:00 | 58.076491 | 9.604405 | 2.0 | 16.700 | 2 | 41.986 | 16.864 | 32.577 | 2 |
| 2025-09-11T03:29:00 | 58.078512 | 9.604406 | 2.0 | 16.723 | 2 | 41.953 | 16.867 | 32.546 | 2 |
| 2025-09-11T03:30:00 | 58.079830 | 9.605540 | 2.0 | 16.753 | 2 | 41.960 | 16.891 | 32.533 | 2 |
| 2025-09-11T03:31:00 | 58.080171 | 9.606834 | 2.0 | 16.757 | 2 | 41.988 | 16.915 | 32.538 | 2 |
| 2025-09-11T03:32:00 | 58.080242 | 9.607499 | 2.0 | 16.759 | 2 | 41.991 | 16.917 | 32.539 | 2 |
| 2025-09-11T03:33:00 | 58.080145 | 9.608077 | 2.0 | 16.759 | 2 | 41.996 | 16.919 | 32.541 | 2 |
| 2025-09-11T03:34:00 | 58.079840 | 9.608557 | 2.0 | 16.756 | 2 | 42.000 | 16.919 | 32.545 | 2 |
| 2025-09-11T03:35:00 | 58.079316 | 9.609207 | 2.0 | 16.711 | 2 | 42.005 | 16.915 | 32.552 | 2 |
| 2025-09-11T03:36:00 | 58.078795 | 9.609828 | 2.0 | 16.701 | 2 | 41.935 | 16.869 | 32.529 | 2 |
| 2025-09-11T03:37:00 | 58.078316 | 9.610438 | 2.0 | 16.702 | 2 | 41.930 | 16.864 | 32.529 | 2 |
| 2025-09-11T03:38:00 | 58.077853 | 9.611028 | 2.0 | 16.709 | 2 | 41.942 | 16.866 | 32.538 | 2 |
| 2025-09-11T03:39:00 | 58.077419 | 9.611581 | 2.0 | 16.706 | 2 | 41.962 | 16.871 | 32.551 | 2 |
| 2025-09-11T03:40:00 | 58.077007 | 9.612060 | 2.0 | 16.700 | 2 | 41.972 | 16.866 | 32.564 | 2 |
| 2025-09-11T03:41:00 | 58.076599 | 9.612610 | 2.0 | 16.703 | 2 | 41.973 | 16.863 | 32.567 | 2 |
| 2025-09-11T03:42:00 | 58.076165 | 9.613195 | 2.0 | 16.700 | 2 | 41.977 | 16.865 | 32.569 | 2 |
| 2025-09-11T03:43:00 | 58.075747 | 9.613677 | 2.0 | 16.703 | 2 | 41.978 | 16.863 | 32.571 | 2 |
| 2025-09-11T03:44:00 | 58.075402 | 9.614231 | 2.0 | 16.704 | 2 | 41.990 | 16.865 | 32.580 | 2 |
| 2025-09-11T03:45:00 | 58.075043 | 9.614698 | 2.0 | 16.708 | 2 | 41.763 | 16.867 | 32.382 | 2 |
| 2025-09-11T03:46:00 | 58.074727 | 9.615120 | 2.0 | 16.709 | 2 | 42.014 | 16.869 | 32.598 | 2 |
| 2025-09-11T03:47:00 | 58.074398 | 9.615576 | 2.0 | 16.711 | 2 | 41.921 | 16.871 | 32.515 | 2 |
| 2025-09-11T03:48:00 | 58.074036 | 9.616087 | 2.0 | 16.711 | 2 | 42.030 | 16.872 | 32.609 | 2 |
| 2025-09-11T03:49:00 | 58.073663 | 9.616590 | 2.0 | 16.712 | 2 | 41.985 | 16.872 | 32.570 | 2 |
| 2025-09-11T03:50:00 | 58.073238 | 9.617182 | 2.0 | 16.715 | 2 | 42.033 | 16.875 | 32.609 | 2 |
| 2025-09-11T03:51:00 | 58.072814 | 9.617795 | 2.0 | 16.713 | 2 | 42.037 | 16.875 | 32.613 | 2 |
| 2025-09-11T03:52:00 | 58.072399 | 9.618362 | 2.0 | 16.714 | 2 | 41.676 | 16.874 | 32.301 | 2 |
| 2025-09-11T03:53:00 | 58.071982 | 9.618910 | 2.0 | 16.713 | 2 | 42.040 | 16.875 | 32.615 | 2 |
| 2025-09-11T03:54:00 | 58.071577 | 9.619418 | 2.0 | 16.714 | 2 | 41.705 | 16.874 | 32.326 | 2 |
| 2025-09-11T03:55:00 | 58.071140 | 9.619986 | 2.0 | 16.712 | 2 | 42.043 | 16.875 | 32.618 | 2 |
| 2025-09-11T03:56:00 | 58.070661 | 9.620616 | 2.0 | 16.710 | 2 | 42.042 | 16.874 | 32.618 | 2 |
| 2025-09-11T03:57:00 | 58.070165 | 9.621313 | 2.0 | 16.713 | 2 | 42.033 | 16.873 | 32.611 | 2 |
| 2025-09-11T03:58:00 | 58.069677 | 9.621962 | 2.0 | 16.714 | 2 | 42.037 | 16.874 | 32.613 | 2 |
| 2025-09-11T03:59:00 | 58.069209 | 9.622547 | 2.0 | 16.715 | 2 | 42.053 | 16.876 | 32.626 | 2 |
| 2025-09-11T04:00:00 | 58.068759 | 9.623199 | 2.0 | 16.718 | 2 | 41.941 | 16.877 | 32.528 | 2 |
| 2025-09-11T04:01:00 | 58.068301 | 9.623869 | 2.0 | 16.715 | 2 | 41.911 | 16.879 | 32.500 | 2 |
| 2025-09-11T04:02:00 | 58.067836 | 9.624531 | 2.0 | 16.714 | 2 | 41.832 | 16.877 | 32.433 | 2 |
| 2025-09-11T04:03:00 | 58.067372 | 9.625163 | 2.0 | 16.713 | 2 | 41.925 | 16.875 | 32.516 | 2 |
| 2025-09-11T04:04:00 | 58.066910 | 9.625794 | 2.0 | 16.713 | 2 | 41.940 | 16.875 | 32.529 | 2 |
| 2025-09-11T04:05:00 | 58.066438 | 9.626431 | 2.0 | 16.707 | 2 | 42.075 | 16.874 | 32.646 | 2 |
| 2025-09-11T04:06:00 | 58.065976 | 9.627115 | 2.0 | 16.702 | 2 | 41.947 | 16.868 | 32.540 | 2 |
| 2025-09-11T04:07:00 | 58.065513 | 9.627767 | 2.0 | 16.700 | 2 | 42.057 | 16.864 | 32.639 | 2 |
| 2025-09-11T04:08:00 | 58.065057 | 9.628424 | 2.0 | 16.680 | 2 | 41.956 | 16.860 | 32.555 | 2 |
| 2025-09-11T04:09:00 | 58.064617 | 9.629070 | 2.0 | 16.680 | 2 | 42.030 | 16.845 | 32.631 | 2 |
| 2025-09-11T04:10:00 | 58.064179 | 9.629637 | 2.0 | 16.680 | 2 | 41.968 | 16.843 | 32.579 | 2 |
| 2025-09-11T04:11:00 | 58.063748 | 9.630179 | 2.0 | 16.686 | 2 | 41.979 | 16.842 | 32.589 | 2 |
| 2025-09-11T04:12:00 | 58.063302 | 9.630807 | 2.0 | 16.698 | 2 | 41.943 | 16.850 | 32.551 | 2 |
| 2025-09-11T04:13:00 | 58.062800 | 9.631459 | 2.0 | 16.715 | 2 | 41.775 | 16.862 | 32.396 | 2 |
| 2025-09-11T04:14:00 | 58.062267 | 9.632135 | 2.0 | 16.730 | 2 | 41.907 | 16.877 | 32.498 | 2 |
| 2025-09-11T04:15:00 | 58.061728 | 9.632796 | 2.0 | 16.750 | 2 | 41.828 | 16.894 | 32.416 | 2 |
| 2025-09-11T04:16:00 | 58.061167 | 9.633485 | 2.0 | 16.770 | 2 | 41.781 | 16.913 | 32.360 | 2 |
| 2025-09-11T04:17:00 | 58.060588 | 9.634230 | 2.0 | 16.792 | 2 | 41.814 | 16.935 | 32.371 | 2 |
| 2025-09-11T04:18:00 | 58.059999 | 9.634993 | 2.0 | 16.813 | 2 | 41.870 | 16.956 | 32.403 | 2 |
| 2025-09-11T04:19:00 | 58.059408 | 9.635796 | 2.0 | 16.827 | 2 | 41.813 | 16.975 | 32.338 | 2 |
| 2025-09-11T04:20:00 | 58.058812 | 9.636595 | 2.0 | 16.836 | 2 | 41.817 | 16.988 | 32.331 | 2 |
| 2025-09-11T04:21:00 | 58.058228 | 9.637415 | 2.0 | 16.841 | 2 | 41.818 | 16.997 | 32.325 | 2 |
| 2025-09-11T04:22:00 | 58.057653 | 9.638186 | 2.0 | 16.844 | 2 | 41.838 | 17.002 | 32.338 | 2 |
| 2025-09-11T04:23:00 | 58.057079 | 9.638948 | 2.0 | 16.848 | 2 | 41.826 | 17.005 | 32.325 | 2 |
| 2025-09-11T04:24:00 | 58.056553 | 9.639665 | 2.0 | 16.851 | 2 | 41.851 | 17.009 | 32.344 | 2 |
| 2025-09-11T04:25:00 | 58.056072 | 9.640309 | 2.0 | 16.853 | 2 | 41.865 | 17.012 | 32.353 | 2 |
| 2025-09-11T04:26:00 | 58.055619 | 9.640992 | 2.0 | 16.851 | 2 | 41.882 | 17.013 | 32.367 | 2 |
| 2025-09-11T04:27:00 | 58.055188 | 9.641528 | 2.0 | 16.849 | 2 | 41.885 | 17.011 | 32.371 | 2 |
| 2025-09-11T04:28:00 | 58.054787 | 9.642153 | 2.0 | 16.847 | 2 | 41.904 | 17.009 | 32.389 | 2 |
| 2025-09-11T04:29:00 | 58.054316 | 9.642763 | 2.0 | 16.847 | 2 | 41.917 | 17.008 | 32.401 | 2 |
| 2025-09-11T04:30:00 | 58.053782 | 9.643395 | 2.0 | 16.840 | 2 | 41.942 | 17.007 | 32.424 | 2 |
| 2025-09-11T04:31:00 | 58.053201 | 9.644049 | 2.0 | 16.836 | 2 | 41.919 | 16.999 | 32.410 | 2 |
| 2025-09-11T04:32:00 | 58.052603 | 9.644728 | 2.0 | 16.839 | 2 | 41.939 | 16.998 | 32.428 | 2 |
| 2025-09-11T04:33:00 | 58.051966 | 9.645450 | 2.0 | 16.839 | 2 | 41.952 | 17.000 | 32.438 | 2 |
| 2025-09-11T04:34:00 | 58.051309 | 9.646149 | 2.0 | 16.838 | 2 | 41.965 | 16.999 | 32.450 | 2 |
| 2025-09-11T04:35:00 | 58.050634 | 9.646888 | 2.0 | 16.840 | 2 | 42.013 | 17.000 | 32.491 | 2 |
| 2025-09-11T04:36:00 | 58.049950 | 9.647629 | 2.0 | 16.836 | 2 | 42.024 | 17.000 | 32.500 | 2 |
| 2025-09-11T04:37:00 | 58.049308 | 9.648325 | 2.0 | 16.823 | 2 | 42.046 | 16.994 | 32.524 | 2 |
| 2025-09-11T04:38:00 | 58.048688 | 9.649010 | 2.0 | 16.817 | 2 | 42.047 | 16.983 | 32.534 | 2 |
| 2025-09-11T04:39:00 | 58.048081 | 9.649674 | 2.0 | 16.811 | 2 | 42.066 | 16.977 | 32.555 | 2 |
| 2025-09-11T04:40:00 | 58.047508 | 9.650356 | 2.0 | 16.804 | 2 | 42.066 | 16.971 | 32.560 | 2 |
| 2025-09-11T04:41:00 | 58.046916 | 9.651005 | 2.0 | 16.797 | 2 | 42.092 | 16.964 | 32.588 | 2 |
| 2025-09-11T04:42:00 | 58.046308 | 9.651663 | 2.0 | 16.791 | 2 | 42.089 | 16.957 | 32.591 | 2 |
| 2025-09-11T04:43:00 | 58.045690 | 9.652324 | 2.0 | 16.789 | 2 | 42.098 | 16.952 | 32.603 | 2 |
| 2025-09-11T04:44:00 | 58.045063 | 9.652962 | 2.0 | 16.783 | 2 | 42.098 | 16.948 | 32.606 | 2 |
| 2025-09-11T04:45:00 | 58.044424 | 9.653645 | 2.0 | 16.776 | 2 | 42.112 | 16.944 | 32.622 | 2 |
| 2025-09-11T04:46:00 | 58.043786 | 9.654311 | 2.0 | 16.769 | 2 | 42.118 | 16.936 | 32.633 | 2 |
| 2025-09-11T04:47:00 | 58.043145 | 9.654960 | 2.0 | 16.767 | 2 | 42.126 | 16.931 | 32.644 | 2 |
| 2025-09-11T04:48:00 | 58.042484 | 9.655648 | 2.0 | 16.761 | 2 | 42.133 | 16.928 | 32.653 | 2 |
| 2025-09-11T04:49:00 | 58.041818 | 9.656340 | 2.0 | 16.756 | 2 | 42.139 | 16.922 | 32.663 | 2 |
| 2025-09-11T04:50:00 | 58.041143 | 9.657051 | 2.0 | 16.759 | 2 | 42.151 | 16.919 | 32.676 | 2 |
| 2025-09-11T04:51:00 | 58.040457 | 9.657770 | 2.0 | 16.753 | 2 | 42.170 | 16.919 | 32.692 | 2 |
| 2025-09-11T04:52:00 | 58.039773 | 9.658467 | 2.0 | 16.748 | 2 | 42.185 | 16.915 | 32.708 | 2 |
| 2025-09-11T04:53:00 | 58.039110 | 9.659238 | 2.0 | 16.741 | 2 | 42.207 | 16.909 | 32.732 | 2 |
| 2025-09-11T04:54:00 | 58.038461 | 9.659996 | 2.0 | 16.738 | 2 | 42.210 | 16.903 | 32.740 | 2 |
| 2025-09-11T04:55:00 | 58.037818 | 9.660710 | 2.0 | 16.728 | 2 | 42.208 | 16.899 | 32.741 | 2 |
| 2025-09-11T04:56:00 | 58.037192 | 9.661425 | 2.0 | 16.710 | 2 | 42.198 | 16.887 | 32.742 | 2 |
| 2025-09-11T04:57:00 | 58.036571 | 9.662115 | 2.0 | 16.693 | 2 | 42.195 | 16.870 | 32.754 | 2 |
| 2025-09-11T04:58:00 | 58.035958 | 9.662789 | 2.0 | 16.664 | 2 | 42.170 | 16.849 | 32.749 | 2 |
| 2025-09-11T04:59:00 | 58.035337 | 9.663485 | 2.0 | 16.626 | 2 | 42.167 | 16.821 | 32.769 | 2 |
| 2025-09-11T05:00:00 | 58.034713 | 9.664186 | 2.0 | 16.622 | 2 | 42.253 | 16.791 | 32.868 | 2 |
| 2025-09-11T05:01:00 | 58.034097 | 9.664893 | 2.0 | 16.625 | 2 | 42.327 | 16.787 | 32.936 | 2 |
| 2025-09-11T05:02:00 | 58.033489 | 9.665616 | 2.0 | 16.626 | 2 | 42.382 | 16.788 | 32.983 | 2 |
| 2025-09-11T05:03:00 | 58.032868 | 9.666336 | 2.0 | 16.616 | 2 | 42.418 | 16.787 | 33.015 | 2 |
| 2025-09-11T05:04:00 | 58.032237 | 9.667093 | 2.0 | 16.609 | 2 | 42.433 | 16.778 | 33.036 | 2 |
| 2025-09-11T05:05:00 | 58.031604 | 9.667841 | 2.0 | 16.587 | 2 | 42.434 | 16.769 | 33.044 | 2 |
| 2025-09-11T05:06:00 | 58.030967 | 9.668515 | 2.0 | 16.548 | 2 | 42.407 | 16.745 | 33.040 | 2 |
| 2025-09-11T05:07:00 | 58.030339 | 9.669210 | 2.0 | 16.527 | 2 | 42.403 | 16.706 | 33.069 | 2 |
| 2025-09-11T05:08:00 | 58.029736 | 9.669982 | 2.0 | 16.535 | 2 | 42.584 | 16.697 | 33.234 | 2 |
| 2025-09-11T05:09:00 | 58.029145 | 9.670704 | 2.0 | 16.532 | 2 | 42.629 | 16.697 | 33.273 | 2 |
| 2025-09-11T05:10:00 | 58.028570 | 9.671436 | 2.0 | 16.532 | 2 | 42.628 | 16.696 | 33.273 | 2 |
| 2025-09-11T05:11:00 | 58.027995 | 9.672182 | 2.0 | 16.532 | 2 | 42.633 | 16.696 | 33.278 | 2 |
| 2025-09-11T05:12:00 | 58.027416 | 9.672959 | 2.0 | 16.527 | 2 | 42.636 | 16.694 | 33.282 | 2 |
| 2025-09-11T05:13:00 | 58.026828 | 9.673720 | 2.0 | 16.530 | 2 | 42.638 | 16.691 | 33.286 | 2 |
| 2025-09-11T05:14:00 | 58.026228 | 9.674456 | 2.0 | 16.531 | 2 | 42.645 | 16.693 | 33.291 | 2 |
| 2025-09-11T05:15:00 | 58.025620 | 9.675204 | 2.0 | 16.524 | 2 | 42.652 | 16.693 | 33.297 | 2 |
| 2025-09-11T05:16:00 | 58.025000 | 9.675928 | 2.0 | 16.494 | 2 | 42.652 | 16.686 | 33.303 | 2 |
| 2025-09-11T05:17:00 | 58.024374 | 9.676627 | 2.0 | 16.463 | 2 | 42.608 | 16.649 | 33.295 | 2 |
| 2025-09-11T05:18:00 | 58.023746 | 9.677311 | 2.0 | 16.462 | 2 | 42.578 | 16.628 | 33.286 | 2 |
| 2025-09-11T05:19:00 | 58.023110 | 9.677997 | 2.0 | 16.463 | 2 | 42.577 | 16.626 | 33.287 | 2 |
| 2025-09-11T05:20:00 | 58.022468 | 9.678693 | 2.0 | 16.466 | 2 | 42.573 | 16.627 | 33.283 | 2 |
| 2025-09-11T05:21:00 | 58.021828 | 9.679365 | 2.0 | 16.466 | 2 | 42.543 | 16.629 | 33.255 | 2 |
| 2025-09-11T05:22:00 | 58.021207 | 9.679995 | 2.0 | 16.467 | 2 | 42.578 | 16.630 | 33.284 | 2 |
| 2025-09-11T05:23:00 | 58.020597 | 9.680616 | 2.0 | 16.466 | 2 | 42.579 | 16.630 | 33.285 | 2 |
| 2025-09-11T05:24:00 | 58.019980 | 9.681221 | 2.0 | 16.469 | 2 | 42.565 | 16.630 | 33.273 | 2 |
| 2025-09-11T05:25:00 | 58.019354 | 9.681815 | 2.0 | 16.471 | 2 | 42.544 | 16.631 | 33.254 | 2 |
| 2025-09-11T05:26:00 | 58.018731 | 9.682421 | 2.0 | 16.471 | 2 | 42.589 | 16.635 | 33.290 | 2 |
| 2025-09-11T05:27:00 | 58.018111 | 9.683063 | 2.0 | 16.476 | 2 | 42.600 | 16.634 | 33.300 | 2 |
| 2025-09-11T05:28:00 | 58.017490 | 9.683789 | 2.0 | 16.488 | 2 | 42.623 | 16.640 | 33.315 | 2 |
| 2025-09-11T05:29:00 | 58.016854 | 9.684520 | 2.0 | 16.504 | 2 | 42.664 | 16.652 | 33.341 | 2 |
| 2025-09-11T05:30:00 | 58.016219 | 9.685271 | 2.0 | 16.528 | 2 | 42.680 | 16.670 | 33.340 | 2 |
| 2025-09-11T05:31:00 | 58.015578 | 9.686003 | 2.0 | 16.571 | 2 | 42.731 | 16.690 | 33.368 | 2 |
| 2025-09-11T05:32:00 | 58.014932 | 9.686758 | 2.0 | 16.601 | 2 | 42.821 | 16.740 | 33.405 | 2 |
| 2025-09-11T05:33:00 | 58.014278 | 9.687538 | 2.0 | 16.552 | 2 | 42.877 | 16.751 | 33.445 | 2 |
| 2025-09-11T05:34:00 | 58.013625 | 9.688351 | 2.0 | 16.559 | 2 | 42.855 | 16.717 | 33.454 | 2 |
| 2025-09-11T05:35:00 | 58.012967 | 9.689142 | 2.0 | 16.603 | 2 | 42.896 | 16.726 | 33.482 | 2 |
| 2025-09-11T05:36:00 | 58.012338 | 9.689947 | 2.0 | 16.665 | 2 | 42.982 | 16.776 | 33.515 | 2 |
| 2025-09-11T05:37:00 | 58.011720 | 9.690761 | 2.0 | 16.751 | 2 | 43.081 | 16.839 | 33.549 | 2 |
| 2025-09-11T05:38:00 | 58.011116 | 9.691593 | 2.0 | 16.796 | 2 | 43.200 | 16.914 | 33.590 | 2 |
| 2025-09-11T05:39:00 | 58.010511 | 9.692411 | 2.0 | 16.811 | 2 | 43.261 | 16.955 | 33.608 | 2 |
| 2025-09-11T05:40:00 | 58.009917 | 9.693251 | 2.0 | 16.822 | 2 | 43.283 | 16.971 | 33.614 | 2 |
| 2025-09-11T05:41:00 | 58.009331 | 9.694046 | 2.0 | 16.829 | 2 | 43.299 | 16.982 | 33.619 | 2 |
| 2025-09-11T05:42:00 | 58.008749 | 9.694833 | 2.0 | 16.837 | 2 | 43.308 | 16.990 | 33.620 | 2 |
| 2025-09-11T05:43:00 | 58.008177 | 9.695613 | 2.0 | 16.843 | 2 | 43.315 | 16.998 | 33.619 | 2 |
| 2025-09-11T05:44:00 | 58.007603 | 9.696393 | 2.0 | 16.849 | 2 | 43.321 | 17.004 | 33.620 | 2 |
| 2025-09-11T05:45:00 | 58.007035 | 9.697173 | 2.0 | 16.855 | 2 | 43.327 | 17.010 | 33.620 | 2 |
| 2025-09-11T05:46:00 | 58.006467 | 9.697972 | 2.0 | 16.856 | 2 | 43.332 | 17.014 | 33.621 | 2 |
| 2025-09-11T05:47:00 | 58.005896 | 9.698771 | 2.0 | 16.859 | 2 | 43.330 | 17.016 | 33.617 | 2 |
| 2025-09-11T05:48:00 | 58.005321 | 9.699567 | 2.0 | 16.859 | 2 | 43.333 | 17.020 | 33.617 | 2 |
| 2025-09-11T05:49:00 | 58.004747 | 9.700378 | 2.0 | 16.861 | 2 | 43.330 | 17.020 | 33.614 | 2 |
| 2025-09-11T05:50:00 | 58.004170 | 9.701208 | 2.0 | 16.867 | 2 | 43.325 | 17.023 | 33.607 | 2 |
| 2025-09-11T05:51:00 | 58.003585 | 9.702014 | 2.0 | 16.870 | 2 | 43.325 | 17.027 | 33.604 | 2 |
| 2025-09-11T05:52:00 | 58.003009 | 9.702843 | 2.0 | 16.873 | 2 | 43.330 | 17.031 | 33.605 | 2 |
| 2025-09-11T05:53:00 | 58.002431 | 9.703660 | 2.0 | 16.879 | 2 | 43.332 | 17.034 | 33.604 | 2 |
| 2025-09-11T05:54:00 | 58.001850 | 9.704468 | 2.0 | 16.882 | 2 | 43.337 | 17.039 | 33.604 | 2 |
| 2025-09-11T05:55:00 | 58.001271 | 9.705278 | 2.0 | 16.886 | 2 | 43.340 | 17.043 | 33.604 | 2 |
| 2025-09-11T05:56:00 | 58.000676 | 9.706060 | 2.0 | 16.892 | 2 | 43.346 | 17.047 | 33.605 | 2 |
| 2025-09-11T05:57:00 | 58.000071 | 9.706822 | 2.0 | 16.891 | 2 | 43.351 | 17.050 | 33.607 | 2 |
| 2025-09-11T05:58:00 | 57.999471 | 9.707576 | 2.0 | 16.896 | 2 | 43.352 | 17.053 | 33.606 | 2 |
| 2025-09-11T05:59:00 | 57.998949 | 9.708251 | 2.0 | 16.899 | 2 | 43.357 | 17.058 | 33.606 | 2 |
| 2025-09-11T06:00:00 | 57.998489 | 9.708868 | 2.0 | 16.899 | 2 | 43.358 | 17.059 | 33.606 | 2 |
| 2025-09-11T06:01:00 | 57.998050 | 9.709454 | 2.0 | 16.901 | 2 | 43.356 | 17.058 | 33.605 | 2 |
| 2025-09-11T06:02:00 | 57.997624 | 9.710021 | 2.0 | 16.900 | 2 | 43.357 | 17.060 | 33.604 | 2 |
| 2025-09-11T06:03:00 | 57.997206 | 9.710581 | 2.0 | 16.905 | 2 | 43.356 | 17.062 | 33.602 | 2 |
| 2025-09-11T06:04:00 | 57.996806 | 9.711130 | 2.0 | 16.908 | 2 | 43.356 | 17.065 | 33.599 | 2 |
| 2025-09-11T06:05:00 | 57.996409 | 9.711685 | 2.0 | 16.909 | 2 | 43.359 | 17.068 | 33.599 | 2 |
| 2025-09-11T06:06:00 | 57.996018 | 9.712222 | 2.0 | 16.910 | 2 | 43.359 | 17.069 | 33.598 | 2 |
| 2025-09-11T06:07:00 | 57.995633 | 9.712768 | 2.0 | 16.913 | 2 | 43.357 | 17.071 | 33.595 | 2 |
| 2025-09-11T06:08:00 | 57.995249 | 9.713324 | 2.0 | 16.913 | 2 | 43.361 | 17.073 | 33.597 | 2 |
| 2025-09-11T06:09:00 | 57.994857 | 9.713888 | 2.0 | 16.913 | 2 | 43.363 | 17.073 | 33.598 | 2 |
| 2025-09-11T06:10:00 | 57.994461 | 9.714446 | 2.0 | 16.917 | 2 | 43.364 | 17.074 | 33.598 | 2 |
| 2025-09-11T06:11:00 | 57.994063 | 9.715018 | 2.0 | 16.917 | 2 | 43.367 | 17.077 | 33.599 | 2 |
| 2025-09-11T06:12:00 | 57.993661 | 9.715599 | 2.0 | 16.917 | 2 | 43.369 | 17.078 | 33.599 | 2 |
| 2025-09-11T06:13:00 | 57.993249 | 9.716203 | 2.0 | 16.920 | 2 | 43.370 | 17.078 | 33.600 | 2 |
| 2025-09-11T06:14:00 | 57.992830 | 9.716824 | 2.0 | 16.919 | 2 | 43.370 | 17.079 | 33.600 | 2 |
| 2025-09-11T06:15:00 | 57.992407 | 9.717422 | 2.0 | 16.921 | 2 | 43.370 | 17.079 | 33.600 | 2 |
| 2025-09-11T06:16:00 | 57.991984 | 9.718048 | 2.0 | 16.920 | 2 | 43.371 | 17.081 | 33.599 | 2 |
| 2025-09-11T06:17:00 | 57.991561 | 9.718675 | 2.0 | 16.918 | 2 | 43.369 | 17.079 | 33.599 | 2 |
| 2025-09-11T06:18:00 | 57.991137 | 9.719297 | 2.0 | 16.921 | 2 | 43.368 | 17.079 | 33.598 | 2 |
| 2025-09-11T06:19:00 | 57.990714 | 9.719928 | 2.0 | 16.920 | 2 | 43.370 | 17.081 | 33.598 | 2 |
| 2025-09-11T06:20:00 | 57.990285 | 9.720570 | 2.0 | 16.918 | 2 | 43.369 | 17.080 | 33.598 | 2 |
| 2025-09-11T06:21:00 | 57.989855 | 9.721216 | 2.0 | 16.918 | 2 | 43.367 | 17.079 | 33.597 | 2 |
| 2025-09-11T06:22:00 | 57.989414 | 9.721855 | 2.0 | 16.916 | 2 | 43.366 | 17.079 | 33.596 | 2 |
| 2025-09-11T06:23:00 | 57.988974 | 9.722493 | 2.0 | 16.914 | 2 | 43.361 | 17.077 | 33.593 | 2 |
| 2025-09-11T06:24:00 | 57.988541 | 9.723144 | 2.0 | 16.914 | 2 | 43.362 | 17.075 | 33.596 | 2 |
| 2025-09-11T06:25:00 | 57.988104 | 9.723799 | 2.0 | 16.914 | 2 | 43.364 | 17.074 | 33.598 | 2 |
| 2025-09-11T06:26:00 | 57.987667 | 9.724436 | 2.0 | 16.914 | 2 | 43.364 | 17.074 | 33.598 | 2 |
| 2025-09-11T06:27:00 | 57.987232 | 9.725077 | 2.0 | 16.911 | 2 | 43.366 | 17.075 | 33.599 | 2 |
| 2025-09-11T06:28:00 | 57.986791 | 9.725706 | 2.0 | 16.909 | 2 | 43.361 | 17.071 | 33.598 | 2 |
| 2025-09-11T06:29:00 | 57.986346 | 9.726363 | 2.0 | 16.907 | 2 | 43.359 | 17.070 | 33.598 | 2 |
| 2025-09-11T06:30:00 | 57.985902 | 9.727020 | 2.0 | 16.904 | 2 | 43.355 | 17.067 | 33.597 | 2 |
| 2025-09-11T06:31:00 | 57.985454 | 9.727669 | 2.0 | 16.903 | 2 | 43.352 | 17.065 | 33.596 | 2 |
| 2025-09-11T06:32:00 | 57.985004 | 9.728329 | 2.0 | 16.901 | 2 | 43.350 | 17.064 | 33.595 | 2 |
| 2025-09-11T06:33:00 | 57.984563 | 9.728985 | 2.0 | 16.901 | 2 | 43.345 | 17.061 | 33.593 | 2 |
| 2025-09-11T06:34:00 | 57.984119 | 9.729662 | 2.0 | 16.902 | 2 | 43.345 | 17.061 | 33.593 | 2 |
| 2025-09-11T06:35:00 | 57.983674 | 9.730327 | 2.0 | 16.903 | 2 | 43.346 | 17.062 | 33.593 | 2 |
| 2025-09-11T06:36:00 | 57.983225 | 9.730996 | 2.0 | 16.906 | 2 | 43.347 | 17.064 | 33.592 | 2 |
| 2025-09-11T06:37:00 | 57.982776 | 9.731639 | 2.0 | 16.910 | 2 | 43.350 | 17.067 | 33.592 | 2 |
| 2025-09-11T06:38:00 | 57.982329 | 9.732295 | 2.0 | 16.915 | 2 | 43.355 | 17.072 | 33.592 | 2 |
| 2025-09-11T06:39:00 | 57.981880 | 9.732936 | 2.0 | 16.918 | 2 | 43.359 | 17.075 | 33.593 | 2 |
| 2025-09-11T06:40:00 | 57.981431 | 9.733600 | 2.0 | 16.921 | 2 | 43.360 | 17.080 | 33.590 | 2 |
| 2025-09-11T06:41:00 | 57.980990 | 9.734241 | 2.0 | 16.924 | 2 | 43.363 | 17.083 | 33.590 | 2 |
| 2025-09-11T06:42:00 | 57.980554 | 9.734878 | 2.0 | 16.923 | 2 | 43.366 | 17.084 | 33.592 | 2 |
| 2025-09-11T06:43:00 | 57.980117 | 9.735530 | 2.0 | 16.927 | 2 | 43.366 | 17.084 | 33.592 | 2 |
| 2025-09-11T06:44:00 | 57.979678 | 9.736155 | 2.0 | 16.925 | 2 | 43.370 | 17.087 | 33.593 | 2 |
| 2025-09-11T06:45:00 | 57.979234 | 9.736801 | 2.0 | 16.925 | 2 | 43.368 | 17.085 | 33.593 | 2 |
| 2025-09-11T06:46:00 | 57.978785 | 9.737481 | 2.0 | 16.926 | 2 | 43.369 | 17.086 | 33.593 | 2 |
| 2025-09-11T06:47:00 | 57.978327 | 9.738159 | 2.0 | 16.926 | 2 | 43.371 | 17.087 | 33.594 | 2 |
| 2025-09-11T06:48:00 | 57.977865 | 9.738838 | 2.0 | 16.925 | 2 | 43.371 | 17.086 | 33.595 | 2 |
| 2025-09-11T06:49:00 | 57.977401 | 9.739515 | 2.0 | 16.923 | 2 | 43.371 | 17.086 | 33.595 | 2 |
| 2025-09-11T06:50:00 | 57.976937 | 9.740196 | 2.0 | 16.921 | 2 | 43.368 | 17.083 | 33.594 | 2 |
| 2025-09-11T06:51:00 | 57.976487 | 9.740860 | 2.0 | 16.922 | 2 | 43.367 | 17.082 | 33.594 | 2 |
| 2025-09-11T06:52:00 | 57.975850 | 9.741671 | 2.0 | 16.917 | 2 | 43.368 | 17.082 | 33.595 | 2 |
| 2025-09-11T06:53:00 | 57.974832 | 9.742996 | 2.0 | 16.902 | 2 | 43.365 | 17.077 | 33.597 | 2 |
| 2025-09-11T06:54:00 | 57.973745 | 9.745096 | 2.0 | 16.888 | 2 | 43.353 | 17.062 | 33.599 | 2 |
| 2025-09-11T06:55:00 | 57.972916 | 9.748022 | 2.0 | 16.872 | 2 | 43.344 | 17.047 | 33.604 | 2 |
| 2025-09-11T06:56:00 | 57.972608 | 9.751542 | 2.0 | 16.869 | 2 | 43.340 | 17.036 | 33.609 | 2 |
| 2025-09-11T06:57:00 | 57.972881 | 9.755260 | 2.0 | 16.835 | 2 | 43.337 | 17.028 | 33.613 | 2 |
| 2025-09-11T06:58:00 | 57.973389 | 9.758971 | 2.0 | 16.782 | 2 | 43.292 | 16.982 | 33.613 | 2 |
| 2025-09-11T06:59:00 | 57.974480 | 9.762204 | 2.0 | 16.797 | 2 | 43.257 | 16.950 | 33.609 | 2 |
| 2025-09-11T07:00:00 | 57.976128 | 9.764317 | 2.0 | 16.806 | 2 | 43.270 | 16.961 | 33.611 | 2 |
| 2025-09-11T07:01:00 | 57.978032 | 9.765127 | 2.0 | 16.800 | 2 | 43.275 | 16.964 | 33.613 | 2 |
| 2025-09-11T07:02:00 | 57.980133 | 9.764566 | 2.0 | 16.819 | 2 | 43.269 | 16.965 | 33.607 | 2 |
| 2025-09-11T07:03:00 | 57.982186 | 9.762392 | 2.0 | 16.858 | 2 | 43.288 | 16.986 | 33.606 | 2 |
| 2025-09-11T07:04:00 | 57.984215 | 9.759608 | 2.0 | 16.913 | 2 | 43.328 | 17.031 | 33.603 | 2 |
| 2025-09-11T07:05:00 | 57.986418 | 9.756725 | 2.0 | 16.936 | 2 | 43.364 | 17.077 | 33.596 | 2 |
| 2025-09-11T07:06:00 | 57.988687 | 9.753755 | 2.0 | 16.944 | 2 | 43.377 | 17.099 | 33.589 | 2 |
| 2025-09-11T07:07:00 | 57.990952 | 9.750723 | 2.0 | 16.943 | 2 | 43.382 | 17.105 | 33.588 | 2 |
| 2025-09-11T07:08:00 | 57.993223 | 9.747676 | 2.0 | 16.933 | 2 | 43.377 | 17.104 | 33.585 | 2 |
| 2025-09-11T07:09:00 | 57.995528 | 9.744662 | 2.0 | 16.927 | 2 | 43.372 | 17.094 | 33.589 | 2 |
| 2025-09-11T07:10:00 | 57.997817 | 9.741606 | 2.0 | 16.927 | 2 | 43.374 | 17.090 | 33.594 | 2 |
| 2025-09-11T07:11:00 | 58.000142 | 9.738600 | 2.0 | 16.922 | 2 | 43.379 | 17.088 | 33.600 | 2 |
| 2025-09-11T07:12:00 | 58.002420 | 9.735497 | 2.0 | 16.913 | 2 | 43.378 | 17.083 | 33.603 | 2 |
| 2025-09-11T07:13:00 | 58.004716 | 9.732438 | 2.0 | 16.900 | 2 | 43.366 | 17.073 | 33.601 | 2 |
| 2025-09-11T07:14:00 | 58.007017 | 9.729379 | 2.0 | 16.877 | 2 | 43.350 | 17.059 | 33.599 | 2 |
| 2025-09-11T07:15:00 | 58.009318 | 9.726330 | 2.0 | 16.852 | 2 | 43.321 | 17.038 | 33.591 | 2 |
| 2025-09-11T07:16:00 | 58.011595 | 9.723271 | 2.0 | 16.827 | 2 | 43.310 | 17.013 | 33.603 | 2 |
| 2025-09-11T07:17:00 | 58.013821 | 9.720159 | 2.0 | 16.524 | 2 | 43.168 | 16.907 | 33.568 | 2 |
| 2025-09-11T07:18:00 | 58.016068 | 9.717133 | 2.0 | 16.481 | 2 | 42.777 | 16.701 | 33.399 | 2 |
| 2025-09-11T07:19:00 | 58.018345 | 9.714224 | 2.0 | 16.475 | 2 | 42.652 | 16.653 | 33.330 | 2 |
| 2025-09-11T07:20:00 | 58.020607 | 9.711241 | 2.0 | 16.475 | 2 | 42.624 | 16.643 | 33.314 | 2 |
| 2025-09-11T07:21:00 | 58.022884 | 9.708263 | 2.0 | 16.510 | 2 | 42.619 | 16.646 | 33.307 | 2 |
| 2025-09-11T07:22:00 | 58.025190 | 9.705352 | 2.0 | 16.520 | 2 | 42.648 | 16.680 | 33.304 | 2 |
| 2025-09-11T07:23:00 | 58.027472 | 9.702398 | 2.0 | 16.520 | 2 | 42.655 | 16.686 | 33.305 | 2 |
| 2025-09-11T07:24:00 | 58.029743 | 9.699438 | 2.0 | 16.518 | 2 | 42.656 | 16.685 | 33.307 | 2 |
| 2025-09-11T07:25:00 | 58.032006 | 9.696441 | 2.0 | 16.509 | 2 | 42.665 | 16.683 | 33.316 | 2 |
| 2025-09-11T07:26:00 | 58.034289 | 9.693523 | 2.0 | 16.485 | 2 | 42.669 | 16.671 | 33.330 | 2 |
| 2025-09-11T07:27:00 | 58.036532 | 9.690532 | 2.0 | 16.454 | 2 | 42.678 | 16.645 | 33.359 | 2 |
| 2025-09-11T07:28:00 | 58.038734 | 9.687526 | 2.0 | 16.461 | 2 | 42.702 | 16.625 | 33.397 | 2 |
| 2025-09-11T07:29:00 | 58.040924 | 9.684481 | 2.0 | 16.564 | 2 | 42.651 | 16.640 | 33.340 | 2 |
| 2025-09-11T07:30:00 | 58.043209 | 9.681489 | 2.0 | 16.635 | 2 | 42.393 | 16.739 | 33.033 | 2 |
| 2025-09-11T07:31:00 | 58.045506 | 9.678505 | 2.0 | 16.660 | 2 | 42.311 | 16.799 | 32.912 | 2 |
| 2025-09-11T07:32:00 | 58.047773 | 9.675495 | 2.0 | 16.667 | 2 | 42.280 | 16.824 | 32.865 | 2 |
| 2025-09-11T07:33:00 | 58.050022 | 9.672483 | 2.0 | 16.681 | 2 | 42.218 | 16.831 | 32.805 | 2 |
| 2025-09-11T07:34:00 | 58.052274 | 9.669472 | 2.0 | 16.768 | 2 | 42.188 | 16.859 | 32.756 | 2 |
| 2025-09-11T07:35:00 | 58.054518 | 9.666450 | 2.0 | 16.811 | 2 | 42.164 | 16.932 | 32.676 | 2 |
| 2025-09-11T07:36:00 | 58.056803 | 9.663508 | 2.0 | 16.832 | 2 | 42.142 | 16.976 | 32.622 | 2 |
| 2025-09-11T07:37:00 | 58.059076 | 9.660537 | 2.0 | 16.848 | 2 | 42.121 | 16.995 | 32.588 | 2 |
| 2025-09-11T07:38:00 | 58.061338 | 9.657552 | 2.0 | 16.855 | 2 | 42.092 | 17.009 | 32.552 | 2 |
| 2025-09-11T07:39:00 | 58.063626 | 9.654624 | 2.0 | 16.860 | 2 | 42.062 | 17.017 | 32.519 | 2 |
| 2025-09-11T07:40:00 | 58.066190 | 9.652581 | 2.0 | 16.855 | 2 | 42.027 | 17.022 | 32.485 | 2 |
| 2025-09-11T07:41:00 | 58.069010 | 9.652296 | 2.0 | 16.819 | 2 | 41.994 | 17.012 | 32.465 | 2 |
| 2025-09-11T07:42:00 | 58.071810 | 9.653486 | 2.0 | 16.698 | 2 | 41.971 | 16.962 | 32.485 | 2 |
| 2025-09-11T07:43:00 | 58.074304 | 9.656188 | 2.0 | 16.672 | 2 | 41.978 | 16.862 | 32.572 | 2 |
| 2025-09-11T07:44:00 | 58.076148 | 9.660382 | 2.0 | 16.688 | 2 | 42.023 | 16.843 | 32.626 | 2 |
| 2025-09-11T07:45:00 | 58.077255 | 9.665428 | 2.0 | 16.694 | 2 | 42.075 | 16.853 | 32.663 | 2 |
| 2025-09-11T07:46:00 | 58.077228 | 9.670853 | 2.0 | 16.704 | 2 | 42.084 | 16.859 | 32.666 | 2 |
| 2025-09-11T07:47:00 | 58.076335 | 9.676008 | 2.0 | 16.727 | 2 | 42.111 | 16.872 | 32.679 | 2 |
| 2025-09-11T07:48:00 | 58.074569 | 9.680178 | 2.0 | 16.732 | 2 | 42.118 | 16.893 | 32.668 | 2 |
| 2025-09-11T07:49:00 | 58.072259 | 9.683220 | 2.0 | 16.719 | 2 | 42.123 | 16.891 | 32.674 | 2 |
| 2025-09-11T07:50:00 | 58.069940 | 9.686305 | 2.0 | 16.783 | 2 | 42.057 | 16.890 | 32.618 | 2 |
| 2025-09-11T07:51:00 | 58.067630 | 9.689415 | 2.0 | 16.845 | 2 | 41.983 | 16.956 | 32.500 | 2 |
| 2025-09-11T07:52:00 | 58.065309 | 9.692467 | 2.0 | 16.862 | 2 | 42.007 | 17.008 | 32.479 | 2 |
| 2025-09-11T07:53:00 | 58.062992 | 9.695550 | 2.0 | 16.852 | 2 | 42.043 | 17.022 | 32.499 | 2 |
| 2025-09-11T07:54:00 | 58.060652 | 9.698601 | 2.0 | 16.837 | 2 | 42.095 | 17.010 | 32.553 | 2 |
| 2025-09-11T07:55:00 | 58.058318 | 9.701648 | 2.0 | 16.830 | 2 | 42.162 | 16.998 | 32.621 | 2 |
| 2025-09-11T07:56:00 | 58.055992 | 9.704711 | 2.0 | 16.817 | 2 | 42.190 | 16.991 | 32.651 | 2 |
| 2025-09-11T07:57:00 | 58.053684 | 9.707815 | 2.0 | 16.763 | 2 | 42.200 | 16.977 | 32.671 | 2 |
| 2025-09-11T07:58:00 | 58.051366 | 9.710881 | 2.0 | 16.709 | 2 | 42.187 | 16.920 | 32.706 | 2 |
| 2025-09-11T07:59:00 | 58.049056 | 9.713936 | 2.0 | 16.659 | 2 | 42.190 | 16.865 | 32.753 | 2 |
| 2025-09-11T08:00:00 | 58.046723 | 9.716959 | 2.0 | 16.654 | 2 | 42.287 | 16.827 | 32.869 | 2 |
| 2025-09-11T08:01:00 | 58.044414 | 9.720008 | 2.0 | 16.641 | 2 | 42.360 | 16.818 | 32.939 | 2 |
| 2025-09-11T08:02:00 | 58.042111 | 9.723057 | 2.0 | 16.587 | 2 | 42.401 | 16.804 | 32.986 | 2 |
| 2025-09-11T08:03:00 | 58.039860 | 9.726244 | 2.0 | 16.534 | 2 | 42.453 | 16.739 | 33.085 | 2 |
| 2025-09-11T08:04:00 | 58.037551 | 9.729283 | 2.0 | 16.538 | 2 | 42.609 | 16.705 | 33.249 | 2 |
| 2025-09-11T08:05:00 | 58.035227 | 9.732274 | 2.0 | 16.539 | 2 | 42.610 | 16.704 | 33.251 | 2 |
| 2025-09-11T08:06:00 | 58.032903 | 9.735239 | 2.0 | 16.536 | 2 | 42.644 | 16.705 | 33.280 | 2 |
| 2025-09-11T08:07:00 | 58.030581 | 9.738257 | 2.0 | 16.523 | 2 | 42.660 | 16.703 | 33.295 | 2 |
| 2025-09-11T08:08:00 | 58.028253 | 9.741311 | 2.0 | 16.492 | 2 | 42.640 | 16.684 | 33.294 | 2 |
| 2025-09-11T08:09:00 | 58.025917 | 9.744358 | 2.0 | 16.484 | 2 | 42.597 | 16.656 | 33.279 | 2 |
| 2025-09-11T08:10:00 | 58.023575 | 9.747449 | 2.0 | 16.492 | 2 | 42.601 | 16.652 | 33.286 | 2 |
| 2025-09-11T08:11:00 | 58.021223 | 9.750586 | 2.0 | 16.497 | 2 | 42.627 | 16.660 | 33.302 | 2 |
| 2025-09-11T08:12:00 | 58.018854 | 9.753710 | 2.0 | 16.538 | 2 | 42.641 | 16.666 | 33.310 | 2 |
| 2025-09-11T08:13:00 | 58.016537 | 9.756939 | 2.0 | 16.888 | 2 | 42.873 | 16.796 | 33.404 | 2 |
| 2025-09-11T08:14:00 | 58.014215 | 9.760008 | 2.0 | 16.917 | 2 | 43.291 | 17.035 | 33.568 | 2 |
| 2025-09-11T08:15:00 | 58.011919 | 9.763086 | 2.0 | 16.936 | 2 | 43.370 | 17.076 | 33.602 | 2 |
| 2025-09-11T08:16:00 | 58.009611 | 9.766104 | 2.0 | 16.946 | 2 | 43.384 | 17.098 | 33.596 | 2 |
| 2025-09-11T08:17:00 | 58.007315 | 9.769152 | 2.0 | 16.955 | 2 | 43.395 | 17.108 | 33.597 | 2 |
| 2025-09-11T08:18:00 | 58.005021 | 9.772196 | 2.0 | 16.960 | 2 | 43.402 | 17.115 | 33.597 | 2 |
| 2025-09-11T08:19:00 | 58.002724 | 9.775237 | 2.0 | 16.957 | 2 | 43.401 | 17.120 | 33.592 | 2 |
| 2025-09-11T08:20:00 | 58.000418 | 9.778231 | 2.0 | 16.964 | 2 | 43.393 | 17.117 | 33.588 | 2 |
| 2025-09-11T08:21:00 | 57.998133 | 9.781284 | 2.0 | 16.970 | 2 | 43.401 | 17.126 | 33.587 | 2 |
| 2025-09-11T08:22:00 | 57.995846 | 9.784356 | 2.0 | 16.973 | 2 | 43.408 | 17.131 | 33.589 | 2 |
| 2025-09-11T08:23:00 | 57.993513 | 9.787296 | 2.0 | 16.971 | 2 | 43.408 | 17.134 | 33.587 | 2 |
| 2025-09-11T08:24:00 | 57.990953 | 9.787790 | 2.0 | 16.969 | 2 | 43.408 | 17.133 | 33.587 | 2 |
| 2025-09-11T08:25:00 | 57.988940 | 9.785052 | 2.0 | 16.963 | 2 | 43.410 | 17.131 | 33.591 | 2 |
| 2025-09-11T08:26:00 | 57.987344 | 9.781338 | 2.0 | 16.963 | 2 | 43.409 | 17.128 | 33.592 | 2 |
| 2025-09-11T08:27:00 | 57.985593 | 9.777775 | 2.0 | 16.953 | 2 | 43.409 | 17.125 | 33.595 | 2 |
| 2025-09-11T08:28:00 | 57.983928 | 9.774038 | 2.0 | 16.925 | 2 | 43.404 | 17.114 | 33.600 | 2 |
| 2025-09-11T08:29:00 | 57.982244 | 9.770377 | 2.0 | 16.921 | 2 | 43.373 | 17.084 | 33.598 | 2 |
| 2025-09-11T08:30:00 | 57.980587 | 9.766663 | 2.0 | 16.970 | 2 | 43.385 | 17.095 | 33.599 | 2 |
| 2025-09-11T08:31:00 | 57.978945 | 9.762929 | 2.0 | 16.995 | 2 | 43.431 | 17.134 | 33.606 | 2 |
| 2025-09-11T08:32:00 | 57.977272 | 9.759267 | 2.0 | 17.006 | 2 | 43.458 | 17.157 | 33.611 | 2 |
| 2025-09-11T08:33:00 | 57.976069 | 9.755135 | 2.0 | 17.011 | 2 | 43.465 | 17.166 | 33.609 | 2 |
| 2025-09-11T08:34:00 | 57.976897 | 9.750760 | 2.0 | 17.011 | 2 | 43.469 | 17.171 | 33.609 | 2 |
| 2025-09-11T08:35:00 | 57.979271 | 9.748488 | 2.0 | 16.971 | 2 | 43.458 | 17.168 | 33.602 | 2 |
| 2025-09-11T08:36:00 | 57.982055 | 9.747452 | 2.0 | 16.855 | 2 | 43.251 | 17.125 | 33.458 | 2 |
| 2025-09-11T08:37:00 | 57.984805 | 9.746009 | 2.0 | 16.529 | 2 | 43.145 | 16.942 | 33.519 | 2 |
| 2025-09-11T08:38:00 | 57.987578 | 9.744593 | 2.0 | 16.541 | 2 | 42.731 | 16.721 | 33.342 | 2 |
| 2025-09-11T08:39:00 | 57.990358 | 9.743145 | 2.0 | 16.586 | 2 | 42.896 | 16.722 | 33.485 | 2 |
| 2025-09-11T08:40:00 | 57.993139 | 9.741699 | 2.0 | 16.576 | 2 | 42.738 | 16.757 | 33.319 | 2 |
| 2025-09-11T08:41:00 | 57.995906 | 9.740267 | 2.0 | 16.641 | 2 | 42.776 | 16.747 | 33.360 | 2 |
| 2025-09-11T08:42:00 | 57.998662 | 9.738807 | 2.0 | 16.581 | 2 | 42.725 | 16.795 | 33.276 | 2 |
| 2025-09-11T08:43:00 | 58.001387 | 9.737260 | 2.0 | 16.623 | 2 | 42.701 | 16.739 | 33.301 | 2 |
| 2025-09-11T08:44:00 | 58.004130 | 9.735918 | 2.0 | 16.793 | 2 | 42.967 | 16.818 | 33.467 | 2 |
| 2025-09-11T08:45:00 | 58.006865 | 9.734522 | 2.0 | 16.847 | 2 | 43.040 | 16.960 | 33.412 | 2 |
| 2025-09-11T08:46:00 | 58.009588 | 9.733110 | 2.0 | 16.594 | 2 | 43.124 | 16.993 | 33.458 | 2 |
| 2025-09-11T08:47:00 | 58.012284 | 9.731694 | 2.0 | 16.522 | 2 | 42.777 | 16.739 | 33.367 | 2 |
| 2025-09-11T08:48:00 | 58.014987 | 9.730344 | 2.0 | 16.517 | 2 | 42.533 | 16.693 | 33.193 | 2 |
| 2025-09-11T08:49:00 | 58.017476 | 9.729186 | 2.0 | 16.513 | 2 | 42.608 | 16.686 | 33.264 | 2 |
| 2025-09-11T08:50:00 | 58.019380 | 9.728213 | 2.0 | 16.517 | 2 | 42.602 | 16.680 | 33.264 | 2 |
| 2025-09-11T08:51:00 | 58.020929 | 9.727526 | 2.0 | 16.532 | 2 | 42.664 | 16.685 | 33.314 | 2 |
| 2025-09-11T08:52:00 | 58.022248 | 9.726976 | 2.0 | 16.535 | 2 | 42.559 | 16.696 | 33.213 | 2 |
| 2025-09-11T08:53:00 | 58.023493 | 9.726380 | 2.0 | 16.536 | 2 | 42.639 | 16.698 | 33.281 | 2 |
| 2025-09-11T08:54:00 | 58.024749 | 9.725720 | 2.0 | 16.550 | 2 | 42.599 | 16.703 | 33.242 | 2 |
| 2025-09-11T08:55:00 | 58.026196 | 9.724901 | 2.0 | 16.556 | 2 | 42.476 | 16.713 | 33.127 | 2 |
| 2025-09-11T08:56:00 | 58.027832 | 9.724039 | 2.0 | 16.559 | 2 | 42.524 | 16.720 | 33.163 | 2 |
| 2025-09-11T08:57:00 | 58.029579 | 9.723259 | 2.0 | 16.563 | 2 | 42.570 | 16.719 | 33.204 | 2 |
| 2025-09-11T08:58:00 | 58.031351 | 9.722339 | 2.0 | 16.570 | 2 | 42.648 | 16.728 | 33.264 | 2 |
| 2025-09-11T08:59:00 | 58.033157 | 9.721461 | 2.0 | 16.562 | 2 | 42.648 | 16.733 | 33.260 | 2 |
| 2025-09-11T09:00:00 | 58.034768 | 9.720679 | 2.0 | 16.545 | 2 | 42.648 | 16.724 | 33.267 | 2 |
| 2025-09-11T09:01:00 | 58.036115 | 9.720041 | 2.0 | 16.513 | 2 | 42.585 | 16.702 | 33.231 | 2 |
| 2025-09-11T09:02:00 | 58.037465 | 9.719304 | 2.0 | 16.520 | 2 | 42.680 | 16.679 | 33.333 | 2 |
| 2025-09-11T09:03:00 | 58.039169 | 9.718332 | 2.0 | 16.509 | 2 | 42.686 | 16.680 | 33.337 | 2 |
| 2025-09-11T09:04:00 | 58.041165 | 9.717342 | 2.0 | 16.501 | 2 | 42.692 | 16.672 | 33.349 | 2 |
| 2025-09-11T09:05:00 | 58.043155 | 9.716373 | 2.0 | 16.522 | 2 | 42.656 | 16.666 | 33.323 | 2 |
| 2025-09-11T09:06:00 | 58.045086 | 9.715279 | 2.0 | 16.615 | 2 | 42.535 | 16.700 | 33.189 | 2 |
| 2025-09-11T09:07:00 | 58.047078 | 9.714127 | 2.0 | 16.702 | 2 | 42.375 | 16.796 | 32.970 | 2 |
| 2025-09-11T09:08:00 | 58.049134 | 9.713230 | 2.0 | 16.724 | 2 | 42.317 | 16.862 | 32.866 | 2 |
| 2025-09-11T09:09:00 | 58.051172 | 9.712197 | 2.0 | 16.733 | 2 | 42.317 | 16.884 | 32.848 | 2 |
| 2025-09-11T09:10:00 | 58.053201 | 9.711129 | 2.0 | 16.807 | 2 | 42.210 | 16.897 | 32.745 | 2 |
| 2025-09-11T09:11:00 | 58.055232 | 9.710112 | 2.0 | 16.857 | 2 | 42.196 | 16.976 | 32.668 | 2 |
| 2025-09-11T09:12:00 | 58.057254 | 9.709115 | 2.0 | 16.877 | 2 | 42.148 | 17.015 | 32.595 | 2 |
| 2025-09-11T09:13:00 | 58.059270 | 9.708086 | 2.0 | 16.907 | 2 | 42.167 | 17.041 | 32.591 | 2 |
| 2025-09-11T09:14:00 | 58.061286 | 9.707030 | 2.0 | 16.923 | 2 | 42.171 | 17.068 | 32.572 | 2 |
| 2025-09-11T09:15:00 | 58.063313 | 9.706029 | 2.0 | 16.932 | 2 | 42.148 | 17.082 | 32.541 | 2 |
| 2025-09-11T09:16:00 | 58.065341 | 9.705033 | 2.0 | 16.931 | 2 | 42.123 | 17.091 | 32.512 | 2 |
| 2025-09-11T09:17:00 | 58.067368 | 9.704016 | 2.0 | 16.942 | 2 | 42.097 | 17.094 | 32.487 | 2 |
| 2025-09-11T09:18:00 | 58.069384 | 9.702967 | 2.0 | 16.922 | 2 | 42.077 | 17.098 | 32.467 | 2 |
| 2025-09-11T09:19:00 | 58.071388 | 9.701872 | 2.0 | 16.762 | 2 | 42.072 | 17.038 | 32.511 | 2 |
| 2025-09-11T09:20:00 | 58.073402 | 9.700852 | 2.0 | 16.774 | 2 | 42.095 | 16.935 | 32.614 | 2 |
| 2025-09-11T09:21:00 | 58.075415 | 9.699787 | 2.0 | 16.805 | 2 | 42.179 | 16.948 | 32.676 | 2 |
| 2025-09-11T09:22:00 | 58.077422 | 9.698730 | 2.0 | 16.801 | 2 | 42.196 | 16.966 | 32.676 | 2 |
| 2025-09-11T09:23:00 | 58.079447 | 9.697741 | 2.0 | 16.793 | 2 | 42.183 | 16.961 | 32.669 | 2 |
| 2025-09-11T09:24:00 | 58.081477 | 9.696707 | 2.0 | 16.761 | 2 | 42.166 | 16.953 | 32.661 | 2 |
| 2025-09-11T09:25:00 | 58.083501 | 9.695632 | 2.0 | 16.764 | 2 | 42.119 | 16.925 | 32.643 | 2 |
| 2025-09-11T09:26:00 | 58.085536 | 9.694629 | 2.0 | 16.778 | 2 | 42.126 | 16.933 | 32.643 | 2 |
| 2025-09-11T09:27:00 | 58.087571 | 9.693574 | 2.0 | 16.784 | 2 | 42.133 | 16.940 | 32.643 | 2 |
| 2025-09-11T09:28:00 | 58.089606 | 9.692475 | 2.0 | 16.761 | 2 | 42.135 | 16.947 | 32.639 | 2 |
| 2025-09-11T09:29:00 | 58.091653 | 9.691407 | 2.0 | 16.747 | 2 | 42.119 | 16.921 | 32.646 | 2 |
| 2025-09-11T09:30:00 | 58.093712 | 9.690392 | 2.0 | 16.767 | 2 | 42.116 | 16.916 | 32.648 | 2 |
| 2025-09-11T09:31:00 | 58.095809 | 9.690026 | 2.0 | 16.797 | 2 | 42.105 | 16.938 | 32.620 | 2 |
| 2025-09-11T09:32:00 | 58.097720 | 9.691468 | 2.0 | 16.797 | 2 | 42.073 | 16.955 | 32.579 | 2 |
| 2025-09-11T09:33:00 | 58.099122 | 9.694276 | 2.0 | 16.841 | 2 | 42.062 | 16.968 | 32.559 | 2 |
| 2025-09-11T09:34:00 | 58.100295 | 9.697505 | 2.0 | 16.831 | 2 | 42.075 | 17.001 | 32.543 | 2 |
| 2025-09-11T09:35:00 | 58.101549 | 9.700671 | 2.0 | 16.842 | 2 | 42.048 | 16.994 | 32.526 | 2 |
| 2025-09-11T09:36:00 | 58.102839 | 9.703813 | 2.0 | 16.858 | 2 | 42.046 | 17.005 | 32.515 | 2 |
| 2025-09-11T09:37:00 | 58.104124 | 9.706971 | 2.0 | 16.850 | 2 | 42.028 | 17.020 | 32.488 | 2 |
| 2025-09-11T09:38:00 | 58.105391 | 9.710136 | 2.0 | 16.867 | 2 | 42.012 | 17.005 | 32.486 | 2 |
| 2025-09-11T09:39:00 | 58.106572 | 9.713768 | 2.0 | 16.871 | 2 | 42.024 | 17.030 | 32.476 | 2 |
| 2025-09-11T09:40:00 | 58.106381 | 9.718139 | 2.0 | 16.868 | 2 | 41.976 | 17.034 | 32.431 | 2 |
| 2025-09-11T09:41:00 | 58.104596 | 9.721145 | 2.0 | 16.879 | 2 | 42.034 | 17.026 | 32.488 | 2 |
| 2025-09-11T09:42:00 | 58.102358 | 9.723831 | 2.0 | 16.842 | 2 | 42.068 | 17.033 | 32.512 | 2 |
| 2025-09-11T09:43:00 | 58.100096 | 9.726749 | 2.0 | 16.760 | 2 | 42.093 | 16.985 | 32.572 | 2 |
| 2025-09-11T09:44:00 | 58.097803 | 9.729659 | 2.0 | 16.770 | 2 | 42.063 | 16.927 | 32.593 | 2 |
| 2025-09-11T09:45:00 | 58.095501 | 9.732610 | 2.0 | 16.797 | 2 | 42.063 | 16.939 | 32.583 | 2 |
| 2025-09-11T09:46:00 | 58.093197 | 9.735570 | 2.0 | 16.792 | 2 | 42.099 | 16.960 | 32.597 | 2 |
| 2025-09-11T09:47:00 | 58.090881 | 9.738473 | 2.0 | 16.772 | 2 | 42.111 | 16.952 | 32.614 | 2 |
| 2025-09-11T09:48:00 | 58.088600 | 9.741431 | 2.0 | 16.768 | 2 | 42.107 | 16.944 | 32.617 | 2 |
| 2025-09-11T09:49:00 | 58.086294 | 9.744406 | 2.0 | 16.818 | 2 | 42.081 | 16.933 | 32.604 | 2 |
| 2025-09-11T09:50:00 | 58.083977 | 9.747411 | 2.0 | 16.906 | 2 | 42.095 | 16.996 | 32.565 | 2 |
| 2025-09-11T09:51:00 | 58.081677 | 9.750436 | 2.0 | 16.949 | 2 | 42.105 | 17.072 | 32.512 | 2 |
| 2025-09-11T09:52:00 | 58.079361 | 9.753396 | 2.0 | 16.982 | 2 | 42.109 | 17.116 | 32.480 | 2 |
| 2025-09-11T09:53:00 | 58.077058 | 9.756337 | 2.0 | 16.966 | 2 | 42.125 | 17.138 | 32.476 | 2 |
| 2025-09-11T09:54:00 | 58.074749 | 9.759232 | 2.0 | 16.932 | 2 | 42.150 | 17.124 | 32.509 | 2 |
| 2025-09-11T09:55:00 | 58.072456 | 9.762182 | 2.0 | 16.913 | 2 | 42.176 | 17.092 | 32.557 | 2 |
| 2025-09-11T09:56:00 | 58.070157 | 9.765076 | 2.0 | 16.881 | 2 | 42.217 | 17.076 | 32.605 | 2 |
| 2025-09-11T09:57:00 | 58.067867 | 9.767972 | 2.0 | 16.877 | 2 | 42.223 | 17.046 | 32.635 | 2 |
| 2025-09-11T09:58:00 | 58.065588 | 9.770909 | 2.0 | 16.843 | 2 | 42.239 | 17.031 | 32.661 | 2 |
| 2025-09-11T09:59:00 | 58.063533 | 9.773635 | 2.0 | 16.827 | 2 | 42.243 | 17.006 | 32.685 | 2 |
| 2025-09-11T10:00:00 | 58.061709 | 9.775940 | 2.0 | 16.850 | 2 | 42.261 | 17.000 | 32.705 | 2 |
| 2025-09-11T10:01:00 | 58.059979 | 9.778098 | 2.0 | 16.844 | 2 | 42.280 | 17.007 | 32.716 | 2 |
| 2025-09-11T10:02:00 | 58.058307 | 9.780244 | 2.0 | 16.833 | 2 | 42.290 | 17.002 | 32.728 | 2 |
| 2025-09-11T10:03:00 | 58.056651 | 9.782361 | 2.0 | 16.845 | 2 | 42.306 | 17.000 | 32.744 | 2 |
| 2025-09-11T10:04:00 | 58.055003 | 9.784469 | 2.0 | 16.795 | 2 | 42.347 | 16.990 | 32.787 | 2 |
| 2025-09-11T10:05:00 | 58.053370 | 9.786588 | 2.0 | 16.636 | 2 | 42.458 | 16.945 | 32.920 | 2 |
| 2025-09-11T10:06:00 | 58.051746 | 9.788706 | 2.0 | 16.618 | 2 | 42.694 | 16.801 | 33.244 | 2 |
| 2025-09-11T10:07:00 | 58.050103 | 9.790738 | 2.0 | 16.599 | 2 | 42.723 | 16.786 | 33.281 | 2 |
| 2025-09-11T10:08:00 | 58.048465 | 9.792746 | 2.0 | 16.567 | 2 | 42.705 | 16.758 | 33.289 | 2 |
| 2025-09-11T10:09:00 | 58.046856 | 9.794725 | 2.0 | 16.602 | 2 | 42.688 | 16.739 | 33.290 | 2 |
| 2025-09-11T10:10:00 | 58.045458 | 9.796496 | 2.0 | 16.632 | 2 | 42.718 | 16.768 | 33.292 | 2 |
| 2025-09-11T10:11:00 | 58.044244 | 9.798030 | 2.0 | 16.689 | 2 | 42.769 | 16.792 | 33.316 | 2 |
| 2025-09-11T10:12:00 | 58.043199 | 9.799458 | 2.0 | 16.872 | 2 | 42.952 | 16.893 | 33.392 | 2 |
| 2025-09-11T10:13:00 | 58.042935 | 9.800902 | 2.0 | 16.845 | 2 | 43.238 | 17.022 | 33.533 | 2 |
| 2025-09-11T10:14:00 | 58.043396 | 9.801319 | 2.0 | 16.763 | 2 | 43.123 | 16.985 | 33.464 | 2 |
| 2025-09-11T10:15:00 | 58.044199 | 9.800323 | 2.0 | 16.671 | 2 | 42.951 | 16.904 | 33.382 | 2 |
| 2025-09-11T10:16:00 | 58.045329 | 9.798525 | 2.0 | 16.634 | 2 | 42.855 | 16.828 | 33.361 | 2 |
| 2025-09-11T10:17:00 | 58.046112 | 9.796940 | 2.0 | 16.648 | 2 | 42.781 | 16.797 | 33.323 | 2 |
| 2025-09-11T10:18:00 | 58.045882 | 9.796162 | 2.0 | 16.637 | 2 | 42.783 | 16.812 | 33.312 | 2 |
| 2025-09-11T10:19:00 | 58.045315 | 9.796007 | 2.0 | 16.733 | 2 | 42.794 | 16.803 | 33.329 | 2 |
| 2025-09-11T10:20:00 | 58.044824 | 9.797190 | 2.0 | 16.895 | 2 | 43.006 | 16.919 | 33.417 | 2 |
| 2025-09-11T10:21:00 | 58.044337 | 9.799211 | 2.0 | 16.884 | 2 | 43.272 | 17.041 | 33.546 | 2 |
| 2025-09-11T10:22:00 | 58.043848 | 9.801670 | 2.0 | 16.877 | 2 | 43.301 | 17.044 | 33.569 | 2 |
| 2025-09-11T10:23:00 | 58.043484 | 9.804273 | 2.0 | 16.927 | 2 | 43.314 | 17.044 | 33.580 | 2 |
| 2025-09-11T10:24:00 | 58.043106 | 9.806717 | 2.0 | 16.871 | 2 | 43.296 | 17.068 | 33.545 | 2 |
| 2025-09-11T10:25:00 | 58.042494 | 9.808848 | 2.0 | 16.923 | 2 | 43.184 | 17.033 | 33.477 | 2 |
| 2025-09-11T10:26:00 | 58.041409 | 9.810583 | 2.0 | 17.002 | 2 | 43.303 | 17.101 | 33.523 | 2 |
| 2025-09-11T10:27:00 | 58.039849 | 9.811402 | 2.0 | 17.013 | 2 | 43.468 | 17.161 | 33.616 | 2 |
| 2025-09-11T10:28:00 | 58.038092 | 9.811645 | 2.0 | 17.021 | 2 | 43.490 | 17.176 | 33.623 | 2 |
| 2025-09-11T10:29:00 | 58.036045 | 9.811890 | 2.0 | 17.020 | 2 | 43.498 | 17.182 | 33.624 | 2 |
| 2025-09-11T10:30:00 | 58.033573 | 9.812436 | 2.0 | 17.020 | 2 | 43.497 | 17.182 | 33.624 | 2 |
| 2025-09-11T10:31:00 | 58.031260 | 9.814880 | 2.0 | 17.049 | 2 | 43.490 | 17.185 | 33.615 | 2 |
| 2025-09-11T10:32:00 | 58.029021 | 9.817932 | 2.0 | 17.070 | 2 | 43.507 | 17.211 | 33.608 | 2 |
| 2025-09-11T10:33:00 | 58.026786 | 9.821106 | 2.0 | 17.078 | 2 | 43.520 | 17.229 | 33.604 | 2 |
| 2025-09-11T10:34:00 | 58.024490 | 9.824116 | 2.0 | 17.092 | 2 | 43.527 | 17.245 | 33.597 | 2 |
| 2025-09-11T10:35:00 | 58.022098 | 9.826804 | 2.0 | 17.093 | 2 | 43.532 | 17.254 | 33.594 | 2 |
| 2025-09-11T10:36:00 | 58.019675 | 9.829399 | 2.0 | 17.076 | 2 | 43.525 | 17.248 | 33.593 | 2 |
| 2025-09-11T10:37:00 | 58.017261 | 9.832044 | 2.0 | 17.084 | 2 | 43.517 | 17.244 | 33.589 | 2 |
| 2025-09-11T10:38:00 | 58.014865 | 9.834653 | 2.0 | 17.079 | 2 | 43.514 | 17.240 | 33.590 | 2 |
| 2025-09-11T10:39:00 | 58.012823 | 9.836976 | 2.0 | 17.119 | 2 | 43.525 | 17.256 | 33.586 | 2 |
| 2025-09-11T10:40:00 | 58.010967 | 9.838961 | 2.0 | 17.102 | 2 | 43.548 | 17.275 | 33.590 | 2 |
| 2025-09-11T10:41:00 | 58.009146 | 9.840579 | 2.0 | 17.092 | 2 | 43.535 | 17.258 | 33.593 | 2 |
| 2025-09-11T10:42:00 | 58.007381 | 9.840156 | 2.0 | 17.093 | 2 | 43.529 | 17.254 | 33.591 | 2 |
| 2025-09-11T10:43:00 | 58.006157 | 9.837919 | 2.0 | 17.073 | 2 | 43.528 | 17.250 | 33.594 | 2 |
| 2025-09-11T10:44:00 | 58.005146 | 9.835224 | 2.0 | 17.058 | 2 | 43.517 | 17.238 | 33.594 | 2 |
| 2025-09-11T10:45:00 | 58.004055 | 9.832577 | 2.0 | 17.079 | 2 | 43.504 | 17.222 | 33.596 | 2 |
| 2025-09-11T10:46:00 | 58.003617 | 9.829417 | 2.0 | 17.083 | 2 | 43.519 | 17.238 | 33.596 | 2 |
| 2025-09-11T10:47:00 | 58.004394 | 9.826386 | 2.0 | 17.127 | 2 | 43.534 | 17.251 | 33.598 | 2 |
| 2025-09-11T10:48:00 | 58.005826 | 9.823935 | 2.0 | 17.147 | 2 | 43.190 | 17.292 | 33.268 | 2 |
| 2025-09-11T10:49:00 | 58.007638 | 9.822200 | 2.0 | 17.094 | 2 | 43.591 | 17.292 | 33.613 | 2 |
| 2025-09-11T10:50:00 | 58.009536 | 9.820672 | 2.0 | 17.116 | 2 | 43.553 | 17.257 | 33.609 | 2 |
| 2025-09-11T10:51:00 | 58.011389 | 9.818949 | 2.0 | 17.097 | 2 | 43.551 | 17.270 | 33.597 | 2 |
| 2025-09-11T10:52:00 | 58.013253 | 9.817240 | 2.0 | 17.096 | 2 | 43.554 | 17.259 | 33.609 | 2 |
| 2025-09-11T10:53:00 | 58.015106 | 9.815503 | 2.0 | 17.093 | 2 | 43.554 | 17.261 | 33.607 | 2 |
| 2025-09-11T10:54:00 | 58.016958 | 9.813779 | 2.0 | 17.106 | 2 | 43.541 | 17.258 | 33.598 | 2 |
| 2025-09-11T10:55:00 | 58.018819 | 9.812074 | 2.0 | 17.110 | 2 | 43.542 | 17.269 | 33.590 | 2 |
| 2025-09-11T10:56:00 | 58.020672 | 9.810354 | 2.0 | 17.115 | 2 | 43.562 | 17.274 | 33.603 | 2 |
| 2025-09-11T10:57:00 | 58.022551 | 9.808747 | 2.0 | 17.110 | 2 | 43.357 | 17.276 | 33.425 | 2 |
| 2025-09-11T10:58:00 | 58.024408 | 9.807100 | 2.0 | 17.090 | 2 | 43.275 | 17.268 | 33.361 | 2 |
| 2025-09-11T10:59:00 | 58.026228 | 9.805386 | 2.0 | 16.750 | 2 | 43.422 | 17.168 | 33.570 | 2 |
| 2025-09-11T11:00:00 | 58.028026 | 9.803709 | 2.0 | 16.663 | 2 | 42.826 | 16.930 | 33.252 | 2 |
| 2025-09-11T11:01:00 | 58.029839 | 9.802178 | 2.0 | 16.581 | 2 | 42.705 | 16.832 | 33.228 | 2 |
| 2025-09-11T11:02:00 | 58.031639 | 9.800634 | 2.0 | 16.608 | 2 | 42.497 | 16.754 | 33.111 | 2 |
| 2025-09-11T11:03:00 | 58.033434 | 9.799097 | 2.0 | 16.597 | 2 | 42.432 | 16.775 | 33.037 | 2 |
| 2025-09-11T11:04:00 | 58.035350 | 9.798182 | 2.0 | 16.593 | 2 | 42.565 | 16.768 | 33.159 | 2 |
| 2025-09-11T11:05:00 | 58.037359 | 9.798507 | 2.0 | 16.592 | 2 | 42.731 | 16.760 | 33.310 | 2 |
| 2025-09-11T11:06:00 | 58.039390 | 9.798729 | 2.0 | 16.591 | 2 | 42.713 | 16.760 | 33.294 | 2 |
| 2025-09-11T11:07:00 | 58.041359 | 9.799405 | 2.0 | 16.584 | 2 | 42.729 | 16.762 | 33.307 | 2 |
| 2025-09-11T11:08:00 | 58.042983 | 9.800219 | 2.0 | 16.562 | 2 | 42.714 | 16.754 | 33.300 | 2 |
| 2025-09-11T11:09:00 | 58.043627 | 9.801671 | 2.0 | 16.555 | 2 | 42.555 | 16.739 | 33.174 | 2 |
| 2025-09-11T11:10:00 | 58.043573 | 9.802645 | 2.0 | 16.603 | 2 | 42.705 | 16.736 | 33.307 | 2 |
| 2025-09-11T11:11:00 | 58.043394 | 9.803106 | 2.0 | 16.701 | 2 | 42.627 | 16.804 | 33.183 | 2 |
| 2025-09-11T11:12:00 | 58.043331 | 9.803238 | 2.0 | 16.559 | 2 | 42.798 | 16.841 | 33.301 | 2 |
| 2025-09-11T11:13:00 | 58.043325 | 9.803207 | 2.0 | 16.561 | 2 | 42.721 | 16.746 | 33.313 | 2 |
| 2025-09-11T11:14:00 | 58.043316 | 9.803177 | 2.0 | 16.605 | 2 | 42.574 | 16.747 | 33.184 | 2 |
| 2025-09-11T11:15:00 | 58.043299 | 9.803151 | 2.0 | 16.653 | 2 | 42.570 | 16.798 | 33.138 | 2 |
| 2025-09-11T11:16:00 | 58.043216 | 9.802981 | 2.0 | 16.609 | 2 | 42.526 | 16.839 | 33.066 | 2 |
| 2025-09-11T11:17:00 | 58.043193 | 9.802593 | 2.0 | 16.629 | 2 | 42.531 | 16.785 | 33.115 | 2 |
| 2025-09-11T11:18:00 | 58.043367 | 9.802147 | 2.0 | 16.572 | 2 | 42.622 | 16.800 | 33.182 | 2 |
| 2025-09-11T11:19:00 | 58.043650 | 9.801872 | 2.0 | 16.573 | 2 | 42.537 | 16.762 | 33.139 | 2 |
| 2025-09-11T11:20:00 | 58.043946 | 9.801880 | 2.0 | 16.570 | 2 | 42.538 | 16.758 | 33.143 | 2 |
| 2025-09-11T11:21:00 | 58.044207 | 9.802058 | 2.0 | 16.567 | 2 | 42.543 | 16.756 | 33.150 | 2 |
| 2025-09-11T11:22:00 | 58.044438 | 9.802305 | 2.0 | 16.573 | 2 | 42.610 | 16.755 | 33.209 | 2 |
| 2025-09-11T11:23:00 | 58.044950 | 9.802734 | 2.0 | 16.581 | 2 | 42.578 | 16.761 | 33.176 | 2 |
| 2025-09-11T11:24:00 | 58.046082 | 9.802772 | 2.0 | 16.583 | 2 | 42.569 | 16.768 | 33.162 | 2 |
| 2025-09-11T11:25:00 | 58.047601 | 9.802342 | 2.0 | 16.586 | 2 | 42.600 | 16.775 | 33.183 | 2 |
| 2025-09-11T11:26:00 | 58.049361 | 9.801686 | 2.0 | 16.603 | 2 | 42.589 | 16.775 | 33.174 | 2 |
| 2025-09-11T11:27:00 | 58.051188 | 9.800655 | 2.0 | 16.625 | 2 | 42.618 | 16.803 | 33.176 | 2 |
| 2025-09-11T11:28:00 | 58.052956 | 9.799074 | 2.0 | 16.617 | 2 | 42.662 | 16.805 | 33.213 | 2 |
| 2025-09-11T11:29:00 | 58.054726 | 9.797290 | 2.0 | 16.622 | 2 | 42.626 | 16.792 | 33.192 | 2 |
| 2025-09-11T11:30:00 | 58.056220 | 9.794899 | 2.0 | 16.642 | 2 | 42.639 | 16.799 | 33.197 | 2 |
| 2025-09-11T11:31:00 | 58.057449 | 9.792075 | 2.0 | 16.713 | 2 | 42.687 | 16.823 | 33.219 | 2 |
| 2025-09-11T11:32:00 | 58.058666 | 9.789179 | 2.0 | 16.808 | 2 | 42.753 | 16.905 | 33.209 | 2 |
| 2025-09-11T11:33:00 | 58.059599 | 9.786090 | 2.0 | 16.743 | 2 | 42.859 | 16.962 | 33.254 | 2 |
| 2025-09-11T11:34:00 | 58.060458 | 9.782907 | 2.0 | 16.583 | 2 | 42.810 | 16.864 | 33.292 | 2 |
| 2025-09-11T11:35:00 | 58.061304 | 9.779671 | 2.0 | 16.623 | 2 | 42.679 | 16.775 | 33.252 | 2 |
| 2025-09-11T11:36:00 | 58.062154 | 9.776401 | 2.0 | 16.779 | 2 | 42.642 | 16.836 | 33.170 | 2 |
| 2025-09-11T11:37:00 | 58.062973 | 9.773095 | 2.0 | 16.759 | 2 | 42.603 | 16.952 | 33.040 | 2 |
| 2025-09-11T11:38:00 | 58.063804 | 9.769866 | 2.0 | 16.790 | 2 | 42.484 | 16.925 | 32.959 | 2 |
| 2025-09-11T11:39:00 | 58.064649 | 9.767392 | 2.0 | 16.885 | 2 | 42.480 | 16.978 | 32.912 | 2 |
| 2025-09-11T11:40:00 | 58.065429 | 9.767550 | 2.0 | 16.878 | 2 | 42.495 | 17.046 | 32.870 | 2 |
| 2025-09-11T11:41:00 | 58.065705 | 9.768349 | 2.0 | 16.863 | 2 | 42.452 | 17.044 | 32.834 | 2 |
| 2025-09-11T11:42:00 | 58.065478 | 9.769334 | 2.0 | 16.836 | 2 | 42.432 | 17.019 | 32.837 | 2 |
| 2025-09-11T11:43:00 | 58.064835 | 9.770518 | 2.0 | 16.839 | 2 | 42.462 | 17.009 | 32.871 | 2 |
| 2025-09-11T11:44:00 | 58.064154 | 9.771655 | 2.0 | 16.774 | 2 | 42.520 | 16.988 | 32.939 | 2 |
| 2025-09-11T11:45:00 | 58.063527 | 9.772708 | 2.0 | 16.755 | 2 | 42.502 | 16.941 | 32.962 | 2 |
| 2025-09-11T11:46:00 | 58.062891 | 9.773697 | 2.0 | 16.802 | 2 | 42.521 | 16.934 | 32.984 | 2 |
| 2025-09-11T11:47:00 | 58.062229 | 9.774625 | 2.0 | 16.736 | 2 | 42.575 | 16.961 | 33.008 | 2 |
| 2025-09-11T11:48:00 | 58.061556 | 9.775567 | 2.0 | 16.721 | 2 | 42.544 | 16.893 | 33.037 | 2 |
| 2025-09-11T11:49:00 | 58.060873 | 9.776512 | 2.0 | 16.741 | 2 | 42.622 | 16.898 | 33.101 | 2 |
| 2025-09-11T11:50:00 | 58.060200 | 9.777482 | 2.0 | 16.669 | 2 | 42.727 | 16.888 | 33.200 | 2 |
| 2025-09-11T11:51:00 | 58.059574 | 9.778236 | 2.0 | 16.624 | 2 | 42.734 | 16.837 | 33.249 | 2 |
| 2025-09-11T11:52:00 | 58.059398 | 9.778021 | 2.0 | 16.646 | 2 | 42.698 | 16.793 | 33.254 | 2 |
| 2025-09-11T11:53:00 | 58.059657 | 9.777915 | 2.0 | 16.716 | 2 | 42.734 | 16.843 | 33.244 | 2 |
| 2025-09-11T11:54:00 | 58.059952 | 9.778231 | 2.0 | 16.796 | 2 | 42.791 | 16.891 | 33.253 | 2 |
| 2025-09-11T11:55:00 | 58.060153 | 9.778671 | 2.0 | 16.860 | 2 | 42.883 | 16.982 | 33.258 | 2 |
| 2025-09-11T11:56:00 | 58.060296 | 9.779053 | 2.0 | 16.874 | 2 | 42.944 | 17.031 | 33.270 | 2 |
| 2025-09-11T11:57:00 | 58.060423 | 9.779405 | 2.0 | 16.865 | 2 | 42.958 | 17.051 | 33.266 | 2 |
| 2025-09-11T11:58:00 | 58.060548 | 9.779706 | 2.0 | 16.820 | 2 | 42.952 | 17.042 | 33.268 | 2 |
| 2025-09-11T11:59:00 | 58.060645 | 9.779969 | 2.0 | 16.763 | 2 | 42.868 | 16.943 | 33.277 | 2 |
| 2025-09-11T12:00:00 | 58.060731 | 9.780227 | 2.0 | 16.636 | 2 | 42.884 | 16.972 | 33.267 | 2 |
| 2025-09-11T12:01:00 | 58.060787 | 9.780494 | 2.0 | 16.562 | 2 | 42.783 | 16.809 | 33.315 | 2 |
| 2025-09-11T12:02:00 | 58.060858 | 9.780748 | 2.0 | 16.583 | 2 | 42.746 | 16.757 | 33.325 | 2 |
| 2025-09-11T12:03:00 | 58.060950 | 9.780987 | 2.0 | 16.597 | 2 | 42.732 | 16.772 | 33.301 | 2 |
| 2025-09-11T12:04:00 | 58.061060 | 9.781212 | 2.0 | 16.697 | 2 | 42.724 | 16.796 | 33.274 | 2 |
| 2025-09-11T12:05:00 | 58.061184 | 9.781430 | 2.0 | 16.745 | 2 | 42.789 | 16.886 | 33.256 | 2 |
| 2025-09-11T12:06:00 | 58.061320 | 9.781640 | 2.0 | 16.760 | 2 | 42.827 | 16.926 | 33.256 | 2 |
| 2025-09-11T12:07:00 | 58.061327 | 9.781915 | 2.0 | 16.818 | 2 | 42.843 | 16.946 | 33.253 | 2 |
| 2025-09-11T12:08:00 | 58.061287 | 9.781813 | 2.0 | 16.791 | 2 | 42.898 | 17.012 | 33.246 | 2 |
| 2025-09-11T12:09:00 | 58.061597 | 9.781322 | 2.0 | 16.663 | 2 | 42.821 | 16.936 | 33.242 | 2 |
| 2025-09-11T12:10:00 | 58.062177 | 9.780420 | 2.0 | 16.747 | 2 | 42.721 | 16.902 | 33.184 | 2 |
| 2025-09-11T12:11:00 | 58.063161 | 9.779799 | 2.0 | 16.763 | 2 | 42.620 | 16.927 | 33.075 | 2 |
| 2025-09-11T12:12:00 | 58.064122 | 9.779990 | 2.0 | 16.769 | 2 | 42.579 | 16.946 | 33.024 | 2 |
| 2025-09-11T12:13:00 | 58.064406 | 9.780889 | 2.0 | 16.742 | 2 | 42.590 | 16.955 | 33.026 | 2 |
| 2025-09-11T12:14:00 | 58.064425 | 9.781515 | 2.0 | 16.642 | 2 | 42.573 | 16.904 | 33.054 | 2 |
| 2025-09-11T12:15:00 | 58.064478 | 9.781937 | 2.0 | 16.631 | 2 | 42.525 | 16.837 | 33.067 | 2 |
| 2025-09-11T12:16:00 | 58.064513 | 9.782335 | 2.0 | 16.655 | 2 | 42.569 | 16.819 | 33.120 | 2 |
| 2025-09-11T12:17:00 | 58.064166 | 9.782323 | 2.0 | 16.746 | 2 | 42.580 | 16.896 | 33.066 | 2 |
| 2025-09-11T12:18:00 | 58.063594 | 9.781097 | 2.0 | 16.754 | 2 | 42.562 | 16.929 | 33.023 | 2 |
| 2025-09-11T12:19:00 | 58.062992 | 9.779104 | 2.0 | 16.775 | 2 | 42.548 | 16.946 | 32.997 | 2 |
| 2025-09-11T12:20:00 | 58.063468 | 9.777515 | 2.0 | 16.817 | 2 | 42.551 | 16.967 | 32.983 | 2 |
| 2025-09-11T12:21:00 | 58.064421 | 9.777182 | 2.0 | 16.863 | 2 | 42.589 | 17.014 | 32.977 | 2 |
| 2025-09-11T12:22:00 | 58.065346 | 9.777450 | 2.0 | 16.978 | 2 | 42.634 | 17.059 | 32.979 | 2 |
| 2025-09-11T12:23:00 | 58.066244 | 9.777731 | 2.0 | 16.872 | 2 | 42.690 | 17.141 | 32.961 | 2 |
| 2025-09-11T12:24:00 | 58.067114 | 9.778000 | 2.0 | 16.891 | 2 | 42.550 | 17.076 | 32.893 | 2 |
| 2025-09-11T12:25:00 | 58.067933 | 9.778350 | 2.0 | 16.908 | 2 | 42.499 | 17.074 | 32.850 | 2 |
| 2025-09-11T12:26:00 | 58.068706 | 9.778546 | 2.0 | 16.943 | 2 | 42.552 | 17.088 | 32.885 | 2 |
| 2025-09-11T12:27:00 | 58.069454 | 9.778701 | 2.0 | 16.992 | 2 | 42.604 | 17.120 | 32.903 | 2 |
| 2025-09-11T12:28:00 | 58.070177 | 9.778932 | 2.0 | 16.890 | 2 | 42.666 | 17.158 | 32.926 | 2 |
| 2025-09-11T12:29:00 | 58.070872 | 9.779011 | 2.0 | 16.759 | 2 | 42.458 | 17.033 | 32.848 | 2 |
| 2025-09-11T12:30:00 | 58.071558 | 9.779043 | 2.0 | 16.789 | 2 | 42.313 | 16.938 | 32.800 | 2 |
| 2025-09-11T12:31:00 | 58.072246 | 9.779054 | 2.0 | 17.035 | 2 | 42.396 | 17.032 | 32.796 | 2 |
| 2025-09-11T12:32:00 | 58.072958 | 9.779045 | 2.0 | 16.911 | 2 | 42.542 | 17.195 | 32.789 | 2 |
| 2025-09-11T12:33:00 | 58.073677 | 9.779234 | 2.0 | 16.865 | 2 | 42.378 | 17.086 | 32.736 | 2 |
| 2025-09-11T12:34:00 | 58.074242 | 9.779968 | 2.0 | 16.836 | 2 | 42.292 | 17.030 | 32.707 | 2 |
| 2025-09-11T12:35:00 | 58.074551 | 9.781023 | 2.0 | 16.828 | 2 | 42.262 | 17.007 | 32.700 | 2 |
| 2025-09-11T12:36:00 | 58.074702 | 9.782350 | 2.0 | 16.831 | 2 | 42.259 | 17.001 | 32.702 | 2 |
| 2025-09-11T12:37:00 | 58.074822 | 9.783914 | 2.0 | 16.829 | 2 | 42.262 | 17.000 | 32.706 | 2 |
| 2025-09-11T12:38:00 | 58.074944 | 9.785538 | 2.0 | 16.813 | 2 | 42.268 | 16.999 | 32.712 | 2 |
| 2025-09-11T12:39:00 | 58.075060 | 9.787181 | 2.0 | 16.798 | 2 | 42.261 | 16.977 | 32.724 | 2 |
| 2025-09-11T12:40:00 | 58.075173 | 9.788805 | 2.0 | 16.849 | 2 | 42.309 | 16.978 | 32.764 | 2 |
| 2025-09-11T12:41:00 | 58.075300 | 9.790403 | 2.0 | 16.905 | 2 | 42.403 | 17.018 | 32.813 | 2 |
| 2025-09-11T12:42:00 | 58.075319 | 9.791932 | 2.0 | 17.110 | 2 | 42.521 | 17.130 | 32.824 | 2 |
| 2025-09-11T12:43:00 | 58.075351 | 9.793420 | 2.0 | 17.007 | 2 | 42.652 | 17.255 | 32.835 | 2 |
| 2025-09-11T12:44:00 | 58.075356 | 9.794873 | 2.0 | 16.959 | 2 | 42.544 | 17.165 | 32.815 | 2 |
| 2025-09-11T12:45:00 | 58.075331 | 9.796304 | 2.0 | 16.964 | 2 | 42.490 | 17.140 | 32.789 | 2 |
| 2025-09-11T12:46:00 | 58.075155 | 9.797615 | 2.0 | 16.884 | 2 | 42.519 | 17.134 | 32.819 | 2 |
| 2025-09-11T12:47:00 | 58.074850 | 9.798847 | 2.0 | 16.824 | 2 | 42.513 | 17.025 | 32.902 | 2 |
| 2025-09-11T12:48:00 | 58.074487 | 9.800193 | 2.0 | 16.830 | 2 | 42.507 | 17.007 | 32.912 | 2 |
| 2025-09-11T12:49:00 | 58.074080 | 9.801618 | 2.0 | 16.811 | 2 | 42.506 | 16.999 | 32.918 | 2 |
| 2025-09-11T12:50:00 | 58.073656 | 9.803049 | 2.0 | 16.835 | 2 | 42.519 | 16.976 | 32.948 | 2 |
| 2025-09-11T12:51:00 | 58.073235 | 9.804490 | 2.0 | 16.898 | 2 | 42.650 | 17.033 | 33.014 | 2 |
| 2025-09-11T12:52:00 | 58.072824 | 9.805964 | 2.0 | 16.751 | 2 | 42.831 | 17.047 | 33.159 | 2 |
| 2025-09-11T12:53:00 | 58.072426 | 9.807466 | 2.0 | 16.787 | 2 | 42.839 | 16.946 | 33.250 | 2 |
| 2025-09-11T12:54:00 | 58.072034 | 9.809012 | 2.0 | 16.734 | 2 | 42.911 | 16.945 | 33.313 | 2 |
| 2025-09-11T12:55:00 | 58.071653 | 9.810567 | 2.0 | 16.651 | 2 | 42.886 | 16.894 | 33.334 | 2 |
| 2025-09-11T12:56:00 | 58.071239 | 9.812068 | 2.0 | 16.573 | 2 | 42.808 | 16.808 | 33.337 | 2 |
| 2025-09-11T12:57:00 | 58.070521 | 9.813515 | 2.0 | 16.801 | 2 | 42.766 | 16.760 | 33.340 | 2 |
| 2025-09-11T12:58:00 | 58.069488 | 9.815235 | 2.0 | 16.923 | 2 | 43.014 | 16.990 | 33.365 | 2 |
| 2025-09-11T12:59:00 | 58.068173 | 9.816587 | 2.0 | 16.844 | 2 | 43.090 | 17.073 | 33.362 | 2 |
| 2025-09-11T13:00:00 | 58.066639 | 9.817065 | 2.0 | 16.852 | 2 | 43.010 | 16.989 | 33.362 | 2 |
| 2025-09-11T13:01:00 | 58.064798 | 9.816547 | 2.0 | 16.994 | 2 | 43.031 | 17.050 | 33.330 | 2 |
| 2025-09-11T13:02:00 | 58.062910 | 9.815030 | 2.0 | 16.935 | 2 | 43.109 | 17.145 | 33.319 | 2 |
| 2025-09-11T13:03:00 | 58.061407 | 9.812284 | 2.0 | 16.799 | 2 | 43.057 | 17.075 | 33.332 | 2 |
| 2025-09-11T13:04:00 | 58.060615 | 9.808545 | 2.0 | 16.769 | 2 | 42.980 | 16.962 | 33.359 | 2 |
| 2025-09-11T13:05:00 | 58.060567 | 9.804409 | 2.0 | 16.729 | 2 | 42.999 | 16.960 | 33.377 | 2 |
| 2025-09-11T13:06:00 | 58.060511 | 9.799989 | 2.0 | 16.694 | 2 | 42.975 | 16.878 | 33.424 | 2 |
| 2025-09-11T13:07:00 | 58.060479 | 9.795330 | 2.0 | 16.725 | 2 | 42.967 | 16.871 | 33.423 | 2 |
| 2025-09-11T13:08:00 | 58.061093 | 9.790691 | 2.0 | 16.785 | 2 | 43.006 | 16.907 | 33.427 | 2 |
| 2025-09-11T13:09:00 | 58.062544 | 9.786516 | 2.0 | 16.824 | 2 | 43.061 | 16.955 | 33.435 | 2 |
| 2025-09-11T13:10:00 | 58.064586 | 9.783082 | 2.0 | 16.779 | 2 | 43.046 | 16.979 | 33.402 | 2 |
| 2025-09-11T13:11:00 | 58.067216 | 9.781165 | 2.0 | 16.873 | 2 | 42.794 | 16.952 | 33.206 | 2 |
| 2025-09-11T13:12:00 | 58.070116 | 9.781089 | 2.0 | 16.874 | 2 | 42.647 | 17.062 | 32.988 | 2 |
| 2025-09-11T13:13:00 | 58.073025 | 9.781303 | 2.0 | 16.807 | 2 | 42.518 | 17.031 | 32.902 | 2 |
| 2025-09-11T13:14:00 | 58.075941 | 9.781242 | 2.0 | 16.878 | 2 | 42.336 | 16.996 | 32.773 | 2 |
| 2025-09-11T13:15:00 | 58.078867 | 9.781173 | 2.0 | 16.924 | 2 | 42.336 | 17.055 | 32.725 | 2 |
| 2025-09-11T13:16:00 | 58.081796 | 9.781193 | 2.0 | 16.928 | 2 | 42.089 | 17.105 | 32.472 | 2 |
| 2025-09-11T13:17:00 | 58.084735 | 9.781216 | 2.0 | 16.922 | 2 | 41.785 | 17.094 | 32.219 | 2 |
| 2025-09-11T13:18:00 | 58.087680 | 9.781151 | 2.0 | 17.135 | 2 | 41.841 | 17.127 | 32.241 | 2 |
| 2025-09-11T13:19:00 | 58.090633 | 9.781178 | 2.0 | 17.116 | 2 | 42.433 | 17.297 | 32.613 | 2 |
| 2025-09-11T13:20:00 | 58.093588 | 9.781167 | 2.0 | 17.167 | 2 | 42.372 | 17.302 | 32.556 | 2 |
| 2025-09-11T13:21:00 | 58.096549 | 9.781140 | 2.0 | 17.158 | 2 | 42.101 | 17.327 | 32.304 | 2 |
| 2025-09-11T13:22:00 | 58.099515 | 9.781157 | 2.0 | 17.156 | 2 | 42.055 | 17.322 | 32.269 | 2 |
| 2025-09-11T13:23:00 | 58.102473 | 9.781133 | 2.0 | 17.112 | 2 | 42.299 | 17.318 | 32.481 | 2 |
| 2025-09-11T13:24:00 | 58.105428 | 9.781101 | 2.0 | 17.124 | 2 | 42.132 | 17.281 | 32.367 | 2 |
| 2025-09-11T13:25:00 | 58.108390 | 9.781043 | 2.0 | 17.097 | 2 | 42.052 | 17.298 | 32.285 | 2 |
| 2025-09-11T13:26:00 | 58.111339 | 9.781033 | 2.0 | 16.997 | 2 | 42.111 | 17.236 | 32.385 | 2 |
| 2025-09-11T13:27:00 | 58.114270 | 9.781000 | 2.0 | 17.030 | 2 | 42.273 | 17.183 | 32.567 | 2 |
| 2025-09-11T13:28:00 | 58.117195 | 9.780963 | 2.0 | 17.097 | 2 | 41.896 | 17.196 | 32.233 | 2 |
| 2025-09-11T13:29:00 | 58.120099 | 9.781190 | 2.0 | 17.045 | 2 | 41.986 | 17.259 | 32.260 | 2 |
| 2025-09-11T13:30:00 | 58.122886 | 9.782477 | 2.0 | 17.058 | 2 | 41.947 | 17.205 | 32.269 | 2 |
| 2025-09-11T13:31:00 | 58.125534 | 9.784546 | 2.0 | 17.164 | 2 | 42.247 | 17.247 | 32.493 | 2 |
| 2025-09-11T13:32:00 | 58.127952 | 9.787460 | 2.0 | 17.182 | 2 | 42.302 | 17.329 | 32.475 | 2 |
| 2025-09-11T13:33:00 | 58.130052 | 9.791159 | 2.0 | 17.155 | 2 | 42.272 | 17.329 | 32.449 | 2 |
| 2025-09-11T13:34:00 | 58.131779 | 9.795497 | 2.0 | 17.108 | 2 | 42.111 | 17.314 | 32.323 | 2 |
| 2025-09-11T13:35:00 | 58.133111 | 9.800280 | 2.0 | 17.076 | 2 | 42.065 | 17.278 | 32.312 | 2 |
| 2025-09-11T13:36:00 | 58.133970 | 9.805403 | 2.0 | 17.053 | 2 | 42.143 | 17.243 | 32.407 | 2 |
| 2025-09-11T13:37:00 | 58.134299 | 9.810101 | 2.0 | 17.085 | 2 | 42.082 | 17.219 | 32.374 | 2 |
| 2025-09-11T13:38:00 | 58.134388 | 9.813745 | 2.0 | 17.106 | 2 | 42.078 | 17.258 | 32.339 | 2 |
| 2025-09-11T13:39:00 | 58.134463 | 9.816637 | 2.0 | 17.100 | 2 | 42.172 | 17.266 | 32.414 | 2 |
| 2025-09-11T13:40:00 | 58.134622 | 9.819042 | 2.0 | 17.077 | 2 | 42.055 | 17.252 | 32.324 | 2 |
| 2025-09-11T13:41:00 | 58.134659 | 9.821101 | 2.0 | 17.138 | 2 | 42.182 | 17.251 | 32.434 | 2 |
| 2025-09-11T13:42:00 | 58.134757 | 9.822927 | 2.0 | 17.134 | 2 | 42.139 | 17.300 | 32.358 | 2 |
| 2025-09-11T13:43:00 | 58.134777 | 9.824557 | 2.0 | 17.142 | 2 | 42.078 | 17.291 | 32.313 | 2 |
| 2025-09-11T13:44:00 | 58.134860 | 9.826050 | 2.0 | 17.157 | 2 | 42.156 | 17.315 | 32.361 | 2 |
| 2025-09-11T13:45:00 | 58.134948 | 9.827427 | 2.0 | 17.140 | 2 | 42.146 | 17.311 | 32.355 | 2 |
| 2025-09-11T13:46:00 | 58.135028 | 9.828727 | 2.0 | 17.194 | 2 | 42.073 | 17.316 | 32.289 | 2 |
| 2025-09-11T13:47:00 | 58.135124 | 9.829962 | 2.0 | 17.102 | 2 | 42.212 | 17.346 | 32.384 | 2 |
| 2025-09-11T13:48:00 | 58.135221 | 9.831149 | 2.0 | 17.073 | 2 | 42.082 | 17.263 | 32.339 | 2 |
| 2025-09-11T13:49:00 | 58.135324 | 9.832288 | 2.0 | 17.108 | 2 | 42.055 | 17.244 | 32.331 | 2 |
| 2025-09-11T13:50:00 | 58.135416 | 9.833372 | 2.0 | 17.106 | 2 | 42.079 | 17.271 | 32.330 | 2 |
| 2025-09-11T13:51:00 | 58.135497 | 9.834433 | 2.0 | 17.204 | 2 | 42.164 | 17.280 | 32.396 | 2 |
| 2025-09-11T13:52:00 | 58.135586 | 9.835460 | 2.0 | 17.155 | 2 | 42.214 | 17.349 | 32.383 | 2 |
| 2025-09-11T13:53:00 | 58.135680 | 9.836447 | 2.0 | 17.178 | 2 | 42.218 | 17.318 | 32.411 | 2 |
| 2025-09-11T13:54:00 | 58.135782 | 9.837374 | 2.0 | 17.202 | 2 | 42.238 | 17.355 | 32.399 | 2 |
| 2025-09-11T13:55:00 | 58.135833 | 9.838145 | 2.0 | 17.288 | 2 | 42.213 | 17.373 | 32.363 | 2 |
| 2025-09-11T13:56:00 | 58.135551 | 9.838617 | 2.0 | 17.136 | 2 | 42.304 | 17.408 | 32.413 | 2 |
| 2025-09-11T13:57:00 | 58.134993 | 9.838942 | 2.0 | 17.187 | 2 | 42.250 | 17.325 | 32.433 | 2 |
| 2025-09-11T13:58:00 | 58.134443 | 9.839269 | 2.0 | 17.184 | 2 | 42.296 | 17.349 | 32.453 | 2 |
| 2025-09-11T13:59:00 | 58.133917 | 9.839615 | 2.0 | 17.228 | 2 | 42.320 | 17.374 | 32.454 | 2 |
| 2025-09-11T14:00:00 | 58.133405 | 9.839981 | 2.0 | 17.124 | 2 | 42.333 | 17.371 | 32.467 | 2 |
| 2025-09-11T14:01:00 | 58.132903 | 9.840359 | 2.0 | 17.088 | 2 | 42.273 | 17.286 | 32.484 | 2 |
| 2025-09-11T14:02:00 | 58.132414 | 9.840717 | 2.0 | 17.066 | 2 | 42.237 | 17.250 | 32.482 | 2 |
| 2025-09-11T14:03:00 | 58.131943 | 9.841082 | 2.0 | 17.193 | 2 | 42.240 | 17.246 | 32.488 | 2 |
| 2025-09-11T14:04:00 | 58.131472 | 9.841448 | 2.0 | 17.271 | 2 | 42.378 | 17.375 | 32.503 | 2 |
| 2025-09-11T14:05:00 | 58.130985 | 9.841835 | 2.0 | 17.320 | 2 | 42.450 | 17.441 | 32.511 | 2 |
| 2025-09-11T14:06:00 | 58.130487 | 9.842223 | 2.0 | 17.304 | 2 | 42.467 | 17.474 | 32.500 | 2 |
| 2025-09-11T14:07:00 | 58.129982 | 9.842610 | 2.0 | 17.309 | 2 | 42.472 | 17.467 | 32.509 | 2 |
| 2025-09-11T14:08:00 | 58.129471 | 9.842992 | 2.0 | 17.311 | 2 | 42.475 | 17.465 | 32.514 | 2 |
| 2025-09-11T14:09:00 | 58.128953 | 9.843379 | 2.0 | 17.313 | 2 | 42.473 | 17.483 | 32.497 | 2 |
| 2025-09-11T14:10:00 | 58.128427 | 9.843762 | 2.0 | 17.335 | 2 | 42.474 | 17.481 | 32.500 | 2 |
| 2025-09-11T14:11:00 | 58.127896 | 9.844166 | 2.0 | 17.272 | 2 | 42.478 | 17.482 | 32.503 | 2 |
| 2025-09-11T14:12:00 | 58.127378 | 9.844572 | 2.0 | 17.288 | 2 | 42.438 | 17.436 | 32.505 | 2 |
| 2025-09-11T14:13:00 | 58.126877 | 9.844984 | 2.0 | 17.289 | 2 | 42.397 | 17.455 | 32.455 | 2 |
| 2025-09-11T14:14:00 | 58.126377 | 9.845378 | 2.0 | 17.221 | 2 | 42.379 | 17.430 | 32.460 | 2 |
| 2025-09-11T14:15:00 | 58.125880 | 9.845768 | 2.0 | 17.196 | 2 | 42.322 | 17.395 | 32.439 | 2 |
| 2025-09-11T14:16:00 | 58.125380 | 9.846144 | 2.0 | 17.124 | 2 | 42.303 | 17.341 | 32.466 | 2 |
| 2025-09-11T14:17:00 | 58.124885 | 9.846485 | 2.0 | 17.132 | 2 | 42.226 | 17.294 | 32.438 | 2 |
| 2025-09-11T14:18:00 | 58.124401 | 9.846816 | 2.0 | 17.239 | 2 | 42.290 | 17.303 | 32.485 | 2 |
| 2025-09-11T14:19:00 | 58.123922 | 9.847168 | 2.0 | 17.407 | 2 | 42.360 | 17.442 | 32.434 | 2 |
| 2025-09-11T14:20:00 | 58.123450 | 9.847537 | 2.0 | 17.389 | 2 | 42.493 | 17.556 | 32.456 | 2 |
| 2025-09-11T14:21:00 | 58.122974 | 9.847870 | 2.0 | 17.351 | 2 | 42.472 | 17.537 | 32.453 | 2 |
| 2025-09-11T14:22:00 | 58.122496 | 9.848208 | 2.0 | 17.408 | 2 | 42.472 | 17.524 | 32.464 | 2 |
| 2025-09-11T14:23:00 | 58.122011 | 9.848561 | 2.0 | 17.382 | 2 | 42.533 | 17.559 | 32.488 | 2 |
| 2025-09-11T14:24:00 | 58.121513 | 9.848917 | 2.0 | 17.395 | 2 | 42.484 | 17.541 | 32.460 | 2 |
| 2025-09-11T14:25:00 | 58.121006 | 9.849276 | 2.0 | 17.363 | 2 | 42.517 | 17.543 | 32.487 | 2 |
| 2025-09-11T14:26:00 | 58.120495 | 9.849650 | 2.0 | 17.362 | 2 | 42.505 | 17.524 | 32.492 | 2 |
| 2025-09-11T14:27:00 | 58.119978 | 9.850030 | 2.0 | 17.373 | 2 | 42.518 | 17.531 | 32.497 | 2 |
| 2025-09-11T14:28:00 | 58.119459 | 9.850402 | 2.0 | 17.320 | 2 | 42.524 | 17.528 | 32.505 | 2 |
| 2025-09-11T14:29:00 | 58.118937 | 9.850789 | 2.0 | 17.353 | 2 | 42.501 | 17.488 | 32.517 | 2 |
| 2025-09-11T14:30:00 | 58.118417 | 9.851171 | 2.0 | 17.401 | 2 | 42.560 | 17.530 | 32.534 | 2 |
| 2025-09-11T14:31:00 | 58.117899 | 9.851542 | 2.0 | 17.411 | 2 | 42.611 | 17.559 | 32.554 | 2 |
| 2025-09-11T14:32:00 | 58.117381 | 9.851909 | 2.0 | 17.402 | 2 | 42.632 | 17.569 | 32.564 | 2 |
| 2025-09-11T14:33:00 | 58.116862 | 9.852280 | 2.0 | 17.391 | 2 | 42.618 | 17.565 | 32.556 | 2 |
| 2025-09-11T14:34:00 | 58.116342 | 9.852648 | 2.0 | 17.380 | 2 | 42.594 | 17.543 | 32.553 | 2 |
| 2025-09-11T14:35:00 | 58.115826 | 9.853012 | 2.0 | 17.404 | 2 | 42.602 | 17.544 | 32.559 | 2 |
| 2025-09-11T14:36:00 | 58.115313 | 9.853376 | 2.0 | 17.366 | 2 | 42.603 | 17.559 | 32.548 | 2 |
| 2025-09-11T14:37:00 | 58.114798 | 9.853744 | 2.0 | 17.319 | 2 | 42.587 | 17.529 | 32.558 | 2 |
| 2025-09-11T14:38:00 | 58.114279 | 9.854123 | 2.0 | 17.293 | 2 | 42.521 | 17.467 | 32.551 | 2 |
| 2025-09-11T14:39:00 | 58.113756 | 9.854466 | 2.0 | 17.299 | 2 | 42.519 | 17.452 | 32.562 | 2 |
| 2025-09-11T14:40:00 | 58.113244 | 9.854875 | 2.0 | 17.294 | 2 | 42.544 | 17.471 | 32.568 | 2 |
| 2025-09-11T14:41:00 | 58.112722 | 9.855234 | 2.0 | 17.303 | 2 | 42.531 | 17.449 | 32.574 | 2 |
| 2025-09-11T14:42:00 | 58.112206 | 9.855606 | 2.0 | 17.345 | 2 | 42.570 | 17.480 | 32.583 | 2 |
| 2025-09-11T14:43:00 | 58.111693 | 9.855973 | 2.0 | 17.335 | 2 | 42.610 | 17.501 | 32.600 | 2 |
| 2025-09-11T14:44:00 | 58.111174 | 9.856328 | 2.0 | 17.303 | 2 | 42.601 | 17.484 | 32.606 | 2 |
| 2025-09-11T14:45:00 | 58.110659 | 9.856717 | 2.0 | 17.276 | 2 | 42.582 | 17.464 | 32.606 | 2 |
| 2025-09-11T14:46:00 | 58.110140 | 9.857071 | 2.0 | 17.244 | 2 | 42.561 | 17.438 | 32.609 | 2 |
| 2025-09-11T14:47:00 | 58.109614 | 9.857421 | 2.0 | 17.223 | 2 | 42.528 | 17.405 | 32.607 | 2 |
| 2025-09-11T14:48:00 | 58.109079 | 9.857778 | 2.0 | 17.204 | 2 | 42.512 | 17.384 | 32.610 | 2 |
| 2025-09-11T14:49:00 | 58.108536 | 9.858116 | 2.0 | 17.196 | 2 | 42.494 | 17.363 | 32.612 | 2 |
| 2025-09-11T14:50:00 | 58.107994 | 9.858489 | 2.0 | 17.200 | 2 | 42.499 | 17.366 | 32.614 | 2 |
| 2025-09-11T14:51:00 | 58.107452 | 9.858828 | 2.0 | 17.170 | 2 | 42.494 | 17.354 | 32.619 | 2 |
| 2025-09-11T14:52:00 | 58.106914 | 9.859205 | 2.0 | 17.149 | 2 | 42.481 | 17.334 | 32.624 | 2 |
| 2025-09-11T14:53:00 | 58.106371 | 9.859550 | 2.0 | 17.104 | 2 | 42.461 | 17.307 | 32.629 | 2 |
| 2025-09-11T14:54:00 | 58.105841 | 9.859956 | 2.0 | 17.074 | 2 | 42.424 | 17.265 | 32.631 | 2 |
| 2025-09-11T14:55:00 | 58.105306 | 9.860322 | 2.0 | 17.067 | 2 | 42.327 | 17.234 | 32.572 | 2 |
| 2025-09-11T14:56:00 | 58.104771 | 9.860688 | 2.0 | 17.007 | 2 | 42.364 | 17.223 | 32.613 | 2 |
| 2025-09-11T14:57:00 | 58.104239 | 9.861066 | 2.0 | 17.153 | 2 | 42.313 | 17.181 | 32.603 | 2 |
| 2025-09-11T14:58:00 | 58.103706 | 9.861432 | 2.0 | 17.250 | 2 | 42.511 | 17.347 | 32.639 | 2 |
| 2025-09-11T14:59:00 | 58.103173 | 9.861844 | 2.0 | 17.313 | 2 | 42.621 | 17.429 | 32.667 | 2 |
| 2025-09-11T15:00:00 | 58.102635 | 9.862235 | 2.0 | 17.208 | 2 | 42.483 | 17.438 | 32.542 | 2 |
| 2025-09-11T15:01:00 | 58.102103 | 9.862624 | 2.0 | 17.007 | 2 | 42.520 | 17.339 | 32.654 | 2 |
| 2025-09-11T15:02:00 | 58.101572 | 9.863021 | 2.0 | 16.920 | 2 | 42.490 | 17.166 | 32.768 | 2 |
| 2025-09-11T15:03:00 | 58.101039 | 9.863385 | 2.0 | 16.908 | 2 | 42.348 | 17.087 | 32.709 | 2 |
| 2025-09-11T15:04:00 | 58.100513 | 9.863757 | 2.0 | 16.895 | 2 | 42.393 | 17.058 | 32.772 | 2 |
| 2025-09-11T15:05:00 | 58.099995 | 9.864152 | 2.0 | 16.977 | 2 | 42.665 | 17.103 | 32.970 | 2 |
| 2025-09-11T15:06:00 | 58.099487 | 9.864602 | 2.0 | 16.890 | 2 | 42.894 | 17.113 | 33.160 | 2 |
| 2025-09-11T15:07:00 | 58.098994 | 9.865059 | 2.0 | 16.848 | 2 | 42.919 | 17.052 | 33.231 | 2 |
| 2025-09-11T15:08:00 | 58.098516 | 9.865505 | 2.0 | 16.855 | 2 | 42.865 | 17.016 | 33.214 | 2 |
| 2025-09-11T15:09:00 | 58.098048 | 9.865960 | 2.0 | 16.836 | 2 | 42.890 | 17.019 | 33.234 | 2 |
| 2025-09-11T15:10:00 | 58.097589 | 9.866416 | 2.0 | 16.875 | 2 | 42.881 | 17.006 | 33.236 | 2 |
| 2025-09-11T15:11:00 | 58.097136 | 9.866877 | 2.0 | 16.892 | 2 | 42.890 | 17.040 | 33.216 | 2 |
| 2025-09-11T15:12:00 | 58.096685 | 9.867352 | 2.0 | 16.906 | 2 | 42.960 | 17.062 | 33.259 | 2 |
| 2025-09-11T15:13:00 | 58.096225 | 9.867838 | 2.0 | 16.892 | 2 | 42.985 | 17.067 | 33.276 | 2 |
| 2025-09-11T15:14:00 | 58.095758 | 9.868329 | 2.0 | 16.873 | 2 | 42.968 | 17.054 | 33.272 | 2 |
| 2025-09-11T15:15:00 | 58.095278 | 9.868813 | 2.0 | 16.873 | 2 | 42.939 | 17.037 | 33.261 | 2 |
| 2025-09-11T15:16:00 | 58.094780 | 9.869259 | 2.0 | 16.864 | 2 | 42.958 | 17.039 | 33.276 | 2 |
| 2025-09-11T15:17:00 | 58.094276 | 9.869686 | 2.0 | 16.857 | 2 | 42.958 | 17.030 | 33.283 | 2 |
| 2025-09-11T15:18:00 | 58.093769 | 9.870100 | 2.0 | 16.836 | 2 | 42.944 | 17.018 | 33.281 | 2 |
| 2025-09-11T15:19:00 | 58.093255 | 9.870501 | 2.0 | 16.833 | 2 | 42.923 | 17.005 | 33.274 | 2 |
| 2025-09-11T15:20:00 | 58.092735 | 9.870901 | 2.0 | 16.817 | 2 | 42.922 | 16.996 | 33.280 | 2 |
| 2025-09-11T15:21:00 | 58.092212 | 9.871291 | 2.0 | 16.839 | 2 | 42.914 | 16.992 | 33.277 | 2 |
| 2025-09-11T15:22:00 | 58.091682 | 9.871681 | 2.0 | 16.853 | 2 | 42.941 | 17.008 | 33.287 | 2 |
| 2025-09-11T15:23:00 | 58.091153 | 9.872052 | 2.0 | 16.846 | 2 | 42.953 | 17.014 | 33.292 | 2 |
| 2025-09-11T15:24:00 | 58.090625 | 9.872432 | 2.0 | 16.863 | 2 | 42.959 | 17.013 | 33.298 | 2 |
| 2025-09-11T15:25:00 | 58.090086 | 9.872814 | 2.0 | 16.858 | 2 | 42.978 | 17.028 | 33.302 | 2 |
| 2025-09-11T15:26:00 | 58.089536 | 9.873185 | 2.0 | 16.882 | 2 | 42.957 | 17.025 | 33.287 | 2 |
| 2025-09-11T15:27:00 | 58.088984 | 9.873554 | 2.0 | 16.894 | 2 | 42.970 | 17.043 | 33.283 | 2 |
| 2025-09-11T15:28:00 | 58.088428 | 9.873918 | 2.0 | 16.914 | 2 | 42.993 | 17.065 | 33.285 | 2 |
| 2025-09-11T15:29:00 | 58.087864 | 9.874266 | 2.0 | 16.930 | 2 | 43.018 | 17.080 | 33.294 | 2 |
| 2025-09-11T15:30:00 | 58.087294 | 9.874632 | 2.0 | 16.949 | 2 | 43.050 | 17.096 | 33.308 | 2 |
| 2025-09-11T15:31:00 | 58.086724 | 9.875001 | 2.0 | 16.958 | 2 | 43.042 | 17.112 | 33.288 | 2 |
| 2025-09-11T15:32:00 | 58.086161 | 9.875361 | 2.0 | 16.956 | 2 | 43.075 | 17.121 | 33.309 | 2 |
| 2025-09-11T15:33:00 | 58.085608 | 9.875720 | 2.0 | 16.967 | 2 | 43.077 | 17.120 | 33.312 | 2 |
| 2025-09-11T15:34:00 | 58.085059 | 9.876088 | 2.0 | 16.986 | 2 | 43.092 | 17.133 | 33.314 | 2 |
| 2025-09-11T15:35:00 | 58.084503 | 9.876451 | 2.0 | 16.995 | 2 | 43.110 | 17.148 | 33.317 | 2 |
| 2025-09-11T15:36:00 | 58.083949 | 9.876824 | 2.0 | 17.006 | 2 | 43.120 | 17.160 | 33.316 | 2 |
| 2025-09-11T15:37:00 | 58.083393 | 9.877190 | 2.0 | 17.011 | 2 | 43.127 | 17.168 | 33.315 | 2 |
| 2025-09-11T15:38:00 | 58.082833 | 9.877554 | 2.0 | 17.022 | 2 | 43.135 | 17.176 | 33.316 | 2 |
| 2025-09-11T15:39:00 | 58.082272 | 9.877926 | 2.0 | 17.026 | 2 | 43.144 | 17.185 | 33.316 | 2 |
| 2025-09-11T15:40:00 | 58.081713 | 9.878320 | 2.0 | 17.026 | 2 | 43.149 | 17.188 | 33.318 | 2 |
| 2025-09-11T15:41:00 | 58.081156 | 9.878732 | 2.0 | 17.023 | 2 | 43.151 | 17.188 | 33.320 | 2 |
| 2025-09-11T15:42:00 | 58.080609 | 9.879147 | 2.0 | 17.014 | 2 | 43.146 | 17.185 | 33.318 | 2 |
| 2025-09-11T15:43:00 | 58.080069 | 9.879556 | 2.0 | 17.005 | 2 | 43.116 | 17.176 | 33.299 | 2 |
| 2025-09-11T15:44:00 | 58.079535 | 9.879985 | 2.0 | 16.991 | 2 | 43.123 | 17.165 | 33.315 | 2 |
| 2025-09-11T15:45:00 | 58.079000 | 9.880383 | 2.0 | 16.981 | 2 | 43.105 | 17.154 | 33.308 | 2 |
| 2025-09-11T15:46:00 | 58.078462 | 9.880755 | 2.0 | 16.971 | 2 | 43.107 | 17.144 | 33.318 | 2 |
| 2025-09-11T15:47:00 | 58.077934 | 9.881110 | 2.0 | 16.963 | 2 | 43.097 | 17.133 | 33.318 | 2 |
| 2025-09-11T15:48:00 | 58.077415 | 9.881475 | 2.0 | 16.956 | 2 | 43.092 | 17.125 | 33.321 | 2 |
| 2025-09-11T15:49:00 | 58.076901 | 9.881828 | 2.0 | 16.948 | 2 | 43.087 | 17.118 | 33.322 | 2 |
| 2025-09-11T15:50:00 | 58.076382 | 9.882192 | 2.0 | 16.937 | 2 | 43.081 | 17.111 | 33.323 | 2 |
| 2025-09-11T15:51:00 | 58.075861 | 9.882557 | 2.0 | 16.924 | 2 | 43.071 | 17.099 | 33.324 | 2 |
| 2025-09-11T15:52:00 | 58.075334 | 9.882918 | 2.0 | 16.913 | 2 | 43.059 | 17.086 | 33.324 | 2 |
| 2025-09-11T15:53:00 | 58.074807 | 9.883278 | 2.0 | 16.904 | 2 | 43.050 | 17.076 | 33.325 | 2 |
| 2025-09-11T15:54:00 | 58.074285 | 9.883643 | 2.0 | 16.893 | 2 | 43.044 | 17.067 | 33.327 | 2 |
| 2025-09-11T15:55:00 | 58.073770 | 9.884027 | 2.0 | 16.863 | 2 | 43.032 | 17.052 | 33.329 | 2 |
| 2025-09-11T15:56:00 | 58.073261 | 9.884454 | 2.0 | 16.870 | 2 | 43.009 | 17.023 | 33.333 | 2 |
| 2025-09-11T15:57:00 | 58.072753 | 9.884854 | 2.0 | 16.912 | 2 | 43.024 | 17.044 | 33.329 | 2 |
| 2025-09-11T15:58:00 | 58.072261 | 9.885276 | 2.0 | 16.920 | 2 | 43.050 | 17.078 | 33.323 | 2 |
| 2025-09-11T15:59:00 | 58.071802 | 9.885673 | 2.0 | 16.901 | 2 | 43.051 | 17.080 | 33.323 | 2 |
| 2025-09-11T16:00:00 | 58.071425 | 9.886347 | 2.0 | 16.830 | 2 | 43.032 | 17.058 | 33.324 | 2 |
| 2025-09-11T16:01:00 | 58.071038 | 9.886767 | 2.0 | 16.833 | 2 | 42.986 | 16.987 | 33.343 | 2 |
| 2025-09-11T16:02:00 | 58.070617 | 9.887149 | 2.0 | 16.853 | 2 | 42.981 | 17.010 | 33.320 | 2 |
| 2025-09-11T16:03:00 | 58.070160 | 9.887618 | 2.0 | 16.858 | 2 | 42.946 | 17.016 | 33.285 | 2 |
| 2025-09-11T16:04:00 | 58.069719 | 9.887933 | 2.0 | 16.871 | 2 | 42.935 | 17.023 | 33.269 | 2 |
| 2025-09-11T16:05:00 | 58.069284 | 9.888240 | 2.0 | 16.866 | 2 | 42.949 | 17.032 | 33.274 | 2 |
| 2025-09-11T16:06:00 | 58.068827 | 9.888511 | 2.0 | 16.764 | 2 | 42.947 | 17.020 | 33.282 | 2 |
| 2025-09-11T16:07:00 | 58.068333 | 9.888816 | 2.0 | 16.798 | 2 | 42.874 | 16.924 | 33.298 | 2 |
| 2025-09-11T16:08:00 | 58.067833 | 9.889094 | 2.0 | 16.827 | 2 | 42.888 | 16.960 | 33.281 | 2 |
| 2025-09-11T16:09:00 | 58.067336 | 9.889359 | 2.0 | 16.815 | 2 | 42.900 | 16.990 | 33.266 | 2 |
| 2025-09-11T16:10:00 | 58.066843 | 9.889644 | 2.0 | 16.804 | 2 | 42.888 | 16.975 | 33.268 | 2 |
| 2025-09-11T16:11:00 | 58.066342 | 9.889896 | 2.0 | 16.799 | 2 | 42.872 | 16.968 | 33.260 | 2 |
| 2025-09-11T16:12:00 | 58.065840 | 9.890244 | 2.0 | 16.775 | 2 | 42.860 | 16.958 | 33.258 | 2 |
| 2025-09-11T16:13:00 | 58.065320 | 9.890585 | 2.0 | 16.750 | 2 | 42.839 | 16.935 | 33.259 | 2 |
| 2025-09-11T16:14:00 | 58.064779 | 9.890945 | 2.0 | 16.741 | 2 | 42.818 | 16.914 | 33.258 | 2 |
| 2025-09-11T16:15:00 | 58.064224 | 9.891370 | 2.0 | 16.723 | 2 | 42.810 | 16.901 | 33.262 | 2 |
| 2025-09-11T16:16:00 | 58.063663 | 9.891790 | 2.0 | 16.727 | 2 | 42.793 | 16.889 | 33.257 | 2 |
| 2025-09-11T16:17:00 | 58.063103 | 9.892182 | 2.0 | 16.739 | 2 | 42.798 | 16.894 | 33.257 | 2 |
| 2025-09-11T16:18:00 | 58.062551 | 9.892521 | 2.0 | 16.754 | 2 | 42.814 | 16.906 | 33.261 | 2 |
| 2025-09-11T16:19:00 | 58.062005 | 9.892896 | 2.0 | 16.748 | 2 | 42.828 | 16.918 | 33.263 | 2 |
| 2025-09-11T16:20:00 | 58.061458 | 9.893239 | 2.0 | 16.738 | 2 | 42.815 | 16.909 | 33.259 | 2 |
| 2025-09-11T16:21:00 | 58.060899 | 9.893585 | 2.0 | 16.744 | 2 | 42.811 | 16.905 | 33.259 | 2 |
| 2025-09-11T16:22:00 | 58.060340 | 9.893919 | 2.0 | 16.734 | 2 | 42.818 | 16.907 | 33.264 | 2 |
| 2025-09-11T16:23:00 | 58.059781 | 9.894391 | 2.0 | 16.725 | 2 | 42.803 | 16.896 | 33.260 | 2 |
| 2025-09-11T16:24:00 | 58.059226 | 9.894722 | 2.0 | 16.728 | 2 | 42.789 | 16.890 | 33.253 | 2 |
| 2025-09-11T16:25:00 | 58.058694 | 9.895138 | 2.0 | 16.748 | 2 | 42.791 | 16.897 | 33.249 | 2 |
| 2025-09-11T16:26:00 | 58.058167 | 9.895472 | 2.0 | 16.762 | 2 | 42.807 | 16.915 | 33.248 | 2 |
| 2025-09-11T16:27:00 | 58.057649 | 9.895855 | 2.0 | 16.764 | 2 | 42.821 | 16.927 | 33.250 | 2 |
| 2025-09-11T16:28:00 | 58.057136 | 9.896177 | 2.0 | 16.751 | 2 | 42.821 | 16.924 | 33.252 | 2 |
| 2025-09-11T16:29:00 | 58.056632 | 9.896522 | 2.0 | 16.746 | 2 | 42.809 | 16.914 | 33.250 | 2 |
| 2025-09-11T16:30:00 | 58.056133 | 9.896863 | 2.0 | 16.736 | 2 | 42.809 | 16.908 | 33.255 | 2 |
| 2025-09-11T16:31:00 | 58.055627 | 9.897198 | 2.0 | 16.730 | 2 | 42.802 | 16.900 | 33.256 | 2 |
| 2025-09-11T16:32:00 | 58.055124 | 9.897547 | 2.0 | 16.726 | 2 | 42.794 | 16.893 | 33.254 | 2 |
| 2025-09-11T16:33:00 | 58.054619 | 9.897882 | 2.0 | 16.723 | 2 | 42.789 | 16.889 | 33.253 | 2 |
| 2025-09-11T16:34:00 | 58.054105 | 9.898273 | 2.0 | 16.718 | 2 | 42.778 | 16.887 | 33.246 | 2 |
| 2025-09-11T16:35:00 | 58.053590 | 9.898669 | 2.0 | 16.725 | 2 | 42.784 | 16.883 | 33.254 | 2 |
| 2025-09-11T16:36:00 | 58.053079 | 9.899061 | 2.0 | 16.733 | 2 | 42.791 | 16.890 | 33.254 | 2 |
| 2025-09-11T16:37:00 | 58.052572 | 9.899339 | 2.0 | 16.751 | 2 | 42.807 | 16.897 | 33.262 | 2 |
| 2025-09-11T16:38:00 | 58.052069 | 9.899733 | 2.0 | 16.758 | 2 | 42.811 | 16.917 | 33.249 | 2 |
| 2025-09-11T16:39:00 | 58.051575 | 9.900091 | 2.0 | 16.756 | 2 | 42.820 | 16.920 | 33.255 | 2 |
| 2025-09-11T16:40:00 | 58.051052 | 9.900474 | 2.0 | 16.753 | 2 | 42.819 | 16.919 | 33.255 | 2 |
| 2025-09-11T16:41:00 | 58.050439 | 9.900874 | 2.0 | 16.755 | 2 | 42.822 | 16.917 | 33.259 | 2 |
| 2025-09-11T16:42:00 | 58.049738 | 9.901326 | 2.0 | 16.764 | 2 | 42.826 | 16.919 | 33.261 | 2 |
| 2025-09-11T16:43:00 | 58.048986 | 9.901926 | 2.0 | 16.767 | 2 | 42.829 | 16.927 | 33.257 | 2 |
| 2025-09-11T16:44:00 | 58.048207 | 9.902535 | 2.0 | 16.777 | 2 | 42.838 | 16.932 | 33.260 | 2 |
| 2025-09-11T16:45:00 | 58.047408 | 9.903141 | 2.0 | 16.773 | 2 | 42.859 | 16.936 | 33.275 | 2 |
| 2025-09-11T16:46:00 | 58.046588 | 9.903740 | 2.0 | 16.793 | 2 | 42.874 | 16.938 | 33.287 | 2 |
| 2025-09-11T16:47:00 | 58.045748 | 9.904332 | 2.0 | 16.908 | 2 | 42.886 | 16.964 | 33.276 | 2 |
| 2025-09-11T16:48:00 | 58.044902 | 9.904930 | 2.0 | 17.167 | 2 | 43.116 | 17.120 | 33.346 | 2 |
| 2025-09-11T16:49:00 | 58.044069 | 9.905556 | 2.0 | 17.207 | 2 | 43.442 | 17.319 | 33.462 | 2 |
| 2025-09-11T16:50:00 | 58.043289 | 9.906210 | 2.0 | 17.175 | 2 | 43.526 | 17.359 | 33.502 | 2 |
| 2025-09-11T16:51:00 | 58.042551 | 9.906845 | 2.0 | 17.109 | 2 | 43.486 | 17.323 | 33.497 | 2 |
| 2025-09-11T16:52:00 | 58.041810 | 9.907476 | 2.0 | 17.058 | 2 | 43.378 | 17.259 | 33.457 | 2 |
| 2025-09-11T16:53:00 | 58.041035 | 9.908068 | 2.0 | 17.027 | 2 | 43.314 | 17.216 | 33.437 | 2 |
| 2025-09-11T16:54:00 | 58.040236 | 9.908634 | 2.0 | 16.982 | 2 | 43.105 | 17.181 | 33.286 | 2 |
| 2025-09-11T16:55:00 | 58.039442 | 9.909204 | 2.0 | 16.979 | 2 | 43.135 | 17.141 | 33.345 | 2 |
| 2025-09-11T16:56:00 | 58.038650 | 9.909773 | 2.0 | 16.987 | 2 | 43.123 | 17.144 | 33.332 | 2 |
| 2025-09-11T16:57:00 | 58.037858 | 9.910332 | 2.0 | 16.972 | 2 | 43.161 | 17.150 | 33.360 | 2 |
| 2025-09-11T16:58:00 | 58.037179 | 9.910890 | 2.0 | 16.906 | 2 | 43.207 | 17.126 | 33.419 | 2 |
| 2025-09-11T16:59:00 | 58.036691 | 9.911482 | 2.0 | 16.845 | 2 | 42.929 | 17.059 | 33.234 | 2 |
| 2025-09-11T17:00:00 | 58.036382 | 9.912038 | 2.0 | 16.842 | 2 | 43.026 | 17.009 | 33.360 | 2 |
| 2025-09-11T17:01:00 | 58.036225 | 9.912614 | 2.0 | 16.852 | 2 | 43.095 | 17.007 | 33.421 | 2 |
| 2025-09-11T17:02:00 | 58.036161 | 9.913213 | 2.0 | 16.844 | 2 | 42.966 | 17.012 | 33.305 | 2 |
| 2025-09-11T17:03:00 | 58.036036 | 9.913571 | 2.0 | 16.841 | 2 | 42.996 | 17.009 | 33.334 | 2 |
| 2025-09-11T17:04:00 | 58.035889 | 9.913540 | 2.0 | 16.855 | 2 | 43.107 | 17.000 | 33.437 | 2 |
| 2025-09-11T17:05:00 | 58.035850 | 9.913441 | 2.0 | 16.857 | 2 | 43.058 | 17.019 | 33.379 | 2 |
| 2025-09-11T17:06:00 | 58.035852 | 9.913436 | 2.0 | 16.856 | 2 | 43.073 | 17.018 | 33.393 | 2 |
| 2025-09-11T17:07:00 | 58.035804 | 9.913560 | 2.0 | 16.841 | 2 | 43.127 | 17.023 | 33.436 | 2 |
| 2025-09-11T17:08:00 | 58.035722 | 9.913624 | 2.0 | 16.861 | 2 | 43.090 | 17.008 | 33.416 | 2 |
| 2025-09-11T17:09:00 | 58.035659 | 9.913648 | 2.0 | 16.853 | 2 | 43.048 | 17.015 | 33.374 | 2 |
| 2025-09-11T17:10:00 | 58.035635 | 9.913733 | 2.0 | 16.864 | 2 | 43.165 | 17.014 | 33.476 | 2 |
| 2025-09-11T17:11:00 | 58.035646 | 9.913813 | 2.0 | 16.866 | 2 | 43.157 | 17.024 | 33.461 | 2 |
| 2025-09-11T17:12:00 | 58.035649 | 9.913842 | 2.0 | 16.871 | 2 | 43.122 | 17.031 | 33.425 | 2 |
| 2025-09-11T17:13:00 | 58.035675 | 9.913868 | 2.0 | 16.877 | 2 | 43.135 | 17.035 | 33.433 | 2 |
| 2025-09-11T17:14:00 | 58.035690 | 9.913892 | 2.0 | 16.866 | 2 | 43.116 | 17.036 | 33.415 | 2 |
| 2025-09-11T17:15:00 | 58.035664 | 9.913936 | 2.0 | 16.888 | 2 | 43.129 | 17.030 | 33.431 | 2 |
| 2025-09-11T17:16:00 | 58.035629 | 9.913939 | 2.0 | 16.886 | 2 | 43.195 | 17.052 | 33.470 | 2 |
| 2025-09-11T17:17:00 | 58.035619 | 9.913970 | 2.0 | 16.889 | 2 | 43.206 | 17.050 | 33.482 | 2 |
| 2025-09-11T17:18:00 | 58.035619 | 9.914045 | 2.0 | 16.883 | 2 | 43.177 | 17.050 | 33.456 | 2 |
| 2025-09-11T17:19:00 | 58.035578 | 9.914091 | 2.0 | 16.885 | 2 | 43.202 | 17.044 | 33.483 | 2 |
| 2025-09-11T17:20:00 | 58.035542 | 9.914158 | 2.0 | 16.871 | 2 | 43.209 | 17.047 | 33.487 | 2 |
| 2025-09-11T17:21:00 | 58.035520 | 9.914239 | 2.0 | 16.861 | 2 | 43.187 | 17.029 | 33.483 | 2 |
| 2025-09-11T17:22:00 | 58.035488 | 9.914280 | 2.0 | 16.880 | 2 | 43.202 | 17.025 | 33.499 | 2 |
| 2025-09-11T17:23:00 | 58.035435 | 9.914327 | 2.0 | 16.891 | 2 | 43.220 | 17.040 | 33.502 | 2 |
| 2025-09-11T17:24:00 | 58.035367 | 9.914428 | 2.0 | 16.884 | 2 | 43.221 | 17.049 | 33.495 | 2 |
| 2025-09-11T17:25:00 | 58.035348 | 9.914464 | 2.0 | 16.893 | 2 | 43.235 | 17.047 | 33.509 | 2 |
| 2025-09-11T17:26:00 | 58.035352 | 9.914432 | 2.0 | 16.880 | 2 | 43.240 | 17.052 | 33.509 | 2 |
| 2025-09-11T17:27:00 | 58.035406 | 9.914425 | 2.0 | 16.883 | 2 | 43.231 | 17.039 | 33.512 | 2 |
| 2025-09-11T17:28:00 | 58.035440 | 9.914391 | 2.0 | 16.857 | 2 | 43.236 | 17.043 | 33.513 | 2 |
| 2025-09-11T17:29:00 | 58.035603 | 9.914276 | 2.0 | 16.846 | 2 | 43.215 | 17.019 | 33.515 | 2 |
| 2025-09-11T17:30:00 | 58.036306 | 9.914631 | 2.0 | 16.861 | 2 | 43.203 | 17.015 | 33.508 | 2 |
| 2025-09-11T17:31:00 | 58.037083 | 9.915168 | 2.0 | 16.847 | 2 | 43.199 | 17.024 | 33.497 | 2 |
| 2025-09-11T17:32:00 | 58.037828 | 9.915714 | 2.0 | 16.833 | 2 | 43.181 | 17.006 | 33.497 | 2 |
| 2025-09-11T17:33:00 | 58.038554 | 9.916314 | 2.0 | 16.829 | 2 | 43.170 | 16.996 | 33.495 | 2 |
| 2025-09-11T17:34:00 | 58.039295 | 9.917205 | 2.0 | 16.820 | 2 | 43.165 | 16.992 | 33.494 | 2 |
| 2025-09-11T17:35:00 | 58.040141 | 9.918335 | 2.0 | 16.817 | 2 | 43.157 | 16.982 | 33.496 | 2 |
| 2025-09-11T17:36:00 | 58.041048 | 9.919318 | 2.0 | 16.847 | 2 | 43.157 | 16.986 | 33.492 | 2 |
| 2025-09-11T17:37:00 | 58.041946 | 9.920203 | 2.0 | 16.945 | 2 | 43.192 | 17.035 | 33.482 | 2 |
| 2025-09-11T17:38:00 | 58.042883 | 9.921115 | 2.0 | 16.969 | 2 | 43.235 | 17.107 | 33.459 | 2 |
| 2025-09-11T17:39:00 | 58.043855 | 9.921881 | 2.0 | 16.996 | 2 | 43.254 | 17.131 | 33.456 | 2 |
| 2025-09-11T17:40:00 | 58.044784 | 9.922406 | 2.0 | 17.051 | 2 | 43.313 | 17.164 | 33.479 | 2 |
| 2025-09-11T17:41:00 | 58.045797 | 9.923068 | 2.0 | 17.083 | 2 | 43.402 | 17.217 | 33.512 | 2 |
| 2025-09-11T17:42:00 | 58.046862 | 9.923782 | 2.0 | 17.083 | 2 | 43.454 | 17.239 | 33.539 | 2 |
| 2025-09-11T17:43:00 | 58.047953 | 9.924506 | 2.0 | 17.090 | 2 | 43.441 | 17.244 | 33.524 | 2 |
| 2025-09-11T17:44:00 | 58.049062 | 9.925244 | 2.0 | 17.117 | 2 | 43.476 | 17.255 | 33.545 | 2 |
| 2025-09-11T17:45:00 | 58.050190 | 9.925865 | 2.0 | 17.079 | 2 | 43.469 | 17.277 | 33.520 | 2 |
| 2025-09-11T17:46:00 | 58.051291 | 9.926427 | 2.0 | 16.897 | 2 | 43.386 | 17.213 | 33.502 | 2 |
| 2025-09-11T17:47:00 | 58.052333 | 9.927001 | 2.0 | 16.792 | 2 | 43.126 | 17.043 | 33.418 | 2 |
| 2025-09-11T17:48:00 | 58.053323 | 9.927569 | 2.0 | 16.762 | 2 | 42.996 | 16.961 | 33.373 | 2 |
| 2025-09-11T17:49:00 | 58.054274 | 9.928169 | 2.0 | 16.723 | 2 | 42.927 | 16.922 | 33.346 | 2 |
| 2025-09-11T17:50:00 | 58.055200 | 9.928775 | 2.0 | 16.714 | 2 | 42.875 | 16.891 | 33.326 | 2 |
| 2025-09-11T17:51:00 | 58.056109 | 9.929423 | 2.0 | 16.684 | 2 | 42.839 | 16.876 | 33.308 | 2 |
| 2025-09-11T17:52:00 | 58.056990 | 9.929934 | 2.0 | 16.638 | 2 | 42.807 | 16.842 | 33.308 | 2 |
| 2025-09-11T17:53:00 | 58.057861 | 9.930425 | 2.0 | 16.628 | 2 | 42.755 | 16.804 | 33.294 | 2 |
| 2025-09-11T17:54:00 | 58.058732 | 9.930919 | 2.0 | 16.614 | 2 | 42.727 | 16.791 | 33.281 | 2 |
| 2025-09-11T17:55:00 | 58.059590 | 9.931450 | 2.0 | 16.608 | 2 | 42.715 | 16.779 | 33.280 | 2 |
| 2025-09-11T17:56:00 | 58.060444 | 9.931967 | 2.0 | 16.604 | 2 | 42.712 | 16.773 | 33.283 | 2 |
| 2025-09-11T17:57:00 | 58.061296 | 9.932477 | 2.0 | 16.599 | 2 | 42.679 | 16.769 | 33.257 | 2 |
| 2025-09-11T17:58:00 | 58.062151 | 9.933018 | 2.0 | 16.594 | 2 | 42.640 | 16.763 | 33.228 | 2 |
| 2025-09-11T17:59:00 | 58.063031 | 9.933561 | 2.0 | 16.599 | 2 | 42.697 | 16.759 | 33.281 | 2 |
| 2025-09-11T18:00:00 | 58.063939 | 9.934067 | 2.0 | 16.616 | 2 | 42.676 | 16.767 | 33.256 | 2 |
| 2025-09-11T18:01:00 | 58.064874 | 9.934606 | 2.0 | 16.626 | 2 | 42.618 | 16.782 | 33.193 | 2 |
| 2025-09-11T18:02:00 | 58.065813 | 9.935121 | 2.0 | 16.627 | 2 | 42.678 | 16.790 | 33.239 | 2 |
| 2025-09-11T18:03:00 | 58.066760 | 9.935644 | 2.0 | 16.629 | 2 | 42.682 | 16.791 | 33.242 | 2 |
| 2025-09-11T18:04:00 | 58.067709 | 9.936165 | 2.0 | 16.635 | 2 | 42.668 | 16.793 | 33.228 | 2 |
| 2025-09-11T18:05:00 | 58.068613 | 9.936606 | 2.0 | 16.647 | 2 | 42.701 | 16.801 | 33.250 | 2 |
| 2025-09-11T18:06:00 | 58.069529 | 9.937076 | 2.0 | 16.664 | 2 | 42.690 | 16.813 | 33.230 | 2 |
| 2025-09-11T18:07:00 | 58.070468 | 9.937522 | 2.0 | 16.680 | 2 | 42.746 | 16.829 | 33.266 | 2 |
| 2025-09-11T18:08:00 | 58.071428 | 9.937987 | 2.0 | 16.692 | 2 | 42.749 | 16.845 | 33.255 | 2 |
| 2025-09-11T18:09:00 | 58.072408 | 9.938437 | 2.0 | 16.695 | 2 | 42.788 | 16.854 | 33.282 | 2 |
| 2025-09-11T18:10:00 | 58.073419 | 9.938860 | 2.0 | 16.715 | 2 | 42.787 | 16.861 | 33.275 | 2 |
| 2025-09-11T18:11:00 | 58.074441 | 9.939294 | 2.0 | 16.732 | 2 | 42.815 | 16.881 | 33.283 | 2 |
| 2025-09-11T18:12:00 | 58.075471 | 9.939717 | 2.0 | 16.731 | 2 | 42.837 | 16.894 | 33.291 | 2 |
| 2025-09-11T18:13:00 | 58.076511 | 9.940172 | 2.0 | 16.721 | 2 | 42.839 | 16.892 | 33.294 | 2 |
| 2025-09-11T18:14:00 | 58.077558 | 9.940629 | 2.0 | 16.702 | 2 | 42.853 | 16.881 | 33.316 | 2 |
| 2025-09-11T18:15:00 | 58.078606 | 9.941070 | 2.0 | 16.705 | 2 | 42.865 | 16.867 | 33.338 | 2 |
| 2025-09-11T18:16:00 | 58.079642 | 9.941525 | 2.0 | 16.690 | 2 | 42.882 | 16.866 | 33.353 | 2 |
| 2025-09-11T18:17:00 | 58.080684 | 9.941978 | 2.0 | 16.673 | 2 | 42.866 | 16.849 | 33.353 | 2 |
| 2025-09-11T18:18:00 | 58.081727 | 9.942405 | 2.0 | 16.654 | 2 | 42.861 | 16.832 | 33.363 | 2 |
| 2025-09-11T18:19:00 | 58.082792 | 9.942830 | 2.0 | 16.665 | 2 | 42.856 | 16.820 | 33.369 | 2 |
| 2025-09-11T18:20:00 | 58.083991 | 9.943234 | 2.0 | 16.664 | 2 | 42.872 | 16.827 | 33.377 | 2 |
| 2025-09-11T18:21:00 | 58.085537 | 9.943473 | 2.0 | 16.665 | 2 | 42.883 | 16.827 | 33.387 | 2 |
| 2025-09-11T18:22:00 | 58.087351 | 9.943574 | 2.0 | 16.664 | 2 | 42.895 | 16.828 | 33.396 | 2 |
| 2025-09-11T18:23:00 | 58.089323 | 9.943605 | 2.0 | 16.656 | 2 | 42.904 | 16.827 | 33.405 | 2 |
| 2025-09-11T18:24:00 | 58.091366 | 9.943616 | 2.0 | 16.641 | 2 | 42.903 | 16.817 | 33.412 | 2 |
| 2025-09-11T18:25:00 | 58.093451 | 9.943608 | 2.0 | 16.633 | 2 | 42.894 | 16.804 | 33.415 | 2 |
| 2025-09-11T18:26:00 | 58.095554 | 9.943593 | 2.0 | 16.653 | 2 | 42.899 | 16.803 | 33.420 | 2 |
| 2025-09-11T18:27:00 | 58.097684 | 9.943590 | 2.0 | 16.670 | 2 | 42.917 | 16.820 | 33.422 | 2 |
| 2025-09-11T18:28:00 | 58.099830 | 9.943573 | 2.0 | 16.667 | 2 | 42.930 | 16.833 | 33.422 | 2 |
| 2025-09-11T18:29:00 | 58.101977 | 9.943574 | 2.0 | 16.686 | 2 | 42.929 | 16.831 | 33.423 | 2 |
| 2025-09-11T18:30:00 | 58.104127 | 9.943589 | 2.0 | 16.709 | 2 | 42.945 | 16.856 | 33.416 | 2 |
| 2025-09-11T18:31:00 | 58.106274 | 9.943617 | 2.0 | 16.633 | 2 | 42.904 | 16.858 | 33.379 | 2 |
| 2025-09-11T18:32:00 | 58.108403 | 9.943639 | 2.0 | 16.626 | 2 | 42.767 | 16.795 | 33.312 | 2 |
| 2025-09-11T18:33:00 | 58.110525 | 9.943654 | 2.0 | 16.616 | 2 | 42.659 | 16.794 | 33.219 | 2 |
| 2025-09-11T18:34:00 | 58.112657 | 9.943663 | 2.0 | 16.626 | 2 | 42.584 | 16.777 | 33.168 | 2 |
| 2025-09-11T18:35:00 | 58.114807 | 9.943702 | 2.0 | 16.724 | 2 | 42.496 | 16.811 | 33.063 | 2 |
| 2025-09-11T18:36:00 | 58.116972 | 9.943715 | 2.0 | 16.716 | 2 | 42.484 | 16.884 | 32.993 | 2 |
| 2025-09-11T18:37:00 | 58.119141 | 9.943722 | 2.0 | 16.677 | 2 | 42.452 | 16.871 | 32.976 | 2 |
| 2025-09-11T18:38:00 | 58.121320 | 9.943706 | 2.0 | 16.712 | 2 | 42.436 | 16.846 | 32.982 | 2 |
| 2025-09-11T18:39:00 | 58.123490 | 9.943726 | 2.0 | 16.709 | 2 | 42.467 | 16.876 | 32.985 | 2 |
| 2025-09-11T18:40:00 | 58.125673 | 9.943696 | 2.0 | 16.691 | 2 | 42.547 | 16.868 | 33.061 | 2 |
| 2025-09-11T18:41:00 | 58.127859 | 9.943674 | 2.0 | 16.760 | 2 | 42.601 | 16.876 | 33.101 | 2 |
| 2025-09-11T18:42:00 | 58.130044 | 9.943609 | 2.0 | 16.776 | 2 | 42.514 | 16.916 | 32.993 | 2 |
| 2025-09-11T18:43:00 | 58.132220 | 9.943527 | 2.0 | 16.833 | 2 | 42.697 | 16.946 | 33.127 | 2 |
| 2025-09-11T18:44:00 | 58.134335 | 9.943426 | 2.0 | 16.867 | 2 | 42.517 | 16.998 | 32.928 | 2 |
| 2025-09-11T18:45:00 | 58.136416 | 9.943320 | 2.0 | 16.866 | 2 | 42.455 | 17.025 | 32.852 | 2 |
| 2025-09-11T18:46:00 | 58.138497 | 9.943218 | 2.0 | 16.862 | 2 | 42.036 | 17.030 | 32.486 | 2 |
| 2025-09-11T18:47:00 | 58.140449 | 9.943149 | 2.0 | 16.875 | 2 | 42.109 | 17.027 | 32.552 | 2 |
| 2025-09-11T18:48:00 | 58.142230 | 9.943155 | 2.0 | 16.895 | 2 | 42.036 | 17.042 | 32.477 | 2 |
| 2025-09-11T18:49:00 | 58.143676 | 9.943425 | 2.0 | 16.922 | 2 | 41.897 | 17.060 | 32.342 | 2 |
| 2025-09-11T18:50:00 | 58.144337 | 9.944849 | 2.0 | 16.925 | 2 | 42.181 | 17.084 | 32.568 | 2 |
| 2025-09-11T18:51:00 | 58.144488 | 9.946056 | 2.0 | 16.919 | 2 | 42.216 | 17.084 | 32.598 | 2 |
| 2025-09-11T18:52:00 | 58.144530 | 9.947096 | 2.0 | 16.917 | 2 | 42.205 | 17.080 | 32.592 | 2 |
| 2025-09-11T18:53:00 | 58.144350 | 9.948154 | 2.0 | 16.908 | 2 | 42.082 | 17.077 | 32.488 | 2 |
| 2025-09-11T18:54:00 | 58.144073 | 9.948994 | 2.0 | 16.898 | 2 | 42.196 | 17.068 | 32.594 | 2 |
| 2025-09-11T18:55:00 | 58.143800 | 9.949797 | 2.0 | 16.891 | 2 | 42.073 | 17.059 | 32.495 | 2 |
| 2025-09-11T18:56:00 | 58.143531 | 9.950601 | 2.0 | 16.886 | 2 | 42.183 | 17.053 | 32.595 | 2 |
| 2025-09-11T18:57:00 | 58.143206 | 9.951354 | 2.0 | 16.881 | 2 | 41.932 | 17.048 | 32.382 | 2 |
| 2025-09-11T18:58:00 | 58.142847 | 9.952090 | 2.0 | 16.872 | 2 | 42.121 | 17.042 | 32.550 | 2 |
| 2025-09-11T18:59:00 | 58.142467 | 9.952790 | 2.0 | 16.860 | 2 | 42.167 | 17.033 | 32.597 | 2 |
| 2025-09-11T19:00:00 | 58.142063 | 9.953515 | 2.0 | 16.854 | 2 | 41.950 | 17.022 | 32.419 | 2 |
| 2025-09-11T19:01:00 | 58.141641 | 9.954176 | 2.0 | 16.849 | 2 | 42.189 | 17.016 | 32.630 | 2 |
| 2025-09-11T19:02:00 | 58.141230 | 9.954785 | 2.0 | 16.842 | 2 | 42.205 | 17.011 | 32.648 | 2 |
| 2025-09-11T19:03:00 | 58.140818 | 9.955467 | 2.0 | 16.837 | 2 | 42.174 | 17.004 | 32.627 | 2 |
| 2025-09-11T19:04:00 | 58.140424 | 9.956157 | 2.0 | 16.843 | 2 | 42.047 | 17.000 | 32.520 | 2 |
| 2025-09-11T19:05:00 | 58.140029 | 9.956795 | 2.0 | 16.849 | 2 | 42.193 | 17.006 | 32.641 | 2 |
| 2025-09-11T19:06:00 | 58.139638 | 9.957477 | 2.0 | 16.843 | 2 | 42.213 | 17.012 | 32.654 | 2 |
| 2025-09-11T19:07:00 | 58.139267 | 9.958162 | 2.0 | 16.828 | 2 | 42.119 | 17.005 | 32.578 | 2 |
| 2025-09-11T19:08:00 | 58.138908 | 9.958860 | 2.0 | 16.810 | 2 | 42.219 | 16.987 | 32.679 | 2 |
| 2025-09-11T19:09:00 | 58.138547 | 9.959586 | 2.0 | 16.798 | 2 | 42.255 | 16.972 | 32.723 | 2 |
| 2025-09-11T19:10:00 | 58.138195 | 9.960292 | 2.0 | 16.793 | 2 | 42.280 | 16.962 | 32.752 | 2 |
| 2025-09-11T19:11:00 | 58.137860 | 9.961026 | 2.0 | 16.799 | 2 | 42.227 | 16.958 | 32.710 | 2 |
| 2025-09-11T19:12:00 | 58.137500 | 9.961697 | 2.0 | 16.800 | 2 | 42.334 | 16.963 | 32.798 | 2 |
| 2025-09-11T19:13:00 | 58.137107 | 9.962325 | 2.0 | 16.788 | 2 | 42.459 | 16.962 | 32.907 | 2 |
| 2025-09-11T19:14:00 | 58.136710 | 9.962945 | 2.0 | 16.762 | 2 | 42.525 | 16.948 | 32.976 | 2 |
| 2025-09-11T19:15:00 | 58.136320 | 9.963578 | 2.0 | 16.721 | 2 | 42.562 | 16.914 | 33.036 | 2 |
| 2025-09-11T19:16:00 | 58.135940 | 9.964182 | 2.0 | 16.721 | 2 | 42.673 | 16.888 | 33.154 | 2 |
| 2025-09-11T19:17:00 | 58.135534 | 9.964782 | 2.0 | 16.713 | 2 | 42.637 | 16.884 | 33.126 | 2 |
| 2025-09-11T19:18:00 | 58.135100 | 9.965288 | 2.0 | 16.715 | 2 | 42.636 | 16.878 | 33.130 | 2 |
| 2025-09-11T19:19:00 | 58.134627 | 9.965822 | 2.0 | 16.717 | 2 | 42.666 | 16.879 | 33.155 | 2 |
| 2025-09-11T19:20:00 | 58.134148 | 9.966293 | 2.0 | 16.720 | 2 | 42.691 | 16.881 | 33.175 | 2 |
| 2025-09-11T19:21:00 | 58.133678 | 9.966764 | 2.0 | 16.718 | 2 | 42.671 | 16.883 | 33.156 | 2 |
| 2025-09-11T19:22:00 | 58.133212 | 9.967284 | 2.0 | 16.720 | 2 | 42.633 | 16.881 | 33.125 | 2 |
| 2025-09-11T19:23:00 | 58.132737 | 9.967823 | 2.0 | 16.722 | 2 | 42.639 | 16.884 | 33.127 | 2 |
| 2025-09-11T19:24:00 | 58.132255 | 9.968345 | 2.0 | 16.716 | 2 | 42.629 | 16.886 | 33.117 | 2 |
| 2025-09-11T19:25:00 | 58.131773 | 9.968890 | 2.0 | 16.707 | 2 | 42.618 | 16.877 | 33.115 | 2 |
| 2025-09-11T19:26:00 | 58.131305 | 9.969505 | 2.0 | 16.708 | 2 | 42.603 | 16.872 | 33.106 | 2 |
| 2025-09-11T19:27:00 | 58.130838 | 9.970084 | 2.0 | 16.704 | 2 | 42.581 | 16.871 | 33.088 | 2 |
| 2025-09-11T19:28:00 | 58.130381 | 9.970676 | 2.0 | 16.699 | 2 | 42.553 | 16.867 | 33.067 | 2 |
| 2025-09-11T19:29:00 | 58.129928 | 9.971269 | 2.0 | 16.699 | 2 | 42.520 | 16.863 | 33.041 | 2 |
| 2025-09-11T19:30:00 | 58.129453 | 9.971825 | 2.0 | 16.702 | 2 | 42.512 | 16.863 | 33.034 | 2 |
| 2025-09-11T19:31:00 | 58.128959 | 9.972363 | 2.0 | 16.692 | 2 | 42.493 | 16.864 | 33.017 | 2 |
| 2025-09-11T19:32:00 | 58.128472 | 9.972843 | 2.0 | 16.687 | 2 | 42.461 | 16.855 | 32.997 | 2 |
| 2025-09-11T19:33:00 | 58.128038 | 9.973228 | 2.0 | 16.679 | 2 | 42.467 | 16.850 | 33.006 | 2 |
| 2025-09-11T19:34:00 | 58.127580 | 9.973575 | 2.0 | 16.672 | 2 | 42.432 | 16.841 | 32.983 | 2 |
| 2025-09-11T19:35:00 | 58.127115 | 9.973916 | 2.0 | 16.661 | 2 | 42.426 | 16.834 | 32.983 | 2 |
| 2025-09-11T19:36:00 | 58.126656 | 9.974296 | 2.0 | 16.655 | 2 | 42.404 | 16.824 | 32.973 | 2 |
| 2025-09-11T19:37:00 | 58.126173 | 9.974678 | 2.0 | 16.649 | 2 | 42.385 | 16.817 | 32.962 | 2 |
| 2025-09-11T19:38:00 | 58.125676 | 9.975036 | 2.0 | 16.654 | 2 | 42.402 | 16.813 | 32.980 | 2 |
| 2025-09-11T19:39:00 | 58.125152 | 9.975365 | 2.0 | 16.667 | 2 | 42.396 | 16.819 | 32.970 | 2 |
| 2025-09-11T19:40:00 | 58.124600 | 9.975697 | 2.0 | 16.678 | 2 | 42.408 | 16.832 | 32.970 | 2 |
| 2025-09-11T19:41:00 | 58.124072 | 9.976027 | 2.0 | 16.690 | 2 | 42.420 | 16.843 | 32.971 | 2 |
| 2025-09-11T19:42:00 | 58.123544 | 9.976436 | 2.0 | 16.705 | 2 | 42.430 | 16.855 | 32.970 | 2 |
| 2025-09-11T19:43:00 | 58.122995 | 9.976832 | 2.0 | 16.720 | 2 | 42.460 | 16.871 | 32.983 | 2 |
| 2025-09-11T19:44:00 | 58.122426 | 9.977198 | 2.0 | 16.705 | 2 | 42.487 | 16.880 | 32.999 | 2 |
| 2025-09-11T19:45:00 | 58.121875 | 9.977591 | 2.0 | 16.670 | 2 | 42.494 | 16.865 | 33.017 | 2 |
| 2025-09-11T19:46:00 | 58.121330 | 9.977998 | 2.0 | 16.614 | 2 | 42.483 | 16.825 | 33.040 | 2 |
| 2025-09-11T19:47:00 | 58.120784 | 9.978339 | 2.0 | 16.572 | 2 | 42.465 | 16.771 | 33.069 | 2 |
| 2025-09-11T19:48:00 | 58.120224 | 9.978665 | 2.0 | 16.564 | 2 | 42.391 | 16.737 | 33.033 | 2 |
| 2025-09-11T19:49:00 | 58.119687 | 9.979018 | 2.0 | 16.570 | 2 | 42.391 | 16.731 | 33.038 | 2 |
| 2025-09-11T19:50:00 | 58.119154 | 9.979367 | 2.0 | 16.581 | 2 | 42.445 | 16.738 | 33.079 | 2 |
| 2025-09-11T19:51:00 | 58.118590 | 9.979718 | 2.0 | 16.584 | 2 | 42.459 | 16.746 | 33.085 | 2 |
| 2025-09-11T19:52:00 | 58.118034 | 9.980112 | 2.0 | 16.587 | 2 | 42.469 | 16.748 | 33.092 | 2 |
| 2025-09-11T19:53:00 | 58.117496 | 9.980461 | 2.0 | 16.593 | 2 | 42.467 | 16.753 | 33.086 | 2 |
| 2025-09-11T19:54:00 | 58.116972 | 9.980835 | 2.0 | 16.602 | 2 | 42.505 | 16.759 | 33.114 | 2 |
| 2025-09-11T19:55:00 | 58.116443 | 9.981220 | 2.0 | 16.608 | 2 | 42.552 | 16.766 | 33.149 | 2 |
| 2025-09-11T19:56:00 | 58.115907 | 9.981632 | 2.0 | 16.625 | 2 | 42.520 | 16.774 | 33.115 | 2 |
| 2025-09-11T19:57:00 | 58.115375 | 9.982051 | 2.0 | 16.640 | 2 | 42.599 | 16.792 | 33.168 | 2 |
| 2025-09-11T19:58:00 | 58.114870 | 9.982544 | 2.0 | 16.654 | 2 | 42.646 | 16.804 | 33.199 | 2 |
| 2025-09-11T19:59:00 | 58.114343 | 9.983036 | 2.0 | 16.663 | 2 | 42.674 | 16.817 | 33.213 | 2 |
| 2025-09-11T20:00:00 | 58.113855 | 9.983608 | 2.0 | 16.674 | 2 | 42.689 | 16.827 | 33.218 | 2 |
| 2025-09-11T20:01:00 | 58.113366 | 9.984179 | 2.0 | 16.677 | 2 | 42.768 | 16.837 | 33.278 | 2 |
| 2025-09-11T20:02:00 | 58.112866 | 9.984778 | 2.0 | 16.670 | 2 | 42.829 | 16.840 | 33.329 | 2 |
| 2025-09-11T20:03:00 | 58.112404 | 9.985368 | 2.0 | 16.630 | 2 | 42.885 | 16.823 | 33.392 | 2 |
| 2025-09-11T20:04:00 | 58.111961 | 9.985838 | 2.0 | 16.615 | 2 | 42.894 | 16.792 | 33.425 | 2 |
| 2025-09-11T20:05:00 | 58.111481 | 9.986247 | 2.0 | 16.610 | 2 | 42.837 | 16.779 | 33.386 | 2 |
| 2025-09-11T20:06:00 | 58.110961 | 9.986581 | 2.0 | 16.604 | 2 | 42.835 | 16.773 | 33.390 | 2 |
| 2025-09-11T20:07:00 | 58.110406 | 9.986854 | 2.0 | 16.587 | 2 | 42.895 | 16.764 | 33.449 | 2 |
| 2025-09-11T20:08:00 | 58.109836 | 9.987096 | 2.0 | 16.575 | 2 | 42.885 | 16.750 | 33.452 | 2 |
| 2025-09-11T20:09:00 | 58.109268 | 9.987400 | 2.0 | 16.562 | 2 | 42.875 | 16.739 | 33.453 | 2 |
| 2025-09-11T20:10:00 | 58.108758 | 9.987789 | 2.0 | 16.551 | 2 | 42.865 | 16.726 | 33.455 | 2 |
| 2025-09-11T20:11:00 | 58.108226 | 9.988126 | 2.0 | 16.541 | 2 | 42.855 | 16.714 | 33.456 | 2 |
| 2025-09-11T20:12:00 | 58.107696 | 9.988427 | 2.0 | 16.531 | 2 | 42.848 | 16.704 | 33.459 | 2 |
| 2025-09-11T20:13:00 | 58.107173 | 9.988770 | 2.0 | 16.524 | 2 | 42.839 | 16.695 | 33.458 | 2 |
| 2025-09-11T20:14:00 | 58.106682 | 9.989179 | 2.0 | 16.518 | 2 | 42.835 | 16.688 | 33.461 | 2 |
| 2025-09-11T20:15:00 | 58.106214 | 9.989556 | 2.0 | 16.511 | 2 | 42.523 | 16.681 | 33.194 | 2 |
| 2025-09-11T20:16:00 | 58.105732 | 9.989968 | 2.0 | 16.510 | 2 | 42.721 | 16.675 | 33.372 | 2 |
| 2025-09-11T20:17:00 | 58.105249 | 9.990306 | 2.0 | 16.507 | 2 | 42.797 | 16.674 | 33.439 | 2 |
| 2025-09-11T20:18:00 | 58.104792 | 9.990653 | 2.0 | 16.508 | 2 | 42.405 | 16.671 | 33.100 | 2 |
| 2025-09-11T20:19:00 | 58.104348 | 9.991013 | 2.0 | 16.507 | 2 | 42.589 | 16.671 | 33.260 | 2 |
| 2025-09-11T20:20:00 | 58.103867 | 9.991347 | 2.0 | 16.505 | 2 | 42.776 | 16.670 | 33.424 | 2 |
| 2025-09-11T20:21:00 | 58.103330 | 9.991562 | 2.0 | 16.508 | 2 | 42.824 | 16.670 | 33.466 | 2 |
| 2025-09-11T20:22:00 | 58.102762 | 9.991765 | 2.0 | 16.520 | 2 | 42.825 | 16.674 | 33.464 | 2 |
| 2025-09-11T20:23:00 | 58.102229 | 9.991901 | 2.0 | 16.523 | 2 | 42.828 | 16.685 | 33.457 | 2 |
| 2025-09-11T20:24:00 | 58.101695 | 9.992249 | 2.0 | 16.526 | 2 | 42.830 | 16.687 | 33.457 | 2 |
| 2025-09-11T20:25:00 | 58.101157 | 9.992627 | 2.0 | 16.530 | 2 | 42.817 | 16.690 | 33.443 | 2 |
| 2025-09-11T20:26:00 | 58.100594 | 9.992989 | 2.0 | 16.532 | 2 | 42.669 | 16.694 | 33.311 | 2 |
| 2025-09-11T20:27:00 | 58.100036 | 9.993389 | 2.0 | 16.532 | 2 | 42.776 | 16.695 | 33.403 | 2 |
| 2025-09-11T20:28:00 | 58.099491 | 9.993749 | 2.0 | 16.534 | 2 | 42.699 | 16.697 | 33.334 | 2 |
| 2025-09-11T20:29:00 | 58.098948 | 9.994142 | 2.0 | 16.532 | 2 | 42.653 | 16.697 | 33.294 | 2 |
| 2025-09-11T20:30:00 | 58.098400 | 9.994562 | 2.0 | 16.532 | 2 | 42.542 | 16.696 | 33.198 | 2 |
| 2025-09-11T20:31:00 | 58.097853 | 9.994923 | 2.0 | 16.533 | 2 | 42.547 | 16.696 | 33.203 | 2 |
| 2025-09-11T20:32:00 | 58.097326 | 9.995318 | 2.0 | 16.535 | 2 | 42.559 | 16.697 | 33.212 | 2 |
| 2025-09-11T20:33:00 | 58.096785 | 9.995602 | 2.0 | 16.539 | 2 | 42.823 | 16.698 | 33.442 | 2 |
| 2025-09-11T20:34:00 | 58.096245 | 9.995998 | 2.0 | 16.540 | 2 | 42.789 | 16.703 | 33.408 | 2 |
| 2025-09-11T20:35:00 | 58.095737 | 9.996430 | 2.0 | 16.539 | 2 | 42.527 | 16.703 | 33.179 | 2 |
| 2025-09-11T20:36:00 | 58.095190 | 9.996780 | 2.0 | 16.539 | 2 | 42.556 | 16.702 | 33.206 | 2 |
| 2025-09-11T20:37:00 | 58.094620 | 9.997098 | 2.0 | 16.539 | 2 | 42.597 | 16.703 | 33.240 | 2 |
| 2025-09-11T20:38:00 | 58.094043 | 9.997420 | 2.0 | 16.539 | 2 | 42.645 | 16.703 | 33.282 | 2 |
| 2025-09-11T20:39:00 | 58.093521 | 9.997826 | 2.0 | 16.535 | 2 | 42.785 | 16.702 | 33.405 | 2 |
| 2025-09-11T20:40:00 | 58.093030 | 9.998304 | 2.0 | 16.536 | 2 | 42.794 | 16.699 | 33.416 | 2 |
| 2025-09-11T20:41:00 | 58.092575 | 9.998851 | 2.0 | 16.532 | 2 | 42.792 | 16.698 | 33.415 | 2 |
| 2025-09-11T20:42:00 | 58.092095 | 9.999347 | 2.0 | 16.532 | 2 | 42.806 | 16.696 | 33.429 | 2 |
| 2025-09-11T20:43:00 | 58.091562 | 9.999806 | 2.0 | 16.529 | 2 | 42.721 | 16.695 | 33.355 | 2 |
| 2025-09-11T20:44:00 | 58.091043 | 10.000234 | 2.0 | 16.533 | 2 | 42.621 | 16.692 | 33.270 | 2 |
| 2025-09-11T20:45:00 | 58.090486 | 10.000525 | 2.0 | 16.533 | 2 | 42.518 | 16.696 | 33.177 | 2 |
| 2025-09-11T20:46:00 | 58.089913 | 10.000855 | 2.0 | 16.527 | 2 | 42.677 | 16.695 | 33.317 | 2 |
| 2025-09-11T20:47:00 | 58.089363 | 10.001223 | 2.0 | 16.520 | 2 | 42.659 | 16.689 | 33.306 | 2 |
| 2025-09-11T20:48:00 | 58.088745 | 10.001529 | 2.0 | 16.523 | 2 | 42.619 | 16.683 | 33.276 | 2 |
| 2025-09-11T20:49:00 | 58.088106 | 10.001869 | 2.0 | 16.526 | 2 | 42.659 | 16.688 | 33.307 | 2 |
| 2025-09-11T20:50:00 | 58.087495 | 10.002214 | 2.0 | 16.518 | 2 | 42.586 | 16.688 | 33.243 | 2 |
| 2025-09-11T20:51:00 | 58.086894 | 10.002508 | 2.0 | 16.528 | 2 | 42.666 | 16.683 | 33.317 | 2 |
| 2025-09-11T20:52:00 | 58.086257 | 10.002777 | 2.0 | 16.530 | 2 | 42.616 | 16.689 | 33.269 | 2 |
| 2025-09-11T20:53:00 | 58.085680 | 10.003124 | 2.0 | 16.535 | 2 | 42.630 | 16.695 | 33.276 | 2 |
| 2025-09-11T20:54:00 | 58.085140 | 10.003565 | 2.0 | 16.533 | 2 | 42.660 | 16.696 | 33.301 | 2 |
| 2025-09-11T20:55:00 | 58.084618 | 10.003971 | 2.0 | 16.541 | 2 | 42.709 | 16.700 | 33.341 | 2 |
| 2025-09-11T20:56:00 | 58.084144 | 10.004451 | 2.0 | 16.544 | 2 | 42.702 | 16.704 | 33.331 | 2 |
| 2025-09-11T20:57:00 | 58.083688 | 10.004950 | 2.0 | 16.551 | 2 | 42.669 | 16.709 | 33.298 | 2 |
| 2025-09-11T20:58:00 | 58.083180 | 10.005402 | 2.0 | 16.558 | 2 | 42.704 | 16.714 | 33.325 | 2 |
| 2025-09-11T20:59:00 | 58.082653 | 10.005799 | 2.0 | 16.560 | 2 | 42.701 | 16.722 | 33.315 | 2 |
| 2025-09-11T21:00:00 | 58.082119 | 10.006210 | 2.0 | 16.562 | 2 | 42.711 | 16.723 | 33.323 | 2 |
| 2025-09-11T21:01:00 | 58.081574 | 10.006615 | 2.0 | 16.563 | 2 | 42.714 | 16.725 | 33.324 | 2 |
| 2025-09-11T21:02:00 | 58.081002 | 10.006897 | 2.0 | 16.563 | 2 | 42.723 | 16.727 | 33.330 | 2 |
| 2025-09-11T21:03:00 | 58.080424 | 10.007195 | 2.0 | 16.563 | 2 | 42.725 | 16.725 | 33.334 | 2 |
| 2025-09-11T21:04:00 | 58.079887 | 10.007593 | 2.0 | 16.571 | 2 | 42.754 | 16.726 | 33.358 | 2 |
| 2025-09-11T21:05:00 | 58.079341 | 10.007914 | 2.0 | 16.579 | 2 | 42.769 | 16.736 | 33.363 | 2 |
| 2025-09-11T21:06:00 | 58.078828 | 10.008240 | 2.0 | 16.584 | 2 | 42.775 | 16.743 | 33.362 | 2 |
| 2025-09-11T21:07:00 | 58.078334 | 10.008642 | 2.0 | 16.595 | 2 | 42.763 | 16.748 | 33.348 | 2 |
| 2025-09-11T21:08:00 | 58.077848 | 10.009078 | 2.0 | 16.591 | 2 | 42.794 | 16.752 | 33.371 | 2 |
| 2025-09-11T21:09:00 | 58.077346 | 10.009546 | 2.0 | 16.598 | 2 | 42.791 | 16.757 | 33.365 | 2 |
| 2025-09-11T21:10:00 | 58.076938 | 10.010152 | 2.0 | 16.595 | 2 | 42.811 | 16.762 | 33.378 | 2 |
| 2025-09-11T21:11:00 | 58.076537 | 10.010765 | 2.0 | 16.603 | 2 | 42.802 | 16.757 | 33.374 | 2 |
| 2025-09-11T21:12:00 | 58.076086 | 10.011248 | 2.0 | 16.613 | 2 | 42.819 | 16.769 | 33.379 | 2 |
| 2025-09-11T21:13:00 | 58.075546 | 10.011608 | 2.0 | 16.611 | 2 | 42.831 | 16.773 | 33.386 | 2 |
| 2025-09-11T21:14:00 | 58.074941 | 10.011859 | 2.0 | 16.626 | 2 | 42.825 | 16.776 | 33.379 | 2 |
| 2025-09-11T21:15:00 | 58.074299 | 10.012075 | 2.0 | 16.623 | 2 | 42.840 | 16.785 | 33.384 | 2 |
| 2025-09-11T21:16:00 | 58.073670 | 10.012270 | 2.0 | 16.625 | 2 | 42.839 | 16.784 | 33.384 | 2 |
| 2025-09-11T21:17:00 | 58.073015 | 10.012429 | 2.0 | 16.625 | 2 | 42.842 | 16.787 | 33.384 | 2 |
| 2025-09-11T21:18:00 | 58.072313 | 10.012564 | 2.0 | 16.624 | 2 | 42.832 | 16.786 | 33.376 | 2 |
| 2025-09-11T21:19:00 | 58.071569 | 10.012647 | 2.0 | 16.624 | 2 | 42.831 | 16.787 | 33.375 | 2 |
| 2025-09-11T21:20:00 | 58.070834 | 10.012704 | 2.0 | 16.626 | 2 | 42.836 | 16.791 | 33.376 | 2 |
| 2025-09-11T21:21:00 | 58.070110 | 10.012769 | 2.0 | 16.628 | 2 | 42.836 | 16.788 | 33.378 | 2 |
| 2025-09-11T21:22:00 | 58.069405 | 10.012939 | 2.0 | 16.633 | 2 | 42.841 | 16.792 | 33.379 | 2 |
| 2025-09-11T21:23:00 | 58.068664 | 10.013252 | 2.0 | 16.627 | 2 | 42.845 | 16.793 | 33.382 | 2 |
| 2025-09-11T21:24:00 | 58.067973 | 10.013581 | 2.0 | 16.630 | 2 | 42.837 | 16.789 | 33.378 | 2 |
| 2025-09-11T21:25:00 | 58.067330 | 10.014135 | 2.0 | 16.629 | 2 | 42.837 | 16.791 | 33.376 | 2 |
| 2025-09-11T21:26:00 | 58.066752 | 10.014549 | 2.0 | 16.627 | 2 | 42.844 | 16.793 | 33.381 | 2 |
| 2025-09-11T21:27:00 | 58.066208 | 10.015061 | 2.0 | 16.628 | 2 | 42.844 | 16.790 | 33.383 | 2 |
| 2025-09-11T21:28:00 | 58.065703 | 10.015553 | 2.0 | 16.628 | 2 | 42.844 | 16.789 | 33.384 | 2 |
| 2025-09-11T21:29:00 | 58.065193 | 10.016042 | 2.0 | 16.628 | 2 | 42.846 | 16.789 | 33.386 | 2 |
| 2025-09-11T21:30:00 | 58.064668 | 10.016504 | 2.0 | 16.645 | 2 | 42.855 | 16.794 | 33.390 | 2 |
| 2025-09-11T21:31:00 | 58.064078 | 10.016893 | 2.0 | 16.649 | 2 | 42.877 | 16.806 | 33.399 | 2 |
| 2025-09-11T21:32:00 | 58.063448 | 10.017182 | 2.0 | 16.665 | 2 | 42.888 | 16.814 | 33.402 | 2 |
| 2025-09-11T21:33:00 | 58.062818 | 10.017536 | 2.0 | 16.672 | 2 | 42.912 | 16.832 | 33.408 | 2 |
| 2025-09-11T21:34:00 | 58.062249 | 10.017988 | 2.0 | 16.711 | 2 | 42.925 | 16.839 | 33.413 | 2 |
| 2025-09-11T21:35:00 | 58.061766 | 10.018533 | 2.0 | 16.730 | 2 | 42.978 | 16.875 | 33.429 | 2 |
| 2025-09-11T21:36:00 | 58.061290 | 10.019008 | 2.0 | 16.781 | 2 | 42.997 | 16.897 | 33.427 | 2 |
| 2025-09-11T21:37:00 | 58.060782 | 10.019437 | 2.0 | 16.799 | 2 | 43.080 | 16.943 | 33.461 | 2 |
| 2025-09-11T21:38:00 | 58.060304 | 10.019954 | 2.0 | 16.817 | 2 | 43.112 | 16.963 | 33.472 | 2 |
| 2025-09-11T21:39:00 | 58.059814 | 10.020373 | 2.0 | 16.856 | 2 | 42.918 | 16.985 | 33.286 | 2 |
| 2025-09-11T21:40:00 | 58.059283 | 10.020800 | 2.0 | 16.865 | 2 | 42.866 | 17.012 | 33.219 | 2 |
| 2025-09-11T21:41:00 | 58.058794 | 10.021214 | 2.0 | 16.879 | 2 | 43.040 | 17.027 | 33.357 | 2 |
| 2025-09-11T21:42:00 | 58.058304 | 10.021688 | 2.0 | 16.882 | 2 | 43.072 | 17.038 | 33.375 | 2 |
| 2025-09-11T21:43:00 | 58.057805 | 10.022111 | 2.0 | 16.881 | 2 | 43.237 | 17.044 | 33.513 | 2 |
| 2025-09-11T21:44:00 | 58.057270 | 10.022556 | 2.0 | 16.889 | 2 | 42.908 | 17.040 | 33.232 | 2 |
| 2025-09-11T21:45:00 | 58.056753 | 10.023077 | 2.0 | 16.878 | 2 | 43.087 | 17.048 | 33.380 | 2 |
| 2025-09-11T21:46:00 | 58.056269 | 10.023458 | 2.0 | 16.869 | 2 | 43.245 | 17.040 | 33.524 | 2 |
| 2025-09-11T21:47:00 | 58.055691 | 10.023685 | 2.0 | 16.823 | 2 | 43.094 | 17.022 | 33.408 | 2 |
| 2025-09-11T21:48:00 | 58.055050 | 10.023839 | 2.0 | 16.792 | 2 | 42.892 | 16.981 | 33.267 | 2 |
| 2025-09-11T21:49:00 | 58.054360 | 10.024128 | 2.0 | 16.758 | 2 | 43.129 | 16.949 | 33.499 | 2 |
| 2025-09-11T21:50:00 | 58.053713 | 10.024415 | 2.0 | 16.729 | 2 | 43.132 | 16.917 | 33.528 | 2 |
| 2025-09-11T21:51:00 | 58.053137 | 10.024819 | 2.0 | 16.693 | 2 | 43.090 | 16.884 | 33.519 | 2 |
| 2025-09-11T21:52:00 | 58.052568 | 10.025183 | 2.0 | 16.655 | 2 | 42.991 | 16.855 | 33.457 | 2 |
| 2025-09-11T21:53:00 | 58.051999 | 10.025536 | 2.0 | 16.624 | 2 | 42.968 | 16.811 | 33.474 | 2 |
| 2025-09-11T21:54:00 | 58.051479 | 10.026054 | 2.0 | 16.624 | 2 | 42.892 | 16.787 | 33.428 | 2 |
| 2025-09-11T21:55:00 | 58.051003 | 10.026516 | 2.0 | 16.634 | 2 | 42.770 | 16.788 | 33.321 | 2 |
| 2025-09-11T21:56:00 | 58.050530 | 10.026972 | 2.0 | 16.642 | 2 | 43.038 | 16.799 | 33.545 | 2 |
| 2025-09-11T21:57:00 | 58.050054 | 10.027375 | 2.0 | 16.650 | 2 | 42.985 | 16.806 | 33.493 | 2 |
| 2025-09-11T21:58:00 | 58.049645 | 10.027978 | 2.0 | 16.654 | 2 | 43.060 | 16.813 | 33.552 | 2 |
| 2025-09-11T21:59:00 | 58.049223 | 10.028436 | 2.0 | 16.661 | 2 | 42.862 | 16.817 | 33.377 | 2 |
| 2025-09-11T22:00:00 | 58.048740 | 10.028861 | 2.0 | 16.670 | 2 | 42.866 | 16.825 | 33.373 | 2 |
| 2025-09-11T22:01:00 | 58.048254 | 10.029216 | 2.0 | 16.669 | 2 | 42.843 | 16.831 | 33.348 | 2 |
| 2025-09-11T22:02:00 | 58.047784 | 10.029531 | 2.0 | 16.662 | 2 | 42.980 | 16.830 | 33.468 | 2 |
| 2025-09-11T22:03:00 | 58.047255 | 10.029830 | 2.0 | 16.644 | 2 | 43.038 | 16.820 | 33.527 | 2 |
| 2025-09-11T22:04:00 | 58.046699 | 10.030074 | 2.0 | 16.640 | 2 | 42.974 | 16.806 | 33.483 | 2 |
| 2025-09-11T22:05:00 | 58.046137 | 10.030291 | 2.0 | 16.648 | 2 | 43.028 | 16.803 | 33.533 | 2 |
| 2025-09-11T22:06:00 | 58.045540 | 10.030462 | 2.0 | 16.670 | 2 | 42.978 | 16.815 | 33.479 | 2 |
| 2025-09-11T22:07:00 | 58.045021 | 10.030746 | 2.0 | 16.691 | 2 | 43.003 | 16.834 | 33.485 | 2 |
| 2025-09-11T22:08:00 | 58.044479 | 10.030928 | 2.0 | 16.708 | 2 | 42.999 | 16.854 | 33.465 | 2 |
| 2025-09-11T22:09:00 | 58.043896 | 10.031075 | 2.0 | 16.716 | 2 | 42.962 | 16.869 | 33.420 | 2 |
| 2025-09-11T22:10:00 | 58.043330 | 10.031269 | 2.0 | 16.718 | 2 | 42.987 | 16.878 | 33.435 | 2 |
| 2025-09-11T22:11:00 | 58.042764 | 10.031487 | 2.0 | 16.713 | 2 | 42.958 | 16.879 | 33.409 | 2 |
| 2025-09-11T22:12:00 | 58.042187 | 10.031662 | 2.0 | 16.687 | 2 | 43.014 | 16.868 | 33.466 | 2 |
| 2025-09-11T22:13:00 | 58.041702 | 10.032019 | 2.0 | 16.682 | 2 | 42.979 | 16.849 | 33.452 | 2 |
| 2025-09-11T22:14:00 | 58.041241 | 10.032370 | 2.0 | 16.665 | 2 | 42.929 | 16.843 | 33.413 | 2 |
| 2025-09-11T22:15:00 | 58.040711 | 10.032648 | 2.0 | 16.653 | 2 | 42.953 | 16.823 | 33.451 | 2 |
| 2025-09-11T22:16:00 | 58.040105 | 10.032818 | 2.0 | 16.665 | 2 | 42.939 | 16.818 | 33.443 | 2 |
| 2025-09-11T22:17:00 | 58.039484 | 10.032922 | 2.0 | 16.666 | 2 | 42.973 | 16.827 | 33.465 | 2 |
| 2025-09-11T22:18:00 | 58.038852 | 10.033139 | 2.0 | 16.670 | 2 | 42.942 | 16.827 | 33.438 | 2 |
| 2025-09-11T22:19:00 | 58.038240 | 10.033429 | 2.0 | 16.684 | 2 | 42.981 | 16.834 | 33.466 | 2 |
| 2025-09-11T22:20:00 | 58.037665 | 10.033700 | 2.0 | 16.700 | 2 | 43.029 | 16.849 | 33.495 | 2 |
| 2025-09-11T22:21:00 | 58.037105 | 10.034058 | 2.0 | 16.707 | 2 | 43.055 | 16.860 | 33.509 | 2 |
| 2025-09-11T22:22:00 | 58.036630 | 10.034461 | 2.0 | 16.720 | 2 | 43.077 | 16.871 | 33.519 | 2 |
| 2025-09-11T22:23:00 | 58.036195 | 10.034879 | 2.0 | 16.732 | 2 | 43.095 | 16.884 | 33.524 | 2 |
| 2025-09-11T22:24:00 | 58.035696 | 10.035240 | 2.0 | 16.728 | 2 | 43.064 | 16.891 | 33.491 | 2 |
| 2025-09-11T22:25:00 | 58.035097 | 10.035483 | 2.0 | 16.734 | 2 | 43.096 | 16.890 | 33.519 | 2 |
| 2025-09-11T22:26:00 | 58.034502 | 10.035782 | 2.0 | 16.736 | 2 | 43.118 | 16.894 | 33.535 | 2 |
| 2025-09-11T22:27:00 | 58.034034 | 10.036164 | 2.0 | 16.758 | 2 | 43.119 | 16.902 | 33.529 | 2 |
| 2025-09-11T22:28:00 | 58.033555 | 10.036539 | 2.0 | 16.758 | 2 | 43.153 | 16.917 | 33.546 | 2 |
| 2025-09-11T22:29:00 | 58.033062 | 10.036922 | 2.0 | 16.767 | 2 | 43.149 | 16.921 | 33.540 | 2 |
| 2025-09-11T22:30:00 | 58.032552 | 10.037230 | 2.0 | 16.778 | 2 | 43.183 | 16.929 | 33.562 | 2 |
| 2025-09-11T22:31:00 | 58.031995 | 10.037463 | 2.0 | 16.775 | 2 | 43.181 | 16.937 | 33.554 | 2 |
| 2025-09-11T22:32:00 | 58.031417 | 10.037709 | 2.0 | 16.785 | 2 | 43.191 | 16.939 | 33.561 | 2 |
| 2025-09-11T22:33:00 | 58.030802 | 10.037955 | 2.0 | 16.783 | 2 | 43.203 | 16.945 | 33.566 | 2 |
| 2025-09-11T22:34:00 | 58.030192 | 10.037709 | 2.0 | 16.776 | 2 | 43.197 | 16.942 | 33.564 | 2 |
| 2025-09-11T22:35:00 | 58.029654 | 10.036965 | 2.0 | 16.761 | 2 | 43.200 | 16.935 | 33.572 | 2 |
| 2025-09-11T22:36:00 | 58.029163 | 10.035958 | 2.0 | 16.739 | 2 | 43.183 | 16.920 | 33.570 | 2 |
| 2025-09-11T22:37:00 | 58.029351 | 10.034451 | 2.0 | 16.696 | 2 | 43.160 | 16.891 | 33.574 | 2 |
| 2025-09-11T22:38:00 | 58.030289 | 10.033250 | 2.0 | 16.671 | 2 | 43.122 | 16.853 | 33.573 | 2 |
| 2025-09-11T22:39:00 | 58.031471 | 10.032115 | 2.0 | 16.659 | 2 | 43.110 | 16.833 | 33.579 | 2 |
| 2025-09-11T22:40:00 | 58.032739 | 10.030888 | 2.0 | 16.646 | 2 | 43.101 | 16.822 | 33.581 | 2 |
| 2025-09-11T22:41:00 | 58.034102 | 10.029724 | 2.0 | 16.634 | 2 | 43.092 | 16.806 | 33.586 | 2 |
| 2025-09-11T22:42:00 | 58.035601 | 10.028892 | 2.0 | 16.634 | 2 | 43.085 | 16.798 | 33.587 | 2 |
| 2025-09-11T22:43:00 | 58.037194 | 10.028482 | 2.0 | 16.631 | 2 | 43.085 | 16.798 | 33.587 | 2 |
| 2025-09-11T22:44:00 | 58.038829 | 10.028282 | 2.0 | 16.640 | 2 | 43.068 | 16.795 | 33.574 | 2 |
| 2025-09-11T22:45:00 | 58.040442 | 10.028037 | 2.0 | 16.682 | 2 | 43.073 | 16.810 | 33.566 | 2 |
| 2025-09-11T22:46:00 | 58.042094 | 10.027739 | 2.0 | 16.703 | 2 | 43.070 | 16.841 | 33.538 | 2 |
| 2025-09-11T22:47:00 | 58.043834 | 10.027611 | 2.0 | 16.724 | 2 | 43.067 | 16.867 | 33.513 | 2 |
| 2025-09-11T22:48:00 | 58.045587 | 10.027585 | 2.0 | 16.725 | 2 | 43.080 | 16.883 | 33.511 | 2 |
| 2025-09-11T22:49:00 | 58.047317 | 10.027407 | 2.0 | 16.718 | 2 | 43.075 | 16.885 | 33.505 | 2 |
| 2025-09-11T22:50:00 | 58.049057 | 10.027201 | 2.0 | 16.707 | 2 | 43.045 | 16.879 | 33.484 | 2 |
| 2025-09-11T22:51:00 | 58.050767 | 10.027069 | 2.0 | 16.646 | 2 | 42.996 | 16.851 | 33.465 | 2 |
| 2025-09-11T22:52:00 | 58.052495 | 10.026896 | 2.0 | 16.639 | 2 | 42.920 | 16.810 | 33.433 | 2 |
| 2025-09-11T22:53:00 | 58.054257 | 10.026699 | 2.0 | 16.635 | 2 | 42.903 | 16.801 | 33.426 | 2 |
| 2025-09-11T22:54:00 | 58.056022 | 10.026530 | 2.0 | 16.628 | 2 | 42.889 | 16.795 | 33.418 | 2 |
| 2025-09-11T22:55:00 | 58.057801 | 10.026383 | 2.0 | 16.625 | 2 | 42.472 | 16.788 | 33.061 | 2 |
| 2025-09-11T22:56:00 | 58.059598 | 10.026198 | 2.0 | 16.622 | 2 | 42.862 | 16.784 | 33.404 | 2 |
| 2025-09-11T22:57:00 | 58.061409 | 10.025969 | 2.0 | 16.616 | 2 | 42.877 | 16.783 | 33.418 | 2 |
| 2025-09-11T22:58:00 | 58.063255 | 10.025798 | 2.0 | 16.601 | 2 | 42.879 | 16.775 | 33.426 | 2 |
| 2025-09-11T22:59:00 | 58.065107 | 10.025635 | 2.0 | 16.583 | 2 | 42.872 | 16.763 | 33.430 | 2 |
| 2025-09-11T23:00:00 | 58.066985 | 10.025464 | 2.0 | 16.569 | 2 | 42.855 | 16.744 | 33.431 | 2 |
| 2025-09-11T23:01:00 | 58.068873 | 10.025317 | 2.0 | 16.560 | 2 | 42.550 | 16.733 | 33.175 | 2 |
| 2025-09-11T23:02:00 | 58.070754 | 10.025113 | 2.0 | 16.544 | 2 | 42.824 | 16.721 | 33.423 | 2 |
| 2025-09-11T23:03:00 | 58.072640 | 10.024956 | 2.0 | 16.529 | 2 | 42.820 | 16.707 | 33.432 | 2 |
| 2025-09-11T23:04:00 | 58.074567 | 10.025169 | 2.0 | 16.521 | 2 | 42.789 | 16.693 | 33.416 | 2 |
| 2025-09-11T23:05:00 | 58.076519 | 10.025696 | 2.0 | 16.509 | 2 | 42.532 | 16.682 | 33.201 | 2 |
| 2025-09-11T23:06:00 | 58.078498 | 10.026138 | 2.0 | 16.497 | 2 | 42.797 | 16.670 | 33.442 | 2 |
| 2025-09-11T23:07:00 | 58.080505 | 10.026599 | 2.0 | 16.491 | 2 | 42.495 | 16.660 | 33.187 | 2 |
| 2025-09-11T23:08:00 | 58.082507 | 10.027149 | 2.0 | 16.479 | 2 | 42.714 | 16.651 | 33.386 | 2 |
| 2025-09-11T23:09:00 | 58.084523 | 10.027628 | 2.0 | 16.478 | 2 | 42.761 | 16.643 | 33.434 | 2 |
| 2025-09-11T23:10:00 | 58.086549 | 10.028019 | 2.0 | 16.481 | 2 | 42.567 | 16.640 | 33.267 | 2 |
| 2025-09-11T23:11:00 | 58.088586 | 10.028541 | 2.0 | 16.477 | 2 | 42.524 | 16.645 | 33.225 | 2 |
| 2025-09-11T23:12:00 | 58.090640 | 10.028972 | 2.0 | 16.472 | 2 | 42.535 | 16.639 | 33.239 | 2 |
| 2025-09-11T23:13:00 | 58.092742 | 10.029462 | 2.0 | 16.471 | 2 | 42.779 | 16.636 | 33.455 | 2 |
| 2025-09-11T23:14:00 | 58.094831 | 10.029997 | 2.0 | 16.461 | 2 | 42.658 | 16.631 | 33.354 | 2 |
| 2025-09-11T23:15:00 | 58.096925 | 10.030499 | 2.0 | 16.462 | 2 | 42.769 | 16.624 | 33.456 | 2 |
| 2025-09-11T23:16:00 | 58.099025 | 10.030956 | 2.0 | 16.459 | 2 | 42.744 | 16.624 | 33.435 | 2 |
| 2025-09-11T23:17:00 | 58.101102 | 10.031418 | 2.0 | 16.461 | 2 | 42.813 | 16.622 | 33.497 | 2 |
| 2025-09-11T23:18:00 | 58.103203 | 10.031910 | 2.0 | 16.463 | 2 | 42.793 | 16.623 | 33.478 | 2 |
| 2025-09-11T23:19:00 | 58.105329 | 10.032402 | 2.0 | 16.467 | 2 | 42.783 | 16.626 | 33.467 | 2 |
| 2025-09-11T23:20:00 | 58.107464 | 10.032920 | 2.0 | 16.481 | 2 | 42.792 | 16.632 | 33.470 | 2 |
| 2025-09-11T23:21:00 | 58.109597 | 10.033498 | 2.0 | 16.504 | 2 | 42.844 | 16.648 | 33.502 | 2 |
| 2025-09-11T23:22:00 | 58.111735 | 10.034114 | 2.0 | 16.533 | 2 | 42.761 | 16.672 | 33.409 | 2 |
| 2025-09-11T23:23:00 | 58.113875 | 10.034661 | 2.0 | 16.545 | 2 | 42.828 | 16.690 | 33.453 | 2 |
| 2025-09-11T23:24:00 | 58.116022 | 10.035225 | 2.0 | 16.558 | 2 | 42.905 | 16.706 | 33.507 | 2 |
| 2025-09-11T23:25:00 | 58.118159 | 10.035844 | 2.0 | 16.566 | 2 | 42.933 | 16.722 | 33.518 | 2 |
| 2025-09-11T23:26:00 | 58.120308 | 10.036412 | 2.0 | 16.559 | 2 | 42.892 | 16.723 | 33.481 | 2 |
| 2025-09-11T23:27:00 | 58.122443 | 10.036940 | 2.0 | 16.541 | 2 | 42.769 | 16.720 | 33.376 | 2 |
| 2025-09-11T23:28:00 | 58.124566 | 10.037547 | 2.0 | 16.513 | 2 | 42.663 | 16.695 | 33.305 | 2 |
| 2025-09-11T23:29:00 | 58.126687 | 10.038062 | 2.0 | 16.589 | 2 | 42.643 | 16.700 | 33.283 | 2 |
| 2025-09-11T23:30:00 | 58.128783 | 10.038578 | 2.0 | 16.611 | 2 | 42.274 | 16.750 | 32.920 | 2 |
| 2025-09-11T23:31:00 | 58.130861 | 10.039078 | 2.0 | 16.638 | 2 | 42.107 | 16.771 | 32.758 | 2 |
| 2025-09-11T23:32:00 | 58.132939 | 10.039628 | 2.0 | 16.685 | 2 | 42.120 | 16.805 | 32.742 | 2 |
| 2025-09-11T23:33:00 | 58.135028 | 10.040274 | 2.0 | 16.709 | 2 | 42.113 | 16.847 | 32.701 | 2 |
| 2025-09-11T23:34:00 | 58.137098 | 10.040833 | 2.0 | 16.724 | 2 | 42.086 | 16.870 | 32.659 | 2 |
| 2025-09-11T23:35:00 | 58.139178 | 10.041318 | 2.0 | 16.745 | 2 | 42.110 | 16.889 | 32.664 | 2 |
| 2025-09-11T23:36:00 | 58.141274 | 10.041777 | 2.0 | 16.754 | 2 | 42.099 | 16.904 | 32.643 | 2 |
| 2025-09-11T23:37:00 | 58.143316 | 10.041683 | 2.0 | 16.779 | 2 | 42.181 | 16.918 | 32.702 | 2 |
| 2025-09-11T23:38:00 | 58.145361 | 10.041597 | 2.0 | 16.789 | 2 | 42.174 | 16.940 | 32.678 | 2 |
| 2025-09-11T23:39:00 | 58.147422 | 10.041667 | 2.0 | 16.790 | 2 | 42.191 | 16.948 | 32.687 | 2 |
| 2025-09-11T23:40:00 | 58.149471 | 10.041707 | 2.0 | 16.791 | 2 | 42.255 | 16.950 | 32.740 | 2 |
| 2025-09-11T23:41:00 | 58.151519 | 10.042119 | 2.0 | 16.767 | 2 | 42.264 | 16.948 | 32.750 | 2 |
| 2025-09-11T23:42:00 | 58.153578 | 10.042721 | 2.0 | 16.747 | 2 | 42.231 | 16.924 | 32.741 | 2 |
| 2025-09-11T23:43:00 | 58.155615 | 10.043209 | 2.0 | 16.737 | 2 | 42.166 | 16.905 | 32.700 | 2 |
| 2025-09-11T23:44:00 | 58.157652 | 10.043277 | 2.0 | 16.741 | 2 | 42.167 | 16.900 | 32.705 | 2 |
| 2025-09-11T23:45:00 | 58.159684 | 10.043412 | 2.0 | 16.720 | 2 | 42.151 | 16.900 | 32.691 | 2 |
| 2025-09-11T23:46:00 | 58.161699 | 10.043819 | 2.0 | 16.697 | 2 | 42.115 | 16.877 | 32.679 | 2 |
| 2025-09-11T23:47:00 | 58.163709 | 10.044159 | 2.0 | 16.693 | 2 | 42.118 | 16.858 | 32.697 | 2 |
| 2025-09-11T23:48:00 | 58.165723 | 10.044446 | 2.0 | 16.720 | 2 | 42.174 | 16.861 | 32.743 | 2 |
| 2025-09-11T23:49:00 | 58.167734 | 10.044819 | 2.0 | 16.724 | 2 | 42.192 | 16.881 | 32.742 | 2 |
| 2025-09-11T23:50:00 | 58.169759 | 10.045181 | 2.0 | 16.752 | 2 | 42.183 | 16.892 | 32.725 | 2 |
| 2025-09-11T23:51:00 | 58.171780 | 10.045497 | 2.0 | 16.722 | 2 | 42.208 | 16.908 | 32.734 | 2 |
| 2025-09-11T23:52:00 | 58.173790 | 10.045823 | 2.0 | 16.692 | 2 | 42.197 | 16.880 | 32.747 | 2 |
| 2025-09-11T23:53:00 | 58.175798 | 10.046170 | 2.0 | 16.681 | 2 | 42.181 | 16.852 | 32.756 | 2 |
| 2025-09-11T23:54:00 | 58.177783 | 10.046473 | 2.0 | 16.687 | 2 | 42.168 | 16.844 | 32.751 | 2 |
| 2025-09-11T23:55:00 | 58.179792 | 10.046760 | 2.0 | 16.703 | 2 | 42.167 | 16.852 | 32.744 | 2 |
| 2025-09-11T23:56:00 | 58.181814 | 10.047133 | 2.0 | 16.724 | 2 | 42.180 | 16.866 | 32.744 | 2 |
| 2025-09-11T23:57:00 | 58.183841 | 10.047428 | 2.0 | 16.747 | 2 | 42.212 | 16.887 | 32.754 | 2 |
| 2025-09-11T23:58:00 | 58.185843 | 10.047834 | 2.0 | 16.755 | 2 | 42.221 | 16.910 | 32.744 | 2 |
| 2025-09-11T23:59:00 | 58.187537 | 10.048990 | 2.0 | 16.750 | 2 | 42.223 | 16.914 | 32.742 | 2 |
| 2025-09-12T00:00:00 | 58.188809 | 10.050994 | 2.0 | 16.741 | 2 | 42.246 | 16.910 | 32.765 | 2 |
| 2025-09-12T00:01:00 | 58.189751 | 10.053439 | 2.0 | 16.730 | 2 | 42.269 | 16.901 | 32.792 | 2 |
| 2025-09-12T00:02:00 | 58.190337 | 10.056110 | 2.0 | 16.714 | 2 | 42.257 | 16.889 | 32.792 | 2 |
| 2025-09-12T00:03:00 | 58.190595 | 10.058837 | 2.0 | 16.704 | 2 | 42.283 | 16.875 | 32.826 | 2 |
| 2025-09-12T00:04:00 | 58.190549 | 10.061463 | 2.0 | 16.695 | 2 | 42.288 | 16.865 | 32.838 | 2 |
| 2025-09-12T00:05:00 | 58.190216 | 10.063806 | 2.0 | 16.689 | 2 | 42.301 | 16.857 | 32.856 | 2 |
| 2025-09-12T00:06:00 | 58.189673 | 10.065699 | 2.0 | 16.687 | 2 | 42.306 | 16.851 | 32.865 | 2 |
| 2025-09-12T00:07:00 | 58.188988 | 10.067346 | 2.0 | 16.686 | 2 | 42.309 | 16.849 | 32.870 | 2 |
| 2025-09-12T00:08:00 | 58.188211 | 10.068742 | 2.0 | 16.692 | 2 | 42.311 | 16.849 | 32.871 | 2 |
| 2025-09-12T00:09:00 | 58.187395 | 10.069876 | 2.0 | 16.699 | 2 | 42.313 | 16.855 | 32.868 | 2 |
| 2025-09-12T00:10:00 | 58.186519 | 10.070534 | 2.0 | 16.700 | 2 | 42.313 | 16.860 | 32.864 | 2 |
| 2025-09-12T00:11:00 | 58.185618 | 10.071057 | 2.0 | 16.703 | 2 | 42.311 | 16.862 | 32.861 | 2 |
| 2025-09-12T00:12:00 | 58.184707 | 10.071709 | 2.0 | 16.703 | 2 | 42.309 | 16.864 | 32.857 | 2 |
| 2025-09-12T00:13:00 | 58.183818 | 10.072469 | 2.0 | 16.708 | 2 | 42.305 | 16.865 | 32.853 | 2 |
| 2025-09-12T00:14:00 | 58.182982 | 10.073116 | 2.0 | 16.714 | 2 | 42.314 | 16.870 | 32.857 | 2 |
| 2025-09-12T00:15:00 | 58.182210 | 10.073626 | 2.0 | 16.717 | 2 | 42.313 | 16.876 | 32.851 | 2 |
| 2025-09-12T00:16:00 | 58.181551 | 10.074181 | 2.0 | 16.711 | 2 | 42.307 | 16.878 | 32.844 | 2 |
| 2025-09-12T00:17:00 | 58.180975 | 10.074618 | 2.0 | 16.705 | 2 | 42.300 | 16.872 | 32.843 | 2 |
| 2025-09-12T00:18:00 | 58.180387 | 10.074941 | 2.0 | 16.699 | 2 | 42.293 | 16.866 | 32.842 | 2 |
| 2025-09-12T00:19:00 | 58.179808 | 10.075325 | 2.0 | 16.697 | 2 | 42.280 | 16.859 | 32.836 | 2 |
| 2025-09-12T00:20:00 | 58.179241 | 10.075666 | 2.0 | 16.696 | 2 | 42.278 | 16.859 | 32.835 | 2 |
| 2025-09-12T00:21:00 | 58.178674 | 10.076058 | 2.0 | 16.688 | 2 | 42.269 | 16.855 | 32.830 | 2 |
| 2025-09-12T00:22:00 | 58.178131 | 10.076502 | 2.0 | 16.683 | 2 | 42.259 | 16.849 | 32.826 | 2 |
| 2025-09-12T00:23:00 | 58.177604 | 10.076971 | 2.0 | 16.682 | 2 | 42.249 | 16.844 | 32.822 | 2 |
| 2025-09-12T00:24:00 | 58.177105 | 10.077400 | 2.0 | 16.683 | 2 | 42.148 | 16.843 | 32.735 | 2 |
| 2025-09-12T00:25:00 | 58.176626 | 10.077828 | 2.0 | 16.683 | 2 | 42.185 | 16.845 | 32.765 | 2 |
| 2025-09-12T00:26:00 | 58.176120 | 10.078202 | 2.0 | 16.680 | 2 | 42.217 | 16.842 | 32.796 | 2 |
| 2025-09-12T00:27:00 | 58.175581 | 10.078583 | 2.0 | 16.681 | 2 | 42.235 | 16.841 | 32.812 | 2 |
| 2025-09-12T00:28:00 | 58.175078 | 10.079053 | 2.0 | 16.677 | 2 | 42.231 | 16.841 | 32.808 | 2 |
| 2025-09-12T00:29:00 | 58.174577 | 10.079411 | 2.0 | 16.670 | 2 | 42.222 | 16.837 | 32.804 | 2 |
| 2025-09-12T00:30:00 | 58.174061 | 10.079835 | 2.0 | 16.665 | 2 | 42.199 | 16.829 | 32.791 | 2 |
| 2025-09-12T00:31:00 | 58.173544 | 10.080263 | 2.0 | 16.669 | 2 | 42.190 | 16.827 | 32.784 | 2 |
| 2025-09-12T00:32:00 | 58.173013 | 10.080626 | 2.0 | 16.679 | 2 | 42.191 | 16.832 | 32.781 | 2 |
| 2025-09-12T00:33:00 | 58.172500 | 10.081043 | 2.0 | 16.690 | 2 | 42.191 | 16.841 | 32.774 | 2 |
| 2025-09-12T00:34:00 | 58.171987 | 10.081435 | 2.0 | 16.704 | 2 | 42.194 | 16.852 | 32.767 | 2 |
| 2025-09-12T00:35:00 | 58.171440 | 10.081791 | 2.0 | 16.717 | 2 | 42.202 | 16.866 | 32.763 | 2 |
| 2025-09-12T00:36:00 | 58.170888 | 10.082187 | 2.0 | 16.732 | 2 | 42.212 | 16.880 | 32.760 | 2 |
| 2025-09-12T00:37:00 | 58.170333 | 10.082525 | 2.0 | 16.745 | 2 | 42.225 | 16.894 | 32.760 | 2 |
| 2025-09-12T00:38:00 | 58.169795 | 10.082909 | 2.0 | 16.752 | 2 | 42.250 | 16.905 | 32.773 | 2 |
| 2025-09-12T00:39:00 | 58.169263 | 10.083255 | 2.0 | 16.757 | 2 | 42.272 | 16.914 | 32.784 | 2 |
| 2025-09-12T00:40:00 | 58.168733 | 10.083608 | 2.0 | 16.746 | 2 | 42.274 | 16.916 | 32.785 | 2 |
| 2025-09-12T00:41:00 | 58.168204 | 10.083993 | 2.0 | 16.705 | 2 | 42.264 | 16.900 | 32.789 | 2 |
| 2025-09-12T00:42:00 | 58.167671 | 10.084381 | 2.0 | 16.692 | 2 | 42.246 | 16.865 | 32.802 | 2 |
| 2025-09-12T00:43:00 | 58.167121 | 10.084715 | 2.0 | 16.683 | 2 | 42.239 | 16.852 | 32.806 | 2 |
| 2025-09-12T00:44:00 | 58.166569 | 10.085041 | 2.0 | 16.675 | 2 | 42.222 | 16.843 | 32.799 | 2 |
| 2025-09-12T00:45:00 | 58.166018 | 10.085431 | 2.0 | 16.673 | 2 | 42.206 | 16.837 | 32.790 | 2 |
| 2025-09-12T00:46:00 | 58.165479 | 10.085741 | 2.0 | 16.666 | 2 | 42.194 | 16.834 | 32.782 | 2 |
| 2025-09-12T00:47:00 | 58.164939 | 10.086110 | 2.0 | 16.659 | 2 | 42.177 | 16.826 | 32.774 | 2 |
| 2025-09-12T00:48:00 | 58.164391 | 10.086490 | 2.0 | 16.649 | 2 | 42.163 | 16.819 | 32.767 | 2 |
| 2025-09-12T00:49:00 | 58.163830 | 10.086810 | 2.0 | 16.640 | 2 | 42.146 | 16.808 | 32.762 | 2 |
| 2025-09-12T00:50:00 | 58.163265 | 10.087180 | 2.0 | 16.639 | 2 | 42.134 | 16.801 | 32.757 | 2 |
| 2025-09-12T00:51:00 | 58.162684 | 10.087475 | 2.0 | 16.649 | 2 | 42.136 | 16.801 | 32.759 | 2 |
| 2025-09-12T00:52:00 | 58.162081 | 10.087781 | 2.0 | 16.666 | 2 | 42.152 | 16.813 | 32.763 | 2 |
| 2025-09-12T00:53:00 | 58.161482 | 10.088085 | 2.0 | 16.674 | 2 | 42.176 | 16.828 | 32.771 | 2 |
| 2025-09-12T00:54:00 | 58.160896 | 10.088436 | 2.0 | 16.677 | 2 | 42.193 | 16.834 | 32.781 | 2 |
| 2025-09-12T00:55:00 | 58.160308 | 10.088746 | 2.0 | 16.672 | 2 | 42.203 | 16.837 | 32.787 | 2 |
| 2025-09-12T00:56:00 | 58.159727 | 10.089099 | 2.0 | 16.661 | 2 | 42.217 | 16.830 | 32.805 | 2 |
| 2025-09-12T00:57:00 | 58.159180 | 10.089452 | 2.0 | 16.663 | 2 | 42.235 | 16.824 | 32.826 | 2 |
| 2025-09-12T00:58:00 | 58.158621 | 10.089691 | 2.0 | 16.662 | 2 | 42.242 | 16.824 | 32.832 | 2 |
| 2025-09-12T00:59:00 | 58.158041 | 10.089873 | 2.0 | 16.658 | 2 | 42.256 | 16.823 | 32.845 | 2 |
| 2025-09-12T01:00:00 | 58.157453 | 10.090039 | 2.0 | 16.652 | 2 | 42.277 | 16.818 | 32.867 | 2 |
| 2025-09-12T01:01:00 | 58.156874 | 10.090212 | 2.0 | 16.638 | 2 | 42.294 | 16.810 | 32.889 | 2 |
| 2025-09-12T01:02:00 | 58.156335 | 10.090377 | 2.0 | 16.633 | 2 | 42.304 | 16.799 | 32.906 | 2 |
| 2025-09-12T01:03:00 | 58.155787 | 10.090585 | 2.0 | 16.622 | 2 | 42.304 | 16.792 | 32.912 | 2 |
| 2025-09-12T01:04:00 | 58.155223 | 10.090790 | 2.0 | 16.617 | 2 | 42.296 | 16.783 | 32.912 | 2 |
| 2025-09-12T01:05:00 | 58.154636 | 10.090990 | 2.0 | 16.612 | 2 | 42.303 | 16.777 | 32.923 | 2 |
| 2025-09-12T01:06:00 | 58.154070 | 10.091395 | 2.0 | 16.607 | 2 | 42.315 | 16.773 | 32.937 | 2 |
| 2025-09-12T01:07:00 | 58.153518 | 10.091773 | 2.0 | 16.608 | 2 | 42.330 | 16.769 | 32.953 | 2 |
| 2025-09-12T01:08:00 | 58.152985 | 10.092266 | 2.0 | 16.607 | 2 | 42.341 | 16.769 | 32.963 | 2 |
| 2025-09-12T01:09:00 | 58.152459 | 10.092760 | 2.0 | 16.605 | 2 | 42.341 | 16.768 | 32.964 | 2 |
| 2025-09-12T01:10:00 | 58.151946 | 10.093355 | 2.0 | 16.602 | 2 | 42.346 | 16.767 | 32.969 | 2 |
| 2025-09-12T01:11:00 | 58.151437 | 10.093868 | 2.0 | 16.605 | 2 | 42.354 | 16.764 | 32.978 | 2 |
| 2025-09-12T01:12:00 | 58.150928 | 10.094413 | 2.0 | 16.616 | 2 | 42.354 | 16.769 | 32.974 | 2 |
| 2025-09-12T01:13:00 | 58.150398 | 10.094963 | 2.0 | 16.614 | 2 | 42.350 | 16.777 | 32.964 | 2 |
| 2025-09-12T01:14:00 | 58.149883 | 10.095465 | 2.0 | 16.613 | 2 | 42.346 | 16.774 | 32.963 | 2 |
| 2025-09-12T01:15:00 | 58.149361 | 10.095868 | 2.0 | 16.616 | 2 | 42.329 | 16.773 | 32.949 | 2 |
| 2025-09-12T01:16:00 | 58.148817 | 10.096257 | 2.0 | 16.623 | 2 | 42.305 | 16.779 | 32.924 | 2 |
| 2025-09-12T01:17:00 | 58.148279 | 10.096641 | 2.0 | 16.623 | 2 | 42.281 | 16.785 | 32.898 | 2 |
| 2025-09-12T01:18:00 | 58.147744 | 10.097049 | 2.0 | 16.622 | 2 | 42.256 | 16.784 | 32.877 | 2 |
| 2025-09-12T01:19:00 | 58.147191 | 10.097447 | 2.0 | 16.615 | 2 | 42.245 | 16.782 | 32.869 | 2 |
| 2025-09-12T01:20:00 | 58.146627 | 10.097867 | 2.0 | 16.613 | 2 | 42.245 | 16.777 | 32.873 | 2 |
| 2025-09-12T01:21:00 | 58.146072 | 10.098299 | 2.0 | 16.606 | 2 | 42.251 | 16.773 | 32.881 | 2 |
| 2025-09-12T01:22:00 | 58.145519 | 10.098686 | 2.0 | 16.602 | 2 | 42.256 | 16.767 | 32.891 | 2 |
| 2025-09-12T01:23:00 | 58.144982 | 10.099175 | 2.0 | 16.596 | 2 | 42.262 | 16.763 | 32.899 | 2 |
| 2025-09-12T01:24:00 | 58.144498 | 10.099547 | 2.0 | 16.585 | 2 | 42.260 | 16.756 | 32.903 | 2 |
| 2025-09-12T01:25:00 | 58.144011 | 10.100026 | 2.0 | 16.573 | 2 | 42.243 | 16.745 | 32.897 | 2 |
| 2025-09-12T01:26:00 | 58.143534 | 10.100419 | 2.0 | 16.571 | 2 | 42.238 | 16.736 | 32.901 | 2 |
| 2025-09-12T01:27:00 | 58.143053 | 10.100841 | 2.0 | 16.563 | 2 | 42.244 | 16.731 | 32.910 | 2 |
| 2025-09-12T01:28:00 | 58.142567 | 10.101219 | 2.0 | 16.560 | 2 | 42.250 | 16.724 | 32.921 | 2 |
| 2025-09-12T01:29:00 | 58.142074 | 10.101619 | 2.0 | 16.553 | 2 | 42.260 | 16.719 | 32.934 | 2 |
| 2025-09-12T01:30:00 | 58.141621 | 10.102059 | 2.0 | 16.549 | 2 | 42.283 | 16.716 | 32.956 | 2 |
| 2025-09-12T01:31:00 | 58.141173 | 10.102429 | 2.0 | 16.543 | 2 | 42.302 | 16.711 | 32.977 | 2 |
| 2025-09-12T01:32:00 | 58.140697 | 10.102763 | 2.0 | 16.544 | 2 | 42.318 | 16.707 | 32.994 | 2 |
| 2025-09-12T01:33:00 | 58.140233 | 10.103182 | 2.0 | 16.546 | 2 | 42.333 | 16.706 | 33.008 | 2 |
| 2025-09-12T01:34:00 | 58.139791 | 10.103579 | 2.0 | 16.560 | 2 | 42.355 | 16.711 | 33.023 | 2 |
| 2025-09-12T01:35:00 | 58.139322 | 10.103926 | 2.0 | 16.564 | 2 | 42.388 | 16.722 | 33.043 | 2 |
| 2025-09-12T01:36:00 | 58.138831 | 10.104275 | 2.0 | 16.576 | 2 | 42.405 | 16.728 | 33.052 | 2 |
| 2025-09-12T01:37:00 | 58.138325 | 10.104614 | 2.0 | 16.599 | 2 | 42.456 | 16.744 | 33.084 | 2 |
| 2025-09-12T01:38:00 | 58.137822 | 10.104946 | 2.0 | 16.604 | 2 | 42.514 | 16.760 | 33.121 | 2 |
| 2025-09-12T01:39:00 | 58.137321 | 10.105227 | 2.0 | 16.599 | 2 | 42.540 | 16.763 | 33.141 | 2 |
| 2025-09-12T01:40:00 | 58.136820 | 10.105547 | 2.0 | 16.592 | 2 | 42.554 | 16.759 | 33.157 | 2 |
| 2025-09-12T01:41:00 | 58.136332 | 10.105886 | 2.0 | 16.587 | 2 | 42.569 | 16.752 | 33.175 | 2 |
| 2025-09-12T01:42:00 | 58.135858 | 10.106200 | 2.0 | 16.587 | 2 | 42.586 | 16.750 | 33.192 | 2 |
| 2025-09-12T01:43:00 | 58.135388 | 10.106577 | 2.0 | 16.574 | 2 | 42.599 | 16.743 | 33.209 | 2 |
| 2025-09-12T01:44:00 | 58.134932 | 10.106969 | 2.0 | 16.566 | 2 | 42.613 | 16.736 | 33.227 | 2 |
| 2025-09-12T01:45:00 | 58.134479 | 10.107353 | 2.0 | 16.545 | 2 | 42.627 | 16.723 | 33.250 | 2 |
| 2025-09-12T01:46:00 | 58.134014 | 10.107717 | 2.0 | 16.534 | 2 | 42.642 | 16.709 | 33.275 | 2 |
| 2025-09-12T01:47:00 | 58.133530 | 10.108055 | 2.0 | 16.521 | 2 | 42.640 | 16.693 | 33.286 | 2 |
| 2025-09-12T01:48:00 | 58.133075 | 10.108314 | 2.0 | 16.513 | 2 | 42.652 | 16.682 | 33.306 | 2 |
| 2025-09-12T01:49:00 | 58.132655 | 10.108742 | 2.0 | 16.527 | 2 | 42.686 | 16.676 | 33.341 | 2 |
| 2025-09-12T01:50:00 | 58.132217 | 10.109067 | 2.0 | 16.552 | 2 | 42.765 | 16.694 | 33.394 | 2 |
| 2025-09-12T01:51:00 | 58.131743 | 10.109346 | 2.0 | 16.559 | 2 | 42.832 | 16.716 | 33.435 | 2 |
| 2025-09-12T01:52:00 | 58.131270 | 10.109777 | 2.0 | 16.557 | 2 | 42.859 | 16.719 | 33.456 | 2 |
| 2025-09-12T01:53:00 | 58.130834 | 10.110298 | 2.0 | 16.574 | 2 | 42.860 | 16.720 | 33.456 | 2 |
| 2025-09-12T01:54:00 | 58.130402 | 10.110672 | 2.0 | 16.592 | 2 | 42.880 | 16.738 | 33.458 | 2 |
| 2025-09-12T01:55:00 | 58.129941 | 10.110990 | 2.0 | 16.609 | 2 | 42.906 | 16.758 | 33.464 | 2 |
| 2025-09-12T01:56:00 | 58.129456 | 10.111315 | 2.0 | 16.635 | 2 | 42.928 | 16.774 | 33.470 | 2 |
| 2025-09-12T01:57:00 | 58.128943 | 10.111644 | 2.0 | 16.632 | 2 | 42.952 | 16.794 | 33.474 | 2 |
| 2025-09-12T01:58:00 | 58.128397 | 10.111979 | 2.0 | 16.635 | 2 | 42.953 | 16.792 | 33.477 | 2 |
| 2025-09-12T01:59:00 | 58.127869 | 10.112319 | 2.0 | 16.629 | 2 | 42.956 | 16.795 | 33.477 | 2 |
| 2025-09-12T02:00:00 | 58.127320 | 10.112636 | 2.0 | 16.653 | 2 | 42.953 | 16.793 | 33.476 | 2 |
| 2025-09-12T02:01:00 | 58.126754 | 10.112993 | 2.0 | 16.688 | 2 | 42.979 | 16.818 | 33.478 | 2 |
| 2025-09-12T02:02:00 | 58.126185 | 10.113306 | 2.0 | 16.721 | 2 | 43.018 | 16.855 | 33.481 | 2 |
| 2025-09-12T02:03:00 | 58.125621 | 10.113666 | 2.0 | 16.729 | 2 | 43.038 | 16.881 | 33.476 | 2 |
| 2025-09-12T02:04:00 | 58.125085 | 10.113996 | 2.0 | 16.724 | 2 | 43.043 | 16.887 | 33.476 | 2 |
| 2025-09-12T02:05:00 | 58.124554 | 10.114369 | 2.0 | 16.720 | 2 | 43.033 | 16.883 | 33.470 | 2 |
| 2025-09-12T02:06:00 | 58.124017 | 10.114687 | 2.0 | 16.718 | 2 | 43.023 | 16.880 | 33.464 | 2 |
| 2025-09-12T02:07:00 | 58.123443 | 10.114982 | 2.0 | 16.713 | 2 | 43.017 | 16.877 | 33.462 | 2 |
| 2025-09-12T02:08:00 | 58.122864 | 10.115304 | 2.0 | 16.700 | 2 | 43.005 | 16.869 | 33.458 | 2 |
| 2025-09-12T02:09:00 | 58.122305 | 10.115628 | 2.0 | 16.704 | 2 | 42.984 | 16.862 | 33.445 | 2 |
| 2025-09-12T02:10:00 | 58.121798 | 10.115961 | 2.0 | 16.703 | 2 | 42.990 | 16.866 | 33.447 | 2 |
| 2025-09-12T02:11:00 | 58.121295 | 10.116291 | 2.0 | 16.703 | 2 | 42.983 | 16.864 | 33.443 | 2 |
| 2025-09-12T02:12:00 | 58.120801 | 10.116603 | 2.0 | 16.713 | 2 | 42.980 | 16.864 | 33.440 | 2 |
| 2025-09-12T02:13:00 | 58.120319 | 10.116892 | 2.0 | 16.710 | 2 | 42.992 | 16.872 | 33.444 | 2 |
| 2025-09-12T02:14:00 | 58.119843 | 10.117229 | 2.0 | 16.700 | 2 | 42.991 | 16.870 | 33.445 | 2 |
| 2025-09-12T02:15:00 | 58.119392 | 10.117524 | 2.0 | 16.700 | 2 | 42.979 | 16.860 | 33.443 | 2 |
| 2025-09-12T02:16:00 | 58.118963 | 10.117841 | 2.0 | 16.703 | 2 | 42.983 | 16.863 | 33.444 | 2 |
| 2025-09-12T02:17:00 | 58.118519 | 10.118136 | 2.0 | 16.704 | 2 | 42.988 | 16.864 | 33.447 | 2 |
| 2025-09-12T02:18:00 | 58.118075 | 10.118433 | 2.0 | 16.703 | 2 | 42.993 | 16.865 | 33.451 | 2 |
| 2025-09-12T02:19:00 | 58.117657 | 10.118776 | 2.0 | 16.702 | 2 | 42.993 | 16.864 | 33.451 | 2 |
| 2025-09-12T02:20:00 | 58.117228 | 10.119098 | 2.0 | 16.699 | 2 | 42.993 | 16.862 | 33.453 | 2 |
| 2025-09-12T02:21:00 | 58.116762 | 10.119444 | 2.0 | 16.699 | 2 | 42.989 | 16.859 | 33.452 | 2 |
| 2025-09-12T02:22:00 | 58.116247 | 10.119701 | 2.0 | 16.693 | 2 | 42.984 | 16.857 | 33.449 | 2 |
| 2025-09-12T02:23:00 | 58.115715 | 10.120094 | 2.0 | 16.594 | 2 | 42.917 | 16.825 | 33.418 | 2 |
| 2025-09-12T02:24:00 | 58.115184 | 10.120434 | 2.0 | 16.626 | 2 | 42.783 | 16.768 | 33.349 | 2 |
| 2025-09-12T02:25:00 | 58.114677 | 10.120857 | 2.0 | 16.687 | 2 | 42.855 | 16.800 | 33.385 | 2 |
| 2025-09-12T02:26:00 | 58.114178 | 10.121274 | 2.0 | 16.673 | 2 | 42.931 | 16.835 | 33.422 | 2 |
| 2025-09-12T02:27:00 | 58.113667 | 10.121673 | 2.0 | 16.694 | 2 | 42.944 | 16.838 | 33.430 | 2 |
| 2025-09-12T02:28:00 | 58.113160 | 10.122055 | 2.0 | 16.699 | 2 | 42.979 | 16.854 | 33.448 | 2 |
| 2025-09-12T02:29:00 | 58.112656 | 10.122473 | 2.0 | 16.700 | 2 | 42.955 | 16.859 | 33.423 | 2 |
| 2025-09-12T02:30:00 | 58.112166 | 10.122944 | 2.0 | 16.699 | 2 | 42.845 | 16.860 | 33.326 | 2 |
| 2025-09-12T02:31:00 | 58.111694 | 10.123454 | 2.0 | 16.691 | 2 | 42.649 | 16.858 | 33.157 | 2 |
| 2025-09-12T02:32:00 | 58.111213 | 10.123910 | 2.0 | 16.693 | 2 | 42.738 | 16.853 | 33.239 | 2 |
| 2025-09-12T02:33:00 | 58.110726 | 10.124381 | 2.0 | 16.678 | 2 | 42.884 | 16.852 | 33.367 | 2 |
| 2025-09-12T02:34:00 | 58.110253 | 10.124857 | 2.0 | 16.671 | 2 | 42.904 | 16.837 | 33.397 | 2 |
| 2025-09-12T02:35:00 | 58.109755 | 10.125251 | 2.0 | 16.661 | 2 | 42.974 | 16.830 | 33.463 | 2 |
| 2025-09-12T02:36:00 | 58.109253 | 10.125630 | 2.0 | 16.644 | 2 | 42.797 | 16.819 | 33.318 | 2 |
| 2025-09-12T02:37:00 | 58.108758 | 10.126143 | 2.0 | 16.652 | 2 | 42.674 | 16.808 | 33.220 | 2 |
| 2025-09-12T02:38:00 | 58.108294 | 10.126644 | 2.0 | 16.664 | 2 | 42.826 | 16.816 | 33.346 | 2 |
| 2025-09-12T02:39:00 | 58.107847 | 10.127077 | 2.0 | 16.664 | 2 | 42.829 | 16.825 | 33.341 | 2 |
| 2025-09-12T02:40:00 | 58.107374 | 10.127580 | 2.0 | 16.657 | 2 | 42.715 | 16.824 | 33.243 | 2 |
| 2025-09-12T02:41:00 | 58.106870 | 10.128029 | 2.0 | 16.663 | 2 | 42.883 | 16.817 | 33.395 | 2 |
| 2025-09-12T02:42:00 | 58.106362 | 10.128545 | 2.0 | 16.661 | 2 | 42.872 | 16.825 | 33.379 | 2 |
| 2025-09-12T02:43:00 | 58.105856 | 10.128866 | 2.0 | 16.665 | 2 | 42.914 | 16.823 | 33.417 | 2 |
| 2025-09-12T02:44:00 | 58.105365 | 10.129395 | 2.0 | 16.671 | 2 | 42.803 | 16.828 | 33.316 | 2 |
| 2025-09-12T02:45:00 | 58.104909 | 10.129780 | 2.0 | 16.671 | 2 | 42.926 | 16.833 | 33.419 | 2 |
| 2025-09-12T02:46:00 | 58.104465 | 10.130258 | 2.0 | 16.673 | 2 | 42.926 | 16.832 | 33.420 | 2 |
| 2025-09-12T02:47:00 | 58.104020 | 10.130535 | 2.0 | 16.694 | 2 | 42.804 | 16.837 | 33.310 | 2 |
| 2025-09-12T02:48:00 | 58.103539 | 10.130908 | 2.0 | 16.703 | 2 | 42.827 | 16.855 | 33.315 | 2 |
| 2025-09-12T02:49:00 | 58.103032 | 10.131141 | 2.0 | 16.714 | 2 | 42.894 | 16.863 | 33.366 | 2 |
| 2025-09-12T02:50:00 | 58.102496 | 10.131380 | 2.0 | 16.735 | 2 | 42.826 | 16.877 | 33.295 | 2 |
| 2025-09-12T02:51:00 | 58.101958 | 10.131768 | 2.0 | 16.752 | 2 | 42.855 | 16.898 | 33.303 | 2 |
| 2025-09-12T02:52:00 | 58.101429 | 10.132136 | 2.0 | 16.754 | 2 | 42.890 | 16.913 | 33.321 | 2 |
| 2025-09-12T02:53:00 | 58.100922 | 10.132565 | 2.0 | 16.747 | 2 | 42.953 | 16.912 | 33.377 | 2 |
| 2025-09-12T02:54:00 | 58.100459 | 10.133045 | 2.0 | 16.732 | 2 | 42.921 | 16.904 | 33.356 | 2 |
| 2025-09-12T02:55:00 | 58.100015 | 10.133399 | 2.0 | 16.726 | 2 | 42.922 | 16.891 | 33.367 | 2 |
| 2025-09-12T02:56:00 | 58.099589 | 10.133778 | 2.0 | 16.728 | 2 | 42.921 | 16.889 | 33.368 | 2 |
| 2025-09-12T02:57:00 | 58.099173 | 10.134178 | 2.0 | 16.731 | 2 | 42.921 | 16.889 | 33.368 | 2 |
| 2025-09-12T02:58:00 | 58.098751 | 10.134511 | 2.0 | 16.726 | 2 | 42.929 | 16.890 | 33.374 | 2 |
| 2025-09-12T02:59:00 | 58.098325 | 10.134879 | 2.0 | 16.754 | 2 | 42.944 | 16.893 | 33.385 | 2 |
| 2025-09-12T03:00:00 | 58.097892 | 10.135188 | 2.0 | 16.795 | 2 | 42.990 | 16.917 | 33.405 | 2 |
| 2025-09-12T03:01:00 | 58.097458 | 10.135537 | 2.0 | 16.805 | 2 | 43.043 | 16.956 | 33.418 | 2 |
| 2025-09-12T03:02:00 | 58.097020 | 10.135872 | 2.0 | 16.816 | 2 | 43.070 | 16.966 | 33.433 | 2 |
| 2025-09-12T03:03:00 | 58.096591 | 10.136218 | 2.0 | 16.823 | 2 | 43.104 | 16.976 | 33.455 | 2 |
| 2025-09-12T03:04:00 | 58.096131 | 10.136517 | 2.0 | 16.834 | 2 | 43.106 | 16.985 | 33.449 | 2 |
| 2025-09-12T03:05:00 | 58.095653 | 10.136820 | 2.0 | 16.851 | 2 | 43.142 | 16.996 | 33.471 | 2 |
| 2025-09-12T03:06:00 | 58.095146 | 10.137125 | 2.0 | 16.866 | 2 | 43.181 | 17.012 | 33.492 | 2 |
| 2025-09-12T03:07:00 | 58.094661 | 10.137486 | 2.0 | 16.864 | 2 | 43.207 | 17.025 | 33.503 | 2 |
| 2025-09-12T03:08:00 | 58.094218 | 10.137756 | 2.0 | 16.862 | 2 | 43.210 | 17.023 | 33.508 | 2 |
| 2025-09-12T03:09:00 | 58.093739 | 10.138020 | 2.0 | 16.861 | 2 | 43.212 | 17.023 | 33.509 | 2 |
| 2025-09-12T03:10:00 | 58.093264 | 10.138348 | 2.0 | 16.846 | 2 | 43.216 | 17.016 | 33.519 | 2 |
| 2025-09-12T03:11:00 | 58.092797 | 10.138634 | 2.0 | 16.836 | 2 | 43.205 | 17.005 | 33.518 | 2 |
| 2025-09-12T03:12:00 | 58.092334 | 10.138938 | 2.0 | 16.826 | 2 | 43.194 | 16.998 | 33.514 | 2 |
| 2025-09-12T03:13:00 | 58.091871 | 10.139295 | 2.0 | 16.821 | 2 | 43.190 | 16.987 | 33.520 | 2 |
| 2025-09-12T03:14:00 | 58.091444 | 10.139644 | 2.0 | 16.805 | 2 | 43.177 | 16.979 | 33.516 | 2 |
| 2025-09-12T03:15:00 | 58.090996 | 10.139974 | 2.0 | 16.789 | 2 | 43.156 | 16.963 | 33.511 | 2 |
| 2025-09-12T03:16:00 | 58.090528 | 10.140316 | 2.0 | 16.782 | 2 | 43.146 | 16.951 | 33.512 | 2 |
| 2025-09-12T03:17:00 | 58.090113 | 10.140779 | 2.0 | 16.784 | 2 | 43.141 | 16.943 | 33.514 | 2 |
| 2025-09-12T03:18:00 | 58.089722 | 10.141114 | 2.0 | 16.787 | 2 | 43.150 | 16.947 | 33.519 | 2 |
| 2025-09-12T03:19:00 | 58.089323 | 10.141508 | 2.0 | 16.783 | 2 | 43.155 | 16.947 | 33.523 | 2 |
| 2025-09-12T03:20:00 | 58.089024 | 10.142053 | 2.0 | 16.792 | 2 | 43.159 | 16.945 | 33.528 | 2 |
| 2025-09-12T03:21:00 | 58.088664 | 10.142230 | 2.0 | 16.806 | 2 | 43.175 | 16.953 | 33.535 | 2 |
| 2025-09-12T03:22:00 | 58.088248 | 10.142412 | 2.0 | 16.900 | 2 | 43.230 | 16.988 | 33.554 | 2 |
| 2025-09-12T03:23:00 | 58.087808 | 10.142706 | 2.0 | 16.899 | 2 | 43.337 | 17.050 | 33.595 | 2 |
| 2025-09-12T03:24:00 | 58.087346 | 10.142968 | 2.0 | 16.892 | 2 | 43.347 | 17.054 | 33.600 | 2 |
| 2025-09-12T03:25:00 | 58.086875 | 10.143285 | 2.0 | 16.880 | 2 | 43.341 | 17.051 | 33.598 | 2 |
| 2025-09-12T03:26:00 | 58.086382 | 10.143574 | 2.0 | 16.864 | 2 | 43.326 | 17.036 | 33.597 | 2 |
| 2025-09-12T03:27:00 | 58.085890 | 10.144021 | 2.0 | 16.829 | 2 | 43.309 | 17.021 | 33.595 | 2 |
| 2025-09-12T03:28:00 | 58.085365 | 10.144346 | 2.0 | 16.765 | 2 | 43.264 | 16.981 | 33.589 | 2 |
| 2025-09-12T03:29:00 | 58.084723 | 10.144704 | 2.0 | 16.697 | 2 | 43.189 | 16.916 | 33.579 | 2 |
| 2025-09-12T03:30:00 | 58.083880 | 10.144337 | 2.0 | 16.641 | 2 | 43.119 | 16.854 | 33.569 | 2 |
| 2025-09-12T03:31:00 | 58.084381 | 10.141844 | 2.0 | 16.723 | 2 | 43.065 | 16.815 | 33.555 | 2 |
| 2025-09-12T03:32:00 | 58.086639 | 10.142303 | 2.0 | 16.860 | 2 | 43.165 | 16.912 | 33.561 | 2 |
| 2025-09-12T03:33:00 | 58.089259 | 10.144379 | 2.0 | 16.826 | 2 | 43.298 | 17.024 | 33.583 | 2 |
| 2025-09-12T03:34:00 | 58.092095 | 10.146171 | 2.0 | 16.784 | 2 | 43.207 | 16.970 | 33.549 | 2 |
| 2025-09-12T03:35:00 | 58.094948 | 10.147888 | 2.0 | 16.826 | 2 | 43.161 | 16.957 | 33.520 | 2 |
| 2025-09-12T03:36:00 | 58.097758 | 10.149630 | 2.0 | 16.867 | 2 | 43.203 | 16.995 | 33.525 | 2 |
| 2025-09-12T03:37:00 | 58.100579 | 10.151321 | 2.0 | 16.878 | 2 | 43.251 | 17.030 | 33.537 | 2 |
| 2025-09-12T03:38:00 | 58.103394 | 10.153032 | 2.0 | 16.835 | 2 | 43.261 | 17.036 | 33.541 | 2 |
| 2025-09-12T03:39:00 | 58.106187 | 10.154748 | 2.0 | 16.763 | 2 | 43.175 | 16.977 | 33.515 | 2 |
| 2025-09-12T03:40:00 | 58.108978 | 10.156477 | 2.0 | 16.714 | 2 | 43.070 | 16.927 | 33.466 | 2 |
| 2025-09-12T03:41:00 | 58.111772 | 10.158198 | 2.0 | 16.619 | 2 | 42.942 | 16.866 | 33.405 | 2 |
| 2025-09-12T03:42:00 | 58.114574 | 10.159889 | 2.0 | 16.567 | 2 | 42.772 | 16.780 | 33.329 | 2 |
| 2025-09-12T03:43:00 | 58.117361 | 10.161625 | 2.0 | 16.552 | 2 | 42.648 | 16.731 | 33.262 | 2 |
| 2025-09-12T03:44:00 | 58.120144 | 10.163313 | 2.0 | 16.585 | 2 | 42.585 | 16.726 | 33.211 | 2 |
| 2025-09-12T03:45:00 | 58.122851 | 10.165467 | 2.0 | 16.622 | 2 | 42.577 | 16.755 | 33.180 | 2 |
| 2025-09-12T03:46:00 | 58.125517 | 10.167852 | 2.0 | 16.642 | 2 | 42.583 | 16.789 | 33.157 | 2 |
| 2025-09-12T03:47:00 | 58.128182 | 10.170204 | 2.0 | 16.652 | 2 | 42.576 | 16.805 | 33.138 | 2 |
| 2025-09-12T03:48:00 | 58.130855 | 10.172513 | 2.0 | 16.653 | 2 | 42.577 | 16.814 | 33.131 | 2 |
| 2025-09-12T03:49:00 | 58.133504 | 10.174813 | 2.0 | 16.648 | 2 | 42.570 | 16.813 | 33.126 | 2 |
| 2025-09-12T03:50:00 | 58.136172 | 10.177122 | 2.0 | 16.637 | 2 | 42.560 | 16.810 | 33.120 | 2 |
| 2025-09-12T03:51:00 | 58.138849 | 10.179503 | 2.0 | 16.619 | 2 | 42.537 | 16.798 | 33.110 | 2 |
| 2025-09-12T03:52:00 | 58.141544 | 10.181820 | 2.0 | 16.606 | 2 | 42.518 | 16.781 | 33.107 | 2 |
| 2025-09-12T03:53:00 | 58.144243 | 10.184238 | 2.0 | 16.599 | 2 | 42.508 | 16.769 | 33.108 | 2 |
| 2025-09-12T03:54:00 | 58.146954 | 10.186694 | 2.0 | 16.590 | 2 | 42.507 | 16.762 | 33.113 | 2 |
| 2025-09-12T03:55:00 | 58.149686 | 10.189085 | 2.0 | 16.577 | 2 | 42.432 | 16.752 | 33.056 | 2 |
| 2025-09-12T03:56:00 | 58.152411 | 10.191504 | 2.0 | 16.570 | 2 | 42.437 | 16.741 | 33.070 | 2 |
| 2025-09-12T03:57:00 | 58.155152 | 10.193948 | 2.0 | 16.569 | 2 | 42.403 | 16.733 | 33.047 | 2 |
| 2025-09-12T03:58:00 | 58.157874 | 10.196397 | 2.0 | 16.573 | 2 | 42.461 | 16.733 | 33.097 | 2 |
| 2025-09-12T03:59:00 | 58.160663 | 10.198522 | 2.0 | 16.569 | 2 | 42.470 | 16.736 | 33.102 | 2 |
| 2025-09-12T04:00:00 | 58.163521 | 10.200196 | 2.0 | 16.559 | 2 | 42.482 | 16.731 | 33.117 | 2 |
| 2025-09-12T04:01:00 | 58.166382 | 10.201963 | 2.0 | 16.538 | 2 | 42.466 | 16.720 | 33.112 | 2 |
| 2025-09-12T04:02:00 | 58.169232 | 10.203754 | 2.0 | 16.537 | 2 | 42.432 | 16.700 | 33.099 | 2 |
| 2025-09-12T04:03:00 | 58.172089 | 10.205383 | 2.0 | 16.525 | 2 | 42.444 | 16.698 | 33.111 | 2 |
| 2025-09-12T04:04:00 | 58.175033 | 10.206220 | 2.0 | 16.513 | 2 | 42.453 | 16.688 | 33.127 | 2 |
| 2025-09-12T04:05:00 | 58.177873 | 10.206898 | 2.0 | 16.542 | 2 | 42.400 | 16.686 | 33.083 | 2 |
| 2025-09-12T04:06:00 | 58.180145 | 10.207508 | 2.0 | 16.552 | 2 | 42.269 | 16.704 | 32.954 | 2 |
| 2025-09-12T04:07:00 | 58.181943 | 10.208144 | 2.0 | 16.560 | 2 | 42.164 | 16.718 | 32.851 | 2 |
| 2025-09-12T04:08:00 | 58.183457 | 10.208740 | 2.0 | 16.552 | 2 | 42.099 | 16.718 | 32.794 | 2 |
| 2025-09-12T04:09:00 | 58.184558 | 10.209749 | 2.0 | 16.574 | 2 | 42.079 | 16.717 | 32.778 | 2 |
| 2025-09-12T04:10:00 | 58.184952 | 10.210872 | 2.0 | 16.580 | 2 | 42.126 | 16.737 | 32.802 | 2 |
| 2025-09-12T04:11:00 | 58.185161 | 10.211794 | 2.0 | 16.579 | 2 | 42.132 | 16.739 | 32.806 | 2 |
| 2025-09-12T04:12:00 | 58.185266 | 10.212315 | 2.0 | 16.584 | 2 | 42.133 | 16.740 | 32.806 | 2 |
| 2025-09-12T04:13:00 | 58.185369 | 10.212243 | 2.0 | 16.577 | 2 | 42.142 | 16.743 | 32.811 | 2 |
| 2025-09-12T04:14:00 | 58.185429 | 10.212151 | 2.0 | 16.576 | 2 | 42.136 | 16.738 | 32.810 | 2 |
| 2025-09-12T04:15:00 | 58.185427 | 10.212164 | 2.0 | 16.568 | 2 | 42.130 | 16.735 | 32.807 | 2 |
| 2025-09-12T04:16:00 | 58.185415 | 10.212222 | 2.0 | 16.559 | 2 | 42.120 | 16.729 | 32.804 | 2 |
| 2025-09-12T04:17:00 | 58.185391 | 10.212297 | 2.0 | 16.555 | 2 | 42.108 | 16.720 | 32.801 | 2 |
| 2025-09-12T04:18:00 | 58.185415 | 10.212439 | 2.0 | 16.557 | 2 | 42.124 | 16.717 | 32.817 | 2 |
| 2025-09-12T04:19:00 | 58.185448 | 10.212596 | 2.0 | 16.548 | 2 | 42.141 | 16.717 | 32.832 | 2 |
| 2025-09-12T04:20:00 | 58.185420 | 10.212685 | 2.0 | 16.548 | 2 | 42.086 | 16.709 | 32.790 | 2 |
| 2025-09-12T04:21:00 | 58.185420 | 10.212816 | 2.0 | 16.544 | 2 | 42.069 | 16.707 | 32.777 | 2 |
| 2025-09-12T04:22:00 | 58.185419 | 10.212954 | 2.0 | 16.548 | 2 | 42.074 | 16.707 | 32.782 | 2 |
| 2025-09-12T04:23:00 | 58.185379 | 10.213059 | 2.0 | 16.551 | 2 | 42.091 | 16.710 | 32.794 | 2 |
| 2025-09-12T04:24:00 | 58.185319 | 10.213137 | 2.0 | 16.555 | 2 | 42.090 | 16.712 | 32.791 | 2 |
| 2025-09-12T04:25:00 | 58.185301 | 10.213329 | 2.0 | 16.553 | 2 | 42.105 | 16.716 | 32.801 | 2 |
| 2025-09-12T04:26:00 | 58.185344 | 10.213666 | 2.0 | 16.557 | 2 | 42.109 | 16.714 | 32.806 | 2 |
| 2025-09-12T04:27:00 | 58.185359 | 10.213974 | 2.0 | 16.553 | 2 | 42.116 | 16.716 | 32.811 | 2 |
| 2025-09-12T04:28:00 | 58.185315 | 10.214242 | 2.0 | 16.553 | 2 | 42.116 | 16.714 | 32.812 | 2 |
| 2025-09-12T04:29:00 | 58.185210 | 10.214579 | 2.0 | 16.555 | 2 | 42.126 | 16.716 | 32.819 | 2 |
| 2025-09-12T04:30:00 | 58.185383 | 10.214421 | 2.0 | 16.554 | 2 | 42.147 | 16.724 | 32.831 | 2 |
| 2025-09-12T04:31:00 | 58.186296 | 10.214349 | 2.0 | 16.554 | 2 | 42.141 | 16.727 | 32.824 | 2 |
| 2025-09-12T04:32:00 | 58.187764 | 10.214720 | 2.0 | 16.551 | 2 | 42.128 | 16.729 | 32.811 | 2 |
| 2025-09-12T04:33:00 | 58.189545 | 10.215131 | 2.0 | 16.580 | 2 | 42.124 | 16.734 | 32.803 | 2 |
| 2025-09-12T04:34:00 | 58.191330 | 10.215544 | 2.0 | 16.620 | 2 | 42.175 | 16.768 | 32.820 | 2 |
| 2025-09-12T04:35:00 | 58.192971 | 10.216052 | 2.0 | 16.636 | 2 | 42.229 | 16.802 | 32.839 | 2 |
| 2025-09-12T04:36:00 | 58.193874 | 10.215917 | 2.0 | 16.636 | 2 | 42.245 | 16.817 | 32.840 | 2 |
| 2025-09-12T04:37:00 | 58.194187 | 10.215770 | 2.0 | 16.632 | 2 | 42.249 | 16.817 | 32.844 | 2 |
| 2025-09-12T04:38:00 | 58.194236 | 10.215718 | 2.0 | 16.634 | 2 | 42.251 | 16.814 | 32.848 | 2 |
| 2025-09-12T04:39:00 | 58.194015 | 10.215735 | 2.0 | 16.635 | 2 | 42.256 | 16.816 | 32.851 | 2 |
| 2025-09-12T04:40:00 | 58.193734 | 10.215891 | 2.0 | 16.624 | 2 | 42.257 | 16.817 | 32.851 | 2 |
| 2025-09-12T04:41:00 | 58.193501 | 10.216235 | 2.0 | 16.616 | 2 | 42.236 | 16.802 | 32.845 | 2 |
| 2025-09-12T04:42:00 | 58.193336 | 10.216800 | 2.0 | 16.616 | 2 | 42.231 | 16.800 | 32.842 | 2 |
| 2025-09-12T04:43:00 | 58.193284 | 10.217224 | 2.0 | 16.613 | 2 | 42.231 | 16.798 | 32.844 | 2 |
| 2025-09-12T04:44:00 | 58.193431 | 10.217344 | 2.0 | 16.610 | 2 | 42.228 | 16.796 | 32.843 | 2 |
| 2025-09-12T04:45:00 | 58.193682 | 10.217431 | 2.0 | 16.608 | 2 | 42.226 | 16.794 | 32.843 | 2 |
| 2025-09-12T04:46:00 | 58.193661 | 10.217281 | 2.0 | 16.606 | 2 | 42.224 | 16.792 | 32.842 | 2 |
| 2025-09-12T04:47:00 | 58.193544 | 10.217105 | 2.0 | 16.606 | 2 | 42.223 | 16.792 | 32.842 | 2 |
| 2025-09-12T04:48:00 | 58.193499 | 10.216777 | 2.0 | 16.595 | 2 | 42.220 | 16.791 | 32.840 | 2 |
| 2025-09-12T04:49:00 | 58.193490 | 10.216413 | 2.0 | 16.594 | 2 | 42.207 | 16.782 | 32.836 | 2 |
| 2025-09-12T04:50:00 | 58.193531 | 10.215938 | 2.0 | 16.592 | 2 | 42.205 | 16.780 | 32.836 | 2 |
| 2025-09-12T04:51:00 | 58.193604 | 10.215419 | 2.0 | 16.590 | 2 | 42.202 | 16.779 | 32.834 | 2 |
| 2025-09-12T04:52:00 | 58.193679 | 10.214913 | 2.0 | 16.587 | 2 | 42.196 | 16.775 | 32.832 | 2 |
| 2025-09-12T04:53:00 | 58.193794 | 10.214431 | 2.0 | 16.584 | 2 | 42.192 | 16.773 | 32.830 | 2 |
| 2025-09-12T04:54:00 | 58.193940 | 10.214002 | 2.0 | 16.580 | 2 | 42.189 | 16.770 | 32.830 | 2 |
| 2025-09-12T04:55:00 | 58.194158 | 10.213792 | 2.0 | 16.580 | 2 | 42.182 | 16.765 | 32.828 | 2 |
| 2025-09-12T04:56:00 | 58.194483 | 10.213777 | 2.0 | 16.574 | 2 | 42.183 | 16.765 | 32.829 | 2 |
| 2025-09-12T04:57:00 | 58.194853 | 10.213831 | 2.0 | 16.582 | 2 | 42.180 | 16.762 | 32.829 | 2 |
| 2025-09-12T04:58:00 | 58.195266 | 10.213961 | 2.0 | 16.579 | 2 | 42.192 | 16.770 | 32.833 | 2 |
| 2025-09-12T04:59:00 | 58.195684 | 10.214368 | 2.0 | 16.583 | 2 | 42.188 | 16.765 | 32.833 | 2 |
| 2025-09-12T05:00:00 | 58.196059 | 10.214954 | 2.0 | 16.588 | 2 | 42.200 | 16.771 | 32.839 | 2 |
| 2025-09-12T05:01:00 | 58.196472 | 10.215426 | 2.0 | 16.570 | 2 | 42.200 | 16.771 | 32.839 | 2 |
| 2025-09-12T05:02:00 | 58.196917 | 10.215842 | 2.0 | 16.573 | 2 | 42.189 | 16.757 | 32.841 | 2 |
| 2025-09-12T05:03:00 | 58.197322 | 10.216224 | 2.0 | 16.586 | 2 | 42.198 | 16.765 | 32.842 | 2 |
| 2025-09-12T05:04:00 | 58.197717 | 10.216701 | 2.0 | 16.592 | 2 | 42.224 | 16.779 | 32.853 | 2 |
| 2025-09-12T05:05:00 | 58.198114 | 10.216916 | 2.0 | 16.590 | 2 | 42.227 | 16.775 | 32.859 | 2 |
| 2025-09-12T05:06:00 | 58.198518 | 10.217056 | 2.0 | 16.604 | 2 | 42.223 | 16.780 | 32.851 | 2 |
| 2025-09-12T05:07:00 | 58.198732 | 10.216778 | 2.0 | 16.608 | 2 | 42.242 | 16.795 | 32.856 | 2 |
| 2025-09-12T05:08:00 | 58.198774 | 10.216287 | 2.0 | 16.602 | 2 | 42.243 | 16.798 | 32.854 | 2 |
| 2025-09-12T05:09:00 | 58.198751 | 10.215680 | 2.0 | 16.595 | 2 | 42.234 | 16.791 | 32.852 | 2 |
| 2025-09-12T05:10:00 | 58.198763 | 10.215093 | 2.0 | 16.591 | 2 | 42.225 | 16.785 | 32.849 | 2 |
| 2025-09-12T05:11:00 | 58.198820 | 10.214632 | 2.0 | 16.592 | 2 | 42.222 | 16.784 | 32.847 | 2 |
| 2025-09-12T05:12:00 | 58.198997 | 10.214235 | 2.0 | 16.592 | 2 | 42.220 | 16.781 | 32.848 | 2 |
| 2025-09-12T05:13:00 | 58.199178 | 10.213705 | 2.0 | 16.588 | 2 | 42.221 | 16.781 | 32.849 | 2 |
| 2025-09-12T05:14:00 | 58.199366 | 10.213232 | 2.0 | 16.584 | 2 | 42.219 | 16.779 | 32.849 | 2 |
| 2025-09-12T05:15:00 | 58.199650 | 10.212985 | 2.0 | 16.581 | 2 | 42.214 | 16.776 | 32.847 | 2 |
| 2025-09-12T05:16:00 | 58.200033 | 10.213042 | 2.0 | 16.581 | 2 | 42.212 | 16.773 | 32.848 | 2 |
| 2025-09-12T05:17:00 | 58.200430 | 10.213277 | 2.0 | 16.589 | 2 | 42.217 | 16.775 | 32.850 | 2 |
| 2025-09-12T05:18:00 | 58.200864 | 10.213480 | 2.0 | 16.594 | 2 | 42.220 | 16.779 | 32.850 | 2 |
| 2025-09-12T05:19:00 | 58.201280 | 10.213554 | 2.0 | 16.599 | 2 | 42.231 | 16.787 | 32.853 | 2 |
| 2025-09-12T05:20:00 | 58.201560 | 10.213383 | 2.0 | 16.611 | 2 | 42.234 | 16.790 | 32.853 | 2 |
| 2025-09-12T05:21:00 | 58.202225 | 10.213461 | 2.0 | 16.617 | 2 | 42.249 | 16.801 | 32.857 | 2 |
| 2025-09-12T05:22:00 | 58.202409 | 10.215899 | 2.0 | 16.615 | 2 | 42.254 | 16.807 | 32.856 | 2 |
| 2025-09-12T05:23:00 | 58.201472 | 10.219527 | 2.0 | 16.605 | 2 | 42.255 | 16.808 | 32.856 | 2 |
| 2025-09-12T05:24:00 | 58.200265 | 10.223741 | 2.0 | 16.582 | 2 | 42.268 | 16.796 | 32.877 | 2 |
| 2025-09-12T05:25:00 | 58.198993 | 10.228120 | 2.0 | 16.557 | 2 | 42.240 | 16.775 | 32.870 | 2 |
| 2025-09-12T05:26:00 | 58.197860 | 10.232736 | 2.0 | 16.536 | 2 | 42.181 | 16.747 | 32.842 | 2 |
| 2025-09-12T05:27:00 | 58.196738 | 10.237415 | 2.0 | 16.536 | 2 | 42.159 | 16.733 | 32.834 | 2 |
| 2025-09-12T05:28:00 | 58.195646 | 10.242122 | 2.0 | 16.533 | 2 | 42.225 | 16.732 | 32.892 | 2 |
| 2025-09-12T05:29:00 | 58.194791 | 10.246580 | 2.0 | 16.533 | 2 | 42.230 | 16.729 | 32.899 | 2 |
| 2025-09-12T05:30:00 | 58.194201 | 10.249922 | 2.0 | 16.533 | 2 | 42.232 | 16.727 | 32.903 | 2 |
| 2025-09-12T05:31:00 | 58.193893 | 10.252480 | 2.0 | 16.534 | 2 | 42.256 | 16.727 | 32.924 | 2 |
| 2025-09-12T05:32:00 | 58.194075 | 10.254448 | 2.0 | 16.534 | 2 | 42.259 | 16.727 | 32.926 | 2 |
| 2025-09-12T05:33:00 | 58.194861 | 10.255208 | 2.0 | 16.531 | 2 | 42.183 | 16.725 | 32.862 | 2 |
| 2025-09-12T05:34:00 | 58.195785 | 10.255659 | 2.0 | 16.529 | 2 | 42.080 | 16.719 | 32.777 | 2 |
| 2025-09-12T05:35:00 | 58.196135 | 10.256196 | 2.0 | 16.535 | 2 | 42.179 | 16.723 | 32.860 | 2 |
| 2025-09-12T05:36:00 | 58.196452 | 10.256822 | 2.0 | 16.540 | 2 | 42.146 | 16.730 | 32.825 | 2 |
| 2025-09-12T05:37:00 | 58.196958 | 10.257307 | 2.0 | 16.536 | 2 | 42.245 | 16.734 | 32.908 | 2 |
| 2025-09-12T05:38:00 | 58.197411 | 10.257239 | 2.0 | 16.531 | 2 | 42.170 | 16.727 | 32.849 | 2 |
| 2025-09-12T05:39:00 | 58.197803 | 10.255763 | 2.0 | 16.531 | 2 | 42.174 | 16.726 | 32.853 | 2 |
| 2025-09-12T05:40:00 | 58.198091 | 10.252657 | 2.0 | 16.529 | 2 | 42.167 | 16.727 | 32.846 | 2 |
| 2025-09-12T05:41:00 | 58.198353 | 10.248607 | 2.0 | 16.528 | 2 | 42.140 | 16.724 | 32.825 | 2 |
| 2025-09-12T05:42:00 | 58.198618 | 10.244080 | 2.0 | 16.539 | 2 | 42.252 | 16.729 | 32.918 | 2 |
| 2025-09-12T05:43:00 | 58.198872 | 10.239387 | 2.0 | 16.538 | 2 | 42.265 | 16.735 | 32.925 | 2 |
| 2025-09-12T05:44:00 | 58.199131 | 10.234627 | 2.0 | 16.539 | 2 | 42.280 | 16.737 | 32.936 | 2 |
| 2025-09-12T05:45:00 | 58.199389 | 10.229763 | 2.0 | 16.539 | 2 | 42.289 | 16.738 | 32.943 | 2 |
| 2025-09-12T05:46:00 | 58.199653 | 10.224893 | 2.0 | 16.535 | 2 | 42.255 | 16.737 | 32.914 | 2 |
| 2025-09-12T05:47:00 | 58.199929 | 10.220052 | 2.0 | 16.538 | 2 | 42.243 | 16.736 | 32.905 | 2 |
| 2025-09-12T05:48:00 | 58.200214 | 10.215219 | 2.0 | 16.537 | 2 | 42.270 | 16.736 | 32.928 | 2 |
| 2025-09-12T05:49:00 | 58.200381 | 10.210400 | 2.0 | 16.537 | 2 | 42.282 | 16.737 | 32.938 | 2 |
| 2025-09-12T05:50:00 | 58.200225 | 10.205722 | 2.0 | 16.520 | 2 | 42.306 | 16.735 | 32.961 | 2 |
| 2025-09-12T05:51:00 | 58.199979 | 10.201022 | 2.0 | 16.498 | 2 | 42.335 | 16.713 | 33.004 | 2 |
| 2025-09-12T05:52:00 | 58.199795 | 10.196316 | 2.0 | 16.503 | 2 | 42.352 | 16.700 | 33.029 | 2 |
| 2025-09-12T05:53:00 | 58.199826 | 10.191588 | 2.0 | 16.512 | 2 | 42.337 | 16.704 | 33.013 | 2 |
| 2025-09-12T05:54:00 | 58.199957 | 10.186785 | 2.0 | 16.519 | 2 | 42.331 | 16.711 | 33.002 | 2 |
| 2025-09-12T05:55:00 | 58.200235 | 10.181981 | 2.0 | 16.502 | 2 | 42.345 | 16.715 | 33.011 | 2 |
| 2025-09-12T05:56:00 | 58.200445 | 10.177912 | 2.0 | 16.506 | 2 | 42.271 | 16.701 | 32.958 | 2 |
| 2025-09-12T05:57:00 | 58.199967 | 10.177216 | 2.0 | 16.497 | 2 | 42.244 | 16.700 | 32.935 | 2 |
| 2025-09-12T05:58:00 | 58.199677 | 10.177498 | 2.0 | 16.507 | 2 | 42.249 | 16.693 | 32.945 | 2 |
| 2025-09-12T05:59:00 | 58.199591 | 10.177612 | 2.0 | 16.512 | 2 | 42.287 | 16.704 | 32.969 | 2 |
| 2025-09-12T06:00:00 | 58.199680 | 10.177616 | 2.0 | 16.513 | 2 | 42.246 | 16.707 | 32.931 | 2 |
| 2025-09-12T06:01:00 | 58.199664 | 10.177686 | 2.0 | 16.514 | 2 | 42.259 | 16.709 | 32.941 | 2 |
| 2025-09-12T06:02:00 | 58.199570 | 10.177810 | 2.0 | 16.519 | 2 | 42.297 | 16.711 | 32.972 | 2 |
| 2025-09-12T06:03:00 | 58.199549 | 10.177925 | 2.0 | 16.522 | 2 | 42.274 | 16.715 | 32.949 | 2 |
| 2025-09-12T06:04:00 | 58.199590 | 10.178074 | 2.0 | 16.523 | 2 | 42.283 | 16.717 | 32.955 | 2 |
| 2025-09-12T06:05:00 | 58.199603 | 10.178322 | 2.0 | 16.524 | 2 | 42.288 | 16.719 | 32.958 | 2 |
| 2025-09-12T06:06:00 | 58.199641 | 10.178575 | 2.0 | 16.527 | 2 | 42.264 | 16.720 | 32.936 | 2 |
| 2025-09-12T06:07:00 | 58.199697 | 10.178809 | 2.0 | 16.528 | 2 | 42.274 | 16.723 | 32.943 | 2 |
| 2025-09-12T06:08:00 | 58.199777 | 10.179082 | 2.0 | 16.531 | 2 | 42.279 | 16.724 | 32.946 | 2 |
| 2025-09-12T06:09:00 | 58.199953 | 10.179362 | 2.0 | 16.529 | 2 | 42.273 | 16.725 | 32.940 | 2 |
| 2025-09-12T06:10:00 | 58.200033 | 10.179558 | 2.0 | 16.528 | 2 | 42.278 | 16.724 | 32.945 | 2 |
| 2025-09-12T06:11:00 | 58.200165 | 10.179804 | 2.0 | 16.526 | 2 | 42.283 | 16.724 | 32.950 | 2 |
| 2025-09-12T06:12:00 | 58.200440 | 10.180098 | 2.0 | 16.529 | 2 | 42.288 | 16.724 | 32.954 | 2 |
| 2025-09-12T06:13:00 | 58.200740 | 10.180341 | 2.0 | 16.522 | 2 | 42.290 | 16.722 | 32.957 | 2 |
| 2025-09-12T06:14:00 | 58.200906 | 10.180304 | 2.0 | 16.521 | 2 | 42.290 | 16.717 | 32.961 | 2 |
| 2025-09-12T06:15:00 | 58.201105 | 10.180145 | 2.0 | 16.519 | 2 | 42.248 | 16.718 | 32.924 | 2 |
| 2025-09-12T06:16:00 | 58.201329 | 10.180095 | 2.0 | 16.520 | 2 | 42.290 | 16.719 | 32.960 | 2 |
| 2025-09-12T06:17:00 | 58.201443 | 10.180317 | 2.0 | 16.522 | 2 | 42.288 | 16.720 | 32.957 | 2 |
| 2025-09-12T06:18:00 | 58.201562 | 10.180534 | 2.0 | 16.521 | 2 | 42.291 | 16.722 | 32.958 | 2 |
| 2025-09-12T06:19:00 | 58.201905 | 10.180832 | 2.0 | 16.518 | 2 | 42.258 | 16.720 | 32.931 | 2 |
| 2025-09-12T06:20:00 | 58.202342 | 10.181271 | 2.0 | 16.504 | 2 | 42.274 | 16.716 | 32.948 | 2 |
| 2025-09-12T06:21:00 | 58.202783 | 10.181644 | 2.0 | 16.498 | 2 | 42.285 | 16.704 | 32.968 | 2 |
| 2025-09-12T06:22:00 | 58.203185 | 10.181790 | 2.0 | 16.501 | 2 | 42.303 | 16.701 | 32.986 | 2 |
| 2025-09-12T06:23:00 | 58.203477 | 10.181743 | 2.0 | 16.505 | 2 | 42.299 | 16.704 | 32.980 | 2 |
| 2025-09-12T06:24:00 | 58.203967 | 10.181128 | 2.0 | 16.517 | 2 | 42.296 | 16.705 | 32.976 | 2 |
| 2025-09-12T06:25:00 | 58.205150 | 10.179441 | 2.0 | 16.543 | 2 | 42.285 | 16.722 | 32.953 | 2 |
| 2025-09-12T06:26:00 | 58.206633 | 10.177421 | 2.0 | 16.571 | 2 | 42.262 | 16.752 | 32.908 | 2 |
| 2025-09-12T06:27:00 | 58.208160 | 10.175354 | 2.0 | 16.571 | 2 | 42.225 | 16.774 | 32.858 | 2 |
| 2025-09-12T06:28:00 | 58.209506 | 10.173603 | 2.0 | 16.558 | 2 | 42.195 | 16.772 | 32.834 | 2 |
| 2025-09-12T06:29:00 | 58.210666 | 10.172235 | 2.0 | 16.560 | 2 | 42.173 | 16.760 | 32.824 | 2 |
| 2025-09-12T06:30:00 | 58.211383 | 10.171264 | 2.0 | 16.567 | 2 | 42.173 | 16.763 | 32.822 | 2 |
| 2025-09-12T06:31:00 | 58.211474 | 10.170446 | 2.0 | 16.578 | 2 | 42.183 | 16.768 | 32.826 | 2 |
| 2025-09-12T06:32:00 | 58.211372 | 10.169048 | 2.0 | 16.579 | 2 | 42.197 | 16.779 | 32.830 | 2 |
| 2025-09-12T06:33:00 | 58.211179 | 10.167770 | 2.0 | 16.576 | 2 | 42.198 | 16.780 | 32.830 | 2 |
| 2025-09-12T06:34:00 | 58.211147 | 10.167320 | 2.0 | 16.571 | 2 | 42.194 | 16.778 | 32.828 | 2 |
| 2025-09-12T06:35:00 | 58.211289 | 10.167162 | 2.0 | 16.575 | 2 | 42.190 | 16.774 | 32.828 | 2 |
| 2025-09-12T06:36:00 | 58.211644 | 10.166694 | 2.0 | 16.597 | 2 | 42.203 | 16.784 | 32.831 | 2 |
| 2025-09-12T06:37:00 | 58.212066 | 10.165188 | 2.0 | 16.585 | 2 | 42.106 | 16.793 | 32.739 | 2 |
| 2025-09-12T06:38:00 | 58.212550 | 10.162906 | 2.0 | 16.628 | 2 | 42.217 | 16.794 | 32.835 | 2 |
| 2025-09-12T06:39:00 | 58.213143 | 10.160247 | 2.0 | 16.639 | 2 | 42.251 | 16.828 | 32.836 | 2 |
| 2025-09-12T06:40:00 | 58.213825 | 10.157381 | 2.0 | 16.628 | 2 | 42.216 | 16.838 | 32.798 | 2 |
| 2025-09-12T06:41:00 | 58.214827 | 10.154591 | 2.0 | 16.607 | 2 | 42.226 | 16.826 | 32.816 | 2 |
| 2025-09-12T06:42:00 | 58.215865 | 10.151895 | 2.0 | 16.584 | 2 | 42.201 | 16.807 | 32.810 | 2 |
| 2025-09-12T06:43:00 | 58.216806 | 10.149528 | 2.0 | 16.567 | 2 | 42.183 | 16.783 | 32.814 | 2 |
| 2025-09-12T06:44:00 | 58.217591 | 10.147648 | 2.0 | 16.582 | 2 | 42.185 | 16.773 | 32.824 | 2 |
| 2025-09-12T06:45:00 | 58.218265 | 10.146442 | 2.0 | 16.586 | 2 | 42.207 | 16.782 | 32.836 | 2 |
| 2025-09-12T06:46:00 | 58.218998 | 10.147100 | 2.0 | 16.591 | 2 | 42.219 | 16.788 | 32.841 | 2 |
| 2025-09-12T06:47:00 | 58.219481 | 10.148347 | 2.0 | 16.590 | 2 | 42.019 | 16.790 | 32.666 | 2 |
| 2025-09-12T06:48:00 | 58.219792 | 10.149471 | 2.0 | 16.589 | 2 | 41.980 | 16.789 | 32.633 | 2 |
| 2025-09-12T06:49:00 | 58.219879 | 10.150406 | 2.0 | 16.587 | 2 | 42.012 | 16.788 | 32.662 | 2 |
| 2025-09-12T06:50:00 | 58.219806 | 10.150941 | 2.0 | 16.585 | 2 | 42.175 | 16.786 | 32.805 | 2 |
| 2025-09-12T06:51:00 | 58.219731 | 10.150889 | 2.0 | 16.586 | 2 | 41.929 | 16.788 | 32.590 | 2 |
| 2025-09-12T06:52:00 | 58.219945 | 10.150705 | 2.0 | 16.586 | 2 | 42.033 | 16.789 | 32.679 | 2 |
| 2025-09-12T06:53:00 | 58.220183 | 10.150554 | 2.0 | 16.587 | 2 | 42.153 | 16.787 | 32.785 | 2 |
| 2025-09-12T06:54:00 | 58.220601 | 10.150106 | 2.0 | 16.592 | 2 | 42.151 | 16.789 | 32.782 | 2 |
| 2025-09-12T06:55:00 | 58.221207 | 10.150744 | 2.0 | 16.594 | 2 | 42.105 | 16.792 | 32.739 | 2 |
| 2025-09-12T06:56:00 | 58.221186 | 10.152589 | 2.0 | 16.592 | 2 | 42.246 | 16.794 | 32.860 | 2 |
| 2025-09-12T06:57:00 | 58.220319 | 10.155880 | 2.0 | 16.585 | 2 | 42.100 | 16.793 | 32.734 | 2 |
| 2025-09-12T06:58:00 | 58.219120 | 10.160002 | 2.0 | 16.572 | 2 | 42.210 | 16.787 | 32.834 | 2 |
| 2025-09-12T06:59:00 | 58.217830 | 10.164395 | 2.0 | 16.587 | 2 | 41.970 | 16.779 | 32.632 | 2 |
| 2025-09-12T07:00:00 | 58.216518 | 10.168840 | 2.0 | 16.626 | 2 | 41.936 | 16.798 | 32.588 | 2 |
| 2025-09-12T07:01:00 | 58.215221 | 10.173287 | 2.0 | 16.610 | 2 | 42.242 | 16.833 | 32.825 | 2 |
| 2025-09-12T07:02:00 | 58.213917 | 10.177745 | 2.0 | 16.579 | 2 | 42.240 | 16.807 | 32.844 | 2 |
| 2025-09-12T07:03:00 | 58.212595 | 10.182215 | 2.0 | 16.579 | 2 | 42.190 | 16.784 | 32.819 | 2 |
| 2025-09-12T07:04:00 | 58.211287 | 10.186673 | 2.0 | 16.575 | 2 | 42.140 | 16.784 | 32.776 | 2 |
| 2025-09-12T07:05:00 | 58.209953 | 10.191083 | 2.0 | 16.551 | 2 | 41.950 | 16.778 | 32.616 | 2 |
| 2025-09-12T07:06:00 | 58.208506 | 10.195287 | 2.0 | 16.522 | 2 | 42.013 | 16.751 | 32.693 | 2 |
| 2025-09-12T07:07:00 | 58.207182 | 10.199674 | 2.0 | 16.529 | 2 | 42.074 | 16.727 | 32.765 | 2 |
| 2025-09-12T07:08:00 | 58.205886 | 10.204093 | 2.0 | 16.552 | 2 | 42.144 | 16.737 | 32.818 | 2 |
| 2025-09-12T07:09:00 | 58.204571 | 10.208555 | 2.0 | 16.567 | 2 | 42.127 | 16.757 | 32.787 | 2 |
| 2025-09-12T07:10:00 | 58.203406 | 10.213167 | 2.0 | 16.572 | 2 | 42.092 | 16.772 | 32.744 | 2 |
| 2025-09-12T07:11:00 | 58.202786 | 10.218283 | 2.0 | 16.551 | 2 | 42.050 | 16.773 | 32.707 | 2 |
| 2025-09-12T07:12:00 | 58.202324 | 10.223596 | 2.0 | 16.526 | 2 | 42.057 | 16.755 | 32.728 | 2 |
| 2025-09-12T07:13:00 | 58.201940 | 10.228985 | 2.0 | 16.500 | 2 | 42.066 | 16.729 | 32.757 | 2 |
| 2025-09-12T07:14:00 | 58.201630 | 10.234380 | 2.0 | 16.472 | 2 | 42.099 | 16.702 | 32.807 | 2 |
| 2025-09-12T07:15:00 | 58.201634 | 10.239887 | 2.0 | 16.474 | 2 | 42.176 | 16.676 | 32.896 | 2 |
| 2025-09-12T07:16:00 | 58.201633 | 10.245361 | 2.0 | 16.514 | 2 | 42.354 | 16.692 | 33.038 | 2 |
| 2025-09-12T07:17:00 | 58.201654 | 10.250116 | 2.0 | 16.509 | 2 | 42.450 | 16.717 | 33.101 | 2 |
| 2025-09-12T07:18:00 | 58.201308 | 10.252216 | 2.0 | 16.492 | 2 | 42.493 | 16.705 | 33.148 | 2 |
| 2025-09-12T07:19:00 | 58.201249 | 10.252220 | 2.0 | 16.492 | 2 | 42.468 | 16.695 | 33.135 | 2 |
| 2025-09-12T07:20:00 | 58.201422 | 10.251583 | 2.0 | 16.489 | 2 | 42.482 | 16.693 | 33.148 | 2 |
| 2025-09-12T07:21:00 | 58.201579 | 10.250809 | 2.0 | 16.487 | 2 | 42.469 | 16.692 | 33.138 | 2 |
| 2025-09-12T07:22:00 | 58.201908 | 10.250599 | 2.0 | 16.483 | 2 | 42.482 | 16.688 | 33.153 | 2 |
| 2025-09-12T07:23:00 | 58.202266 | 10.250480 | 2.0 | 16.489 | 2 | 42.506 | 16.685 | 33.176 | 2 |
| 2025-09-12T07:24:00 | 58.202145 | 10.250106 | 2.0 | 16.506 | 2 | 42.530 | 16.692 | 33.191 | 2 |
| 2025-09-12T07:25:00 | 58.201366 | 10.249129 | 2.0 | 16.507 | 2 | 42.554 | 16.709 | 33.198 | 2 |
| 2025-09-12T07:26:00 | 58.200303 | 10.247654 | 2.0 | 16.500 | 2 | 42.559 | 16.707 | 33.204 | 2 |
| 2025-09-12T07:27:00 | 58.199100 | 10.246131 | 2.0 | 16.496 | 2 | 42.578 | 16.704 | 33.223 | 2 |
| 2025-09-12T07:28:00 | 58.197863 | 10.244788 | 2.0 | 16.493 | 2 | 42.579 | 16.700 | 33.227 | 2 |
| 2025-09-12T07:29:00 | 58.196963 | 10.243650 | 2.0 | 16.492 | 2 | 42.556 | 16.695 | 33.211 | 2 |
| 2025-09-12T07:30:00 | 58.196826 | 10.243235 | 2.0 | 16.492 | 2 | 42.583 | 16.693 | 33.237 | 2 |
| 2025-09-12T07:31:00 | 58.197226 | 10.243504 | 2.0 | 16.491 | 2 | 42.588 | 16.694 | 33.240 | 2 |
| 2025-09-12T07:32:00 | 58.197680 | 10.243797 | 2.0 | 16.490 | 2 | 42.606 | 16.693 | 33.257 | 2 |
| 2025-09-12T07:33:00 | 58.198159 | 10.244143 | 2.0 | 16.490 | 2 | 42.624 | 16.694 | 33.271 | 2 |
| 2025-09-12T07:34:00 | 58.198461 | 10.244232 | 2.0 | 16.490 | 2 | 42.646 | 16.694 | 33.291 | 2 |
| 2025-09-12T07:35:00 | 58.198434 | 10.243285 | 2.0 | 16.515 | 2 | 42.664 | 16.695 | 33.306 | 2 |
| 2025-09-12T07:36:00 | 58.199162 | 10.240336 | 2.0 | 16.518 | 2 | 42.756 | 16.719 | 33.366 | 2 |
| 2025-09-12T07:37:00 | 58.200184 | 10.236356 | 2.0 | 16.508 | 2 | 42.720 | 16.723 | 33.331 | 2 |
| 2025-09-12T07:38:00 | 58.201333 | 10.232091 | 2.0 | 16.477 | 2 | 42.625 | 16.706 | 33.262 | 2 |
| 2025-09-12T07:39:00 | 58.202496 | 10.227713 | 2.0 | 16.494 | 2 | 42.447 | 16.685 | 33.125 | 2 |
| 2025-09-12T07:40:00 | 58.203651 | 10.223366 | 2.0 | 16.564 | 2 | 42.315 | 16.717 | 32.983 | 2 |
| 2025-09-12T07:41:00 | 58.204798 | 10.219023 | 2.0 | 16.596 | 2 | 42.246 | 16.774 | 32.876 | 2 |
| 2025-09-12T07:42:00 | 58.205945 | 10.214629 | 2.0 | 16.618 | 2 | 42.270 | 16.803 | 32.873 | 2 |
| 2025-09-12T07:43:00 | 58.207076 | 10.210211 | 2.0 | 16.610 | 2 | 42.302 | 16.820 | 32.887 | 2 |
| 2025-09-12T07:44:00 | 58.208199 | 10.205897 | 2.0 | 16.597 | 2 | 42.308 | 16.812 | 32.899 | 2 |
| 2025-09-12T07:45:00 | 58.209314 | 10.201588 | 2.0 | 16.589 | 2 | 42.316 | 16.801 | 32.915 | 2 |
| 2025-09-12T07:46:00 | 58.210414 | 10.197261 | 2.0 | 16.600 | 2 | 42.302 | 16.796 | 32.907 | 2 |
| 2025-09-12T07:47:00 | 58.211521 | 10.192921 | 2.0 | 16.598 | 2 | 42.278 | 16.807 | 32.877 | 2 |
| 2025-09-12T07:48:00 | 58.212614 | 10.188555 | 2.0 | 16.591 | 2 | 42.241 | 16.803 | 32.848 | 2 |
| 2025-09-12T07:49:00 | 58.213701 | 10.184149 | 2.0 | 16.590 | 2 | 42.218 | 16.796 | 32.834 | 2 |
| 2025-09-12T07:50:00 | 58.214803 | 10.179711 | 2.0 | 16.594 | 2 | 42.222 | 16.797 | 32.837 | 2 |
| 2025-09-12T07:51:00 | 58.215898 | 10.175275 | 2.0 | 16.635 | 2 | 42.227 | 16.808 | 32.832 | 2 |
| 2025-09-12T07:52:00 | 58.216970 | 10.170876 | 2.0 | 16.625 | 2 | 42.239 | 16.838 | 32.818 | 2 |
| 2025-09-12T07:53:00 | 58.218044 | 10.166436 | 2.0 | 16.603 | 2 | 42.222 | 16.826 | 32.813 | 2 |
| 2025-09-12T07:54:00 | 58.219130 | 10.162043 | 2.0 | 16.599 | 2 | 42.198 | 16.809 | 32.806 | 2 |
| 2025-09-12T07:55:00 | 58.220166 | 10.157790 | 2.0 | 16.603 | 2 | 42.189 | 16.806 | 32.801 | 2 |
| 2025-09-12T07:56:00 | 58.221167 | 10.153706 | 2.0 | 16.620 | 2 | 42.179 | 16.812 | 32.787 | 2 |
| 2025-09-12T07:57:00 | 58.222089 | 10.149982 | 2.0 | 16.632 | 2 | 42.179 | 16.826 | 32.776 | 2 |
| 2025-09-12T07:58:00 | 58.221906 | 10.148067 | 2.0 | 16.632 | 2 | 42.181 | 16.836 | 32.769 | 2 |
| 2025-09-12T07:59:00 | 58.221364 | 10.146707 | 2.0 | 16.636 | 2 | 42.189 | 16.835 | 32.777 | 2 |
| 2025-09-12T08:00:00 | 58.220862 | 10.145303 | 2.0 | 16.642 | 2 | 42.204 | 16.839 | 32.787 | 2 |
| 2025-09-12T08:01:00 | 58.220412 | 10.143834 | 2.0 | 16.642 | 2 | 42.221 | 16.843 | 32.798 | 2 |
| 2025-09-12T08:02:00 | 58.219914 | 10.142206 | 2.0 | 16.638 | 2 | 42.226 | 16.843 | 32.803 | 2 |
| 2025-09-12T08:03:00 | 58.219489 | 10.140783 | 2.0 | 16.632 | 2 | 42.229 | 16.839 | 32.808 | 2 |
| 2025-09-12T08:04:00 | 58.219427 | 10.139650 | 2.0 | 16.629 | 2 | 42.230 | 16.832 | 32.815 | 2 |
| 2025-09-12T08:05:00 | 58.219641 | 10.139548 | 2.0 | 16.623 | 2 | 42.229 | 16.831 | 32.815 | 2 |
| 2025-09-12T08:06:00 | 58.219977 | 10.139736 | 2.0 | 16.622 | 2 | 42.222 | 16.825 | 32.814 | 2 |
| 2025-09-12T08:07:00 | 58.220439 | 10.139490 | 2.0 | 16.627 | 2 | 42.218 | 16.824 | 32.811 | 2 |
| 2025-09-12T08:08:00 | 58.221029 | 10.138212 | 2.0 | 16.634 | 2 | 42.223 | 16.830 | 32.811 | 2 |
| 2025-09-12T08:09:00 | 58.221809 | 10.136225 | 2.0 | 16.654 | 2 | 42.126 | 16.840 | 32.718 | 2 |
| 2025-09-12T08:10:00 | 58.223002 | 10.133612 | 2.0 | 16.656 | 2 | 42.025 | 16.855 | 32.618 | 2 |
| 2025-09-12T08:11:00 | 58.224395 | 10.130670 | 2.0 | 16.670 | 2 | 42.041 | 16.860 | 32.628 | 2 |
| 2025-09-12T08:12:00 | 58.225914 | 10.127390 | 2.0 | 16.681 | 2 | 42.169 | 16.876 | 32.726 | 2 |
| 2025-09-12T08:13:00 | 58.227532 | 10.123828 | 2.0 | 16.675 | 2 | 41.935 | 16.883 | 32.518 | 2 |
| 2025-09-12T08:14:00 | 58.229178 | 10.120161 | 2.0 | 16.677 | 2 | 41.977 | 16.880 | 32.557 | 2 |
| 2025-09-12T08:15:00 | 58.230770 | 10.116649 | 2.0 | 16.680 | 2 | 41.937 | 16.880 | 32.522 | 2 |
| 2025-09-12T08:16:00 | 58.231858 | 10.113702 | 2.0 | 16.673 | 2 | 42.070 | 16.885 | 32.633 | 2 |
| 2025-09-12T08:17:00 | 58.231521 | 10.112750 | 2.0 | 16.670 | 2 | 42.079 | 16.876 | 32.648 | 2 |
| 2025-09-12T08:18:00 | 58.231315 | 10.111588 | 2.0 | 16.669 | 2 | 42.194 | 16.874 | 32.749 | 2 |
| 2025-09-12T08:19:00 | 58.231328 | 10.110460 | 2.0 | 16.671 | 2 | 42.072 | 16.872 | 32.645 | 2 |
| 2025-09-12T08:20:00 | 58.231542 | 10.109248 | 2.0 | 16.669 | 2 | 42.100 | 16.873 | 32.669 | 2 |
| 2025-09-12T08:21:00 | 58.231751 | 10.108227 | 2.0 | 16.663 | 2 | 42.149 | 16.869 | 32.715 | 2 |
| 2025-09-12T08:22:00 | 58.232016 | 10.107991 | 2.0 | 16.658 | 2 | 42.155 | 16.864 | 32.724 | 2 |
| 2025-09-12T08:23:00 | 58.232313 | 10.108159 | 2.0 | 16.659 | 2 | 42.139 | 16.861 | 32.712 | 2 |
| 2025-09-12T08:24:00 | 58.232751 | 10.108054 | 2.0 | 16.665 | 2 | 42.141 | 16.861 | 32.714 | 2 |
| 2025-09-12T08:25:00 | 58.233370 | 10.108777 | 2.0 | 16.667 | 2 | 42.129 | 16.866 | 32.700 | 2 |
| 2025-09-12T08:26:00 | 58.233377 | 10.110617 | 2.0 | 16.667 | 2 | 42.106 | 16.865 | 32.681 | 2 |
| 2025-09-12T08:27:00 | 58.232522 | 10.113226 | 2.0 | 16.675 | 2 | 42.135 | 16.869 | 32.702 | 2 |
| 2025-09-12T08:28:00 | 58.230719 | 10.115740 | 2.0 | 16.676 | 2 | 42.194 | 16.878 | 32.746 | 2 |
| 2025-09-12T08:29:00 | 58.228623 | 10.118277 | 2.0 | 16.674 | 2 | 42.158 | 16.880 | 32.713 | 2 |
| 2025-09-12T08:30:00 | 58.226553 | 10.121339 | 2.0 | 16.668 | 2 | 42.190 | 16.877 | 32.744 | 2 |
| 2025-09-12T08:31:00 | 58.224470 | 10.124443 | 2.0 | 16.683 | 2 | 42.162 | 16.876 | 32.720 | 2 |
| 2025-09-12T08:32:00 | 58.222377 | 10.127504 | 2.0 | 16.672 | 2 | 42.190 | 16.886 | 32.736 | 2 |
| 2025-09-12T08:33:00 | 58.220229 | 10.130557 | 2.0 | 16.660 | 2 | 42.191 | 16.874 | 32.747 | 2 |
| 2025-09-12T08:34:00 | 58.218095 | 10.133650 | 2.0 | 16.639 | 2 | 42.199 | 16.863 | 32.763 | 2 |
| 2025-09-12T08:35:00 | 58.215950 | 10.136726 | 2.0 | 16.642 | 2 | 42.185 | 16.843 | 32.767 | 2 |
| 2025-09-12T08:36:00 | 58.213842 | 10.139747 | 2.0 | 16.665 | 2 | 42.163 | 16.850 | 32.742 | 2 |
| 2025-09-12T08:37:00 | 58.211724 | 10.142761 | 2.0 | 16.686 | 2 | 42.176 | 16.871 | 32.736 | 2 |
| 2025-09-12T08:38:00 | 58.209580 | 10.145783 | 2.0 | 16.713 | 2 | 42.199 | 16.894 | 32.738 | 2 |
| 2025-09-12T08:39:00 | 58.207460 | 10.148869 | 2.0 | 16.740 | 2 | 42.224 | 16.921 | 32.737 | 2 |
| 2025-09-12T08:40:00 | 58.205314 | 10.151911 | 2.0 | 16.720 | 2 | 42.266 | 16.938 | 32.760 | 2 |
| 2025-09-12T08:41:00 | 58.203198 | 10.155030 | 2.0 | 16.699 | 2 | 42.281 | 16.921 | 32.787 | 2 |
| 2025-09-12T08:42:00 | 58.201151 | 10.158367 | 2.0 | 16.677 | 2 | 42.283 | 16.900 | 32.805 | 2 |
| 2025-09-12T08:43:00 | 58.199079 | 10.161693 | 2.0 | 16.662 | 2 | 42.300 | 16.879 | 32.837 | 2 |
| 2025-09-12T08:44:00 | 58.197055 | 10.165112 | 2.0 | 16.630 | 2 | 42.310 | 16.863 | 32.859 | 2 |
| 2025-09-12T08:45:00 | 58.195003 | 10.168432 | 2.0 | 16.556 | 2 | 42.286 | 16.822 | 32.872 | 2 |
| 2025-09-12T08:46:00 | 58.192976 | 10.171801 | 2.0 | 16.500 | 2 | 42.254 | 16.754 | 32.900 | 2 |
| 2025-09-12T08:47:00 | 58.190945 | 10.175218 | 2.0 | 16.489 | 2 | 42.265 | 16.705 | 32.949 | 2 |
| 2025-09-12T08:48:00 | 58.188936 | 10.178649 | 2.0 | 16.471 | 2 | 42.329 | 16.694 | 33.014 | 2 |
| 2025-09-12T08:49:00 | 58.186867 | 10.181948 | 2.0 | 16.473 | 2 | 42.369 | 16.679 | 33.062 | 2 |
| 2025-09-12T08:50:00 | 58.184811 | 10.185343 | 2.0 | 16.481 | 2 | 42.443 | 16.680 | 33.125 | 2 |
| 2025-09-12T08:51:00 | 58.182754 | 10.188767 | 2.0 | 16.466 | 2 | 42.540 | 16.683 | 33.207 | 2 |
| 2025-09-12T08:52:00 | 58.180690 | 10.192192 | 2.0 | 16.464 | 2 | 42.588 | 16.671 | 33.259 | 2 |
| 2025-09-12T08:53:00 | 58.178623 | 10.195639 | 2.0 | 16.465 | 2 | 42.628 | 16.670 | 33.295 | 2 |
| 2025-09-12T08:54:00 | 58.176531 | 10.199037 | 2.0 | 16.468 | 2 | 42.674 | 16.670 | 33.335 | 2 |
| 2025-09-12T08:55:00 | 58.174442 | 10.202449 | 2.0 | 16.467 | 2 | 42.718 | 16.673 | 33.371 | 2 |
| 2025-09-12T08:56:00 | 58.172385 | 10.205997 | 2.0 | 16.474 | 2 | 42.762 | 16.672 | 33.410 | 2 |
| 2025-09-12T08:57:00 | 58.170402 | 10.209666 | 2.0 | 16.486 | 2 | 42.824 | 16.682 | 33.456 | 2 |
| 2025-09-12T08:58:00 | 58.168474 | 10.213512 | 2.0 | 16.488 | 2 | 42.865 | 16.691 | 33.484 | 2 |
| 2025-09-12T08:59:00 | 58.166574 | 10.217356 | 2.0 | 16.483 | 2 | 42.885 | 16.692 | 33.501 | 2 |
| 2025-09-12T09:00:00 | 58.164649 | 10.221093 | 2.0 | 16.473 | 2 | 42.901 | 16.685 | 33.521 | 2 |
| 2025-09-12T09:01:00 | 58.162720 | 10.224839 | 2.0 | 16.458 | 2 | 42.926 | 16.677 | 33.549 | 2 |
| 2025-09-12T09:02:00 | 58.160793 | 10.228585 | 2.0 | 16.468 | 2 | 42.948 | 16.665 | 33.579 | 2 |
| 2025-09-12T09:03:00 | 58.158993 | 10.232576 | 2.0 | 16.475 | 2 | 42.976 | 16.673 | 33.596 | 2 |
| 2025-09-12T09:04:00 | 58.157187 | 10.236619 | 2.0 | 16.530 | 2 | 43.009 | 16.686 | 33.614 | 2 |
| 2025-09-12T09:05:00 | 58.155406 | 10.240759 | 2.0 | 16.666 | 2 | 43.146 | 16.757 | 33.674 | 2 |
| 2025-09-12T09:06:00 | 58.153644 | 10.244782 | 2.0 | 16.606 | 2 | 43.337 | 16.867 | 33.748 | 2 |
| 2025-09-12T09:07:00 | 58.151919 | 10.248729 | 2.0 | 16.519 | 2 | 43.184 | 16.793 | 33.677 | 2 |
| 2025-09-12T09:08:00 | 58.150192 | 10.252601 | 2.0 | 16.483 | 2 | 43.024 | 16.724 | 33.595 | 2 |
| 2025-09-12T09:09:00 | 58.148471 | 10.256521 | 2.0 | 16.492 | 2 | 42.931 | 16.692 | 33.541 | 2 |
| 2025-09-12T09:10:00 | 58.146717 | 10.260379 | 2.0 | 16.483 | 2 | 42.897 | 16.693 | 33.511 | 2 |
| 2025-09-12T09:11:00 | 58.144955 | 10.264294 | 2.0 | 16.515 | 2 | 42.877 | 16.692 | 33.494 | 2 |
| 2025-09-12T09:12:00 | 58.143214 | 10.268275 | 2.0 | 16.534 | 2 | 42.898 | 16.720 | 33.489 | 2 |
| 2025-09-12T09:13:00 | 58.141449 | 10.272253 | 2.0 | 16.618 | 2 | 42.922 | 16.748 | 33.486 | 2 |
| 2025-09-12T09:14:00 | 58.139709 | 10.276187 | 2.0 | 16.740 | 2 | 43.011 | 16.834 | 33.492 | 2 |
| 2025-09-12T09:15:00 | 58.137961 | 10.280105 | 2.0 | 16.858 | 2 | 43.151 | 16.957 | 33.511 | 2 |
| 2025-09-12T09:16:00 | 58.136205 | 10.284033 | 2.0 | 16.894 | 2 | 43.290 | 17.059 | 33.547 | 2 |
| 2025-09-12T09:17:00 | 58.134764 | 10.288518 | 2.0 | 16.899 | 2 | 43.343 | 17.093 | 33.564 | 2 |
| 2025-09-12T09:18:00 | 58.133425 | 10.293200 | 2.0 | 16.891 | 2 | 43.368 | 17.095 | 33.584 | 2 |
| 2025-09-12T09:19:00 | 58.132084 | 10.297836 | 2.0 | 16.899 | 2 | 43.383 | 17.091 | 33.601 | 2 |
| 2025-09-12T09:20:00 | 58.130734 | 10.302461 | 2.0 | 16.872 | 2 | 43.396 | 17.098 | 33.606 | 2 |
| 2025-09-12T09:21:00 | 58.129429 | 10.306916 | 2.0 | 16.609 | 2 | 43.343 | 17.043 | 33.606 | 2 |
| 2025-09-12T09:22:00 | 58.128267 | 10.310977 | 2.0 | 16.530 | 2 | 43.086 | 16.819 | 33.570 | 2 |
| 2025-09-12T09:23:00 | 58.127358 | 10.313953 | 2.0 | 16.515 | 2 | 42.978 | 16.739 | 33.543 | 2 |
| 2025-09-12T09:24:00 | 58.126994 | 10.314661 | 2.0 | 16.520 | 2 | 42.958 | 16.722 | 33.540 | 2 |
| 2025-09-12T09:25:00 | 58.127022 | 10.314470 | 2.0 | 16.518 | 2 | 42.961 | 16.723 | 33.541 | 2 |
| 2025-09-12T09:26:00 | 58.126904 | 10.313905 | 2.0 | 16.519 | 2 | 42.959 | 16.722 | 33.540 | 2 |
| 2025-09-12T09:27:00 | 58.126832 | 10.313549 | 2.0 | 16.518 | 2 | 42.960 | 16.722 | 33.541 | 2 |
| 2025-09-12T09:28:00 | 58.126990 | 10.313766 | 2.0 | 16.517 | 2 | 42.960 | 16.721 | 33.542 | 2 |
| 2025-09-12T09:29:00 | 58.127096 | 10.313719 | 2.0 | 16.527 | 2 | 42.961 | 16.722 | 33.542 | 2 |
| 2025-09-12T09:30:00 | 58.127286 | 10.313118 | 2.0 | 16.533 | 2 | 42.972 | 16.731 | 33.544 | 2 |
| 2025-09-12T09:31:00 | 58.127434 | 10.312158 | 2.0 | 16.534 | 2 | 42.979 | 16.735 | 33.547 | 2 |
| 2025-09-12T09:32:00 | 58.127276 | 10.310494 | 2.0 | 16.534 | 2 | 42.984 | 16.738 | 33.549 | 2 |
| 2025-09-12T09:33:00 | 58.126875 | 10.308559 | 2.0 | 16.538 | 2 | 42.988 | 16.740 | 33.551 | 2 |
| 2025-09-12T09:34:00 | 58.126227 | 10.306553 | 2.0 | 16.541 | 2 | 42.995 | 16.743 | 33.554 | 2 |
| 2025-09-12T09:35:00 | 58.125344 | 10.304232 | 2.0 | 16.543 | 2 | 43.001 | 16.745 | 33.558 | 2 |
| 2025-09-12T09:36:00 | 58.124168 | 10.301058 | 2.0 | 16.552 | 2 | 43.005 | 16.745 | 33.561 | 2 |
| 2025-09-12T09:37:00 | 58.122936 | 10.297446 | 2.0 | 16.556 | 2 | 43.011 | 16.746 | 33.566 | 2 |
| 2025-09-12T09:38:00 | 58.121693 | 10.293794 | 2.0 | 16.555 | 2 | 43.014 | 16.746 | 33.568 | 2 |
| 2025-09-12T09:39:00 | 58.120445 | 10.290158 | 2.0 | 16.556 | 2 | 43.003 | 16.743 | 33.561 | 2 |
| 2025-09-12T09:40:00 | 58.119163 | 10.286474 | 2.0 | 16.614 | 2 | 42.997 | 16.745 | 33.554 | 2 |
| 2025-09-12T09:41:00 | 58.117874 | 10.282802 | 2.0 | 16.775 | 2 | 43.088 | 16.840 | 33.554 | 2 |
| 2025-09-12T09:42:00 | 58.116607 | 10.279136 | 2.0 | 16.785 | 2 | 43.212 | 16.946 | 33.573 | 2 |
| 2025-09-12T09:43:00 | 58.115347 | 10.275457 | 2.0 | 16.795 | 2 | 43.227 | 16.966 | 33.570 | 2 |
| 2025-09-12T09:44:00 | 58.114061 | 10.271704 | 2.0 | 16.807 | 2 | 42.999 | 16.976 | 33.364 | 2 |
| 2025-09-12T09:45:00 | 58.112767 | 10.267966 | 2.0 | 16.810 | 2 | 42.727 | 16.985 | 33.120 | 2 |
| 2025-09-12T09:46:00 | 58.111464 | 10.264235 | 2.0 | 16.803 | 2 | 43.069 | 16.986 | 33.416 | 2 |
| 2025-09-12T09:47:00 | 58.110179 | 10.260499 | 2.0 | 16.797 | 2 | 43.203 | 16.980 | 33.537 | 2 |
| 2025-09-12T09:48:00 | 58.108902 | 10.256745 | 2.0 | 16.762 | 2 | 43.193 | 16.975 | 33.533 | 2 |
| 2025-09-12T09:49:00 | 58.107594 | 10.252995 | 2.0 | 16.623 | 2 | 42.966 | 16.912 | 33.388 | 2 |
| 2025-09-12T09:50:00 | 58.106282 | 10.249239 | 2.0 | 16.577 | 2 | 42.922 | 16.801 | 33.442 | 2 |
| 2025-09-12T09:51:00 | 58.104992 | 10.245446 | 2.0 | 16.563 | 2 | 42.540 | 16.758 | 33.145 | 2 |
| 2025-09-12T09:52:00 | 58.103711 | 10.241727 | 2.0 | 16.543 | 2 | 42.662 | 16.743 | 33.264 | 2 |
| 2025-09-12T09:53:00 | 58.102390 | 10.237991 | 2.0 | 16.516 | 2 | 42.872 | 16.718 | 33.468 | 2 |
| 2025-09-12T09:54:00 | 58.101054 | 10.234274 | 2.0 | 16.485 | 2 | 42.834 | 16.693 | 33.456 | 2 |
| 2025-09-12T09:55:00 | 58.099723 | 10.230527 | 2.0 | 16.503 | 2 | 42.898 | 16.668 | 33.532 | 2 |
| 2025-09-12T09:56:00 | 58.098385 | 10.226823 | 2.0 | 16.508 | 2 | 42.912 | 16.684 | 33.531 | 2 |
| 2025-09-12T09:57:00 | 58.097071 | 10.223093 | 2.0 | 16.485 | 2 | 42.922 | 16.682 | 33.542 | 2 |
| 2025-09-12T09:58:00 | 58.095777 | 10.219442 | 2.0 | 16.473 | 2 | 42.831 | 16.662 | 33.479 | 2 |
| 2025-09-12T09:59:00 | 58.094460 | 10.215746 | 2.0 | 16.474 | 2 | 42.681 | 16.653 | 33.355 | 2 |
| 2025-09-12T10:00:00 | 58.093139 | 10.212023 | 2.0 | 16.474 | 2 | 42.628 | 16.653 | 33.309 | 2 |
| 2025-09-12T10:01:00 | 58.091837 | 10.208314 | 2.0 | 16.475 | 2 | 42.709 | 16.653 | 33.380 | 2 |
| 2025-09-12T10:02:00 | 58.090519 | 10.204615 | 2.0 | 16.480 | 2 | 42.698 | 16.654 | 33.369 | 2 |
| 2025-09-12T10:03:00 | 58.089207 | 10.200940 | 2.0 | 16.490 | 2 | 42.652 | 16.659 | 33.325 | 2 |
| 2025-09-12T10:04:00 | 58.087939 | 10.197333 | 2.0 | 16.501 | 2 | 42.791 | 16.669 | 33.438 | 2 |
| 2025-09-12T10:05:00 | 58.086634 | 10.193717 | 2.0 | 16.511 | 2 | 42.689 | 16.679 | 33.341 | 2 |
| 2025-09-12T10:06:00 | 58.085326 | 10.190037 | 2.0 | 16.522 | 2 | 42.642 | 16.689 | 33.291 | 2 |
| 2025-09-12T10:07:00 | 58.084018 | 10.186386 | 2.0 | 16.527 | 2 | 42.698 | 16.698 | 33.333 | 2 |
| 2025-09-12T10:08:00 | 58.082717 | 10.182759 | 2.0 | 16.525 | 2 | 42.692 | 16.702 | 33.324 | 2 |
| 2025-09-12T10:09:00 | 58.081445 | 10.179188 | 2.0 | 16.525 | 2 | 42.551 | 16.700 | 33.203 | 2 |
| 2025-09-12T10:10:00 | 58.080158 | 10.175587 | 2.0 | 16.517 | 2 | 42.695 | 16.701 | 33.328 | 2 |
| 2025-09-12T10:11:00 | 58.078842 | 10.171959 | 2.0 | 16.517 | 2 | 42.661 | 16.691 | 33.306 | 2 |
| 2025-09-12T10:12:00 | 58.077534 | 10.168312 | 2.0 | 16.604 | 2 | 42.657 | 16.700 | 33.295 | 2 |
| 2025-09-12T10:13:00 | 58.076233 | 10.164598 | 2.0 | 16.815 | 2 | 42.958 | 16.820 | 33.458 | 2 |
| 2025-09-12T10:14:00 | 58.074989 | 10.161041 | 2.0 | 16.827 | 2 | 43.183 | 16.978 | 33.522 | 2 |
| 2025-09-12T10:15:00 | 58.073667 | 10.157482 | 2.0 | 16.785 | 2 | 43.286 | 16.985 | 33.605 | 2 |
| 2025-09-12T10:16:00 | 58.072365 | 10.153887 | 2.0 | 16.787 | 2 | 43.266 | 16.958 | 33.610 | 2 |
| 2025-09-12T10:17:00 | 58.071049 | 10.150286 | 2.0 | 16.773 | 2 | 43.310 | 16.956 | 33.650 | 2 |
| 2025-09-12T10:18:00 | 58.069778 | 10.146677 | 2.0 | 16.757 | 2 | 43.326 | 16.943 | 33.675 | 2 |
| 2025-09-12T10:19:00 | 58.068511 | 10.143121 | 2.0 | 16.742 | 2 | 43.320 | 16.928 | 33.682 | 2 |
| 2025-09-12T10:20:00 | 58.067233 | 10.139580 | 2.0 | 16.735 | 2 | 43.395 | 16.915 | 33.759 | 2 |
| 2025-09-12T10:21:00 | 58.065960 | 10.136044 | 2.0 | 16.654 | 2 | 43.410 | 16.898 | 33.786 | 2 |
| 2025-09-12T10:22:00 | 58.064651 | 10.132511 | 2.0 | 16.633 | 2 | 43.327 | 16.831 | 33.770 | 2 |
| 2025-09-12T10:23:00 | 58.063357 | 10.128916 | 2.0 | 16.611 | 2 | 43.305 | 16.805 | 33.773 | 2 |
| 2025-09-12T10:24:00 | 58.062106 | 10.125331 | 2.0 | 16.621 | 2 | 43.271 | 16.790 | 33.756 | 2 |
| 2025-09-12T10:25:00 | 58.060872 | 10.121876 | 2.0 | 16.659 | 2 | 43.304 | 16.801 | 33.775 | 2 |
| 2025-09-12T10:26:00 | 58.059611 | 10.118457 | 2.0 | 16.683 | 2 | 43.333 | 16.834 | 33.773 | 2 |
| 2025-09-12T10:27:00 | 58.058404 | 10.115058 | 2.0 | 16.710 | 2 | 43.341 | 16.858 | 33.759 | 2 |
| 2025-09-12T10:28:00 | 58.057148 | 10.111617 | 2.0 | 16.724 | 2 | 43.387 | 16.885 | 33.777 | 2 |
| 2025-09-12T10:29:00 | 58.055906 | 10.108125 | 2.0 | 16.729 | 2 | 43.380 | 16.896 | 33.761 | 2 |
| 2025-09-12T10:30:00 | 58.054667 | 10.104636 | 2.0 | 16.732 | 2 | 43.384 | 16.900 | 33.762 | 2 |
| 2025-09-12T10:31:00 | 58.053427 | 10.101169 | 2.0 | 16.735 | 2 | 43.387 | 16.905 | 33.760 | 2 |
| 2025-09-12T10:32:00 | 58.052172 | 10.097652 | 2.0 | 16.739 | 2 | 43.360 | 16.907 | 33.735 | 2 |
| 2025-09-12T10:33:00 | 58.050905 | 10.094115 | 2.0 | 16.741 | 2 | 43.370 | 16.911 | 33.740 | 2 |
| 2025-09-12T10:34:00 | 58.049676 | 10.090638 | 2.0 | 16.741 | 2 | 43.390 | 16.913 | 33.756 | 2 |
| 2025-09-12T10:35:00 | 58.048428 | 10.087157 | 2.0 | 16.743 | 2 | 43.376 | 16.912 | 33.744 | 2 |
| 2025-09-12T10:36:00 | 58.047183 | 10.083700 | 2.0 | 16.753 | 2 | 43.388 | 16.915 | 33.752 | 2 |
| 2025-09-12T10:37:00 | 58.045917 | 10.080216 | 2.0 | 16.766 | 2 | 43.396 | 16.927 | 33.749 | 2 |
| 2025-09-12T10:38:00 | 58.044659 | 10.076701 | 2.0 | 16.770 | 2 | 43.397 | 16.938 | 33.741 | 2 |
| 2025-09-12T10:39:00 | 58.043445 | 10.073243 | 2.0 | 16.770 | 2 | 43.402 | 16.940 | 33.744 | 2 |
| 2025-09-12T10:40:00 | 58.042199 | 10.069842 | 2.0 | 16.770 | 2 | 43.405 | 16.940 | 33.746 | 2 |
| 2025-09-12T10:41:00 | 58.040994 | 10.066444 | 2.0 | 16.777 | 2 | 43.404 | 16.942 | 33.744 | 2 |
| 2025-09-12T10:42:00 | 58.039795 | 10.063063 | 2.0 | 16.779 | 2 | 43.406 | 16.947 | 33.741 | 2 |
| 2025-09-12T10:43:00 | 58.038583 | 10.059614 | 2.0 | 16.779 | 2 | 43.406 | 16.949 | 33.740 | 2 |
| 2025-09-12T10:44:00 | 58.037378 | 10.056196 | 2.0 | 16.775 | 2 | 43.404 | 16.949 | 33.738 | 2 |
| 2025-09-12T10:45:00 | 58.036125 | 10.052752 | 2.0 | 16.772 | 2 | 43.400 | 16.946 | 33.737 | 2 |
| 2025-09-12T10:46:00 | 58.034871 | 10.049253 | 2.0 | 16.762 | 2 | 43.397 | 16.940 | 33.739 | 2 |
| 2025-09-12T10:47:00 | 58.033627 | 10.045748 | 2.0 | 16.748 | 2 | 43.390 | 16.930 | 33.742 | 2 |
| 2025-09-12T10:48:00 | 58.032366 | 10.042281 | 2.0 | 16.736 | 2 | 43.386 | 16.918 | 33.748 | 2 |
| 2025-09-12T10:49:00 | 58.031131 | 10.038791 | 2.0 | 16.725 | 2 | 43.378 | 16.905 | 33.752 | 2 |
| 2025-09-12T10:50:00 | 58.029878 | 10.035335 | 2.0 | 16.716 | 2 | 43.369 | 16.895 | 33.753 | 2 |
| 2025-09-12T10:51:00 | 58.028644 | 10.031852 | 2.0 | 16.707 | 2 | 43.359 | 16.886 | 33.752 | 2 |
| 2025-09-12T10:52:00 | 58.027422 | 10.028397 | 2.0 | 16.699 | 2 | 43.353 | 16.876 | 33.755 | 2 |
| 2025-09-12T10:53:00 | 58.026222 | 10.024993 | 2.0 | 16.690 | 2 | 43.349 | 16.868 | 33.758 | 2 |
| 2025-09-12T10:54:00 | 58.024971 | 10.021596 | 2.0 | 16.685 | 2 | 43.343 | 16.859 | 33.760 | 2 |
| 2025-09-12T10:55:00 | 58.023750 | 10.018145 | 2.0 | 16.678 | 2 | 43.342 | 16.855 | 33.763 | 2 |
| 2025-09-12T10:56:00 | 58.022555 | 10.014796 | 2.0 | 16.664 | 2 | 43.340 | 16.846 | 33.769 | 2 |
| 2025-09-12T10:57:00 | 58.021371 | 10.011462 | 2.0 | 16.657 | 2 | 43.339 | 16.834 | 33.778 | 2 |
| 2025-09-12T10:58:00 | 58.020133 | 10.008108 | 2.0 | 16.640 | 2 | 43.340 | 16.824 | 33.787 | 2 |
| 2025-09-12T10:59:00 | 58.018929 | 10.004663 | 2.0 | 16.624 | 2 | 43.341 | 16.808 | 33.801 | 2 |
| 2025-09-12T11:00:00 | 58.017730 | 10.001295 | 2.0 | 16.614 | 2 | 43.347 | 16.794 | 33.819 | 2 |
| 2025-09-12T11:01:00 | 58.016537 | 9.997958 | 2.0 | 16.595 | 2 | 43.347 | 16.783 | 33.828 | 2 |
| 2025-09-12T11:02:00 | 58.015370 | 9.994643 | 2.0 | 16.583 | 2 | 43.339 | 16.765 | 33.836 | 2 |
| 2025-09-12T11:03:00 | 58.014190 | 9.991306 | 2.0 | 16.577 | 2 | 43.331 | 16.754 | 33.838 | 2 |
| 2025-09-12T11:04:00 | 58.013043 | 9.987880 | 2.0 | 16.574 | 2 | 43.323 | 16.748 | 33.836 | 2 |
| 2025-09-12T11:05:00 | 58.011907 | 9.984533 | 2.0 | 16.567 | 2 | 43.239 | 16.744 | 33.766 | 2 |
| 2025-09-12T11:06:00 | 58.010728 | 9.981196 | 2.0 | 16.552 | 2 | 43.257 | 16.737 | 33.788 | 2 |
| 2025-09-12T11:07:00 | 58.009571 | 9.977810 | 2.0 | 16.536 | 2 | 43.222 | 16.721 | 33.771 | 2 |
| 2025-09-12T11:08:00 | 58.008409 | 9.974432 | 2.0 | 16.512 | 2 | 43.148 | 16.704 | 33.721 | 2 |
| 2025-09-12T11:09:00 | 58.007236 | 9.971034 | 2.0 | 16.505 | 2 | 43.146 | 16.682 | 33.737 | 2 |
| 2025-09-12T11:10:00 | 58.006067 | 9.967619 | 2.0 | 16.509 | 2 | 43.190 | 16.678 | 33.779 | 2 |
| 2025-09-12T11:11:00 | 58.004890 | 9.964143 | 2.0 | 16.526 | 2 | 43.129 | 16.682 | 33.722 | 2 |
| 2025-09-12T11:12:00 | 58.003702 | 9.960723 | 2.0 | 16.548 | 2 | 43.149 | 16.701 | 33.724 | 2 |
| 2025-09-12T11:13:00 | 58.002515 | 9.957316 | 2.0 | 16.557 | 2 | 43.184 | 16.720 | 33.739 | 2 |
| 2025-09-12T11:14:00 | 58.001359 | 9.953927 | 2.0 | 16.562 | 2 | 43.184 | 16.728 | 33.732 | 2 |
| 2025-09-12T11:15:00 | 58.000177 | 9.950480 | 2.0 | 16.564 | 2 | 43.170 | 16.731 | 33.717 | 2 |
| 2025-09-12T11:16:00 | 57.999002 | 9.947050 | 2.0 | 16.559 | 2 | 43.216 | 16.732 | 33.756 | 2 |
| 2025-09-12T11:17:00 | 57.997856 | 9.943645 | 2.0 | 16.557 | 2 | 43.195 | 16.728 | 33.741 | 2 |
| 2025-09-12T11:18:00 | 57.996686 | 9.940280 | 2.0 | 16.552 | 2 | 43.214 | 16.725 | 33.761 | 2 |
| 2025-09-12T11:19:00 | 57.995507 | 9.936874 | 2.0 | 16.545 | 2 | 43.206 | 16.720 | 33.758 | 2 |
| 2025-09-12T11:20:00 | 57.994327 | 9.933470 | 2.0 | 16.540 | 2 | 43.220 | 16.714 | 33.775 | 2 |
| 2025-09-12T11:21:00 | 57.993149 | 9.930060 | 2.0 | 16.551 | 2 | 43.232 | 16.711 | 33.788 | 2 |
| 2025-09-12T11:22:00 | 57.991971 | 9.926638 | 2.0 | 16.572 | 2 | 43.265 | 16.723 | 33.807 | 2 |
| 2025-09-12T11:23:00 | 57.990802 | 9.923217 | 2.0 | 16.587 | 2 | 43.248 | 16.744 | 33.774 | 2 |
| 2025-09-12T11:24:00 | 57.989646 | 9.919812 | 2.0 | 16.600 | 2 | 43.283 | 16.756 | 33.795 | 2 |
| 2025-09-12T11:25:00 | 57.988454 | 9.916455 | 2.0 | 16.639 | 2 | 43.294 | 16.776 | 33.787 | 2 |
| 2025-09-12T11:26:00 | 57.987286 | 9.913077 | 2.0 | 16.662 | 2 | 43.309 | 16.810 | 33.772 | 2 |
| 2025-09-12T11:27:00 | 57.986130 | 9.909664 | 2.0 | 16.674 | 2 | 43.324 | 16.831 | 33.767 | 2 |
| 2025-09-12T11:28:00 | 57.984971 | 9.906327 | 2.0 | 16.680 | 2 | 43.318 | 16.840 | 33.754 | 2 |
| 2025-09-12T11:29:00 | 57.983796 | 9.902948 | 2.0 | 16.684 | 2 | 43.326 | 16.847 | 33.756 | 2 |
| 2025-09-12T11:30:00 | 57.982650 | 9.899586 | 2.0 | 16.698 | 2 | 43.335 | 16.854 | 33.758 | 2 |
| 2025-09-12T11:31:00 | 57.981470 | 9.896191 | 2.0 | 16.713 | 2 | 43.348 | 16.867 | 33.758 | 2 |
| 2025-09-12T11:32:00 | 57.980303 | 9.892732 | 2.0 | 16.733 | 2 | 43.371 | 16.885 | 33.763 | 2 |
| 2025-09-12T11:33:00 | 57.979134 | 9.889385 | 2.0 | 16.735 | 2 | 43.367 | 16.899 | 33.748 | 2 |
| 2025-09-12T11:34:00 | 57.977913 | 9.885959 | 2.0 | 16.722 | 2 | 43.391 | 16.898 | 33.769 | 2 |
| 2025-09-12T11:35:00 | 57.976731 | 9.882512 | 2.0 | 16.717 | 2 | 43.399 | 16.890 | 33.783 | 2 |
| 2025-09-12T11:36:00 | 57.975564 | 9.879103 | 2.0 | 16.708 | 2 | 43.388 | 16.883 | 33.779 | 2 |
| 2025-09-12T11:37:00 | 57.974350 | 9.875687 | 2.0 | 16.699 | 2 | 43.380 | 16.875 | 33.779 | 2 |
| 2025-09-12T11:38:00 | 57.973133 | 9.872251 | 2.0 | 16.690 | 2 | 43.375 | 16.866 | 33.782 | 2 |
| 2025-09-12T11:39:00 | 57.971905 | 9.868833 | 2.0 | 16.684 | 2 | 43.373 | 16.858 | 33.787 | 2 |
| 2025-09-12T11:40:00 | 57.970643 | 9.865398 | 2.0 | 16.676 | 2 | 43.359 | 16.852 | 33.780 | 2 |
| 2025-09-12T11:41:00 | 57.969385 | 9.861901 | 2.0 | 16.673 | 2 | 43.348 | 16.845 | 33.776 | 2 |
| 2025-09-12T11:42:00 | 57.968138 | 9.858442 | 2.0 | 16.677 | 2 | 43.321 | 16.842 | 33.755 | 2 |
| 2025-09-12T11:43:00 | 57.966904 | 9.854973 | 2.0 | 16.679 | 2 | 43.323 | 16.847 | 33.753 | 2 |
| 2025-09-12T11:44:00 | 57.965674 | 9.851538 | 2.0 | 16.677 | 2 | 43.322 | 16.845 | 33.754 | 2 |
| 2025-09-12T11:45:00 | 57.964426 | 9.848079 | 2.0 | 16.680 | 2 | 43.316 | 16.846 | 33.748 | 2 |
| 2025-09-12T11:46:00 | 57.963197 | 9.844624 | 2.0 | 16.677 | 2 | 43.311 | 16.848 | 33.742 | 2 |
| 2025-09-12T11:47:00 | 57.961993 | 9.841249 | 2.0 | 16.673 | 2 | 43.295 | 16.844 | 33.731 | 2 |
| 2025-09-12T11:48:00 | 57.960762 | 9.837884 | 2.0 | 16.662 | 2 | 43.242 | 16.841 | 33.687 | 2 |
| 2025-09-12T11:49:00 | 57.959494 | 9.834354 | 2.0 | 16.642 | 2 | 43.186 | 16.829 | 33.649 | 2 |
| 2025-09-12T11:50:00 | 57.958215 | 9.830763 | 2.0 | 16.623 | 2 | 43.128 | 16.808 | 33.616 | 2 |
| 2025-09-12T11:51:00 | 57.956943 | 9.827275 | 2.0 | 16.608 | 2 | 43.081 | 16.790 | 33.590 | 2 |
| 2025-09-12T11:52:00 | 57.955689 | 9.823748 | 2.0 | 16.616 | 2 | 43.061 | 16.779 | 33.582 | 2 |
| 2025-09-12T11:53:00 | 57.954445 | 9.820246 | 2.0 | 16.648 | 2 | 43.084 | 16.788 | 33.594 | 2 |
| 2025-09-12T11:54:00 | 57.953197 | 9.816710 | 2.0 | 16.655 | 2 | 43.085 | 16.814 | 33.573 | 2 |
| 2025-09-12T11:55:00 | 57.951921 | 9.813220 | 2.0 | 16.657 | 2 | 43.145 | 16.822 | 33.619 | 2 |
| 2025-09-12T11:56:00 | 57.950713 | 9.809693 | 2.0 | 16.666 | 2 | 43.079 | 16.825 | 33.559 | 2 |
| 2025-09-12T11:57:00 | 57.949531 | 9.806210 | 2.0 | 16.669 | 2 | 43.121 | 16.834 | 33.588 | 2 |
| 2025-09-12T11:58:00 | 57.948304 | 9.802679 | 2.0 | 16.670 | 2 | 43.180 | 16.837 | 33.637 | 2 |
| 2025-09-12T11:59:00 | 57.947132 | 9.799211 | 2.0 | 16.663 | 2 | 43.177 | 16.835 | 33.636 | 2 |
| 2025-09-12T12:00:00 | 57.945926 | 9.795752 | 2.0 | 16.661 | 2 | 43.159 | 16.831 | 33.624 | 2 |
| 2025-09-12T12:01:00 | 57.944709 | 9.792259 | 2.0 | 16.659 | 2 | 43.185 | 16.830 | 33.647 | 2 |
| 2025-09-12T12:02:00 | 57.943509 | 9.788738 | 2.0 | 16.638 | 2 | 43.149 | 16.822 | 33.622 | 2 |
| 2025-09-12T12:03:00 | 57.942316 | 9.785234 | 2.0 | 16.612 | 2 | 43.153 | 16.802 | 33.643 | 2 |
| 2025-09-12T12:04:00 | 57.941103 | 9.781731 | 2.0 | 16.594 | 2 | 43.155 | 16.778 | 33.664 | 2 |
| 2025-09-12T12:05:00 | 57.939876 | 9.778210 | 2.0 | 16.591 | 2 | 43.132 | 16.762 | 33.658 | 2 |
| 2025-09-12T12:06:00 | 57.938636 | 9.774662 | 2.0 | 16.592 | 2 | 43.181 | 16.761 | 33.701 | 2 |
| 2025-09-12T12:07:00 | 57.937381 | 9.771089 | 2.0 | 16.582 | 2 | 43.182 | 16.758 | 33.705 | 2 |
| 2025-09-12T12:08:00 | 57.936164 | 9.767445 | 2.0 | 16.582 | 2 | 43.163 | 16.749 | 33.696 | 2 |
| 2025-09-12T12:09:00 | 57.934912 | 9.763845 | 2.0 | 16.575 | 2 | 43.175 | 16.745 | 33.710 | 2 |
| 2025-09-12T12:10:00 | 57.933656 | 9.760284 | 2.0 | 16.579 | 2 | 43.179 | 16.742 | 33.716 | 2 |
| 2025-09-12T12:11:00 | 57.932458 | 9.756780 | 2.0 | 16.567 | 2 | 43.191 | 16.745 | 33.724 | 2 |
| 2025-09-12T12:12:00 | 57.931302 | 9.753341 | 2.0 | 16.550 | 2 | 43.191 | 16.733 | 33.734 | 2 |
| 2025-09-12T12:13:00 | 57.930067 | 9.749884 | 2.0 | 16.523 | 2 | 42.949 | 16.710 | 33.542 | 2 |
| 2025-09-12T12:14:00 | 57.928834 | 9.746355 | 2.0 | 16.523 | 2 | 43.078 | 16.693 | 33.669 | 2 |
| 2025-09-12T12:15:00 | 57.927645 | 9.742830 | 2.0 | 16.518 | 2 | 43.137 | 16.691 | 33.722 | 2 |
| 2025-09-12T12:16:00 | 57.926422 | 9.739297 | 2.0 | 16.522 | 2 | 42.996 | 16.686 | 33.603 | 2 |
| 2025-09-12T12:17:00 | 57.925208 | 9.735859 | 2.0 | 16.528 | 2 | 43.069 | 16.690 | 33.663 | 2 |
| 2025-09-12T12:18:00 | 57.924015 | 9.732364 | 2.0 | 16.520 | 2 | 42.785 | 16.695 | 33.411 | 2 |
| 2025-09-12T12:19:00 | 57.922783 | 9.728853 | 2.0 | 16.519 | 2 | 42.792 | 16.689 | 33.422 | 2 |
| 2025-09-12T12:20:00 | 57.921566 | 9.725365 | 2.0 | 16.520 | 2 | 43.218 | 16.687 | 33.796 | 2 |
| 2025-09-12T12:21:00 | 57.920369 | 9.721832 | 2.0 | 16.540 | 2 | 43.219 | 16.690 | 33.794 | 2 |
| 2025-09-12T12:22:00 | 57.919159 | 9.718339 | 2.0 | 16.541 | 2 | 42.727 | 16.709 | 33.349 | 2 |
| 2025-09-12T12:23:00 | 57.917932 | 9.714820 | 2.0 | 16.541 | 2 | 43.038 | 16.710 | 33.619 | 2 |
| 2025-09-12T12:24:00 | 57.916703 | 9.711254 | 2.0 | 16.522 | 2 | 42.947 | 16.705 | 33.544 | 2 |
| 2025-09-12T12:25:00 | 57.915542 | 9.707849 | 2.0 | 16.512 | 2 | 43.184 | 16.689 | 33.765 | 2 |
| 2025-09-12T12:26:00 | 57.914343 | 9.704418 | 2.0 | 16.511 | 2 | 42.434 | 16.679 | 33.118 | 2 |
| 2025-09-12T12:27:00 | 57.913154 | 9.700981 | 2.0 | 16.501 | 2 | 42.520 | 16.677 | 33.195 | 2 |
| 2025-09-12T12:28:00 | 57.911974 | 9.697544 | 2.0 | 16.501 | 2 | 42.717 | 16.668 | 33.374 | 2 |
| 2025-09-12T12:29:00 | 57.910765 | 9.694070 | 2.0 | 16.499 | 2 | 43.168 | 16.668 | 33.768 | 2 |
| 2025-09-12T12:30:00 | 57.909570 | 9.690626 | 2.0 | 16.498 | 2 | 43.166 | 16.666 | 33.768 | 2 |
| 2025-09-12T12:31:00 | 57.908389 | 9.687170 | 2.0 | 16.504 | 2 | 43.164 | 16.666 | 33.767 | 2 |
| 2025-09-12T12:32:00 | 57.907173 | 9.683710 | 2.0 | 16.505 | 2 | 43.165 | 16.672 | 33.762 | 2 |
| 2025-09-12T12:33:00 | 57.905980 | 9.680215 | 2.0 | 16.519 | 2 | 43.163 | 16.674 | 33.759 | 2 |
| 2025-09-12T12:34:00 | 57.904800 | 9.676713 | 2.0 | 16.512 | 2 | 43.164 | 16.683 | 33.752 | 2 |
| 2025-09-12T12:35:00 | 57.903556 | 9.673195 | 2.0 | 16.509 | 2 | 43.162 | 16.679 | 33.754 | 2 |
| 2025-09-12T12:36:00 | 57.902318 | 9.669635 | 2.0 | 16.512 | 2 | 43.146 | 16.676 | 33.742 | 2 |
| 2025-09-12T12:37:00 | 57.901083 | 9.666063 | 2.0 | 16.508 | 2 | 43.166 | 16.678 | 33.758 | 2 |
| 2025-09-12T12:38:00 | 57.899853 | 9.662466 | 2.0 | 16.520 | 2 | 43.165 | 16.679 | 33.756 | 2 |
| 2025-09-12T12:39:00 | 57.898638 | 9.658920 | 2.0 | 16.520 | 2 | 43.167 | 16.686 | 33.752 | 2 |
| 2025-09-12T12:40:00 | 57.897414 | 9.655387 | 2.0 | 16.518 | 2 | 43.169 | 16.687 | 33.753 | 2 |
| 2025-09-12T12:41:00 | 57.896183 | 9.651829 | 2.0 | 16.516 | 2 | 43.167 | 16.683 | 33.755 | 2 |
| 2025-09-12T12:42:00 | 57.894951 | 9.648231 | 2.0 | 16.531 | 2 | 43.154 | 16.685 | 33.742 | 2 |
| 2025-09-12T12:43:00 | 57.893687 | 9.644629 | 2.0 | 16.536 | 2 | 43.169 | 16.696 | 33.746 | 2 |
| 2025-09-12T12:44:00 | 57.892445 | 9.641010 | 2.0 | 16.548 | 2 | 42.739 | 16.702 | 33.365 | 2 |
| 2025-09-12T12:45:00 | 57.891196 | 9.637396 | 2.0 | 16.561 | 2 | 43.118 | 16.717 | 33.683 | 2 |
| 2025-09-12T12:46:00 | 57.889987 | 9.633864 | 2.0 | 16.565 | 2 | 42.637 | 16.727 | 33.255 | 2 |
| 2025-09-12T12:47:00 | 57.888764 | 9.630347 | 2.0 | 16.570 | 2 | 42.863 | 16.730 | 33.450 | 2 |
| 2025-09-12T12:48:00 | 57.887564 | 9.626824 | 2.0 | 16.581 | 2 | 43.190 | 16.739 | 33.728 | 2 |
| 2025-09-12T12:49:00 | 57.886318 | 9.623272 | 2.0 | 16.605 | 2 | 43.048 | 16.748 | 33.596 | 2 |
| 2025-09-12T12:50:00 | 57.885066 | 9.619671 | 2.0 | 16.620 | 2 | 43.208 | 16.772 | 33.716 | 2 |
| 2025-09-12T12:51:00 | 57.883815 | 9.616054 | 2.0 | 16.615 | 2 | 43.103 | 16.784 | 33.614 | 2 |
| 2025-09-12T12:52:00 | 57.882607 | 9.612504 | 2.0 | 16.615 | 2 | 43.212 | 16.780 | 33.713 | 2 |
| 2025-09-12T12:53:00 | 57.881388 | 9.608953 | 2.0 | 16.627 | 2 | 43.055 | 16.779 | 33.576 | 2 |
| 2025-09-12T12:54:00 | 57.880163 | 9.605382 | 2.0 | 16.636 | 2 | 43.030 | 16.796 | 33.540 | 2 |
| 2025-09-12T12:55:00 | 57.878943 | 9.601863 | 2.0 | 16.624 | 2 | 43.063 | 16.799 | 33.567 | 2 |
| 2025-09-12T12:56:00 | 57.877699 | 9.598259 | 2.0 | 16.617 | 2 | 43.014 | 16.787 | 33.534 | 2 |
| 2025-09-12T12:57:00 | 57.876478 | 9.594753 | 2.0 | 16.618 | 2 | 43.188 | 16.783 | 33.689 | 2 |
| 2025-09-12T12:58:00 | 57.875319 | 9.591278 | 2.0 | 16.619 | 2 | 43.048 | 16.784 | 33.566 | 2 |
| 2025-09-12T12:59:00 | 57.874094 | 9.587756 | 2.0 | 16.611 | 2 | 43.039 | 16.783 | 33.559 | 2 |
| 2025-09-12T13:00:00 | 57.872868 | 9.584273 | 2.0 | 16.600 | 2 | 43.045 | 16.775 | 33.571 | 2 |
| 2025-09-12T13:01:00 | 57.871648 | 9.580716 | 2.0 | 16.575 | 2 | 43.118 | 16.763 | 33.645 | 2 |
| 2025-09-12T13:02:00 | 57.870397 | 9.577086 | 2.0 | 16.552 | 2 | 43.208 | 16.740 | 33.743 | 2 |
| 2025-09-12T13:03:00 | 57.869159 | 9.573446 | 2.0 | 16.526 | 2 | 43.204 | 16.717 | 33.759 | 2 |
| 2025-09-12T13:04:00 | 57.867906 | 9.569860 | 2.0 | 16.485 | 2 | 42.964 | 16.688 | 33.573 | 2 |
| 2025-09-12T13:05:00 | 57.866664 | 9.566309 | 2.0 | 16.436 | 2 | 43.119 | 16.643 | 33.747 | 2 |
| 2025-09-12T13:06:00 | 57.865422 | 9.562778 | 2.0 | 16.399 | 2 | 43.021 | 16.600 | 33.697 | 2 |
| 2025-09-12T13:07:00 | 57.864197 | 9.559241 | 2.0 | 16.383 | 2 | 43.007 | 16.570 | 33.710 | 2 |
| 2025-09-12T13:08:00 | 57.862978 | 9.555773 | 2.0 | 16.378 | 2 | 43.140 | 16.547 | 33.846 | 2 |
| 2025-09-12T13:09:00 | 57.861754 | 9.552181 | 2.0 | 16.395 | 2 | 43.128 | 16.551 | 33.832 | 2 |
| 2025-09-12T13:10:00 | 57.860602 | 9.548674 | 2.0 | 16.395 | 2 | 43.071 | 16.562 | 33.773 | 2 |
| 2025-09-12T13:11:00 | 57.859355 | 9.545150 | 2.0 | 16.388 | 2 | 43.072 | 16.561 | 33.775 | 2 |
| 2025-09-12T13:12:00 | 57.858123 | 9.541550 | 2.0 | 16.404 | 2 | 43.094 | 16.557 | 33.797 | 2 |
| 2025-09-12T13:13:00 | 57.856890 | 9.537980 | 2.0 | 16.426 | 2 | 43.131 | 16.575 | 33.815 | 2 |
| 2025-09-12T13:14:00 | 57.855616 | 9.534422 | 2.0 | 16.419 | 2 | 43.167 | 16.591 | 33.833 | 2 |
| 2025-09-12T13:15:00 | 57.854406 | 9.530879 | 2.0 | 16.423 | 2 | 43.108 | 16.585 | 33.786 | 2 |
| 2025-09-12T13:16:00 | 57.853183 | 9.527392 | 2.0 | 16.434 | 2 | 43.126 | 16.591 | 33.797 | 2 |
| 2025-09-12T13:17:00 | 57.851972 | 9.523894 | 2.0 | 16.435 | 2 | 43.182 | 16.600 | 33.838 | 2 |
| 2025-09-12T13:18:00 | 57.850716 | 9.520309 | 2.0 | 16.441 | 2 | 43.213 | 16.601 | 33.864 | 2 |
| 2025-09-12T13:19:00 | 57.849483 | 9.516775 | 2.0 | 16.460 | 2 | 43.264 | 16.612 | 33.900 | 2 |
| 2025-09-12T13:20:00 | 57.848257 | 9.513193 | 2.0 | 16.462 | 2 | 43.311 | 16.625 | 33.930 | 2 |
| 2025-09-12T13:21:00 | 57.847021 | 9.509671 | 2.0 | 16.456 | 2 | 43.340 | 16.627 | 33.954 | 2 |
| 2025-09-12T13:22:00 | 57.845792 | 9.506142 | 2.0 | 16.447 | 2 | 43.303 | 16.620 | 33.927 | 2 |
| 2025-09-12T13:23:00 | 57.844555 | 9.502568 | 2.0 | 16.433 | 2 | 43.309 | 16.612 | 33.939 | 2 |
| 2025-09-12T13:24:00 | 57.843348 | 9.499031 | 2.0 | 16.428 | 2 | 43.291 | 16.598 | 33.935 | 2 |
| 2025-09-12T13:25:00 | 57.842163 | 9.495540 | 2.0 | 16.426 | 2 | 43.282 | 16.594 | 33.931 | 2 |
| 2025-09-12T13:26:00 | 57.840982 | 9.492085 | 2.0 | 16.426 | 2 | 43.295 | 16.591 | 33.945 | 2 |
| 2025-09-12T13:27:00 | 57.839813 | 9.488711 | 2.0 | 16.425 | 2 | 43.297 | 16.591 | 33.947 | 2 |
| 2025-09-12T13:28:00 | 57.838623 | 9.485294 | 2.0 | 16.427 | 2 | 43.322 | 16.591 | 33.968 | 2 |
| 2025-09-12T13:29:00 | 57.837437 | 9.481887 | 2.0 | 16.433 | 2 | 43.323 | 16.593 | 33.968 | 2 |
| 2025-09-12T13:30:00 | 57.836276 | 9.478548 | 2.0 | 16.445 | 2 | 43.369 | 16.602 | 34.000 | 2 |
| 2025-09-12T13:31:00 | 57.835127 | 9.475204 | 2.0 | 16.445 | 2 | 43.377 | 16.610 | 34.001 | 2 |
| 2025-09-12T13:32:00 | 57.833964 | 9.471879 | 2.0 | 16.459 | 2 | 43.386 | 16.612 | 34.007 | 2 |
| 2025-09-12T13:33:00 | 57.832844 | 9.468558 | 2.0 | 16.481 | 2 | 43.433 | 16.628 | 34.034 | 2 |
| 2025-09-12T13:34:00 | 57.831675 | 9.465251 | 2.0 | 16.501 | 2 | 43.474 | 16.647 | 34.054 | 2 |
| 2025-09-12T13:35:00 | 57.830503 | 9.461870 | 2.0 | 16.512 | 2 | 43.528 | 16.666 | 34.085 | 2 |
| 2025-09-12T13:36:00 | 57.829349 | 9.458538 | 2.0 | 16.520 | 2 | 43.551 | 16.679 | 34.094 | 2 |
| 2025-09-12T13:37:00 | 57.828181 | 9.455300 | 2.0 | 16.533 | 2 | 43.568 | 16.688 | 34.102 | 2 |
| 2025-09-12T13:38:00 | 57.827015 | 9.452129 | 2.0 | 16.528 | 2 | 43.586 | 16.697 | 34.110 | 2 |
| 2025-09-12T13:39:00 | 57.825874 | 9.448878 | 2.0 | 16.537 | 2 | 43.558 | 16.695 | 34.087 | 2 |
| 2025-09-12T13:40:00 | 57.824693 | 9.445660 | 2.0 | 16.547 | 2 | 43.416 | 16.703 | 33.956 | 2 |
| 2025-09-12T13:41:00 | 57.823529 | 9.442381 | 2.0 | 16.557 | 2 | 43.552 | 16.713 | 34.066 | 2 |
| 2025-09-12T13:42:00 | 57.822327 | 9.439045 | 2.0 | 16.571 | 2 | 43.614 | 16.725 | 34.110 | 2 |
| 2025-09-12T13:43:00 | 57.821119 | 9.435701 | 2.0 | 16.573 | 2 | 43.639 | 16.736 | 34.123 | 2 |
| 2025-09-12T13:44:00 | 57.819887 | 9.432353 | 2.0 | 16.578 | 2 | 43.550 | 16.740 | 34.042 | 2 |
| 2025-09-12T13:45:00 | 57.818695 | 9.428975 | 2.0 | 16.589 | 2 | 43.548 | 16.745 | 34.036 | 2 |
| 2025-09-12T13:46:00 | 57.817475 | 9.425586 | 2.0 | 16.593 | 2 | 43.633 | 16.753 | 34.103 | 2 |
| 2025-09-12T13:47:00 | 57.816260 | 9.422257 | 2.0 | 16.601 | 2 | 43.647 | 16.759 | 34.110 | 2 |
| 2025-09-12T13:48:00 | 57.815090 | 9.419016 | 2.0 | 16.602 | 2 | 43.621 | 16.765 | 34.082 | 2 |
| 2025-09-12T13:49:00 | 57.813954 | 9.415818 | 2.0 | 16.600 | 2 | 43.631 | 16.766 | 34.090 | 2 |
| 2025-09-12T13:50:00 | 57.812781 | 9.412567 | 2.0 | 16.596 | 2 | 43.703 | 16.765 | 34.154 | 2 |
| 2025-09-12T13:51:00 | 57.811583 | 9.409236 | 2.0 | 16.593 | 2 | 43.718 | 16.761 | 34.171 | 2 |
| 2025-09-12T13:52:00 | 57.810344 | 9.405893 | 2.0 | 16.589 | 2 | 43.716 | 16.758 | 34.171 | 2 |
| 2025-09-12T13:53:00 | 57.809172 | 9.402573 | 2.0 | 16.587 | 2 | 43.694 | 16.755 | 34.155 | 2 |
| 2025-09-12T13:54:00 | 57.807973 | 9.399219 | 2.0 | 16.581 | 2 | 43.728 | 16.752 | 34.187 | 2 |
| 2025-09-12T13:55:00 | 57.806726 | 9.395799 | 2.0 | 16.544 | 2 | 43.709 | 16.746 | 34.175 | 2 |
| 2025-09-12T13:56:00 | 57.805459 | 9.392413 | 2.0 | 16.430 | 2 | 43.677 | 16.693 | 34.193 | 2 |
| 2025-09-12T13:57:00 | 57.804219 | 9.389026 | 2.0 | 16.387 | 2 | 43.541 | 16.591 | 34.161 | 2 |
| 2025-09-12T13:58:00 | 57.803007 | 9.385585 | 2.0 | 16.387 | 2 | 43.487 | 16.558 | 34.141 | 2 |
| 2025-09-12T13:59:00 | 57.801772 | 9.382111 | 2.0 | 16.390 | 2 | 43.499 | 16.557 | 34.153 | 2 |
| 2025-09-12T14:00:00 | 57.800532 | 9.378597 | 2.0 | 16.390 | 2 | 43.481 | 16.557 | 34.137 | 2 |
| 2025-09-12T14:01:00 | 57.799277 | 9.375088 | 2.0 | 16.393 | 2 | 43.477 | 16.558 | 34.133 | 2 |
| 2025-09-12T14:02:00 | 57.798058 | 9.371709 | 2.0 | 16.398 | 2 | 43.490 | 16.561 | 34.141 | 2 |
| 2025-09-12T14:03:00 | 57.796824 | 9.368315 | 2.0 | 16.399 | 2 | 43.502 | 16.564 | 34.149 | 2 |
| 2025-09-12T14:04:00 | 57.795566 | 9.364827 | 2.0 | 16.417 | 2 | 43.515 | 16.567 | 34.158 | 2 |
| 2025-09-12T14:05:00 | 57.794328 | 9.361281 | 2.0 | 16.436 | 2 | 43.541 | 16.589 | 34.162 | 2 |
| 2025-09-12T14:06:00 | 57.793047 | 9.357814 | 2.0 | 16.451 | 2 | 43.568 | 16.602 | 34.175 | 2 |
| 2025-09-12T14:07:00 | 57.791790 | 9.354361 | 2.0 | 16.472 | 2 | 43.615 | 16.619 | 34.202 | 2 |
| 2025-09-12T14:08:00 | 57.790570 | 9.350894 | 2.0 | 16.494 | 2 | 43.658 | 16.641 | 34.220 | 2 |
| 2025-09-12T14:09:00 | 57.789419 | 9.347615 | 2.0 | 16.458 | 2 | 43.686 | 16.655 | 34.233 | 2 |
| 2025-09-12T14:10:00 | 57.788277 | 9.344575 | 2.0 | 16.363 | 2 | 43.621 | 16.600 | 34.223 | 2 |
| 2025-09-12T14:11:00 | 57.787140 | 9.341436 | 2.0 | 16.359 | 2 | 43.513 | 16.533 | 34.186 | 2 |
| 2025-09-12T14:12:00 | 57.785967 | 9.338166 | 2.0 | 16.352 | 2 | 43.486 | 16.526 | 34.168 | 2 |
| 2025-09-12T14:13:00 | 57.784764 | 9.334793 | 2.0 | 16.335 | 2 | 43.493 | 16.517 | 34.182 | 2 |
| 2025-09-12T14:14:00 | 57.783565 | 9.331455 | 2.0 | 16.312 | 2 | 43.469 | 16.501 | 34.174 | 2 |
| 2025-09-12T14:15:00 | 57.782353 | 9.328109 | 2.0 | 16.272 | 2 | 43.375 | 16.474 | 34.115 | 2 |
| 2025-09-12T14:16:00 | 57.781143 | 9.324824 | 2.0 | 16.245 | 2 | 42.943 | 16.436 | 33.767 | 2 |
| 2025-09-12T14:17:00 | 57.779939 | 9.321460 | 2.0 | 16.226 | 2 | 43.044 | 16.409 | 33.879 | 2 |
| 2025-09-12T14:18:00 | 57.778763 | 9.318144 | 2.0 | 16.230 | 2 | 43.164 | 16.396 | 33.996 | 2 |
| 2025-09-12T14:19:00 | 57.777595 | 9.314941 | 2.0 | 16.234 | 2 | 43.343 | 16.398 | 34.152 | 2 |
| 2025-09-12T14:20:00 | 57.776398 | 9.311645 | 2.0 | 16.257 | 2 | 43.329 | 16.403 | 34.135 | 2 |
| 2025-09-12T14:21:00 | 57.775216 | 9.308405 | 2.0 | 16.250 | 2 | 43.360 | 16.423 | 34.145 | 2 |
| 2025-09-12T14:22:00 | 57.774032 | 9.305146 | 2.0 | 16.287 | 2 | 43.343 | 16.419 | 34.134 | 2 |
| 2025-09-12T14:23:00 | 57.772875 | 9.301819 | 2.0 | 16.576 | 2 | 43.458 | 16.506 | 34.160 | 2 |
| 2025-09-12T14:24:00 | 57.771654 | 9.298449 | 2.0 | 16.716 | 2 | 43.824 | 16.739 | 34.282 | 2 |
| 2025-09-12T14:25:00 | 57.770472 | 9.295188 | 2.0 | 16.785 | 2 | 43.979 | 16.880 | 34.297 | 2 |
| 2025-09-12T14:26:00 | 57.769336 | 9.291697 | 2.0 | 16.812 | 2 | 43.802 | 16.942 | 34.090 | 2 |
| 2025-09-12T14:27:00 | 57.769043 | 9.287592 | 2.0 | 16.828 | 2 | 43.679 | 16.971 | 33.958 | 2 |
| 2025-09-12T14:28:00 | 57.769751 | 9.283547 | 2.0 | 16.835 | 2 | 43.758 | 16.987 | 34.014 | 2 |
| 2025-09-12T14:29:00 | 57.771648 | 9.280522 | 2.0 | 16.838 | 2 | 43.984 | 16.996 | 34.203 | 2 |
| 2025-09-12T14:30:00 | 57.774063 | 9.278223 | 2.0 | 16.811 | 2 | 43.930 | 16.993 | 34.158 | 2 |
| 2025-09-12T14:31:00 | 57.776524 | 9.275958 | 2.0 | 16.772 | 2 | 43.952 | 16.969 | 34.198 | 2 |
| 2025-09-12T14:32:00 | 57.779038 | 9.273833 | 2.0 | 16.691 | 2 | 44.097 | 16.926 | 34.361 | 2 |
| 2025-09-12T14:33:00 | 57.781562 | 9.271700 | 2.0 | 16.608 | 2 | 43.960 | 16.847 | 34.309 | 2 |
| 2025-09-12T14:34:00 | 57.784253 | 9.269589 | 2.0 | 16.569 | 2 | 43.817 | 16.767 | 34.252 | 2 |
| 2025-09-12T14:35:00 | 57.786825 | 9.267525 | 2.0 | 16.541 | 2 | 43.673 | 16.735 | 34.153 | 2 |
| 2025-09-12T14:36:00 | 57.789396 | 9.265517 | 2.0 | 16.527 | 2 | 43.629 | 16.706 | 34.140 | 2 |
| 2025-09-12T14:37:00 | 57.791977 | 9.263537 | 2.0 | 16.537 | 2 | 43.567 | 16.696 | 34.094 | 2 |
| 2025-09-12T14:38:00 | 57.794544 | 9.261517 | 2.0 | 16.567 | 2 | 43.751 | 16.715 | 34.239 | 2 |
| 2025-09-12T14:39:00 | 57.797144 | 9.259456 | 2.0 | 16.597 | 2 | 43.642 | 16.738 | 34.124 | 2 |
| 2025-09-12T14:40:00 | 57.799608 | 9.257471 | 2.0 | 16.581 | 2 | 43.693 | 16.761 | 34.149 | 2 |
| 2025-09-12T14:41:00 | 57.802168 | 9.255452 | 2.0 | 16.609 | 2 | 43.764 | 16.749 | 34.221 | 2 |
| 2025-09-12T14:42:00 | 57.804428 | 9.253454 | 2.0 | 16.678 | 2 | 43.801 | 16.792 | 34.217 | 2 |
| 2025-09-12T14:43:00 | 57.806322 | 9.251706 | 2.0 | 16.592 | 2 | 43.709 | 16.822 | 34.111 | 2 |
| 2025-09-12T14:44:00 | 57.807783 | 9.250444 | 2.0 | 16.528 | 2 | 43.528 | 16.746 | 34.017 | 2 |
| 2025-09-12T14:45:00 | 57.809047 | 9.249478 | 2.0 | 16.515 | 2 | 43.445 | 16.695 | 33.988 | 2 |
| 2025-09-12T14:46:00 | 57.810195 | 9.248636 | 2.0 | 16.499 | 2 | 43.422 | 16.679 | 33.981 | 2 |
| 2025-09-12T14:47:00 | 57.811282 | 9.247886 | 2.0 | 16.479 | 2 | 43.333 | 16.662 | 33.918 | 2 |
| 2025-09-12T14:48:00 | 57.812300 | 9.247119 | 2.0 | 16.463 | 2 | 43.090 | 16.642 | 33.722 | 2 |
| 2025-09-12T14:49:00 | 57.813267 | 9.246429 | 2.0 | 16.454 | 2 | 43.458 | 16.628 | 34.056 | 2 |
| 2025-09-12T14:50:00 | 57.814147 | 9.245836 | 2.0 | 16.444 | 2 | 42.907 | 16.618 | 33.582 | 2 |
| 2025-09-12T14:51:00 | 57.815037 | 9.245247 | 2.0 | 16.436 | 2 | 42.926 | 16.608 | 33.607 | 2 |
| 2025-09-12T14:52:00 | 57.815888 | 9.244664 | 2.0 | 16.430 | 2 | 43.016 | 16.600 | 33.693 | 2 |
| 2025-09-12T14:53:00 | 57.816769 | 9.244015 | 2.0 | 16.428 | 2 | 43.397 | 16.595 | 34.031 | 2 |
| 2025-09-12T14:54:00 | 57.817670 | 9.243327 | 2.0 | 16.423 | 2 | 43.226 | 16.592 | 33.883 | 2 |
| 2025-09-12T14:55:00 | 57.818566 | 9.242677 | 2.0 | 16.416 | 2 | 43.145 | 16.587 | 33.817 | 2 |
| 2025-09-12T14:56:00 | 57.819439 | 9.242094 | 2.0 | 16.415 | 2 | 43.335 | 16.584 | 33.986 | 2 |
| 2025-09-12T14:57:00 | 57.820303 | 9.241456 | 2.0 | 16.403 | 2 | 43.273 | 16.577 | 33.937 | 2 |
| 2025-09-12T14:58:00 | 57.821178 | 9.240789 | 2.0 | 16.394 | 2 | 43.101 | 16.569 | 33.793 | 2 |
| 2025-09-12T14:59:00 | 57.822054 | 9.240102 | 2.0 | 16.386 | 2 | 43.264 | 16.560 | 33.944 | 2 |
| 2025-09-12T15:00:00 | 57.822943 | 9.239454 | 2.0 | 16.377 | 2 | 42.861 | 16.551 | 33.598 | 2 |
| 2025-09-12T15:01:00 | 57.823801 | 9.238756 | 2.0 | 16.368 | 2 | 42.927 | 16.540 | 33.665 | 2 |
| 2025-09-12T15:02:00 | 57.824637 | 9.238126 | 2.0 | 16.363 | 2 | 43.128 | 16.534 | 33.847 | 2 |
| 2025-09-12T15:03:00 | 57.825426 | 9.237700 | 2.0 | 16.358 | 2 | 43.134 | 16.528 | 33.857 | 2 |
| 2025-09-12T15:04:00 | 57.826175 | 9.237294 | 2.0 | 16.351 | 2 | 43.264 | 16.523 | 33.975 | 2 |
| 2025-09-12T15:05:00 | 57.826929 | 9.236914 | 2.0 | 16.347 | 2 | 43.265 | 16.518 | 33.980 | 2 |
| 2025-09-12T15:06:00 | 57.827670 | 9.236517 | 2.0 | 16.346 | 2 | 43.096 | 16.514 | 33.835 | 2 |
| 2025-09-12T15:07:00 | 57.828406 | 9.236152 | 2.0 | 16.343 | 2 | 43.077 | 16.512 | 33.820 | 2 |
| 2025-09-12T15:08:00 | 57.829158 | 9.235806 | 2.0 | 16.341 | 2 | 43.083 | 16.507 | 33.830 | 2 |
| 2025-09-12T15:09:00 | 57.829887 | 9.235459 | 2.0 | 16.340 | 2 | 43.116 | 16.507 | 33.859 | 2 |
| 2025-09-12T15:10:00 | 57.830603 | 9.235095 | 2.0 | 16.338 | 2 | 43.141 | 16.505 | 33.883 | 2 |
| 2025-09-12T15:11:00 | 57.831331 | 9.234676 | 2.0 | 16.336 | 2 | 43.018 | 16.503 | 33.776 | 2 |
| 2025-09-12T15:12:00 | 57.832057 | 9.234303 | 2.0 | 16.325 | 2 | 43.001 | 16.499 | 33.765 | 2 |
| 2025-09-12T15:13:00 | 57.832762 | 9.233982 | 2.0 | 16.320 | 2 | 43.114 | 16.490 | 33.872 | 2 |
| 2025-09-12T15:14:00 | 57.833475 | 9.233640 | 2.0 | 16.316 | 2 | 43.005 | 16.484 | 33.781 | 2 |
| 2025-09-12T15:15:00 | 57.834133 | 9.233210 | 2.0 | 16.313 | 2 | 43.054 | 16.481 | 33.827 | 2 |
| 2025-09-12T15:16:00 | 57.834784 | 9.232719 | 2.0 | 16.310 | 2 | 43.090 | 16.479 | 33.860 | 2 |
| 2025-09-12T15:17:00 | 57.835436 | 9.232288 | 2.0 | 16.311 | 2 | 43.089 | 16.476 | 33.862 | 2 |
| 2025-09-12T15:18:00 | 57.836103 | 9.231879 | 2.0 | 16.310 | 2 | 43.046 | 16.476 | 33.824 | 2 |
| 2025-09-12T15:19:00 | 57.836767 | 9.231509 | 2.0 | 16.308 | 2 | 43.059 | 16.475 | 33.836 | 2 |
| 2025-09-12T15:20:00 | 57.837367 | 9.231071 | 2.0 | 16.308 | 2 | 43.059 | 16.473 | 33.838 | 2 |
| 2025-09-12T15:21:00 | 57.837970 | 9.230649 | 2.0 | 16.307 | 2 | 43.076 | 16.473 | 33.853 | 2 |
| 2025-09-12T15:22:00 | 57.838570 | 9.230215 | 2.0 | 16.304 | 2 | 43.051 | 16.471 | 33.832 | 2 |
| 2025-09-12T15:23:00 | 57.839206 | 9.229748 | 2.0 | 16.304 | 2 | 43.097 | 16.470 | 33.874 | 2 |
| 2025-09-12T15:24:00 | 57.839827 | 9.229202 | 2.0 | 16.307 | 2 | 43.093 | 16.469 | 33.871 | 2 |
| 2025-09-12T15:25:00 | 57.840467 | 9.228656 | 2.0 | 16.309 | 2 | 43.090 | 16.471 | 33.867 | 2 |
| 2025-09-12T15:26:00 | 57.841101 | 9.228055 | 2.0 | 16.307 | 2 | 43.096 | 16.473 | 33.870 | 2 |
| 2025-09-12T15:27:00 | 57.841741 | 9.227434 | 2.0 | 16.308 | 2 | 43.141 | 16.472 | 33.911 | 2 |
| 2025-09-12T15:28:00 | 57.842453 | 9.226924 | 2.0 | 16.305 | 2 | 43.121 | 16.472 | 33.893 | 2 |
| 2025-09-12T15:29:00 | 57.843106 | 9.226365 | 2.0 | 16.303 | 2 | 43.130 | 16.470 | 33.903 | 2 |
| 2025-09-12T15:30:00 | 57.843795 | 9.225757 | 2.0 | 16.305 | 2 | 43.147 | 16.469 | 33.918 | 2 |
| 2025-09-12T15:31:00 | 57.844483 | 9.225146 | 2.0 | 16.303 | 2 | 43.149 | 16.470 | 33.919 | 2 |
| 2025-09-12T15:32:00 | 57.845174 | 9.224611 | 2.0 | 16.303 | 2 | 43.141 | 16.468 | 33.914 | 2 |
| 2025-09-12T15:33:00 | 57.845863 | 9.224111 | 2.0 | 16.308 | 2 | 43.154 | 16.470 | 33.924 | 2 |
| 2025-09-12T15:34:00 | 57.846533 | 9.223577 | 2.0 | 16.308 | 2 | 43.155 | 16.474 | 33.921 | 2 |
| 2025-09-12T15:35:00 | 57.847198 | 9.222976 | 2.0 | 16.307 | 2 | 43.160 | 16.473 | 33.926 | 2 |
| 2025-09-12T15:36:00 | 57.847859 | 9.222339 | 2.0 | 16.307 | 2 | 43.154 | 16.472 | 33.922 | 2 |
| 2025-09-12T15:37:00 | 57.848543 | 9.221692 | 2.0 | 16.307 | 2 | 43.159 | 16.472 | 33.926 | 2 |
| 2025-09-12T15:38:00 | 57.849256 | 9.221156 | 2.0 | 16.311 | 2 | 43.162 | 16.473 | 33.928 | 2 |
| 2025-09-12T15:39:00 | 57.849911 | 9.220577 | 2.0 | 16.316 | 2 | 43.170 | 16.476 | 33.933 | 2 |
| 2025-09-12T15:40:00 | 57.850579 | 9.220035 | 2.0 | 16.317 | 2 | 43.175 | 16.481 | 33.933 | 2 |
| 2025-09-12T15:41:00 | 57.851315 | 9.219625 | 2.0 | 16.318 | 2 | 43.144 | 16.482 | 33.905 | 2 |
| 2025-09-12T15:42:00 | 57.851998 | 9.219342 | 2.0 | 16.318 | 2 | 43.117 | 16.481 | 33.882 | 2 |
| 2025-09-12T15:43:00 | 57.852744 | 9.219046 | 2.0 | 16.322 | 2 | 43.174 | 16.482 | 33.931 | 2 |
| 2025-09-12T15:44:00 | 57.853400 | 9.218554 | 2.0 | 16.323 | 2 | 43.158 | 16.485 | 33.915 | 2 |
| 2025-09-12T15:45:00 | 57.854051 | 9.218066 | 2.0 | 16.323 | 2 | 43.153 | 16.487 | 33.908 | 2 |
| 2025-09-12T15:46:00 | 57.854740 | 9.217617 | 2.0 | 16.316 | 2 | 43.184 | 16.486 | 33.937 | 2 |
| 2025-09-12T15:47:00 | 57.855409 | 9.217083 | 2.0 | 16.311 | 2 | 43.148 | 16.479 | 33.911 | 2 |
| 2025-09-12T15:48:00 | 57.856098 | 9.216469 | 2.0 | 16.308 | 2 | 43.177 | 16.475 | 33.940 | 2 |
| 2025-09-12T15:49:00 | 57.856750 | 9.215923 | 2.0 | 16.304 | 2 | 43.137 | 16.470 | 33.909 | 2 |
| 2025-09-12T15:50:00 | 57.857436 | 9.215518 | 2.0 | 16.302 | 2 | 43.149 | 16.467 | 33.922 | 2 |
| 2025-09-12T15:51:00 | 57.858086 | 9.215005 | 2.0 | 16.303 | 2 | 43.152 | 16.465 | 33.926 | 2 |
| 2025-09-12T15:52:00 | 57.858714 | 9.214416 | 2.0 | 16.307 | 2 | 43.155 | 16.468 | 33.926 | 2 |
| 2025-09-12T15:53:00 | 57.859393 | 9.213568 | 2.0 | 16.315 | 2 | 43.166 | 16.471 | 33.933 | 2 |
| 2025-09-12T15:54:00 | 57.860494 | 9.212184 | 2.0 | 16.332 | 2 | 43.189 | 16.480 | 33.946 | 2 |
| 2025-09-12T15:55:00 | 57.862065 | 9.210308 | 2.0 | 16.353 | 2 | 43.220 | 16.499 | 33.957 | 2 |
| 2025-09-12T15:56:00 | 57.863800 | 9.208832 | 2.0 | 16.374 | 2 | 43.260 | 16.522 | 33.973 | 2 |
| 2025-09-12T15:57:00 | 57.865457 | 9.207482 | 2.0 | 16.353 | 2 | 43.295 | 16.541 | 33.987 | 2 |
| 2025-09-12T15:58:00 | 57.866857 | 9.206140 | 2.0 | 16.263 | 2 | 43.110 | 16.492 | 33.866 | 2 |
| 2025-09-12T15:59:00 | 57.868202 | 9.204869 | 2.0 | 16.246 | 2 | 42.807 | 16.427 | 33.655 | 2 |
| 2025-09-12T16:00:00 | 57.869598 | 9.203800 | 2.0 | 16.240 | 2 | 42.710 | 16.411 | 33.583 | 2 |
| 2025-09-12T16:01:00 | 57.871012 | 9.202796 | 2.0 | 16.249 | 2 | 42.657 | 16.407 | 33.540 | 2 |
| 2025-09-12T16:02:00 | 57.872543 | 9.201608 | 2.0 | 16.259 | 2 | 42.633 | 16.415 | 33.512 | 2 |
| 2025-09-12T16:03:00 | 57.874709 | 9.199988 | 2.0 | 16.279 | 2 | 42.621 | 16.426 | 33.493 | 2 |
| 2025-09-12T16:04:00 | 57.877226 | 9.198082 | 2.0 | 16.292 | 2 | 42.599 | 16.446 | 33.457 | 2 |
| 2025-09-12T16:05:00 | 57.879796 | 9.196059 | 2.0 | 16.316 | 2 | 42.605 | 16.463 | 33.448 | 2 |
| 2025-09-12T16:06:00 | 57.882337 | 9.194032 | 2.0 | 16.314 | 2 | 42.619 | 16.479 | 33.446 | 2 |
| 2025-09-12T16:07:00 | 57.884876 | 9.191953 | 2.0 | 16.319 | 2 | 42.624 | 16.480 | 33.450 | 2 |
| 2025-09-12T16:08:00 | 57.887441 | 9.189870 | 2.0 | 16.316 | 2 | 42.637 | 16.484 | 33.458 | 2 |
| 2025-09-12T16:09:00 | 57.889897 | 9.187892 | 2.0 | 16.307 | 2 | 42.639 | 16.481 | 33.462 | 2 |
| 2025-09-12T16:10:00 | 57.892462 | 9.185834 | 2.0 | 16.292 | 2 | 42.635 | 16.471 | 33.467 | 2 |
| 2025-09-12T16:11:00 | 57.895007 | 9.183785 | 2.0 | 16.286 | 2 | 42.625 | 16.457 | 33.470 | 2 |
| 2025-09-12T16:12:00 | 57.897554 | 9.181728 | 2.0 | 16.284 | 2 | 42.624 | 16.450 | 33.475 | 2 |
| 2025-09-12T16:13:00 | 57.900091 | 9.179709 | 2.0 | 16.309 | 2 | 42.624 | 16.452 | 33.473 | 2 |
| 2025-09-12T16:14:00 | 57.902611 | 9.177691 | 2.0 | 16.372 | 2 | 42.584 | 16.483 | 33.412 | 2 |
| 2025-09-12T16:15:00 | 57.905138 | 9.175655 | 2.0 | 16.475 | 2 | 42.495 | 16.551 | 33.278 | 2 |
| 2025-09-12T16:16:00 | 57.907663 | 9.173653 | 2.0 | 16.577 | 2 | 42.368 | 16.650 | 33.085 | 2 |
| 2025-09-12T16:17:00 | 57.910191 | 9.171664 | 2.0 | 16.749 | 2 | 42.227 | 16.766 | 32.866 | 2 |
| 2025-09-12T16:18:00 | 57.912670 | 9.169592 | 2.0 | 16.805 | 2 | 42.139 | 16.907 | 32.675 | 2 |
| 2025-09-12T16:19:00 | 57.915184 | 9.167517 | 2.0 | 16.811 | 2 | 42.133 | 16.962 | 32.625 | 2 |
| 2025-09-12T16:20:00 | 57.917739 | 9.165533 | 2.0 | 16.816 | 2 | 42.124 | 16.970 | 32.611 | 2 |
| 2025-09-12T16:21:00 | 57.920274 | 9.163552 | 2.0 | 16.830 | 2 | 42.119 | 16.977 | 32.601 | 2 |
| 2025-09-12T16:22:00 | 57.922762 | 9.161517 | 2.0 | 16.845 | 2 | 42.115 | 16.993 | 32.584 | 2 |
| 2025-09-12T16:23:00 | 57.925308 | 9.159436 | 2.0 | 16.835 | 2 | 42.109 | 17.004 | 32.570 | 2 |
| 2025-09-12T16:24:00 | 57.927878 | 9.157406 | 2.0 | 16.848 | 2 | 42.104 | 16.998 | 32.571 | 2 |
| 2025-09-12T16:25:00 | 57.930434 | 9.155303 | 2.0 | 16.873 | 2 | 42.089 | 17.014 | 32.545 | 2 |
| 2025-09-12T16:26:00 | 57.932985 | 9.153212 | 2.0 | 16.892 | 2 | 42.090 | 17.036 | 32.528 | 2 |
| 2025-09-12T16:27:00 | 57.935558 | 9.151201 | 2.0 | 16.917 | 2 | 42.089 | 17.056 | 32.511 | 2 |
| 2025-09-12T16:28:00 | 57.938133 | 9.149170 | 2.0 | 16.943 | 2 | 42.105 | 17.082 | 32.504 | 2 |
| 2025-09-12T16:29:00 | 57.940692 | 9.147110 | 2.0 | 16.994 | 2 | 42.127 | 17.111 | 32.500 | 2 |
| 2025-09-12T16:30:00 | 57.943241 | 9.144985 | 2.0 | 17.027 | 2 | 42.136 | 17.160 | 32.468 | 2 |
| 2025-09-12T16:31:00 | 57.945804 | 9.142940 | 2.0 | 17.044 | 2 | 42.154 | 17.189 | 32.460 | 2 |
| 2025-09-12T16:32:00 | 57.948392 | 9.141007 | 2.0 | 17.045 | 2 | 42.157 | 17.203 | 32.451 | 2 |
| 2025-09-12T16:33:00 | 57.950971 | 9.138955 | 2.0 | 17.043 | 2 | 42.157 | 17.205 | 32.450 | 2 |
| 2025-09-12T16:34:00 | 57.953548 | 9.136850 | 2.0 | 17.038 | 2 | 42.152 | 17.202 | 32.448 | 2 |
| 2025-09-12T16:35:00 | 57.956124 | 9.134798 | 2.0 | 17.036 | 2 | 42.146 | 17.198 | 32.446 | 2 |
| 2025-09-12T16:36:00 | 57.958658 | 9.132746 | 2.0 | 17.031 | 2 | 42.139 | 17.197 | 32.441 | 2 |
| 2025-09-12T16:37:00 | 57.961166 | 9.130697 | 2.0 | 17.023 | 2 | 42.133 | 17.191 | 32.440 | 2 |
| 2025-09-12T16:38:00 | 57.963708 | 9.128664 | 2.0 | 17.014 | 2 | 42.124 | 17.184 | 32.438 | 2 |
| 2025-09-12T16:39:00 | 57.966278 | 9.126608 | 2.0 | 17.007 | 2 | 42.115 | 17.175 | 32.438 | 2 |
| 2025-09-12T16:40:00 | 57.968860 | 9.124619 | 2.0 | 17.004 | 2 | 42.104 | 17.169 | 32.433 | 2 |
| 2025-09-12T16:41:00 | 57.971429 | 9.122559 | 2.0 | 16.999 | 2 | 42.060 | 17.167 | 32.397 | 2 |
| 2025-09-12T16:42:00 | 57.973995 | 9.120517 | 2.0 | 16.991 | 2 | 42.070 | 17.161 | 32.410 | 2 |
| 2025-09-12T16:43:00 | 57.976559 | 9.118437 | 2.0 | 16.978 | 2 | 42.069 | 17.151 | 32.417 | 2 |
| 2025-09-12T16:44:00 | 57.979121 | 9.116342 | 2.0 | 16.962 | 2 | 42.083 | 17.139 | 32.439 | 2 |
| 2025-09-12T16:45:00 | 57.981723 | 9.114268 | 2.0 | 16.948 | 2 | 42.059 | 17.124 | 32.431 | 2 |
| 2025-09-12T16:46:00 | 57.984321 | 9.112237 | 2.0 | 16.938 | 2 | 42.055 | 17.111 | 32.438 | 2 |
| 2025-09-12T16:47:00 | 57.986919 | 9.110175 | 2.0 | 16.935 | 2 | 42.047 | 17.101 | 32.439 | 2 |
| 2025-09-12T16:48:00 | 57.989433 | 9.107875 | 2.0 | 16.937 | 2 | 42.047 | 17.100 | 32.439 | 2 |
| 2025-09-12T16:49:00 | 57.990966 | 9.104089 | 2.0 | 16.937 | 2 | 42.038 | 17.100 | 32.432 | 2 |
| 2025-09-12T16:50:00 | 57.990818 | 9.099779 | 2.0 | 16.939 | 2 | 42.032 | 17.100 | 32.427 | 2 |
| 2025-09-12T16:51:00 | 57.989424 | 9.096604 | 2.0 | 16.940 | 2 | 42.033 | 17.102 | 32.426 | 2 |
| 2025-09-12T16:52:00 | 57.987293 | 9.095961 | 2.0 | 16.940 | 2 | 42.028 | 17.102 | 32.421 | 2 |
| 2025-09-12T16:53:00 | 57.985209 | 9.097936 | 2.0 | 16.934 | 2 | 42.040 | 17.102 | 32.432 | 2 |
| 2025-09-12T16:54:00 | 57.983147 | 9.100493 | 2.0 | 16.932 | 2 | 42.047 | 17.096 | 32.443 | 2 |
| 2025-09-12T16:55:00 | 57.981033 | 9.103087 | 2.0 | 16.936 | 2 | 42.046 | 17.095 | 32.443 | 2 |
| 2025-09-12T16:56:00 | 57.978896 | 9.105753 | 2.0 | 16.946 | 2 | 42.049 | 17.101 | 32.440 | 2 |
| 2025-09-12T16:57:00 | 57.976717 | 9.108424 | 2.0 | 16.955 | 2 | 42.055 | 17.109 | 32.439 | 2 |
| 2025-09-12T16:58:00 | 57.974521 | 9.111093 | 2.0 | 16.968 | 2 | 42.064 | 17.119 | 32.439 | 2 |
| 2025-09-12T16:59:00 | 57.972328 | 9.113744 | 2.0 | 16.984 | 2 | 42.072 | 17.132 | 32.435 | 2 |
| 2025-09-12T17:00:00 | 57.970135 | 9.116408 | 2.0 | 16.997 | 2 | 42.076 | 17.147 | 32.427 | 2 |
| 2025-09-12T17:01:00 | 57.967961 | 9.119115 | 2.0 | 17.003 | 2 | 42.092 | 17.159 | 32.431 | 2 |
| 2025-09-12T17:02:00 | 57.965779 | 9.121816 | 2.0 | 17.005 | 2 | 42.092 | 17.165 | 32.426 | 2 |
| 2025-09-12T17:03:00 | 57.963594 | 9.124449 | 2.0 | 17.007 | 2 | 42.088 | 17.168 | 32.420 | 2 |
| 2025-09-12T17:04:00 | 57.961365 | 9.127014 | 2.0 | 17.012 | 2 | 42.098 | 17.170 | 32.427 | 2 |
| 2025-09-12T17:05:00 | 57.959140 | 9.129634 | 2.0 | 17.024 | 2 | 42.105 | 17.176 | 32.428 | 2 |
| 2025-09-12T17:06:00 | 57.956934 | 9.132271 | 2.0 | 17.032 | 2 | 42.114 | 17.187 | 32.427 | 2 |
| 2025-09-12T17:07:00 | 57.954721 | 9.134877 | 2.0 | 17.035 | 2 | 42.120 | 17.193 | 32.428 | 2 |
| 2025-09-12T17:08:00 | 57.952471 | 9.137485 | 2.0 | 17.038 | 2 | 42.128 | 17.196 | 32.432 | 2 |
| 2025-09-12T17:09:00 | 57.950200 | 9.140155 | 2.0 | 17.038 | 2 | 42.136 | 17.200 | 32.436 | 2 |
| 2025-09-12T17:10:00 | 57.947885 | 9.142622 | 2.0 | 17.031 | 2 | 42.141 | 17.199 | 32.441 | 2 |
| 2025-09-12T17:11:00 | 57.945510 | 9.144595 | 2.0 | 17.019 | 2 | 42.141 | 17.192 | 32.446 | 2 |
| 2025-09-12T17:12:00 | 57.943145 | 9.146485 | 2.0 | 17.000 | 2 | 42.134 | 17.180 | 32.450 | 2 |
| 2025-09-12T17:13:00 | 57.940802 | 9.148443 | 2.0 | 16.972 | 2 | 42.125 | 17.159 | 32.459 | 2 |
| 2025-09-12T17:14:00 | 57.938450 | 9.150383 | 2.0 | 16.943 | 2 | 42.117 | 17.132 | 32.474 | 2 |
| 2025-09-12T17:15:00 | 57.936092 | 9.152373 | 2.0 | 16.909 | 2 | 42.115 | 17.101 | 32.497 | 2 |
| 2025-09-12T17:16:00 | 57.933754 | 9.154379 | 2.0 | 16.897 | 2 | 42.110 | 17.072 | 32.516 | 2 |
| 2025-09-12T17:17:00 | 57.931392 | 9.156392 | 2.0 | 16.885 | 2 | 42.105 | 17.058 | 32.523 | 2 |
| 2025-09-12T17:18:00 | 57.929001 | 9.158383 | 2.0 | 16.876 | 2 | 42.104 | 17.049 | 32.530 | 2 |
| 2025-09-12T17:19:00 | 57.926620 | 9.160289 | 2.0 | 16.870 | 2 | 42.103 | 17.040 | 32.536 | 2 |
| 2025-09-12T17:20:00 | 57.924205 | 9.162149 | 2.0 | 16.865 | 2 | 42.108 | 17.033 | 32.546 | 2 |
| 2025-09-12T17:21:00 | 57.921777 | 9.164117 | 2.0 | 16.852 | 2 | 42.117 | 17.028 | 32.558 | 2 |
| 2025-09-12T17:22:00 | 57.919328 | 9.166072 | 2.0 | 16.824 | 2 | 42.118 | 17.011 | 32.572 | 2 |
| 2025-09-12T17:23:00 | 57.916886 | 9.168054 | 2.0 | 16.792 | 2 | 42.109 | 16.985 | 32.586 | 2 |
| 2025-09-12T17:24:00 | 57.914461 | 9.169972 | 2.0 | 16.751 | 2 | 42.108 | 16.953 | 32.611 | 2 |
| 2025-09-12T17:25:00 | 57.912026 | 9.171879 | 2.0 | 16.684 | 2 | 42.122 | 16.908 | 32.659 | 2 |
| 2025-09-12T17:26:00 | 57.909562 | 9.173710 | 2.0 | 16.630 | 2 | 42.158 | 16.844 | 32.743 | 2 |
| 2025-09-12T17:27:00 | 57.907124 | 9.175621 | 2.0 | 16.594 | 2 | 42.191 | 16.796 | 32.811 | 2 |
| 2025-09-12T17:28:00 | 57.904685 | 9.177466 | 2.0 | 16.503 | 2 | 42.215 | 16.753 | 32.867 | 2 |
| 2025-09-12T17:29:00 | 57.902247 | 9.179323 | 2.0 | 16.292 | 2 | 42.299 | 16.638 | 33.034 | 2 |
| 2025-09-12T17:30:00 | 57.899829 | 9.181178 | 2.0 | 16.217 | 2 | 42.468 | 16.453 | 33.336 | 2 |
| 2025-09-12T17:31:00 | 57.897418 | 9.182923 | 2.0 | 16.235 | 2 | 42.518 | 16.395 | 33.428 | 2 |
| 2025-09-12T17:32:00 | 57.894989 | 9.184442 | 2.0 | 16.241 | 2 | 42.592 | 16.406 | 33.484 | 2 |
| 2025-09-12T17:33:00 | 57.893205 | 9.182496 | 2.0 | 16.237 | 2 | 42.598 | 16.411 | 33.485 | 2 |
| 2025-09-12T17:34:00 | 57.892967 | 9.178304 | 2.0 | 16.221 | 2 | 42.598 | 16.403 | 33.492 | 2 |
| 2025-09-12T17:35:00 | 57.893287 | 9.173849 | 2.0 | 16.221 | 2 | 42.571 | 16.391 | 33.478 | 2 |
| 2025-09-12T17:36:00 | 57.894142 | 9.169460 | 2.0 | 16.215 | 2 | 42.561 | 16.389 | 33.471 | 2 |
| 2025-09-12T17:37:00 | 57.895665 | 9.165584 | 2.0 | 16.216 | 2 | 41.896 | 16.383 | 32.892 | 2 |
| 2025-09-12T17:38:00 | 57.898081 | 9.163273 | 2.0 | 16.242 | 2 | 41.932 | 16.383 | 32.924 | 2 |
| 2025-09-12T17:39:00 | 57.900922 | 9.162596 | 2.0 | 16.318 | 2 | 41.766 | 16.423 | 32.745 | 2 |
| 2025-09-12T17:40:00 | 57.903757 | 9.164006 | 2.0 | 16.469 | 2 | 41.812 | 16.514 | 32.711 | 2 |
| 2025-09-12T17:41:00 | 57.906218 | 9.167154 | 2.0 | 16.538 | 2 | 41.849 | 16.644 | 32.637 | 2 |
| 2025-09-12T17:42:00 | 57.907953 | 9.171750 | 2.0 | 16.584 | 2 | 42.181 | 16.705 | 32.876 | 2 |
| 2025-09-12T17:43:00 | 57.908904 | 9.177016 | 2.0 | 16.594 | 2 | 42.149 | 16.748 | 32.813 | 2 |
| 2025-09-12T17:44:00 | 57.909002 | 9.182464 | 2.0 | 16.576 | 2 | 42.088 | 16.755 | 32.755 | 2 |
| 2025-09-12T17:45:00 | 57.908237 | 9.187311 | 2.0 | 16.523 | 2 | 42.172 | 16.736 | 32.843 | 2 |
| 2025-09-12T17:46:00 | 57.906716 | 9.190900 | 2.0 | 16.445 | 2 | 42.161 | 16.677 | 32.882 | 2 |
| 2025-09-12T17:47:00 | 57.904799 | 9.193385 | 2.0 | 16.263 | 2 | 42.281 | 16.585 | 33.062 | 2 |
| 2025-09-12T17:48:00 | 57.902755 | 9.194739 | 2.0 | 16.222 | 2 | 42.266 | 16.418 | 33.188 | 2 |
| 2025-09-12T17:49:00 | 57.900659 | 9.194632 | 2.0 | 16.235 | 2 | 42.299 | 16.397 | 33.234 | 2 |
| 2025-09-12T17:50:00 | 57.898690 | 9.193486 | 2.0 | 16.242 | 2 | 42.410 | 16.404 | 33.326 | 2 |
| 2025-09-12T17:51:00 | 57.897981 | 9.190705 | 2.0 | 16.228 | 2 | 42.258 | 16.408 | 33.189 | 2 |
| 2025-09-12T17:52:00 | 57.898339 | 9.187747 | 2.0 | 16.225 | 2 | 42.582 | 16.395 | 33.484 | 2 |
| 2025-09-12T17:53:00 | 57.899977 | 9.188483 | 2.0 | 16.227 | 2 | 42.562 | 16.391 | 33.470 | 2 |
| 2025-09-12T17:54:00 | 57.899654 | 9.191954 | 2.0 | 16.230 | 2 | 42.486 | 16.392 | 33.403 | 2 |
| 2025-09-12T17:55:00 | 57.897796 | 9.193918 | 2.0 | 16.240 | 2 | 42.460 | 16.397 | 33.376 | 2 |
| 2025-09-12T17:56:00 | 57.895892 | 9.192505 | 2.0 | 16.240 | 2 | 42.356 | 16.408 | 33.275 | 2 |
| 2025-09-12T17:57:00 | 57.895002 | 9.188914 | 2.0 | 16.224 | 2 | 42.455 | 16.403 | 33.366 | 2 |
| 2025-09-12T17:58:00 | 57.895542 | 9.184774 | 2.0 | 16.210 | 2 | 42.506 | 16.391 | 33.421 | 2 |
| 2025-09-12T17:59:00 | 57.897604 | 9.182163 | 2.0 | 16.215 | 2 | 42.492 | 16.378 | 33.420 | 2 |
| 2025-09-12T18:00:00 | 57.900133 | 9.180483 | 2.0 | 16.202 | 2 | 42.483 | 16.377 | 33.412 | 2 |
| 2025-09-12T18:01:00 | 57.902636 | 9.178824 | 2.0 | 16.244 | 2 | 42.310 | 16.372 | 33.265 | 2 |
| 2025-09-12T18:02:00 | 57.904973 | 9.177269 | 2.0 | 16.412 | 2 | 42.263 | 16.437 | 33.169 | 2 |
| 2025-09-12T18:03:00 | 57.906900 | 9.175799 | 2.0 | 16.482 | 2 | 42.192 | 16.578 | 32.990 | 2 |
| 2025-09-12T18:04:00 | 57.908423 | 9.175326 | 2.0 | 16.500 | 2 | 42.184 | 16.644 | 32.929 | 2 |
| 2025-09-12T18:05:00 | 57.908845 | 9.176560 | 2.0 | 16.505 | 2 | 42.180 | 16.661 | 32.912 | 2 |
| 2025-09-12T18:06:00 | 57.908825 | 9.177589 | 2.0 | 16.510 | 2 | 42.184 | 16.664 | 32.913 | 2 |
| 2025-09-12T18:07:00 | 57.908454 | 9.178169 | 2.0 | 16.506 | 2 | 42.171 | 16.672 | 32.895 | 2 |
| 2025-09-12T18:08:00 | 57.908184 | 9.178017 | 2.0 | 16.498 | 2 | 42.201 | 16.667 | 32.925 | 2 |
| 2025-09-12T18:09:00 | 57.907923 | 9.177614 | 2.0 | 16.452 | 2 | 42.224 | 16.638 | 32.969 | 2 |
| 2025-09-12T18:10:00 | 57.907486 | 9.177868 | 2.0 | 16.473 | 2 | 42.250 | 16.629 | 32.999 | 2 |
| 2025-09-12T18:11:00 | 57.907221 | 9.178286 | 2.0 | 16.462 | 2 | 42.233 | 16.634 | 32.980 | 2 |
| 2025-09-12T18:12:00 | 57.906896 | 9.178801 | 2.0 | 16.444 | 2 | 42.221 | 16.622 | 32.979 | 2 |
| 2025-09-12T18:13:00 | 57.906514 | 9.179165 | 2.0 | 16.426 | 2 | 42.234 | 16.605 | 33.005 | 2 |
| 2025-09-12T18:14:00 | 57.906051 | 9.179383 | 2.0 | 16.394 | 2 | 42.268 | 16.584 | 33.052 | 2 |
| 2025-09-12T18:15:00 | 57.905532 | 9.179466 | 2.0 | 16.355 | 2 | 42.293 | 16.554 | 33.098 | 2 |
| 2025-09-12T18:16:00 | 57.905116 | 9.179629 | 2.0 | 16.308 | 2 | 42.326 | 16.518 | 33.157 | 2 |
| 2025-09-12T18:17:00 | 57.905035 | 9.179731 | 2.0 | 16.298 | 2 | 42.409 | 16.485 | 33.257 | 2 |
| 2025-09-12T18:18:00 | 57.905095 | 9.179796 | 2.0 | 16.297 | 2 | 42.429 | 16.477 | 33.281 | 2 |
| 2025-09-12T18:19:00 | 57.905129 | 9.179735 | 2.0 | 16.298 | 2 | 42.432 | 16.478 | 33.283 | 2 |
| 2025-09-12T18:20:00 | 57.905218 | 9.179751 | 2.0 | 16.288 | 2 | 42.417 | 16.478 | 33.270 | 2 |
| 2025-09-12T18:21:00 | 57.905203 | 9.179810 | 2.0 | 16.285 | 2 | 42.381 | 16.472 | 33.244 | 2 |
| 2025-09-12T18:22:00 | 57.905130 | 9.180019 | 2.0 | 16.274 | 2 | 42.403 | 16.468 | 33.266 | 2 |
| 2025-09-12T18:23:00 | 57.905001 | 9.180229 | 2.0 | 16.269 | 2 | 42.402 | 16.459 | 33.273 | 2 |
| 2025-09-12T18:24:00 | 57.904888 | 9.179579 | 2.0 | 16.257 | 2 | 42.426 | 16.453 | 33.299 | 2 |
| 2025-09-12T18:25:00 | 57.904867 | 9.178439 | 2.0 | 16.255 | 2 | 42.428 | 16.445 | 33.307 | 2 |
| 2025-09-12T18:26:00 | 57.904956 | 9.177250 | 2.0 | 16.254 | 2 | 42.440 | 16.443 | 33.319 | 2 |
| 2025-09-12T18:27:00 | 57.905882 | 9.176604 | 2.0 | 16.298 | 2 | 42.423 | 16.445 | 33.303 | 2 |
| 2025-09-12T18:28:00 | 57.907140 | 9.175118 | 2.0 | 16.385 | 2 | 42.340 | 16.504 | 33.181 | 2 |
| 2025-09-12T18:29:00 | 57.908556 | 9.172984 | 2.0 | 16.444 | 2 | 42.280 | 16.578 | 33.067 | 2 |
| 2025-09-12T18:30:00 | 57.910212 | 9.170869 | 2.0 | 16.481 | 2 | 42.264 | 16.638 | 33.004 | 2 |
| 2025-09-12T18:31:00 | 57.911918 | 9.168904 | 2.0 | 16.513 | 2 | 42.252 | 16.667 | 32.969 | 2 |
| 2025-09-12T18:32:00 | 57.913615 | 9.167115 | 2.0 | 16.535 | 2 | 42.241 | 16.690 | 32.941 | 2 |
| 2025-09-12T18:33:00 | 57.915380 | 9.165619 | 2.0 | 16.587 | 2 | 42.204 | 16.719 | 32.885 | 2 |
| 2025-09-12T18:34:00 | 57.916482 | 9.166465 | 2.0 | 16.621 | 2 | 42.161 | 16.762 | 32.812 | 2 |
| 2025-09-12T18:35:00 | 57.916514 | 9.168190 | 2.0 | 16.621 | 2 | 42.141 | 16.787 | 32.774 | 2 |
| 2025-09-12T18:36:00 | 57.915973 | 9.169776 | 2.0 | 16.615 | 2 | 42.136 | 16.788 | 32.769 | 2 |
| 2025-09-12T18:37:00 | 57.914804 | 9.171016 | 2.0 | 16.570 | 2 | 42.148 | 16.778 | 32.788 | 2 |
| 2025-09-12T18:38:00 | 57.913457 | 9.172506 | 2.0 | 16.529 | 2 | 42.197 | 16.730 | 32.870 | 2 |
| 2025-09-12T18:39:00 | 57.912353 | 9.173927 | 2.0 | 16.510 | 2 | 42.235 | 16.695 | 32.932 | 2 |
| 2025-09-12T18:40:00 | 57.911392 | 9.175339 | 2.0 | 16.487 | 2 | 42.235 | 16.676 | 32.947 | 2 |
| 2025-09-12T18:41:00 | 57.910438 | 9.176746 | 2.0 | 16.457 | 2 | 42.244 | 16.653 | 32.974 | 2 |
| 2025-09-12T18:42:00 | 57.909463 | 9.177993 | 2.0 | 16.420 | 2 | 42.271 | 16.621 | 33.024 | 2 |
| 2025-09-12T18:43:00 | 57.908440 | 9.179400 | 2.0 | 16.369 | 2 | 42.277 | 16.582 | 33.061 | 2 |
| 2025-09-12T18:44:00 | 57.907385 | 9.180873 | 2.0 | 16.276 | 2 | 42.322 | 16.528 | 33.145 | 2 |
| 2025-09-12T18:45:00 | 57.906359 | 9.182349 | 2.0 | 16.232 | 2 | 42.411 | 16.433 | 33.302 | 2 |
| 2025-09-12T18:46:00 | 57.905378 | 9.183781 | 2.0 | 16.211 | 2 | 42.457 | 16.405 | 33.366 | 2 |
| 2025-09-12T18:47:00 | 57.904360 | 9.184613 | 2.0 | 16.189 | 2 | 42.421 | 16.379 | 33.356 | 2 |
| 2025-09-12T18:48:00 | 57.903337 | 9.185234 | 2.0 | 16.187 | 2 | 42.441 | 16.361 | 33.389 | 2 |
| 2025-09-12T18:49:00 | 57.902270 | 9.185810 | 2.0 | 16.181 | 2 | 42.466 | 16.358 | 33.413 | 2 |
| 2025-09-12T18:50:00 | 57.901256 | 9.186426 | 2.0 | 16.184 | 2 | 42.476 | 16.351 | 33.428 | 2 |
| 2025-09-12T18:51:00 | 57.900248 | 9.186990 | 2.0 | 16.187 | 2 | 42.533 | 16.355 | 33.475 | 2 |
| 2025-09-12T18:52:00 | 57.899353 | 9.187549 | 2.0 | 16.184 | 2 | 42.557 | 16.354 | 33.497 | 2 |
| 2025-09-12T18:53:00 | 57.898485 | 9.188105 | 2.0 | 16.187 | 2 | 42.600 | 16.355 | 33.534 | 2 |
| 2025-09-12T18:54:00 | 57.897683 | 9.188686 | 2.0 | 16.181 | 2 | 42.632 | 16.356 | 33.561 | 2 |
| 2025-09-12T18:55:00 | 57.896945 | 9.189245 | 2.0 | 16.173 | 2 | 42.618 | 16.348 | 33.556 | 2 |
| 2025-09-12T18:56:00 | 57.896190 | 9.189785 | 2.0 | 16.171 | 2 | 42.603 | 16.339 | 33.550 | 2 |
| 2025-09-12T18:57:00 | 57.895445 | 9.190336 | 2.0 | 16.188 | 2 | 42.600 | 16.342 | 33.545 | 2 |
| 2025-09-12T18:58:00 | 57.894742 | 9.190909 | 2.0 | 16.184 | 2 | 42.625 | 16.354 | 33.557 | 2 |
| 2025-09-12T18:59:00 | 57.894067 | 9.191523 | 2.0 | 16.192 | 2 | 42.626 | 16.352 | 33.559 | 2 |
| 2025-09-12T19:00:00 | 57.893475 | 9.191925 | 2.0 | 16.191 | 2 | 42.628 | 16.357 | 33.557 | 2 |
| 2025-09-12T19:01:00 | 57.893662 | 9.191605 | 2.0 | 16.189 | 2 | 42.631 | 16.357 | 33.559 | 2 |
| 2025-09-12T19:02:00 | 57.894870 | 9.191671 | 2.0 | 16.185 | 2 | 42.632 | 16.356 | 33.561 | 2 |
| 2025-09-12T19:03:00 | 57.896588 | 9.192094 | 2.0 | 16.184 | 2 | 42.639 | 16.355 | 33.568 | 2 |
| 2025-09-12T19:04:00 | 57.898835 | 9.192144 | 2.0 | 16.177 | 2 | 42.621 | 16.346 | 33.560 | 2 |
| 2025-09-12T19:05:00 | 57.901520 | 9.192134 | 2.0 | 16.186 | 2 | 42.620 | 16.349 | 33.556 | 2 |
| 2025-09-12T19:06:00 | 57.904327 | 9.192028 | 2.0 | 16.183 | 2 | 42.565 | 16.354 | 33.504 | 2 |
| 2025-09-12T19:07:00 | 57.907119 | 9.191629 | 2.0 | 16.202 | 2 | 42.478 | 16.352 | 33.429 | 2 |
| 2025-09-12T19:08:00 | 57.909907 | 9.191235 | 2.0 | 16.315 | 2 | 42.439 | 16.378 | 33.373 | 2 |
| 2025-09-12T19:09:00 | 57.912680 | 9.190873 | 2.0 | 16.457 | 2 | 42.303 | 16.501 | 33.151 | 2 |
| 2025-09-12T19:10:00 | 57.915407 | 9.190511 | 2.0 | 16.523 | 2 | 42.203 | 16.630 | 32.957 | 2 |
| 2025-09-12T19:11:00 | 57.918170 | 9.190109 | 2.0 | 16.602 | 2 | 42.182 | 16.696 | 32.885 | 2 |
| 2025-09-12T19:12:00 | 57.920941 | 9.189723 | 2.0 | 16.667 | 2 | 42.109 | 16.775 | 32.756 | 2 |
| 2025-09-12T19:13:00 | 57.923703 | 9.189336 | 2.0 | 16.711 | 2 | 42.076 | 16.830 | 32.683 | 2 |
| 2025-09-12T19:14:00 | 57.926463 | 9.189012 | 2.0 | 16.757 | 2 | 42.058 | 16.877 | 32.629 | 2 |
| 2025-09-12T19:15:00 | 57.929194 | 9.188656 | 2.0 | 16.798 | 2 | 42.055 | 16.924 | 32.588 | 2 |
| 2025-09-12T19:16:00 | 57.931937 | 9.188297 | 2.0 | 16.822 | 2 | 42.066 | 16.962 | 32.567 | 2 |
| 2025-09-12T19:17:00 | 57.934687 | 9.187921 | 2.0 | 16.841 | 2 | 42.072 | 16.984 | 32.555 | 2 |
| 2025-09-12T19:18:00 | 57.937423 | 9.187550 | 2.0 | 16.861 | 2 | 42.057 | 17.005 | 32.525 | 2 |
| 2025-09-12T19:19:00 | 57.940033 | 9.187231 | 2.0 | 16.879 | 2 | 42.045 | 17.024 | 32.499 | 2 |
| 2025-09-12T19:20:00 | 57.942532 | 9.186948 | 2.0 | 16.896 | 2 | 42.079 | 17.043 | 32.513 | 2 |
| 2025-09-12T19:21:00 | 57.944558 | 9.186803 | 2.0 | 16.919 | 2 | 42.088 | 17.061 | 32.506 | 2 |
| 2025-09-12T19:22:00 | 57.945783 | 9.187822 | 2.0 | 16.929 | 2 | 42.087 | 17.080 | 32.490 | 2 |
| 2025-09-12T19:23:00 | 57.945916 | 9.189175 | 2.0 | 16.924 | 2 | 42.098 | 17.088 | 32.493 | 2 |
| 2025-09-12T19:24:00 | 57.945742 | 9.190151 | 2.0 | 16.916 | 2 | 42.089 | 17.081 | 32.491 | 2 |
| 2025-09-12T19:25:00 | 57.945428 | 9.190711 | 2.0 | 16.910 | 2 | 42.092 | 17.076 | 32.498 | 2 |
| 2025-09-12T19:26:00 | 57.945119 | 9.190815 | 2.0 | 16.909 | 2 | 42.092 | 17.071 | 32.502 | 2 |
| 2025-09-12T19:27:00 | 57.944724 | 9.191177 | 2.0 | 16.902 | 2 | 42.093 | 17.069 | 32.504 | 2 |
| 2025-09-12T19:28:00 | 57.944304 | 9.191635 | 2.0 | 16.899 | 2 | 42.092 | 17.064 | 32.507 | 2 |
| 2025-09-12T19:29:00 | 57.943919 | 9.192079 | 2.0 | 16.890 | 2 | 42.085 | 17.057 | 32.507 | 2 |
| 2025-09-12T19:30:00 | 57.943534 | 9.192603 | 2.0 | 16.886 | 2 | 42.081 | 17.051 | 32.508 | 2 |
| 2025-09-12T19:31:00 | 57.943180 | 9.193113 | 2.0 | 16.881 | 2 | 42.080 | 17.046 | 32.511 | 2 |
| 2025-09-12T19:32:00 | 57.942821 | 9.193414 | 2.0 | 16.880 | 2 | 42.080 | 17.043 | 32.514 | 2 |
| 2025-09-12T19:33:00 | 57.942449 | 9.193828 | 2.0 | 16.875 | 2 | 42.079 | 17.041 | 32.515 | 2 |
| 2025-09-12T19:34:00 | 57.942066 | 9.194254 | 2.0 | 16.871 | 2 | 42.077 | 17.037 | 32.516 | 2 |
| 2025-09-12T19:35:00 | 57.941643 | 9.194633 | 2.0 | 16.869 | 2 | 42.074 | 17.033 | 32.517 | 2 |
| 2025-09-12T19:36:00 | 57.941225 | 9.195039 | 2.0 | 16.865 | 2 | 42.069 | 17.029 | 32.516 | 2 |
| 2025-09-12T19:37:00 | 57.940829 | 9.195446 | 2.0 | 16.859 | 2 | 42.067 | 17.025 | 32.517 | 2 |
| 2025-09-12T19:38:00 | 57.940379 | 9.195880 | 2.0 | 16.855 | 2 | 42.068 | 17.020 | 32.522 | 2 |
| 2025-09-12T19:39:00 | 57.939911 | 9.196295 | 2.0 | 16.852 | 2 | 42.070 | 17.017 | 32.526 | 2 |
| 2025-09-12T19:40:00 | 57.939476 | 9.196705 | 2.0 | 16.849 | 2 | 42.066 | 17.014 | 32.525 | 2 |
| 2025-09-12T19:41:00 | 57.939036 | 9.197102 | 2.0 | 16.842 | 2 | 42.066 | 17.011 | 32.528 | 2 |
| 2025-09-12T19:42:00 | 57.938589 | 9.197508 | 2.0 | 16.844 | 2 | 42.061 | 17.005 | 32.528 | 2 |
| 2025-09-12T19:43:00 | 57.938182 | 9.197954 | 2.0 | 16.839 | 2 | 42.046 | 17.005 | 32.515 | 2 |
| 2025-09-12T19:44:00 | 57.937768 | 9.198380 | 2.0 | 16.835 | 2 | 42.036 | 17.001 | 32.510 | 2 |
| 2025-09-12T19:45:00 | 57.937338 | 9.198829 | 2.0 | 16.831 | 2 | 42.043 | 16.996 | 32.520 | 2 |
| 2025-09-12T19:46:00 | 57.936916 | 9.199315 | 2.0 | 16.828 | 2 | 41.932 | 16.991 | 32.428 | 2 |
| 2025-09-12T19:47:00 | 57.936492 | 9.199758 | 2.0 | 16.824 | 2 | 42.024 | 16.989 | 32.509 | 2 |
| 2025-09-12T19:48:00 | 57.936120 | 9.200252 | 2.0 | 16.818 | 2 | 42.023 | 16.985 | 32.511 | 2 |
| 2025-09-12T19:49:00 | 57.935801 | 9.200733 | 2.0 | 16.817 | 2 | 42.056 | 16.980 | 32.544 | 2 |
| 2025-09-12T19:50:00 | 57.935455 | 9.201215 | 2.0 | 16.814 | 2 | 42.049 | 16.978 | 32.540 | 2 |
| 2025-09-12T19:51:00 | 57.935090 | 9.201703 | 2.0 | 16.808 | 2 | 42.047 | 16.974 | 32.541 | 2 |
| 2025-09-12T19:52:00 | 57.934768 | 9.202252 | 2.0 | 16.805 | 2 | 42.018 | 16.969 | 32.520 | 2 |
| 2025-09-12T19:53:00 | 57.934412 | 9.202675 | 2.0 | 16.800 | 2 | 42.042 | 16.965 | 32.544 | 2 |
| 2025-09-12T19:54:00 | 57.933981 | 9.203062 | 2.0 | 16.797 | 2 | 42.051 | 16.961 | 32.555 | 2 |
| 2025-09-12T19:55:00 | 57.933517 | 9.203442 | 2.0 | 16.790 | 2 | 42.049 | 16.958 | 32.556 | 2 |
| 2025-09-12T19:56:00 | 57.933097 | 9.203824 | 2.0 | 16.787 | 2 | 42.036 | 16.952 | 32.549 | 2 |
| 2025-09-12T19:57:00 | 57.932642 | 9.204196 | 2.0 | 16.785 | 2 | 42.050 | 16.949 | 32.564 | 2 |
| 2025-09-12T19:58:00 | 57.932223 | 9.204612 | 2.0 | 16.780 | 2 | 42.048 | 16.946 | 32.565 | 2 |
| 2025-09-12T19:59:00 | 57.931826 | 9.205088 | 2.0 | 16.776 | 2 | 42.042 | 16.941 | 32.563 | 2 |
| 2025-09-12T20:00:00 | 57.931460 | 9.205618 | 2.0 | 16.771 | 2 | 42.050 | 16.937 | 32.574 | 2 |
| 2025-09-12T20:01:00 | 57.931137 | 9.206167 | 2.0 | 16.766 | 2 | 42.052 | 16.932 | 32.579 | 2 |
| 2025-09-12T20:02:00 | 57.930780 | 9.206708 | 2.0 | 16.759 | 2 | 42.049 | 16.926 | 32.582 | 2 |
| 2025-09-12T20:03:00 | 57.930426 | 9.207213 | 2.0 | 16.755 | 2 | 42.048 | 16.921 | 32.585 | 2 |
| 2025-09-12T20:04:00 | 57.930021 | 9.207688 | 2.0 | 16.747 | 2 | 42.044 | 16.915 | 32.586 | 2 |
| 2025-09-12T20:05:00 | 57.929558 | 9.208106 | 2.0 | 16.741 | 2 | 42.040 | 16.908 | 32.588 | 2 |
| 2025-09-12T20:06:00 | 57.929041 | 9.208501 | 2.0 | 16.729 | 2 | 42.040 | 16.900 | 32.595 | 2 |
| 2025-09-12T20:07:00 | 57.928536 | 9.208866 | 2.0 | 16.718 | 2 | 42.035 | 16.889 | 32.600 | 2 |
| 2025-09-12T20:08:00 | 57.928033 | 9.209227 | 2.0 | 16.707 | 2 | 42.034 | 16.878 | 32.608 | 2 |
| 2025-09-12T20:09:00 | 57.927542 | 9.209628 | 2.0 | 16.693 | 2 | 42.034 | 16.867 | 32.617 | 2 |
| 2025-09-12T20:10:00 | 57.927129 | 9.210086 | 2.0 | 16.682 | 2 | 42.036 | 16.855 | 32.628 | 2 |
| 2025-09-12T20:11:00 | 57.926756 | 9.210575 | 2.0 | 16.671 | 2 | 42.036 | 16.843 | 32.638 | 2 |
| 2025-09-12T20:12:00 | 57.926404 | 9.211068 | 2.0 | 16.664 | 2 | 42.036 | 16.833 | 32.646 | 2 |
| 2025-09-12T20:13:00 | 57.926002 | 9.211536 | 2.0 | 16.654 | 2 | 42.038 | 16.825 | 32.654 | 2 |
| 2025-09-12T20:14:00 | 57.925598 | 9.211979 | 2.0 | 16.640 | 2 | 42.042 | 16.813 | 32.667 | 2 |
| 2025-09-12T20:15:00 | 57.925230 | 9.212531 | 2.0 | 16.631 | 2 | 42.047 | 16.802 | 32.681 | 2 |
| 2025-09-12T20:16:00 | 57.924870 | 9.212962 | 2.0 | 16.619 | 2 | 42.050 | 16.792 | 32.691 | 2 |
| 2025-09-12T20:17:00 | 57.924457 | 9.213395 | 2.0 | 16.604 | 2 | 42.056 | 16.780 | 32.706 | 2 |
| 2025-09-12T20:18:00 | 57.924062 | 9.213871 | 2.0 | 16.602 | 2 | 42.065 | 16.768 | 32.724 | 2 |
| 2025-09-12T20:19:00 | 57.923648 | 9.214323 | 2.0 | 16.587 | 2 | 42.071 | 16.763 | 32.733 | 2 |
| 2025-09-12T20:20:00 | 57.923226 | 9.214707 | 2.0 | 16.576 | 2 | 42.076 | 16.748 | 32.750 | 2 |
| 2025-09-12T20:21:00 | 57.922797 | 9.215077 | 2.0 | 16.569 | 2 | 42.087 | 16.738 | 32.768 | 2 |
| 2025-09-12T20:22:00 | 57.922392 | 9.215560 | 2.0 | 16.566 | 2 | 42.094 | 16.733 | 32.778 | 2 |
| 2025-09-12T20:23:00 | 57.922038 | 9.216070 | 2.0 | 16.563 | 2 | 42.096 | 16.729 | 32.783 | 2 |
| 2025-09-12T20:24:00 | 57.921707 | 9.216594 | 2.0 | 16.560 | 2 | 42.098 | 16.725 | 32.788 | 2 |
| 2025-09-12T20:25:00 | 57.921372 | 9.217092 | 2.0 | 16.548 | 2 | 42.100 | 16.721 | 32.793 | 2 |
| 2025-09-12T20:26:00 | 57.920991 | 9.217741 | 2.0 | 16.517 | 2 | 42.095 | 16.706 | 32.801 | 2 |
| 2025-09-12T20:27:00 | 57.920549 | 9.218260 | 2.0 | 16.481 | 2 | 42.119 | 16.672 | 32.849 | 2 |
| 2025-09-12T20:28:00 | 57.920113 | 9.218871 | 2.0 | 16.462 | 2 | 42.167 | 16.643 | 32.915 | 2 |
| 2025-09-12T20:29:00 | 57.919673 | 9.219419 | 2.0 | 16.445 | 2 | 42.185 | 16.623 | 32.947 | 2 |
| 2025-09-12T20:30:00 | 57.919260 | 9.220004 | 2.0 | 16.421 | 2 | 42.186 | 16.605 | 32.963 | 2 |
| 2025-09-12T20:31:00 | 57.918919 | 9.220652 | 2.0 | 16.402 | 2 | 42.187 | 16.583 | 32.982 | 2 |
| 2025-09-12T20:32:00 | 57.918581 | 9.221209 | 2.0 | 16.390 | 2 | 42.194 | 16.565 | 33.003 | 2 |
| 2025-09-12T20:33:00 | 57.918283 | 9.221847 | 2.0 | 16.381 | 2 | 42.158 | 16.554 | 32.980 | 2 |
| 2025-09-12T20:34:00 | 57.917937 | 9.222436 | 2.0 | 16.343 | 2 | 42.150 | 16.535 | 32.989 | 2 |
| 2025-09-12T20:35:00 | 57.917525 | 9.223021 | 2.0 | 16.316 | 2 | 42.202 | 16.504 | 33.060 | 2 |
| 2025-09-12T20:36:00 | 57.917088 | 9.223686 | 2.0 | 16.293 | 2 | 42.203 | 16.479 | 33.082 | 2 |
| 2025-09-12T20:37:00 | 57.916686 | 9.224220 | 2.0 | 16.271 | 2 | 42.230 | 16.455 | 33.125 | 2 |
| 2025-09-12T20:38:00 | 57.916288 | 9.224727 | 2.0 | 16.250 | 2 | 42.242 | 16.434 | 33.153 | 2 |
| 2025-09-12T20:39:00 | 57.915917 | 9.225191 | 2.0 | 16.203 | 2 | 42.241 | 16.409 | 33.173 | 2 |
| 2025-09-12T20:40:00 | 57.915564 | 9.225688 | 2.0 | 16.167 | 2 | 42.344 | 16.361 | 33.304 | 2 |
| 2025-09-12T20:41:00 | 57.915259 | 9.226149 | 2.0 | 16.160 | 2 | 42.401 | 16.334 | 33.376 | 2 |
| 2025-09-12T20:42:00 | 57.914939 | 9.226741 | 2.0 | 16.149 | 2 | 42.400 | 16.325 | 33.383 | 2 |
| 2025-09-12T20:43:00 | 57.914575 | 9.227186 | 2.0 | 16.146 | 2 | 42.397 | 16.315 | 33.389 | 2 |
| 2025-09-12T20:44:00 | 57.914240 | 9.227681 | 2.0 | 16.147 | 2 | 42.418 | 16.313 | 33.409 | 2 |
| 2025-09-12T20:45:00 | 57.913944 | 9.228198 | 2.0 | 16.148 | 2 | 42.431 | 16.313 | 33.420 | 2 |
| 2025-09-12T20:46:00 | 57.913601 | 9.228701 | 2.0 | 16.147 | 2 | 42.459 | 16.313 | 33.445 | 2 |
| 2025-09-12T20:47:00 | 57.913208 | 9.229162 | 2.0 | 16.142 | 2 | 42.466 | 16.310 | 33.454 | 2 |
| 2025-09-12T20:48:00 | 57.912745 | 9.229569 | 2.0 | 16.135 | 2 | 42.475 | 16.306 | 33.465 | 2 |
| 2025-09-12T20:49:00 | 57.912341 | 9.230057 | 2.0 | 16.136 | 2 | 42.469 | 16.297 | 33.467 | 2 |
| 2025-09-12T20:50:00 | 57.911997 | 9.230562 | 2.0 | 16.141 | 2 | 42.528 | 16.303 | 33.514 | 2 |
| 2025-09-12T20:51:00 | 57.911662 | 9.231099 | 2.0 | 16.143 | 2 | 42.559 | 16.305 | 33.540 | 2 |
| 2025-09-12T20:52:00 | 57.911351 | 9.231511 | 2.0 | 16.139 | 2 | 42.568 | 16.306 | 33.547 | 2 |
| 2025-09-12T20:53:00 | 57.911099 | 9.231991 | 2.0 | 16.134 | 2 | 42.557 | 16.302 | 33.541 | 2 |
| 2025-09-12T20:54:00 | 57.910779 | 9.232414 | 2.0 | 16.142 | 2 | 42.548 | 16.300 | 33.534 | 2 |
| 2025-09-12T20:55:00 | 57.910349 | 9.232747 | 2.0 | 16.146 | 2 | 42.554 | 16.306 | 33.535 | 2 |
| 2025-09-12T20:56:00 | 57.909892 | 9.233117 | 2.0 | 16.155 | 2 | 42.560 | 16.311 | 33.536 | 2 |
| 2025-09-12T20:57:00 | 57.909424 | 9.233404 | 2.0 | 16.160 | 2 | 42.567 | 16.319 | 33.535 | 2 |
| 2025-09-12T20:58:00 | 57.908941 | 9.233790 | 2.0 | 16.166 | 2 | 42.572 | 16.324 | 33.535 | 2 |
| 2025-09-12T20:59:00 | 57.908425 | 9.234124 | 2.0 | 16.164 | 2 | 42.579 | 16.329 | 33.537 | 2 |
| 2025-09-12T21:00:00 | 57.907952 | 9.234471 | 2.0 | 16.162 | 2 | 42.576 | 16.327 | 33.536 | 2 |
| 2025-09-12T21:01:00 | 57.907473 | 9.234808 | 2.0 | 16.164 | 2 | 42.579 | 16.325 | 33.541 | 2 |
| 2025-09-12T21:02:00 | 57.907060 | 9.235273 | 2.0 | 16.166 | 2 | 42.584 | 16.328 | 33.542 | 2 |
| 2025-09-12T21:03:00 | 57.906731 | 9.235778 | 2.0 | 16.166 | 2 | 42.594 | 16.330 | 33.550 | 2 |
| 2025-09-12T21:04:00 | 57.906373 | 9.236251 | 2.0 | 16.163 | 2 | 42.597 | 16.330 | 33.552 | 2 |
| 2025-09-12T21:05:00 | 57.906001 | 9.236683 | 2.0 | 16.160 | 2 | 42.597 | 16.326 | 33.556 | 2 |
| 2025-09-12T21:06:00 | 57.905604 | 9.237125 | 2.0 | 16.166 | 2 | 42.595 | 16.325 | 33.555 | 2 |
| 2025-09-12T21:07:00 | 57.905217 | 9.237531 | 2.0 | 16.163 | 2 | 42.599 | 16.329 | 33.555 | 2 |
| 2025-09-12T21:08:00 | 57.904841 | 9.237995 | 2.0 | 16.159 | 2 | 42.599 | 16.326 | 33.557 | 2 |
| 2025-09-12T21:09:00 | 57.904413 | 9.238445 | 2.0 | 16.153 | 2 | 42.602 | 16.321 | 33.564 | 2 |
| 2025-09-12T21:10:00 | 57.903976 | 9.238882 | 2.0 | 16.148 | 2 | 42.607 | 16.316 | 33.573 | 2 |
| 2025-09-12T21:11:00 | 57.903559 | 9.239346 | 2.0 | 16.147 | 2 | 42.617 | 16.312 | 33.585 | 2 |
| 2025-09-12T21:12:00 | 57.903145 | 9.239781 | 2.0 | 16.150 | 2 | 42.629 | 16.312 | 33.596 | 2 |
| 2025-09-12T21:13:00 | 57.902753 | 9.240401 | 2.0 | 16.152 | 2 | 42.641 | 16.314 | 33.604 | 2 |
| 2025-09-12T21:14:00 | 57.902349 | 9.240848 | 2.0 | 16.154 | 2 | 42.662 | 16.317 | 33.620 | 2 |
| 2025-09-12T21:15:00 | 57.901899 | 9.241236 | 2.0 | 16.158 | 2 | 42.690 | 16.317 | 33.645 | 2 |
| 2025-09-12T21:16:00 | 57.901461 | 9.241706 | 2.0 | 16.164 | 2 | 42.723 | 16.322 | 33.670 | 2 |
| 2025-09-12T21:17:00 | 57.901025 | 9.242120 | 2.0 | 16.179 | 2 | 42.759 | 16.330 | 33.695 | 2 |
| 2025-09-12T21:18:00 | 57.900593 | 9.242598 | 2.0 | 16.193 | 2 | 42.802 | 16.345 | 33.720 | 2 |
| 2025-09-12T21:19:00 | 57.900168 | 9.243108 | 2.0 | 16.205 | 2 | 42.842 | 16.360 | 33.743 | 2 |
| 2025-09-12T21:20:00 | 57.899740 | 9.243534 | 2.0 | 16.213 | 2 | 42.868 | 16.367 | 33.760 | 2 |
| 2025-09-12T21:21:00 | 57.899275 | 9.243975 | 2.0 | 16.227 | 2 | 42.899 | 16.382 | 33.774 | 2 |
| 2025-09-12T21:22:00 | 57.898816 | 9.244418 | 2.0 | 16.215 | 2 | 42.905 | 16.388 | 33.774 | 2 |
| 2025-09-12T21:23:00 | 57.898345 | 9.244811 | 2.0 | 16.215 | 2 | 42.868 | 16.378 | 33.750 | 2 |
| 2025-09-12T21:24:00 | 57.897881 | 9.245242 | 2.0 | 16.212 | 2 | 42.859 | 16.380 | 33.741 | 2 |
| 2025-09-12T21:25:00 | 57.897469 | 9.245670 | 2.0 | 16.216 | 2 | 42.844 | 16.376 | 33.731 | 2 |
| 2025-09-12T21:26:00 | 57.897032 | 9.246049 | 2.0 | 16.213 | 2 | 42.793 | 16.378 | 33.684 | 2 |
| 2025-09-12T21:27:00 | 57.896581 | 9.246441 | 2.0 | 16.217 | 2 | 42.790 | 16.374 | 33.685 | 2 |
| 2025-09-12T21:28:00 | 57.896122 | 9.246819 | 2.0 | 16.205 | 2 | 42.854 | 16.379 | 33.737 | 2 |
| 2025-09-12T21:29:00 | 57.895641 | 9.247247 | 2.0 | 16.197 | 2 | 42.841 | 16.371 | 33.732 | 2 |
| 2025-09-12T21:30:00 | 57.895163 | 9.247645 | 2.0 | 16.205 | 2 | 42.814 | 16.361 | 33.717 | 2 |
| 2025-09-12T21:31:00 | 57.894712 | 9.248099 | 2.0 | 16.207 | 2 | 42.840 | 16.368 | 33.734 | 2 |
| 2025-09-12T21:32:00 | 57.894262 | 9.248560 | 2.0 | 16.217 | 2 | 42.882 | 16.374 | 33.766 | 2 |
| 2025-09-12T21:33:00 | 57.893816 | 9.249019 | 2.0 | 16.217 | 2 | 42.891 | 16.383 | 33.766 | 2 |
| 2025-09-12T21:34:00 | 57.893390 | 9.249470 | 2.0 | 16.219 | 2 | 42.894 | 16.380 | 33.771 | 2 |
| 2025-09-12T21:35:00 | 57.893007 | 9.249908 | 2.0 | 16.220 | 2 | 42.911 | 16.383 | 33.784 | 2 |
| 2025-09-12T21:36:00 | 57.892622 | 9.250356 | 2.0 | 16.226 | 2 | 42.910 | 16.384 | 33.782 | 2 |
| 2025-09-12T21:37:00 | 57.892296 | 9.250883 | 2.0 | 16.225 | 2 | 42.940 | 16.387 | 33.806 | 2 |
| 2025-09-12T21:38:00 | 57.891939 | 9.251335 | 2.0 | 16.229 | 2 | 42.956 | 16.388 | 33.819 | 2 |
| 2025-09-12T21:39:00 | 57.891589 | 9.251648 | 2.0 | 16.233 | 2 | 42.975 | 16.393 | 33.832 | 2 |
| 2025-09-12T21:40:00 | 57.891242 | 9.252011 | 2.0 | 16.231 | 2 | 42.992 | 16.397 | 33.843 | 2 |
| 2025-09-12T21:41:00 | 57.890872 | 9.252432 | 2.0 | 16.235 | 2 | 42.995 | 16.395 | 33.848 | 2 |
| 2025-09-12T21:42:00 | 57.890474 | 9.252742 | 2.0 | 16.232 | 2 | 43.000 | 16.396 | 33.851 | 2 |
| 2025-09-12T21:43:00 | 57.890023 | 9.253070 | 2.0 | 16.230 | 2 | 43.003 | 16.394 | 33.855 | 2 |
| 2025-09-12T21:44:00 | 57.889545 | 9.253383 | 2.0 | 16.223 | 2 | 43.000 | 16.390 | 33.856 | 2 |
| 2025-09-12T21:45:00 | 57.889070 | 9.253679 | 2.0 | 16.220 | 2 | 42.999 | 16.386 | 33.859 | 2 |
| 2025-09-12T21:46:00 | 57.888591 | 9.253929 | 2.0 | 16.212 | 2 | 42.992 | 16.381 | 33.857 | 2 |
| 2025-09-12T21:47:00 | 57.888019 | 9.254147 | 2.0 | 16.209 | 2 | 42.981 | 16.375 | 33.852 | 2 |
| 2025-09-12T21:48:00 | 57.887399 | 9.254388 | 2.0 | 16.214 | 2 | 42.991 | 16.374 | 33.862 | 2 |
| 2025-09-12T21:49:00 | 57.886828 | 9.254732 | 2.0 | 16.212 | 2 | 43.002 | 16.377 | 33.869 | 2 |
| 2025-09-12T21:50:00 | 57.886418 | 9.255176 | 2.0 | 16.209 | 2 | 43.003 | 16.375 | 33.872 | 2 |
| 2025-09-12T21:51:00 | 57.885988 | 9.255594 | 2.0 | 16.209 | 2 | 42.999 | 16.372 | 33.871 | 2 |
| 2025-09-12T21:52:00 | 57.885485 | 9.255890 | 2.0 | 16.203 | 2 | 42.997 | 16.370 | 33.871 | 2 |
| 2025-09-12T21:53:00 | 57.884962 | 9.256194 | 2.0 | 16.200 | 2 | 42.993 | 16.366 | 33.870 | 2 |
| 2025-09-12T21:54:00 | 57.884402 | 9.256464 | 2.0 | 16.201 | 2 | 42.993 | 16.364 | 33.872 | 2 |
| 2025-09-12T21:55:00 | 57.883815 | 9.256671 | 2.0 | 16.200 | 2 | 42.999 | 16.364 | 33.877 | 2 |
| 2025-09-12T21:56:00 | 57.883213 | 9.256926 | 2.0 | 16.195 | 2 | 43.004 | 16.362 | 33.884 | 2 |
| 2025-09-12T21:57:00 | 57.882695 | 9.257260 | 2.0 | 16.197 | 2 | 43.004 | 16.359 | 33.886 | 2 |
| 2025-09-12T21:58:00 | 57.882263 | 9.257576 | 2.0 | 16.204 | 2 | 43.024 | 16.363 | 33.900 | 2 |
| 2025-09-12T21:59:00 | 57.881846 | 9.258028 | 2.0 | 16.194 | 2 | 43.036 | 16.365 | 33.909 | 2 |
| 2025-09-12T22:00:00 | 57.881441 | 9.258470 | 2.0 | 16.250 | 2 | 43.033 | 16.361 | 33.910 | 2 |
| 2025-09-12T22:01:00 | 57.881078 | 9.258886 | 2.0 | 16.266 | 2 | 43.153 | 16.412 | 33.972 | 2 |
| 2025-09-12T22:02:00 | 57.880679 | 9.259248 | 2.0 | 16.266 | 2 | 43.183 | 16.425 | 33.988 | 2 |
| 2025-09-12T22:03:00 | 57.880271 | 9.259583 | 2.0 | 16.272 | 2 | 43.192 | 16.430 | 33.991 | 2 |
| 2025-09-12T22:04:00 | 57.879831 | 9.259958 | 2.0 | 16.273 | 2 | 43.199 | 16.434 | 33.994 | 2 |
| 2025-09-12T22:05:00 | 57.879407 | 9.260392 | 2.0 | 16.286 | 2 | 43.204 | 16.436 | 33.997 | 2 |
| 2025-09-12T22:06:00 | 57.878982 | 9.260784 | 2.0 | 16.291 | 2 | 43.218 | 16.449 | 33.998 | 2 |
| 2025-09-12T22:07:00 | 57.878568 | 9.261212 | 2.0 | 16.288 | 2 | 43.224 | 16.452 | 34.001 | 2 |
| 2025-09-12T22:08:00 | 57.878140 | 9.261557 | 2.0 | 16.290 | 2 | 43.219 | 16.449 | 33.999 | 2 |
| 2025-09-12T22:09:00 | 57.877601 | 9.261867 | 2.0 | 16.287 | 2 | 43.223 | 16.452 | 34.000 | 2 |
| 2025-09-12T22:10:00 | 57.877052 | 9.261045 | 2.0 | 16.258 | 2 | 43.215 | 16.444 | 34.000 | 2 |
| 2025-09-12T22:11:00 | 57.876795 | 9.259572 | 2.0 | 16.247 | 2 | 43.173 | 16.420 | 33.983 | 2 |
| 2025-09-12T22:12:00 | 57.877060 | 9.257735 | 2.0 | 16.248 | 2 | 43.150 | 16.412 | 33.970 | 2 |
| 2025-09-12T22:13:00 | 57.877361 | 9.255701 | 2.0 | 16.248 | 2 | 43.143 | 16.411 | 33.964 | 2 |
| 2025-09-12T22:14:00 | 57.877652 | 9.253546 | 2.0 | 16.247 | 2 | 42.985 | 16.411 | 33.825 | 2 |
| 2025-09-12T22:15:00 | 57.877974 | 9.251314 | 2.0 | 16.243 | 2 | 43.137 | 16.408 | 33.962 | 2 |
| 2025-09-12T22:16:00 | 57.878618 | 9.249023 | 2.0 | 16.238 | 2 | 43.131 | 16.404 | 33.960 | 2 |
| 2025-09-12T22:17:00 | 57.879904 | 9.246368 | 2.0 | 16.236 | 2 | 42.970 | 16.401 | 33.821 | 2 |
| 2025-09-12T22:18:00 | 57.882131 | 9.244910 | 2.0 | 16.216 | 2 | 43.071 | 16.393 | 33.916 | 2 |
| 2025-09-12T22:19:00 | 57.884822 | 9.245871 | 2.0 | 16.231 | 2 | 43.062 | 16.384 | 33.916 | 2 |
| 2025-09-12T22:20:00 | 57.887603 | 9.246712 | 2.0 | 16.249 | 2 | 43.020 | 16.398 | 33.867 | 2 |
| 2025-09-12T22:21:00 | 57.890410 | 9.247364 | 2.0 | 16.244 | 2 | 42.641 | 16.412 | 33.522 | 2 |
| 2025-09-12T22:22:00 | 57.893200 | 9.248122 | 2.0 | 16.224 | 2 | 42.774 | 16.404 | 33.646 | 2 |
| 2025-09-12T22:23:00 | 57.896086 | 9.248882 | 2.0 | 16.209 | 2 | 42.409 | 16.387 | 33.339 | 2 |
| 2025-09-12T22:24:00 | 57.898948 | 9.249684 | 2.0 | 16.187 | 2 | 42.507 | 16.372 | 33.438 | 2 |
| 2025-09-12T22:25:00 | 57.901770 | 9.250430 | 2.0 | 16.167 | 2 | 42.678 | 16.350 | 33.607 | 2 |
| 2025-09-12T22:26:00 | 57.904616 | 9.251129 | 2.0 | 16.172 | 2 | 42.317 | 16.336 | 33.301 | 2 |
| 2025-09-12T22:27:00 | 57.907457 | 9.251843 | 2.0 | 16.154 | 2 | 42.253 | 16.334 | 33.246 | 2 |
| 2025-09-12T22:28:00 | 57.910266 | 9.252698 | 2.0 | 16.133 | 2 | 42.169 | 16.317 | 33.187 | 2 |
| 2025-09-12T22:29:00 | 57.912989 | 9.253308 | 2.0 | 16.126 | 2 | 42.131 | 16.297 | 33.170 | 2 |
| 2025-09-12T22:30:00 | 57.915754 | 9.254084 | 2.0 | 16.126 | 2 | 42.472 | 16.292 | 33.474 | 2 |
| 2025-09-12T22:31:00 | 57.918499 | 9.254676 | 2.0 | 16.133 | 2 | 42.262 | 16.292 | 33.289 | 2 |
| 2025-09-12T22:32:00 | 57.921295 | 9.255471 | 2.0 | 16.149 | 2 | 42.396 | 16.301 | 33.400 | 2 |
| 2025-09-12T22:33:00 | 57.924104 | 9.256224 | 2.0 | 16.170 | 2 | 42.086 | 16.315 | 33.115 | 2 |
| 2025-09-12T22:34:00 | 57.926933 | 9.257008 | 2.0 | 16.301 | 2 | 41.995 | 16.359 | 32.999 | 2 |
| 2025-09-12T22:35:00 | 57.929757 | 9.257639 | 2.0 | 16.408 | 2 | 42.214 | 16.477 | 33.093 | 2 |
| 2025-09-12T22:36:00 | 57.932556 | 9.258470 | 2.0 | 16.486 | 2 | 42.085 | 16.577 | 32.898 | 2 |
| 2025-09-12T22:37:00 | 57.935337 | 9.259211 | 2.0 | 16.591 | 2 | 41.875 | 16.662 | 32.645 | 2 |
| 2025-09-12T22:38:00 | 57.938121 | 9.259895 | 2.0 | 16.665 | 2 | 41.789 | 16.756 | 32.494 | 2 |
| 2025-09-12T22:39:00 | 57.940919 | 9.260684 | 2.0 | 16.702 | 2 | 41.879 | 16.824 | 32.517 | 2 |
| 2025-09-12T22:40:00 | 57.943703 | 9.261417 | 2.0 | 16.741 | 2 | 41.945 | 16.867 | 32.539 | 2 |
| 2025-09-12T22:41:00 | 57.946463 | 9.262140 | 2.0 | 16.773 | 2 | 41.918 | 16.903 | 32.487 | 2 |
| 2025-09-12T22:42:00 | 57.949206 | 9.262933 | 2.0 | 16.801 | 2 | 41.937 | 16.936 | 32.477 | 2 |
| 2025-09-12T22:43:00 | 57.951892 | 9.263652 | 2.0 | 16.835 | 2 | 41.886 | 16.963 | 32.411 | 2 |
| 2025-09-12T22:44:00 | 57.954622 | 9.264326 | 2.0 | 16.867 | 2 | 41.860 | 16.996 | 32.362 | 2 |
| 2025-09-12T22:45:00 | 57.957377 | 9.265077 | 2.0 | 16.889 | 2 | 41.900 | 17.026 | 32.372 | 2 |
| 2025-09-12T22:46:00 | 57.960133 | 9.265705 | 2.0 | 16.908 | 2 | 41.933 | 17.050 | 32.381 | 2 |
| 2025-09-12T22:47:00 | 57.962929 | 9.266458 | 2.0 | 16.924 | 2 | 41.871 | 17.069 | 32.313 | 2 |
| 2025-09-12T22:48:00 | 57.965735 | 9.267223 | 2.0 | 16.925 | 2 | 41.914 | 17.081 | 32.340 | 2 |
| 2025-09-12T22:49:00 | 57.968519 | 9.267941 | 2.0 | 16.927 | 2 | 41.952 | 17.084 | 32.370 | 2 |
| 2025-09-12T22:50:00 | 57.971221 | 9.268695 | 2.0 | 16.925 | 2 | 41.936 | 17.085 | 32.356 | 2 |
| 2025-09-12T22:51:00 | 57.973973 | 9.269390 | 2.0 | 16.921 | 2 | 41.904 | 17.083 | 32.330 | 2 |
| 2025-09-12T22:52:00 | 57.976618 | 9.270081 | 2.0 | 16.915 | 2 | 41.929 | 17.081 | 32.353 | 2 |
| 2025-09-12T22:53:00 | 57.978908 | 9.270535 | 2.0 | 16.909 | 2 | 41.939 | 17.073 | 32.368 | 2 |
| 2025-09-12T22:54:00 | 57.980859 | 9.271534 | 2.0 | 16.905 | 2 | 41.930 | 17.068 | 32.364 | 2 |
| 2025-09-12T22:55:00 | 57.982143 | 9.273797 | 2.0 | 16.900 | 2 | 41.943 | 17.063 | 32.380 | 2 |
| 2025-09-12T22:56:00 | 57.982808 | 9.276541 | 2.0 | 16.897 | 2 | 41.960 | 17.059 | 32.397 | 2 |
| 2025-09-12T22:57:00 | 57.982987 | 9.279158 | 2.0 | 16.897 | 2 | 41.975 | 17.057 | 32.412 | 2 |
| 2025-09-12T22:58:00 | 57.982837 | 9.281619 | 2.0 | 16.897 | 2 | 41.992 | 17.057 | 32.427 | 2 |
| 2025-09-12T22:59:00 | 57.982506 | 9.283870 | 2.0 | 16.897 | 2 | 41.969 | 17.056 | 32.408 | 2 |
| 2025-09-12T23:00:00 | 57.981981 | 9.285899 | 2.0 | 16.898 | 2 | 42.012 | 17.055 | 32.446 | 2 |
| 2025-09-12T23:01:00 | 57.981276 | 9.287631 | 2.0 | 16.898 | 2 | 42.011 | 17.057 | 32.443 | 2 |
| 2025-09-12T23:02:00 | 57.980539 | 9.289219 | 2.0 | 16.900 | 2 | 42.028 | 17.057 | 32.458 | 2 |
| 2025-09-12T23:03:00 | 57.979698 | 9.290401 | 2.0 | 16.899 | 2 | 42.023 | 17.058 | 32.453 | 2 |
| 2025-09-12T23:04:00 | 57.978864 | 9.291138 | 2.0 | 16.899 | 2 | 42.036 | 17.058 | 32.464 | 2 |
| 2025-09-12T23:05:00 | 57.978212 | 9.291623 | 2.0 | 16.898 | 2 | 42.034 | 17.057 | 32.463 | 2 |
| 2025-09-12T23:06:00 | 57.977837 | 9.292247 | 2.0 | 16.896 | 2 | 42.041 | 17.058 | 32.468 | 2 |
| 2025-09-12T23:07:00 | 57.977648 | 9.293026 | 2.0 | 16.895 | 2 | 42.040 | 17.056 | 32.469 | 2 |
| 2025-09-12T23:08:00 | 57.977467 | 9.293777 | 2.0 | 16.894 | 2 | 42.042 | 17.053 | 32.473 | 2 |
| 2025-09-12T23:09:00 | 57.977122 | 9.294179 | 2.0 | 16.895 | 2 | 42.042 | 17.053 | 32.473 | 2 |
| 2025-09-12T23:10:00 | 57.976638 | 9.294292 | 2.0 | 16.896 | 2 | 42.046 | 17.053 | 32.476 | 2 |
| 2025-09-12T23:11:00 | 57.976043 | 9.294583 | 2.0 | 16.896 | 2 | 42.048 | 17.055 | 32.477 | 2 |
| 2025-09-12T23:12:00 | 57.975469 | 9.295112 | 2.0 | 16.897 | 2 | 42.050 | 17.055 | 32.478 | 2 |
| 2025-09-12T23:13:00 | 57.974933 | 9.295534 | 2.0 | 16.896 | 2 | 42.051 | 17.057 | 32.478 | 2 |
| 2025-09-12T23:14:00 | 57.974501 | 9.296046 | 2.0 | 16.898 | 2 | 42.049 | 17.055 | 32.477 | 2 |
| 2025-09-12T23:15:00 | 57.974097 | 9.296551 | 2.0 | 16.901 | 2 | 42.050 | 17.058 | 32.476 | 2 |
| 2025-09-12T23:16:00 | 57.973636 | 9.296951 | 2.0 | 16.899 | 2 | 42.052 | 17.059 | 32.477 | 2 |
| 2025-09-12T23:17:00 | 57.973200 | 9.297340 | 2.0 | 16.899 | 2 | 42.050 | 17.058 | 32.476 | 2 |
| 2025-09-12T23:18:00 | 57.972734 | 9.297711 | 2.0 | 16.901 | 2 | 42.051 | 17.058 | 32.477 | 2 |
| 2025-09-12T23:19:00 | 57.972242 | 9.298118 | 2.0 | 16.903 | 2 | 42.053 | 17.059 | 32.478 | 2 |
| 2025-09-12T23:20:00 | 57.971736 | 9.298514 | 2.0 | 16.901 | 2 | 42.056 | 17.061 | 32.479 | 2 |
| 2025-09-12T23:21:00 | 57.971208 | 9.298950 | 2.0 | 16.904 | 2 | 42.057 | 17.061 | 32.479 | 2 |
| 2025-09-12T23:22:00 | 57.970717 | 9.299599 | 2.0 | 16.900 | 2 | 42.058 | 17.061 | 32.480 | 2 |
| 2025-09-12T23:23:00 | 57.970269 | 9.300201 | 2.0 | 16.901 | 2 | 42.057 | 17.059 | 32.481 | 2 |
| 2025-09-12T23:24:00 | 57.969833 | 9.300793 | 2.0 | 16.901 | 2 | 42.060 | 17.060 | 32.483 | 2 |
| 2025-09-12T23:25:00 | 57.969355 | 9.301377 | 2.0 | 16.901 | 2 | 42.060 | 17.060 | 32.483 | 2 |
| 2025-09-12T23:26:00 | 57.968883 | 9.301968 | 2.0 | 16.898 | 2 | 42.060 | 17.059 | 32.484 | 2 |
| 2025-09-12T23:27:00 | 57.968404 | 9.302530 | 2.0 | 16.895 | 2 | 42.060 | 17.057 | 32.485 | 2 |
| 2025-09-12T23:28:00 | 57.967916 | 9.303181 | 2.0 | 16.892 | 2 | 42.058 | 17.054 | 32.486 | 2 |
| 2025-09-12T23:29:00 | 57.967445 | 9.303732 | 2.0 | 16.888 | 2 | 42.057 | 17.051 | 32.488 | 2 |
| 2025-09-12T23:30:00 | 57.966963 | 9.304273 | 2.0 | 16.882 | 2 | 42.058 | 17.046 | 32.492 | 2 |
| 2025-09-12T23:31:00 | 57.966454 | 9.304787 | 2.0 | 16.875 | 2 | 42.053 | 17.040 | 32.493 | 2 |
| 2025-09-12T23:32:00 | 57.965965 | 9.305325 | 2.0 | 16.873 | 2 | 42.049 | 17.034 | 32.494 | 2 |
| 2025-09-12T23:33:00 | 57.965491 | 9.305880 | 2.0 | 16.867 | 2 | 42.049 | 17.031 | 32.497 | 2 |
| 2025-09-12T23:34:00 | 57.965033 | 9.306446 | 2.0 | 16.862 | 2 | 42.045 | 17.027 | 32.497 | 2 |
| 2025-09-12T23:35:00 | 57.964671 | 9.307022 | 2.0 | 16.854 | 2 | 42.033 | 17.020 | 32.492 | 2 |
| 2025-09-12T23:36:00 | 57.964183 | 9.307434 | 2.0 | 16.850 | 2 | 42.035 | 17.014 | 32.498 | 2 |
| 2025-09-12T23:37:00 | 57.963655 | 9.307810 | 2.0 | 16.838 | 2 | 42.036 | 17.008 | 32.504 | 2 |
| 2025-09-12T23:38:00 | 57.963088 | 9.308203 | 2.0 | 16.828 | 2 | 42.027 | 16.996 | 32.506 | 2 |
| 2025-09-12T23:39:00 | 57.962510 | 9.308646 | 2.0 | 16.817 | 2 | 42.019 | 16.987 | 32.506 | 2 |
| 2025-09-12T23:40:00 | 57.961969 | 9.309053 | 2.0 | 16.807 | 2 | 42.016 | 16.975 | 32.513 | 2 |
| 2025-09-12T23:41:00 | 57.961452 | 9.309487 | 2.0 | 16.801 | 2 | 42.011 | 16.966 | 32.516 | 2 |
| 2025-09-12T23:42:00 | 57.960926 | 9.309871 | 2.0 | 16.795 | 2 | 42.015 | 16.961 | 32.524 | 2 |
| 2025-09-12T23:43:00 | 57.960410 | 9.310292 | 2.0 | 16.790 | 2 | 42.018 | 16.955 | 32.531 | 2 |
| 2025-09-12T23:44:00 | 57.959916 | 9.310725 | 2.0 | 16.787 | 2 | 42.019 | 16.951 | 32.535 | 2 |
| 2025-09-12T23:45:00 | 57.959431 | 9.311205 | 2.0 | 16.780 | 2 | 42.018 | 16.946 | 32.539 | 2 |
| 2025-09-12T23:46:00 | 57.958984 | 9.311734 | 2.0 | 16.775 | 2 | 42.006 | 16.941 | 32.532 | 2 |
| 2025-09-12T23:47:00 | 57.958585 | 9.312236 | 2.0 | 16.773 | 2 | 41.968 | 16.935 | 32.504 | 2 |
| 2025-09-12T23:48:00 | 57.958092 | 9.312620 | 2.0 | 16.767 | 2 | 42.007 | 16.932 | 32.540 | 2 |
| 2025-09-12T23:49:00 | 57.957627 | 9.313097 | 2.0 | 16.760 | 2 | 42.007 | 16.927 | 32.545 | 2 |
| 2025-09-12T23:50:00 | 57.957194 | 9.313596 | 2.0 | 16.757 | 2 | 42.004 | 16.921 | 32.547 | 2 |
| 2025-09-12T23:51:00 | 57.956792 | 9.314111 | 2.0 | 16.754 | 2 | 42.001 | 16.918 | 32.547 | 2 |
| 2025-09-12T23:52:00 | 57.956406 | 9.314646 | 2.0 | 16.751 | 2 | 42.000 | 16.913 | 32.550 | 2 |
| 2025-09-12T23:53:00 | 57.955921 | 9.315103 | 2.0 | 16.745 | 2 | 42.001 | 16.911 | 32.552 | 2 |
| 2025-09-12T23:54:00 | 57.955453 | 9.315578 | 2.0 | 16.741 | 2 | 41.999 | 16.906 | 32.555 | 2 |
| 2025-09-12T23:55:00 | 57.954925 | 9.315931 | 2.0 | 16.734 | 2 | 41.996 | 16.900 | 32.557 | 2 |
| 2025-09-12T23:56:00 | 57.954370 | 9.316279 | 2.0 | 16.731 | 2 | 41.994 | 16.896 | 32.558 | 2 |
| 2025-09-12T23:57:00 | 57.953818 | 9.316664 | 2.0 | 16.725 | 2 | 41.993 | 16.891 | 32.562 | 2 |
| 2025-09-12T23:58:00 | 57.953265 | 9.317068 | 2.0 | 16.721 | 2 | 41.992 | 16.885 | 32.566 | 2 |
| 2025-09-12T23:59:00 | 57.952720 | 9.317511 | 2.0 | 16.714 | 2 | 41.989 | 16.880 | 32.567 | 2 |
| 2025-09-13T00:00:00 | 57.952176 | 9.317814 | 2.0 | 16.711 | 2 | 41.986 | 16.874 | 32.569 | 2 |
| 2025-09-13T00:01:00 | 57.951619 | 9.318167 | 2.0 | 16.705 | 2 | 41.983 | 16.871 | 32.569 | 2 |
| 2025-09-13T00:02:00 | 57.951033 | 9.318518 | 2.0 | 16.699 | 2 | 41.983 | 16.865 | 32.574 | 2 |
| 2025-09-13T00:03:00 | 57.950437 | 9.318831 | 2.0 | 16.693 | 2 | 41.984 | 16.860 | 32.579 | 2 |
| 2025-09-13T00:04:00 | 57.949842 | 9.319194 | 2.0 | 16.684 | 2 | 41.984 | 16.852 | 32.585 | 2 |
| 2025-09-13T00:05:00 | 57.949293 | 9.319597 | 2.0 | 16.673 | 2 | 41.946 | 16.844 | 32.559 | 2 |
| 2025-09-13T00:06:00 | 57.948785 | 9.320080 | 2.0 | 16.666 | 2 | 41.957 | 16.835 | 32.576 | 2 |
| 2025-09-13T00:07:00 | 57.948293 | 9.320548 | 2.0 | 16.655 | 2 | 41.960 | 16.827 | 32.585 | 2 |
| 2025-09-13T00:08:00 | 57.947770 | 9.320966 | 2.0 | 16.641 | 2 | 41.911 | 16.814 | 32.553 | 2 |
| 2025-09-13T00:09:00 | 57.947212 | 9.321340 | 2.0 | 16.629 | 2 | 41.957 | 16.802 | 32.603 | 2 |
| 2025-09-13T00:10:00 | 57.946674 | 9.321769 | 2.0 | 16.613 | 2 | 41.951 | 16.788 | 32.609 | 2 |
| 2025-09-13T00:11:00 | 57.946179 | 9.322156 | 2.0 | 16.589 | 2 | 41.973 | 16.770 | 32.642 | 2 |
| 2025-09-13T00:12:00 | 57.945740 | 9.322636 | 2.0 | 16.575 | 2 | 41.978 | 16.750 | 32.663 | 2 |
| 2025-09-13T00:13:00 | 57.945294 | 9.323118 | 2.0 | 16.565 | 2 | 42.004 | 16.737 | 32.696 | 2 |
| 2025-09-13T00:14:00 | 57.944801 | 9.323675 | 2.0 | 16.552 | 2 | 42.005 | 16.725 | 32.707 | 2 |
| 2025-09-13T00:15:00 | 57.944272 | 9.324348 | 2.0 | 16.541 | 2 | 42.025 | 16.713 | 32.734 | 2 |
| 2025-09-13T00:16:00 | 57.943739 | 9.324944 | 2.0 | 16.530 | 2 | 42.026 | 16.701 | 32.745 | 2 |
| 2025-09-13T00:17:00 | 57.943261 | 9.325653 | 2.0 | 16.519 | 2 | 42.026 | 16.691 | 32.753 | 2 |
| 2025-09-13T00:18:00 | 57.942765 | 9.326249 | 2.0 | 16.507 | 2 | 42.026 | 16.679 | 32.763 | 2 |
| 2025-09-13T00:19:00 | 57.942246 | 9.326950 | 2.0 | 16.489 | 2 | 42.032 | 16.667 | 32.778 | 2 |
| 2025-09-13T00:20:00 | 57.941794 | 9.327650 | 2.0 | 16.475 | 2 | 42.031 | 16.651 | 32.790 | 2 |
| 2025-09-13T00:21:00 | 57.941370 | 9.328390 | 2.0 | 16.460 | 2 | 42.031 | 16.636 | 32.802 | 2 |
| 2025-09-13T00:22:00 | 57.940978 | 9.329103 | 2.0 | 16.444 | 2 | 42.032 | 16.622 | 32.815 | 2 |
| 2025-09-13T00:23:00 | 57.940619 | 9.329837 | 2.0 | 16.428 | 2 | 42.032 | 16.603 | 32.830 | 2 |
| 2025-09-13T00:24:00 | 57.940200 | 9.330482 | 2.0 | 16.414 | 2 | 42.038 | 16.589 | 32.847 | 2 |
| 2025-09-13T00:25:00 | 57.939732 | 9.331080 | 2.0 | 16.401 | 2 | 42.052 | 16.576 | 32.870 | 2 |
| 2025-09-13T00:26:00 | 57.939253 | 9.331712 | 2.0 | 16.380 | 2 | 41.654 | 16.561 | 32.535 | 2 |
| 2025-09-13T00:27:00 | 57.938829 | 9.332303 | 2.0 | 16.357 | 2 | 42.006 | 16.541 | 32.858 | 2 |
| 2025-09-13T00:28:00 | 57.938389 | 9.332861 | 2.0 | 16.343 | 2 | 42.049 | 16.520 | 32.913 | 2 |
| 2025-09-13T00:29:00 | 57.937951 | 9.333380 | 2.0 | 16.329 | 2 | 42.075 | 16.504 | 32.949 | 2 |
| 2025-09-13T00:30:00 | 57.937491 | 9.333905 | 2.0 | 16.311 | 2 | 41.761 | 16.490 | 32.686 | 2 |
| 2025-09-13T00:31:00 | 57.937013 | 9.334430 | 2.0 | 16.297 | 2 | 41.977 | 16.472 | 32.890 | 2 |
| 2025-09-13T00:32:00 | 57.936566 | 9.334961 | 2.0 | 16.287 | 2 | 42.150 | 16.461 | 33.050 | 2 |
| 2025-09-13T00:33:00 | 57.936109 | 9.335557 | 2.0 | 16.266 | 2 | 42.152 | 16.447 | 33.064 | 2 |
| 2025-09-13T00:34:00 | 57.935643 | 9.336093 | 2.0 | 16.254 | 2 | 42.153 | 16.429 | 33.079 | 2 |
| 2025-09-13T00:35:00 | 57.935180 | 9.336533 | 2.0 | 16.237 | 2 | 42.160 | 16.416 | 33.096 | 2 |
| 2025-09-13T00:36:00 | 57.934677 | 9.336970 | 2.0 | 16.211 | 2 | 41.985 | 16.399 | 32.957 | 2 |
| 2025-09-13T00:37:00 | 57.934138 | 9.337533 | 2.0 | 16.188 | 2 | 41.954 | 16.374 | 32.950 | 2 |
| 2025-09-13T00:38:00 | 57.933630 | 9.338042 | 2.0 | 16.171 | 2 | 42.186 | 16.352 | 33.172 | 2 |
| 2025-09-13T00:39:00 | 57.933192 | 9.338491 | 2.0 | 16.146 | 2 | 42.030 | 16.333 | 33.051 | 2 |
| 2025-09-13T00:40:00 | 57.932682 | 9.338924 | 2.0 | 16.150 | 2 | 41.998 | 16.310 | 33.042 | 2 |
| 2025-09-13T00:41:00 | 57.932234 | 9.339444 | 2.0 | 16.173 | 2 | 42.110 | 16.321 | 33.131 | 2 |
| 2025-09-13T00:42:00 | 57.931809 | 9.339911 | 2.0 | 16.174 | 2 | 42.302 | 16.337 | 33.287 | 2 |
| 2025-09-13T00:43:00 | 57.931388 | 9.340440 | 2.0 | 16.166 | 2 | 42.318 | 16.335 | 33.303 | 2 |
| 2025-09-13T00:44:00 | 57.930942 | 9.340941 | 2.0 | 16.165 | 2 | 42.469 | 16.331 | 33.439 | 2 |
| 2025-09-13T00:45:00 | 57.930438 | 9.341420 | 2.0 | 16.155 | 2 | 42.408 | 16.327 | 33.388 | 2 |
| 2025-09-13T00:46:00 | 57.929949 | 9.341891 | 2.0 | 16.144 | 2 | 42.549 | 16.317 | 33.521 | 2 |
| 2025-09-13T00:47:00 | 57.929421 | 9.342286 | 2.0 | 16.144 | 2 | 42.453 | 16.309 | 33.443 | 2 |
| 2025-09-13T00:48:00 | 57.928895 | 9.342780 | 2.0 | 16.139 | 2 | 42.546 | 16.306 | 33.528 | 2 |
| 2025-09-13T00:49:00 | 57.928395 | 9.343302 | 2.0 | 16.133 | 2 | 42.521 | 16.300 | 33.511 | 2 |
| 2025-09-13T00:50:00 | 57.927912 | 9.343824 | 2.0 | 16.127 | 2 | 42.543 | 16.296 | 33.533 | 2 |
| 2025-09-13T00:51:00 | 57.927401 | 9.344331 | 2.0 | 16.124 | 2 | 42.516 | 16.291 | 33.514 | 2 |
| 2025-09-13T00:52:00 | 57.926896 | 9.344804 | 2.0 | 16.113 | 2 | 42.567 | 16.287 | 33.562 | 2 |
| 2025-09-13T00:53:00 | 57.926350 | 9.345305 | 2.0 | 16.107 | 2 | 42.504 | 16.275 | 33.517 | 2 |
| 2025-09-13T00:54:00 | 57.925872 | 9.345875 | 2.0 | 16.101 | 2 | 42.464 | 16.269 | 33.486 | 2 |
| 2025-09-13T00:55:00 | 57.925408 | 9.346387 | 2.0 | 16.098 | 2 | 42.479 | 16.264 | 33.504 | 2 |
| 2025-09-13T00:56:00 | 57.924937 | 9.346962 | 2.0 | 16.096 | 2 | 42.511 | 16.262 | 33.534 | 2 |
| 2025-09-13T00:57:00 | 57.924448 | 9.347510 | 2.0 | 16.098 | 2 | 42.543 | 16.260 | 33.564 | 2 |
| 2025-09-13T00:58:00 | 57.924011 | 9.348064 | 2.0 | 16.109 | 2 | 42.593 | 16.264 | 33.604 | 2 |
| 2025-09-13T00:59:00 | 57.923620 | 9.348667 | 2.0 | 16.104 | 2 | 42.583 | 16.272 | 33.589 | 2 |
| 2025-09-13T01:00:00 | 57.923221 | 9.349332 | 2.0 | 16.111 | 2 | 42.594 | 16.269 | 33.601 | 2 |
| 2025-09-13T01:01:00 | 57.922810 | 9.350004 | 2.0 | 16.116 | 2 | 42.652 | 16.275 | 33.647 | 2 |
| 2025-09-13T01:02:00 | 57.922414 | 9.350629 | 2.0 | 16.123 | 2 | 42.681 | 16.281 | 33.668 | 2 |
| 2025-09-13T01:03:00 | 57.922061 | 9.351260 | 2.0 | 16.122 | 2 | 42.687 | 16.285 | 33.669 | 2 |
| 2025-09-13T01:04:00 | 57.921658 | 9.351771 | 2.0 | 16.125 | 2 | 42.691 | 16.285 | 33.673 | 2 |
| 2025-09-13T01:05:00 | 57.921189 | 9.352275 | 2.0 | 16.121 | 2 | 42.721 | 16.288 | 33.697 | 2 |
| 2025-09-13T01:06:00 | 57.920687 | 9.352774 | 2.0 | 16.145 | 2 | 42.705 | 16.287 | 33.684 | 2 |
| 2025-09-13T01:07:00 | 57.920183 | 9.353294 | 2.0 | 16.166 | 2 | 42.763 | 16.312 | 33.714 | 2 |
| 2025-09-13T01:08:00 | 57.919664 | 9.353754 | 2.0 | 16.156 | 2 | 42.792 | 16.323 | 33.730 | 2 |
| 2025-09-13T01:09:00 | 57.919131 | 9.354185 | 2.0 | 16.161 | 2 | 42.808 | 16.321 | 33.746 | 2 |
| 2025-09-13T01:10:00 | 57.918564 | 9.354661 | 2.0 | 16.174 | 2 | 42.805 | 16.326 | 33.739 | 2 |
| 2025-09-13T01:11:00 | 57.918089 | 9.355215 | 2.0 | 16.210 | 2 | 42.880 | 16.338 | 33.795 | 2 |
| 2025-09-13T01:12:00 | 57.917675 | 9.355832 | 2.0 | 16.226 | 2 | 43.034 | 16.381 | 33.894 | 2 |
| 2025-09-13T01:13:00 | 57.917262 | 9.356371 | 2.0 | 16.211 | 2 | 43.059 | 16.385 | 33.912 | 2 |
| 2025-09-13T01:14:00 | 57.916829 | 9.356843 | 2.0 | 16.205 | 2 | 43.069 | 16.372 | 33.932 | 2 |
| 2025-09-13T01:15:00 | 57.916364 | 9.357254 | 2.0 | 16.202 | 2 | 43.065 | 16.366 | 33.934 | 2 |
| 2025-09-13T01:16:00 | 57.915821 | 9.357603 | 2.0 | 16.195 | 2 | 43.070 | 16.364 | 33.940 | 2 |
| 2025-09-13T01:17:00 | 57.915237 | 9.356979 | 2.0 | 16.196 | 2 | 43.065 | 16.359 | 33.940 | 2 |
| 2025-09-13T01:18:00 | 57.915046 | 9.355338 | 2.0 | 16.203 | 2 | 43.063 | 16.360 | 33.937 | 2 |
| 2025-09-13T01:19:00 | 57.915242 | 9.353318 | 2.0 | 16.176 | 2 | 43.060 | 16.368 | 33.928 | 2 |
| 2025-09-13T01:20:00 | 57.915472 | 9.351156 | 2.0 | 16.144 | 2 | 42.878 | 16.326 | 33.803 | 2 |
| 2025-09-13T01:21:00 | 57.915936 | 9.348859 | 2.0 | 16.146 | 2 | 42.638 | 16.308 | 33.607 | 2 |
| 2025-09-13T01:22:00 | 57.916975 | 9.346348 | 2.0 | 16.147 | 2 | 42.640 | 16.311 | 33.606 | 2 |
| 2025-09-13T01:23:00 | 57.918996 | 9.344763 | 2.0 | 16.118 | 2 | 42.700 | 16.305 | 33.664 | 2 |
| 2025-09-13T01:24:00 | 57.921651 | 9.344657 | 2.0 | 16.108 | 2 | 42.406 | 16.283 | 33.424 | 2 |
| 2025-09-13T01:25:00 | 57.924408 | 9.344430 | 2.0 | 16.105 | 2 | 42.640 | 16.273 | 33.638 | 2 |
| 2025-09-13T01:26:00 | 57.927219 | 9.344080 | 2.0 | 16.104 | 2 | 42.501 | 16.270 | 33.518 | 2 |
| 2025-09-13T01:27:00 | 57.930032 | 9.343730 | 2.0 | 16.135 | 2 | 42.563 | 16.277 | 33.567 | 2 |
| 2025-09-13T01:28:00 | 57.932852 | 9.343397 | 2.0 | 16.130 | 2 | 42.467 | 16.302 | 33.461 | 2 |
| 2025-09-13T01:29:00 | 57.935637 | 9.343282 | 2.0 | 16.222 | 2 | 42.223 | 16.303 | 33.246 | 2 |
| 2025-09-13T01:30:00 | 57.938407 | 9.342974 | 2.0 | 16.353 | 2 | 41.967 | 16.409 | 32.933 | 2 |
| 2025-09-13T01:31:00 | 57.941184 | 9.342638 | 2.0 | 16.443 | 2 | 42.065 | 16.518 | 32.929 | 2 |
| 2025-09-13T01:32:00 | 57.943956 | 9.342371 | 2.0 | 16.509 | 2 | 41.826 | 16.611 | 32.644 | 2 |
| 2025-09-13T01:33:00 | 57.946772 | 9.342119 | 2.0 | 16.551 | 2 | 41.931 | 16.672 | 32.686 | 2 |
| 2025-09-13T01:34:00 | 57.949567 | 9.341857 | 2.0 | 16.596 | 2 | 41.684 | 16.717 | 32.434 | 2 |
| 2025-09-13T01:35:00 | 57.952357 | 9.341550 | 2.0 | 16.653 | 2 | 41.890 | 16.763 | 32.576 | 2 |
| 2025-09-13T01:36:00 | 57.955179 | 9.341337 | 2.0 | 16.688 | 2 | 41.874 | 16.815 | 32.520 | 2 |
| 2025-09-13T01:37:00 | 57.957953 | 9.341119 | 2.0 | 16.716 | 2 | 41.965 | 16.850 | 32.571 | 2 |
| 2025-09-13T01:38:00 | 57.960739 | 9.340781 | 2.0 | 16.746 | 2 | 41.972 | 16.877 | 32.555 | 2 |
| 2025-09-13T01:39:00 | 57.963548 | 9.340376 | 2.0 | 16.775 | 2 | 41.874 | 16.911 | 32.442 | 2 |
| 2025-09-13T01:40:00 | 57.966416 | 9.340317 | 2.0 | 16.788 | 2 | 41.860 | 16.936 | 32.410 | 2 |
| 2025-09-13T01:41:00 | 57.969271 | 9.340309 | 2.0 | 16.814 | 2 | 41.898 | 16.950 | 32.432 | 2 |
| 2025-09-13T01:42:00 | 57.972131 | 9.340323 | 2.0 | 16.838 | 2 | 41.859 | 16.976 | 32.377 | 2 |
| 2025-09-13T01:43:00 | 57.974995 | 9.340331 | 2.0 | 16.854 | 2 | 41.748 | 16.998 | 32.264 | 2 |
| 2025-09-13T01:44:00 | 57.977835 | 9.340423 | 2.0 | 16.867 | 2 | 41.947 | 17.015 | 32.422 | 2 |
| 2025-09-13T01:45:00 | 57.980671 | 9.340416 | 2.0 | 16.869 | 2 | 41.816 | 17.026 | 32.300 | 2 |
| 2025-09-13T01:46:00 | 57.983513 | 9.340319 | 2.0 | 16.864 | 2 | 41.965 | 17.027 | 32.428 | 2 |
| 2025-09-13T01:47:00 | 57.986399 | 9.340369 | 2.0 | 16.862 | 2 | 41.909 | 17.023 | 32.382 | 2 |
| 2025-09-13T01:48:00 | 57.989274 | 9.340532 | 2.0 | 16.857 | 2 | 41.948 | 17.022 | 32.417 | 2 |
| 2025-09-13T01:49:00 | 57.992129 | 9.341505 | 2.0 | 16.853 | 2 | 41.956 | 17.017 | 32.428 | 2 |
| 2025-09-13T01:50:00 | 57.995005 | 9.342489 | 2.0 | 16.846 | 2 | 41.834 | 17.012 | 32.327 | 2 |
| 2025-09-13T01:51:00 | 57.997885 | 9.343438 | 2.0 | 16.839 | 2 | 41.861 | 17.005 | 32.355 | 2 |
| 2025-09-13T01:52:00 | 58.000747 | 9.344633 | 2.0 | 16.833 | 2 | 41.886 | 16.999 | 32.382 | 2 |
| 2025-09-13T01:53:00 | 58.002816 | 9.348324 | 2.0 | 16.833 | 2 | 41.926 | 16.994 | 32.420 | 2 |
| 2025-09-13T01:54:00 | 58.003423 | 9.353533 | 2.0 | 16.832 | 2 | 41.914 | 16.994 | 32.410 | 2 |
| 2025-09-13T01:55:00 | 58.002442 | 9.358215 | 2.0 | 16.831 | 2 | 41.934 | 16.994 | 32.427 | 2 |
| 2025-09-13T01:56:00 | 58.000724 | 9.360463 | 2.0 | 16.831 | 2 | 41.950 | 16.993 | 32.442 | 2 |
| 2025-09-13T01:57:00 | 57.999518 | 9.361432 | 2.0 | 16.829 | 2 | 41.901 | 16.991 | 32.401 | 2 |
| 2025-09-13T01:58:00 | 57.998839 | 9.362450 | 2.0 | 16.827 | 2 | 41.950 | 16.988 | 32.446 | 2 |
| 2025-09-13T01:59:00 | 57.998384 | 9.363153 | 2.0 | 16.828 | 2 | 41.957 | 16.987 | 32.453 | 2 |
| 2025-09-13T02:00:00 | 57.998076 | 9.363952 | 2.0 | 16.828 | 2 | 41.957 | 16.987 | 32.453 | 2 |
| 2025-09-13T02:01:00 | 57.997765 | 9.364775 | 2.0 | 16.828 | 2 | 41.976 | 16.987 | 32.469 | 2 |
| 2025-09-13T02:02:00 | 57.997389 | 9.365313 | 2.0 | 16.827 | 2 | 41.983 | 16.987 | 32.475 | 2 |
| 2025-09-13T02:03:00 | 57.996934 | 9.365724 | 2.0 | 16.825 | 2 | 41.965 | 16.984 | 32.462 | 2 |
| 2025-09-13T02:04:00 | 57.996439 | 9.366213 | 2.0 | 16.828 | 2 | 41.973 | 16.985 | 32.468 | 2 |
| 2025-09-13T02:05:00 | 57.995966 | 9.366681 | 2.0 | 16.830 | 2 | 41.981 | 16.987 | 32.474 | 2 |
| 2025-09-13T02:06:00 | 57.995506 | 9.367184 | 2.0 | 16.830 | 2 | 41.988 | 16.988 | 32.479 | 2 |
| 2025-09-13T02:07:00 | 57.995034 | 9.367717 | 2.0 | 16.829 | 2 | 41.986 | 16.988 | 32.477 | 2 |
| 2025-09-13T02:08:00 | 57.994537 | 9.368222 | 2.0 | 16.835 | 2 | 41.993 | 16.990 | 32.482 | 2 |
| 2025-09-13T02:09:00 | 57.994037 | 9.368714 | 2.0 | 16.835 | 2 | 42.000 | 16.994 | 32.484 | 2 |
| 2025-09-13T02:10:00 | 57.993622 | 9.369316 | 2.0 | 16.832 | 2 | 42.009 | 16.993 | 32.493 | 2 |
| 2025-09-13T02:11:00 | 57.993274 | 9.369860 | 2.0 | 16.832 | 2 | 42.016 | 16.992 | 32.500 | 2 |
| 2025-09-13T02:12:00 | 57.992931 | 9.370427 | 2.0 | 16.833 | 2 | 42.012 | 16.991 | 32.497 | 2 |
| 2025-09-13T02:13:00 | 57.992498 | 9.370939 | 2.0 | 16.828 | 2 | 41.956 | 16.991 | 32.449 | 2 |
| 2025-09-13T02:14:00 | 57.991994 | 9.371363 | 2.0 | 16.830 | 2 | 41.961 | 16.988 | 32.455 | 2 |
| 2025-09-13T02:15:00 | 57.991543 | 9.371853 | 2.0 | 16.830 | 2 | 41.997 | 16.989 | 32.486 | 2 |
| 2025-09-13T02:16:00 | 57.991099 | 9.372402 | 2.0 | 16.828 | 2 | 41.965 | 16.987 | 32.460 | 2 |
| 2025-09-13T02:17:00 | 57.990623 | 9.372898 | 2.0 | 16.827 | 2 | 41.990 | 16.987 | 32.481 | 2 |
| 2025-09-13T02:18:00 | 57.990129 | 9.373424 | 2.0 | 16.828 | 2 | 41.995 | 16.987 | 32.486 | 2 |
| 2025-09-13T02:19:00 | 57.989629 | 9.373871 | 2.0 | 16.829 | 2 | 41.990 | 16.986 | 32.482 | 2 |
| 2025-09-13T02:20:00 | 57.989153 | 9.374392 | 2.0 | 16.827 | 2 | 41.995 | 16.988 | 32.485 | 2 |
| 2025-09-13T02:21:00 | 57.988664 | 9.374870 | 2.0 | 16.830 | 2 | 41.990 | 16.988 | 32.481 | 2 |
| 2025-09-13T02:22:00 | 57.988199 | 9.375350 | 2.0 | 16.833 | 2 | 42.018 | 16.989 | 32.504 | 2 |
| 2025-09-13T02:23:00 | 57.987719 | 9.375833 | 2.0 | 16.830 | 2 | 42.019 | 16.990 | 32.504 | 2 |
| 2025-09-13T02:24:00 | 57.987266 | 9.376318 | 2.0 | 16.834 | 2 | 42.010 | 16.990 | 32.496 | 2 |
| 2025-09-13T02:25:00 | 57.986760 | 9.376810 | 2.0 | 16.831 | 2 | 42.012 | 16.992 | 32.496 | 2 |
| 2025-09-13T02:26:00 | 57.986244 | 9.377328 | 2.0 | 16.829 | 2 | 42.010 | 16.989 | 32.497 | 2 |
| 2025-09-13T02:27:00 | 57.985761 | 9.377780 | 2.0 | 16.829 | 2 | 41.993 | 16.988 | 32.483 | 2 |
| 2025-09-13T02:28:00 | 57.985295 | 9.378251 | 2.0 | 16.828 | 2 | 42.002 | 16.988 | 32.491 | 2 |
| 2025-09-13T02:29:00 | 57.984888 | 9.378777 | 2.0 | 16.830 | 2 | 42.009 | 16.988 | 32.497 | 2 |
| 2025-09-13T02:30:00 | 57.984474 | 9.379303 | 2.0 | 16.830 | 2 | 42.006 | 16.988 | 32.494 | 2 |
| 2025-09-13T02:31:00 | 57.984068 | 9.379874 | 2.0 | 16.832 | 2 | 42.016 | 16.991 | 32.501 | 2 |
| 2025-09-13T02:32:00 | 57.983722 | 9.380444 | 2.0 | 16.831 | 2 | 42.026 | 16.991 | 32.509 | 2 |
| 2025-09-13T02:33:00 | 57.983314 | 9.380808 | 2.0 | 16.829 | 2 | 42.017 | 16.990 | 32.502 | 2 |
| 2025-09-13T02:34:00 | 57.982842 | 9.381261 | 2.0 | 16.826 | 2 | 42.024 | 16.988 | 32.510 | 2 |
| 2025-09-13T02:35:00 | 57.982334 | 9.381686 | 2.0 | 16.823 | 2 | 42.023 | 16.985 | 32.511 | 2 |
| 2025-09-13T02:36:00 | 57.981839 | 9.382179 | 2.0 | 16.823 | 2 | 42.021 | 16.983 | 32.511 | 2 |
| 2025-09-13T02:37:00 | 57.981406 | 9.382695 | 2.0 | 16.821 | 2 | 42.027 | 16.982 | 32.517 | 2 |
| 2025-09-13T02:38:00 | 57.981035 | 9.383214 | 2.0 | 16.818 | 2 | 42.027 | 16.979 | 32.520 | 2 |
| 2025-09-13T02:39:00 | 57.980593 | 9.383670 | 2.0 | 16.811 | 2 | 42.026 | 16.977 | 32.521 | 2 |
| 2025-09-13T02:40:00 | 57.980090 | 9.384070 | 2.0 | 16.806 | 2 | 42.022 | 16.970 | 32.523 | 2 |
| 2025-09-13T02:41:00 | 57.979585 | 9.384550 | 2.0 | 16.802 | 2 | 42.020 | 16.965 | 32.525 | 2 |
| 2025-09-13T02:42:00 | 57.979083 | 9.384973 | 2.0 | 16.790 | 2 | 42.018 | 16.960 | 32.527 | 2 |
| 2025-09-13T02:43:00 | 57.978575 | 9.385375 | 2.0 | 16.781 | 2 | 42.013 | 16.949 | 32.532 | 2 |
| 2025-09-13T02:44:00 | 57.978043 | 9.385835 | 2.0 | 16.773 | 2 | 42.010 | 16.940 | 32.537 | 2 |
| 2025-09-13T02:45:00 | 57.977484 | 9.386300 | 2.0 | 16.770 | 2 | 42.009 | 16.933 | 32.541 | 2 |
| 2025-09-13T02:46:00 | 57.976926 | 9.386767 | 2.0 | 16.770 | 2 | 42.010 | 16.930 | 32.545 | 2 |
| 2025-09-13T02:47:00 | 57.976365 | 9.387276 | 2.0 | 16.764 | 2 | 42.012 | 16.929 | 32.547 | 2 |
| 2025-09-13T02:48:00 | 57.975916 | 9.387768 | 2.0 | 16.755 | 2 | 42.011 | 16.923 | 32.551 | 2 |
| 2025-09-13T02:49:00 | 57.975532 | 9.388358 | 2.0 | 16.756 | 2 | 42.009 | 16.916 | 32.555 | 2 |
| 2025-09-13T02:50:00 | 57.975216 | 9.388931 | 2.0 | 16.754 | 2 | 42.014 | 16.916 | 32.559 | 2 |
| 2025-09-13T02:51:00 | 57.974820 | 9.389470 | 2.0 | 16.744 | 2 | 42.017 | 16.913 | 32.564 | 2 |
| 2025-09-13T02:52:00 | 57.974381 | 9.390017 | 2.0 | 16.732 | 2 | 42.017 | 16.904 | 32.572 | 2 |
| 2025-09-13T02:53:00 | 57.973940 | 9.390552 | 2.0 | 16.719 | 2 | 42.008 | 16.890 | 32.575 | 2 |
| 2025-09-13T02:54:00 | 57.973508 | 9.391077 | 2.0 | 16.709 | 2 | 41.998 | 16.878 | 32.576 | 2 |
| 2025-09-13T02:55:00 | 57.973118 | 9.391594 | 2.0 | 16.701 | 2 | 41.990 | 16.869 | 32.577 | 2 |
| 2025-09-13T02:56:00 | 57.972768 | 9.392127 | 2.0 | 16.695 | 2 | 41.978 | 16.861 | 32.573 | 2 |
| 2025-09-13T02:57:00 | 57.972373 | 9.392573 | 2.0 | 16.690 | 2 | 41.977 | 16.855 | 32.577 | 2 |
| 2025-09-13T02:58:00 | 57.971922 | 9.393003 | 2.0 | 16.684 | 2 | 41.974 | 16.850 | 32.578 | 2 |
| 2025-09-13T02:59:00 | 57.971437 | 9.393460 | 2.0 | 16.672 | 2 | 41.970 | 16.842 | 32.581 | 2 |
| 2025-09-13T03:00:00 | 57.970969 | 9.393927 | 2.0 | 16.674 | 2 | 41.964 | 16.834 | 32.583 | 2 |
| 2025-09-13T03:01:00 | 57.970510 | 9.394410 | 2.0 | 16.668 | 2 | 41.967 | 16.834 | 32.585 | 2 |
| 2025-09-13T03:02:00 | 57.970046 | 9.394855 | 2.0 | 16.659 | 2 | 41.964 | 16.827 | 32.588 | 2 |
| 2025-09-13T03:03:00 | 57.969614 | 9.395296 | 2.0 | 16.657 | 2 | 41.960 | 16.819 | 32.591 | 2 |
| 2025-09-13T03:04:00 | 57.969196 | 9.395724 | 2.0 | 16.651 | 2 | 41.962 | 16.818 | 32.594 | 2 |
| 2025-09-13T03:05:00 | 57.968777 | 9.396141 | 2.0 | 16.653 | 2 | 41.932 | 16.813 | 32.572 | 2 |
| 2025-09-13T03:06:00 | 57.968297 | 9.396540 | 2.0 | 16.650 | 2 | 41.944 | 16.813 | 32.582 | 2 |
| 2025-09-13T03:07:00 | 57.967761 | 9.396927 | 2.0 | 16.646 | 2 | 41.963 | 16.809 | 32.602 | 2 |
| 2025-09-13T03:08:00 | 57.967219 | 9.397387 | 2.0 | 16.640 | 2 | 41.963 | 16.805 | 32.605 | 2 |
| 2025-09-13T03:09:00 | 57.966718 | 9.397900 | 2.0 | 16.634 | 2 | 41.959 | 16.798 | 32.607 | 2 |
| 2025-09-13T03:10:00 | 57.966270 | 9.398384 | 2.0 | 16.633 | 2 | 41.961 | 16.796 | 32.611 | 2 |
| 2025-09-13T03:11:00 | 57.965841 | 9.398907 | 2.0 | 16.626 | 2 | 41.960 | 16.793 | 32.612 | 2 |
| 2025-09-13T03:12:00 | 57.965496 | 9.399462 | 2.0 | 16.618 | 2 | 41.955 | 16.785 | 32.615 | 2 |
| 2025-09-13T03:13:00 | 57.965196 | 9.400040 | 2.0 | 16.621 | 2 | 41.951 | 16.780 | 32.615 | 2 |
| 2025-09-13T03:14:00 | 57.964905 | 9.400467 | 2.0 | 16.618 | 2 | 41.955 | 16.782 | 32.617 | 2 |
| 2025-09-13T03:15:00 | 57.964630 | 9.400897 | 2.0 | 16.614 | 2 | 41.956 | 16.778 | 32.621 | 2 |
| 2025-09-13T03:16:00 | 57.964317 | 9.401364 | 2.0 | 16.609 | 2 | 41.954 | 16.774 | 32.623 | 2 |
| 2025-09-13T03:17:00 | 57.963967 | 9.401783 | 2.0 | 16.604 | 2 | 41.951 | 16.769 | 32.624 | 2 |
| 2025-09-13T03:18:00 | 57.963575 | 9.402131 | 2.0 | 16.597 | 2 | 41.950 | 16.764 | 32.627 | 2 |
| 2025-09-13T03:19:00 | 57.963207 | 9.402509 | 2.0 | 16.590 | 2 | 41.945 | 16.756 | 32.629 | 2 |
| 2025-09-13T03:20:00 | 57.962853 | 9.402953 | 2.0 | 16.580 | 2 | 41.947 | 16.751 | 32.635 | 2 |
| 2025-09-13T03:21:00 | 57.962493 | 9.403331 | 2.0 | 16.574 | 2 | 41.938 | 16.741 | 32.636 | 2 |
| 2025-09-13T03:22:00 | 57.962133 | 9.403747 | 2.0 | 16.567 | 2 | 41.934 | 16.735 | 32.637 | 2 |
| 2025-09-13T03:23:00 | 57.961857 | 9.404154 | 2.0 | 16.565 | 2 | 41.932 | 16.727 | 32.642 | 2 |
| 2025-09-13T03:24:00 | 57.961496 | 9.404405 | 2.0 | 16.559 | 2 | 41.937 | 16.725 | 32.648 | 2 |
| 2025-09-13T03:25:00 | 57.961058 | 9.404828 | 2.0 | 16.551 | 2 | 41.936 | 16.719 | 32.652 | 2 |
| 2025-09-13T03:26:00 | 57.960545 | 9.405280 | 2.0 | 16.540 | 2 | 41.935 | 16.710 | 32.658 | 2 |
| 2025-09-13T03:27:00 | 57.960004 | 9.405752 | 2.0 | 16.530 | 2 | 41.937 | 16.701 | 32.667 | 2 |
| 2025-09-13T03:28:00 | 57.959530 | 9.406309 | 2.0 | 16.513 | 2 | 41.938 | 16.689 | 32.678 | 2 |
| 2025-09-13T03:29:00 | 57.959107 | 9.406826 | 2.0 | 16.504 | 2 | 41.936 | 16.672 | 32.690 | 2 |
| 2025-09-13T03:30:00 | 57.958664 | 9.407310 | 2.0 | 16.497 | 2 | 41.947 | 16.665 | 32.705 | 2 |
| 2025-09-13T03:31:00 | 57.958227 | 9.407858 | 2.0 | 16.486 | 2 | 41.955 | 16.658 | 32.718 | 2 |
| 2025-09-13T03:32:00 | 57.957765 | 9.408351 | 2.0 | 16.469 | 2 | 41.957 | 16.645 | 32.730 | 2 |
| 2025-09-13T03:33:00 | 57.957280 | 9.408815 | 2.0 | 16.456 | 2 | 41.961 | 16.629 | 32.747 | 2 |
| 2025-09-13T03:34:00 | 57.956795 | 9.409314 | 2.0 | 16.437 | 2 | 41.973 | 16.615 | 32.769 | 2 |
| 2025-09-13T03:35:00 | 57.956326 | 9.409826 | 2.0 | 16.428 | 2 | 41.983 | 16.598 | 32.792 | 2 |
| 2025-09-13T03:36:00 | 57.955877 | 9.410316 | 2.0 | 16.410 | 2 | 41.997 | 16.586 | 32.814 | 2 |
| 2025-09-13T03:37:00 | 57.955401 | 9.410756 | 2.0 | 16.401 | 2 | 42.006 | 16.571 | 32.834 | 2 |
| 2025-09-13T03:38:00 | 57.954883 | 9.411221 | 2.0 | 16.387 | 2 | 42.015 | 16.561 | 32.850 | 2 |
| 2025-09-13T03:39:00 | 57.954380 | 9.411734 | 2.0 | 16.375 | 2 | 42.016 | 16.547 | 32.862 | 2 |
| 2025-09-13T03:40:00 | 57.953896 | 9.412238 | 2.0 | 16.359 | 2 | 42.017 | 16.536 | 32.872 | 2 |
| 2025-09-13T03:41:00 | 57.953435 | 9.412784 | 2.0 | 16.341 | 2 | 42.012 | 16.520 | 32.881 | 2 |
| 2025-09-13T03:42:00 | 57.952973 | 9.413257 | 2.0 | 16.327 | 2 | 42.011 | 16.501 | 32.896 | 2 |
| 2025-09-13T03:43:00 | 57.952516 | 9.413801 | 2.0 | 16.317 | 2 | 42.014 | 16.489 | 32.908 | 2 |
| 2025-09-13T03:44:00 | 57.952026 | 9.414278 | 2.0 | 16.307 | 2 | 42.023 | 16.479 | 32.924 | 2 |
| 2025-09-13T03:45:00 | 57.951542 | 9.414711 | 2.0 | 16.298 | 2 | 42.028 | 16.469 | 32.937 | 2 |
| 2025-09-13T03:46:00 | 57.951073 | 9.415236 | 2.0 | 16.284 | 2 | 42.029 | 16.458 | 32.947 | 2 |
| 2025-09-13T03:47:00 | 57.950605 | 9.415720 | 2.0 | 16.270 | 2 | 42.040 | 16.445 | 32.967 | 2 |
| 2025-09-13T03:48:00 | 57.950107 | 9.416224 | 2.0 | 16.249 | 2 | 42.054 | 16.429 | 32.993 | 2 |
| 2025-09-13T03:49:00 | 57.949599 | 9.416749 | 2.0 | 16.237 | 2 | 42.069 | 16.412 | 33.020 | 2 |
| 2025-09-13T03:50:00 | 57.949052 | 9.417286 | 2.0 | 16.219 | 2 | 42.088 | 16.397 | 33.049 | 2 |
| 2025-09-13T03:51:00 | 57.948522 | 9.417830 | 2.0 | 16.211 | 2 | 42.099 | 16.382 | 33.071 | 2 |
| 2025-09-13T03:52:00 | 57.948023 | 9.418349 | 2.0 | 16.191 | 2 | 42.121 | 16.371 | 33.100 | 2 |
| 2025-09-13T03:53:00 | 57.947592 | 9.418877 | 2.0 | 16.177 | 2 | 42.136 | 16.351 | 33.129 | 2 |
| 2025-09-13T03:54:00 | 57.947143 | 9.419386 | 2.0 | 16.174 | 2 | 42.167 | 16.342 | 33.164 | 2 |
| 2025-09-13T03:55:00 | 57.946720 | 9.419890 | 2.0 | 16.164 | 2 | 42.175 | 16.335 | 33.177 | 2 |
| 2025-09-13T03:56:00 | 57.946250 | 9.420393 | 2.0 | 16.155 | 2 | 42.183 | 16.326 | 33.191 | 2 |
| 2025-09-13T03:57:00 | 57.945774 | 9.420897 | 2.0 | 16.150 | 2 | 42.176 | 16.319 | 33.191 | 2 |
| 2025-09-13T03:58:00 | 57.945313 | 9.421374 | 2.0 | 16.144 | 2 | 42.176 | 16.314 | 33.195 | 2 |
| 2025-09-13T03:59:00 | 57.944891 | 9.421904 | 2.0 | 16.135 | 2 | 42.200 | 16.306 | 33.223 | 2 |
| 2025-09-13T04:00:00 | 57.944440 | 9.422379 | 2.0 | 16.133 | 2 | 42.212 | 16.298 | 33.240 | 2 |
| 2025-09-13T04:01:00 | 57.943998 | 9.422912 | 2.0 | 16.128 | 2 | 42.227 | 16.297 | 33.254 | 2 |
| 2025-09-13T04:02:00 | 57.943576 | 9.423355 | 2.0 | 16.122 | 2 | 42.230 | 16.291 | 33.262 | 2 |
| 2025-09-13T04:03:00 | 57.943151 | 9.423832 | 2.0 | 16.116 | 2 | 42.241 | 16.284 | 33.277 | 2 |
| 2025-09-13T04:04:00 | 57.942735 | 9.424356 | 2.0 | 16.107 | 2 | 42.259 | 16.278 | 33.298 | 2 |
| 2025-09-13T04:05:00 | 57.942307 | 9.424804 | 2.0 | 16.095 | 2 | 42.293 | 16.267 | 33.337 | 2 |
| 2025-09-13T04:06:00 | 57.941896 | 9.425202 | 2.0 | 16.088 | 2 | 42.429 | 16.259 | 33.464 | 2 |
| 2025-09-13T04:07:00 | 57.941449 | 9.425571 | 2.0 | 16.073 | 2 | 42.521 | 16.248 | 33.554 | 2 |
| 2025-09-13T04:08:00 | 57.941026 | 9.426160 | 2.0 | 16.063 | 2 | 42.534 | 16.235 | 33.577 | 2 |
| 2025-09-13T04:09:00 | 57.940551 | 9.426757 | 2.0 | 16.054 | 2 | 42.546 | 16.225 | 33.596 | 2 |
| 2025-09-13T04:10:00 | 57.940021 | 9.427264 | 2.0 | 16.055 | 2 | 42.564 | 16.218 | 33.618 | 2 |
| 2025-09-13T04:11:00 | 57.939472 | 9.427751 | 2.0 | 16.055 | 2 | 42.594 | 16.218 | 33.644 | 2 |
| 2025-09-13T04:12:00 | 57.938922 | 9.428269 | 2.0 | 16.053 | 2 | 42.650 | 16.219 | 33.693 | 2 |
| 2025-09-13T04:13:00 | 57.938440 | 9.428930 | 2.0 | 16.053 | 2 | 42.686 | 16.212 | 33.730 | 2 |
| 2025-09-13T04:14:00 | 57.937958 | 9.429503 | 2.0 | 16.085 | 2 | 42.713 | 16.223 | 33.745 | 2 |
| 2025-09-13T04:15:00 | 57.937478 | 9.430065 | 2.0 | 16.084 | 2 | 42.753 | 16.246 | 33.761 | 2 |
| 2025-09-13T04:16:00 | 57.937005 | 9.430603 | 2.0 | 16.098 | 2 | 42.757 | 16.251 | 33.760 | 2 |
| 2025-09-13T04:17:00 | 57.936551 | 9.431204 | 2.0 | 16.092 | 2 | 42.773 | 16.258 | 33.768 | 2 |
| 2025-09-13T04:18:00 | 57.936093 | 9.431705 | 2.0 | 16.095 | 2 | 42.763 | 16.255 | 33.762 | 2 |
| 2025-09-13T04:19:00 | 57.935614 | 9.432318 | 2.0 | 16.109 | 2 | 42.772 | 16.259 | 33.766 | 2 |
| 2025-09-13T04:20:00 | 57.935175 | 9.432859 | 2.0 | 16.121 | 2 | 42.811 | 16.273 | 33.789 | 2 |
| 2025-09-13T04:21:00 | 57.934745 | 9.433405 | 2.0 | 16.119 | 2 | 42.834 | 16.283 | 33.801 | 2 |
| 2025-09-13T04:22:00 | 57.934085 | 9.433851 | 2.0 | 16.113 | 2 | 42.829 | 16.280 | 33.799 | 2 |
| 2025-09-13T04:23:00 | 57.933529 | 9.432615 | 2.0 | 16.110 | 2 | 42.801 | 16.273 | 33.780 | 2 |
| 2025-09-13T04:24:00 | 57.934315 | 9.429994 | 2.0 | 16.101 | 2 | 42.768 | 16.271 | 33.753 | 2 |
| 2025-09-13T04:25:00 | 57.936003 | 9.427068 | 2.0 | 16.098 | 2 | 42.751 | 16.266 | 33.742 | 2 |
| 2025-09-13T04:26:00 | 57.938541 | 9.425662 | 2.0 | 16.066 | 2 | 42.732 | 16.260 | 33.730 | 2 |
| 2025-09-13T04:27:00 | 57.941337 | 9.425276 | 2.0 | 16.074 | 2 | 42.635 | 16.230 | 33.670 | 2 |
| 2025-09-13T04:28:00 | 57.944162 | 9.424631 | 2.0 | 16.091 | 2 | 42.511 | 16.242 | 33.551 | 2 |
| 2025-09-13T04:29:00 | 57.947013 | 9.424028 | 2.0 | 16.132 | 2 | 42.247 | 16.260 | 33.303 | 2 |
| 2025-09-13T04:30:00 | 57.949888 | 9.423412 | 2.0 | 16.168 | 2 | 42.164 | 16.302 | 33.195 | 2 |
| 2025-09-13T04:31:00 | 57.952767 | 9.422859 | 2.0 | 16.224 | 2 | 42.129 | 16.335 | 33.136 | 2 |
| 2025-09-13T04:32:00 | 57.955639 | 9.422288 | 2.0 | 16.278 | 2 | 42.057 | 16.391 | 33.027 | 2 |
| 2025-09-13T04:33:00 | 57.958529 | 9.421678 | 2.0 | 16.328 | 2 | 42.006 | 16.446 | 32.937 | 2 |
| 2025-09-13T04:34:00 | 57.961436 | 9.421091 | 2.0 | 16.377 | 2 | 41.999 | 16.495 | 32.890 | 2 |
| 2025-09-13T04:35:00 | 57.964314 | 9.420611 | 2.0 | 16.448 | 2 | 41.976 | 16.545 | 32.829 | 2 |
| 2025-09-13T04:36:00 | 57.967201 | 9.420064 | 2.0 | 16.515 | 2 | 41.930 | 16.617 | 32.730 | 2 |
| 2025-09-13T04:37:00 | 57.970081 | 9.419452 | 2.0 | 16.553 | 2 | 41.905 | 16.677 | 32.659 | 2 |
| 2025-09-13T04:38:00 | 57.972972 | 9.418850 | 2.0 | 16.584 | 2 | 41.914 | 16.715 | 32.636 | 2 |
| 2025-09-13T04:39:00 | 57.975885 | 9.418302 | 2.0 | 16.605 | 2 | 41.926 | 16.744 | 32.623 | 2 |
| 2025-09-13T04:40:00 | 57.978781 | 9.417727 | 2.0 | 16.631 | 2 | 41.938 | 16.768 | 32.614 | 2 |
| 2025-09-13T04:41:00 | 57.981652 | 9.417424 | 2.0 | 16.664 | 2 | 41.944 | 16.794 | 32.598 | 2 |
| 2025-09-13T04:42:00 | 57.984553 | 9.417489 | 2.0 | 16.696 | 2 | 41.960 | 16.827 | 32.585 | 2 |
| 2025-09-13T04:43:00 | 57.987491 | 9.417408 | 2.0 | 16.721 | 2 | 41.967 | 16.857 | 32.567 | 2 |
| 2025-09-13T04:44:00 | 57.990436 | 9.417472 | 2.0 | 16.754 | 2 | 41.967 | 16.885 | 32.544 | 2 |
| 2025-09-13T04:45:00 | 57.993318 | 9.417499 | 2.0 | 16.779 | 2 | 41.984 | 16.917 | 32.533 | 2 |
| 2025-09-13T04:46:00 | 57.996200 | 9.417442 | 2.0 | 16.790 | 2 | 41.992 | 16.939 | 32.522 | 2 |
| 2025-09-13T04:47:00 | 57.999123 | 9.417408 | 2.0 | 16.794 | 2 | 41.994 | 16.950 | 32.515 | 2 |
| 2025-09-13T04:48:00 | 58.002021 | 9.417449 | 2.0 | 16.794 | 2 | 41.995 | 16.953 | 32.513 | 2 |
| 2025-09-13T04:49:00 | 58.004941 | 9.417509 | 2.0 | 16.791 | 2 | 41.995 | 16.952 | 32.514 | 2 |
| 2025-09-13T04:50:00 | 58.007838 | 9.417455 | 2.0 | 16.794 | 2 | 41.991 | 16.952 | 32.510 | 2 |
| 2025-09-13T04:51:00 | 58.010745 | 9.417367 | 2.0 | 16.788 | 2 | 41.990 | 16.954 | 32.508 | 2 |
| 2025-09-13T04:52:00 | 58.013671 | 9.417473 | 2.0 | 16.785 | 2 | 41.986 | 16.949 | 32.509 | 2 |
| 2025-09-13T04:53:00 | 58.016397 | 9.418573 | 2.0 | 16.783 | 2 | 41.976 | 16.947 | 32.502 | 2 |
| 2025-09-13T04:54:00 | 58.017832 | 9.421898 | 2.0 | 16.779 | 2 | 41.985 | 16.943 | 32.513 | 2 |
| 2025-09-13T04:55:00 | 58.017997 | 9.424780 | 2.0 | 16.775 | 2 | 41.981 | 16.939 | 32.512 | 2 |
| 2025-09-13T04:56:00 | 58.017792 | 9.426172 | 2.0 | 16.775 | 2 | 41.978 | 16.934 | 32.514 | 2 |
| 2025-09-13T04:57:00 | 58.017554 | 9.426837 | 2.0 | 16.772 | 2 | 41.687 | 16.931 | 32.265 | 2 |
| 2025-09-13T04:58:00 | 58.017265 | 9.427213 | 2.0 | 16.773 | 2 | 41.976 | 16.931 | 32.514 | 2 |
| 2025-09-13T04:59:00 | 58.016941 | 9.427444 | 2.0 | 16.772 | 2 | 41.975 | 16.930 | 32.514 | 2 |
| 2025-09-13T05:00:00 | 58.016608 | 9.427881 | 2.0 | 16.772 | 2 | 41.792 | 16.930 | 32.356 | 2 |
| 2025-09-13T05:01:00 | 58.016309 | 9.428615 | 2.0 | 16.772 | 2 | 41.593 | 16.930 | 32.184 | 2 |
| 2025-09-13T05:02:00 | 58.015992 | 9.429040 | 2.0 | 16.771 | 2 | 41.671 | 16.931 | 32.251 | 2 |
| 2025-09-13T05:03:00 | 58.015613 | 9.429409 | 2.0 | 16.771 | 2 | 41.724 | 16.929 | 32.298 | 2 |
| 2025-09-13T05:04:00 | 58.015189 | 9.429729 | 2.0 | 16.772 | 2 | 41.604 | 16.929 | 32.195 | 2 |
| 2025-09-13T05:05:00 | 58.014708 | 9.429976 | 2.0 | 16.767 | 2 | 41.683 | 16.928 | 32.264 | 2 |
| 2025-09-13T05:06:00 | 58.014205 | 9.430226 | 2.0 | 16.767 | 2 | 41.879 | 16.925 | 32.435 | 2 |
| 2025-09-13T05:07:00 | 58.013684 | 9.430670 | 2.0 | 16.766 | 2 | 41.971 | 16.925 | 32.515 | 2 |
| 2025-09-13T05:08:00 | 58.013204 | 9.431242 | 2.0 | 16.765 | 2 | 41.829 | 16.925 | 32.392 | 2 |
| 2025-09-13T05:09:00 | 58.012777 | 9.431653 | 2.0 | 16.767 | 2 | 41.813 | 16.924 | 32.379 | 2 |
| 2025-09-13T05:10:00 | 58.012316 | 9.432061 | 2.0 | 16.775 | 2 | 41.959 | 16.927 | 32.503 | 2 |
| 2025-09-13T05:11:00 | 58.011866 | 9.432492 | 2.0 | 16.778 | 2 | 41.927 | 16.934 | 32.470 | 2 |
| 2025-09-13T05:12:00 | 58.011412 | 9.432915 | 2.0 | 16.777 | 2 | 41.847 | 16.936 | 32.399 | 2 |
| 2025-09-13T05:13:00 | 58.010994 | 9.433341 | 2.0 | 16.773 | 2 | 41.802 | 16.935 | 32.361 | 2 |
| 2025-09-13T05:14:00 | 58.010538 | 9.433822 | 2.0 | 16.778 | 2 | 41.879 | 16.933 | 32.429 | 2 |
| 2025-09-13T05:15:00 | 58.010040 | 9.434241 | 2.0 | 16.775 | 2 | 41.837 | 16.936 | 32.390 | 2 |
| 2025-09-13T05:16:00 | 58.009556 | 9.434657 | 2.0 | 16.774 | 2 | 41.833 | 16.933 | 32.389 | 2 |
| 2025-09-13T05:17:00 | 58.009108 | 9.435046 | 2.0 | 16.770 | 2 | 41.838 | 16.931 | 32.395 | 2 |
| 2025-09-13T05:18:00 | 58.008686 | 9.435507 | 2.0 | 16.772 | 2 | 41.983 | 16.929 | 32.522 | 2 |
| 2025-09-13T05:19:00 | 58.008267 | 9.435921 | 2.0 | 16.770 | 2 | 41.913 | 16.930 | 32.461 | 2 |
| 2025-09-13T05:20:00 | 58.007818 | 9.436351 | 2.0 | 16.769 | 2 | 41.858 | 16.928 | 32.415 | 2 |
| 2025-09-13T05:21:00 | 58.007372 | 9.436768 | 2.0 | 16.770 | 2 | 41.848 | 16.929 | 32.405 | 2 |
| 2025-09-13T05:22:00 | 58.006964 | 9.437155 | 2.0 | 16.771 | 2 | 41.875 | 16.929 | 32.429 | 2 |
| 2025-09-13T05:23:00 | 58.006616 | 9.437678 | 2.0 | 16.771 | 2 | 41.864 | 16.930 | 32.418 | 2 |
| 2025-09-13T05:24:00 | 58.006228 | 9.438061 | 2.0 | 16.771 | 2 | 41.867 | 16.930 | 32.421 | 2 |
| 2025-09-13T05:25:00 | 58.005776 | 9.438449 | 2.0 | 16.772 | 2 | 41.851 | 16.930 | 32.407 | 2 |
| 2025-09-13T05:26:00 | 58.005330 | 9.438892 | 2.0 | 16.769 | 2 | 41.805 | 16.930 | 32.367 | 2 |
| 2025-09-13T05:27:00 | 58.004851 | 9.439314 | 2.0 | 16.768 | 2 | 41.819 | 16.927 | 32.382 | 2 |
| 2025-09-13T05:28:00 | 58.004380 | 9.439719 | 2.0 | 16.766 | 2 | 41.894 | 16.927 | 32.447 | 2 |
| 2025-09-13T05:29:00 | 58.003886 | 9.440237 | 2.0 | 16.765 | 2 | 41.833 | 16.925 | 32.396 | 2 |
| 2025-09-13T05:30:00 | 58.003422 | 9.440645 | 2.0 | 16.766 | 2 | 41.881 | 16.925 | 32.437 | 2 |
| 2025-09-13T05:31:00 | 58.002969 | 9.441115 | 2.0 | 16.761 | 2 | 41.871 | 16.924 | 32.429 | 2 |
| 2025-09-13T05:32:00 | 58.002550 | 9.441550 | 2.0 | 16.757 | 2 | 41.849 | 16.920 | 32.414 | 2 |
| 2025-09-13T05:33:00 | 58.002104 | 9.441950 | 2.0 | 16.755 | 2 | 41.876 | 16.916 | 32.440 | 2 |
| 2025-09-13T05:34:00 | 58.001613 | 9.442365 | 2.0 | 16.756 | 2 | 41.904 | 16.915 | 32.465 | 2 |
| 2025-09-13T05:35:00 | 58.001159 | 9.442759 | 2.0 | 16.751 | 2 | 41.894 | 16.914 | 32.457 | 2 |
| 2025-09-13T05:36:00 | 58.000750 | 9.443161 | 2.0 | 16.747 | 2 | 41.891 | 16.910 | 32.458 | 2 |
| 2025-09-13T05:37:00 | 58.000320 | 9.443696 | 2.0 | 16.737 | 2 | 41.910 | 16.906 | 32.478 | 2 |
| 2025-09-13T05:38:00 | 57.999902 | 9.444188 | 2.0 | 16.730 | 2 | 41.899 | 16.895 | 32.477 | 2 |
| 2025-09-13T05:39:00 | 57.999453 | 9.444594 | 2.0 | 16.725 | 2 | 41.925 | 16.888 | 32.505 | 2 |
| 2025-09-13T05:40:00 | 57.998977 | 9.444849 | 2.0 | 16.721 | 2 | 41.930 | 16.883 | 32.513 | 2 |
| 2025-09-13T05:41:00 | 57.998561 | 9.444972 | 2.0 | 16.715 | 2 | 41.924 | 16.880 | 32.511 | 2 |
| 2025-09-13T05:42:00 | 57.998128 | 9.445186 | 2.0 | 16.708 | 2 | 41.943 | 16.872 | 32.534 | 2 |
| 2025-09-13T05:43:00 | 57.997693 | 9.445397 | 2.0 | 16.701 | 2 | 41.938 | 16.866 | 32.534 | 2 |
| 2025-09-13T05:44:00 | 57.997305 | 9.445525 | 2.0 | 16.699 | 2 | 41.957 | 16.860 | 32.555 | 2 |
| 2025-09-13T05:45:00 | 57.996924 | 9.445582 | 2.0 | 16.693 | 2 | 41.954 | 16.857 | 32.555 | 2 |
| 2025-09-13T05:46:00 | 57.996533 | 9.445525 | 2.0 | 16.688 | 2 | 41.967 | 16.851 | 32.571 | 2 |
| 2025-09-13T05:47:00 | 57.996098 | 9.445445 | 2.0 | 16.681 | 2 | 41.967 | 16.847 | 32.575 | 2 |
| 2025-09-13T05:48:00 | 57.995689 | 9.445322 | 2.0 | 16.675 | 2 | 41.966 | 16.840 | 32.579 | 2 |
| 2025-09-13T05:49:00 | 57.995269 | 9.445038 | 2.0 | 16.650 | 2 | 41.976 | 16.832 | 32.595 | 2 |
| 2025-09-13T05:50:00 | 57.994835 | 9.444717 | 2.0 | 16.626 | 2 | 41.957 | 16.804 | 32.601 | 2 |
| 2025-09-13T05:51:00 | 57.994352 | 9.444396 | 2.0 | 16.637 | 2 | 41.942 | 16.790 | 32.599 | 2 |
| 2025-09-13T05:52:00 | 57.993876 | 9.444212 | 2.0 | 16.642 | 2 | 41.951 | 16.798 | 32.601 | 2 |
| 2025-09-13T05:53:00 | 57.993373 | 9.444207 | 2.0 | 16.624 | 2 | 41.959 | 16.798 | 32.607 | 2 |
| 2025-09-13T05:54:00 | 57.992820 | 9.444290 | 2.0 | 16.615 | 2 | 41.948 | 16.782 | 32.611 | 2 |
| 2025-09-13T05:55:00 | 57.992240 | 9.444578 | 2.0 | 16.604 | 2 | 41.944 | 16.773 | 32.615 | 2 |
| 2025-09-13T05:56:00 | 57.991752 | 9.445084 | 2.0 | 16.593 | 2 | 41.940 | 16.762 | 32.620 | 2 |
| 2025-09-13T05:57:00 | 57.991333 | 9.445756 | 2.0 | 16.586 | 2 | 41.935 | 16.753 | 32.623 | 2 |
| 2025-09-13T05:58:00 | 57.990953 | 9.446453 | 2.0 | 16.580 | 2 | 41.931 | 16.746 | 32.625 | 2 |
| 2025-09-13T05:59:00 | 57.990623 | 9.447191 | 2.0 | 16.574 | 2 | 41.919 | 16.740 | 32.620 | 2 |
| 2025-09-13T06:00:00 | 57.990347 | 9.447928 | 2.0 | 16.571 | 2 | 41.906 | 16.735 | 32.613 | 2 |
| 2025-09-13T06:01:00 | 57.990059 | 9.448655 | 2.0 | 16.566 | 2 | 41.929 | 16.731 | 32.636 | 2 |
| 2025-09-13T06:02:00 | 57.989738 | 9.449202 | 2.0 | 16.562 | 2 | 41.925 | 16.726 | 32.637 | 2 |
| 2025-09-13T06:03:00 | 57.989369 | 9.449745 | 2.0 | 16.559 | 2 | 41.922 | 16.723 | 32.636 | 2 |
| 2025-09-13T06:04:00 | 57.988978 | 9.450227 | 2.0 | 16.554 | 2 | 41.929 | 16.719 | 32.646 | 2 |
| 2025-09-13T06:05:00 | 57.988642 | 9.450774 | 2.0 | 16.547 | 2 | 41.925 | 16.714 | 32.646 | 2 |
| 2025-09-13T06:06:00 | 57.988291 | 9.451249 | 2.0 | 16.543 | 2 | 41.922 | 16.708 | 32.649 | 2 |
| 2025-09-13T06:07:00 | 57.987955 | 9.451749 | 2.0 | 16.538 | 2 | 41.930 | 16.703 | 32.660 | 2 |
| 2025-09-13T06:08:00 | 57.987581 | 9.452219 | 2.0 | 16.533 | 2 | 41.932 | 16.698 | 32.665 | 2 |
| 2025-09-13T06:09:00 | 57.987192 | 9.452702 | 2.0 | 16.528 | 2 | 41.932 | 16.693 | 32.669 | 2 |
| 2025-09-13T06:10:00 | 57.986789 | 9.453286 | 2.0 | 16.519 | 2 | 41.933 | 16.688 | 32.674 | 2 |
| 2025-09-13T06:11:00 | 57.986339 | 9.453828 | 2.0 | 16.510 | 2 | 41.928 | 16.679 | 32.677 | 2 |
| 2025-09-13T06:12:00 | 57.985887 | 9.454397 | 2.0 | 16.496 | 2 | 41.927 | 16.670 | 32.684 | 2 |
| 2025-09-13T06:13:00 | 57.985518 | 9.455037 | 2.0 | 16.484 | 2 | 41.911 | 16.656 | 32.681 | 2 |
| 2025-09-13T06:14:00 | 57.985166 | 9.455628 | 2.0 | 16.478 | 2 | 41.909 | 16.645 | 32.689 | 2 |
| 2025-09-13T06:15:00 | 57.984797 | 9.456177 | 2.0 | 16.471 | 2 | 41.913 | 16.637 | 32.699 | 2 |
| 2025-09-13T06:16:00 | 57.984460 | 9.456694 | 2.0 | 16.463 | 2 | 41.918 | 16.631 | 32.708 | 2 |
| 2025-09-13T06:17:00 | 57.984102 | 9.457202 | 2.0 | 16.452 | 2 | 41.918 | 16.623 | 32.714 | 2 |
| 2025-09-13T06:18:00 | 57.983709 | 9.457726 | 2.0 | 16.443 | 2 | 41.922 | 16.613 | 32.726 | 2 |
| 2025-09-13T06:19:00 | 57.983267 | 9.458308 | 2.0 | 16.430 | 2 | 41.926 | 16.602 | 32.739 | 2 |
| 2025-09-13T06:20:00 | 57.982832 | 9.458814 | 2.0 | 16.418 | 2 | 41.932 | 16.591 | 32.753 | 2 |
| 2025-09-13T06:21:00 | 57.982412 | 9.459451 | 2.0 | 16.405 | 2 | 41.936 | 16.579 | 32.766 | 2 |
| 2025-09-13T06:22:00 | 57.982026 | 9.460099 | 2.0 | 16.387 | 2 | 41.944 | 16.564 | 32.785 | 2 |
| 2025-09-13T06:23:00 | 57.981626 | 9.460721 | 2.0 | 16.369 | 2 | 41.954 | 16.546 | 32.809 | 2 |
| 2025-09-13T06:24:00 | 57.981174 | 9.461332 | 2.0 | 16.353 | 2 | 41.964 | 16.530 | 32.831 | 2 |
| 2025-09-13T06:25:00 | 57.980710 | 9.461915 | 2.0 | 16.336 | 2 | 41.981 | 16.513 | 32.860 | 2 |
| 2025-09-13T06:26:00 | 57.980276 | 9.462542 | 2.0 | 16.318 | 2 | 41.996 | 16.498 | 32.885 | 2 |
| 2025-09-13T06:27:00 | 57.979895 | 9.463106 | 2.0 | 16.307 | 2 | 42.003 | 16.479 | 32.907 | 2 |
| 2025-09-13T06:28:00 | 57.979504 | 9.463657 | 2.0 | 16.297 | 2 | 42.016 | 16.469 | 32.926 | 2 |
| 2025-09-13T06:29:00 | 57.979082 | 9.464204 | 2.0 | 16.288 | 2 | 42.025 | 16.460 | 32.942 | 2 |
| 2025-09-13T06:30:00 | 57.978695 | 9.464827 | 2.0 | 16.278 | 2 | 42.031 | 16.451 | 32.954 | 2 |
| 2025-09-13T06:31:00 | 57.978380 | 9.465428 | 2.0 | 16.264 | 2 | 42.039 | 16.440 | 32.970 | 2 |
| 2025-09-13T06:32:00 | 57.978067 | 9.465805 | 2.0 | 16.249 | 2 | 42.040 | 16.425 | 32.984 | 2 |
| 2025-09-13T06:33:00 | 57.977691 | 9.466083 | 2.0 | 16.235 | 2 | 42.047 | 16.410 | 33.002 | 2 |
| 2025-09-13T06:34:00 | 57.977322 | 9.466351 | 2.0 | 16.221 | 2 | 42.058 | 16.396 | 33.024 | 2 |
| 2025-09-13T06:35:00 | 57.976939 | 9.466641 | 2.0 | 16.211 | 2 | 42.076 | 16.382 | 33.051 | 2 |
| 2025-09-13T06:36:00 | 57.976539 | 9.467030 | 2.0 | 16.216 | 2 | 42.104 | 16.376 | 33.080 | 2 |
| 2025-09-13T06:37:00 | 57.976137 | 9.467483 | 2.0 | 16.203 | 2 | 42.129 | 16.377 | 33.102 | 2 |
| 2025-09-13T06:38:00 | 57.975703 | 9.467957 | 2.0 | 16.196 | 2 | 42.136 | 16.367 | 33.116 | 2 |
| 2025-09-13T06:39:00 | 57.975266 | 9.468437 | 2.0 | 16.186 | 2 | 42.149 | 16.358 | 33.135 | 2 |
| 2025-09-13T06:40:00 | 57.974853 | 9.468922 | 2.0 | 16.181 | 2 | 42.168 | 16.349 | 33.159 | 2 |
| 2025-09-13T06:41:00 | 57.974438 | 9.469300 | 2.0 | 16.175 | 2 | 42.197 | 16.344 | 33.189 | 2 |
| 2025-09-13T06:42:00 | 57.973995 | 9.469658 | 2.0 | 16.168 | 2 | 42.208 | 16.337 | 33.204 | 2 |
| 2025-09-13T06:43:00 | 57.973529 | 9.470051 | 2.0 | 16.154 | 2 | 42.212 | 16.328 | 33.215 | 2 |
| 2025-09-13T06:44:00 | 57.973031 | 9.470488 | 2.0 | 16.156 | 2 | 42.209 | 16.318 | 33.221 | 2 |
| 2025-09-13T06:45:00 | 57.972510 | 9.470884 | 2.0 | 16.149 | 2 | 42.235 | 16.319 | 33.243 | 2 |
| 2025-09-13T06:46:00 | 57.972027 | 9.471357 | 2.0 | 16.139 | 2 | 42.235 | 16.310 | 33.250 | 2 |
| 2025-09-13T06:47:00 | 57.971590 | 9.471850 | 2.0 | 16.128 | 2 | 42.229 | 16.300 | 33.254 | 2 |
| 2025-09-13T06:48:00 | 57.971185 | 9.472323 | 2.0 | 16.120 | 2 | 42.225 | 16.291 | 33.258 | 2 |
| 2025-09-13T06:49:00 | 57.970802 | 9.472749 | 2.0 | 16.115 | 2 | 42.226 | 16.283 | 33.265 | 2 |
| 2025-09-13T06:50:00 | 57.970361 | 9.473221 | 2.0 | 16.112 | 2 | 42.238 | 16.279 | 33.279 | 2 |
| 2025-09-13T06:51:00 | 57.969928 | 9.473657 | 2.0 | 16.110 | 2 | 42.259 | 16.275 | 33.301 | 2 |
| 2025-09-13T06:52:00 | 57.969415 | 9.474049 | 2.0 | 16.107 | 2 | 42.282 | 16.273 | 33.323 | 2 |
| 2025-09-13T06:53:00 | 57.968976 | 9.474543 | 2.0 | 16.105 | 2 | 42.305 | 16.271 | 33.345 | 2 |
| 2025-09-13T06:54:00 | 57.968496 | 9.474885 | 2.0 | 16.107 | 2 | 42.336 | 16.270 | 33.373 | 2 |
| 2025-09-13T06:55:00 | 57.968048 | 9.475366 | 2.0 | 16.110 | 2 | 42.380 | 16.271 | 33.411 | 2 |
| 2025-09-13T06:56:00 | 57.967631 | 9.475824 | 2.0 | 16.114 | 2 | 42.419 | 16.274 | 33.443 | 2 |
| 2025-09-13T06:57:00 | 57.967269 | 9.476275 | 2.0 | 16.119 | 2 | 42.468 | 16.278 | 33.482 | 2 |
| 2025-09-13T06:58:00 | 57.966810 | 9.476659 | 2.0 | 16.119 | 2 | 42.511 | 16.282 | 33.517 | 2 |
| 2025-09-13T06:59:00 | 57.966339 | 9.477055 | 2.0 | 16.114 | 2 | 42.549 | 16.281 | 33.551 | 2 |
| 2025-09-13T07:00:00 | 57.965849 | 9.477480 | 2.0 | 16.105 | 2 | 42.577 | 16.275 | 33.581 | 2 |
| 2025-09-13T07:01:00 | 57.965381 | 9.477905 | 2.0 | 16.094 | 2 | 42.588 | 16.265 | 33.599 | 2 |
| 2025-09-13T07:02:00 | 57.964901 | 9.478329 | 2.0 | 16.090 | 2 | 42.590 | 16.258 | 33.607 | 2 |
| 2025-09-13T07:03:00 | 57.964401 | 9.478683 | 2.0 | 16.086 | 2 | 42.596 | 16.253 | 33.616 | 2 |
| 2025-09-13T07:04:00 | 57.963862 | 9.478995 | 2.0 | 16.081 | 2 | 42.600 | 16.249 | 33.623 | 2 |
| 2025-09-13T07:05:00 | 57.963324 | 9.479414 | 2.0 | 16.067 | 2 | 42.564 | 16.245 | 33.595 | 2 |
| 2025-09-13T07:06:00 | 57.962804 | 9.479817 | 2.0 | 16.053 | 2 | 42.453 | 16.226 | 33.513 | 2 |
| 2025-09-13T07:07:00 | 57.962284 | 9.480168 | 2.0 | 16.048 | 2 | 42.561 | 16.217 | 33.616 | 2 |
| 2025-09-13T07:08:00 | 57.961824 | 9.480654 | 2.0 | 16.051 | 2 | 42.512 | 16.213 | 33.576 | 2 |
| 2025-09-13T07:09:00 | 57.961419 | 9.481251 | 2.0 | 16.047 | 2 | 42.551 | 16.214 | 33.610 | 2 |
| 2025-09-13T07:10:00 | 57.961158 | 9.482080 | 2.0 | 16.049 | 2 | 42.589 | 16.212 | 33.645 | 2 |
| 2025-09-13T07:11:00 | 57.960875 | 9.482606 | 2.0 | 16.050 | 2 | 42.575 | 16.211 | 33.633 | 2 |
| 2025-09-13T07:12:00 | 57.960519 | 9.483044 | 2.0 | 16.050 | 2 | 42.599 | 16.214 | 33.652 | 2 |
| 2025-09-13T07:13:00 | 57.960080 | 9.483496 | 2.0 | 16.043 | 2 | 42.586 | 16.211 | 33.643 | 2 |
| 2025-09-13T07:14:00 | 57.959580 | 9.483982 | 2.0 | 16.048 | 2 | 42.628 | 16.208 | 33.683 | 2 |
| 2025-09-13T07:15:00 | 57.959032 | 9.484481 | 2.0 | 16.056 | 2 | 42.627 | 16.210 | 33.680 | 2 |
| 2025-09-13T07:16:00 | 57.958503 | 9.484928 | 2.0 | 16.068 | 2 | 42.642 | 16.222 | 33.683 | 2 |
| 2025-09-13T07:17:00 | 57.957954 | 9.485378 | 2.0 | 16.066 | 2 | 42.655 | 16.230 | 33.688 | 2 |
| 2025-09-13T07:18:00 | 57.957396 | 9.485842 | 2.0 | 16.072 | 2 | 42.647 | 16.229 | 33.682 | 2 |
| 2025-09-13T07:19:00 | 57.956784 | 9.486373 | 2.0 | 16.080 | 2 | 42.658 | 16.236 | 33.685 | 2 |
| 2025-09-13T07:20:00 | 57.955966 | 9.486906 | 2.0 | 16.094 | 2 | 42.662 | 16.244 | 33.682 | 2 |
| 2025-09-13T07:21:00 | 57.955352 | 9.486095 | 2.0 | 16.101 | 2 | 42.665 | 16.257 | 33.674 | 2 |
| 2025-09-13T07:22:00 | 57.956731 | 9.484707 | 2.0 | 16.083 | 2 | 42.662 | 16.260 | 33.669 | 2 |
| 2025-09-13T07:23:00 | 57.958953 | 9.484824 | 2.0 | 16.073 | 2 | 42.650 | 16.244 | 33.672 | 2 |
| 2025-09-13T07:24:00 | 57.961669 | 9.484996 | 2.0 | 16.058 | 2 | 42.659 | 16.235 | 33.687 | 2 |
| 2025-09-13T07:25:00 | 57.964550 | 9.484566 | 2.0 | 16.064 | 2 | 42.638 | 16.223 | 33.679 | 2 |
| 2025-09-13T07:26:00 | 57.967472 | 9.484119 | 2.0 | 16.076 | 2 | 42.621 | 16.229 | 33.659 | 2 |
| 2025-09-13T07:27:00 | 57.970438 | 9.483734 | 2.0 | 16.104 | 2 | 42.603 | 16.248 | 33.627 | 2 |
| 2025-09-13T07:28:00 | 57.973393 | 9.483644 | 2.0 | 16.104 | 2 | 42.492 | 16.265 | 33.514 | 2 |
| 2025-09-13T07:29:00 | 57.976368 | 9.483418 | 2.0 | 16.127 | 2 | 42.344 | 16.271 | 33.379 | 2 |
| 2025-09-13T07:30:00 | 57.979349 | 9.483203 | 2.0 | 16.160 | 2 | 42.282 | 16.297 | 33.303 | 2 |
| 2025-09-13T07:31:00 | 57.982307 | 9.483006 | 2.0 | 16.182 | 2 | 42.280 | 16.329 | 33.274 | 2 |
| 2025-09-13T07:32:00 | 57.985279 | 9.482816 | 2.0 | 16.208 | 2 | 42.231 | 16.347 | 33.216 | 2 |
| 2025-09-13T07:33:00 | 57.988261 | 9.482684 | 2.0 | 16.249 | 2 | 42.145 | 16.376 | 33.116 | 2 |
| 2025-09-13T07:34:00 | 57.991230 | 9.482449 | 2.0 | 16.290 | 2 | 42.090 | 16.417 | 33.034 | 2 |
| 2025-09-13T07:35:00 | 57.994192 | 9.482152 | 2.0 | 16.353 | 2 | 42.054 | 16.459 | 32.968 | 2 |
| 2025-09-13T07:36:00 | 57.997152 | 9.481931 | 2.0 | 16.425 | 2 | 41.982 | 16.524 | 32.851 | 2 |
| 2025-09-13T07:37:00 | 58.000133 | 9.482247 | 2.0 | 16.466 | 2 | 41.936 | 16.590 | 32.757 | 2 |
| 2025-09-13T07:38:00 | 58.003126 | 9.482899 | 2.0 | 16.506 | 2 | 41.938 | 16.632 | 32.724 | 2 |
| 2025-09-13T07:39:00 | 58.006113 | 9.483645 | 2.0 | 16.540 | 2 | 41.958 | 16.670 | 32.711 | 2 |
| 2025-09-13T07:40:00 | 58.009000 | 9.485018 | 2.0 | 16.575 | 2 | 41.963 | 16.704 | 32.687 | 2 |
| 2025-09-13T07:41:00 | 58.011860 | 9.487043 | 2.0 | 16.611 | 2 | 41.959 | 16.744 | 32.651 | 2 |
| 2025-09-13T07:42:00 | 58.014446 | 9.489199 | 2.0 | 16.644 | 2 | 41.972 | 16.785 | 32.629 | 2 |
| 2025-09-13T07:43:00 | 58.016597 | 9.491127 | 2.0 | 16.654 | 2 | 41.981 | 16.815 | 32.613 | 2 |
| 2025-09-13T07:44:00 | 58.018071 | 9.492979 | 2.0 | 16.658 | 2 | 41.972 | 16.826 | 32.596 | 2 |
| 2025-09-13T07:45:00 | 58.018365 | 9.494916 | 2.0 | 16.674 | 2 | 41.981 | 16.835 | 32.597 | 2 |
| 2025-09-13T07:46:00 | 58.018253 | 9.496262 | 2.0 | 16.662 | 2 | 41.993 | 16.846 | 32.598 | 2 |
| 2025-09-13T07:47:00 | 58.017981 | 9.497365 | 2.0 | 16.658 | 2 | 41.991 | 16.837 | 32.604 | 2 |
| 2025-09-13T07:48:00 | 58.017419 | 9.497825 | 2.0 | 16.655 | 2 | 41.998 | 16.836 | 32.610 | 2 |
| 2025-09-13T07:49:00 | 58.016934 | 9.497858 | 2.0 | 16.648 | 2 | 42.005 | 16.833 | 32.619 | 2 |
| 2025-09-13T07:50:00 | 58.016756 | 9.497867 | 2.0 | 16.641 | 2 | 42.007 | 16.828 | 32.625 | 2 |
| 2025-09-13T07:51:00 | 58.016676 | 9.497878 | 2.0 | 16.636 | 2 | 42.007 | 16.821 | 32.630 | 2 |
| 2025-09-13T07:52:00 | 58.016715 | 9.497947 | 2.0 | 16.633 | 2 | 42.006 | 16.815 | 32.634 | 2 |
| 2025-09-13T07:53:00 | 58.017013 | 9.498122 | 2.0 | 16.628 | 2 | 42.005 | 16.812 | 32.636 | 2 |
| 2025-09-13T07:54:00 | 58.017392 | 9.498505 | 2.0 | 16.624 | 2 | 42.003 | 16.809 | 32.637 | 2 |
| 2025-09-13T07:55:00 | 58.017867 | 9.499243 | 2.0 | 16.629 | 2 | 42.000 | 16.807 | 32.636 | 2 |
| 2025-09-13T07:56:00 | 58.018396 | 9.499914 | 2.0 | 16.630 | 2 | 42.004 | 16.816 | 32.632 | 2 |
| 2025-09-13T07:57:00 | 58.018860 | 9.500380 | 2.0 | 16.623 | 2 | 42.000 | 16.815 | 32.629 | 2 |
| 2025-09-13T07:58:00 | 58.019301 | 9.500736 | 2.0 | 16.616 | 2 | 41.991 | 16.808 | 32.627 | 2 |
| 2025-09-13T07:59:00 | 58.019280 | 9.500409 | 2.0 | 16.624 | 2 | 41.982 | 16.803 | 32.623 | 2 |
| 2025-09-13T08:00:00 | 58.018853 | 9.500179 | 2.0 | 16.626 | 2 | 41.984 | 16.813 | 32.617 | 2 |
| 2025-09-13T08:01:00 | 58.018017 | 9.500665 | 2.0 | 16.600 | 2 | 41.984 | 16.809 | 32.620 | 2 |
| 2025-09-13T08:02:00 | 58.016900 | 9.501129 | 2.0 | 16.580 | 2 | 41.980 | 16.785 | 32.636 | 2 |
| 2025-09-13T08:03:00 | 58.015849 | 9.500704 | 2.0 | 16.581 | 2 | 41.979 | 16.768 | 32.649 | 2 |
| 2025-09-13T08:04:00 | 58.016453 | 9.499311 | 2.0 | 16.606 | 2 | 41.988 | 16.770 | 32.655 | 2 |
| 2025-09-13T08:05:00 | 58.017864 | 9.500405 | 2.0 | 16.632 | 2 | 41.995 | 16.800 | 32.637 | 2 |
| 2025-09-13T08:06:00 | 58.018242 | 9.503680 | 2.0 | 16.604 | 2 | 41.998 | 16.810 | 32.632 | 2 |
| 2025-09-13T08:07:00 | 58.018125 | 9.508279 | 2.0 | 16.601 | 2 | 42.002 | 16.796 | 32.646 | 2 |
| 2025-09-13T08:08:00 | 58.017922 | 9.513421 | 2.0 | 16.574 | 2 | 41.997 | 16.786 | 32.650 | 2 |
| 2025-09-13T08:09:00 | 58.017707 | 9.518699 | 2.0 | 16.549 | 2 | 41.995 | 16.764 | 32.666 | 2 |
| 2025-09-13T08:10:00 | 58.017505 | 9.524018 | 2.0 | 16.515 | 2 | 42.002 | 16.736 | 32.695 | 2 |
| 2025-09-13T08:11:00 | 58.017295 | 9.529295 | 2.0 | 16.486 | 2 | 42.002 | 16.705 | 32.721 | 2 |
| 2025-09-13T08:12:00 | 58.017141 | 9.534638 | 2.0 | 16.462 | 2 | 42.009 | 16.676 | 32.750 | 2 |
| 2025-09-13T08:13:00 | 58.017112 | 9.539665 | 2.0 | 16.439 | 2 | 42.017 | 16.654 | 32.775 | 2 |
| 2025-09-13T08:14:00 | 58.017197 | 9.543903 | 2.0 | 16.422 | 2 | 42.027 | 16.631 | 32.803 | 2 |
| 2025-09-13T08:15:00 | 58.017291 | 9.547720 | 2.0 | 16.403 | 2 | 42.032 | 16.612 | 32.823 | 2 |
| 2025-09-13T08:16:00 | 58.017421 | 9.551405 | 2.0 | 16.392 | 2 | 42.038 | 16.594 | 32.843 | 2 |
| 2025-09-13T08:17:00 | 58.017655 | 9.555168 | 2.0 | 16.377 | 2 | 42.044 | 16.583 | 32.857 | 2 |
| 2025-09-13T08:18:00 | 58.017893 | 9.558423 | 2.0 | 16.368 | 2 | 42.062 | 16.569 | 32.884 | 2 |
| 2025-09-13T08:19:00 | 58.017965 | 9.561082 | 2.0 | 16.355 | 2 | 42.071 | 16.558 | 32.901 | 2 |
| 2025-09-13T08:20:00 | 58.017885 | 9.562797 | 2.0 | 16.352 | 2 | 42.081 | 16.548 | 32.918 | 2 |
| 2025-09-13T08:21:00 | 58.017931 | 9.563650 | 2.0 | 16.350 | 2 | 42.096 | 16.542 | 32.936 | 2 |
| 2025-09-13T08:22:00 | 58.018209 | 9.563700 | 2.0 | 16.351 | 2 | 42.100 | 16.542 | 32.940 | 2 |
| 2025-09-13T08:23:00 | 58.018246 | 9.563600 | 2.0 | 16.353 | 2 | 42.098 | 16.545 | 32.935 | 2 |
| 2025-09-13T08:24:00 | 58.018096 | 9.563687 | 2.0 | 16.350 | 2 | 42.102 | 16.546 | 32.938 | 2 |
| 2025-09-13T08:25:00 | 58.017995 | 9.563918 | 2.0 | 16.346 | 2 | 42.112 | 16.542 | 32.950 | 2 |
| 2025-09-13T08:26:00 | 58.017961 | 9.564096 | 2.0 | 16.344 | 2 | 42.110 | 16.539 | 32.951 | 2 |
| 2025-09-13T08:27:00 | 58.018001 | 9.564347 | 2.0 | 16.342 | 2 | 42.105 | 16.536 | 32.949 | 2 |
| 2025-09-13T08:28:00 | 58.018034 | 9.564445 | 2.0 | 16.344 | 2 | 42.098 | 16.534 | 32.945 | 2 |
| 2025-09-13T08:29:00 | 58.017973 | 9.564488 | 2.0 | 16.346 | 2 | 42.098 | 16.536 | 32.943 | 2 |
| 2025-09-13T08:30:00 | 58.017996 | 9.564597 | 2.0 | 16.347 | 2 | 42.099 | 16.537 | 32.943 | 2 |
| 2025-09-13T08:31:00 | 58.018116 | 9.563929 | 2.0 | 16.352 | 2 | 42.098 | 16.538 | 32.941 | 2 |
| 2025-09-13T08:32:00 | 58.017965 | 9.562004 | 2.0 | 16.357 | 2 | 42.105 | 16.545 | 32.942 | 2 |
| 2025-09-13T08:33:00 | 58.017412 | 9.560109 | 2.0 | 16.360 | 2 | 42.084 | 16.550 | 32.919 | 2 |
| 2025-09-13T08:34:00 | 58.016749 | 9.559025 | 2.0 | 16.356 | 2 | 41.842 | 16.553 | 32.705 | 2 |
| 2025-09-13T08:35:00 | 58.016137 | 9.558311 | 2.0 | 16.347 | 2 | 42.065 | 16.547 | 32.905 | 2 |
| 2025-09-13T08:36:00 | 58.015503 | 9.557936 | 2.0 | 16.340 | 2 | 42.122 | 16.539 | 32.961 | 2 |
| 2025-09-13T08:37:00 | 58.014724 | 9.557654 | 2.0 | 16.327 | 2 | 41.857 | 16.530 | 32.737 | 2 |
| 2025-09-13T08:38:00 | 58.014026 | 9.557505 | 2.0 | 16.313 | 2 | 41.886 | 16.518 | 32.772 | 2 |
| 2025-09-13T08:39:00 | 58.013399 | 9.557398 | 2.0 | 16.296 | 2 | 42.018 | 16.503 | 32.900 | 2 |
| 2025-09-13T08:40:00 | 58.012750 | 9.557291 | 2.0 | 16.280 | 2 | 41.993 | 16.486 | 32.892 | 2 |
| 2025-09-13T08:41:00 | 58.012036 | 9.557131 | 2.0 | 16.261 | 2 | 41.984 | 16.470 | 32.898 | 2 |
| 2025-09-13T08:42:00 | 58.011282 | 9.556928 | 2.0 | 16.254 | 2 | 42.072 | 16.455 | 32.987 | 2 |
| 2025-09-13T08:43:00 | 58.010520 | 9.556775 | 2.0 | 16.248 | 2 | 42.065 | 16.447 | 32.987 | 2 |
| 2025-09-13T08:44:00 | 58.009772 | 9.556610 | 2.0 | 16.229 | 2 | 41.987 | 16.440 | 32.925 | 2 |
| 2025-09-13T08:45:00 | 58.009029 | 9.556580 | 2.0 | 16.209 | 2 | 42.077 | 16.420 | 33.020 | 2 |
| 2025-09-13T08:46:00 | 58.008248 | 9.556586 | 2.0 | 16.208 | 2 | 42.135 | 16.405 | 33.084 | 2 |
| 2025-09-13T08:47:00 | 58.007463 | 9.556594 | 2.0 | 16.199 | 2 | 42.179 | 16.402 | 33.125 | 2 |
| 2025-09-13T08:48:00 | 58.006793 | 9.556705 | 2.0 | 16.191 | 2 | 42.172 | 16.393 | 33.126 | 2 |
| 2025-09-13T08:49:00 | 58.006589 | 9.556954 | 2.0 | 16.187 | 2 | 42.207 | 16.384 | 33.164 | 2 |
| 2025-09-13T08:50:00 | 58.006637 | 9.556975 | 2.0 | 16.186 | 2 | 42.210 | 16.380 | 33.170 | 2 |
| 2025-09-13T08:51:00 | 58.006585 | 9.557051 | 2.0 | 16.187 | 2 | 42.182 | 16.381 | 33.145 | 2 |
| 2025-09-13T08:52:00 | 58.006610 | 9.557251 | 2.0 | 16.186 | 2 | 42.238 | 16.381 | 33.194 | 2 |
| 2025-09-13T08:53:00 | 58.006538 | 9.557638 | 2.0 | 16.186 | 2 | 42.224 | 16.379 | 33.183 | 2 |
| 2025-09-13T08:54:00 | 58.006324 | 9.557578 | 2.0 | 16.185 | 2 | 42.242 | 16.382 | 33.197 | 2 |
| 2025-09-13T08:55:00 | 58.005705 | 9.556727 | 2.0 | 16.181 | 2 | 42.245 | 16.381 | 33.200 | 2 |
| 2025-09-13T08:56:00 | 58.004962 | 9.555380 | 2.0 | 16.179 | 2 | 42.255 | 16.378 | 33.211 | 2 |
| 2025-09-13T08:57:00 | 58.004556 | 9.552725 | 2.0 | 16.179 | 2 | 42.291 | 16.378 | 33.243 | 2 |
| 2025-09-13T08:58:00 | 58.005654 | 9.550368 | 2.0 | 16.184 | 2 | 42.271 | 16.380 | 33.224 | 2 |
| 2025-09-13T08:59:00 | 58.007960 | 9.550540 | 2.0 | 16.209 | 2 | 42.261 | 16.386 | 33.210 | 2 |
| 2025-09-13T09:00:00 | 58.010555 | 9.550188 | 2.0 | 16.271 | 2 | 42.071 | 16.417 | 33.018 | 2 |
| 2025-09-13T09:02:00 | 58.015980 | 9.548967 | 2.0 | 16.403 | 2 | 42.097 | 16.528 | 32.949 | 2 |
| 2025-09-13T09:03:00 | 58.018762 | 9.548418 | 2.0 | 16.458 | 2 | 42.044 | 16.591 | 32.851 | 2 |
| 2025-09-13T09:04:00 | 58.021569 | 9.548210 | 2.0 | 16.501 | 2 | 42.023 | 16.639 | 32.793 | 2 |
| 2025-09-13T09:05:00 | 58.024361 | 9.548045 | 2.0 | 16.538 | 2 | 42.017 | 16.682 | 32.752 | 2 |
| 2025-09-13T09:06:00 | 58.027126 | 9.547841 | 2.0 | 16.587 | 2 | 42.015 | 16.721 | 32.719 | 2 |
| 2025-09-13T09:07:00 | 58.029928 | 9.547630 | 2.0 | 16.657 | 2 | 41.999 | 16.770 | 32.665 | 2 |
| 2025-09-13T09:08:00 | 58.032709 | 9.547394 | 2.0 | 16.697 | 2 | 42.011 | 16.833 | 32.624 | 2 |
| 2025-09-13T09:09:00 | 58.035488 | 9.547176 | 2.0 | 16.733 | 2 | 42.002 | 16.874 | 32.583 | 2 |
| 2025-09-13T09:10:00 | 58.038278 | 9.546938 | 2.0 | 16.746 | 2 | 41.999 | 16.906 | 32.555 | 2 |
| 2025-09-13T09:11:00 | 58.041062 | 9.546705 | 2.0 | 16.751 | 2 | 41.745 | 16.918 | 32.325 | 2 |
| 2025-09-13T09:12:00 | 58.043796 | 9.546479 | 2.0 | 16.753 | 2 | 42.002 | 16.923 | 32.543 | 2 |
| 2025-09-13T09:13:00 | 58.046478 | 9.546500 | 2.0 | 16.754 | 2 | 42.007 | 16.926 | 32.545 | 2 |
| 2025-09-13T09:14:00 | 58.048875 | 9.548486 | 2.0 | 16.748 | 2 | 41.573 | 16.924 | 32.172 | 2 |
| 2025-09-13T09:15:00 | 58.051203 | 9.551030 | 2.0 | 16.743 | 2 | 41.988 | 16.918 | 32.535 | 2 |
| 2025-09-13T09:16:00 | 58.053175 | 9.554433 | 2.0 | 16.740 | 2 | 41.869 | 16.914 | 32.436 | 2 |
| 2025-09-13T09:17:00 | 58.054778 | 9.558307 | 2.0 | 16.737 | 2 | 41.993 | 16.912 | 32.545 | 2 |
| 2025-09-13T09:18:00 | 58.055965 | 9.561704 | 2.0 | 16.733 | 2 | 41.755 | 16.907 | 32.343 | 2 |
| 2025-09-13T09:19:00 | 58.056797 | 9.564458 | 2.0 | 16.728 | 2 | 41.987 | 16.901 | 32.548 | 2 |
| 2025-09-13T09:20:00 | 58.056861 | 9.565980 | 2.0 | 16.727 | 2 | 41.984 | 16.897 | 32.549 | 2 |
| 2025-09-13T09:21:00 | 58.056944 | 9.566964 | 2.0 | 16.727 | 2 | 41.713 | 16.896 | 32.315 | 2 |
| 2025-09-13T09:22:00 | 58.056921 | 9.567370 | 2.0 | 16.726 | 2 | 41.874 | 16.896 | 32.454 | 2 |
| 2025-09-13T09:23:00 | 58.056775 | 9.567739 | 2.0 | 16.727 | 2 | 41.556 | 16.895 | 32.180 | 2 |
| 2025-09-13T09:24:00 | 58.056558 | 9.568107 | 2.0 | 16.728 | 2 | 41.982 | 16.895 | 32.549 | 2 |
| 2025-09-13T09:25:00 | 58.056333 | 9.568601 | 2.0 | 16.727 | 2 | 41.982 | 16.896 | 32.548 | 2 |
| 2025-09-13T09:26:00 | 58.056175 | 9.568956 | 2.0 | 16.729 | 2 | 41.977 | 16.894 | 32.545 | 2 |
| 2025-09-13T09:27:00 | 58.055991 | 9.569203 | 2.0 | 16.730 | 2 | 41.884 | 16.896 | 32.463 | 2 |
| 2025-09-13T09:28:00 | 58.055790 | 9.569401 | 2.0 | 16.731 | 2 | 41.896 | 16.897 | 32.473 | 2 |
| 2025-09-13T09:29:00 | 58.055593 | 9.569631 | 2.0 | 16.731 | 2 | 41.811 | 16.898 | 32.398 | 2 |
| 2025-09-13T09:30:00 | 58.055374 | 9.569940 | 2.0 | 16.732 | 2 | 41.976 | 16.899 | 32.540 | 2 |
| 2025-09-13T09:31:00 | 58.055182 | 9.570261 | 2.0 | 16.732 | 2 | 41.943 | 16.899 | 32.512 | 2 |
| 2025-09-13T09:32:00 | 58.055030 | 9.570835 | 2.0 | 16.733 | 2 | 41.927 | 16.899 | 32.498 | 2 |
| 2025-09-13T09:33:00 | 58.054900 | 9.571215 | 2.0 | 16.733 | 2 | 41.886 | 16.900 | 32.462 | 2 |
| 2025-09-13T09:34:00 | 58.054796 | 9.571589 | 2.0 | 16.733 | 2 | 41.902 | 16.900 | 32.475 | 2 |
| 2025-09-13T09:35:00 | 58.054723 | 9.572034 | 2.0 | 16.732 | 2 | 41.929 | 16.899 | 32.500 | 2 |
| 2025-09-13T09:36:00 | 58.054688 | 9.572537 | 2.0 | 16.733 | 2 | 41.898 | 16.899 | 32.473 | 2 |
| 2025-09-13T09:37:00 | 58.054725 | 9.573122 | 2.0 | 16.733 | 2 | 41.863 | 16.900 | 32.442 | 2 |
| 2025-09-13T09:38:00 | 58.054779 | 9.573740 | 2.0 | 16.736 | 2 | 41.969 | 16.901 | 32.533 | 2 |
| 2025-09-13T09:39:00 | 58.054836 | 9.574565 | 2.0 | 16.735 | 2 | 41.881 | 16.902 | 32.456 | 2 |
| 2025-09-13T09:40:00 | 58.054825 | 9.575351 | 2.0 | 16.733 | 2 | 41.844 | 16.902 | 32.424 | 2 |
| 2025-09-13T09:41:00 | 58.054735 | 9.575836 | 2.0 | 16.734 | 2 | 41.887 | 16.900 | 32.463 | 2 |
| 2025-09-13T09:42:00 | 58.054646 | 9.576256 | 2.0 | 16.734 | 2 | 41.752 | 16.899 | 32.347 | 2 |
| 2025-09-13T09:43:00 | 58.054575 | 9.576740 | 2.0 | 16.734 | 2 | 41.951 | 16.901 | 32.517 | 2 |
| 2025-09-13T09:44:00 | 58.054614 | 9.577325 | 2.0 | 16.734 | 2 | 41.908 | 16.901 | 32.480 | 2 |
| 2025-09-13T09:45:00 | 58.054658 | 9.578067 | 2.0 | 16.740 | 2 | 41.825 | 16.902 | 32.407 | 2 |
| 2025-09-13T09:46:00 | 58.054744 | 9.578945 | 2.0 | 16.739 | 2 | 41.824 | 16.908 | 32.402 | 2 |
| 2025-09-13T09:47:00 | 58.054876 | 9.579872 | 2.0 | 16.736 | 2 | 41.941 | 16.905 | 32.505 | 2 |
| 2025-09-13T09:48:00 | 58.055020 | 9.580880 | 2.0 | 16.735 | 2 | 41.949 | 16.902 | 32.515 | 2 |
| 2025-09-13T09:49:00 | 58.055107 | 9.582084 | 2.0 | 16.734 | 2 | 41.866 | 16.900 | 32.444 | 2 |
| 2025-09-13T09:50:00 | 58.055042 | 9.583392 | 2.0 | 16.733 | 2 | 41.903 | 16.899 | 32.477 | 2 |
| 2025-09-13T09:51:00 | 58.054844 | 9.584471 | 2.0 | 16.731 | 2 | 41.898 | 16.898 | 32.474 | 2 |
| 2025-09-13T09:52:00 | 58.054727 | 9.585158 | 2.0 | 16.732 | 2 | 41.907 | 16.898 | 32.481 | 2 |
| 2025-09-13T09:53:00 | 58.054732 | 9.585759 | 2.0 | 16.732 | 2 | 41.947 | 16.898 | 32.516 | 2 |
| 2025-09-13T09:54:00 | 58.054788 | 9.586430 | 2.0 | 16.733 | 2 | 41.930 | 16.898 | 32.501 | 2 |
| 2025-09-13T09:55:00 | 58.054866 | 9.587109 | 2.0 | 16.734 | 2 | 41.940 | 16.900 | 32.508 | 2 |
| 2025-09-13T09:56:00 | 58.054927 | 9.587657 | 2.0 | 16.733 | 2 | 41.937 | 16.899 | 32.507 | 2 |
| 2025-09-13T09:57:00 | 58.054971 | 9.588145 | 2.0 | 16.734 | 2 | 41.939 | 16.899 | 32.508 | 2 |
| 2025-09-13T09:58:00 | 58.054983 | 9.588614 | 2.0 | 16.736 | 2 | 41.977 | 16.900 | 32.540 | 2 |
| 2025-09-13T09:59:00 | 58.054993 | 9.589080 | 2.0 | 16.737 | 2 | 41.981 | 16.901 | 32.543 | 2 |
| 2025-09-13T10:00:00 | 58.055038 | 9.589627 | 2.0 | 16.736 | 2 | 41.977 | 16.902 | 32.539 | 2 |
| 2025-09-13T10:01:00 | 58.055068 | 9.590247 | 2.0 | 16.736 | 2 | 41.978 | 16.901 | 32.540 | 2 |
| 2025-09-13T10:02:00 | 58.055113 | 9.590775 | 2.0 | 16.736 | 2 | 41.986 | 16.902 | 32.547 | 2 |
| 2025-09-13T10:03:00 | 58.055133 | 9.591298 | 2.0 | 16.737 | 2 | 41.983 | 16.901 | 32.545 | 2 |
| 2025-09-13T10:04:00 | 58.055124 | 9.591759 | 2.0 | 16.737 | 2 | 41.977 | 16.902 | 32.539 | 2 |
| 2025-09-13T10:05:00 | 58.055060 | 9.592584 | 2.0 | 16.735 | 2 | 41.991 | 16.902 | 32.551 | 2 |
| 2025-09-13T10:06:00 | 58.054953 | 9.593526 | 2.0 | 16.736 | 2 | 41.992 | 16.900 | 32.553 | 2 |
| 2025-09-13T10:07:00 | 58.054789 | 9.594540 | 2.0 | 16.735 | 2 | 41.995 | 16.901 | 32.555 | 2 |
| 2025-09-13T10:08:00 | 58.054534 | 9.595332 | 2.0 | 16.737 | 2 | 41.999 | 16.899 | 32.560 | 2 |
| 2025-09-13T10:09:00 | 58.054095 | 9.595654 | 2.0 | 16.738 | 2 | 42.000 | 16.901 | 32.559 | 2 |
| 2025-09-13T10:10:00 | 58.053541 | 9.595993 | 2.0 | 16.738 | 2 | 42.003 | 16.902 | 32.561 | 2 |
| 2025-09-13T10:11:00 | 58.052926 | 9.596426 | 2.0 | 16.741 | 2 | 42.005 | 16.904 | 32.561 | 2 |
| 2025-09-13T10:12:00 | 58.052434 | 9.596961 | 2.0 | 16.744 | 2 | 42.006 | 16.906 | 32.561 | 2 |
| 2025-09-13T10:13:00 | 58.052008 | 9.597482 | 2.0 | 16.745 | 2 | 42.008 | 16.908 | 32.561 | 2 |
| 2025-09-13T10:14:00 | 58.051552 | 9.597911 | 2.0 | 16.745 | 2 | 42.008 | 16.908 | 32.561 | 2 |
| 2025-09-13T10:15:00 | 58.050953 | 9.598298 | 2.0 | 16.747 | 2 | 42.009 | 16.910 | 32.560 | 2 |
| 2025-09-13T10:16:00 | 58.050403 | 9.598787 | 2.0 | 16.747 | 2 | 42.009 | 16.911 | 32.559 | 2 |
| 2025-09-13T10:17:00 | 58.049908 | 9.599308 | 2.0 | 16.749 | 2 | 42.008 | 16.912 | 32.558 | 2 |
| 2025-09-13T10:18:00 | 58.049458 | 9.599700 | 2.0 | 16.750 | 2 | 42.008 | 16.913 | 32.557 | 2 |
| 2025-09-13T10:19:00 | 58.049034 | 9.600232 | 2.0 | 16.750 | 2 | 42.010 | 16.914 | 32.558 | 2 |
| 2025-09-13T10:20:00 | 58.048513 | 9.600638 | 2.0 | 16.749 | 2 | 42.010 | 16.913 | 32.558 | 2 |
| 2025-09-13T10:21:00 | 58.047964 | 9.601074 | 2.0 | 16.753 | 2 | 42.010 | 16.914 | 32.558 | 2 |
| 2025-09-13T10:22:00 | 58.047432 | 9.601505 | 2.0 | 16.752 | 2 | 42.010 | 16.916 | 32.556 | 2 |
| 2025-09-13T10:23:00 | 58.046861 | 9.601849 | 2.0 | 16.751 | 2 | 42.002 | 16.915 | 32.550 | 2 |
| 2025-09-13T10:24:00 | 58.046256 | 9.602173 | 2.0 | 16.745 | 2 | 42.009 | 16.913 | 32.558 | 2 |
| 2025-09-13T10:25:00 | 58.045643 | 9.602494 | 2.0 | 16.743 | 2 | 42.012 | 16.908 | 32.564 | 2 |
| 2025-09-13T10:26:00 | 58.045029 | 9.602851 | 2.0 | 16.737 | 2 | 42.010 | 16.906 | 32.564 | 2 |
| 2025-09-13T10:27:00 | 58.044486 | 9.603190 | 2.0 | 16.734 | 2 | 42.010 | 16.901 | 32.568 | 2 |
| 2025-09-13T10:28:00 | 58.043976 | 9.603502 | 2.0 | 16.728 | 2 | 42.015 | 16.896 | 32.577 | 2 |
| 2025-09-13T10:29:00 | 58.043490 | 9.603887 | 2.0 | 16.720 | 2 | 42.014 | 16.891 | 32.580 | 2 |
| 2025-09-13T10:30:00 | 58.042964 | 9.604293 | 2.0 | 16.711 | 2 | 42.016 | 16.883 | 32.588 | 2 |
| 2025-09-13T10:31:00 | 58.042361 | 9.604643 | 2.0 | 16.706 | 2 | 42.021 | 16.874 | 32.600 | 2 |
| 2025-09-13T10:32:00 | 58.041757 | 9.604958 | 2.0 | 16.695 | 2 | 42.025 | 16.869 | 32.607 | 2 |
| 2025-09-13T10:33:00 | 58.041335 | 9.605370 | 2.0 | 16.691 | 2 | 42.027 | 16.860 | 32.616 | 2 |
| 2025-09-13T10:34:00 | 58.040862 | 9.605795 | 2.0 | 16.679 | 2 | 42.028 | 16.852 | 32.623 | 2 |
| 2025-09-13T10:35:00 | 58.040321 | 9.606229 | 2.0 | 16.668 | 2 | 42.027 | 16.841 | 32.632 | 2 |
| 2025-09-13T10:36:00 | 58.039769 | 9.606645 | 2.0 | 16.658 | 2 | 42.026 | 16.832 | 32.638 | 2 |
| 2025-09-13T10:37:00 | 58.039189 | 9.607012 | 2.0 | 16.647 | 2 | 42.023 | 16.820 | 32.645 | 2 |
| 2025-09-13T10:38:00 | 58.038545 | 9.607406 | 2.0 | 16.630 | 2 | 42.022 | 16.810 | 32.652 | 2 |
| 2025-09-13T10:39:00 | 58.037925 | 9.607782 | 2.0 | 16.616 | 2 | 42.020 | 16.793 | 32.665 | 2 |
| 2025-09-13T10:40:00 | 58.037327 | 9.608198 | 2.0 | 16.605 | 2 | 42.020 | 16.781 | 32.674 | 2 |
| 2025-09-13T10:41:00 | 58.036772 | 9.608622 | 2.0 | 16.590 | 2 | 42.021 | 16.768 | 32.686 | 2 |
| 2025-09-13T10:42:00 | 58.036270 | 9.609025 | 2.0 | 16.579 | 2 | 42.025 | 16.754 | 32.701 | 2 |
| 2025-09-13T10:43:00 | 58.035783 | 9.609453 | 2.0 | 16.567 | 2 | 42.031 | 16.743 | 32.715 | 2 |
| 2025-09-13T10:44:00 | 58.035280 | 9.609828 | 2.0 | 16.559 | 2 | 42.035 | 16.730 | 32.729 | 2 |
| 2025-09-13T10:45:00 | 58.034768 | 9.610132 | 2.0 | 16.550 | 2 | 42.039 | 16.722 | 32.739 | 2 |
| 2025-09-13T10:46:00 | 58.034237 | 9.610549 | 2.0 | 16.544 | 2 | 42.041 | 16.715 | 32.746 | 2 |
| 2025-09-13T10:47:00 | 58.033721 | 9.610919 | 2.0 | 16.532 | 2 | 42.043 | 16.706 | 32.755 | 2 |
| 2025-09-13T10:48:00 | 58.033226 | 9.611226 | 2.0 | 16.522 | 2 | 42.047 | 16.695 | 32.768 | 2 |
| 2025-09-13T10:49:00 | 58.032763 | 9.611516 | 2.0 | 16.513 | 2 | 42.055 | 16.686 | 32.782 | 2 |
| 2025-09-13T10:50:00 | 58.032329 | 9.611906 | 2.0 | 16.505 | 2 | 42.058 | 16.676 | 32.793 | 2 |
| 2025-09-13T10:51:00 | 58.031888 | 9.612334 | 2.0 | 16.499 | 2 | 42.057 | 16.669 | 32.798 | 2 |
| 2025-09-13T10:52:00 | 58.031441 | 9.612603 | 2.0 | 16.494 | 2 | 42.059 | 16.663 | 32.805 | 2 |
| 2025-09-13T10:53:00 | 58.031013 | 9.612883 | 2.0 | 16.491 | 2 | 42.064 | 16.658 | 32.813 | 2 |
| 2025-09-13T10:54:00 | 58.030546 | 9.613173 | 2.0 | 16.482 | 2 | 42.066 | 16.654 | 32.818 | 2 |
| 2025-09-13T10:55:00 | 58.030036 | 9.613540 | 2.0 | 16.469 | 2 | 42.074 | 16.645 | 32.832 | 2 |
| 2025-09-13T10:56:00 | 58.029480 | 9.613885 | 2.0 | 16.455 | 2 | 42.079 | 16.632 | 32.847 | 2 |
| 2025-09-13T10:57:00 | 58.028967 | 9.614180 | 2.0 | 16.436 | 2 | 42.078 | 16.616 | 32.860 | 2 |
| 2025-09-13T10:58:00 | 58.028481 | 9.614475 | 2.0 | 16.427 | 2 | 42.070 | 16.601 | 32.865 | 2 |
| 2025-09-13T10:59:00 | 58.028016 | 9.614617 | 2.0 | 16.421 | 2 | 42.067 | 16.592 | 32.870 | 2 |
| 2025-09-13T11:00:00 | 58.027622 | 9.614754 | 2.0 | 16.415 | 2 | 42.070 | 16.586 | 32.877 | 2 |
| 2025-09-13T11:01:00 | 58.027150 | 9.614822 | 2.0 | 16.402 | 2 | 42.081 | 16.578 | 32.893 | 2 |
| 2025-09-13T11:02:00 | 58.026604 | 9.614854 | 2.0 | 16.386 | 2 | 42.100 | 16.565 | 32.921 | 2 |
| 2025-09-13T11:03:00 | 58.026081 | 9.614907 | 2.0 | 16.376 | 2 | 42.117 | 16.550 | 32.948 | 2 |
| 2025-09-13T11:04:00 | 58.025581 | 9.615010 | 2.0 | 16.373 | 2 | 42.140 | 16.541 | 32.975 | 2 |
| 2025-09-13T11:05:00 | 58.025137 | 9.615165 | 2.0 | 16.367 | 2 | 42.169 | 16.536 | 33.005 | 2 |
| 2025-09-13T11:06:00 | 58.024634 | 9.615186 | 2.0 | 16.349 | 2 | 42.180 | 16.530 | 33.020 | 2 |
| 2025-09-13T11:07:00 | 58.024033 | 9.615226 | 2.0 | 16.323 | 2 | 42.186 | 16.510 | 33.041 | 2 |
| 2025-09-13T11:08:00 | 58.023416 | 9.615543 | 2.0 | 16.311 | 2 | 42.201 | 16.487 | 33.073 | 2 |
| 2025-09-13T11:09:00 | 58.022913 | 9.615948 | 2.0 | 16.299 | 2 | 42.209 | 16.475 | 33.090 | 2 |
| 2025-09-13T11:10:00 | 58.022402 | 9.616299 | 2.0 | 16.286 | 2 | 42.205 | 16.464 | 33.096 | 2 |
| 2025-09-13T11:11:00 | 58.021899 | 9.616799 | 2.0 | 16.277 | 2 | 42.201 | 16.451 | 33.103 | 2 |
| 2025-09-13T11:12:00 | 58.021291 | 9.617339 | 2.0 | 16.261 | 2 | 42.201 | 16.440 | 33.112 | 2 |
| 2025-09-13T11:13:00 | 58.020694 | 9.617830 | 2.0 | 16.245 | 2 | 42.203 | 16.425 | 33.127 | 2 |
| 2025-09-13T11:14:00 | 58.020137 | 9.618244 | 2.0 | 16.232 | 2 | 42.232 | 16.410 | 33.165 | 2 |
| 2025-09-13T11:15:00 | 58.019592 | 9.618653 | 2.0 | 16.218 | 2 | 42.283 | 16.395 | 33.222 | 2 |
| 2025-09-13T11:16:00 | 58.019098 | 9.619072 | 2.0 | 16.217 | 2 | 42.338 | 16.384 | 33.279 | 2 |
| 2025-09-13T11:17:00 | 58.018582 | 9.619408 | 2.0 | 16.212 | 2 | 42.368 | 16.382 | 33.307 | 2 |
| 2025-09-13T11:18:00 | 58.018064 | 9.619794 | 2.0 | 16.210 | 2 | 42.383 | 16.377 | 33.325 | 2 |
| 2025-09-13T11:19:00 | 58.017499 | 9.620254 | 2.0 | 16.206 | 2 | 42.395 | 16.374 | 33.338 | 2 |
| 2025-09-13T11:20:00 | 58.016927 | 9.620618 | 2.0 | 16.206 | 2 | 42.403 | 16.371 | 33.347 | 2 |
| 2025-09-13T11:21:00 | 58.016454 | 9.621119 | 2.0 | 16.206 | 2 | 42.416 | 16.371 | 33.359 | 2 |
| 2025-09-13T11:22:00 | 58.016014 | 9.621498 | 2.0 | 16.204 | 2 | 42.430 | 16.371 | 33.371 | 2 |
| 2025-09-13T11:23:00 | 58.015546 | 9.621880 | 2.0 | 16.203 | 2 | 42.437 | 16.368 | 33.380 | 2 |
| 2025-09-13T11:24:00 | 58.015069 | 9.622182 | 2.0 | 16.201 | 2 | 42.447 | 16.367 | 33.389 | 2 |
| 2025-09-13T11:25:00 | 58.014634 | 9.622541 | 2.0 | 16.200 | 2 | 42.453 | 16.365 | 33.396 | 2 |
| 2025-09-13T11:26:00 | 58.014156 | 9.622940 | 2.0 | 16.200 | 2 | 42.460 | 16.365 | 33.402 | 2 |
| 2025-09-13T11:27:00 | 58.013574 | 9.623312 | 2.0 | 16.192 | 2 | 42.470 | 16.364 | 33.412 | 2 |
| 2025-09-13T11:28:00 | 58.013036 | 9.623749 | 2.0 | 16.181 | 2 | 42.472 | 16.356 | 33.420 | 2 |
| 2025-09-13T11:29:00 | 58.012489 | 9.624216 | 2.0 | 16.176 | 2 | 42.473 | 16.345 | 33.430 | 2 |
| 2025-09-13T11:30:00 | 58.011935 | 9.624618 | 2.0 | 16.182 | 2 | 42.343 | 16.342 | 33.319 | 2 |
| 2025-09-13T11:31:00 | 58.011364 | 9.625045 | 2.0 | 16.196 | 2 | 42.494 | 16.350 | 33.445 | 2 |
| 2025-09-13T11:32:00 | 58.010751 | 9.625485 | 2.0 | 16.201 | 2 | 42.463 | 16.361 | 33.408 | 2 |
| 2025-09-13T11:33:00 | 58.010154 | 9.625815 | 2.0 | 16.204 | 2 | 42.597 | 16.366 | 33.522 | 2 |
| 2025-09-13T11:34:00 | 58.009595 | 9.626278 | 2.0 | 16.207 | 2 | 42.467 | 16.370 | 33.404 | 2 |
| 2025-09-13T11:35:00 | 58.009082 | 9.626686 | 2.0 | 16.210 | 2 | 42.449 | 16.372 | 33.387 | 2 |
| 2025-09-13T11:36:00 | 58.008564 | 9.627080 | 2.0 | 16.212 | 2 | 42.478 | 16.374 | 33.411 | 2 |
| 2025-09-13T11:37:00 | 58.008061 | 9.627489 | 2.0 | 16.211 | 2 | 42.472 | 16.376 | 33.404 | 2 |
| 2025-09-13T11:38:00 | 58.007538 | 9.627940 | 2.0 | 16.209 | 2 | 42.414 | 16.374 | 33.354 | 2 |
| 2025-09-13T11:39:00 | 58.006953 | 9.628306 | 2.0 | 16.208 | 2 | 42.527 | 16.373 | 33.454 | 2 |
| 2025-09-13T11:40:00 | 58.006407 | 9.628699 | 2.0 | 16.210 | 2 | 42.631 | 16.373 | 33.546 | 2 |
| 2025-09-13T11:41:00 | 58.005887 | 9.629117 | 2.0 | 16.214 | 2 | 42.672 | 16.375 | 33.580 | 2 |
| 2025-09-13T11:42:00 | 58.005319 | 9.629545 | 2.0 | 16.217 | 2 | 42.671 | 16.378 | 33.577 | 2 |
| 2025-09-13T11:43:00 | 58.004711 | 9.629936 | 2.0 | 16.220 | 2 | 42.750 | 16.382 | 33.643 | 2 |
| 2025-09-13T11:44:00 | 58.004147 | 9.630382 | 2.0 | 16.223 | 2 | 42.631 | 16.385 | 33.536 | 2 |
| 2025-09-13T11:45:00 | 58.003604 | 9.630841 | 2.0 | 16.226 | 2 | 42.747 | 16.388 | 33.635 | 2 |
| 2025-09-13T11:46:00 | 58.003102 | 9.631276 | 2.0 | 16.230 | 2 | 42.776 | 16.391 | 33.658 | 2 |
| 2025-09-13T11:47:00 | 58.002588 | 9.631615 | 2.0 | 16.236 | 2 | 42.757 | 16.395 | 33.638 | 2 |
| 2025-09-13T11:48:00 | 58.002088 | 9.631946 | 2.0 | 16.242 | 2 | 42.809 | 16.401 | 33.679 | 2 |
| 2025-09-13T11:49:00 | 58.001585 | 9.632367 | 2.0 | 16.254 | 2 | 42.838 | 16.408 | 33.698 | 2 |
| 2025-09-13T11:50:00 | 58.001142 | 9.632747 | 2.0 | 16.268 | 2 | 42.959 | 16.419 | 33.796 | 2 |
| 2025-09-13T11:51:00 | 58.000672 | 9.633056 | 2.0 | 16.281 | 2 | 43.043 | 16.433 | 33.858 | 2 |
| 2025-09-13T11:52:00 | 58.000124 | 9.633382 | 2.0 | 16.291 | 2 | 43.033 | 16.447 | 33.837 | 2 |
| 2025-09-13T11:53:00 | 57.999545 | 9.633618 | 2.0 | 16.284 | 2 | 43.083 | 16.452 | 33.877 | 2 |
| 2025-09-13T11:54:00 | 57.998935 | 9.633849 | 2.0 | 16.276 | 2 | 43.148 | 16.447 | 33.938 | 2 |
| 2025-09-13T11:55:00 | 57.998365 | 9.634145 | 2.0 | 16.266 | 2 | 43.128 | 16.438 | 33.928 | 2 |
| 2025-09-13T11:56:00 | 57.997830 | 9.634395 | 2.0 | 16.261 | 2 | 43.139 | 16.430 | 33.945 | 2 |
| 2025-09-13T11:57:00 | 57.997259 | 9.634638 | 2.0 | 16.258 | 2 | 43.142 | 16.425 | 33.951 | 2 |
| 2025-09-13T11:58:00 | 57.996660 | 9.634925 | 2.0 | 16.254 | 2 | 43.119 | 16.421 | 33.935 | 2 |
| 2025-09-13T11:59:00 | 57.996071 | 9.635202 | 2.0 | 16.255 | 2 | 43.142 | 16.418 | 33.957 | 2 |
| 2025-09-13T12:00:00 | 57.995510 | 9.635676 | 2.0 | 16.258 | 2 | 43.141 | 16.419 | 33.956 | 2 |
| 2025-09-13T12:01:00 | 57.994931 | 9.636100 | 2.0 | 16.261 | 2 | 43.152 | 16.422 | 33.963 | 2 |
| 2025-09-13T12:02:00 | 57.994364 | 9.636530 | 2.0 | 16.265 | 2 | 43.167 | 16.426 | 33.973 | 2 |
| 2025-09-13T12:03:00 | 57.993846 | 9.636983 | 2.0 | 16.239 | 2 | 43.166 | 16.426 | 33.972 | 2 |
| 2025-09-13T12:04:00 | 57.993292 | 9.637456 | 2.0 | 16.180 | 2 | 43.090 | 16.395 | 33.931 | 2 |
| 2025-09-13T12:05:00 | 57.992740 | 9.637995 | 2.0 | 16.167 | 2 | 42.915 | 16.346 | 33.819 | 2 |
| 2025-09-13T12:06:00 | 57.992199 | 9.638537 | 2.0 | 16.162 | 2 | 42.854 | 16.332 | 33.777 | 2 |
| 2025-09-13T12:07:00 | 57.991635 | 9.639023 | 2.0 | 16.161 | 2 | 42.831 | 16.328 | 33.760 | 2 |
| 2025-09-13T12:08:00 | 57.991109 | 9.639549 | 2.0 | 16.162 | 2 | 42.808 | 16.327 | 33.741 | 2 |
| 2025-09-13T12:09:00 | 57.990688 | 9.640110 | 2.0 | 16.161 | 2 | 42.803 | 16.326 | 33.737 | 2 |
| 2025-09-13T12:10:00 | 57.990252 | 9.640578 | 2.0 | 16.162 | 2 | 42.796 | 16.326 | 33.731 | 2 |
| 2025-09-13T12:11:00 | 57.989760 | 9.640971 | 2.0 | 16.163 | 2 | 42.784 | 16.327 | 33.719 | 2 |
| 2025-09-13T12:12:00 | 57.989260 | 9.641402 | 2.0 | 16.165 | 2 | 42.779 | 16.328 | 33.714 | 2 |
| 2025-09-13T12:13:00 | 57.988744 | 9.641808 | 2.0 | 16.168 | 2 | 42.781 | 16.329 | 33.715 | 2 |
| 2025-09-13T12:14:00 | 57.988222 | 9.642191 | 2.0 | 16.170 | 2 | 42.778 | 16.332 | 33.710 | 2 |
| 2025-09-13T12:15:00 | 57.987672 | 9.642564 | 2.0 | 16.172 | 2 | 42.780 | 16.334 | 33.710 | 2 |
| 2025-09-13T12:16:00 | 57.987107 | 9.642959 | 2.0 | 16.176 | 2 | 42.784 | 16.337 | 33.711 | 2 |
| 2025-09-13T12:17:00 | 57.986543 | 9.643321 | 2.0 | 16.177 | 2 | 42.790 | 16.339 | 33.715 | 2 |
| 2025-09-13T12:18:00 | 57.985966 | 9.643660 | 2.0 | 16.179 | 2 | 42.794 | 16.341 | 33.716 | 2 |
| 2025-09-13T12:19:00 | 57.985401 | 9.644056 | 2.0 | 16.182 | 2 | 42.795 | 16.344 | 33.715 | 2 |
| 2025-09-13T12:20:00 | 57.984856 | 9.644444 | 2.0 | 16.186 | 2 | 42.788 | 16.347 | 33.706 | 2 |
| 2025-09-13T12:21:00 | 57.984323 | 9.644861 | 2.0 | 16.187 | 2 | 42.780 | 16.350 | 33.696 | 2 |
| 2025-09-13T12:22:00 | 57.983789 | 9.645275 | 2.0 | 16.191 | 2 | 42.783 | 16.351 | 33.698 | 2 |
| 2025-09-13T12:23:00 | 57.983260 | 9.645706 | 2.0 | 16.195 | 2 | 42.787 | 16.356 | 33.698 | 2 |
| 2025-09-13T12:24:00 | 57.982785 | 9.646153 | 2.0 | 16.198 | 2 | 42.791 | 16.359 | 33.699 | 2 |
| 2025-09-13T12:25:00 | 57.982365 | 9.646579 | 2.0 | 16.198 | 2 | 42.796 | 16.361 | 33.701 | 2 |
| 2025-09-13T12:26:00 | 57.981912 | 9.647023 | 2.0 | 16.200 | 2 | 42.801 | 16.362 | 33.705 | 2 |
| 2025-09-13T12:27:00 | 57.981442 | 9.647414 | 2.0 | 16.200 | 2 | 42.807 | 16.363 | 33.709 | 2 |
| 2025-09-13T12:28:00 | 57.980989 | 9.647837 | 2.0 | 16.201 | 2 | 42.816 | 16.363 | 33.717 | 2 |
| 2025-09-13T12:29:00 | 57.980509 | 9.648163 | 2.0 | 16.204 | 2 | 42.825 | 16.365 | 33.723 | 2 |
| 2025-09-13T12:30:00 | 57.979960 | 9.648416 | 2.0 | 16.206 | 2 | 42.832 | 16.368 | 33.727 | 2 |
| 2025-09-13T12:31:00 | 57.979378 | 9.648692 | 2.0 | 16.207 | 2 | 42.839 | 16.369 | 33.732 | 2 |
| 2025-09-13T12:32:00 | 57.978777 | 9.648908 | 2.0 | 16.207 | 2 | 42.843 | 16.371 | 33.734 | 2 |
| 2025-09-13T12:33:00 | 57.978178 | 9.649227 | 2.0 | 16.206 | 2 | 42.849 | 16.371 | 33.739 | 2 |
| 2025-09-13T12:34:00 | 57.977558 | 9.649511 | 2.0 | 16.206 | 2 | 42.858 | 16.370 | 33.748 | 2 |
| 2025-09-13T12:35:00 | 57.976940 | 9.649803 | 2.0 | 16.207 | 2 | 42.868 | 16.369 | 33.758 | 2 |
| 2025-09-13T12:36:00 | 57.976346 | 9.650078 | 2.0 | 16.210 | 2 | 42.884 | 16.370 | 33.771 | 2 |
| 2025-09-13T12:37:00 | 57.975756 | 9.650366 | 2.0 | 16.214 | 2 | 42.908 | 16.374 | 33.789 | 2 |
| 2025-09-13T12:38:00 | 57.975198 | 9.650688 | 2.0 | 16.224 | 2 | 42.933 | 16.379 | 33.807 | 2 |
| 2025-09-13T12:39:00 | 57.974680 | 9.651018 | 2.0 | 16.229 | 2 | 42.968 | 16.387 | 33.831 | 2 |
| 2025-09-13T12:40:00 | 57.974192 | 9.651394 | 2.0 | 16.229 | 2 | 42.989 | 16.392 | 33.845 | 2 |
| 2025-09-13T12:41:00 | 57.973760 | 9.651730 | 2.0 | 16.228 | 2 | 42.989 | 16.393 | 33.844 | 2 |
| 2025-09-13T12:42:00 | 57.973220 | 9.652019 | 2.0 | 16.228 | 2 | 42.980 | 16.392 | 33.837 | 2 |
| 2025-09-13T12:43:00 | 57.972591 | 9.652315 | 2.0 | 16.226 | 2 | 42.974 | 16.392 | 33.832 | 2 |
| 2025-09-13T12:44:00 | 57.972003 | 9.652590 | 2.0 | 16.223 | 2 | 42.965 | 16.389 | 33.826 | 2 |
| 2025-09-13T12:45:00 | 57.971438 | 9.652872 | 2.0 | 16.222 | 2 | 42.959 | 16.387 | 33.823 | 2 |
| 2025-09-13T12:46:00 | 57.970915 | 9.653194 | 2.0 | 16.222 | 2 | 42.947 | 16.386 | 33.813 | 2 |
| 2025-09-13T12:47:00 | 57.970405 | 9.653517 | 2.0 | 16.221 | 2 | 42.940 | 16.385 | 33.808 | 2 |
| 2025-09-13T12:48:00 | 57.969909 | 9.653807 | 2.0 | 16.220 | 2 | 42.935 | 16.384 | 33.804 | 2 |
| 2025-09-13T12:49:00 | 57.969401 | 9.654105 | 2.0 | 16.219 | 2 | 42.933 | 16.383 | 33.803 | 2 |
| 2025-09-13T12:50:00 | 57.968866 | 9.654417 | 2.0 | 16.219 | 2 | 42.929 | 16.382 | 33.801 | 2 |
| 2025-09-13T12:51:00 | 57.968336 | 9.654713 | 2.0 | 16.219 | 2 | 42.921 | 16.382 | 33.793 | 2 |
| 2025-09-13T12:52:00 | 57.967811 | 9.655004 | 2.0 | 16.218 | 2 | 42.917 | 16.382 | 33.790 | 2 |
| 2025-09-13T12:53:00 | 57.967376 | 9.655360 | 2.0 | 16.218 | 2 | 42.916 | 16.382 | 33.789 | 2 |
| 2025-09-13T12:54:00 | 57.966931 | 9.655643 | 2.0 | 16.219 | 2 | 42.911 | 16.382 | 33.785 | 2 |
| 2025-09-13T12:55:00 | 57.966525 | 9.656078 | 2.0 | 16.219 | 2 | 42.909 | 16.382 | 33.783 | 2 |
| 2025-09-13T12:56:00 | 57.966090 | 9.656403 | 2.0 | 16.218 | 2 | 42.908 | 16.382 | 33.782 | 2 |
| 2025-09-13T12:57:00 | 57.965607 | 9.656753 | 2.0 | 16.216 | 2 | 42.907 | 16.380 | 33.783 | 2 |
| 2025-09-13T12:58:00 | 57.965088 | 9.657092 | 2.0 | 16.216 | 2 | 42.904 | 16.379 | 33.781 | 2 |
| 2025-09-13T12:59:00 | 57.964551 | 9.657441 | 2.0 | 16.215 | 2 | 42.905 | 16.379 | 33.782 | 2 |
| 2025-09-13T13:00:00 | 57.963971 | 9.657779 | 2.0 | 16.214 | 2 | 42.903 | 16.378 | 33.781 | 2 |
| 2025-09-13T13:01:00 | 57.963392 | 9.658164 | 2.0 | 16.216 | 2 | 42.903 | 16.378 | 33.781 | 2 |
| 2025-09-13T13:02:00 | 57.962773 | 9.658524 | 2.0 | 16.215 | 2 | 42.905 | 16.378 | 33.783 | 2 |
| 2025-09-13T13:03:00 | 57.962140 | 9.658872 | 2.0 | 16.217 | 2 | 42.907 | 16.379 | 33.784 | 2 |
| 2025-09-13T13:04:00 | 57.961656 | 9.659319 | 2.0 | 16.215 | 2 | 42.912 | 16.380 | 33.787 | 2 |
| 2025-09-13T13:05:00 | 57.961337 | 9.659833 | 2.0 | 16.205 | 2 | 42.913 | 16.376 | 33.792 | 2 |
| 2025-09-13T13:06:00 | 57.961144 | 9.660358 | 2.0 | 16.205 | 2 | 42.911 | 16.370 | 33.795 | 2 |
| 2025-09-13T13:07:00 | 57.961024 | 9.660888 | 2.0 | 16.194 | 2 | 42.910 | 16.366 | 33.797 | 2 |
| 2025-09-13T13:08:00 | 57.960951 | 9.661260 | 2.0 | 16.191 | 2 | 42.904 | 16.357 | 33.800 | 2 |
| 2025-09-13T13:09:00 | 57.960884 | 9.661451 | 2.0 | 16.191 | 2 | 42.901 | 16.353 | 33.800 | 2 |
| 2025-09-13T13:10:00 | 57.960797 | 9.661700 | 2.0 | 16.191 | 2 | 42.900 | 16.353 | 33.800 | 2 |
| 2025-09-13T13:11:00 | 57.960760 | 9.661985 | 2.0 | 16.192 | 2 | 42.900 | 16.353 | 33.800 | 2 |
| 2025-09-13T13:12:00 | 57.960733 | 9.662255 | 2.0 | 16.192 | 2 | 42.902 | 16.355 | 33.800 | 2 |
| 2025-09-13T13:13:00 | 57.960706 | 9.662565 | 2.0 | 16.190 | 2 | 42.902 | 16.354 | 33.801 | 2 |
| 2025-09-13T13:14:00 | 57.960677 | 9.662857 | 2.0 | 16.191 | 2 | 42.902 | 16.353 | 33.801 | 2 |
| 2025-09-13T13:15:00 | 57.960620 | 9.663111 | 2.0 | 16.191 | 2 | 42.902 | 16.353 | 33.801 | 2 |
| 2025-09-13T13:16:00 | 57.960534 | 9.663295 | 2.0 | 16.190 | 2 | 42.902 | 16.353 | 33.801 | 2 |
| 2025-09-13T13:17:00 | 57.960494 | 9.663571 | 2.0 | 16.191 | 2 | 42.902 | 16.353 | 33.801 | 2 |
| 2025-09-13T13:18:00 | 57.960455 | 9.663871 | 2.0 | 16.190 | 2 | 42.903 | 16.353 | 33.802 | 2 |
| 2025-09-13T13:19:00 | 57.960409 | 9.664107 | 2.0 | 16.191 | 2 | 42.903 | 16.352 | 33.803 | 2 |
| 2025-09-13T13:20:00 | 57.960358 | 9.664348 | 2.0 | 16.189 | 2 | 42.903 | 16.352 | 33.803 | 2 |
| 2025-09-13T13:21:00 | 57.960299 | 9.664606 | 2.0 | 16.188 | 2 | 42.903 | 16.351 | 33.804 | 2 |
| 2025-09-13T13:22:00 | 57.960235 | 9.664887 | 2.0 | 16.188 | 2 | 42.903 | 16.349 | 33.806 | 2 |
| 2025-09-13T13:23:00 | 57.960193 | 9.665136 | 2.0 | 16.188 | 2 | 42.903 | 16.350 | 33.805 | 2 |
| 2025-09-13T13:24:00 | 57.960149 | 9.665337 | 2.0 | 16.188 | 2 | 42.904 | 16.350 | 33.806 | 2 |
| 2025-09-13T13:25:00 | 57.960092 | 9.665539 | 2.0 | 16.190 | 2 | 42.905 | 16.350 | 33.807 | 2 |
| 2025-09-13T13:26:00 | 57.960019 | 9.665718 | 2.0 | 16.189 | 2 | 42.906 | 16.352 | 33.806 | 2 |
| 2025-09-13T13:27:00 | 57.959949 | 9.665883 | 2.0 | 16.188 | 2 | 42.907 | 16.351 | 33.807 | 2 |
| 2025-09-13T13:28:00 | 57.959898 | 9.666038 | 2.0 | 16.189 | 2 | 42.907 | 16.351 | 33.807 | 2 |
| 2025-09-13T13:29:00 | 57.959894 | 9.666198 | 2.0 | 16.187 | 2 | 42.908 | 16.351 | 33.808 | 2 |
| 2025-09-13T13:30:00 | 57.959888 | 9.666367 | 2.0 | 16.187 | 2 | 42.909 | 16.351 | 33.809 | 2 |
| 2025-09-13T13:31:00 | 57.959840 | 9.666499 | 2.0 | 16.188 | 2 | 42.908 | 16.351 | 33.808 | 2 |
| 2025-09-13T13:32:00 | 57.959783 | 9.666682 | 2.0 | 16.187 | 2 | 42.905 | 16.352 | 33.805 | 2 |
| 2025-09-13T13:33:00 | 57.959818 | 9.666942 | 2.0 | 16.187 | 2 | 42.906 | 16.351 | 33.807 | 2 |
| 2025-09-13T13:34:00 | 57.959780 | 9.667041 | 2.0 | 16.187 | 2 | 42.908 | 16.350 | 33.809 | 2 |
| 2025-09-13T13:35:00 | 57.959991 | 9.665472 | 2.0 | 16.184 | 2 | 42.910 | 16.348 | 33.813 | 2 |
| 2025-09-13T13:36:00 | 57.961992 | 9.665448 | 2.0 | 16.198 | 2 | 42.910 | 16.352 | 33.809 | 2 |
| 2025-09-13T13:37:00 | 57.964660 | 9.665942 | 2.0 | 16.218 | 2 | 42.915 | 16.366 | 33.802 | 2 |
| 2025-09-13T13:38:00 | 57.967521 | 9.665966 | 2.0 | 16.227 | 2 | 42.916 | 16.384 | 33.787 | 2 |
| 2025-09-13T13:39:00 | 57.970445 | 9.665946 | 2.0 | 16.230 | 2 | 42.919 | 16.393 | 33.782 | 2 |
| 2025-09-13T13:40:00 | 57.973394 | 9.665944 | 2.0 | 16.232 | 2 | 42.929 | 16.396 | 33.789 | 2 |
| 2025-09-13T13:41:00 | 57.976324 | 9.665915 | 2.0 | 16.226 | 2 | 42.940 | 16.397 | 33.798 | 2 |
| 2025-09-13T13:42:00 | 57.979209 | 9.665899 | 2.0 | 16.221 | 2 | 42.850 | 16.391 | 33.723 | 2 |
| 2025-09-13T13:43:00 | 57.982084 | 9.665922 | 2.0 | 16.209 | 2 | 42.769 | 16.384 | 33.658 | 2 |
| 2025-09-13T13:44:00 | 57.984971 | 9.665887 | 2.0 | 16.193 | 2 | 42.706 | 16.373 | 33.612 | 2 |
| 2025-09-13T13:45:00 | 57.987854 | 9.665799 | 2.0 | 16.183 | 2 | 42.668 | 16.358 | 33.591 | 2 |
| 2025-09-13T13:46:00 | 57.990742 | 9.665859 | 2.0 | 16.166 | 2 | 42.674 | 16.348 | 33.605 | 2 |
| 2025-09-13T13:47:00 | 57.993621 | 9.665885 | 2.0 | 16.140 | 2 | 42.668 | 16.328 | 33.616 | 2 |
| 2025-09-13T13:48:00 | 57.996482 | 9.665867 | 2.0 | 16.155 | 2 | 42.668 | 16.310 | 33.632 | 2 |
| 2025-09-13T13:49:00 | 57.999355 | 9.665842 | 2.0 | 16.170 | 2 | 42.723 | 16.321 | 33.671 | 2 |
| 2025-09-13T13:50:00 | 58.002202 | 9.665797 | 2.0 | 16.194 | 2 | 42.667 | 16.341 | 33.605 | 2 |
| 2025-09-13T13:51:00 | 58.005038 | 9.665737 | 2.0 | 16.202 | 2 | 42.616 | 16.360 | 33.544 | 2 |
| 2025-09-13T13:52:00 | 58.007875 | 9.665703 | 2.0 | 16.202 | 2 | 42.611 | 16.366 | 33.534 | 2 |
| 2025-09-13T13:53:00 | 58.010704 | 9.665700 | 2.0 | 16.196 | 2 | 42.593 | 16.366 | 33.518 | 2 |
| 2025-09-13T13:54:00 | 58.013530 | 9.665701 | 2.0 | 16.228 | 2 | 42.519 | 16.365 | 33.454 | 2 |
| 2025-09-13T13:55:00 | 58.016341 | 9.665771 | 2.0 | 16.316 | 2 | 42.374 | 16.410 | 33.289 | 2 |
| 2025-09-13T13:56:00 | 58.019132 | 9.666347 | 2.0 | 16.392 | 2 | 42.174 | 16.490 | 33.047 | 2 |
| 2025-09-13T13:57:00 | 58.021913 | 9.667381 | 2.0 | 16.449 | 2 | 42.094 | 16.562 | 32.918 | 2 |
| 2025-09-13T13:58:00 | 58.024676 | 9.668504 | 2.0 | 16.489 | 2 | 42.065 | 16.614 | 32.850 | 2 |
| 2025-09-13T13:59:00 | 58.027461 | 9.669382 | 2.0 | 16.519 | 2 | 42.032 | 16.652 | 32.790 | 2 |
| 2025-09-13T14:00:00 | 58.030184 | 9.668695 | 2.0 | 16.567 | 2 | 42.039 | 16.687 | 32.767 | 2 |
| 2025-09-13T14:01:00 | 58.032964 | 9.668243 | 2.0 | 16.608 | 2 | 42.050 | 16.732 | 32.740 | 2 |
| 2025-09-13T14:02:00 | 58.035762 | 9.667856 | 2.0 | 16.650 | 2 | 42.037 | 16.776 | 32.693 | 2 |
| 2025-09-13T14:03:00 | 58.038618 | 9.668069 | 2.0 | 16.692 | 2 | 42.014 | 16.815 | 32.641 | 2 |
| 2025-09-13T14:04:00 | 58.041466 | 9.668892 | 2.0 | 16.733 | 2 | 42.007 | 16.858 | 32.600 | 2 |
| 2025-09-13T14:05:00 | 58.044291 | 9.669890 | 2.0 | 16.758 | 2 | 42.020 | 16.897 | 32.580 | 2 |
| 2025-09-13T14:06:00 | 58.047149 | 9.670880 | 2.0 | 16.772 | 2 | 42.027 | 16.920 | 32.567 | 2 |
| 2025-09-13T14:07:00 | 58.049993 | 9.671840 | 2.0 | 16.780 | 2 | 42.027 | 16.933 | 32.557 | 2 |
| 2025-09-13T14:08:00 | 58.052831 | 9.672786 | 2.0 | 16.781 | 2 | 42.029 | 16.940 | 32.553 | 2 |
| 2025-09-13T14:09:00 | 58.055672 | 9.673762 | 2.0 | 16.783 | 2 | 42.033 | 16.942 | 32.555 | 2 |
| 2025-09-13T14:10:00 | 58.058524 | 9.674672 | 2.0 | 16.784 | 2 | 42.036 | 16.944 | 32.556 | 2 |
| 2025-09-13T14:11:00 | 58.061396 | 9.675637 | 2.0 | 16.782 | 2 | 42.037 | 16.945 | 32.556 | 2 |
| 2025-09-13T14:12:00 | 58.064256 | 9.676642 | 2.0 | 16.777 | 2 | 42.036 | 16.943 | 32.557 | 2 |
| 2025-09-13T14:13:00 | 58.067146 | 9.677574 | 2.0 | 16.771 | 2 | 42.034 | 16.937 | 32.560 | 2 |
| 2025-09-13T14:14:00 | 58.070031 | 9.678521 | 2.0 | 16.768 | 2 | 42.036 | 16.933 | 32.565 | 2 |
| 2025-09-13T14:15:00 | 58.072900 | 9.679527 | 2.0 | 16.769 | 2 | 42.033 | 16.930 | 32.565 | 2 |
| 2025-09-13T14:16:00 | 58.075722 | 9.680425 | 2.0 | 16.766 | 2 | 42.027 | 16.932 | 32.558 | 2 |
| 2025-09-13T14:17:00 | 58.078022 | 9.681163 | 2.0 | 16.756 | 2 | 42.019 | 16.927 | 32.555 | 2 |
| 2025-09-13T14:18:00 | 58.079742 | 9.681668 | 2.0 | 16.746 | 2 | 42.005 | 16.917 | 32.551 | 2 |
| 2025-09-13T14:19:00 | 58.080581 | 9.683335 | 2.0 | 16.742 | 2 | 41.997 | 16.907 | 32.552 | 2 |
| 2025-09-13T14:20:00 | 58.080641 | 9.684839 | 2.0 | 16.743 | 2 | 41.990 | 16.904 | 32.548 | 2 |
| 2025-09-13T14:21:00 | 58.080561 | 9.685903 | 2.0 | 16.744 | 2 | 41.993 | 16.904 | 32.551 | 2 |
| 2025-09-13T14:22:00 | 58.080479 | 9.686815 | 2.0 | 16.743 | 2 | 41.993 | 16.905 | 32.550 | 2 |
| 2025-09-13T14:23:00 | 58.080445 | 9.687710 | 2.0 | 16.743 | 2 | 41.992 | 16.905 | 32.549 | 2 |
| 2025-09-13T14:24:00 | 58.080454 | 9.688567 | 2.0 | 16.741 | 2 | 41.992 | 16.904 | 32.550 | 2 |
| 2025-09-13T14:25:00 | 58.080501 | 9.689483 | 2.0 | 16.744 | 2 | 41.991 | 16.902 | 32.551 | 2 |
| 2025-09-13T14:26:00 | 58.080516 | 9.690464 | 2.0 | 16.743 | 2 | 41.994 | 16.905 | 32.551 | 2 |
| 2025-09-13T14:27:00 | 58.080447 | 9.691453 | 2.0 | 16.743 | 2 | 41.994 | 16.903 | 32.553 | 2 |
| 2025-09-13T14:28:00 | 58.080393 | 9.692009 | 2.0 | 16.742 | 2 | 41.994 | 16.903 | 32.553 | 2 |
| 2025-09-13T14:29:00 | 58.080412 | 9.692093 | 2.0 | 16.742 | 2 | 41.993 | 16.903 | 32.552 | 2 |
| 2025-09-13T14:30:00 | 58.080455 | 9.692054 | 2.0 | 16.734 | 2 | 41.992 | 16.902 | 32.552 | 2 |
| 2025-09-13T14:31:00 | 58.080479 | 9.691963 | 2.0 | 16.735 | 2 | 41.963 | 16.896 | 32.532 | 2 |
| 2025-09-13T14:32:00 | 58.080510 | 9.691857 | 2.0 | 16.731 | 2 | 41.957 | 16.895 | 32.527 | 2 |
| 2025-09-13T14:33:00 | 58.080424 | 9.692006 | 2.0 | 16.735 | 2 | 41.950 | 16.893 | 32.523 | 2 |
| 2025-09-13T14:34:00 | 58.080287 | 9.692188 | 2.0 | 16.735 | 2 | 41.964 | 16.896 | 32.532 | 2 |
| 2025-09-13T14:35:00 | 58.080173 | 9.692163 | 2.0 | 16.738 | 2 | 41.965 | 16.896 | 32.533 | 2 |
| 2025-09-13T14:36:00 | 58.079965 | 9.692389 | 2.0 | 16.742 | 2 | 41.969 | 16.898 | 32.535 | 2 |
| 2025-09-13T14:37:00 | 58.079708 | 9.692573 | 2.0 | 16.744 | 2 | 41.982 | 16.903 | 32.542 | 2 |
| 2025-09-13T14:38:00 | 58.079502 | 9.692759 | 2.0 | 16.745 | 2 | 41.984 | 16.904 | 32.543 | 2 |
| 2025-09-13T14:39:00 | 58.079368 | 9.693400 | 2.0 | 16.745 | 2 | 41.985 | 16.905 | 32.543 | 2 |
| 2025-09-13T14:40:00 | 58.079274 | 9.694176 | 2.0 | 16.744 | 2 | 41.985 | 16.906 | 32.542 | 2 |
| 2025-09-13T14:41:00 | 58.079195 | 9.694950 | 2.0 | 16.744 | 2 | 41.983 | 16.905 | 32.542 | 2 |
| 2025-09-13T14:42:00 | 58.079156 | 9.695651 | 2.0 | 16.747 | 2 | 41.983 | 16.906 | 32.541 | 2 |
| 2025-09-13T14:43:00 | 58.079128 | 9.696321 | 2.0 | 16.747 | 2 | 41.989 | 16.908 | 32.544 | 2 |
| 2025-09-13T14:44:00 | 58.079115 | 9.697008 | 2.0 | 16.747 | 2 | 41.992 | 16.909 | 32.546 | 2 |
| 2025-09-13T14:45:00 | 58.079141 | 9.697728 | 2.0 | 16.746 | 2 | 41.991 | 16.908 | 32.546 | 2 |
| 2025-09-13T14:46:00 | 58.079199 | 9.698457 | 2.0 | 16.747 | 2 | 41.982 | 16.907 | 32.539 | 2 |
| 2025-09-13T14:47:00 | 58.079195 | 9.699192 | 2.0 | 16.745 | 2 | 41.984 | 16.907 | 32.541 | 2 |
| 2025-09-13T14:48:00 | 58.079150 | 9.699579 | 2.0 | 16.747 | 2 | 41.985 | 16.906 | 32.542 | 2 |
| 2025-09-13T14:49:00 | 58.079075 | 9.699724 | 2.0 | 16.751 | 2 | 41.989 | 16.908 | 32.544 | 2 |
| 2025-09-13T14:50:00 | 58.079017 | 9.699835 | 2.0 | 16.751 | 2 | 41.995 | 16.911 | 32.547 | 2 |
| 2025-09-13T14:51:00 | 58.078992 | 9.699982 | 2.0 | 16.750 | 2 | 41.995 | 16.911 | 32.547 | 2 |
| 2025-09-13T14:52:00 | 58.078981 | 9.700094 | 2.0 | 16.748 | 2 | 41.995 | 16.910 | 32.548 | 2 |
| 2025-09-13T14:53:00 | 58.078959 | 9.700174 | 2.0 | 16.751 | 2 | 41.995 | 16.909 | 32.549 | 2 |
| 2025-09-13T14:54:00 | 58.078910 | 9.700325 | 2.0 | 16.751 | 2 | 41.998 | 16.912 | 32.549 | 2 |
| 2025-09-13T14:55:00 | 58.078905 | 9.700556 | 2.0 | 16.748 | 2 | 41.995 | 16.911 | 32.547 | 2 |
| 2025-09-13T14:56:00 | 58.078909 | 9.700793 | 2.0 | 16.749 | 2 | 41.993 | 16.909 | 32.547 | 2 |
| 2025-09-13T14:57:00 | 58.078899 | 9.701036 | 2.0 | 16.749 | 2 | 41.994 | 16.910 | 32.547 | 2 |
| 2025-09-13T14:58:00 | 58.078912 | 9.701224 | 2.0 | 16.747 | 2 | 41.993 | 16.909 | 32.547 | 2 |
| 2025-09-13T14:59:00 | 58.078920 | 9.701458 | 2.0 | 16.752 | 2 | 41.993 | 16.908 | 32.548 | 2 |
| 2025-09-13T15:00:00 | 58.078947 | 9.701774 | 2.0 | 16.754 | 2 | 41.999 | 16.913 | 32.549 | 2 |
| 2025-09-13T15:01:00 | 58.078970 | 9.701991 | 2.0 | 16.751 | 2 | 42.002 | 16.914 | 32.551 | 2 |
| 2025-09-13T15:02:00 | 58.078987 | 9.702132 | 2.0 | 16.749 | 2 | 41.998 | 16.911 | 32.550 | 2 |
| 2025-09-13T15:03:00 | 58.078970 | 9.702308 | 2.0 | 16.748 | 2 | 41.995 | 16.909 | 32.549 | 2 |
| 2025-09-13T15:04:00 | 58.078966 | 9.702538 | 2.0 | 16.750 | 2 | 41.994 | 16.908 | 32.549 | 2 |
| 2025-09-13T15:05:00 | 58.078954 | 9.702741 | 2.0 | 16.752 | 2 | 41.996 | 16.910 | 32.549 | 2 |
| 2025-09-13T15:06:00 | 58.078918 | 9.702927 | 2.0 | 16.751 | 2 | 42.001 | 16.913 | 32.551 | 2 |
| 2025-09-13T15:07:00 | 58.078906 | 9.703203 | 2.0 | 16.752 | 2 | 41.999 | 16.911 | 32.551 | 2 |
| 2025-09-13T15:08:00 | 58.078891 | 9.703518 | 2.0 | 16.752 | 2 | 41.999 | 16.913 | 32.549 | 2 |
| 2025-09-13T15:09:00 | 58.078877 | 9.703761 | 2.0 | 16.749 | 2 | 41.999 | 16.912 | 32.550 | 2 |
| 2025-09-13T15:10:00 | 58.078891 | 9.703918 | 2.0 | 16.748 | 2 | 41.995 | 16.909 | 32.549 | 2 |
| 2025-09-13T15:11:00 | 58.078906 | 9.704119 | 2.0 | 16.753 | 2 | 41.998 | 16.910 | 32.550 | 2 |
| 2025-09-13T15:12:00 | 58.078922 | 9.704345 | 2.0 | 16.752 | 2 | 42.003 | 16.914 | 32.552 | 2 |
| 2025-09-13T15:13:00 | 58.078963 | 9.704488 | 2.0 | 16.751 | 2 | 42.001 | 16.912 | 32.551 | 2 |
| 2025-09-13T15:14:00 | 58.078999 | 9.704587 | 2.0 | 16.749 | 2 | 41.999 | 16.912 | 32.550 | 2 |
| 2025-09-13T15:15:00 | 58.079023 | 9.704643 | 2.0 | 16.750 | 2 | 41.997 | 16.910 | 32.550 | 2 |
| 2025-09-13T15:16:00 | 58.079001 | 9.704730 | 2.0 | 16.748 | 2 | 41.998 | 16.910 | 32.550 | 2 |
| 2025-09-13T15:17:00 | 58.078970 | 9.704986 | 2.0 | 16.748 | 2 | 41.997 | 16.909 | 32.550 | 2 |
| 2025-09-13T15:18:00 | 58.078987 | 9.705171 | 2.0 | 16.749 | 2 | 41.996 | 16.908 | 32.550 | 2 |
| 2025-09-13T15:19:00 | 58.079018 | 9.705309 | 2.0 | 16.751 | 2 | 41.998 | 16.909 | 32.551 | 2 |
| 2025-09-13T15:20:00 | 58.079040 | 9.705568 | 2.0 | 16.752 | 2 | 42.001 | 16.911 | 32.552 | 2 |
| 2025-09-13T15:21:00 | 58.079085 | 9.705923 | 2.0 | 16.753 | 2 | 42.001 | 16.912 | 32.551 | 2 |
| 2025-09-13T15:22:00 | 58.079139 | 9.706312 | 2.0 | 16.753 | 2 | 42.003 | 16.914 | 32.552 | 2 |
| 2025-09-13T15:23:00 | 58.079170 | 9.706662 | 2.0 | 16.754 | 2 | 42.003 | 16.914 | 32.552 | 2 |
| 2025-09-13T15:24:00 | 58.079173 | 9.706966 | 2.0 | 16.753 | 2 | 42.004 | 16.914 | 32.552 | 2 |
| 2025-09-13T15:25:00 | 58.079192 | 9.707277 | 2.0 | 16.752 | 2 | 42.003 | 16.913 | 32.552 | 2 |
| 2025-09-13T15:26:00 | 58.079167 | 9.707594 | 2.0 | 16.753 | 2 | 42.003 | 16.913 | 32.552 | 2 |
| 2025-09-13T15:27:00 | 58.078899 | 9.708063 | 2.0 | 16.752 | 2 | 42.002 | 16.911 | 32.553 | 2 |
| 2025-09-13T15:28:00 | 58.078911 | 9.709391 | 2.0 | 16.753 | 2 | 42.002 | 16.912 | 32.552 | 2 |
| 2025-09-13T15:29:00 | 58.079827 | 9.710110 | 2.0 | 16.749 | 2 | 42.002 | 16.912 | 32.552 | 2 |
| 2025-09-13T15:30:00 | 58.081280 | 9.710698 | 2.0 | 16.745 | 2 | 41.999 | 16.910 | 32.551 | 2 |
| 2025-09-13T15:31:00 | 58.083009 | 9.711370 | 2.0 | 16.733 | 2 | 41.992 | 16.904 | 32.550 | 2 |
| 2025-09-13T15:32:00 | 58.084803 | 9.712492 | 2.0 | 16.728 | 2 | 41.977 | 16.894 | 32.545 | 2 |
| 2025-09-13T15:33:00 | 58.086378 | 9.714228 | 2.0 | 16.721 | 2 | 41.972 | 16.890 | 32.544 | 2 |
| 2025-09-13T15:34:00 | 58.087458 | 9.716282 | 2.0 | 16.716 | 2 | 41.968 | 16.883 | 32.546 | 2 |
| 2025-09-13T15:35:00 | 58.087527 | 9.718189 | 2.0 | 16.717 | 2 | 41.963 | 16.878 | 32.546 | 2 |
| 2025-09-13T15:36:00 | 58.087207 | 9.719133 | 2.0 | 16.717 | 2 | 41.961 | 16.879 | 32.544 | 2 |
| 2025-09-13T15:37:00 | 58.086771 | 9.719487 | 2.0 | 16.719 | 2 | 41.963 | 16.879 | 32.545 | 2 |
| 2025-09-13T15:38:00 | 58.086241 | 9.719745 | 2.0 | 16.721 | 2 | 41.966 | 16.881 | 32.546 | 2 |
| 2025-09-13T15:39:00 | 58.085690 | 9.719934 | 2.0 | 16.724 | 2 | 41.968 | 16.884 | 32.546 | 2 |
| 2025-09-13T15:40:00 | 58.085149 | 9.720107 | 2.0 | 16.726 | 2 | 41.970 | 16.885 | 32.546 | 2 |
| 2025-09-13T15:41:00 | 58.084615 | 9.720332 | 2.0 | 16.729 | 2 | 41.975 | 16.888 | 32.548 | 2 |
| 2025-09-13T15:42:00 | 58.084105 | 9.720696 | 2.0 | 16.725 | 2 | 41.981 | 16.889 | 32.553 | 2 |
| 2025-09-13T15:43:00 | 58.083619 | 9.721121 | 2.0 | 16.729 | 2 | 41.983 | 16.887 | 32.556 | 2 |
| 2025-09-13T15:44:00 | 58.083131 | 9.721567 | 2.0 | 16.735 | 2 | 41.983 | 16.891 | 32.553 | 2 |
| 2025-09-13T15:45:00 | 58.082663 | 9.721950 | 2.0 | 16.738 | 2 | 41.987 | 16.896 | 32.552 | 2 |
| 2025-09-13T15:46:00 | 58.082242 | 9.722337 | 2.0 | 16.739 | 2 | 41.993 | 16.898 | 32.556 | 2 |
| 2025-09-13T15:47:00 | 58.081787 | 9.722710 | 2.0 | 16.745 | 2 | 41.997 | 16.901 | 32.557 | 2 |
| 2025-09-13T15:48:00 | 58.081294 | 9.723120 | 2.0 | 16.746 | 2 | 41.995 | 16.905 | 32.552 | 2 |
| 2025-09-13T15:49:00 | 58.080801 | 9.723538 | 2.0 | 16.745 | 2 | 41.998 | 16.907 | 32.553 | 2 |
| 2025-09-13T15:50:00 | 58.080317 | 9.723882 | 2.0 | 16.748 | 2 | 41.999 | 16.906 | 32.555 | 2 |
| 2025-09-13T15:51:00 | 58.079814 | 9.724233 | 2.0 | 16.750 | 2 | 41.810 | 16.910 | 32.388 | 2 |
| 2025-09-13T15:52:00 | 58.079342 | 9.724651 | 2.0 | 16.749 | 2 | 41.758 | 16.909 | 32.344 | 2 |
| 2025-09-13T15:53:00 | 58.078923 | 9.725119 | 2.0 | 16.747 | 2 | 41.835 | 16.909 | 32.410 | 2 |
| 2025-09-13T15:54:00 | 58.078519 | 9.725548 | 2.0 | 16.749 | 2 | 41.849 | 16.909 | 32.422 | 2 |
| 2025-09-13T15:55:00 | 58.078107 | 9.725993 | 2.0 | 16.750 | 2 | 41.921 | 16.910 | 32.484 | 2 |
| 2025-09-13T15:56:00 | 58.077681 | 9.726287 | 2.0 | 16.748 | 2 | 41.860 | 16.911 | 32.430 | 2 |
| 2025-09-13T15:57:00 | 58.077223 | 9.726640 | 2.0 | 16.745 | 2 | 41.880 | 16.907 | 32.451 | 2 |
| 2025-09-13T15:58:00 | 58.076738 | 9.727055 | 2.0 | 16.746 | 2 | 41.840 | 16.906 | 32.417 | 2 |
| 2025-09-13T15:59:00 | 58.076262 | 9.727449 | 2.0 | 16.742 | 2 | 42.010 | 16.906 | 32.564 | 2 |
| 2025-09-13T16:00:00 | 58.075757 | 9.727847 | 2.0 | 16.741 | 2 | 41.931 | 16.903 | 32.498 | 2 |
| 2025-09-13T16:01:00 | 58.075226 | 9.728240 | 2.0 | 16.742 | 2 | 41.981 | 16.902 | 32.542 | 2 |
| 2025-09-13T16:02:00 | 58.074710 | 9.728621 | 2.0 | 16.740 | 2 | 42.010 | 16.902 | 32.567 | 2 |
| 2025-09-13T16:03:00 | 58.074224 | 9.729074 | 2.0 | 16.738 | 2 | 41.873 | 16.900 | 32.450 | 2 |
| 2025-09-13T16:04:00 | 58.073700 | 9.729528 | 2.0 | 16.740 | 2 | 41.869 | 16.900 | 32.447 | 2 |
| 2025-09-13T16:05:00 | 58.073189 | 9.729997 | 2.0 | 16.740 | 2 | 41.930 | 16.901 | 32.499 | 2 |
| 2025-09-13T16:06:00 | 58.072628 | 9.730458 | 2.0 | 16.739 | 2 | 41.999 | 16.901 | 32.559 | 2 |
| 2025-09-13T16:07:00 | 58.072052 | 9.730892 | 2.0 | 16.740 | 2 | 41.902 | 16.900 | 32.475 | 2 |
| 2025-09-13T16:08:00 | 58.071495 | 9.731310 | 2.0 | 16.741 | 2 | 41.866 | 16.901 | 32.444 | 2 |
| 2025-09-13T16:09:00 | 58.070976 | 9.731699 | 2.0 | 16.741 | 2 | 41.948 | 16.902 | 32.514 | 2 |
| 2025-09-13T16:10:00 | 58.070500 | 9.732132 | 2.0 | 16.740 | 2 | 41.931 | 16.901 | 32.500 | 2 |
| 2025-09-13T16:11:00 | 58.070047 | 9.732541 | 2.0 | 16.743 | 2 | 41.795 | 16.902 | 32.381 | 2 |
| 2025-09-13T16:12:00 | 58.069597 | 9.732957 | 2.0 | 16.744 | 2 | 41.896 | 16.903 | 32.468 | 2 |
| 2025-09-13T16:13:00 | 58.069166 | 9.733322 | 2.0 | 16.744 | 2 | 41.834 | 16.904 | 32.413 | 2 |
| 2025-09-13T16:14:00 | 58.068757 | 9.733735 | 2.0 | 16.747 | 2 | 41.886 | 16.904 | 32.458 | 2 |
| 2025-09-13T16:15:00 | 58.068291 | 9.734133 | 2.0 | 16.743 | 2 | 41.864 | 16.907 | 32.437 | 2 |
| 2025-09-13T16:16:00 | 58.067796 | 9.734611 | 2.0 | 16.742 | 2 | 41.884 | 16.903 | 32.457 | 2 |
| 2025-09-13T16:17:00 | 58.067245 | 9.735076 | 2.0 | 16.742 | 2 | 41.861 | 16.903 | 32.438 | 2 |
| 2025-09-13T16:18:00 | 58.066698 | 9.735498 | 2.0 | 16.741 | 2 | 41.893 | 16.902 | 32.466 | 2 |
| 2025-09-13T16:19:00 | 58.066215 | 9.735886 | 2.0 | 16.742 | 2 | 41.879 | 16.902 | 32.454 | 2 |
| 2025-09-13T16:20:00 | 58.065752 | 9.736254 | 2.0 | 16.741 | 2 | 41.897 | 16.903 | 32.469 | 2 |
| 2025-09-13T16:21:00 | 58.065300 | 9.736695 | 2.0 | 16.741 | 2 | 41.901 | 16.902 | 32.473 | 2 |
| 2025-09-13T16:22:00 | 58.064906 | 9.737198 | 2.0 | 16.741 | 2 | 41.935 | 16.901 | 32.503 | 2 |
| 2025-09-13T16:23:00 | 58.064499 | 9.737569 | 2.0 | 16.736 | 2 | 41.897 | 16.901 | 32.470 | 2 |
| 2025-09-13T16:24:00 | 58.064076 | 9.737941 | 2.0 | 16.739 | 2 | 41.900 | 16.898 | 32.475 | 2 |
| 2025-09-13T16:25:00 | 58.063611 | 9.738305 | 2.0 | 16.736 | 2 | 41.937 | 16.898 | 32.507 | 2 |
| 2025-09-13T16:26:00 | 58.063087 | 9.738673 | 2.0 | 16.737 | 2 | 41.962 | 16.898 | 32.529 | 2 |
| 2025-09-13T16:27:00 | 58.062576 | 9.739094 | 2.0 | 16.733 | 2 | 41.947 | 16.898 | 32.516 | 2 |
| 2025-09-13T16:28:00 | 58.062099 | 9.739483 | 2.0 | 16.730 | 2 | 41.936 | 16.893 | 32.511 | 2 |
| 2025-09-13T16:29:00 | 58.061632 | 9.739902 | 2.0 | 16.729 | 2 | 41.972 | 16.891 | 32.543 | 2 |
| 2025-09-13T16:30:00 | 58.061130 | 9.740393 | 2.0 | 16.727 | 2 | 41.963 | 16.889 | 32.537 | 2 |
| 2025-09-13T16:31:00 | 58.060642 | 9.740859 | 2.0 | 16.723 | 2 | 41.960 | 16.886 | 32.537 | 2 |
| 2025-09-13T16:32:00 | 58.060183 | 9.741188 | 2.0 | 16.726 | 2 | 41.975 | 16.885 | 32.551 | 2 |
| 2025-09-13T16:33:00 | 58.059731 | 9.741707 | 2.0 | 16.723 | 2 | 41.980 | 16.886 | 32.554 | 2 |
| 2025-09-13T16:34:00 | 58.059262 | 9.742028 | 2.0 | 16.722 | 2 | 41.965 | 16.883 | 32.544 | 2 |
| 2025-09-13T16:35:00 | 58.058775 | 9.742431 | 2.0 | 16.722 | 2 | 41.978 | 16.882 | 32.556 | 2 |
| 2025-09-13T16:36:00 | 58.058331 | 9.742848 | 2.0 | 16.721 | 2 | 41.982 | 16.883 | 32.558 | 2 |
| 2025-09-13T16:37:00 | 58.057905 | 9.743442 | 2.0 | 16.718 | 2 | 41.982 | 16.882 | 32.559 | 2 |
| 2025-09-13T16:38:00 | 58.057465 | 9.743612 | 2.0 | 16.717 | 2 | 41.980 | 16.879 | 32.560 | 2 |
| 2025-09-13T16:39:00 | 58.056985 | 9.743889 | 2.0 | 16.714 | 2 | 41.978 | 16.877 | 32.560 | 2 |
| 2025-09-13T16:40:00 | 58.056500 | 9.744207 | 2.0 | 16.715 | 2 | 41.977 | 16.875 | 32.561 | 2 |
| 2025-09-13T16:41:00 | 58.055958 | 9.744567 | 2.0 | 16.709 | 2 | 41.982 | 16.875 | 32.565 | 2 |
| 2025-09-13T16:42:00 | 58.055471 | 9.744934 | 2.0 | 16.698 | 2 | 41.979 | 16.868 | 32.568 | 2 |
| 2025-09-13T16:43:00 | 58.055004 | 9.745230 | 2.0 | 16.691 | 2 | 41.973 | 16.858 | 32.571 | 2 |
| 2025-09-13T16:44:00 | 58.054501 | 9.745532 | 2.0 | 16.689 | 2 | 41.977 | 16.852 | 32.579 | 2 |
| 2025-09-13T16:45:00 | 58.053959 | 9.745950 | 2.0 | 16.682 | 2 | 41.988 | 16.851 | 32.590 | 2 |
| 2025-09-13T16:46:00 | 58.053368 | 9.746291 | 2.0 | 16.664 | 2 | 41.993 | 16.840 | 32.603 | 2 |
| 2025-09-13T16:47:00 | 58.052788 | 9.746656 | 2.0 | 16.651 | 2 | 41.990 | 16.824 | 32.613 | 2 |
| 2025-09-13T16:48:00 | 58.052243 | 9.747006 | 2.0 | 16.643 | 2 | 41.985 | 16.811 | 32.619 | 2 |
| 2025-09-13T16:49:00 | 58.051699 | 9.747373 | 2.0 | 16.634 | 2 | 41.993 | 16.804 | 32.632 | 2 |
| 2025-09-13T16:50:00 | 58.051151 | 9.747663 | 2.0 | 16.641 | 2 | 42.001 | 16.797 | 32.645 | 2 |
| 2025-09-13T16:51:00 | 58.050628 | 9.748095 | 2.0 | 16.645 | 2 | 42.008 | 16.803 | 32.646 | 2 |
| 2025-09-13T16:52:00 | 58.050121 | 9.748475 | 2.0 | 16.639 | 2 | 42.009 | 16.805 | 32.645 | 2 |
| 2025-09-13T16:53:00 | 58.049641 | 9.748790 | 2.0 | 16.630 | 2 | 42.012 | 16.800 | 32.652 | 2 |
| 2025-09-13T16:54:00 | 58.049160 | 9.749169 | 2.0 | 16.614 | 2 | 42.012 | 16.790 | 32.660 | 2 |
| 2025-09-13T16:55:00 | 58.048692 | 9.749508 | 2.0 | 16.597 | 2 | 42.007 | 16.773 | 32.669 | 2 |
| 2025-09-13T16:56:00 | 58.048239 | 9.749842 | 2.0 | 16.581 | 2 | 41.994 | 16.758 | 32.670 | 2 |
| 2025-09-13T16:57:00 | 58.047840 | 9.750171 | 2.0 | 16.568 | 2 | 41.990 | 16.741 | 32.681 | 2 |
| 2025-09-13T16:58:00 | 58.047430 | 9.750476 | 2.0 | 16.555 | 2 | 41.988 | 16.728 | 32.690 | 2 |
| 2025-09-13T16:59:00 | 58.047010 | 9.750763 | 2.0 | 16.541 | 2 | 41.972 | 16.714 | 32.687 | 2 |
| 2025-09-13T17:00:00 | 58.046631 | 9.751164 | 2.0 | 16.531 | 2 | 41.986 | 16.701 | 32.710 | 2 |
| 2025-09-13T17:01:00 | 58.046252 | 9.751354 | 2.0 | 16.522 | 2 | 41.994 | 16.692 | 32.724 | 2 |
| 2025-09-13T17:02:00 | 58.045870 | 9.751790 | 2.0 | 16.505 | 2 | 42.004 | 16.682 | 32.741 | 2 |
| 2025-09-13T17:03:00 | 58.045454 | 9.752114 | 2.0 | 16.494 | 2 | 41.998 | 16.666 | 32.749 | 2 |
| 2025-09-13T17:04:00 | 58.045066 | 9.752504 | 2.0 | 16.480 | 2 | 42.009 | 16.654 | 32.768 | 2 |
| 2025-09-13T17:05:00 | 58.044685 | 9.752822 | 2.0 | 16.464 | 2 | 42.020 | 16.640 | 32.789 | 2 |
| 2025-09-13T17:06:00 | 58.044246 | 9.753233 | 2.0 | 16.430 | 2 | 42.024 | 16.623 | 32.807 | 2 |
| 2025-09-13T17:07:00 | 58.043802 | 9.753580 | 2.0 | 16.428 | 2 | 42.045 | 16.597 | 32.846 | 2 |
| 2025-09-13T17:08:00 | 58.043409 | 9.753955 | 2.0 | 16.424 | 2 | 42.040 | 16.591 | 32.847 | 2 |
| 2025-09-13T17:09:00 | 58.043003 | 9.754255 | 2.0 | 16.418 | 2 | 42.039 | 16.586 | 32.850 | 2 |
| 2025-09-13T17:10:00 | 58.042524 | 9.754651 | 2.0 | 16.411 | 2 | 42.036 | 16.580 | 32.853 | 2 |
| 2025-09-13T17:11:00 | 58.042040 | 9.754933 | 2.0 | 16.401 | 2 | 42.035 | 16.573 | 32.857 | 2 |
| 2025-09-13T17:12:00 | 58.041617 | 9.755294 | 2.0 | 16.384 | 2 | 42.037 | 16.560 | 32.870 | 2 |
| 2025-09-13T17:13:00 | 58.041221 | 9.755670 | 2.0 | 16.367 | 2 | 42.042 | 16.545 | 32.887 | 2 |
| 2025-09-13T17:14:00 | 58.040768 | 9.755972 | 2.0 | 16.351 | 2 | 42.050 | 16.527 | 32.908 | 2 |
| 2025-09-13T17:15:00 | 58.040272 | 9.756320 | 2.0 | 16.325 | 2 | 42.074 | 16.511 | 32.943 | 2 |
| 2025-09-13T17:16:00 | 58.039800 | 9.756679 | 2.0 | 16.299 | 2 | 42.119 | 16.484 | 33.004 | 2 |
| 2025-09-13T17:17:00 | 58.039328 | 9.756951 | 2.0 | 16.290 | 2 | 42.160 | 16.462 | 33.058 | 2 |
| 2025-09-13T17:18:00 | 58.038844 | 9.757316 | 2.0 | 16.290 | 2 | 42.178 | 16.455 | 33.080 | 2 |
| 2025-09-13T17:19:00 | 58.038339 | 9.757603 | 2.0 | 16.292 | 2 | 42.189 | 16.453 | 33.091 | 2 |
| 2025-09-13T17:20:00 | 58.037868 | 9.757870 | 2.0 | 16.294 | 2 | 42.184 | 16.456 | 33.084 | 2 |
| 2025-09-13T17:21:00 | 58.037404 | 9.758056 | 2.0 | 16.294 | 2 | 42.178 | 16.457 | 33.078 | 2 |
| 2025-09-13T17:22:00 | 58.036916 | 9.758347 | 2.0 | 16.297 | 2 | 42.169 | 16.457 | 33.070 | 2 |
| 2025-09-13T17:23:00 | 58.036437 | 9.758596 | 2.0 | 16.299 | 2 | 42.165 | 16.459 | 33.065 | 2 |
| 2025-09-13T17:24:00 | 58.035973 | 9.758853 | 2.0 | 16.300 | 2 | 42.152 | 16.461 | 33.052 | 2 |
| 2025-09-13T17:25:00 | 58.035535 | 9.759146 | 2.0 | 16.300 | 2 | 42.143 | 16.463 | 33.043 | 2 |
| 2025-09-13T17:26:00 | 58.035074 | 9.759431 | 2.0 | 16.296 | 2 | 42.147 | 16.461 | 33.048 | 2 |
| 2025-09-13T17:27:00 | 58.034612 | 9.759739 | 2.0 | 16.291 | 2 | 42.140 | 16.458 | 33.044 | 2 |
| 2025-09-13T17:28:00 | 58.034140 | 9.759941 | 2.0 | 16.288 | 2 | 42.137 | 16.453 | 33.046 | 2 |
| 2025-09-13T17:29:00 | 58.033667 | 9.760177 | 2.0 | 16.282 | 2 | 42.139 | 16.450 | 33.050 | 2 |
| 2025-09-13T17:30:00 | 58.033173 | 9.760441 | 2.0 | 16.276 | 2 | 42.146 | 16.444 | 33.061 | 2 |
| 2025-09-13T17:31:00 | 58.032737 | 9.760653 | 2.0 | 16.271 | 2 | 42.162 | 16.437 | 33.081 | 2 |
| 2025-09-13T17:32:00 | 58.032279 | 9.760936 | 2.0 | 16.266 | 2 | 42.164 | 16.434 | 33.085 | 2 |
| 2025-09-13T17:33:00 | 58.031805 | 9.761189 | 2.0 | 16.259 | 2 | 42.155 | 16.428 | 33.082 | 2 |
| 2025-09-13T17:34:00 | 58.031382 | 9.761427 | 2.0 | 16.245 | 2 | 42.167 | 16.419 | 33.100 | 2 |
| 2025-09-13T17:35:00 | 58.030958 | 9.761736 | 2.0 | 16.234 | 2 | 42.190 | 16.408 | 33.129 | 2 |
| 2025-09-13T17:36:00 | 58.030488 | 9.762014 | 2.0 | 16.217 | 2 | 42.227 | 16.395 | 33.173 | 2 |
| 2025-09-13T17:37:00 | 58.029967 | 9.762411 | 2.0 | 16.202 | 2 | 42.291 | 16.378 | 33.243 | 2 |
| 2025-09-13T17:38:00 | 58.029450 | 9.762746 | 2.0 | 16.188 | 2 | 42.363 | 16.364 | 33.318 | 2 |
| 2025-09-13T17:39:00 | 58.028934 | 9.763079 | 2.0 | 16.186 | 2 | 42.379 | 16.352 | 33.342 | 2 |
| 2025-09-13T17:40:00 | 58.028427 | 9.763350 | 2.0 | 16.189 | 2 | 42.394 | 16.348 | 33.359 | 2 |
| 2025-09-13T17:41:00 | 58.027926 | 9.763687 | 2.0 | 16.198 | 2 | 42.488 | 16.355 | 33.435 | 2 |
| 2025-09-13T17:42:00 | 58.027417 | 9.763916 | 2.0 | 16.203 | 2 | 42.531 | 16.361 | 33.468 | 2 |
| 2025-09-13T17:43:00 | 58.026976 | 9.764254 | 2.0 | 16.204 | 2 | 42.543 | 16.364 | 33.476 | 2 |
| 2025-09-13T17:44:00 | 58.026525 | 9.764461 | 2.0 | 16.206 | 2 | 42.556 | 16.367 | 33.485 | 2 |
| 2025-09-13T17:45:00 | 58.026091 | 9.764769 | 2.0 | 16.208 | 2 | 42.567 | 16.369 | 33.493 | 2 |
| 2025-09-13T17:46:00 | 58.025623 | 9.765049 | 2.0 | 16.210 | 2 | 42.580 | 16.372 | 33.502 | 2 |
| 2025-09-13T17:47:00 | 58.025115 | 9.765373 | 2.0 | 16.207 | 2 | 42.590 | 16.372 | 33.511 | 2 |
| 2025-09-13T17:48:00 | 58.024587 | 9.765752 | 2.0 | 16.208 | 2 | 42.596 | 16.370 | 33.518 | 2 |
| 2025-09-13T17:49:00 | 58.024000 | 9.766125 | 2.0 | 16.213 | 2 | 42.606 | 16.371 | 33.526 | 2 |
| 2025-09-13T17:50:00 | 58.023373 | 9.766578 | 2.0 | 16.210 | 2 | 42.621 | 16.374 | 33.536 | 2 |
| 2025-09-13T17:51:00 | 58.022762 | 9.766986 | 2.0 | 16.207 | 2 | 42.630 | 16.373 | 33.545 | 2 |
| 2025-09-13T17:52:00 | 58.022157 | 9.767380 | 2.0 | 16.201 | 2 | 42.633 | 16.369 | 33.551 | 2 |
| 2025-09-13T17:53:00 | 58.021537 | 9.767830 | 2.0 | 16.201 | 2 | 42.635 | 16.365 | 33.556 | 2 |
| 2025-09-13T17:54:00 | 58.020907 | 9.768280 | 2.0 | 16.198 | 2 | 42.642 | 16.364 | 33.563 | 2 |
| 2025-09-13T17:55:00 | 58.020275 | 9.768748 | 2.0 | 16.198 | 2 | 42.651 | 16.362 | 33.573 | 2 |
| 2025-09-13T17:56:00 | 58.019688 | 9.769167 | 2.0 | 16.194 | 2 | 42.663 | 16.360 | 33.585 | 2 |
| 2025-09-13T17:57:00 | 58.019145 | 9.769587 | 2.0 | 16.198 | 2 | 42.677 | 16.357 | 33.600 | 2 |
| 2025-09-13T17:58:00 | 58.018594 | 9.769976 | 2.0 | 16.196 | 2 | 42.697 | 16.361 | 33.614 | 2 |
| 2025-09-13T17:59:00 | 58.018051 | 9.770279 | 2.0 | 16.196 | 2 | 42.715 | 16.359 | 33.632 | 2 |
| 2025-09-13T18:00:00 | 58.017526 | 9.770623 | 2.0 | 16.198 | 2 | 42.736 | 16.360 | 33.649 | 2 |
| 2025-09-13T18:01:00 | 58.016990 | 9.770926 | 2.0 | 16.196 | 2 | 42.757 | 16.361 | 33.667 | 2 |
| 2025-09-13T18:02:00 | 58.016469 | 9.771169 | 2.0 | 16.192 | 2 | 42.776 | 16.360 | 33.684 | 2 |
| 2025-09-13T18:03:00 | 58.015978 | 9.771434 | 2.0 | 16.198 | 2 | 42.798 | 16.356 | 33.707 | 2 |
| 2025-09-13T18:04:00 | 58.015516 | 9.771717 | 2.0 | 16.202 | 2 | 42.850 | 16.363 | 33.747 | 2 |
| 2025-09-13T18:05:00 | 58.015080 | 9.772079 | 2.0 | 16.168 | 2 | 42.858 | 16.358 | 33.758 | 2 |
| 2025-09-13T18:06:00 | 58.014610 | 9.772461 | 2.0 | 16.160 | 2 | 42.765 | 16.332 | 33.698 | 2 |
| 2025-09-13T18:07:00 | 58.014154 | 9.772859 | 2.0 | 16.157 | 2 | 42.715 | 16.324 | 33.661 | 2 |
| 2025-09-13T18:08:00 | 58.013671 | 9.773318 | 2.0 | 16.137 | 2 | 42.690 | 16.315 | 33.647 | 2 |
| 2025-09-13T18:09:00 | 58.013161 | 9.773729 | 2.0 | 16.117 | 2 | 42.664 | 16.300 | 33.637 | 2 |
| 2025-09-13T18:10:00 | 58.012675 | 9.774183 | 2.0 | 16.104 | 2 | 42.637 | 16.277 | 33.632 | 2 |
| 2025-09-13T18:11:00 | 58.012174 | 9.774668 | 2.0 | 16.092 | 2 | 42.619 | 16.265 | 33.626 | 2 |
| 2025-09-13T18:12:00 | 58.011665 | 9.775002 | 2.0 | 16.096 | 2 | 42.571 | 16.258 | 33.590 | 2 |
| 2025-09-13T18:13:00 | 58.011203 | 9.775230 | 2.0 | 16.100 | 2 | 42.571 | 16.261 | 33.587 | 2 |
| 2025-09-13T18:14:00 | 58.010764 | 9.775546 | 2.0 | 16.102 | 2 | 42.575 | 16.263 | 33.589 | 2 |
| 2025-09-13T18:15:00 | 58.010315 | 9.775807 | 2.0 | 16.109 | 2 | 42.574 | 16.267 | 33.585 | 2 |
| 2025-09-13T18:16:00 | 58.009840 | 9.776129 | 2.0 | 16.116 | 2 | 42.558 | 16.272 | 33.567 | 2 |
| 2025-09-13T18:17:00 | 58.009357 | 9.776439 | 2.0 | 16.121 | 2 | 42.562 | 16.279 | 33.564 | 2 |
| 2025-09-13T18:18:00 | 58.008860 | 9.776770 | 2.0 | 16.128 | 2 | 42.577 | 16.285 | 33.573 | 2 |
| 2025-09-13T18:19:00 | 58.008390 | 9.777113 | 2.0 | 16.129 | 2 | 42.575 | 16.290 | 33.567 | 2 |
| 2025-09-13T18:20:00 | 58.007949 | 9.777424 | 2.0 | 16.131 | 2 | 42.568 | 16.291 | 33.560 | 2 |
| 2025-09-13T18:21:00 | 58.007511 | 9.777729 | 2.0 | 16.136 | 2 | 42.573 | 16.294 | 33.561 | 2 |
| 2025-09-13T18:22:00 | 58.007064 | 9.778083 | 2.0 | 16.142 | 2 | 42.581 | 16.300 | 33.563 | 2 |
| 2025-09-13T18:23:00 | 58.006574 | 9.778434 | 2.0 | 16.145 | 2 | 42.592 | 16.305 | 33.569 | 2 |
| 2025-09-13T18:24:00 | 58.006076 | 9.778747 | 2.0 | 16.148 | 2 | 42.606 | 16.308 | 33.579 | 2 |
| 2025-09-13T18:25:00 | 58.005557 | 9.779091 | 2.0 | 16.155 | 2 | 42.622 | 16.312 | 33.589 | 2 |
| 2025-09-13T18:26:00 | 58.005038 | 9.779418 | 2.0 | 16.165 | 2 | 42.647 | 16.320 | 33.605 | 2 |
| 2025-09-13T18:27:00 | 58.004551 | 9.779736 | 2.0 | 16.167 | 2 | 42.678 | 16.326 | 33.627 | 2 |
| 2025-09-13T18:28:00 | 58.004059 | 9.780095 | 2.0 | 16.168 | 2 | 42.698 | 16.331 | 33.640 | 2 |
| 2025-09-13T18:29:00 | 58.003572 | 9.780395 | 2.0 | 16.173 | 2 | 42.707 | 16.330 | 33.649 | 2 |
| 2025-09-13T18:30:00 | 58.003068 | 9.780755 | 2.0 | 16.174 | 2 | 42.717 | 16.334 | 33.655 | 2 |
| 2025-09-13T18:31:00 | 58.002578 | 9.781183 | 2.0 | 16.174 | 2 | 42.727 | 16.337 | 33.661 | 2 |
| 2025-09-13T18:32:00 | 58.002051 | 9.781553 | 2.0 | 16.177 | 2 | 42.731 | 16.336 | 33.665 | 2 |
| 2025-09-13T18:33:00 | 58.001545 | 9.781930 | 2.0 | 16.173 | 2 | 42.743 | 16.338 | 33.674 | 2 |
| 2025-09-13T18:34:00 | 58.001036 | 9.782242 | 2.0 | 16.174 | 2 | 42.745 | 16.337 | 33.677 | 2 |
| 2025-09-13T18:35:00 | 58.000517 | 9.782586 | 2.0 | 16.184 | 2 | 42.749 | 16.336 | 33.681 | 2 |
| 2025-09-13T18:36:00 | 57.999971 | 9.782952 | 2.0 | 16.180 | 2 | 42.778 | 16.344 | 33.700 | 2 |
| 2025-09-13T18:37:00 | 57.999399 | 9.783316 | 2.0 | 16.186 | 2 | 42.795 | 16.344 | 33.715 | 2 |
| 2025-09-13T18:38:00 | 57.998847 | 9.783644 | 2.0 | 16.194 | 2 | 42.820 | 16.351 | 33.731 | 2 |
| 2025-09-13T18:39:00 | 57.998319 | 9.783983 | 2.0 | 16.183 | 2 | 42.830 | 16.353 | 33.738 | 2 |
| 2025-09-13T18:40:00 | 57.997749 | 9.784338 | 2.0 | 16.182 | 2 | 42.823 | 16.346 | 33.738 | 2 |
| 2025-09-13T18:41:00 | 57.997165 | 9.784735 | 2.0 | 16.184 | 2 | 42.821 | 16.345 | 33.737 | 2 |
| 2025-09-13T18:42:00 | 57.996566 | 9.785128 | 2.0 | 16.184 | 2 | 42.824 | 16.346 | 33.739 | 2 |
| 2025-09-13T18:43:00 | 57.995956 | 9.785538 | 2.0 | 16.181 | 2 | 42.831 | 16.345 | 33.746 | 2 |
| 2025-09-13T18:44:00 | 57.995354 | 9.785963 | 2.0 | 16.187 | 2 | 42.844 | 16.344 | 33.758 | 2 |
| 2025-09-13T18:45:00 | 57.994764 | 9.786342 | 2.0 | 16.183 | 2 | 42.862 | 16.348 | 33.770 | 2 |
| 2025-09-13T18:46:00 | 57.994159 | 9.786756 | 2.0 | 16.183 | 2 | 42.874 | 16.346 | 33.783 | 2 |
| 2025-09-13T18:47:00 | 57.993551 | 9.787171 | 2.0 | 16.180 | 2 | 42.876 | 16.345 | 33.785 | 2 |
| 2025-09-13T18:48:00 | 57.992919 | 9.787562 | 2.0 | 16.180 | 2 | 42.872 | 16.342 | 33.784 | 2 |
| 2025-09-13T18:49:00 | 57.992297 | 9.787943 | 2.0 | 16.177 | 2 | 42.869 | 16.341 | 33.782 | 2 |
| 2025-09-13T18:50:00 | 57.991695 | 9.788358 | 2.0 | 16.172 | 2 | 42.866 | 16.339 | 33.782 | 2 |
| 2025-09-13T18:51:00 | 57.991094 | 9.788793 | 2.0 | 16.170 | 2 | 42.859 | 16.334 | 33.780 | 2 |
| 2025-09-13T18:52:00 | 57.990502 | 9.789178 | 2.0 | 16.165 | 2 | 42.856 | 16.331 | 33.779 | 2 |
| 2025-09-13T18:53:00 | 57.989919 | 9.789599 | 2.0 | 16.159 | 2 | 42.852 | 16.328 | 33.779 | 2 |
| 2025-09-13T18:54:00 | 57.989356 | 9.790009 | 2.0 | 16.158 | 2 | 42.846 | 16.321 | 33.779 | 2 |
| 2025-09-13T18:55:00 | 57.988825 | 9.790386 | 2.0 | 16.163 | 2 | 42.846 | 16.321 | 33.779 | 2 |
| 2025-09-13T18:56:00 | 57.988307 | 9.790770 | 2.0 | 16.159 | 2 | 42.854 | 16.325 | 33.783 | 2 |
| 2025-09-13T18:57:00 | 57.987802 | 9.791108 | 2.0 | 16.155 | 2 | 42.849 | 16.320 | 33.783 | 2 |
| 2025-09-13T18:58:00 | 57.987297 | 9.791479 | 2.0 | 16.159 | 2 | 42.845 | 16.319 | 33.780 | 2 |
| 2025-09-13T18:59:00 | 57.986814 | 9.791875 | 2.0 | 16.157 | 2 | 42.849 | 16.321 | 33.782 | 2 |
| 2025-09-13T19:00:00 | 57.986368 | 9.792210 | 2.0 | 16.155 | 2 | 42.849 | 16.319 | 33.784 | 2 |
| 2025-09-13T19:01:00 | 57.985892 | 9.792556 | 2.0 | 16.150 | 2 | 42.847 | 16.317 | 33.783 | 2 |
| 2025-09-13T19:02:00 | 57.985423 | 9.792858 | 2.0 | 16.150 | 2 | 42.843 | 16.314 | 33.782 | 2 |
| 2025-09-13T19:03:00 | 57.984927 | 9.793188 | 2.0 | 16.149 | 2 | 42.844 | 16.312 | 33.785 | 2 |
| 2025-09-13T19:04:00 | 57.984402 | 9.793523 | 2.0 | 16.153 | 2 | 42.846 | 16.312 | 33.787 | 2 |
| 2025-09-13T19:05:00 | 57.983879 | 9.793835 | 2.0 | 16.151 | 2 | 42.849 | 16.315 | 33.787 | 2 |
| 2025-09-13T19:06:00 | 57.983364 | 9.794183 | 2.0 | 16.149 | 2 | 42.850 | 16.313 | 33.789 | 2 |
| 2025-09-13T19:07:00 | 57.982841 | 9.794508 | 2.0 | 16.149 | 2 | 42.850 | 16.311 | 33.791 | 2 |
| 2025-09-13T19:08:00 | 57.982321 | 9.794841 | 2.0 | 16.147 | 2 | 42.854 | 16.312 | 33.794 | 2 |
| 2025-09-13T19:09:00 | 57.981822 | 9.795172 | 2.0 | 16.139 | 2 | 42.854 | 16.307 | 33.798 | 2 |
| 2025-09-13T19:10:00 | 57.981310 | 9.795551 | 2.0 | 16.138 | 2 | 42.852 | 16.302 | 33.801 | 2 |
| 2025-09-13T19:11:00 | 57.980809 | 9.795884 | 2.0 | 16.138 | 2 | 42.853 | 16.300 | 33.803 | 2 |
| 2025-09-13T19:12:00 | 57.980302 | 9.796197 | 2.0 | 16.139 | 2 | 42.856 | 16.300 | 33.806 | 2 |
| 2025-09-13T19:13:00 | 57.979786 | 9.796509 | 2.0 | 16.135 | 2 | 42.860 | 16.300 | 33.809 | 2 |
| 2025-09-13T19:14:00 | 57.979313 | 9.796808 | 2.0 | 16.136 | 2 | 42.861 | 16.298 | 33.812 | 2 |
| 2025-09-13T19:15:00 | 57.978824 | 9.797093 | 2.0 | 16.133 | 2 | 42.861 | 16.296 | 33.814 | 2 |
| 2025-09-13T19:16:00 | 57.978333 | 9.797405 | 2.0 | 16.132 | 2 | 42.860 | 16.294 | 33.814 | 2 |
| 2025-09-13T19:17:00 | 57.977833 | 9.797705 | 2.0 | 16.132 | 2 | 42.863 | 16.295 | 33.816 | 2 |
| 2025-09-13T19:18:00 | 57.977335 | 9.797994 | 2.0 | 16.124 | 2 | 42.865 | 16.292 | 33.821 | 2 |
| 2025-09-13T19:19:00 | 57.976840 | 9.798267 | 2.0 | 16.122 | 2 | 42.865 | 16.286 | 33.826 | 2 |
| 2025-09-13T19:20:00 | 57.976337 | 9.798544 | 2.0 | 16.129 | 2 | 42.873 | 16.285 | 33.834 | 2 |
| 2025-09-13T19:21:00 | 57.975823 | 9.798856 | 2.0 | 16.119 | 2 | 42.891 | 16.288 | 33.847 | 2 |
| 2025-09-13T19:22:00 | 57.975295 | 9.799140 | 2.0 | 16.132 | 2 | 42.901 | 16.284 | 33.859 | 2 |
| 2025-09-13T19:23:00 | 57.974786 | 9.799399 | 2.0 | 16.129 | 2 | 42.943 | 16.296 | 33.886 | 2 |
| 2025-09-13T19:24:00 | 57.974327 | 9.799645 | 2.0 | 16.128 | 2 | 42.970 | 16.290 | 33.915 | 2 |
| 2025-09-13T19:25:00 | 57.973918 | 9.799942 | 2.0 | 16.123 | 2 | 42.979 | 16.289 | 33.924 | 2 |
| 2025-09-13T19:26:00 | 57.973537 | 9.800220 | 2.0 | 16.124 | 2 | 42.973 | 16.287 | 33.920 | 2 |
| 2025-09-13T19:27:00 | 57.973173 | 9.800553 | 2.0 | 16.129 | 2 | 42.964 | 16.285 | 33.914 | 2 |
| 2025-09-13T19:28:00 | 57.973042 | 9.800057 | 2.0 | 16.124 | 2 | 42.970 | 16.290 | 33.915 | 2 |
| 2025-09-13T19:29:00 | 57.973982 | 9.799604 | 2.0 | 16.118 | 2 | 42.951 | 16.287 | 33.901 | 2 |
| 2025-09-13T19:30:00 | 57.975510 | 9.800101 | 2.0 | 16.120 | 2 | 42.931 | 16.282 | 33.887 | 2 |
| 2025-09-13T19:31:00 | 57.977400 | 9.800636 | 2.0 | 16.122 | 2 | 42.909 | 16.282 | 33.868 | 2 |
| 2025-09-13T19:32:00 | 57.979926 | 9.801212 | 2.0 | 16.129 | 2 | 42.878 | 16.285 | 33.838 | 2 |
| 2025-09-13T19:33:00 | 57.982814 | 9.801828 | 2.0 | 16.139 | 2 | 42.863 | 16.295 | 33.816 | 2 |
| 2025-09-13T19:34:00 | 57.985801 | 9.802456 | 2.0 | 16.143 | 2 | 42.858 | 16.303 | 33.805 | 2 |
| 2025-09-13T19:35:00 | 57.988791 | 9.803076 | 2.0 | 16.149 | 2 | 42.846 | 16.308 | 33.790 | 2 |
| 2025-09-13T19:36:00 | 57.991776 | 9.803300 | 2.0 | 16.161 | 2 | 42.849 | 16.315 | 33.787 | 2 |
| 2025-09-13T19:37:00 | 57.994753 | 9.803456 | 2.0 | 16.167 | 2 | 42.853 | 16.325 | 33.782 | 2 |
| 2025-09-13T19:38:00 | 57.997717 | 9.803579 | 2.0 | 16.182 | 2 | 42.855 | 16.334 | 33.776 | 2 |
| 2025-09-13T19:39:00 | 58.000705 | 9.803700 | 2.0 | 16.183 | 2 | 42.870 | 16.346 | 33.779 | 2 |
| 2025-09-13T19:40:00 | 58.003676 | 9.803816 | 2.0 | 16.192 | 2 | 42.846 | 16.349 | 33.755 | 2 |
| 2025-09-13T19:41:00 | 58.006656 | 9.803965 | 2.0 | 16.190 | 2 | 42.829 | 16.355 | 33.735 | 2 |
| 2025-09-13T19:42:00 | 58.009634 | 9.804106 | 2.0 | 16.175 | 2 | 42.778 | 16.350 | 33.695 | 2 |
| 2025-09-13T19:43:00 | 58.012618 | 9.804247 | 2.0 | 16.155 | 2 | 42.725 | 16.338 | 33.658 | 2 |
| 2025-09-13T19:44:00 | 58.015587 | 9.804383 | 2.0 | 16.125 | 2 | 42.623 | 16.315 | 33.588 | 2 |
| 2025-09-13T19:45:00 | 58.018558 | 9.804535 | 2.0 | 16.097 | 2 | 42.562 | 16.287 | 33.558 | 2 |
| 2025-09-13T19:46:00 | 58.021526 | 9.804676 | 2.0 | 16.107 | 2 | 42.557 | 16.259 | 33.577 | 2 |
| 2025-09-13T19:47:00 | 58.024472 | 9.804790 | 2.0 | 16.154 | 2 | 42.611 | 16.280 | 33.607 | 2 |
| 2025-09-13T19:48:00 | 58.027431 | 9.804826 | 2.0 | 16.181 | 2 | 42.723 | 16.321 | 33.671 | 2 |
| 2025-09-13T19:49:00 | 58.030380 | 9.804814 | 2.0 | 16.190 | 2 | 42.717 | 16.345 | 33.645 | 2 |
| 2025-09-13T19:50:00 | 58.033323 | 9.804722 | 2.0 | 16.200 | 2 | 42.655 | 16.355 | 33.582 | 2 |
| 2025-09-13T19:51:00 | 58.036249 | 9.804615 | 2.0 | 16.198 | 2 | 42.595 | 16.362 | 33.524 | 2 |
| 2025-09-13T19:52:00 | 58.039176 | 9.804341 | 2.0 | 16.190 | 2 | 42.560 | 16.361 | 33.494 | 2 |
| 2025-09-13T19:53:00 | 58.042104 | 9.803710 | 2.0 | 16.186 | 2 | 42.533 | 16.354 | 33.476 | 2 |
| 2025-09-13T19:54:00 | 58.045041 | 9.803053 | 2.0 | 16.180 | 2 | 42.515 | 16.349 | 33.464 | 2 |
| 2025-09-13T19:55:00 | 58.047988 | 9.802431 | 2.0 | 16.171 | 2 | 42.503 | 16.344 | 33.458 | 2 |
| 2025-09-13T19:56:00 | 58.050921 | 9.801820 | 2.0 | 16.196 | 2 | 42.417 | 16.338 | 33.387 | 2 |
| 2025-09-13T19:57:00 | 58.053859 | 9.801183 | 2.0 | 16.236 | 2 | 42.275 | 16.368 | 33.237 | 2 |
| 2025-09-13T19:58:00 | 58.056758 | 9.800243 | 2.0 | 16.253 | 2 | 42.193 | 16.400 | 33.139 | 2 |
| 2025-09-13T19:59:00 | 58.059658 | 9.799178 | 2.0 | 16.321 | 2 | 42.083 | 16.430 | 33.017 | 2 |
| 2025-09-13T20:00:00 | 58.062576 | 9.798114 | 2.0 | 16.359 | 2 | 42.021 | 16.486 | 32.917 | 2 |
| 2025-09-13T20:01:00 | 58.065522 | 9.797057 | 2.0 | 16.441 | 2 | 41.991 | 16.534 | 32.851 | 2 |
| 2025-09-13T20:02:00 | 58.068475 | 9.796003 | 2.0 | 16.486 | 2 | 41.963 | 16.605 | 32.768 | 2 |
| 2025-09-13T20:03:00 | 58.071420 | 9.794961 | 2.0 | 16.553 | 2 | 41.945 | 16.655 | 32.712 | 2 |
| 2025-09-13T20:04:00 | 58.074409 | 9.794314 | 2.0 | 16.616 | 2 | 41.935 | 16.720 | 32.650 | 2 |
| 2025-09-13T20:05:00 | 58.077416 | 9.793734 | 2.0 | 16.643 | 2 | 41.943 | 16.777 | 32.611 | 2 |
| 2025-09-13T20:06:00 | 58.080437 | 9.793138 | 2.0 | 16.652 | 2 | 41.945 | 16.802 | 32.592 | 2 |
| 2025-09-13T20:07:00 | 58.083461 | 9.792779 | 2.0 | 16.657 | 2 | 41.950 | 16.813 | 32.588 | 2 |
| 2025-09-13T20:08:00 | 58.086502 | 9.792680 | 2.0 | 16.659 | 2 | 41.951 | 16.816 | 32.586 | 2 |
| 2025-09-13T20:09:00 | 58.089532 | 9.792587 | 2.0 | 16.662 | 2 | 41.954 | 16.821 | 32.584 | 2 |
| 2025-09-13T20:10:00 | 58.092583 | 9.792492 | 2.0 | 16.663 | 2 | 41.923 | 16.823 | 32.556 | 2 |
| 2025-09-13T20:11:00 | 58.095628 | 9.792432 | 2.0 | 16.656 | 2 | 41.929 | 16.822 | 32.562 | 2 |
| 2025-09-13T20:12:00 | 58.098677 | 9.792362 | 2.0 | 16.648 | 2 | 41.961 | 16.814 | 32.596 | 2 |
| 2025-09-13T20:13:00 | 58.101729 | 9.792320 | 2.0 | 16.667 | 2 | 41.943 | 16.815 | 32.580 | 2 |
| 2025-09-13T20:14:00 | 58.104784 | 9.792257 | 2.0 | 16.669 | 2 | 41.950 | 16.828 | 32.575 | 2 |
| 2025-09-13T20:15:00 | 58.107850 | 9.792215 | 2.0 | 16.665 | 2 | 41.942 | 16.829 | 32.568 | 2 |
| 2025-09-13T20:16:00 | 58.110906 | 9.792214 | 2.0 | 16.656 | 2 | 41.933 | 16.825 | 32.563 | 2 |
| 2025-09-13T20:17:00 | 58.113943 | 9.792204 | 2.0 | 16.648 | 2 | 41.924 | 16.816 | 32.563 | 2 |
| 2025-09-13T20:18:00 | 58.116899 | 9.792167 | 2.0 | 16.638 | 2 | 41.915 | 16.807 | 32.562 | 2 |
| 2025-09-13T20:19:00 | 58.119826 | 9.792139 | 2.0 | 16.629 | 2 | 41.907 | 16.798 | 32.562 | 2 |
| 2025-09-13T20:20:00 | 58.122737 | 9.792098 | 2.0 | 16.624 | 2 | 41.907 | 16.791 | 32.568 | 2 |
| 2025-09-13T20:21:00 | 58.125458 | 9.792081 | 2.0 | 16.618 | 2 | 41.910 | 16.785 | 32.576 | 2 |
| 2025-09-13T20:22:00 | 58.127773 | 9.792154 | 2.0 | 16.613 | 2 | 41.912 | 16.779 | 32.582 | 2 |
| 2025-09-13T20:23:00 | 58.129614 | 9.792412 | 2.0 | 16.609 | 2 | 41.914 | 16.773 | 32.589 | 2 |
| 2025-09-13T20:24:00 | 58.130770 | 9.793885 | 2.0 | 16.607 | 2 | 41.915 | 16.769 | 32.593 | 2 |
| 2025-09-13T20:25:00 | 58.131471 | 9.795286 | 2.0 | 16.603 | 2 | 41.921 | 16.767 | 32.600 | 2 |
| 2025-09-13T20:26:00 | 58.131826 | 9.796231 | 2.0 | 16.600 | 2 | 41.923 | 16.762 | 32.605 | 2 |
| 2025-09-13T20:27:00 | 58.132192 | 9.796946 | 2.0 | 16.599 | 2 | 41.923 | 16.760 | 32.607 | 2 |
| 2025-09-13T20:28:00 | 58.132654 | 9.797488 | 2.0 | 16.599 | 2 | 41.923 | 16.758 | 32.609 | 2 |
| 2025-09-13T20:29:00 | 58.133128 | 9.798022 | 2.0 | 16.599 | 2 | 41.928 | 16.759 | 32.612 | 2 |
| 2025-09-13T20:30:00 | 58.133625 | 9.798546 | 2.0 | 16.600 | 2 | 41.931 | 16.759 | 32.615 | 2 |
| 2025-09-13T20:31:00 | 58.134138 | 9.798994 | 2.0 | 16.597 | 2 | 41.934 | 16.760 | 32.617 | 2 |
| 2025-09-13T20:32:00 | 58.134620 | 9.799455 | 2.0 | 16.597 | 2 | 41.933 | 16.757 | 32.618 | 2 |
| 2025-09-13T20:33:00 | 58.135098 | 9.800300 | 2.0 | 16.597 | 2 | 41.936 | 16.757 | 32.621 | 2 |
| 2025-09-13T20:34:00 | 58.135537 | 9.801492 | 2.0 | 16.598 | 2 | 41.939 | 16.756 | 32.624 | 2 |
| 2025-09-13T20:35:00 | 58.135927 | 9.802786 | 2.0 | 16.601 | 2 | 41.945 | 16.758 | 32.628 | 2 |
| 2025-09-13T20:36:00 | 58.136152 | 9.803899 | 2.0 | 16.598 | 2 | 41.952 | 16.760 | 32.632 | 2 |
| 2025-09-13T20:37:00 | 58.136308 | 9.804943 | 2.0 | 16.601 | 2 | 41.954 | 16.758 | 32.636 | 2 |
| 2025-09-13T20:38:00 | 58.136385 | 9.805958 | 2.0 | 16.595 | 2 | 41.955 | 16.759 | 32.636 | 2 |
| 2025-09-13T20:39:00 | 58.136350 | 9.806742 | 2.0 | 16.594 | 2 | 41.952 | 16.755 | 32.636 | 2 |
| 2025-09-13T20:40:00 | 58.136273 | 9.807490 | 2.0 | 16.591 | 2 | 41.950 | 16.753 | 32.636 | 2 |
| 2025-09-13T20:41:00 | 58.136217 | 9.808233 | 2.0 | 16.598 | 2 | 41.945 | 16.753 | 32.632 | 2 |
| 2025-09-13T20:42:00 | 58.136198 | 9.808927 | 2.0 | 16.595 | 2 | 41.950 | 16.756 | 32.634 | 2 |
| 2025-09-13T20:43:00 | 58.136226 | 9.809641 | 2.0 | 16.591 | 2 | 41.948 | 16.755 | 32.633 | 2 |
| 2025-09-13T20:44:00 | 58.136278 | 9.810221 | 2.0 | 16.590 | 2 | 41.943 | 16.751 | 32.632 | 2 |
| 2025-09-13T20:45:00 | 58.136353 | 9.810610 | 2.0 | 16.591 | 2 | 41.942 | 16.750 | 32.632 | 2 |
| 2025-09-13T20:46:00 | 58.136470 | 9.810987 | 2.0 | 16.590 | 2 | 41.943 | 16.752 | 32.631 | 2 |
| 2025-09-13T20:47:00 | 58.136562 | 9.811354 | 2.0 | 16.590 | 2 | 41.943 | 16.751 | 32.632 | 2 |
| 2025-09-13T20:48:00 | 58.136687 | 9.811721 | 2.0 | 16.593 | 2 | 41.941 | 16.750 | 32.631 | 2 |
| 2025-09-13T20:49:00 | 58.136827 | 9.812231 | 2.0 | 16.593 | 2 | 41.944 | 16.753 | 32.631 | 2 |
| 2025-09-13T20:50:00 | 58.136932 | 9.812644 | 2.0 | 16.592 | 2 | 41.943 | 16.753 | 32.630 | 2 |
| 2025-09-13T20:51:00 | 58.137034 | 9.812834 | 2.0 | 16.585 | 2 | 41.941 | 16.751 | 32.630 | 2 |
| 2025-09-13T20:52:00 | 58.137162 | 9.813074 | 2.0 | 16.587 | 2 | 41.933 | 16.746 | 32.627 | 2 |
| 2025-09-13T20:53:00 | 58.137352 | 9.813430 | 2.0 | 16.589 | 2 | 41.935 | 16.748 | 32.627 | 2 |
| 2025-09-13T20:54:00 | 58.137510 | 9.813711 | 2.0 | 16.585 | 2 | 41.937 | 16.749 | 32.628 | 2 |
| 2025-09-13T20:55:00 | 58.137550 | 9.814061 | 2.0 | 16.589 | 2 | 41.930 | 16.745 | 32.625 | 2 |
| 2025-09-13T20:56:00 | 58.137526 | 9.814449 | 2.0 | 16.588 | 2 | 41.935 | 16.750 | 32.626 | 2 |
| 2025-09-13T20:57:00 | 58.137495 | 9.814817 | 2.0 | 16.589 | 2 | 41.929 | 16.746 | 32.624 | 2 |
| 2025-09-13T20:58:00 | 58.137423 | 9.815262 | 2.0 | 16.592 | 2 | 41.927 | 16.749 | 32.620 | 2 |
| 2025-09-13T20:59:00 | 58.137334 | 9.815547 | 2.0 | 16.591 | 2 | 41.930 | 16.750 | 32.621 | 2 |
| 2025-09-13T21:00:00 | 58.137252 | 9.815853 | 2.0 | 16.586 | 2 | 41.927 | 16.749 | 32.620 | 2 |
| 2025-09-13T21:01:00 | 58.137152 | 9.816150 | 2.0 | 16.590 | 2 | 41.923 | 16.748 | 32.617 | 2 |
| 2025-09-13T21:02:00 | 58.137047 | 9.816453 | 2.0 | 16.589 | 2 | 41.922 | 16.749 | 32.615 | 2 |
| 2025-09-13T21:03:00 | 58.137019 | 9.816651 | 2.0 | 16.590 | 2 | 41.919 | 16.749 | 32.613 | 2 |
| 2025-09-13T21:04:00 | 58.137082 | 9.816778 | 2.0 | 16.587 | 2 | 41.919 | 16.750 | 32.612 | 2 |
| 2025-09-13T21:05:00 | 58.137165 | 9.816852 | 2.0 | 16.586 | 2 | 41.916 | 16.747 | 32.612 | 2 |
| 2025-09-13T21:06:00 | 58.137302 | 9.816925 | 2.0 | 16.587 | 2 | 41.910 | 16.746 | 32.607 | 2 |
| 2025-09-13T21:07:00 | 58.137473 | 9.816938 | 2.0 | 16.587 | 2 | 41.909 | 16.746 | 32.606 | 2 |
| 2025-09-13T21:08:00 | 58.137585 | 9.817103 | 2.0 | 16.590 | 2 | 41.908 | 16.746 | 32.605 | 2 |
| 2025-09-13T21:09:00 | 58.137661 | 9.817711 | 2.0 | 16.593 | 2 | 41.912 | 16.750 | 32.606 | 2 |
| 2025-09-13T21:10:00 | 58.137726 | 9.818490 | 2.0 | 16.592 | 2 | 41.914 | 16.751 | 32.607 | 2 |
| 2025-09-13T21:11:00 | 58.137712 | 9.819300 | 2.0 | 16.590 | 2 | 41.912 | 16.751 | 32.605 | 2 |
| 2025-09-13T21:12:00 | 58.137611 | 9.820227 | 2.0 | 16.591 | 2 | 41.913 | 16.751 | 32.606 | 2 |
| 2025-09-13T21:13:00 | 58.137423 | 9.820996 | 2.0 | 16.596 | 2 | 41.913 | 16.752 | 32.605 | 2 |
| 2025-09-13T21:14:00 | 58.137265 | 9.821787 | 2.0 | 16.596 | 2 | 41.918 | 16.756 | 32.606 | 2 |
| 2025-09-13T21:15:00 | 58.137163 | 9.822612 | 2.0 | 16.594 | 2 | 41.917 | 16.755 | 32.606 | 2 |
| 2025-09-13T21:16:00 | 58.137149 | 9.823187 | 2.0 | 16.595 | 2 | 41.915 | 16.755 | 32.604 | 2 |
| 2025-09-13T21:17:00 | 58.137202 | 9.823581 | 2.0 | 16.589 | 2 | 41.914 | 16.754 | 32.604 | 2 |
| 2025-09-13T21:18:00 | 58.137267 | 9.823960 | 2.0 | 16.589 | 2 | 41.907 | 16.749 | 32.602 | 2 |
| 2025-09-13T21:19:00 | 58.137342 | 9.824359 | 2.0 | 16.592 | 2 | 41.905 | 16.750 | 32.600 | 2 |
| 2025-09-13T21:20:00 | 58.137442 | 9.824692 | 2.0 | 16.592 | 2 | 41.908 | 16.751 | 32.601 | 2 |
| 2025-09-13T21:21:00 | 58.137528 | 9.825022 | 2.0 | 16.591 | 2 | 41.909 | 16.752 | 32.601 | 2 |
| 2025-09-13T21:22:00 | 58.137607 | 9.825416 | 2.0 | 16.589 | 2 | 41.907 | 16.751 | 32.601 | 2 |
| 2025-09-13T21:23:00 | 58.137691 | 9.825874 | 2.0 | 16.591 | 2 | 41.904 | 16.749 | 32.600 | 2 |
| 2025-09-13T21:24:00 | 58.137729 | 9.826311 | 2.0 | 16.593 | 2 | 41.905 | 16.752 | 32.598 | 2 |
| 2025-09-13T21:25:00 | 58.137739 | 9.826727 | 2.0 | 16.592 | 2 | 41.906 | 16.753 | 32.598 | 2 |
| 2025-09-13T21:26:00 | 58.137735 | 9.827152 | 2.0 | 16.589 | 2 | 41.905 | 16.752 | 32.598 | 2 |
| 2025-09-13T21:27:00 | 58.137713 | 9.827648 | 2.0 | 16.592 | 2 | 41.902 | 16.750 | 32.597 | 2 |
| 2025-09-13T21:28:00 | 58.137656 | 9.828172 | 2.0 | 16.593 | 2 | 41.904 | 16.753 | 32.596 | 2 |
| 2025-09-13T21:29:00 | 58.137608 | 9.828710 | 2.0 | 16.591 | 2 | 41.904 | 16.753 | 32.596 | 2 |
| 2025-09-13T21:30:00 | 58.137598 | 9.829188 | 2.0 | 16.592 | 2 | 41.901 | 16.752 | 32.595 | 2 |
| 2025-09-13T21:31:00 | 58.137609 | 9.829620 | 2.0 | 16.592 | 2 | 41.900 | 16.751 | 32.594 | 2 |
| 2025-09-13T21:32:00 | 58.137604 | 9.830060 | 2.0 | 16.594 | 2 | 41.902 | 16.753 | 32.595 | 2 |
| 2025-09-13T21:33:00 | 58.137616 | 9.830436 | 2.0 | 16.593 | 2 | 41.903 | 16.753 | 32.595 | 2 |
| 2025-09-13T21:34:00 | 58.137637 | 9.830896 | 2.0 | 16.591 | 2 | 41.900 | 16.752 | 32.594 | 2 |
| 2025-09-13T21:35:00 | 58.137652 | 9.831353 | 2.0 | 16.587 | 2 | 41.898 | 16.750 | 32.594 | 2 |
| 2025-09-13T21:36:00 | 58.137698 | 9.831771 | 2.0 | 16.590 | 2 | 41.894 | 16.748 | 32.592 | 2 |
| 2025-09-13T21:37:00 | 58.137722 | 9.832228 | 2.0 | 16.593 | 2 | 41.895 | 16.750 | 32.591 | 2 |
| 2025-09-13T21:38:00 | 58.137726 | 9.832641 | 2.0 | 16.585 | 2 | 41.897 | 16.751 | 32.592 | 2 |
| 2025-09-13T21:39:00 | 58.137756 | 9.833027 | 2.0 | 16.589 | 2 | 41.889 | 16.746 | 32.589 | 2 |
| 2025-09-13T21:40:00 | 58.137812 | 9.833362 | 2.0 | 16.589 | 2 | 41.895 | 16.750 | 32.591 | 2 |
| 2025-09-13T21:41:00 | 58.137866 | 9.833704 | 2.0 | 16.588 | 2 | 41.895 | 16.749 | 32.592 | 2 |
| 2025-09-13T21:42:00 | 58.137978 | 9.833739 | 2.0 | 16.588 | 2 | 41.892 | 16.748 | 32.590 | 2 |
| 2025-09-13T21:43:00 | 58.138133 | 9.833520 | 2.0 | 16.590 | 2 | 41.892 | 16.749 | 32.589 | 2 |
| 2025-09-13T21:44:00 | 58.138283 | 9.833260 | 2.0 | 16.590 | 2 | 41.891 | 16.750 | 32.587 | 2 |
| 2025-09-13T21:45:00 | 58.138508 | 9.832983 | 2.0 | 16.586 | 2 | 41.890 | 16.750 | 32.587 | 2 |
| 2025-09-13T21:46:00 | 58.138865 | 9.832634 | 2.0 | 16.589 | 2 | 41.889 | 16.748 | 32.587 | 2 |
| 2025-09-13T21:47:00 | 58.139328 | 9.832273 | 2.0 | 16.587 | 2 | 41.890 | 16.748 | 32.588 | 2 |
| 2025-09-13T21:48:00 | 58.139967 | 9.831855 | 2.0 | 16.591 | 2 | 41.888 | 16.748 | 32.586 | 2 |
| 2025-09-13T21:49:00 | 58.140905 | 9.831531 | 2.0 | 16.589 | 2 | 41.888 | 16.750 | 32.585 | 2 |
| 2025-09-13T21:50:00 | 58.142004 | 9.831133 | 2.0 | 16.587 | 2 | 41.892 | 16.749 | 32.589 | 2 |
| 2025-09-13T21:51:00 | 58.143268 | 9.830962 | 2.0 | 16.587 | 2 | 41.891 | 16.747 | 32.590 | 2 |
| 2025-09-13T21:52:00 | 58.144624 | 9.831035 | 2.0 | 16.582 | 2 | 41.894 | 16.746 | 32.593 | 2 |
| 2025-09-13T21:53:00 | 58.146043 | 9.831166 | 2.0 | 16.584 | 2 | 41.896 | 16.744 | 32.597 | 2 |
| 2025-09-13T21:54:00 | 58.147473 | 9.831366 | 2.0 | 16.583 | 2 | 41.902 | 16.744 | 32.602 | 2 |
| 2025-09-13T21:55:00 | 58.148876 | 9.831391 | 2.0 | 16.581 | 2 | 41.909 | 16.743 | 32.609 | 2 |
| 2025-09-13T21:56:00 | 58.150259 | 9.831358 | 2.0 | 16.582 | 2 | 41.914 | 16.742 | 32.614 | 2 |
| 2025-09-13T21:57:00 | 58.151655 | 9.831331 | 2.0 | 16.588 | 2 | 41.922 | 16.742 | 32.621 | 2 |
| 2025-09-13T21:58:00 | 58.153076 | 9.831383 | 2.0 | 16.593 | 2 | 41.937 | 16.749 | 32.628 | 2 |
| 2025-09-13T21:59:00 | 58.154439 | 9.831835 | 2.0 | 16.598 | 2 | 41.949 | 16.754 | 32.635 | 2 |
| 2025-09-13T22:00:00 | 58.155586 | 9.832909 | 2.0 | 16.602 | 2 | 41.958 | 16.759 | 32.638 | 2 |
| 2025-09-13T22:01:00 | 58.156480 | 9.834327 | 2.0 | 16.603 | 2 | 41.963 | 16.763 | 32.639 | 2 |
| 2025-09-13T22:02:00 | 58.157132 | 9.835809 | 2.0 | 16.607 | 2 | 41.964 | 16.765 | 32.639 | 2 |
| 2025-09-13T22:03:00 | 58.157637 | 9.837211 | 2.0 | 16.606 | 2 | 41.965 | 16.767 | 32.638 | 2 |
| 2025-09-13T22:04:00 | 58.158172 | 9.838439 | 2.0 | 16.607 | 2 | 41.960 | 16.767 | 32.634 | 2 |
| 2025-09-13T22:05:00 | 58.158719 | 9.839584 | 2.0 | 16.608 | 2 | 41.959 | 16.768 | 32.632 | 2 |
| 2025-09-13T22:06:00 | 58.159180 | 9.840683 | 2.0 | 16.608 | 2 | 41.960 | 16.769 | 32.632 | 2 |
| 2025-09-13T22:07:00 | 58.159560 | 9.841750 | 2.0 | 16.610 | 2 | 41.959 | 16.769 | 32.631 | 2 |
| 2025-09-13T22:08:00 | 58.159924 | 9.842785 | 2.0 | 16.609 | 2 | 41.957 | 16.770 | 32.629 | 2 |
| 2025-09-13T22:09:00 | 58.160253 | 9.843822 | 2.0 | 16.609 | 2 | 41.956 | 16.769 | 32.628 | 2 |
| 2025-09-13T22:10:00 | 58.160449 | 9.844988 | 2.0 | 16.612 | 2 | 41.956 | 16.769 | 32.628 | 2 |
| 2025-09-13T22:11:00 | 58.160456 | 9.846178 | 2.0 | 16.611 | 2 | 41.958 | 16.771 | 32.629 | 2 |
| 2025-09-13T22:12:00 | 58.160351 | 9.847062 | 2.0 | 16.615 | 2 | 41.959 | 16.771 | 32.629 | 2 |
| 2025-09-13T22:13:00 | 58.160234 | 9.847750 | 2.0 | 16.616 | 2 | 41.967 | 16.775 | 32.633 | 2 |
| 2025-09-13T22:14:00 | 58.160179 | 9.848384 | 2.0 | 16.605 | 2 | 41.963 | 16.773 | 32.631 | 2 |
| 2025-09-13T22:15:00 | 58.160139 | 9.848925 | 2.0 | 16.607 | 2 | 41.958 | 16.767 | 32.632 | 2 |
| 2025-09-13T22:16:00 | 58.160118 | 9.849398 | 2.0 | 16.612 | 2 | 41.961 | 16.769 | 32.633 | 2 |
| 2025-09-13T22:17:00 | 58.160041 | 9.849875 | 2.0 | 16.608 | 2 | 41.963 | 16.771 | 32.633 | 2 |
| 2025-09-13T22:18:00 | 58.159851 | 9.850309 | 2.0 | 16.603 | 2 | 41.961 | 16.767 | 32.634 | 2 |
| 2025-09-13T22:19:00 | 58.159558 | 9.850700 | 2.0 | 16.604 | 2 | 41.958 | 16.763 | 32.635 | 2 |
| 2025-09-13T22:20:00 | 58.159228 | 9.850963 | 2.0 | 16.601 | 2 | 41.962 | 16.762 | 32.639 | 2 |
| 2025-09-13T22:21:00 | 58.158878 | 9.851517 | 2.0 | 16.599 | 2 | 41.964 | 16.760 | 32.643 | 2 |
| 2025-09-13T22:22:00 | 58.158554 | 9.852111 | 2.0 | 16.600 | 2 | 41.966 | 16.761 | 32.644 | 2 |
| 2025-09-13T22:23:00 | 58.158279 | 9.852583 | 2.0 | 16.596 | 2 | 41.967 | 16.759 | 32.646 | 2 |
| 2025-09-13T22:24:00 | 58.158048 | 9.853092 | 2.0 | 16.594 | 2 | 41.965 | 16.755 | 32.648 | 2 |
| 2025-09-13T22:25:00 | 58.157792 | 9.853647 | 2.0 | 16.595 | 2 | 41.964 | 16.754 | 32.648 | 2 |
| 2025-09-13T22:26:00 | 58.157531 | 9.854143 | 2.0 | 16.593 | 2 | 41.966 | 16.755 | 32.649 | 2 |
| 2025-09-13T22:27:00 | 58.157267 | 9.854658 | 2.0 | 16.589 | 2 | 41.965 | 16.752 | 32.650 | 2 |
| 2025-09-13T22:28:00 | 58.156994 | 9.855197 | 2.0 | 16.582 | 2 | 41.962 | 16.748 | 32.651 | 2 |
| 2025-09-13T22:29:00 | 58.156736 | 9.855721 | 2.0 | 16.583 | 2 | 41.956 | 16.742 | 32.650 | 2 |
| 2025-09-13T22:30:00 | 58.156487 | 9.856283 | 2.0 | 16.582 | 2 | 41.957 | 16.744 | 32.650 | 2 |
| 2025-09-13T22:31:00 | 58.156242 | 9.856834 | 2.0 | 16.574 | 2 | 41.954 | 16.740 | 32.650 | 2 |
| 2025-09-13T22:32:00 | 58.155987 | 9.857417 | 2.0 | 16.578 | 2 | 41.943 | 16.736 | 32.644 | 2 |
| 2025-09-13T22:33:00 | 58.155722 | 9.857915 | 2.0 | 16.576 | 2 | 41.947 | 16.738 | 32.646 | 2 |
| 2025-09-13T22:34:00 | 58.155442 | 9.858471 | 2.0 | 16.568 | 2 | 41.943 | 16.735 | 32.645 | 2 |
| 2025-09-13T22:35:00 | 58.155160 | 9.859021 | 2.0 | 16.568 | 2 | 41.931 | 16.729 | 32.639 | 2 |
| 2025-09-13T22:36:00 | 58.154932 | 9.859599 | 2.0 | 16.566 | 2 | 41.924 | 16.727 | 32.635 | 2 |
| 2025-09-13T22:37:00 | 58.154707 | 9.860125 | 2.0 | 16.571 | 2 | 41.923 | 16.728 | 32.633 | 2 |
| 2025-09-13T22:38:00 | 58.154470 | 9.860732 | 2.0 | 16.568 | 2 | 41.926 | 16.730 | 32.634 | 2 |
| 2025-09-13T22:39:00 | 58.154211 | 9.861286 | 2.0 | 16.567 | 2 | 41.921 | 16.728 | 32.631 | 2 |
| 2025-09-13T22:40:00 | 58.153913 | 9.861842 | 2.0 | 16.566 | 2 | 41.917 | 16.728 | 32.628 | 2 |
| 2025-09-13T22:41:00 | 58.153595 | 9.862413 | 2.0 | 16.563 | 2 | 41.911 | 16.725 | 32.625 | 2 |
| 2025-09-13T22:42:00 | 58.153272 | 9.862971 | 2.0 | 16.568 | 2 | 41.905 | 16.724 | 32.621 | 2 |
| 2025-09-13T22:43:00 | 58.152953 | 9.863507 | 2.0 | 16.563 | 2 | 41.905 | 16.726 | 32.619 | 2 |
| 2025-09-13T22:44:00 | 58.152645 | 9.864080 | 2.0 | 16.564 | 2 | 41.900 | 16.724 | 32.616 | 2 |
| 2025-09-13T22:45:00 | 58.152313 | 9.864689 | 2.0 | 16.567 | 2 | 41.897 | 16.725 | 32.613 | 2 |
| 2025-09-13T22:46:00 | 58.151972 | 9.865323 | 2.0 | 16.568 | 2 | 41.897 | 16.729 | 32.610 | 2 |
| 2025-09-13T22:47:00 | 58.151657 | 9.865778 | 2.0 | 16.569 | 2 | 41.893 | 16.727 | 32.608 | 2 |
| 2025-09-13T22:48:00 | 58.151333 | 9.866262 | 2.0 | 16.567 | 2 | 41.893 | 16.727 | 32.608 | 2 |
| 2025-09-13T22:49:00 | 58.150914 | 9.866636 | 2.0 | 16.568 | 2 | 41.889 | 16.727 | 32.604 | 2 |
| 2025-09-13T22:50:00 | 58.150432 | 9.867003 | 2.0 | 16.570 | 2 | 41.887 | 16.728 | 32.602 | 2 |
| 2025-09-13T22:51:00 | 58.149898 | 9.867298 | 2.0 | 16.569 | 2 | 41.886 | 16.729 | 32.600 | 2 |
| 2025-09-13T22:52:00 | 58.149343 | 9.867718 | 2.0 | 16.569 | 2 | 41.882 | 16.729 | 32.597 | 2 |
| 2025-09-13T22:53:00 | 58.148760 | 9.868282 | 2.0 | 16.570 | 2 | 41.879 | 16.729 | 32.594 | 2 |
| 2025-09-13T22:54:00 | 58.148219 | 9.868745 | 2.0 | 16.574 | 2 | 41.881 | 16.731 | 32.594 | 2 |
| 2025-09-13T22:55:00 | 58.147720 | 9.869177 | 2.0 | 16.573 | 2 | 41.880 | 16.734 | 32.591 | 2 |
| 2025-09-13T22:56:00 | 58.147236 | 9.869625 | 2.0 | 16.573 | 2 | 41.879 | 16.733 | 32.591 | 2 |
| 2025-09-13T22:57:00 | 58.146768 | 9.870060 | 2.0 | 16.574 | 2 | 41.871 | 16.733 | 32.584 | 2 |
| 2025-09-13T22:58:00 | 58.146310 | 9.870541 | 2.0 | 16.573 | 2 | 41.872 | 16.733 | 32.585 | 2 |
| 2025-09-13T22:59:00 | 58.145863 | 9.871008 | 2.0 | 16.575 | 2 | 41.871 | 16.733 | 32.584 | 2 |
| 2025-09-13T23:00:00 | 58.145382 | 9.871502 | 2.0 | 16.577 | 2 | 41.872 | 16.736 | 32.582 | 2 |
| 2025-09-13T23:01:00 | 58.144875 | 9.872002 | 2.0 | 16.579 | 2 | 41.873 | 16.737 | 32.582 | 2 |
| 2025-09-13T23:02:00 | 58.144379 | 9.872459 | 2.0 | 16.580 | 2 | 41.872 | 16.739 | 32.580 | 2 |
| 2025-09-13T23:03:00 | 58.143900 | 9.872874 | 2.0 | 16.578 | 2 | 41.870 | 16.738 | 32.579 | 2 |
| 2025-09-13T23:04:00 | 58.143410 | 9.873319 | 2.0 | 16.581 | 2 | 41.868 | 16.739 | 32.576 | 2 |
| 2025-09-13T23:05:00 | 58.142935 | 9.873795 | 2.0 | 16.581 | 2 | 41.867 | 16.740 | 32.575 | 2 |
| 2025-09-13T23:06:00 | 58.142440 | 9.874233 | 2.0 | 16.583 | 2 | 41.868 | 16.741 | 32.575 | 2 |
| 2025-09-13T23:07:00 | 58.141948 | 9.874667 | 2.0 | 16.584 | 2 | 41.870 | 16.743 | 32.575 | 2 |
| 2025-09-13T23:08:00 | 58.141453 | 9.875113 | 2.0 | 16.584 | 2 | 41.869 | 16.743 | 32.574 | 2 |
| 2025-09-13T23:09:00 | 58.140980 | 9.875523 | 2.0 | 16.586 | 2 | 41.868 | 16.743 | 32.573 | 2 |
| 2025-09-13T23:10:00 | 58.140522 | 9.875909 | 2.0 | 16.587 | 2 | 41.870 | 16.745 | 32.573 | 2 |
| 2025-09-13T23:11:00 | 58.140011 | 9.876268 | 2.0 | 16.592 | 2 | 41.872 | 16.748 | 32.573 | 2 |
| 2025-09-13T23:12:00 | 58.139488 | 9.876684 | 2.0 | 16.593 | 2 | 41.875 | 16.751 | 32.573 | 2 |
| 2025-09-13T23:13:00 | 58.138941 | 9.877126 | 2.0 | 16.598 | 2 | 41.877 | 16.753 | 32.573 | 2 |
| 2025-09-13T23:14:00 | 58.138370 | 9.877527 | 2.0 | 16.601 | 2 | 41.882 | 16.757 | 32.574 | 2 |
| 2025-09-13T23:15:00 | 58.137781 | 9.877951 | 2.0 | 16.606 | 2 | 41.886 | 16.761 | 32.574 | 2 |
| 2025-09-13T23:16:00 | 58.137217 | 9.878392 | 2.0 | 16.608 | 2 | 41.890 | 16.765 | 32.574 | 2 |
| 2025-09-13T23:17:00 | 58.136699 | 9.878839 | 2.0 | 16.608 | 2 | 41.892 | 16.767 | 32.575 | 2 |
| 2025-09-13T23:18:00 | 58.136172 | 9.879263 | 2.0 | 16.611 | 2 | 41.895 | 16.769 | 32.576 | 2 |
| 2025-09-13T23:19:00 | 58.135640 | 9.879731 | 2.0 | 16.615 | 2 | 41.898 | 16.770 | 32.577 | 2 |
| 2025-09-13T23:20:00 | 58.135104 | 9.880157 | 2.0 | 16.612 | 2 | 41.903 | 16.772 | 32.580 | 2 |
| 2025-09-13T23:21:00 | 58.134543 | 9.880584 | 2.0 | 16.615 | 2 | 41.904 | 16.772 | 32.581 | 2 |
| 2025-09-13T23:22:00 | 58.133999 | 9.880958 | 2.0 | 16.614 | 2 | 41.908 | 16.774 | 32.583 | 2 |
| 2025-09-13T23:23:00 | 58.133436 | 9.881392 | 2.0 | 16.614 | 2 | 41.911 | 16.773 | 32.586 | 2 |
| 2025-09-13T23:24:00 | 58.132866 | 9.881830 | 2.0 | 16.611 | 2 | 41.915 | 16.773 | 32.590 | 2 |
| 2025-09-13T23:25:00 | 58.132305 | 9.882261 | 2.0 | 16.611 | 2 | 41.914 | 16.771 | 32.590 | 2 |
| 2025-09-13T23:26:00 | 58.131768 | 9.882692 | 2.0 | 16.609 | 2 | 41.915 | 16.771 | 32.591 | 2 |
| 2025-09-13T23:27:00 | 58.131239 | 9.883107 | 2.0 | 16.606 | 2 | 41.912 | 16.767 | 32.592 | 2 |
| 2025-09-13T23:28:00 | 58.130737 | 9.883517 | 2.0 | 16.606 | 2 | 41.913 | 16.766 | 32.594 | 2 |
| 2025-09-13T23:29:00 | 58.130248 | 9.883961 | 2.0 | 16.605 | 2 | 41.912 | 16.765 | 32.594 | 2 |
| 2025-09-13T23:30:00 | 58.129764 | 9.884391 | 2.0 | 16.607 | 2 | 41.911 | 16.765 | 32.593 | 2 |
| 2025-09-13T23:31:00 | 58.129267 | 9.884854 | 2.0 | 16.609 | 2 | 41.914 | 16.766 | 32.594 | 2 |
| 2025-09-13T23:32:00 | 58.128758 | 9.885295 | 2.0 | 16.602 | 2 | 41.913 | 16.767 | 32.593 | 2 |
| 2025-09-13T23:33:00 | 58.128249 | 9.885641 | 2.0 | 16.601 | 2 | 41.915 | 16.763 | 32.598 | 2 |
| 2025-09-13T23:34:00 | 58.127757 | 9.886035 | 2.0 | 16.593 | 2 | 41.922 | 16.759 | 32.607 | 2 |
| 2025-09-13T23:35:00 | 58.127264 | 9.886389 | 2.0 | 16.590 | 2 | 41.927 | 16.754 | 32.615 | 2 |
| 2025-09-13T23:36:00 | 58.126767 | 9.886769 | 2.0 | 16.597 | 2 | 41.927 | 16.751 | 32.618 | 2 |
| 2025-09-13T23:37:00 | 58.126264 | 9.887165 | 2.0 | 16.594 | 2 | 41.928 | 16.755 | 32.616 | 2 |
| 2025-09-13T23:38:00 | 58.125760 | 9.887605 | 2.0 | 16.596 | 2 | 41.924 | 16.753 | 32.614 | 2 |
| 2025-09-13T23:39:00 | 58.125274 | 9.887879 | 2.0 | 16.595 | 2 | 41.926 | 16.755 | 32.614 | 2 |
| 2025-09-13T23:40:00 | 58.124783 | 9.888189 | 2.0 | 16.597 | 2 | 41.926 | 16.755 | 32.614 | 2 |
| 2025-09-13T23:41:00 | 58.124269 | 9.888506 | 2.0 | 16.595 | 2 | 41.927 | 16.756 | 32.614 | 2 |
| 2025-09-13T23:42:00 | 58.123718 | 9.888836 | 2.0 | 16.595 | 2 | 41.927 | 16.756 | 32.614 | 2 |
| 2025-09-13T23:43:00 | 58.123162 | 9.889101 | 2.0 | 16.591 | 2 | 41.926 | 16.754 | 32.615 | 2 |
| 2025-09-13T23:44:00 | 58.122609 | 9.889371 | 2.0 | 16.594 | 2 | 41.927 | 16.752 | 32.617 | 2 |
| 2025-09-13T23:45:00 | 58.122059 | 9.889837 | 2.0 | 16.586 | 2 | 41.929 | 16.751 | 32.620 | 2 |
| 2025-09-13T23:46:00 | 58.121473 | 9.890224 | 2.0 | 16.590 | 2 | 41.924 | 16.747 | 32.619 | 2 |
| 2025-09-13T23:47:00 | 58.120873 | 9.890646 | 2.0 | 16.585 | 2 | 41.927 | 16.749 | 32.620 | 2 |
| 2025-09-13T23:48:00 | 58.120278 | 9.891049 | 2.0 | 16.580 | 2 | 41.923 | 16.743 | 32.621 | 2 |
| 2025-09-13T23:49:00 | 58.119707 | 9.891429 | 2.0 | 16.576 | 2 | 41.921 | 16.740 | 32.622 | 2 |
| 2025-09-13T23:50:00 | 58.119191 | 9.891864 | 2.0 | 16.574 | 2 | 41.923 | 16.736 | 32.627 | 2 |
| 2025-09-13T23:51:00 | 58.118690 | 9.892240 | 2.0 | 16.567 | 2 | 41.924 | 16.732 | 32.631 | 2 |
| 2025-09-13T23:52:00 | 58.118184 | 9.892596 | 2.0 | 16.563 | 2 | 41.921 | 16.726 | 32.633 | 2 |
| 2025-09-13T23:53:00 | 58.117669 | 9.892962 | 2.0 | 16.562 | 2 | 41.918 | 16.724 | 32.632 | 2 |
| 2025-09-13T23:54:00 | 58.117207 | 9.893366 | 2.0 | 16.557 | 2 | 41.918 | 16.721 | 32.634 | 2 |
| 2025-09-13T23:55:00 | 58.116735 | 9.893757 | 2.0 | 16.552 | 2 | 41.914 | 16.715 | 32.636 | 2 |
| 2025-09-13T23:56:00 | 58.116241 | 9.894137 | 2.0 | 16.548 | 2 | 41.911 | 16.711 | 32.637 | 2 |
| 2025-09-13T23:57:00 | 58.115733 | 9.894490 | 2.0 | 16.543 | 2 | 41.912 | 16.708 | 32.640 | 2 |
| 2025-09-13T23:58:00 | 58.115228 | 9.894831 | 2.0 | 16.532 | 2 | 41.911 | 16.702 | 32.644 | 2 |
| 2025-09-13T23:59:00 | 58.114718 | 9.895188 | 2.0 | 16.530 | 2 | 41.907 | 16.693 | 32.648 | 2 |
| 2025-09-14T00:00:00 | 58.114207 | 9.895497 | 2.0 | 16.516 | 2 | 41.906 | 16.686 | 32.653 | 2 |
| 2025-09-14T00:01:00 | 58.113686 | 9.895815 | 2.0 | 16.502 | 2 | 41.902 | 16.675 | 32.658 | 2 |
| 2025-09-14T00:02:00 | 58.113168 | 9.896144 | 2.0 | 16.491 | 2 | 41.893 | 16.661 | 32.662 | 2 |
| 2025-09-14T00:03:00 | 58.112657 | 9.896515 | 2.0 | 16.482 | 2 | 41.888 | 16.652 | 32.665 | 2 |
| 2025-09-14T00:04:00 | 58.112124 | 9.896860 | 2.0 | 16.475 | 2 | 41.883 | 16.643 | 32.668 | 2 |
| 2025-09-14T00:05:00 | 58.111567 | 9.897161 | 2.0 | 16.466 | 2 | 41.885 | 16.635 | 32.676 | 2 |
| 2025-09-14T00:06:00 | 58.111040 | 9.897417 | 2.0 | 16.447 | 2 | 41.881 | 16.622 | 32.683 | 2 |
| 2025-09-14T00:07:00 | 58.110544 | 9.897660 | 2.0 | 16.438 | 2 | 41.876 | 16.606 | 32.692 | 2 |
| 2025-09-14T00:08:00 | 58.110046 | 9.897943 | 2.0 | 16.431 | 2 | 41.883 | 16.598 | 32.704 | 2 |
| 2025-09-14T00:09:00 | 58.109544 | 9.898286 | 2.0 | 16.424 | 2 | 41.887 | 16.591 | 32.714 | 2 |
| 2025-09-14T00:10:00 | 58.109052 | 9.898561 | 2.0 | 16.423 | 2 | 41.892 | 16.586 | 32.722 | 2 |
| 2025-09-14T00:11:00 | 58.108566 | 9.898847 | 2.0 | 16.411 | 2 | 41.895 | 16.581 | 32.729 | 2 |
| 2025-09-14T00:12:00 | 58.108075 | 9.899128 | 2.0 | 16.404 | 2 | 41.893 | 16.572 | 32.734 | 2 |
| 2025-09-14T00:13:00 | 58.107596 | 9.899421 | 2.0 | 16.396 | 2 | 41.893 | 16.565 | 32.740 | 2 |
| 2025-09-14T00:14:00 | 58.107099 | 9.899718 | 2.0 | 16.357 | 2 | 41.907 | 16.555 | 32.760 | 2 |
| 2025-09-14T00:15:00 | 58.106581 | 9.900023 | 2.0 | 16.327 | 2 | 41.940 | 16.509 | 32.827 | 2 |
| 2025-09-14T00:16:00 | 58.106070 | 9.900343 | 2.0 | 16.321 | 2 | 41.954 | 16.490 | 32.855 | 2 |
| 2025-09-14T00:17:00 | 58.105571 | 9.900663 | 2.0 | 16.308 | 2 | 41.956 | 16.482 | 32.863 | 2 |
| 2025-09-14T00:18:00 | 58.105073 | 9.900950 | 2.0 | 16.292 | 2 | 41.949 | 16.468 | 32.869 | 2 |
| 2025-09-14T00:19:00 | 58.104577 | 9.901197 | 2.0 | 16.275 | 2 | 41.945 | 16.452 | 32.878 | 2 |
| 2025-09-14T00:20:00 | 58.104071 | 9.901539 | 2.0 | 16.268 | 2 | 41.940 | 16.437 | 32.886 | 2 |
| 2025-09-14T00:21:00 | 58.103570 | 9.901850 | 2.0 | 16.261 | 2 | 41.951 | 16.428 | 32.903 | 2 |
| 2025-09-14T00:22:00 | 58.103071 | 9.902137 | 2.0 | 16.254 | 2 | 41.959 | 16.422 | 32.915 | 2 |
| 2025-09-14T00:23:00 | 58.102557 | 9.902444 | 2.0 | 16.245 | 2 | 41.962 | 16.415 | 32.924 | 2 |
| 2025-09-14T00:24:00 | 58.102051 | 9.902712 | 2.0 | 16.238 | 2 | 41.964 | 16.406 | 32.933 | 2 |
| 2025-09-14T00:25:00 | 58.101556 | 9.903058 | 2.0 | 16.230 | 2 | 41.968 | 16.399 | 32.942 | 2 |
| 2025-09-14T00:26:00 | 58.101058 | 9.903340 | 2.0 | 16.217 | 2 | 41.973 | 16.390 | 32.954 | 2 |
| 2025-09-14T00:27:00 | 58.100545 | 9.903633 | 2.0 | 16.202 | 2 | 41.977 | 16.378 | 32.967 | 2 |
| 2025-09-14T00:28:00 | 58.100030 | 9.903906 | 2.0 | 16.192 | 2 | 41.977 | 16.363 | 32.980 | 2 |
| 2025-09-14T00:29:00 | 58.099503 | 9.904185 | 2.0 | 16.186 | 2 | 41.981 | 16.353 | 32.992 | 2 |
| 2025-09-14T00:30:00 | 58.098994 | 9.904445 | 2.0 | 16.187 | 2 | 42.000 | 16.348 | 33.012 | 2 |
| 2025-09-14T00:31:00 | 58.098483 | 9.904715 | 2.0 | 16.186 | 2 | 42.027 | 16.349 | 33.035 | 2 |
| 2025-09-14T00:32:00 | 58.097971 | 9.905040 | 2.0 | 16.178 | 2 | 42.039 | 16.346 | 33.048 | 2 |
| 2025-09-14T00:33:00 | 58.097433 | 9.905313 | 2.0 | 16.165 | 2 | 42.047 | 16.338 | 33.062 | 2 |
| 2025-09-14T00:34:00 | 58.096877 | 9.905580 | 2.0 | 16.162 | 2 | 42.058 | 16.325 | 33.082 | 2 |
| 2025-09-14T00:35:00 | 58.096331 | 9.905873 | 2.0 | 16.178 | 2 | 42.110 | 16.329 | 33.125 | 2 |
| 2025-09-14T00:36:00 | 58.095771 | 9.906156 | 2.0 | 16.177 | 2 | 42.145 | 16.339 | 33.147 | 2 |
| 2025-09-14T00:37:00 | 58.095174 | 9.906438 | 2.0 | 16.169 | 2 | 42.154 | 16.338 | 33.156 | 2 |
| 2025-09-14T00:38:00 | 58.094562 | 9.906736 | 2.0 | 16.172 | 2 | 42.137 | 16.332 | 33.146 | 2 |
| 2025-09-14T00:39:00 | 58.093946 | 9.906984 | 2.0 | 16.174 | 2 | 42.129 | 16.333 | 33.138 | 2 |
| 2025-09-14T00:40:00 | 58.093359 | 9.907262 | 2.0 | 16.178 | 2 | 42.127 | 16.336 | 33.134 | 2 |
| 2025-09-14T00:41:00 | 58.092796 | 9.907621 | 2.0 | 16.183 | 2 | 42.132 | 16.340 | 33.135 | 2 |
| 2025-09-14T00:42:00 | 58.092252 | 9.907930 | 2.0 | 16.184 | 2 | 42.138 | 16.345 | 33.136 | 2 |
| 2025-09-14T00:43:00 | 58.091724 | 9.908227 | 2.0 | 16.183 | 2 | 42.139 | 16.345 | 33.137 | 2 |
| 2025-09-14T00:44:00 | 58.091216 | 9.908507 | 2.0 | 16.181 | 2 | 42.143 | 16.344 | 33.141 | 2 |
| 2025-09-14T00:45:00 | 58.090714 | 9.908816 | 2.0 | 16.180 | 2 | 42.143 | 16.341 | 33.144 | 2 |
| 2025-09-14T00:46:00 | 58.090215 | 9.909249 | 2.0 | 16.176 | 2 | 42.147 | 16.340 | 33.148 | 2 |
| 2025-09-14T00:47:00 | 58.089700 | 9.909673 | 2.0 | 16.162 | 2 | 42.145 | 16.335 | 33.151 | 2 |
| 2025-09-14T00:48:00 | 58.089180 | 9.910073 | 2.0 | 16.157 | 2 | 42.131 | 16.322 | 33.149 | 2 |
| 2025-09-14T00:49:00 | 58.088665 | 9.910508 | 2.0 | 16.146 | 2 | 42.133 | 16.316 | 33.156 | 2 |
| 2025-09-14T00:50:00 | 58.088128 | 9.910911 | 2.0 | 16.136 | 2 | 42.134 | 16.306 | 33.165 | 2 |
| 2025-09-14T00:51:00 | 58.087586 | 9.911305 | 2.0 | 16.129 | 2 | 42.136 | 16.297 | 33.174 | 2 |
| 2025-09-14T00:52:00 | 58.087035 | 9.911757 | 2.0 | 16.125 | 2 | 42.141 | 16.290 | 33.184 | 2 |
| 2025-09-14T00:53:00 | 58.086485 | 9.912210 | 2.0 | 16.129 | 2 | 42.152 | 16.288 | 33.196 | 2 |
| 2025-09-14T00:54:00 | 58.085958 | 9.912615 | 2.0 | 16.128 | 2 | 42.170 | 16.291 | 33.209 | 2 |
| 2025-09-14T00:55:00 | 58.085451 | 9.913052 | 2.0 | 16.121 | 2 | 42.178 | 16.289 | 33.218 | 2 |
| 2025-09-14T00:56:00 | 58.084968 | 9.913457 | 2.0 | 16.109 | 2 | 42.176 | 16.282 | 33.222 | 2 |
| 2025-09-14T00:57:00 | 58.084464 | 9.913844 | 2.0 | 16.103 | 2 | 42.180 | 16.270 | 33.235 | 2 |
| 2025-09-14T00:58:00 | 58.083949 | 9.914240 | 2.0 | 16.091 | 2 | 42.188 | 16.262 | 33.249 | 2 |
| 2025-09-14T00:59:00 | 58.083428 | 9.914617 | 2.0 | 16.079 | 2 | 42.199 | 16.251 | 33.268 | 2 |
| 2025-09-14T01:00:00 | 58.082909 | 9.915001 | 2.0 | 16.065 | 2 | 42.210 | 16.240 | 33.287 | 2 |
| 2025-09-14T01:01:00 | 58.082390 | 9.915392 | 2.0 | 16.060 | 2 | 42.220 | 16.227 | 33.307 | 2 |
| 2025-09-14T01:02:00 | 58.081865 | 9.915779 | 2.0 | 16.058 | 2 | 42.255 | 16.223 | 33.341 | 2 |
| 2025-09-14T01:03:00 | 58.081328 | 9.916211 | 2.0 | 16.077 | 2 | 42.288 | 16.222 | 33.371 | 2 |
| 2025-09-14T01:04:00 | 58.080791 | 9.916587 | 2.0 | 16.121 | 2 | 42.356 | 16.247 | 33.410 | 2 |
| 2025-09-14T01:05:00 | 58.080261 | 9.916997 | 2.0 | 16.127 | 2 | 42.436 | 16.282 | 33.451 | 2 |
| 2025-09-14T01:06:00 | 58.079745 | 9.917367 | 2.0 | 16.129 | 2 | 42.450 | 16.288 | 33.458 | 2 |
| 2025-09-14T01:07:00 | 58.079228 | 9.917707 | 2.0 | 16.133 | 2 | 42.452 | 16.290 | 33.458 | 2 |
| 2025-09-14T01:08:00 | 58.078731 | 9.918112 | 2.0 | 16.138 | 2 | 42.457 | 16.294 | 33.459 | 2 |
| 2025-09-14T01:09:00 | 58.078218 | 9.918498 | 2.0 | 16.139 | 2 | 42.461 | 16.297 | 33.460 | 2 |
| 2025-09-14T01:10:00 | 58.077710 | 9.918881 | 2.0 | 16.144 | 2 | 42.465 | 16.299 | 33.462 | 2 |
| 2025-09-14T01:11:00 | 58.077208 | 9.919292 | 2.0 | 16.142 | 2 | 42.472 | 16.304 | 33.464 | 2 |
| 2025-09-14T01:12:00 | 58.076700 | 9.919667 | 2.0 | 16.138 | 2 | 42.470 | 16.300 | 33.466 | 2 |
| 2025-09-14T01:13:00 | 58.076185 | 9.920074 | 2.0 | 16.135 | 2 | 42.477 | 16.299 | 33.473 | 2 |
| 2025-09-14T01:14:00 | 58.075662 | 9.920492 | 2.0 | 16.134 | 2 | 42.481 | 16.296 | 33.479 | 2 |
| 2025-09-14T01:15:00 | 58.075112 | 9.920851 | 2.0 | 16.136 | 2 | 42.482 | 16.295 | 33.480 | 2 |
| 2025-09-14T01:16:00 | 58.074561 | 9.921245 | 2.0 | 16.139 | 2 | 42.494 | 16.297 | 33.489 | 2 |
| 2025-09-14T01:17:00 | 58.074006 | 9.921664 | 2.0 | 16.138 | 2 | 42.502 | 16.299 | 33.495 | 2 |
| 2025-09-14T01:18:00 | 58.073444 | 9.922054 | 2.0 | 16.139 | 2 | 42.506 | 16.299 | 33.498 | 2 |
| 2025-09-14T01:19:00 | 58.072861 | 9.922429 | 2.0 | 16.137 | 2 | 42.515 | 16.299 | 33.506 | 2 |
| 2025-09-14T01:20:00 | 58.072280 | 9.922821 | 2.0 | 16.139 | 2 | 42.525 | 16.299 | 33.515 | 2 |
| 2025-09-14T01:21:00 | 58.071707 | 9.923194 | 2.0 | 16.143 | 2 | 42.538 | 16.300 | 33.526 | 2 |
| 2025-09-14T01:22:00 | 58.071138 | 9.923567 | 2.0 | 16.138 | 2 | 42.551 | 16.302 | 33.535 | 2 |
| 2025-09-14T01:23:00 | 58.070585 | 9.923941 | 2.0 | 16.141 | 2 | 42.557 | 16.300 | 33.542 | 2 |
| 2025-09-14T01:24:00 | 58.070053 | 9.924328 | 2.0 | 16.142 | 2 | 42.564 | 16.302 | 33.547 | 2 |
| 2025-09-14T01:25:00 | 58.069521 | 9.924686 | 2.0 | 16.139 | 2 | 42.572 | 16.303 | 33.553 | 2 |
| 2025-09-14T01:26:00 | 58.068980 | 9.925043 | 2.0 | 16.136 | 2 | 42.568 | 16.298 | 33.554 | 2 |
| 2025-09-14T01:27:00 | 58.068427 | 9.925420 | 2.0 | 16.132 | 2 | 42.565 | 16.296 | 33.553 | 2 |
| 2025-09-14T01:28:00 | 58.067864 | 9.925794 | 2.0 | 16.140 | 2 | 42.566 | 16.295 | 33.554 | 2 |
| 2025-09-14T01:29:00 | 58.067303 | 9.926151 | 2.0 | 16.138 | 2 | 42.574 | 16.299 | 33.558 | 2 |
| 2025-09-14T01:30:00 | 58.066750 | 9.926535 | 2.0 | 16.146 | 2 | 42.583 | 16.300 | 33.565 | 2 |
| 2025-09-14T01:31:00 | 58.066213 | 9.926951 | 2.0 | 16.146 | 2 | 42.602 | 16.307 | 33.576 | 2 |
| 2025-09-14T01:32:00 | 58.065690 | 9.927284 | 2.0 | 16.129 | 2 | 42.608 | 16.306 | 33.582 | 2 |
| 2025-09-14T01:33:00 | 58.065188 | 9.927725 | 2.0 | 16.082 | 2 | 42.588 | 16.278 | 33.588 | 2 |
| 2025-09-14T01:34:00 | 58.064676 | 9.928143 | 2.0 | 16.084 | 2 | 42.521 | 16.247 | 33.555 | 2 |
| 2025-09-14T01:35:00 | 58.064155 | 9.928550 | 2.0 | 16.091 | 2 | 42.514 | 16.247 | 33.549 | 2 |
| 2025-09-14T01:36:00 | 58.063641 | 9.928929 | 2.0 | 16.085 | 2 | 42.527 | 16.251 | 33.557 | 2 |
| 2025-09-14T01:37:00 | 58.063159 | 9.929324 | 2.0 | 16.078 | 2 | 42.522 | 16.247 | 33.556 | 2 |
| 2025-09-14T01:38:00 | 58.062683 | 9.929685 | 2.0 | 16.078 | 2 | 42.508 | 16.239 | 33.550 | 2 |
| 2025-09-14T01:39:00 | 58.062203 | 9.930064 | 2.0 | 16.077 | 2 | 42.510 | 16.240 | 33.551 | 2 |
| 2025-09-14T01:40:00 | 58.061736 | 9.930453 | 2.0 | 16.072 | 2 | 42.513 | 16.238 | 33.556 | 2 |
| 2025-09-14T01:41:00 | 58.061276 | 9.930856 | 2.0 | 16.072 | 2 | 42.515 | 16.235 | 33.560 | 2 |
| 2025-09-14T01:42:00 | 58.060813 | 9.931245 | 2.0 | 16.046 | 2 | 42.520 | 16.232 | 33.567 | 2 |
| 2025-09-14T01:43:00 | 58.060351 | 9.931681 | 2.0 | 16.035 | 2 | 42.489 | 16.207 | 33.561 | 2 |
| 2025-09-14T01:44:00 | 58.059888 | 9.932107 | 2.0 | 16.032 | 2 | 42.471 | 16.198 | 33.552 | 2 |
| 2025-09-14T01:45:00 | 58.059438 | 9.932502 | 2.0 | 16.037 | 2 | 42.464 | 16.196 | 33.548 | 2 |
| 2025-09-14T01:46:00 | 58.059001 | 9.932915 | 2.0 | 16.034 | 2 | 42.466 | 16.198 | 33.548 | 2 |
| 2025-09-14T01:47:00 | 58.058532 | 9.933295 | 2.0 | 16.035 | 2 | 42.460 | 16.196 | 33.544 | 2 |
| 2025-09-14T01:48:00 | 58.058049 | 9.933741 | 2.0 | 16.037 | 2 | 42.457 | 16.197 | 33.541 | 2 |
| 2025-09-14T01:49:00 | 58.057535 | 9.934166 | 2.0 | 16.039 | 2 | 42.456 | 16.200 | 33.537 | 2 |
| 2025-09-14T01:50:00 | 58.057014 | 9.934599 | 2.0 | 16.042 | 2 | 42.452 | 16.202 | 33.532 | 2 |
| 2025-09-14T01:51:00 | 58.056467 | 9.935082 | 2.0 | 16.046 | 2 | 42.452 | 16.204 | 33.531 | 2 |
| 2025-09-14T01:52:00 | 58.055899 | 9.935590 | 2.0 | 16.048 | 2 | 42.452 | 16.207 | 33.528 | 2 |
| 2025-09-14T01:53:00 | 58.055322 | 9.936083 | 2.0 | 16.053 | 2 | 42.455 | 16.211 | 33.527 | 2 |
| 2025-09-14T01:54:00 | 58.054758 | 9.936568 | 2.0 | 16.052 | 2 | 42.455 | 16.214 | 33.525 | 2 |
| 2025-09-14T01:55:00 | 58.054227 | 9.937055 | 2.0 | 16.053 | 2 | 42.451 | 16.214 | 33.521 | 2 |
| 2025-09-14T01:56:00 | 58.053709 | 9.937501 | 2.0 | 16.055 | 2 | 42.448 | 16.215 | 33.518 | 2 |
| 2025-09-14T01:57:00 | 58.053213 | 9.937955 | 2.0 | 16.055 | 2 | 42.444 | 16.216 | 33.513 | 2 |
| 2025-09-14T01:58:00 | 58.052717 | 9.938388 | 2.0 | 16.056 | 2 | 42.441 | 16.217 | 33.510 | 2 |
| 2025-09-14T01:59:00 | 58.052223 | 9.938841 | 2.0 | 16.060 | 2 | 42.440 | 16.218 | 33.508 | 2 |
| 2025-09-14T02:00:00 | 58.051736 | 9.939332 | 2.0 | 16.058 | 2 | 42.445 | 16.221 | 33.510 | 2 |
| 2025-09-14T02:01:00 | 58.051246 | 9.939830 | 2.0 | 16.062 | 2 | 42.446 | 16.221 | 33.511 | 2 |
| 2025-09-14T02:02:00 | 58.050778 | 9.940283 | 2.0 | 16.060 | 2 | 42.451 | 16.222 | 33.515 | 2 |
| 2025-09-14T02:03:00 | 58.050320 | 9.940741 | 2.0 | 16.063 | 2 | 42.452 | 16.221 | 33.516 | 2 |
| 2025-09-14T02:04:00 | 58.049867 | 9.941150 | 2.0 | 16.061 | 2 | 42.458 | 16.225 | 33.518 | 2 |
| 2025-09-14T02:05:00 | 58.049426 | 9.941601 | 2.0 | 16.054 | 2 | 42.456 | 16.221 | 33.520 | 2 |
| 2025-09-14T02:06:00 | 58.048992 | 9.942003 | 2.0 | 16.056 | 2 | 42.452 | 16.217 | 33.520 | 2 |
| 2025-09-14T02:07:00 | 58.048538 | 9.942402 | 2.0 | 16.056 | 2 | 42.455 | 16.216 | 33.523 | 2 |
| 2025-09-14T02:08:00 | 58.048079 | 9.942840 | 2.0 | 16.055 | 2 | 42.449 | 16.218 | 33.516 | 2 |
| 2025-09-14T02:09:00 | 58.047596 | 9.943224 | 2.0 | 16.057 | 2 | 42.457 | 16.218 | 33.523 | 2 |
| 2025-09-14T02:10:00 | 58.047105 | 9.943674 | 2.0 | 16.058 | 2 | 42.467 | 16.219 | 33.531 | 2 |
| 2025-09-14T02:11:00 | 58.046603 | 9.944048 | 2.0 | 16.063 | 2 | 42.476 | 16.220 | 33.538 | 2 |
| 2025-09-14T02:12:00 | 58.046094 | 9.944425 | 2.0 | 16.065 | 2 | 42.492 | 16.225 | 33.548 | 2 |
| 2025-09-14T02:13:00 | 58.045660 | 9.944763 | 2.0 | 16.068 | 2 | 42.507 | 16.228 | 33.559 | 2 |
| 2025-09-14T02:14:00 | 58.045303 | 9.945138 | 2.0 | 16.069 | 2 | 42.521 | 16.229 | 33.570 | 2 |
| 2025-09-14T02:15:00 | 58.045067 | 9.946107 | 2.0 | 16.072 | 2 | 42.532 | 16.230 | 33.579 | 2 |
| 2025-09-14T02:16:00 | 58.045875 | 9.947719 | 2.0 | 16.062 | 2 | 42.531 | 16.230 | 33.578 | 2 |
| 2025-09-14T02:17:00 | 58.047842 | 9.948944 | 2.0 | 16.075 | 2 | 42.505 | 16.227 | 33.558 | 2 |
| 2025-09-14T02:18:00 | 58.050408 | 9.949354 | 2.0 | 16.063 | 2 | 42.490 | 16.234 | 33.539 | 2 |
| 2025-09-14T02:19:00 | 58.053187 | 9.949734 | 2.0 | 16.056 | 2 | 42.466 | 16.226 | 33.524 | 2 |
| 2025-09-14T02:20:00 | 58.056019 | 9.950121 | 2.0 | 16.050 | 2 | 42.445 | 16.219 | 33.512 | 2 |
| 2025-09-14T02:21:00 | 58.058863 | 9.950491 | 2.0 | 16.035 | 2 | 42.458 | 16.211 | 33.530 | 2 |
| 2025-09-14T02:22:00 | 58.061687 | 9.950817 | 2.0 | 16.073 | 2 | 42.469 | 16.205 | 33.545 | 2 |
| 2025-09-14T02:23:00 | 58.064511 | 9.951172 | 2.0 | 16.104 | 2 | 42.522 | 16.239 | 33.563 | 2 |
| 2025-09-14T02:24:00 | 58.067340 | 9.951481 | 2.0 | 16.146 | 2 | 42.574 | 16.275 | 33.578 | 2 |
| 2025-09-14T02:25:00 | 58.070182 | 9.951908 | 2.0 | 16.144 | 2 | 42.591 | 16.305 | 33.568 | 2 |
| 2025-09-14T02:26:00 | 58.073038 | 9.952213 | 2.0 | 16.150 | 2 | 42.554 | 16.308 | 33.533 | 2 |
| 2025-09-14T02:27:00 | 58.075897 | 9.952585 | 2.0 | 16.143 | 2 | 42.505 | 16.311 | 33.487 | 2 |
| 2025-09-14T02:28:00 | 58.078736 | 9.952953 | 2.0 | 16.138 | 2 | 42.444 | 16.304 | 33.439 | 2 |
| 2025-09-14T02:29:00 | 58.081596 | 9.953293 | 2.0 | 16.128 | 2 | 42.413 | 16.299 | 33.416 | 2 |
| 2025-09-14T02:30:00 | 58.084461 | 9.953745 | 2.0 | 16.120 | 2 | 42.395 | 16.290 | 33.408 | 2 |
| 2025-09-14T02:31:00 | 58.087349 | 9.954084 | 2.0 | 16.118 | 2 | 42.391 | 16.282 | 33.411 | 2 |
| 2025-09-14T02:32:00 | 58.090232 | 9.954470 | 2.0 | 16.082 | 2 | 42.375 | 16.276 | 33.402 | 2 |
| 2025-09-14T02:33:00 | 58.093100 | 9.954838 | 2.0 | 16.098 | 2 | 42.232 | 16.251 | 33.297 | 2 |
| 2025-09-14T02:34:00 | 58.095964 | 9.955264 | 2.0 | 16.172 | 2 | 42.150 | 16.281 | 33.200 | 2 |
| 2025-09-14T02:35:00 | 58.098828 | 9.955661 | 2.0 | 16.157 | 2 | 42.159 | 16.329 | 33.168 | 2 |
| 2025-09-14T02:36:00 | 58.101680 | 9.956031 | 2.0 | 16.138 | 2 | 42.143 | 16.316 | 33.165 | 2 |
| 2025-09-14T02:37:00 | 58.104521 | 9.956465 | 2.0 | 16.168 | 2 | 42.079 | 16.306 | 33.117 | 2 |
| 2025-09-14T02:38:00 | 58.107357 | 9.956857 | 2.0 | 16.231 | 2 | 42.010 | 16.338 | 33.029 | 2 |
| 2025-09-14T02:39:00 | 58.110189 | 9.957217 | 2.0 | 16.336 | 2 | 41.942 | 16.407 | 32.913 | 2 |
| 2025-09-14T02:40:00 | 58.113016 | 9.957568 | 2.0 | 16.401 | 2 | 41.873 | 16.505 | 32.772 | 2 |
| 2025-09-14T02:41:00 | 58.115853 | 9.957966 | 2.0 | 16.473 | 2 | 41.865 | 16.572 | 32.710 | 2 |
| 2025-09-14T02:42:00 | 58.118672 | 9.958355 | 2.0 | 16.531 | 2 | 41.864 | 16.635 | 32.658 | 2 |
| 2025-09-14T02:43:00 | 58.121495 | 9.958657 | 2.0 | 16.550 | 2 | 41.877 | 16.690 | 32.624 | 2 |
| 2025-09-14T02:44:00 | 58.124290 | 9.959517 | 2.0 | 16.563 | 2 | 41.884 | 16.712 | 32.612 | 2 |
| 2025-09-14T02:45:00 | 58.126988 | 9.961317 | 2.0 | 16.559 | 2 | 41.886 | 16.720 | 32.607 | 2 |
| 2025-09-14T02:46:00 | 58.129736 | 9.962965 | 2.0 | 16.573 | 2 | 41.883 | 16.724 | 32.602 | 2 |
| 2025-09-14T02:47:00 | 58.132481 | 9.964638 | 2.0 | 16.572 | 2 | 41.881 | 16.732 | 32.593 | 2 |
| 2025-09-14T02:48:00 | 58.135240 | 9.966298 | 2.0 | 16.576 | 2 | 41.879 | 16.733 | 32.591 | 2 |
| 2025-09-14T02:49:00 | 58.137982 | 9.967995 | 2.0 | 16.576 | 2 | 41.879 | 16.737 | 32.588 | 2 |
| 2025-09-14T02:50:00 | 58.140731 | 9.969633 | 2.0 | 16.566 | 2 | 41.874 | 16.735 | 32.585 | 2 |
| 2025-09-14T02:51:00 | 58.143474 | 9.971257 | 2.0 | 16.545 | 2 | 41.858 | 16.723 | 32.581 | 2 |
| 2025-09-14T02:52:00 | 58.146196 | 9.972911 | 2.0 | 16.529 | 2 | 41.842 | 16.704 | 32.582 | 2 |
| 2025-09-14T02:53:00 | 58.148919 | 9.974530 | 2.0 | 16.523 | 2 | 41.835 | 16.689 | 32.588 | 2 |
| 2025-09-14T02:54:00 | 58.151612 | 9.976235 | 2.0 | 16.521 | 2 | 41.845 | 16.685 | 32.600 | 2 |
| 2025-09-14T02:55:00 | 58.154306 | 9.977919 | 2.0 | 16.516 | 2 | 41.858 | 16.681 | 32.615 | 2 |
| 2025-09-14T02:56:00 | 58.157018 | 9.979494 | 2.0 | 16.514 | 2 | 41.872 | 16.676 | 32.631 | 2 |
| 2025-09-14T02:57:00 | 58.159726 | 9.981139 | 2.0 | 16.549 | 2 | 41.902 | 16.680 | 32.654 | 2 |
| 2025-09-14T02:58:00 | 58.162438 | 9.982798 | 2.0 | 16.553 | 2 | 41.933 | 16.708 | 32.658 | 2 |
| 2025-09-14T02:59:00 | 58.165138 | 9.984450 | 2.0 | 16.552 | 2 | 41.917 | 16.713 | 32.640 | 2 |
| 2025-09-14T03:00:00 | 58.167838 | 9.986151 | 2.0 | 16.561 | 2 | 41.898 | 16.714 | 32.623 | 2 |
| 2025-09-14T03:01:00 | 58.170176 | 9.987681 | 2.0 | 16.577 | 2 | 41.898 | 16.727 | 32.612 | 2 |
| 2025-09-14T03:02:00 | 58.171966 | 9.988822 | 2.0 | 16.588 | 2 | 41.899 | 16.738 | 32.604 | 2 |
| 2025-09-14T03:03:00 | 58.173387 | 9.989795 | 2.0 | 16.599 | 2 | 41.897 | 16.750 | 32.593 | 2 |
| 2025-09-14T03:04:00 | 58.174346 | 9.990987 | 2.0 | 16.606 | 2 | 41.892 | 16.759 | 32.581 | 2 |
| 2025-09-14T03:05:00 | 58.174582 | 9.992102 | 2.0 | 16.602 | 2 | 41.888 | 16.764 | 32.573 | 2 |
| 2025-09-14T03:06:00 | 58.174648 | 9.992749 | 2.0 | 16.596 | 2 | 41.882 | 16.759 | 32.572 | 2 |
| 2025-09-14T03:07:00 | 58.174636 | 9.993130 | 2.0 | 16.595 | 2 | 41.877 | 16.755 | 32.571 | 2 |
| 2025-09-14T03:08:00 | 58.174598 | 9.993127 | 2.0 | 16.593 | 2 | 41.876 | 16.754 | 32.571 | 2 |
| 2025-09-14T03:09:00 | 58.174595 | 9.992959 | 2.0 | 16.595 | 2 | 41.875 | 16.751 | 32.573 | 2 |
| 2025-09-14T03:10:00 | 58.174564 | 9.992761 | 2.0 | 16.594 | 2 | 41.876 | 16.752 | 32.573 | 2 |
| 2025-09-14T03:11:00 | 58.174436 | 9.992687 | 2.0 | 16.597 | 2 | 41.877 | 16.752 | 32.574 | 2 |
| 2025-09-14T03:12:00 | 58.174139 | 9.992860 | 2.0 | 16.601 | 2 | 41.881 | 16.755 | 32.575 | 2 |
| 2025-09-14T03:13:00 | 58.173553 | 9.993264 | 2.0 | 16.600 | 2 | 41.888 | 16.760 | 32.577 | 2 |
| 2025-09-14T03:14:00 | 58.172875 | 9.993704 | 2.0 | 16.600 | 2 | 41.894 | 16.761 | 32.581 | 2 |
| 2025-09-14T03:15:00 | 58.172215 | 9.994090 | 2.0 | 16.592 | 2 | 41.896 | 16.757 | 32.586 | 2 |
| 2025-09-14T03:16:00 | 58.171604 | 9.994463 | 2.0 | 16.592 | 2 | 41.895 | 16.751 | 32.590 | 2 |
| 2025-09-14T03:17:00 | 58.171009 | 9.994786 | 2.0 | 16.583 | 2 | 41.898 | 16.750 | 32.594 | 2 |
| 2025-09-14T03:18:00 | 58.170469 | 9.995079 | 2.0 | 16.574 | 2 | 41.895 | 16.741 | 32.598 | 2 |
| 2025-09-14T03:19:00 | 58.169941 | 9.995387 | 2.0 | 16.573 | 2 | 41.893 | 16.735 | 32.601 | 2 |
| 2025-09-14T03:20:00 | 58.169407 | 9.995675 | 2.0 | 16.565 | 2 | 41.894 | 16.731 | 32.606 | 2 |
| 2025-09-14T03:21:00 | 58.168891 | 9.995946 | 2.0 | 16.563 | 2 | 41.892 | 16.725 | 32.609 | 2 |
| 2025-09-14T03:22:00 | 58.168381 | 9.996242 | 2.0 | 16.558 | 2 | 41.892 | 16.721 | 32.612 | 2 |
| 2025-09-14T03:23:00 | 58.167866 | 9.996538 | 2.0 | 16.554 | 2 | 41.893 | 16.718 | 32.615 | 2 |
| 2025-09-14T03:24:00 | 58.167351 | 9.996844 | 2.0 | 16.550 | 2 | 41.890 | 16.713 | 32.617 | 2 |
| 2025-09-14T03:25:00 | 58.166842 | 9.997143 | 2.0 | 16.536 | 2 | 41.888 | 16.707 | 32.620 | 2 |
| 2025-09-14T03:26:00 | 58.166323 | 9.997434 | 2.0 | 16.544 | 2 | 41.881 | 16.698 | 32.621 | 2 |
| 2025-09-14T03:27:00 | 58.165798 | 9.997724 | 2.0 | 16.535 | 2 | 41.888 | 16.703 | 32.623 | 2 |
| 2025-09-14T03:28:00 | 58.165267 | 9.997992 | 2.0 | 16.533 | 2 | 41.883 | 16.695 | 32.625 | 2 |
| 2025-09-14T03:29:00 | 58.164753 | 9.998279 | 2.0 | 16.537 | 2 | 41.884 | 16.694 | 32.627 | 2 |
| 2025-09-14T03:30:00 | 58.164251 | 9.998553 | 2.0 | 16.538 | 2 | 41.890 | 16.697 | 32.630 | 2 |
| 2025-09-14T03:31:00 | 58.163754 | 9.998804 | 2.0 | 16.536 | 2 | 41.892 | 16.696 | 32.632 | 2 |
| 2025-09-14T03:32:00 | 58.163208 | 9.999090 | 2.0 | 16.536 | 2 | 41.898 | 16.697 | 32.637 | 2 |
| 2025-09-14T03:33:00 | 58.162626 | 9.999423 | 2.0 | 16.534 | 2 | 41.900 | 16.695 | 32.640 | 2 |
| 2025-09-14T03:34:00 | 58.162065 | 9.999702 | 2.0 | 16.533 | 2 | 41.900 | 16.693 | 32.642 | 2 |
| 2025-09-14T03:35:00 | 58.161534 | 9.999978 | 2.0 | 16.536 | 2 | 41.903 | 16.692 | 32.645 | 2 |
| 2025-09-14T03:36:00 | 58.161003 | 10.000255 | 2.0 | 16.534 | 2 | 41.910 | 16.696 | 32.648 | 2 |
| 2025-09-14T03:37:00 | 58.160474 | 10.000551 | 2.0 | 16.531 | 2 | 41.914 | 16.693 | 32.654 | 2 |
| 2025-09-14T03:38:00 | 58.159922 | 10.000840 | 2.0 | 16.530 | 2 | 41.919 | 16.691 | 32.660 | 2 |
| 2025-09-14T03:39:00 | 58.159353 | 10.001137 | 2.0 | 16.533 | 2 | 41.924 | 16.690 | 32.665 | 2 |
| 2025-09-14T03:40:00 | 58.158765 | 10.001423 | 2.0 | 16.524 | 2 | 41.934 | 16.693 | 32.671 | 2 |
| 2025-09-14T03:41:00 | 58.158184 | 10.001714 | 2.0 | 16.523 | 2 | 41.930 | 16.684 | 32.675 | 2 |
| 2025-09-14T03:42:00 | 58.157612 | 10.001964 | 2.0 | 16.529 | 2 | 41.930 | 16.685 | 32.674 | 2 |
| 2025-09-14T03:43:00 | 58.157042 | 10.002246 | 2.0 | 16.527 | 2 | 41.936 | 16.689 | 32.676 | 2 |
| 2025-09-14T03:44:00 | 58.156459 | 10.002536 | 2.0 | 16.525 | 2 | 41.936 | 16.687 | 32.678 | 2 |
| 2025-09-14T03:45:00 | 58.155873 | 10.002838 | 2.0 | 16.501 | 2 | 41.933 | 16.678 | 32.683 | 2 |
| 2025-09-14T03:46:00 | 58.155305 | 10.003092 | 2.0 | 16.491 | 2 | 41.908 | 16.661 | 32.675 | 2 |
| 2025-09-14T03:47:00 | 58.154728 | 10.003382 | 2.0 | 16.494 | 2 | 41.881 | 16.653 | 32.658 | 2 |
| 2025-09-14T03:48:00 | 58.154139 | 10.003638 | 2.0 | 16.495 | 2 | 41.876 | 16.654 | 32.653 | 2 |
| 2025-09-14T03:49:00 | 58.153559 | 10.003950 | 2.0 | 16.497 | 2 | 41.868 | 16.654 | 32.646 | 2 |
| 2025-09-14T03:50:00 | 58.152977 | 10.004227 | 2.0 | 16.496 | 2 | 41.872 | 16.657 | 32.647 | 2 |
| 2025-09-14T03:51:00 | 58.152409 | 10.004540 | 2.0 | 16.496 | 2 | 41.857 | 16.656 | 32.634 | 2 |
| 2025-09-14T03:52:00 | 58.151817 | 10.004860 | 2.0 | 16.498 | 2 | 41.851 | 16.655 | 32.630 | 2 |
| 2025-09-14T03:53:00 | 58.151197 | 10.005212 | 2.0 | 16.503 | 2 | 41.850 | 16.658 | 32.627 | 2 |
| 2025-09-14T03:54:00 | 58.150553 | 10.005584 | 2.0 | 16.505 | 2 | 41.850 | 16.664 | 32.622 | 2 |
| 2025-09-14T03:55:00 | 58.149930 | 10.005915 | 2.0 | 16.508 | 2 | 41.846 | 16.665 | 32.617 | 2 |
| 2025-09-14T03:56:00 | 58.149329 | 10.006281 | 2.0 | 16.511 | 2 | 41.835 | 16.668 | 32.605 | 2 |
| 2025-09-14T03:57:00 | 58.148724 | 10.006679 | 2.0 | 16.515 | 2 | 41.833 | 16.671 | 32.601 | 2 |
| 2025-09-14T03:58:00 | 58.148108 | 10.007109 | 2.0 | 16.518 | 2 | 41.835 | 16.674 | 32.601 | 2 |
| 2025-09-14T03:59:00 | 58.147495 | 10.007509 | 2.0 | 16.523 | 2 | 41.838 | 16.679 | 32.599 | 2 |
| 2025-09-14T04:00:00 | 58.146903 | 10.007886 | 2.0 | 16.521 | 2 | 41.840 | 16.682 | 32.598 | 2 |
| 2025-09-14T04:01:00 | 58.146295 | 10.008269 | 2.0 | 16.526 | 2 | 41.839 | 16.680 | 32.599 | 2 |
| 2025-09-14T04:02:00 | 58.145686 | 10.008680 | 2.0 | 16.525 | 2 | 41.843 | 16.686 | 32.598 | 2 |
| 2025-09-14T04:03:00 | 58.145067 | 10.009102 | 2.0 | 16.529 | 2 | 41.840 | 16.684 | 32.597 | 2 |
| 2025-09-14T04:04:00 | 58.144442 | 10.009512 | 2.0 | 16.529 | 2 | 41.843 | 16.688 | 32.596 | 2 |
| 2025-09-14T04:05:00 | 58.143813 | 10.009922 | 2.0 | 16.534 | 2 | 41.843 | 16.689 | 32.595 | 2 |
| 2025-09-14T04:06:00 | 58.143178 | 10.010326 | 2.0 | 16.534 | 2 | 41.848 | 16.693 | 32.596 | 2 |
| 2025-09-14T04:07:00 | 58.142542 | 10.010724 | 2.0 | 16.537 | 2 | 41.848 | 16.693 | 32.596 | 2 |
| 2025-09-14T04:08:00 | 58.141924 | 10.011073 | 2.0 | 16.542 | 2 | 41.850 | 16.696 | 32.596 | 2 |
| 2025-09-14T04:09:00 | 58.141304 | 10.011512 | 2.0 | 16.545 | 2 | 41.855 | 16.700 | 32.597 | 2 |
| 2025-09-14T04:10:00 | 58.140673 | 10.011944 | 2.0 | 16.546 | 2 | 41.862 | 16.705 | 32.599 | 2 |
| 2025-09-14T04:11:00 | 58.140039 | 10.012376 | 2.0 | 16.546 | 2 | 41.866 | 16.705 | 32.602 | 2 |
| 2025-09-14T04:12:00 | 58.139402 | 10.012781 | 2.0 | 16.545 | 2 | 41.867 | 16.704 | 32.604 | 2 |
| 2025-09-14T04:13:00 | 58.138760 | 10.013204 | 2.0 | 16.543 | 2 | 41.868 | 16.704 | 32.605 | 2 |
| 2025-09-14T04:14:00 | 58.138126 | 10.013604 | 2.0 | 16.548 | 2 | 41.870 | 16.703 | 32.607 | 2 |
| 2025-09-14T04:15:00 | 58.137495 | 10.014040 | 2.0 | 16.548 | 2 | 41.874 | 16.705 | 32.609 | 2 |
| 2025-09-14T04:16:00 | 58.136867 | 10.014439 | 2.0 | 16.548 | 2 | 41.878 | 16.707 | 32.611 | 2 |
| 2025-09-14T04:17:00 | 58.136222 | 10.014838 | 2.0 | 16.541 | 2 | 41.879 | 16.705 | 32.614 | 2 |
| 2025-09-14T04:18:00 | 58.135595 | 10.015200 | 2.0 | 16.541 | 2 | 41.876 | 16.700 | 32.615 | 2 |
| 2025-09-14T04:19:00 | 58.134989 | 10.015577 | 2.0 | 16.542 | 2 | 41.881 | 16.701 | 32.619 | 2 |
| 2025-09-14T04:20:00 | 58.134360 | 10.015969 | 2.0 | 16.541 | 2 | 41.888 | 16.701 | 32.625 | 2 |
| 2025-09-14T04:21:00 | 58.133722 | 10.016312 | 2.0 | 16.536 | 2 | 41.891 | 16.699 | 32.629 | 2 |
| 2025-09-14T04:22:00 | 58.133069 | 10.016718 | 2.0 | 16.533 | 2 | 41.890 | 16.695 | 32.631 | 2 |
| 2025-09-14T04:23:00 | 58.132384 | 10.017153 | 2.0 | 16.534 | 2 | 41.890 | 16.693 | 32.633 | 2 |
| 2025-09-14T04:24:00 | 58.131696 | 10.017600 | 2.0 | 16.532 | 2 | 41.889 | 16.692 | 32.633 | 2 |
| 2025-09-14T04:25:00 | 58.131009 | 10.018046 | 2.0 | 16.532 | 2 | 41.890 | 16.692 | 32.634 | 2 |
| 2025-09-14T04:26:00 | 58.130320 | 10.018481 | 2.0 | 16.530 | 2 | 41.889 | 16.690 | 32.635 | 2 |
| 2025-09-14T04:27:00 | 58.129629 | 10.018912 | 2.0 | 16.530 | 2 | 41.889 | 16.690 | 32.635 | 2 |
| 2025-09-14T04:28:00 | 58.128923 | 10.019348 | 2.0 | 16.529 | 2 | 41.888 | 16.690 | 32.634 | 2 |
| 2025-09-14T04:29:00 | 58.128207 | 10.019810 | 2.0 | 16.523 | 2 | 41.889 | 16.687 | 32.637 | 2 |
| 2025-09-14T04:30:00 | 58.127518 | 10.020287 | 2.0 | 16.526 | 2 | 41.885 | 16.682 | 32.638 | 2 |
| 2025-09-14T04:31:00 | 58.126825 | 10.020770 | 2.0 | 16.522 | 2 | 41.889 | 16.684 | 32.639 | 2 |
| 2025-09-14T04:32:00 | 58.126126 | 10.021235 | 2.0 | 16.516 | 2 | 41.889 | 16.680 | 32.643 | 2 |
| 2025-09-14T04:33:00 | 58.125454 | 10.021700 | 2.0 | 16.514 | 2 | 41.887 | 16.676 | 32.644 | 2 |
| 2025-09-14T04:34:00 | 58.124766 | 10.022187 | 2.0 | 16.513 | 2 | 41.888 | 16.674 | 32.647 | 2 |
| 2025-09-14T04:35:00 | 58.124077 | 10.022690 | 2.0 | 16.510 | 2 | 41.887 | 16.671 | 32.648 | 2 |
| 2025-09-14T04:36:00 | 58.123391 | 10.023175 | 2.0 | 16.505 | 2 | 41.890 | 16.670 | 32.652 | 2 |
| 2025-09-14T04:37:00 | 58.122696 | 10.023601 | 2.0 | 16.493 | 2 | 41.884 | 16.662 | 32.653 | 2 |
| 2025-09-14T04:38:00 | 58.122028 | 10.024026 | 2.0 | 16.489 | 2 | 41.876 | 16.653 | 32.653 | 2 |
| 2025-09-14T04:39:00 | 58.121373 | 10.024520 | 2.0 | 16.490 | 2 | 41.878 | 16.650 | 32.658 | 2 |
| 2025-09-14T04:40:00 | 58.120722 | 10.025022 | 2.0 | 16.484 | 2 | 41.885 | 16.647 | 32.666 | 2 |
| 2025-09-14T04:41:00 | 58.120061 | 10.025534 | 2.0 | 16.477 | 2 | 41.887 | 16.643 | 32.671 | 2 |
| 2025-09-14T04:42:00 | 58.119394 | 10.026001 | 2.0 | 16.474 | 2 | 41.884 | 16.637 | 32.673 | 2 |
| 2025-09-14T04:43:00 | 58.118738 | 10.026447 | 2.0 | 16.470 | 2 | 41.883 | 16.633 | 32.676 | 2 |
| 2025-09-14T04:44:00 | 58.118095 | 10.026851 | 2.0 | 16.460 | 2 | 41.884 | 16.627 | 32.682 | 2 |
| 2025-09-14T04:45:00 | 58.117438 | 10.027253 | 2.0 | 16.449 | 2 | 41.881 | 16.618 | 32.686 | 2 |
| 2025-09-14T04:46:00 | 58.116750 | 10.027736 | 2.0 | 16.435 | 2 | 41.879 | 16.607 | 32.694 | 2 |
| 2025-09-14T04:47:00 | 58.116003 | 10.028266 | 2.0 | 16.419 | 2 | 41.875 | 16.592 | 32.702 | 2 |
| 2025-09-14T04:48:00 | 58.115237 | 10.028801 | 2.0 | 16.405 | 2 | 41.880 | 16.577 | 32.719 | 2 |
| 2025-09-14T04:49:00 | 58.114491 | 10.029273 | 2.0 | 16.380 | 2 | 41.886 | 16.561 | 32.737 | 2 |
| 2025-09-14T04:50:00 | 58.113784 | 10.029785 | 2.0 | 16.359 | 2 | 41.886 | 16.538 | 32.756 | 2 |
| 2025-09-14T04:51:00 | 58.113108 | 10.030370 | 2.0 | 16.331 | 2 | 41.882 | 16.516 | 32.771 | 2 |
| 2025-09-14T04:52:00 | 58.112443 | 10.031086 | 2.0 | 16.318 | 2 | 41.885 | 16.493 | 32.792 | 2 |
| 2025-09-14T04:53:00 | 58.111786 | 10.031871 | 2.0 | 16.321 | 2 | 41.904 | 16.480 | 32.819 | 2 |
| 2025-09-14T04:54:00 | 58.111125 | 10.032538 | 2.0 | 16.331 | 2 | 41.956 | 16.485 | 32.861 | 2 |
| 2025-09-14T04:55:00 | 58.110478 | 10.033152 | 2.0 | 16.338 | 2 | 41.984 | 16.493 | 32.879 | 2 |
| 2025-09-14T04:56:00 | 58.109855 | 10.033775 | 2.0 | 16.330 | 2 | 41.995 | 16.498 | 32.884 | 2 |
| 2025-09-14T04:57:00 | 58.109234 | 10.034358 | 2.0 | 16.299 | 2 | 41.990 | 16.484 | 32.891 | 2 |
| 2025-09-14T04:58:00 | 58.108615 | 10.034905 | 2.0 | 16.279 | 2 | 41.975 | 16.458 | 32.900 | 2 |
| 2025-09-14T04:59:00 | 58.108001 | 10.035386 | 2.0 | 16.263 | 2 | 41.965 | 16.439 | 32.906 | 2 |
| 2025-09-14T05:00:00 | 58.107369 | 10.035922 | 2.0 | 16.247 | 2 | 41.963 | 16.422 | 32.919 | 2 |
| 2025-09-14T05:01:00 | 58.106707 | 10.036447 | 2.0 | 16.240 | 2 | 41.962 | 16.409 | 32.929 | 2 |
| 2025-09-14T05:02:00 | 58.106041 | 10.036991 | 2.0 | 16.214 | 2 | 41.968 | 16.397 | 32.944 | 2 |
| 2025-09-14T05:03:00 | 58.105377 | 10.037540 | 2.0 | 16.206 | 2 | 41.965 | 16.374 | 32.960 | 2 |
| 2025-09-14T05:04:00 | 58.104716 | 10.038071 | 2.0 | 16.204 | 2 | 41.970 | 16.368 | 32.969 | 2 |
| 2025-09-14T05:05:00 | 58.104068 | 10.038510 | 2.0 | 16.186 | 2 | 41.981 | 16.365 | 32.982 | 2 |
| 2025-09-14T05:06:00 | 58.103450 | 10.038818 | 2.0 | 16.171 | 2 | 41.981 | 16.345 | 32.998 | 2 |
| 2025-09-14T05:07:00 | 58.102854 | 10.039088 | 2.0 | 16.162 | 2 | 41.975 | 16.331 | 33.005 | 2 |
| 2025-09-14T05:08:00 | 58.102233 | 10.039462 | 2.0 | 16.162 | 2 | 41.995 | 16.323 | 33.029 | 2 |
| 2025-09-14T05:09:00 | 58.101560 | 10.039949 | 2.0 | 16.144 | 2 | 42.028 | 16.322 | 33.059 | 2 |
| 2025-09-14T05:10:00 | 58.100847 | 10.040498 | 2.0 | 16.163 | 2 | 42.110 | 16.308 | 33.142 | 2 |
| 2025-09-14T05:11:00 | 58.100134 | 10.041068 | 2.0 | 16.165 | 2 | 42.286 | 16.323 | 33.284 | 2 |
| 2025-09-14T05:12:00 | 58.099428 | 10.041666 | 2.0 | 16.163 | 2 | 42.308 | 16.327 | 33.300 | 2 |
| 2025-09-14T05:13:00 | 58.098747 | 10.042285 | 2.0 | 16.155 | 2 | 42.303 | 16.322 | 33.300 | 2 |
| 2025-09-14T05:14:00 | 58.098073 | 10.042893 | 2.0 | 16.156 | 2 | 42.292 | 16.318 | 33.294 | 2 |
| 2025-09-14T05:15:00 | 58.097381 | 10.043514 | 2.0 | 16.163 | 2 | 42.282 | 16.319 | 33.284 | 2 |
| 2025-09-14T05:16:00 | 58.096689 | 10.044145 | 2.0 | 16.167 | 2 | 42.283 | 16.324 | 33.281 | 2 |
| 2025-09-14T05:17:00 | 58.095992 | 10.044826 | 2.0 | 16.168 | 2 | 42.284 | 16.328 | 33.279 | 2 |
| 2025-09-14T05:18:00 | 58.095296 | 10.045448 | 2.0 | 16.168 | 2 | 42.282 | 16.328 | 33.277 | 2 |
| 2025-09-14T05:19:00 | 58.094619 | 10.046007 | 2.0 | 16.169 | 2 | 42.282 | 16.329 | 33.276 | 2 |
| 2025-09-14T05:20:00 | 58.093969 | 10.046546 | 2.0 | 16.158 | 2 | 42.273 | 16.327 | 33.270 | 2 |
| 2025-09-14T05:21:00 | 58.093310 | 10.047083 | 2.0 | 16.153 | 2 | 42.267 | 16.321 | 33.269 | 2 |
| 2025-09-14T05:22:00 | 58.092657 | 10.047666 | 2.0 | 16.153 | 2 | 42.257 | 16.314 | 33.266 | 2 |
| 2025-09-14T05:23:00 | 58.091976 | 10.048177 | 2.0 | 16.152 | 2 | 42.251 | 16.314 | 33.261 | 2 |
| 2025-09-14T05:24:00 | 58.091296 | 10.048709 | 2.0 | 16.146 | 2 | 42.248 | 16.311 | 33.261 | 2 |
| 2025-09-14T05:25:00 | 58.090598 | 10.049225 | 2.0 | 16.142 | 2 | 42.246 | 16.308 | 33.262 | 2 |
| 2025-09-14T05:26:00 | 58.089898 | 10.049734 | 2.0 | 16.136 | 2 | 42.248 | 16.301 | 33.269 | 2 |
| 2025-09-14T05:27:00 | 58.089185 | 10.050226 | 2.0 | 16.140 | 2 | 42.238 | 16.297 | 33.264 | 2 |
| 2025-09-14T05:28:00 | 58.088493 | 10.050710 | 2.0 | 16.150 | 2 | 42.241 | 16.303 | 33.262 | 2 |
| 2025-09-14T05:29:00 | 58.087836 | 10.051139 | 2.0 | 16.150 | 2 | 42.254 | 16.313 | 33.265 | 2 |
| 2025-09-14T05:30:00 | 58.087193 | 10.051531 | 2.0 | 16.134 | 2 | 42.256 | 16.308 | 33.271 | 2 |
| 2025-09-14T05:31:00 | 58.086563 | 10.051986 | 2.0 | 16.109 | 2 | 42.081 | 16.292 | 33.130 | 2 |
| 2025-09-14T05:32:00 | 58.085933 | 10.052447 | 2.0 | 16.080 | 2 | 42.026 | 16.268 | 33.102 | 2 |
| 2025-09-14T05:33:00 | 58.085280 | 10.052917 | 2.0 | 16.058 | 2 | 42.156 | 16.239 | 33.240 | 2 |
| 2025-09-14T05:34:00 | 58.084607 | 10.053455 | 2.0 | 16.034 | 2 | 42.328 | 16.217 | 33.410 | 2 |
| 2025-09-14T05:35:00 | 58.083894 | 10.053933 | 2.0 | 16.024 | 2 | 42.338 | 16.194 | 33.438 | 2 |
| 2025-09-14T05:36:00 | 58.083164 | 10.054425 | 2.0 | 16.055 | 2 | 42.483 | 16.191 | 33.569 | 2 |
| 2025-09-14T05:37:00 | 58.082441 | 10.054974 | 2.0 | 16.062 | 2 | 42.613 | 16.215 | 33.663 | 2 |
| 2025-09-14T05:38:00 | 58.081734 | 10.055538 | 2.0 | 16.065 | 2 | 42.676 | 16.225 | 33.711 | 2 |
| 2025-09-14T05:39:00 | 58.081031 | 10.056092 | 2.0 | 16.067 | 2 | 42.647 | 16.227 | 33.683 | 2 |
| 2025-09-14T05:40:00 | 58.080338 | 10.056634 | 2.0 | 16.060 | 2 | 42.708 | 16.228 | 33.736 | 2 |
| 2025-09-14T05:41:00 | 58.079662 | 10.057161 | 2.0 | 16.063 | 2 | 42.682 | 16.223 | 33.718 | 2 |
| 2025-09-14T05:42:00 | 58.079016 | 10.057668 | 2.0 | 16.060 | 2 | 42.689 | 16.224 | 33.723 | 2 |
| 2025-09-14T05:43:00 | 58.078400 | 10.058211 | 2.0 | 16.055 | 2 | 42.697 | 16.221 | 33.733 | 2 |
| 2025-09-14T05:44:00 | 58.077804 | 10.058720 | 2.0 | 16.054 | 2 | 42.669 | 16.218 | 33.710 | 2 |
| 2025-09-14T05:45:00 | 58.077217 | 10.059201 | 2.0 | 16.051 | 2 | 42.657 | 16.215 | 33.702 | 2 |
| 2025-09-14T05:46:00 | 58.076646 | 10.059721 | 2.0 | 16.056 | 2 | 42.657 | 16.213 | 33.704 | 2 |
| 2025-09-14T05:47:00 | 58.076111 | 10.060267 | 2.0 | 16.050 | 2 | 42.666 | 16.217 | 33.709 | 2 |
| 2025-09-14T05:48:00 | 58.075611 | 10.060730 | 2.0 | 16.050 | 2 | 42.697 | 16.212 | 33.740 | 2 |
| 2025-09-14T05:49:00 | 58.075138 | 10.061176 | 2.0 | 16.043 | 2 | 42.685 | 16.210 | 33.731 | 2 |
| 2025-09-14T05:50:00 | 58.074658 | 10.061651 | 2.0 | 16.042 | 2 | 42.628 | 16.205 | 33.685 | 2 |
| 2025-09-14T05:51:00 | 58.074199 | 10.062174 | 2.0 | 16.043 | 2 | 42.684 | 16.205 | 33.735 | 2 |
| 2025-09-14T05:52:00 | 58.073777 | 10.062641 | 2.0 | 16.042 | 2 | 42.624 | 16.204 | 33.682 | 2 |
| 2025-09-14T05:53:00 | 58.073408 | 10.063064 | 2.0 | 16.040 | 2 | 42.656 | 16.203 | 33.712 | 2 |
| 2025-09-14T05:54:00 | 58.073092 | 10.063464 | 2.0 | 16.038 | 2 | 42.625 | 16.203 | 33.684 | 2 |
| 2025-09-14T05:55:00 | 58.072888 | 10.063389 | 2.0 | 16.044 | 2 | 42.662 | 16.208 | 33.713 | 2 |
| 2025-09-14T05:56:00 | 58.073412 | 10.062662 | 2.0 | 16.049 | 2 | 42.671 | 16.217 | 33.713 | 2 |
| 2025-09-14T05:57:00 | 58.074893 | 10.063402 | 2.0 | 16.047 | 2 | 42.707 | 16.223 | 33.740 | 2 |
| 2025-09-14T05:58:00 | 58.077252 | 10.065045 | 2.0 | 16.046 | 2 | 42.712 | 16.229 | 33.739 | 2 |
| 2025-09-14T05:59:00 | 58.079999 | 10.066598 | 2.0 | 16.051 | 2 | 42.711 | 16.229 | 33.738 | 2 |
| 2025-09-14T06:00:00 | 58.082877 | 10.067841 | 2.0 | 16.050 | 2 | 42.722 | 16.233 | 33.744 | 2 |
| 2025-09-14T06:01:00 | 58.085834 | 10.068829 | 2.0 | 16.053 | 2 | 42.746 | 16.236 | 33.763 | 2 |
| 2025-09-14T06:02:00 | 58.088812 | 10.069806 | 2.0 | 16.039 | 2 | 42.759 | 16.238 | 33.773 | 2 |
| 2025-09-14T06:03:00 | 58.091755 | 10.070752 | 2.0 | 16.054 | 2 | 42.652 | 16.221 | 33.693 | 2 |
| 2025-09-14T06:04:00 | 58.094644 | 10.071656 | 2.0 | 16.134 | 2 | 42.324 | 16.256 | 33.374 | 2 |
| 2025-09-14T06:05:00 | 58.097506 | 10.072544 | 2.0 | 16.172 | 2 | 42.250 | 16.327 | 33.249 | 2 |
| 2025-09-14T06:06:00 | 58.100376 | 10.073434 | 2.0 | 16.167 | 2 | 42.242 | 16.354 | 33.220 | 2 |
| 2025-09-14T06:07:00 | 58.103257 | 10.074338 | 2.0 | 16.158 | 2 | 42.223 | 16.352 | 33.205 | 2 |
| 2025-09-14T06:08:00 | 58.106151 | 10.075113 | 2.0 | 16.174 | 2 | 42.204 | 16.343 | 33.196 | 2 |
| 2025-09-14T06:09:00 | 58.109065 | 10.075691 | 2.0 | 16.191 | 2 | 42.177 | 16.365 | 33.154 | 2 |
| 2025-09-14T06:10:00 | 58.111981 | 10.076292 | 2.0 | 16.203 | 2 | 42.144 | 16.376 | 33.116 | 2 |
| 2025-09-14T06:11:00 | 58.114896 | 10.076949 | 2.0 | 16.201 | 2 | 42.124 | 16.387 | 33.089 | 2 |
| 2025-09-14T06:12:00 | 58.117805 | 10.077621 | 2.0 | 16.242 | 2 | 42.046 | 16.395 | 33.014 | 2 |
| 2025-09-14T06:13:00 | 58.120716 | 10.078306 | 2.0 | 16.285 | 2 | 41.969 | 16.435 | 32.913 | 2 |
| 2025-09-14T06:14:00 | 58.123632 | 10.078850 | 2.0 | 16.327 | 2 | 41.961 | 16.477 | 32.872 | 2 |
| 2025-09-14T06:15:00 | 58.126560 | 10.078708 | 2.0 | 16.362 | 2 | 41.948 | 16.515 | 32.829 | 2 |
| 2025-09-14T06:16:00 | 58.129503 | 10.078469 | 2.0 | 16.421 | 2 | 41.942 | 16.557 | 32.789 | 2 |
| 2025-09-14T06:17:00 | 58.132463 | 10.078269 | 2.0 | 16.452 | 2 | 41.955 | 16.609 | 32.758 | 2 |
| 2025-09-14T06:18:00 | 58.135433 | 10.078052 | 2.0 | 16.469 | 2 | 41.905 | 16.639 | 32.690 | 2 |
| 2025-09-14T06:19:00 | 58.138399 | 10.077884 | 2.0 | 16.485 | 2 | 41.897 | 16.657 | 32.668 | 2 |
| 2025-09-14T06:20:00 | 58.141367 | 10.077725 | 2.0 | 16.495 | 2 | 41.898 | 16.672 | 32.657 | 2 |
| 2025-09-14T06:21:00 | 58.144306 | 10.077565 | 2.0 | 16.493 | 2 | 41.901 | 16.680 | 32.653 | 2 |
| 2025-09-14T06:22:00 | 58.147228 | 10.077405 | 2.0 | 16.490 | 2 | 41.894 | 16.678 | 32.649 | 2 |
| 2025-09-14T06:23:00 | 58.150173 | 10.077242 | 2.0 | 16.501 | 2 | 41.887 | 16.678 | 32.643 | 2 |
| 2025-09-14T06:24:00 | 58.153110 | 10.077110 | 2.0 | 16.510 | 2 | 41.889 | 16.689 | 32.635 | 2 |
| 2025-09-14T06:25:00 | 58.156039 | 10.077257 | 2.0 | 16.514 | 2 | 41.886 | 16.696 | 32.627 | 2 |
| 2025-09-14T06:26:00 | 58.158978 | 10.077400 | 2.0 | 16.511 | 2 | 41.875 | 16.700 | 32.614 | 2 |
| 2025-09-14T06:27:00 | 58.161930 | 10.077529 | 2.0 | 16.505 | 2 | 41.863 | 16.697 | 32.606 | 2 |
| 2025-09-14T06:28:00 | 58.164891 | 10.077676 | 2.0 | 16.499 | 2 | 41.859 | 16.692 | 32.607 | 2 |
| 2025-09-14T06:29:00 | 58.167848 | 10.077925 | 2.0 | 16.490 | 2 | 41.859 | 16.686 | 32.612 | 2 |
| 2025-09-14T06:30:00 | 58.170802 | 10.078257 | 2.0 | 16.477 | 2 | 41.856 | 16.678 | 32.616 | 2 |
| 2025-09-14T06:31:00 | 58.173625 | 10.078892 | 2.0 | 16.462 | 2 | 41.862 | 16.666 | 32.631 | 2 |
| 2025-09-14T06:32:00 | 58.176345 | 10.079504 | 2.0 | 16.439 | 2 | 41.862 | 16.648 | 32.645 | 2 |
| 2025-09-14T06:33:00 | 58.179007 | 10.080099 | 2.0 | 16.446 | 2 | 41.855 | 16.628 | 32.655 | 2 |
| 2025-09-14T06:34:00 | 58.181587 | 10.080668 | 2.0 | 16.476 | 2 | 41.873 | 16.641 | 32.661 | 2 |
| 2025-09-14T06:35:00 | 58.183741 | 10.081328 | 2.0 | 16.472 | 2 | 41.885 | 16.664 | 32.652 | 2 |
| 2025-09-14T06:36:00 | 58.185442 | 10.082152 | 2.0 | 16.470 | 2 | 41.856 | 16.659 | 32.631 | 2 |
| 2025-09-14T06:37:00 | 58.186747 | 10.083240 | 2.0 | 16.468 | 2 | 41.846 | 16.658 | 32.623 | 2 |
| 2025-09-14T06:38:00 | 58.187698 | 10.084664 | 2.0 | 16.467 | 2 | 41.841 | 16.656 | 32.620 | 2 |
| 2025-09-14T06:39:00 | 58.188498 | 10.086192 | 2.0 | 16.467 | 2 | 41.836 | 16.655 | 32.617 | 2 |
| 2025-09-14T06:40:00 | 58.188946 | 10.087705 | 2.0 | 16.468 | 2 | 41.834 | 16.654 | 32.616 | 2 |
| 2025-09-14T06:41:00 | 58.189009 | 10.088667 | 2.0 | 16.466 | 2 | 41.839 | 16.653 | 32.621 | 2 |
| 2025-09-14T06:42:00 | 58.189036 | 10.089068 | 2.0 | 16.466 | 2 | 41.842 | 16.653 | 32.624 | 2 |
| 2025-09-14T06:43:00 | 58.189196 | 10.089196 | 2.0 | 16.467 | 2 | 41.843 | 16.654 | 32.624 | 2 |
| 2025-09-14T06:44:00 | 58.189280 | 10.089148 | 2.0 | 16.460 | 2 | 41.844 | 16.655 | 32.624 | 2 |
| 2025-09-14T06:45:00 | 58.189344 | 10.089056 | 2.0 | 16.461 | 2 | 41.840 | 16.651 | 32.624 | 2 |
| 2025-09-14T06:46:00 | 58.189053 | 10.089196 | 2.0 | 16.466 | 2 | 41.842 | 16.652 | 32.625 | 2 |
| 2025-09-14T06:47:00 | 58.188899 | 10.090396 | 2.0 | 16.467 | 2 | 41.853 | 16.659 | 32.628 | 2 |
| 2025-09-14T06:48:00 | 58.188789 | 10.092184 | 2.0 | 16.472 | 2 | 41.861 | 16.661 | 32.634 | 2 |
| 2025-09-14T06:49:00 | 58.188631 | 10.094109 | 2.0 | 16.472 | 2 | 41.871 | 16.665 | 32.639 | 2 |
| 2025-09-14T06:50:00 | 58.188344 | 10.095676 | 2.0 | 16.477 | 2 | 41.878 | 16.665 | 32.645 | 2 |
| 2025-09-14T06:51:00 | 58.188143 | 10.096217 | 2.0 | 16.478 | 2 | 41.888 | 16.668 | 32.652 | 2 |
| 2025-09-14T06:52:00 | 58.188256 | 10.096098 | 2.0 | 16.470 | 2 | 41.892 | 16.668 | 32.655 | 2 |
| 2025-09-14T06:53:00 | 58.188575 | 10.096025 | 2.0 | 16.470 | 2 | 41.887 | 16.664 | 32.654 | 2 |
| 2025-09-14T06:54:00 | 58.188810 | 10.095724 | 2.0 | 16.471 | 2 | 41.885 | 16.662 | 32.654 | 2 |
| 2025-09-14T06:55:00 | 58.189346 | 10.095426 | 2.0 | 16.474 | 2 | 41.881 | 16.663 | 32.650 | 2 |
| 2025-09-14T06:56:00 | 58.189957 | 10.096283 | 2.0 | 16.471 | 2 | 41.881 | 16.667 | 32.646 | 2 |
| 2025-09-14T06:57:00 | 58.190510 | 10.097838 | 2.0 | 16.470 | 2 | 41.874 | 16.665 | 32.642 | 2 |
| 2025-09-14T06:58:00 | 58.190968 | 10.099835 | 2.0 | 16.467 | 2 | 41.874 | 16.665 | 32.642 | 2 |
| 2025-09-14T06:59:00 | 58.191329 | 10.101843 | 2.0 | 16.467 | 2 | 41.873 | 16.662 | 32.643 | 2 |
| 2025-09-14T07:00:00 | 58.191545 | 10.103444 | 2.0 | 16.461 | 2 | 41.872 | 16.660 | 32.644 | 2 |
| 2025-09-14T07:01:00 | 58.191862 | 10.104908 | 2.0 | 16.462 | 2 | 41.867 | 16.655 | 32.644 | 2 |
| 2025-09-14T07:02:00 | 58.192032 | 10.106037 | 2.0 | 16.465 | 2 | 41.870 | 16.657 | 32.645 | 2 |
| 2025-09-14T07:03:00 | 58.192013 | 10.106594 | 2.0 | 16.465 | 2 | 41.875 | 16.659 | 32.648 | 2 |
| 2025-09-14T07:04:00 | 58.192131 | 10.106882 | 2.0 | 16.462 | 2 | 41.875 | 16.660 | 32.647 | 2 |
| 2025-09-14T07:05:00 | 58.192230 | 10.106875 | 2.0 | 16.461 | 2 | 41.874 | 16.658 | 32.648 | 2 |
| 2025-09-14T07:06:00 | 58.192501 | 10.106789 | 2.0 | 16.461 | 2 | 41.876 | 16.658 | 32.649 | 2 |
| 2025-09-14T07:07:00 | 58.192628 | 10.106596 | 2.0 | 16.462 | 2 | 41.877 | 16.660 | 32.649 | 2 |
| 2025-09-14T07:08:00 | 58.192524 | 10.106466 | 2.0 | 16.466 | 2 | 41.880 | 16.663 | 32.649 | 2 |
| 2025-09-14T07:09:00 | 58.192200 | 10.106427 | 2.0 | 16.466 | 2 | 41.883 | 16.665 | 32.650 | 2 |
| 2025-09-14T07:10:00 | 58.191787 | 10.106464 | 2.0 | 16.463 | 2 | 41.888 | 16.664 | 32.655 | 2 |
| 2025-09-14T07:11:00 | 58.191479 | 10.106464 | 2.0 | 16.465 | 2 | 41.894 | 16.662 | 32.662 | 2 |
| 2025-09-14T07:12:00 | 58.191170 | 10.106426 | 2.0 | 16.469 | 2 | 41.904 | 16.666 | 32.667 | 2 |
| 2025-09-14T07:13:00 | 58.190787 | 10.106236 | 2.0 | 16.467 | 2 | 41.912 | 16.667 | 32.673 | 2 |
| 2025-09-14T07:14:00 | 58.190540 | 10.106121 | 2.0 | 16.468 | 2 | 41.919 | 16.665 | 32.681 | 2 |
| 2025-09-14T07:15:00 | 58.190299 | 10.105993 | 2.0 | 16.468 | 2 | 41.928 | 16.667 | 32.687 | 2 |
| 2025-09-14T07:16:00 | 58.190019 | 10.106378 | 2.0 | 16.468 | 2 | 41.935 | 16.667 | 32.693 | 2 |
| 2025-09-14T07:17:00 | 58.189641 | 10.107416 | 2.0 | 16.456 | 2 | 41.945 | 16.667 | 32.702 | 2 |
| 2025-09-14T07:18:00 | 58.189135 | 10.108704 | 2.0 | 16.436 | 2 | 41.932 | 16.650 | 32.705 | 2 |
| 2025-09-14T07:19:00 | 58.188652 | 10.109982 | 2.0 | 16.427 | 2 | 41.916 | 16.636 | 32.702 | 2 |
| 2025-09-14T07:20:00 | 58.188458 | 10.111315 | 2.0 | 16.420 | 2 | 41.899 | 16.622 | 32.699 | 2 |
| 2025-09-14T07:21:00 | 58.188525 | 10.112728 | 2.0 | 16.420 | 2 | 41.893 | 16.620 | 32.695 | 2 |
| 2025-09-14T07:22:00 | 58.188618 | 10.113961 | 2.0 | 16.414 | 2 | 41.886 | 16.617 | 32.691 | 2 |
| 2025-09-14T07:23:00 | 58.188608 | 10.114659 | 2.0 | 16.413 | 2 | 41.878 | 16.613 | 32.688 | 2 |
| 2025-09-14T07:24:00 | 58.188551 | 10.114779 | 2.0 | 16.414 | 2 | 41.874 | 16.611 | 32.686 | 2 |
| 2025-09-14T07:25:00 | 58.188479 | 10.114700 | 2.0 | 16.407 | 2 | 41.870 | 16.612 | 32.682 | 2 |
| 2025-09-14T07:26:00 | 58.188544 | 10.114850 | 2.0 | 16.410 | 2 | 41.856 | 16.607 | 32.673 | 2 |
| 2025-09-14T07:27:00 | 58.188530 | 10.114916 | 2.0 | 16.411 | 2 | 41.854 | 16.608 | 32.671 | 2 |
| 2025-09-14T07:28:00 | 58.188807 | 10.114337 | 2.0 | 16.411 | 2 | 41.858 | 16.610 | 32.673 | 2 |
| 2025-09-14T07:29:00 | 58.189083 | 10.113096 | 2.0 | 16.411 | 2 | 41.859 | 16.611 | 32.673 | 2 |
| 2025-09-14T07:30:00 | 58.189179 | 10.111348 | 2.0 | 16.420 | 2 | 41.866 | 16.613 | 32.677 | 2 |
| 2025-09-14T07:31:00 | 58.189161 | 10.109295 | 2.0 | 16.419 | 2 | 41.879 | 16.618 | 32.685 | 2 |
| 2025-09-14T07:32:00 | 58.189291 | 10.107079 | 2.0 | 16.420 | 2 | 41.868 | 16.618 | 32.675 | 2 |
| 2025-09-14T07:33:00 | 58.189609 | 10.104689 | 2.0 | 16.425 | 2 | 41.870 | 16.622 | 32.673 | 2 |
| 2025-09-14T07:34:00 | 58.189938 | 10.102198 | 2.0 | 16.429 | 2 | 41.874 | 16.624 | 32.675 | 2 |
| 2025-09-14T07:35:00 | 58.190581 | 10.099859 | 2.0 | 16.455 | 2 | 41.877 | 16.631 | 32.672 | 2 |
| 2025-09-14T07:36:00 | 58.191740 | 10.098269 | 2.0 | 16.470 | 2 | 41.907 | 16.658 | 32.676 | 2 |
| 2025-09-14T07:37:00 | 58.192800 | 10.097122 | 2.0 | 16.474 | 2 | 41.904 | 16.669 | 32.665 | 2 |
| 2025-09-14T07:38:00 | 58.193522 | 10.096232 | 2.0 | 16.476 | 2 | 41.891 | 16.671 | 32.652 | 2 |
| 2025-09-14T07:39:00 | 58.194106 | 10.095440 | 2.0 | 16.470 | 2 | 41.884 | 16.672 | 32.645 | 2 |
| 2025-09-14T07:40:00 | 58.194815 | 10.095752 | 2.0 | 16.470 | 2 | 41.862 | 16.668 | 32.629 | 2 |
| 2025-09-14T07:41:00 | 58.195399 | 10.097310 | 2.0 | 16.470 | 2 | 41.864 | 16.671 | 32.628 | 2 |
| 2025-09-14T07:42:00 | 58.195709 | 10.098921 | 2.0 | 16.470 | 2 | 41.871 | 16.670 | 32.635 | 2 |
| 2025-09-14T07:43:00 | 58.195757 | 10.100206 | 2.0 | 16.472 | 2 | 41.878 | 16.672 | 32.640 | 2 |
| 2025-09-14T07:44:00 | 58.195661 | 10.101008 | 2.0 | 16.473 | 2 | 41.885 | 16.672 | 32.646 | 2 |
| 2025-09-14T07:45:00 | 58.195625 | 10.101219 | 2.0 | 16.474 | 2 | 41.891 | 16.674 | 32.649 | 2 |
| 2025-09-14T07:46:00 | 58.195682 | 10.101272 | 2.0 | 16.475 | 2 | 41.896 | 16.675 | 32.653 | 2 |
| 2025-09-14T07:47:00 | 58.195587 | 10.101211 | 2.0 | 16.473 | 2 | 41.896 | 16.674 | 32.654 | 2 |
| 2025-09-14T07:48:00 | 58.195435 | 10.100553 | 2.0 | 16.471 | 2 | 41.894 | 16.672 | 32.654 | 2 |
| 2025-09-14T07:49:00 | 58.195014 | 10.099096 | 2.0 | 16.478 | 2 | 41.889 | 16.672 | 32.649 | 2 |
| 2025-09-14T07:50:00 | 58.194364 | 10.097185 | 2.0 | 16.479 | 2 | 41.893 | 16.678 | 32.648 | 2 |
| 2025-09-14T07:51:00 | 58.193586 | 10.095034 | 2.0 | 16.480 | 2 | 41.897 | 16.682 | 32.648 | 2 |
| 2025-09-14T07:52:00 | 58.192861 | 10.092990 | 2.0 | 16.479 | 2 | 41.901 | 16.682 | 32.651 | 2 |
| 2025-09-14T07:53:00 | 58.192195 | 10.091083 | 2.0 | 16.486 | 2 | 41.915 | 16.683 | 32.663 | 2 |
| 2025-09-14T07:54:00 | 58.191556 | 10.089252 | 2.0 | 16.478 | 2 | 41.928 | 16.685 | 32.673 | 2 |
| 2025-09-14T07:55:00 | 58.190964 | 10.087581 | 2.0 | 16.485 | 2 | 41.930 | 16.682 | 32.677 | 2 |
| 2025-09-14T07:56:00 | 58.190408 | 10.087166 | 2.0 | 16.482 | 2 | 41.939 | 16.687 | 32.680 | 2 |
| 2025-09-14T07:57:00 | 58.190057 | 10.087304 | 2.0 | 16.480 | 2 | 41.938 | 16.681 | 32.684 | 2 |
| 2025-09-14T07:58:00 | 58.190071 | 10.087452 | 2.0 | 16.479 | 2 | 41.943 | 16.681 | 32.689 | 2 |
| 2025-09-14T07:59:00 | 58.190021 | 10.087561 | 2.0 | 16.469 | 2 | 41.942 | 16.677 | 32.691 | 2 |
| 2025-09-14T08:00:00 | 58.190074 | 10.086813 | 2.0 | 16.470 | 2 | 41.936 | 16.670 | 32.692 | 2 |
| 2025-09-14T08:01:00 | 58.190408 | 10.085814 | 2.0 | 16.477 | 2 | 41.935 | 16.672 | 32.689 | 2 |
| 2025-09-14T08:02:00 | 58.190863 | 10.085085 | 2.0 | 16.480 | 2 | 41.938 | 16.680 | 32.685 | 2 |
| 2025-09-14T08:03:00 | 58.191141 | 10.084566 | 2.0 | 16.475 | 2 | 41.937 | 16.681 | 32.684 | 2 |
| 2025-09-14T08:04:00 | 58.191416 | 10.084099 | 2.0 | 16.479 | 2 | 41.933 | 16.678 | 32.683 | 2 |
| 2025-09-14T08:05:00 | 58.191710 | 10.083870 | 2.0 | 16.480 | 2 | 41.933 | 16.679 | 32.682 | 2 |
| 2025-09-14T08:06:00 | 58.191938 | 10.083445 | 2.0 | 16.478 | 2 | 41.933 | 16.681 | 32.680 | 2 |
| 2025-09-14T08:07:00 | 58.192317 | 10.082868 | 2.0 | 16.486 | 2 | 41.928 | 16.679 | 32.677 | 2 |
| 2025-09-14T08:08:00 | 58.193250 | 10.082802 | 2.0 | 16.490 | 2 | 41.930 | 16.690 | 32.670 | 2 |
| 2025-09-14T08:09:00 | 58.194262 | 10.082823 | 2.0 | 16.490 | 2 | 41.922 | 16.692 | 32.662 | 2 |
| 2025-09-14T08:10:00 | 58.195247 | 10.082860 | 2.0 | 16.488 | 2 | 41.911 | 16.692 | 32.652 | 2 |
| 2025-09-14T08:11:00 | 58.196178 | 10.082920 | 2.0 | 16.485 | 2 | 41.900 | 16.689 | 32.645 | 2 |
| 2025-09-14T08:12:00 | 58.196914 | 10.083619 | 2.0 | 16.487 | 2 | 41.892 | 16.688 | 32.639 | 2 |
| 2025-09-14T08:13:00 | 58.197380 | 10.084632 | 2.0 | 16.487 | 2 | 41.889 | 16.688 | 32.636 | 2 |
| 2025-09-14T08:14:00 | 58.197692 | 10.086052 | 2.0 | 16.485 | 2 | 41.888 | 16.688 | 32.635 | 2 |
| 2025-09-14T08:15:00 | 58.198179 | 10.086944 | 2.0 | 16.480 | 2 | 41.886 | 16.685 | 32.636 | 2 |
| 2025-09-14T08:16:00 | 58.198709 | 10.087361 | 2.0 | 16.482 | 2 | 41.881 | 16.681 | 32.635 | 2 |
| 2025-09-14T08:17:00 | 58.199105 | 10.087670 | 2.0 | 16.484 | 2 | 41.882 | 16.685 | 32.633 | 2 |
| 2025-09-14T08:18:00 | 58.199438 | 10.088168 | 2.0 | 16.482 | 2 | 41.883 | 16.686 | 32.633 | 2 |
| 2025-09-14T08:19:00 | 58.199789 | 10.088555 | 2.0 | 16.480 | 2 | 41.882 | 16.685 | 32.633 | 2 |
| 2025-09-14T08:20:00 | 58.200039 | 10.088460 | 2.0 | 16.480 | 2 | 41.880 | 16.683 | 32.632 | 2 |
| 2025-09-14T08:21:00 | 58.200432 | 10.088017 | 2.0 | 16.483 | 2 | 41.877 | 16.681 | 32.631 | 2 |
| 2025-09-14T08:22:00 | 58.201230 | 10.088777 | 2.0 | 16.484 | 2 | 41.873 | 16.685 | 32.625 | 2 |
| 2025-09-14T08:23:00 | 58.202031 | 10.090958 | 2.0 | 16.487 | 2 | 41.876 | 16.687 | 32.626 | 2 |
| 2025-09-14T08:24:00 | 58.202892 | 10.093880 | 2.0 | 16.491 | 2 | 41.883 | 16.692 | 32.628 | 2 |
| 2025-09-14T08:25:00 | 58.203827 | 10.097135 | 2.0 | 16.488 | 2 | 41.886 | 16.695 | 32.628 | 2 |
| 2025-09-14T08:26:00 | 58.204733 | 10.100630 | 2.0 | 16.477 | 2 | 41.878 | 16.692 | 32.623 | 2 |
| 2025-09-14T08:27:00 | 58.205556 | 10.104257 | 2.0 | 16.479 | 2 | 41.859 | 16.683 | 32.614 | 2 |
| 2025-09-14T08:28:00 | 58.206374 | 10.107987 | 2.0 | 16.500 | 2 | 41.856 | 16.683 | 32.612 | 2 |
| 2025-09-14T08:29:00 | 58.207203 | 10.111724 | 2.0 | 16.507 | 2 | 41.878 | 16.711 | 32.608 | 2 |
| 2025-09-14T08:30:00 | 58.207938 | 10.115016 | 2.0 | 16.492 | 2 | 41.878 | 16.707 | 32.611 | 2 |
| 2025-09-14T08:31:00 | 58.208605 | 10.117856 | 2.0 | 16.485 | 2 | 41.867 | 16.693 | 32.613 | 2 |
| 2025-09-14T08:32:00 | 58.209229 | 10.120469 | 2.0 | 16.487 | 2 | 41.868 | 16.690 | 32.616 | 2 |
| 2025-09-14T08:33:00 | 58.209836 | 10.122930 | 2.0 | 16.477 | 2 | 41.872 | 16.687 | 32.622 | 2 |
| 2025-09-14T08:34:00 | 58.210436 | 10.125293 | 2.0 | 16.475 | 2 | 41.868 | 16.679 | 32.625 | 2 |
| 2025-09-14T08:35:00 | 58.211031 | 10.127584 | 2.0 | 16.478 | 2 | 41.870 | 16.678 | 32.628 | 2 |
| 2025-09-14T08:36:00 | 58.211598 | 10.129764 | 2.0 | 16.477 | 2 | 41.873 | 16.680 | 32.629 | 2 |
| 2025-09-14T08:37:00 | 58.212129 | 10.131689 | 2.0 | 16.473 | 2 | 41.869 | 16.679 | 32.626 | 2 |
| 2025-09-14T08:38:00 | 58.212623 | 10.133369 | 2.0 | 16.479 | 2 | 41.863 | 16.676 | 32.623 | 2 |
| 2025-09-14T08:39:00 | 58.213093 | 10.134831 | 2.0 | 16.504 | 2 | 41.867 | 16.687 | 32.618 | 2 |
| 2025-09-14T08:40:00 | 58.213543 | 10.136100 | 2.0 | 16.503 | 2 | 41.883 | 16.704 | 32.618 | 2 |
| 2025-09-14T08:41:00 | 58.213935 | 10.137179 | 2.0 | 16.507 | 2 | 41.884 | 16.705 | 32.618 | 2 |
| 2025-09-14T08:42:00 | 58.214272 | 10.138038 | 2.0 | 16.507 | 2 | 41.886 | 16.709 | 32.616 | 2 |
| 2025-09-14T08:43:00 | 58.214587 | 10.138712 | 2.0 | 16.502 | 2 | 41.886 | 16.707 | 32.618 | 2 |
| 2025-09-14T08:44:00 | 58.214926 | 10.139256 | 2.0 | 16.499 | 2 | 41.882 | 16.703 | 32.618 | 2 |
| 2025-09-14T08:45:00 | 58.215270 | 10.139708 | 2.0 | 16.497 | 2 | 41.880 | 16.701 | 32.618 | 2 |
| 2025-09-14T08:46:00 | 58.215648 | 10.140226 | 2.0 | 16.496 | 2 | 41.875 | 16.698 | 32.616 | 2 |
| 2025-09-14T08:47:00 | 58.215971 | 10.140852 | 2.0 | 16.493 | 2 | 41.874 | 16.696 | 32.617 | 2 |
| 2025-09-14T08:48:00 | 58.216055 | 10.141454 | 2.0 | 16.487 | 2 | 41.868 | 16.692 | 32.615 | 2 |
| 2025-09-14T08:49:00 | 58.215709 | 10.141855 | 2.0 | 16.490 | 2 | 41.865 | 16.689 | 32.614 | 2 |
| 2025-09-14T08:50:00 | 58.215222 | 10.142191 | 2.0 | 16.489 | 2 | 41.873 | 16.691 | 32.620 | 2 |
| 2025-09-14T08:51:00 | 58.214723 | 10.142530 | 2.0 | 16.483 | 2 | 41.875 | 16.688 | 32.624 | 2 |
| 2025-09-14T08:52:00 | 58.214131 | 10.141848 | 2.0 | 16.470 | 2 | 41.868 | 16.679 | 32.625 | 2 |
| 2025-09-14T08:53:00 | 58.213718 | 10.140959 | 2.0 | 16.472 | 2 | 41.865 | 16.673 | 32.627 | 2 |
| 2025-09-14T08:54:00 | 58.213372 | 10.140877 | 2.0 | 16.472 | 2 | 41.873 | 16.675 | 32.633 | 2 |
| 2025-09-14T08:55:00 | 58.213164 | 10.140915 | 2.0 | 16.470 | 2 | 41.878 | 16.674 | 32.638 | 2 |
| 2025-09-14T08:56:00 | 58.213083 | 10.140992 | 2.0 | 16.467 | 2 | 41.878 | 16.669 | 32.642 | 2 |
| 2025-09-14T08:57:00 | 58.212963 | 10.140556 | 2.0 | 16.466 | 2 | 41.877 | 16.666 | 32.644 | 2 |
| 2025-09-14T08:58:00 | 58.213347 | 10.139075 | 2.0 | 16.469 | 2 | 41.877 | 16.666 | 32.644 | 2 |
| 2025-09-14T08:59:00 | 58.214128 | 10.136408 | 2.0 | 16.472 | 2 | 41.877 | 16.671 | 32.640 | 2 |
| 2025-09-14T09:00:00 | 58.215080 | 10.132817 | 2.0 | 16.485 | 2 | 41.874 | 16.676 | 32.633 | 2 |
| 2025-09-14T09:01:00 | 58.216142 | 10.128671 | 2.0 | 16.493 | 2 | 41.866 | 16.686 | 32.618 | 2 |
| 2025-09-14T09:02:00 | 58.217222 | 10.124373 | 2.0 | 16.536 | 2 | 41.844 | 16.702 | 32.586 | 2 |
| 2025-09-14T09:03:00 | 58.218324 | 10.120019 | 2.0 | 16.563 | 2 | 41.849 | 16.746 | 32.554 | 2 |
| 2025-09-14T09:04:00 | 58.219432 | 10.115671 | 2.0 | 16.570 | 2 | 41.853 | 16.765 | 32.542 | 2 |
| 2025-09-14T09:05:00 | 58.220523 | 10.111291 | 2.0 | 16.551 | 2 | 41.852 | 16.766 | 32.541 | 2 |
| 2025-09-14T09:06:00 | 58.221617 | 10.106907 | 2.0 | 16.560 | 2 | 41.850 | 16.756 | 32.547 | 2 |
| 2025-09-14T09:07:00 | 58.222701 | 10.102524 | 2.0 | 16.571 | 2 | 41.851 | 16.762 | 32.543 | 2 |
| 2025-09-14T09:08:00 | 58.223788 | 10.098150 | 2.0 | 16.620 | 2 | 41.836 | 16.783 | 32.513 | 2 |
| 2025-09-14T09:09:00 | 58.224809 | 10.093992 | 2.0 | 16.619 | 2 | 41.838 | 16.821 | 32.484 | 2 |
| 2025-09-14T09:10:00 | 58.225659 | 10.090744 | 2.0 | 16.631 | 2 | 41.827 | 16.822 | 32.474 | 2 |
| 2025-09-14T09:11:00 | 58.225589 | 10.089452 | 2.0 | 16.632 | 2 | 41.825 | 16.831 | 32.465 | 2 |
| 2025-09-14T09:12:00 | 58.225367 | 10.089388 | 2.0 | 16.632 | 2 | 41.826 | 16.832 | 32.465 | 2 |
| 2025-09-14T09:13:00 | 58.225152 | 10.089191 | 2.0 | 16.632 | 2 | 41.829 | 16.832 | 32.467 | 2 |
| 2025-09-14T09:14:00 | 58.224954 | 10.089252 | 2.0 | 16.634 | 2 | 41.831 | 16.832 | 32.469 | 2 |
| 2025-09-14T09:15:00 | 58.224814 | 10.089331 | 2.0 | 16.633 | 2 | 41.835 | 16.833 | 32.472 | 2 |
| 2025-09-14T09:16:00 | 58.224731 | 10.089333 | 2.0 | 16.630 | 2 | 41.835 | 16.831 | 32.473 | 2 |
| 2025-09-14T09:17:00 | 58.224674 | 10.089401 | 2.0 | 16.628 | 2 | 41.836 | 16.830 | 32.475 | 2 |
| 2025-09-14T09:18:00 | 58.224713 | 10.089483 | 2.0 | 16.627 | 2 | 41.835 | 16.827 | 32.476 | 2 |
| 2025-09-14T09:19:00 | 58.224845 | 10.089622 | 2.0 | 16.628 | 2 | 41.835 | 16.826 | 32.477 | 2 |
| 2025-09-14T09:20:00 | 58.225026 | 10.089869 | 2.0 | 16.628 | 2 | 41.837 | 16.828 | 32.477 | 2 |
| 2025-09-14T09:21:00 | 58.225249 | 10.090138 | 2.0 | 16.629 | 2 | 41.837 | 16.828 | 32.477 | 2 |
| 2025-09-14T09:22:00 | 58.225511 | 10.090426 | 2.0 | 16.631 | 2 | 41.838 | 16.830 | 32.477 | 2 |
| 2025-09-14T09:23:00 | 58.225757 | 10.090743 | 2.0 | 16.632 | 2 | 41.840 | 16.833 | 32.476 | 2 |
| 2025-09-14T09:24:00 | 58.226013 | 10.090986 | 2.0 | 16.634 | 2 | 41.841 | 16.835 | 32.475 | 2 |
| 2025-09-14T09:25:00 | 58.226194 | 10.091189 | 2.0 | 16.631 | 2 | 41.840 | 16.836 | 32.474 | 2 |
| 2025-09-14T09:26:00 | 58.226217 | 10.091390 | 2.0 | 16.628 | 2 | 41.837 | 16.833 | 32.473 | 2 |
| 2025-09-14T09:27:00 | 58.226228 | 10.091653 | 2.0 | 16.628 | 2 | 41.836 | 16.831 | 32.474 | 2 |
| 2025-09-14T09:28:00 | 58.226243 | 10.091944 | 2.0 | 16.627 | 2 | 41.836 | 16.830 | 32.475 | 2 |
| 2025-09-14T09:29:00 | 58.226259 | 10.092220 | 2.0 | 16.625 | 2 | 41.836 | 16.829 | 32.476 | 2 |
| 2025-09-14T09:30:00 | 58.226258 | 10.092423 | 2.0 | 16.624 | 2 | 41.835 | 16.826 | 32.477 | 2 |
| 2025-09-14T09:31:00 | 58.226199 | 10.092555 | 2.0 | 16.621 | 2 | 41.836 | 16.825 | 32.479 | 2 |
| 2025-09-14T09:32:00 | 58.226255 | 10.092704 | 2.0 | 16.617 | 2 | 41.835 | 16.823 | 32.480 | 2 |
| 2025-09-14T09:33:00 | 58.226346 | 10.092828 | 2.0 | 16.614 | 2 | 41.834 | 16.820 | 32.481 | 2 |
| 2025-09-14T09:34:00 | 58.226459 | 10.092893 | 2.0 | 16.613 | 2 | 41.833 | 16.817 | 32.483 | 2 |
| 2025-09-14T09:35:00 | 58.226411 | 10.092962 | 2.0 | 16.612 | 2 | 41.833 | 16.817 | 32.483 | 2 |
| 2025-09-14T09:36:00 | 58.226120 | 10.093217 | 2.0 | 16.606 | 2 | 41.834 | 16.814 | 32.486 | 2 |
| 2025-09-14T09:37:00 | 58.225425 | 10.093548 | 2.0 | 16.598 | 2 | 41.834 | 16.807 | 32.492 | 2 |
| 2025-09-14T09:38:00 | 58.224325 | 10.093797 | 2.0 | 16.587 | 2 | 41.843 | 16.800 | 32.505 | 2 |
| 2025-09-14T09:39:00 | 58.223019 | 10.094048 | 2.0 | 16.573 | 2 | 41.853 | 16.789 | 32.523 | 2 |
| 2025-09-14T09:40:00 | 58.221601 | 10.094307 | 2.0 | 16.573 | 2 | 41.863 | 16.778 | 32.540 | 2 |
| 2025-09-14T09:41:00 | 58.220056 | 10.094575 | 2.0 | 16.559 | 2 | 41.877 | 16.775 | 32.555 | 2 |
| 2025-09-14T09:42:00 | 58.218062 | 10.094748 | 2.0 | 16.557 | 2 | 41.887 | 16.765 | 32.572 | 2 |
| 2025-09-14T09:43:00 | 58.215829 | 10.094658 | 2.0 | 16.541 | 2 | 41.905 | 16.759 | 32.592 | 2 |
| 2025-09-14T09:44:00 | 58.213412 | 10.094647 | 2.0 | 16.527 | 2 | 41.906 | 16.743 | 32.606 | 2 |
| 2025-09-14T09:45:00 | 58.210906 | 10.094677 | 2.0 | 16.535 | 2 | 41.899 | 16.736 | 32.606 | 2 |
| 2025-09-14T09:46:00 | 58.208375 | 10.094856 | 2.0 | 16.531 | 2 | 41.914 | 16.741 | 32.615 | 2 |
| 2025-09-14T09:47:00 | 58.205839 | 10.095078 | 2.0 | 16.524 | 2 | 41.923 | 16.736 | 32.627 | 2 |
| 2025-09-14T09:48:00 | 58.203295 | 10.095199 | 2.0 | 16.527 | 2 | 41.933 | 16.730 | 32.640 | 2 |
| 2025-09-14T09:49:00 | 58.200771 | 10.095371 | 2.0 | 16.516 | 2 | 41.952 | 16.734 | 32.653 | 2 |
| 2025-09-14T09:50:00 | 58.198257 | 10.095588 | 2.0 | 16.499 | 2 | 41.935 | 16.716 | 32.653 | 2 |
| 2025-09-14T09:51:00 | 58.195745 | 10.095799 | 2.0 | 16.503 | 2 | 41.903 | 16.706 | 32.634 | 2 |
| 2025-09-14T09:52:00 | 58.193217 | 10.095977 | 2.0 | 16.505 | 2 | 41.892 | 16.708 | 32.622 | 2 |
| 2025-09-14T09:53:00 | 58.190681 | 10.096340 | 2.0 | 16.510 | 2 | 41.882 | 16.711 | 32.611 | 2 |
| 2025-09-14T09:54:00 | 58.188175 | 10.096725 | 2.0 | 16.516 | 2 | 41.878 | 16.718 | 32.602 | 2 |
| 2025-09-14T09:55:00 | 58.185654 | 10.097078 | 2.0 | 16.527 | 2 | 41.874 | 16.723 | 32.595 | 2 |
| 2025-09-14T09:56:00 | 58.183138 | 10.097482 | 2.0 | 16.541 | 2 | 41.879 | 16.734 | 32.590 | 2 |
| 2025-09-14T09:57:00 | 58.180625 | 10.098192 | 2.0 | 16.549 | 2 | 41.892 | 16.747 | 32.591 | 2 |
| 2025-09-14T09:58:00 | 58.178165 | 10.099044 | 2.0 | 16.549 | 2 | 41.903 | 16.754 | 32.595 | 2 |
| 2025-09-14T09:59:00 | 58.175937 | 10.100139 | 2.0 | 16.539 | 2 | 41.909 | 16.753 | 32.601 | 2 |
| 2025-09-14T10:00:00 | 58.174110 | 10.101168 | 2.0 | 16.532 | 2 | 41.906 | 16.742 | 32.607 | 2 |
| 2025-09-14T10:01:00 | 58.172735 | 10.102387 | 2.0 | 16.534 | 2 | 41.909 | 16.737 | 32.614 | 2 |
| 2025-09-14T10:02:00 | 58.171708 | 10.103422 | 2.0 | 16.521 | 2 | 41.920 | 16.735 | 32.625 | 2 |
| 2025-09-14T10:03:00 | 58.171043 | 10.104148 | 2.0 | 16.519 | 2 | 41.919 | 16.723 | 32.634 | 2 |
| 2025-09-14T10:04:00 | 58.170745 | 10.104660 | 2.0 | 16.518 | 2 | 41.922 | 16.722 | 32.637 | 2 |
| 2025-09-14T10:05:00 | 58.170681 | 10.104987 | 2.0 | 16.518 | 2 | 41.922 | 16.721 | 32.638 | 2 |
| 2025-09-14T10:06:00 | 58.170762 | 10.105232 | 2.0 | 16.517 | 2 | 41.923 | 16.720 | 32.640 | 2 |
| 2025-09-14T10:07:00 | 58.170933 | 10.105499 | 2.0 | 16.515 | 2 | 41.923 | 16.721 | 32.639 | 2 |
| 2025-09-14T10:08:00 | 58.171153 | 10.105691 | 2.0 | 16.517 | 2 | 41.922 | 16.719 | 32.640 | 2 |
| 2025-09-14T10:09:00 | 58.171413 | 10.105875 | 2.0 | 16.515 | 2 | 41.918 | 16.719 | 32.636 | 2 |
| 2025-09-14T10:10:00 | 58.171613 | 10.105968 | 2.0 | 16.515 | 2 | 41.919 | 16.720 | 32.636 | 2 |
| 2025-09-14T10:11:00 | 58.171652 | 10.106009 | 2.0 | 16.518 | 2 | 41.919 | 16.719 | 32.637 | 2 |
| 2025-09-14T10:12:00 | 58.171568 | 10.106078 | 2.0 | 16.519 | 2 | 41.923 | 16.723 | 32.637 | 2 |
| 2025-09-14T10:13:00 | 58.171470 | 10.106120 | 2.0 | 16.520 | 2 | 41.925 | 16.724 | 32.638 | 2 |
| 2025-09-14T10:14:00 | 58.171374 | 10.106173 | 2.0 | 16.520 | 2 | 41.927 | 16.724 | 32.640 | 2 |
| 2025-09-14T10:15:00 | 58.171313 | 10.106190 | 2.0 | 16.522 | 2 | 41.928 | 16.724 | 32.641 | 2 |
| 2025-09-14T10:16:00 | 58.171281 | 10.106181 | 2.0 | 16.522 | 2 | 41.930 | 16.726 | 32.641 | 2 |
| 2025-09-14T10:17:00 | 58.171244 | 10.106197 | 2.0 | 16.522 | 2 | 41.930 | 16.726 | 32.641 | 2 |
| 2025-09-14T10:18:00 | 58.171201 | 10.106236 | 2.0 | 16.522 | 2 | 41.929 | 16.725 | 32.641 | 2 |
| 2025-09-14T10:19:00 | 58.171178 | 10.106230 | 2.0 | 16.524 | 2 | 41.931 | 16.727 | 32.641 | 2 |
| 2025-09-14T10:20:00 | 58.171172 | 10.106237 | 2.0 | 16.524 | 2 | 41.932 | 16.728 | 32.641 | 2 |
| 2025-09-14T10:21:00 | 58.171174 | 10.106231 | 2.0 | 16.524 | 2 | 41.932 | 16.727 | 32.642 | 2 |
| 2025-09-14T10:22:00 | 58.171172 | 10.106232 | 2.0 | 16.524 | 2 | 41.932 | 16.727 | 32.642 | 2 |
| 2025-09-14T10:23:00 | 58.171167 | 10.106224 | 2.0 | 16.522 | 2 | 41.929 | 16.728 | 32.638 | 2 |
| 2025-09-14T10:24:00 | 58.171171 | 10.106254 | 2.0 | 16.523 | 2 | 41.925 | 16.726 | 32.637 | 2 |
| 2025-09-14T10:25:00 | 58.171177 | 10.106308 | 2.0 | 16.521 | 2 | 41.924 | 16.724 | 32.637 | 2 |
| 2025-09-14T10:26:00 | 58.171181 | 10.106333 | 2.0 | 16.522 | 2 | 41.923 | 16.723 | 32.637 | 2 |
| 2025-09-14T10:27:00 | 58.171185 | 10.106372 | 2.0 | 16.523 | 2 | 41.924 | 16.724 | 32.637 | 2 |
| 2025-09-14T10:28:00 | 58.171189 | 10.106425 | 2.0 | 16.521 | 2 | 41.925 | 16.725 | 32.637 | 2 |
| 2025-09-14T10:29:00 | 58.171212 | 10.106432 | 2.0 | 16.523 | 2 | 41.924 | 16.724 | 32.637 | 2 |
| 2025-09-14T10:30:00 | 58.171237 | 10.106459 | 2.0 | 16.523 | 2 | 41.925 | 16.725 | 32.637 | 2 |
| 2025-09-14T10:31:00 | 58.171259 | 10.106528 | 2.0 | 16.523 | 2 | 41.925 | 16.726 | 32.637 | 2 |
| 2025-09-14T10:32:00 | 58.171274 | 10.106630 | 2.0 | 16.525 | 2 | 41.925 | 16.725 | 32.637 | 2 |
| 2025-09-14T10:33:00 | 58.171267 | 10.106784 | 2.0 | 16.526 | 2 | 41.928 | 16.728 | 32.637 | 2 |
| 2025-09-14T10:34:00 | 58.171246 | 10.106950 | 2.0 | 16.528 | 2 | 41.928 | 16.728 | 32.637 | 2 |
| 2025-09-14T10:35:00 | 58.171236 | 10.107121 | 2.0 | 16.525 | 2 | 41.930 | 16.730 | 32.638 | 2 |
| 2025-09-14T10:36:00 | 58.171241 | 10.107380 | 2.0 | 16.525 | 2 | 41.927 | 16.725 | 32.639 | 2 |
| 2025-09-14T10:37:00 | 58.171230 | 10.107674 | 2.0 | 16.524 | 2 | 41.926 | 16.725 | 32.638 | 2 |
| 2025-09-14T10:38:00 | 58.171219 | 10.107958 | 2.0 | 16.522 | 2 | 41.707 | 16.725 | 32.448 | 2 |
| 2025-09-14T10:39:00 | 58.171198 | 10.108214 | 2.0 | 16.521 | 2 | 41.898 | 16.723 | 32.615 | 2 |
| 2025-09-14T10:40:00 | 58.171170 | 10.108443 | 2.0 | 16.519 | 2 | 41.879 | 16.722 | 32.600 | 2 |
| 2025-09-14T10:41:00 | 58.171147 | 10.108660 | 2.0 | 16.519 | 2 | 41.926 | 16.721 | 32.641 | 2 |
| 2025-09-14T10:42:00 | 58.171133 | 10.108851 | 2.0 | 16.516 | 2 | 41.927 | 16.721 | 32.642 | 2 |
| 2025-09-14T10:43:00 | 58.171123 | 10.109040 | 2.0 | 16.514 | 2 | 41.767 | 16.718 | 32.506 | 2 |
| 2025-09-14T10:44:00 | 58.171125 | 10.109277 | 2.0 | 16.514 | 2 | 41.924 | 16.717 | 32.643 | 2 |
| 2025-09-14T10:45:00 | 58.171134 | 10.109547 | 2.0 | 16.515 | 2 | 41.795 | 16.716 | 32.532 | 2 |
| 2025-09-14T10:46:00 | 58.171169 | 10.109797 | 2.0 | 16.513 | 2 | 41.716 | 16.716 | 32.463 | 2 |
| 2025-09-14T10:47:00 | 58.171202 | 10.110012 | 2.0 | 16.511 | 2 | 41.791 | 16.715 | 32.529 | 2 |
| 2025-09-14T10:48:00 | 58.171228 | 10.110304 | 2.0 | 16.512 | 2 | 41.757 | 16.712 | 32.502 | 2 |
| 2025-09-14T10:49:00 | 58.171250 | 10.110583 | 2.0 | 16.512 | 2 | 41.852 | 16.715 | 32.582 | 2 |
| 2025-09-14T10:50:00 | 58.171266 | 10.110842 | 2.0 | 16.513 | 2 | 41.730 | 16.714 | 32.477 | 2 |
| 2025-09-14T10:51:00 | 58.171293 | 10.111106 | 2.0 | 16.512 | 2 | 41.764 | 16.715 | 32.506 | 2 |
| 2025-09-14T10:52:00 | 58.171308 | 10.111359 | 2.0 | 16.514 | 2 | 41.831 | 16.715 | 32.564 | 2 |
| 2025-09-14T10:53:00 | 58.171330 | 10.111626 | 2.0 | 16.512 | 2 | 41.886 | 16.716 | 32.611 | 2 |
| 2025-09-14T10:54:00 | 58.171348 | 10.111895 | 2.0 | 16.514 | 2 | 41.665 | 16.714 | 32.420 | 2 |
| 2025-09-14T10:55:00 | 58.171347 | 10.112132 | 2.0 | 16.514 | 2 | 41.785 | 16.715 | 32.524 | 2 |
| 2025-09-14T10:56:00 | 58.171326 | 10.112380 | 2.0 | 16.514 | 2 | 41.834 | 16.717 | 32.565 | 2 |
| 2025-09-14T10:57:00 | 58.171305 | 10.112584 | 2.0 | 16.514 | 2 | 41.812 | 16.716 | 32.546 | 2 |
| 2025-09-14T10:58:00 | 58.171282 | 10.112766 | 2.0 | 16.515 | 2 | 41.744 | 16.715 | 32.488 | 2 |
| 2025-09-14T10:59:00 | 58.171233 | 10.112974 | 2.0 | 16.516 | 2 | 41.774 | 16.717 | 32.513 | 2 |
| 2025-09-14T11:00:00 | 58.171197 | 10.113139 | 2.0 | 16.514 | 2 | 41.780 | 16.718 | 32.517 | 2 |
| 2025-09-14T11:01:00 | 58.171173 | 10.113292 | 2.0 | 16.515 | 2 | 41.792 | 16.717 | 32.528 | 2 |
| 2025-09-14T11:02:00 | 58.171138 | 10.113458 | 2.0 | 16.515 | 2 | 41.808 | 16.717 | 32.542 | 2 |
| 2025-09-14T11:03:00 | 58.171084 | 10.113621 | 2.0 | 16.516 | 2 | 41.793 | 16.716 | 32.530 | 2 |
| 2025-09-14T11:04:00 | 58.171043 | 10.113772 | 2.0 | 16.516 | 2 | 41.809 | 16.717 | 32.543 | 2 |
| 2025-09-14T11:05:00 | 58.170989 | 10.113944 | 2.0 | 16.516 | 2 | 41.809 | 16.717 | 32.543 | 2 |
| 2025-09-14T11:06:00 | 58.170938 | 10.114162 | 2.0 | 16.516 | 2 | 41.817 | 16.717 | 32.550 | 2 |
| 2025-09-14T11:07:00 | 58.170908 | 10.114367 | 2.0 | 16.516 | 2 | 41.826 | 16.718 | 32.557 | 2 |
| 2025-09-14T11:08:00 | 58.170900 | 10.114557 | 2.0 | 16.515 | 2 | 41.872 | 16.717 | 32.598 | 2 |
| 2025-09-14T11:09:00 | 58.170892 | 10.114727 | 2.0 | 16.515 | 2 | 41.877 | 16.716 | 32.603 | 2 |
| 2025-09-14T11:10:00 | 58.170885 | 10.114880 | 2.0 | 16.515 | 2 | 41.860 | 16.716 | 32.588 | 2 |
| 2025-09-14T11:11:00 | 58.170878 | 10.115038 | 2.0 | 16.513 | 2 | 41.875 | 16.716 | 32.601 | 2 |
| 2025-09-14T11:12:00 | 58.170855 | 10.115240 | 2.0 | 16.515 | 2 | 41.866 | 16.715 | 32.594 | 2 |
| 2025-09-14T11:13:00 | 58.170842 | 10.115385 | 2.0 | 16.511 | 2 | 41.879 | 16.715 | 32.605 | 2 |
| 2025-09-14T11:14:00 | 58.170834 | 10.115529 | 2.0 | 16.511 | 2 | 41.912 | 16.713 | 32.636 | 2 |
| 2025-09-14T11:15:00 | 58.170822 | 10.115697 | 2.0 | 16.511 | 2 | 41.931 | 16.714 | 32.651 | 2 |
| 2025-09-14T11:16:00 | 58.170815 | 10.115859 | 2.0 | 16.509 | 2 | 41.917 | 16.713 | 32.640 | 2 |
| 2025-09-14T11:17:00 | 58.170790 | 10.116053 | 2.0 | 16.511 | 2 | 41.921 | 16.712 | 32.644 | 2 |
| 2025-09-14T11:18:00 | 58.170761 | 10.116272 | 2.0 | 16.511 | 2 | 41.937 | 16.714 | 32.657 | 2 |
| 2025-09-14T11:19:00 | 58.170756 | 10.116477 | 2.0 | 16.510 | 2 | 41.935 | 16.712 | 32.657 | 2 |
| 2025-09-14T11:20:00 | 58.170761 | 10.116667 | 2.0 | 16.509 | 2 | 41.932 | 16.703 | 32.661 | 2 |
| 2025-09-14T11:21:00 | 58.170618 | 10.116802 | 2.0 | 16.507 | 2 | 41.928 | 16.697 | 32.663 | 2 |
| 2025-09-14T11:22:00 | 58.170251 | 10.116155 | 2.0 | 16.503 | 2 | 41.921 | 16.691 | 32.662 | 2 |
| 2025-09-14T11:23:00 | 58.169650 | 10.114717 | 2.0 | 16.517 | 2 | 41.925 | 16.691 | 32.665 | 2 |
| 2025-09-14T11:24:00 | 58.168877 | 10.112854 | 2.0 | 16.510 | 2 | 41.930 | 16.698 | 32.664 | 2 |
| 2025-09-14T11:25:00 | 58.168046 | 10.110692 | 2.0 | 16.505 | 2 | 41.926 | 16.692 | 32.665 | 2 |
| 2025-09-14T11:26:00 | 58.167184 | 10.108364 | 2.0 | 16.493 | 2 | 41.921 | 16.686 | 32.666 | 2 |
| 2025-09-14T11:27:00 | 58.166282 | 10.105997 | 2.0 | 16.480 | 2 | 41.920 | 16.673 | 32.675 | 2 |
| 2025-09-14T11:28:00 | 58.165365 | 10.103647 | 2.0 | 16.477 | 2 | 41.904 | 16.661 | 32.671 | 2 |
| 2025-09-14T11:29:00 | 58.164441 | 10.101186 | 2.0 | 16.460 | 2 | 41.901 | 16.657 | 32.672 | 2 |
| 2025-09-14T11:30:00 | 58.163319 | 10.098242 | 2.0 | 16.473 | 2 | 41.881 | 16.641 | 32.667 | 2 |
| 2025-09-14T11:31:00 | 58.162082 | 10.095026 | 2.0 | 16.482 | 2 | 41.874 | 16.655 | 32.650 | 2 |
| 2025-09-14T11:32:00 | 58.160804 | 10.091620 | 2.0 | 16.490 | 2 | 41.880 | 16.662 | 32.649 | 2 |
| 2025-09-14T11:33:00 | 58.159378 | 10.087962 | 2.0 | 16.470 | 2 | 41.892 | 16.668 | 32.655 | 2 |
| 2025-09-14T11:34:00 | 58.157921 | 10.084201 | 2.0 | 16.465 | 2 | 41.891 | 16.646 | 32.672 | 2 |
| 2025-09-14T11:35:00 | 58.156458 | 10.080464 | 2.0 | 16.476 | 2 | 41.894 | 16.648 | 32.673 | 2 |
| 2025-09-14T11:36:00 | 58.155002 | 10.076633 | 2.0 | 16.427 | 2 | 41.902 | 16.653 | 32.676 | 2 |
| 2025-09-14T11:37:00 | 58.153554 | 10.072790 | 2.0 | 16.404 | 2 | 41.905 | 16.604 | 32.719 | 2 |
| 2025-09-14T11:38:00 | 58.152074 | 10.068980 | 2.0 | 16.426 | 2 | 41.903 | 16.594 | 32.725 | 2 |
| 2025-09-14T11:39:00 | 58.150588 | 10.065161 | 2.0 | 16.416 | 2 | 41.908 | 16.597 | 32.727 | 2 |
| 2025-09-14T11:40:00 | 58.149093 | 10.061317 | 2.0 | 16.419 | 2 | 41.884 | 16.596 | 32.707 | 2 |
| 2025-09-14T11:41:00 | 58.147593 | 10.057459 | 2.0 | 16.399 | 2 | 41.888 | 16.595 | 32.711 | 2 |
| 2025-09-14T11:42:00 | 58.146112 | 10.053548 | 2.0 | 16.388 | 2 | 41.884 | 16.576 | 32.723 | 2 |
| 2025-09-14T11:43:00 | 58.144595 | 10.049663 | 2.0 | 16.405 | 2 | 41.871 | 16.570 | 32.717 | 2 |
| 2025-09-14T11:44:00 | 58.143103 | 10.045758 | 2.0 | 16.416 | 2 | 41.873 | 16.583 | 32.708 | 2 |
| 2025-09-14T11:45:00 | 58.141647 | 10.041858 | 2.0 | 16.408 | 2 | 41.887 | 16.591 | 32.714 | 2 |
| 2025-09-14T11:46:00 | 58.140150 | 10.038030 | 2.0 | 16.417 | 2 | 41.879 | 16.586 | 32.711 | 2 |
| 2025-09-14T11:47:00 | 58.138657 | 10.034186 | 2.0 | 16.403 | 2 | 41.877 | 16.590 | 32.706 | 2 |
| 2025-09-14T11:48:00 | 58.137205 | 10.030315 | 2.0 | 16.394 | 2 | 41.869 | 16.581 | 32.706 | 2 |
| 2025-09-14T11:49:00 | 58.135719 | 10.026501 | 2.0 | 16.412 | 2 | 41.860 | 16.574 | 32.704 | 2 |
| 2025-09-14T11:50:00 | 58.134226 | 10.022659 | 2.0 | 16.430 | 2 | 41.861 | 16.590 | 32.692 | 2 |
| 2025-09-14T11:51:00 | 58.132763 | 10.018765 | 2.0 | 16.433 | 2 | 41.869 | 16.605 | 32.686 | 2 |
| 2025-09-14T11:52:00 | 58.131247 | 10.014941 | 2.0 | 16.450 | 2 | 41.863 | 16.610 | 32.677 | 2 |
| 2025-09-14T11:53:00 | 58.129771 | 10.011062 | 2.0 | 16.457 | 2 | 41.871 | 16.627 | 32.670 | 2 |
| 2025-09-14T11:54:00 | 58.128302 | 10.007195 | 2.0 | 16.451 | 2 | 41.883 | 16.627 | 32.681 | 2 |
| 2025-09-14T11:55:00 | 58.126814 | 10.003331 | 2.0 | 16.453 | 2 | 41.888 | 16.627 | 32.685 | 2 |
| 2025-09-14T11:56:00 | 58.125306 | 9.999483 | 2.0 | 16.449 | 2 | 41.910 | 16.630 | 32.702 | 2 |
| 2025-09-14T11:57:00 | 58.123830 | 9.995605 | 2.0 | 16.403 | 2 | 41.932 | 16.618 | 32.731 | 2 |
| 2025-09-14T11:58:00 | 58.122352 | 9.991714 | 2.0 | 16.365 | 2 | 41.940 | 16.572 | 32.775 | 2 |
| 2025-09-14T11:59:00 | 58.120852 | 9.987877 | 2.0 | 16.333 | 2 | 41.957 | 16.540 | 32.816 | 2 |
| 2025-09-14T12:00:00 | 58.119386 | 9.984003 | 2.0 | 16.287 | 2 | 41.974 | 16.504 | 32.861 | 2 |
| 2025-09-14T12:01:00 | 58.117927 | 9.980166 | 2.0 | 16.269 | 2 | 42.002 | 16.466 | 32.917 | 2 |
| 2025-09-14T12:02:00 | 58.116444 | 9.976379 | 2.0 | 16.244 | 2 | 42.037 | 16.444 | 32.965 | 2 |
| 2025-09-14T12:03:00 | 58.114947 | 9.972536 | 2.0 | 16.222 | 2 | 42.065 | 16.418 | 33.011 | 2 |
| 2025-09-14T12:04:00 | 58.113455 | 9.968665 | 2.0 | 16.237 | 2 | 42.079 | 16.403 | 33.036 | 2 |
| 2025-09-14T12:05:00 | 58.111997 | 9.964803 | 2.0 | 16.225 | 2 | 42.119 | 16.413 | 33.063 | 2 |
| 2025-09-14T12:06:00 | 58.110538 | 9.960944 | 2.0 | 16.203 | 2 | 42.134 | 16.397 | 33.089 | 2 |
| 2025-09-14T12:07:00 | 58.109049 | 9.957103 | 2.0 | 16.178 | 2 | 42.146 | 16.376 | 33.117 | 2 |
| 2025-09-14T12:08:00 | 58.107549 | 9.953248 | 2.0 | 16.167 | 2 | 42.179 | 16.352 | 33.166 | 2 |
| 2025-09-14T12:09:00 | 58.106077 | 9.949317 | 2.0 | 16.153 | 2 | 42.201 | 16.339 | 33.196 | 2 |
| 2025-09-14T12:10:00 | 58.104555 | 9.945446 | 2.0 | 16.172 | 2 | 42.248 | 16.335 | 33.241 | 2 |
| 2025-09-14T12:11:00 | 58.103052 | 9.941525 | 2.0 | 16.201 | 2 | 42.323 | 16.353 | 33.292 | 2 |
| 2025-09-14T12:12:00 | 58.101543 | 9.937616 | 2.0 | 16.214 | 2 | 42.397 | 16.379 | 33.335 | 2 |
| 2025-09-14T12:13:00 | 58.100064 | 9.933716 | 2.0 | 16.199 | 2 | 42.472 | 16.386 | 33.395 | 2 |
| 2025-09-14T12:14:00 | 58.098579 | 9.929823 | 2.0 | 16.163 | 2 | 42.524 | 16.369 | 33.455 | 2 |
| 2025-09-14T12:15:00 | 58.097074 | 9.925985 | 2.0 | 16.148 | 2 | 42.542 | 16.336 | 33.499 | 2 |
| 2025-09-14T12:16:00 | 58.095577 | 9.922121 | 2.0 | 16.135 | 2 | 42.544 | 16.323 | 33.511 | 2 |
| 2025-09-14T12:17:00 | 58.094082 | 9.918256 | 2.0 | 16.129 | 2 | 42.527 | 16.306 | 33.511 | 2 |
| 2025-09-14T12:18:00 | 58.092629 | 9.914395 | 2.0 | 16.134 | 2 | 42.493 | 16.306 | 33.481 | 2 |
| 2025-09-14T12:19:00 | 58.091146 | 9.910595 | 2.0 | 16.142 | 2 | 42.468 | 16.309 | 33.456 | 2 |
| 2025-09-14T12:20:00 | 58.089691 | 9.906769 | 2.0 | 16.162 | 2 | 42.469 | 16.321 | 33.447 | 2 |
| 2025-09-14T12:21:00 | 58.088199 | 9.902988 | 2.0 | 16.152 | 2 | 42.490 | 16.334 | 33.455 | 2 |
| 2025-09-14T12:22:00 | 58.086700 | 9.899206 | 2.0 | 16.136 | 2 | 42.514 | 16.326 | 33.483 | 2 |
| 2025-09-14T12:23:00 | 58.085245 | 9.895381 | 2.0 | 16.119 | 2 | 42.485 | 16.304 | 33.475 | 2 |
| 2025-09-14T12:24:00 | 58.083759 | 9.891625 | 2.0 | 16.166 | 2 | 42.394 | 16.305 | 33.395 | 2 |
| 2025-09-14T12:25:00 | 58.082293 | 9.887856 | 2.0 | 16.168 | 2 | 42.290 | 16.336 | 33.277 | 2 |
| 2025-09-14T12:26:00 | 58.080856 | 9.884068 | 2.0 | 16.186 | 2 | 42.252 | 16.344 | 33.237 | 2 |
| 2025-09-14T12:27:00 | 58.079424 | 9.880307 | 2.0 | 16.192 | 2 | 42.214 | 16.359 | 33.191 | 2 |
| 2025-09-14T12:28:00 | 58.077960 | 9.876573 | 2.0 | 16.206 | 2 | 42.188 | 16.367 | 33.162 | 2 |
| 2025-09-14T12:29:00 | 58.076487 | 9.872845 | 2.0 | 16.221 | 2 | 42.153 | 16.382 | 33.118 | 2 |
| 2025-09-14T12:30:00 | 58.075055 | 9.869070 | 2.0 | 16.231 | 2 | 42.138 | 16.395 | 33.095 | 2 |
| 2025-09-14T12:31:00 | 58.073631 | 9.865323 | 2.0 | 16.239 | 2 | 42.133 | 16.404 | 33.083 | 2 |
| 2025-09-14T12:32:00 | 58.072200 | 9.861556 | 2.0 | 16.211 | 2 | 42.137 | 16.408 | 33.083 | 2 |
| 2025-09-14T12:33:00 | 58.070732 | 9.857841 | 2.0 | 16.223 | 2 | 42.092 | 16.387 | 33.061 | 2 |
| 2025-09-14T12:34:00 | 58.069290 | 9.854082 | 2.0 | 16.237 | 2 | 42.084 | 16.398 | 33.045 | 2 |
| 2025-09-14T12:35:00 | 58.067827 | 9.850338 | 2.0 | 16.230 | 2 | 42.087 | 16.408 | 33.039 | 2 |
| 2025-09-14T12:36:00 | 58.066379 | 9.846566 | 2.0 | 16.224 | 2 | 42.083 | 16.401 | 33.041 | 2 |
| 2025-09-14T12:37:00 | 58.064918 | 9.842790 | 2.0 | 16.234 | 2 | 42.098 | 16.399 | 33.056 | 2 |
| 2025-09-14T12:38:00 | 58.063493 | 9.838978 | 2.0 | 16.239 | 2 | 42.119 | 16.406 | 33.069 | 2 |
| 2025-09-14T12:39:00 | 58.062039 | 9.835221 | 2.0 | 16.238 | 2 | 42.126 | 16.411 | 33.071 | 2 |
| 2025-09-14T12:40:00 | 58.060589 | 9.831457 | 2.0 | 16.228 | 2 | 42.129 | 16.407 | 33.077 | 2 |
| 2025-09-14T12:41:00 | 58.059157 | 9.827691 | 2.0 | 16.225 | 2 | 42.128 | 16.399 | 33.082 | 2 |
| 2025-09-14T12:42:00 | 58.057708 | 9.823952 | 2.0 | 16.236 | 2 | 42.135 | 16.398 | 33.089 | 2 |
| 2025-09-14T12:43:00 | 58.056247 | 9.820198 | 2.0 | 16.230 | 2 | 42.166 | 16.407 | 33.109 | 2 |
| 2025-09-14T12:44:00 | 58.054832 | 9.816392 | 2.0 | 16.225 | 2 | 42.196 | 16.397 | 33.144 | 2 |
| 2025-09-14T12:45:00 | 58.053351 | 9.812692 | 2.0 | 16.212 | 2 | 42.223 | 16.398 | 33.167 | 2 |
| 2025-09-14T12:46:00 | 58.051891 | 9.808937 | 2.0 | 16.169 | 2 | 42.212 | 16.377 | 33.174 | 2 |
| 2025-09-14T12:47:00 | 58.050466 | 9.805105 | 2.0 | 16.121 | 2 | 42.170 | 16.333 | 33.174 | 2 |
| 2025-09-14T12:48:00 | 58.049012 | 9.801319 | 2.0 | 16.148 | 2 | 42.133 | 16.301 | 33.168 | 2 |
| 2025-09-14T12:49:00 | 58.047543 | 9.797571 | 2.0 | 16.147 | 2 | 42.116 | 16.318 | 33.139 | 2 |
| 2025-09-14T12:50:00 | 58.046096 | 9.793800 | 2.0 | 16.182 | 2 | 42.092 | 16.319 | 33.117 | 2 |
| 2025-09-14T12:51:00 | 58.044657 | 9.790034 | 2.0 | 16.233 | 2 | 42.097 | 16.365 | 33.083 | 2 |
| 2025-09-14T12:52:00 | 58.043236 | 9.786292 | 2.0 | 16.251 | 2 | 42.107 | 16.402 | 33.062 | 2 |
| 2025-09-14T12:53:00 | 58.041776 | 9.782606 | 2.0 | 16.264 | 2 | 42.110 | 16.423 | 33.047 | 2 |
| 2025-09-14T12:54:00 | 58.040357 | 9.778878 | 2.0 | 16.266 | 2 | 42.109 | 16.435 | 33.036 | 2 |
| 2025-09-14T12:55:00 | 58.038922 | 9.775137 | 2.0 | 16.242 | 2 | 42.106 | 16.431 | 33.037 | 2 |
| 2025-09-14T12:56:00 | 58.037457 | 9.771377 | 2.0 | 16.232 | 2 | 42.105 | 16.413 | 33.051 | 2 |
| 2025-09-14T12:57:00 | 58.035987 | 9.767622 | 2.0 | 16.206 | 2 | 42.111 | 16.397 | 33.069 | 2 |
| 2025-09-14T12:58:00 | 58.034548 | 9.763827 | 2.0 | 16.197 | 2 | 42.104 | 16.377 | 33.080 | 2 |
| 2025-09-14T12:59:00 | 58.033075 | 9.760040 | 2.0 | 16.183 | 2 | 42.122 | 16.368 | 33.103 | 2 |
| 2025-09-14T13:00:00 | 58.031613 | 9.756254 | 2.0 | 16.150 | 2 | 42.120 | 16.349 | 33.117 | 2 |
| 2025-09-14T13:01:00 | 58.030189 | 9.752484 | 2.0 | 16.113 | 2 | 42.110 | 16.316 | 33.136 | 2 |
| 2025-09-14T13:02:00 | 58.028745 | 9.748745 | 2.0 | 16.110 | 2 | 42.093 | 16.286 | 33.146 | 2 |
| 2025-09-14T13:03:00 | 58.027294 | 9.745003 | 2.0 | 16.111 | 2 | 42.086 | 16.283 | 33.142 | 2 |
| 2025-09-14T13:04:00 | 58.025859 | 9.741227 | 2.0 | 16.110 | 2 | 42.082 | 16.283 | 33.138 | 2 |
| 2025-09-14T13:05:00 | 58.024413 | 9.737454 | 2.0 | 16.113 | 2 | 42.080 | 16.282 | 33.137 | 2 |
| 2025-09-14T13:06:00 | 58.022947 | 9.733740 | 2.0 | 16.119 | 2 | 42.080 | 16.287 | 33.133 | 2 |
| 2025-09-14T13:07:00 | 58.021513 | 9.729981 | 2.0 | 16.123 | 2 | 42.075 | 16.291 | 33.126 | 2 |
| 2025-09-14T13:08:00 | 58.020055 | 9.726213 | 2.0 | 16.114 | 2 | 42.068 | 16.292 | 33.119 | 2 |
| 2025-09-14T13:09:00 | 58.018606 | 9.722390 | 2.0 | 16.114 | 2 | 42.080 | 16.285 | 33.135 | 2 |
| 2025-09-14T13:10:00 | 58.017111 | 9.718615 | 2.0 | 16.105 | 2 | 42.090 | 16.284 | 33.145 | 2 |
| 2025-09-14T13:11:00 | 58.015658 | 9.714771 | 2.0 | 16.095 | 2 | 42.105 | 16.278 | 33.163 | 2 |
| 2025-09-14T13:12:00 | 58.014173 | 9.710987 | 2.0 | 15.996 | 2 | 42.142 | 16.258 | 33.212 | 2 |
| 2025-09-14T13:13:00 | 58.012723 | 9.707304 | 2.0 | 15.976 | 2 | 42.254 | 16.169 | 33.385 | 2 |
| 2025-09-14T13:14:00 | 58.011330 | 9.703604 | 2.0 | 15.979 | 2 | 42.254 | 16.152 | 33.400 | 2 |
| 2025-09-14T13:15:00 | 58.009908 | 9.699965 | 2.0 | 15.986 | 2 | 42.235 | 16.151 | 33.384 | 2 |
| 2025-09-14T13:16:00 | 58.008485 | 9.696310 | 2.0 | 16.003 | 2 | 42.220 | 16.161 | 33.362 | 2 |
| 2025-09-14T13:17:00 | 58.007085 | 9.692609 | 2.0 | 16.008 | 2 | 42.204 | 16.176 | 33.335 | 2 |
| 2025-09-14T13:18:00 | 58.005684 | 9.688936 | 2.0 | 16.010 | 2 | 42.187 | 16.180 | 33.317 | 2 |
| 2025-09-14T13:19:00 | 58.004259 | 9.685293 | 2.0 | 16.007 | 2 | 42.168 | 16.181 | 33.299 | 2 |
| 2025-09-14T13:20:00 | 58.002844 | 9.681654 | 2.0 | 16.009 | 2 | 42.151 | 16.180 | 33.285 | 2 |
| 2025-09-14T13:21:00 | 58.001470 | 9.677967 | 2.0 | 16.015 | 2 | 42.145 | 16.181 | 33.279 | 2 |
| 2025-09-14T13:22:00 | 58.000082 | 9.674312 | 2.0 | 16.018 | 2 | 42.144 | 16.187 | 33.273 | 2 |
| 2025-09-14T13:23:00 | 57.998684 | 9.670676 | 2.0 | 16.026 | 2 | 42.134 | 16.191 | 33.261 | 2 |
| 2025-09-14T13:24:00 | 57.997254 | 9.667086 | 2.0 | 16.036 | 2 | 42.134 | 16.199 | 33.254 | 2 |
| 2025-09-14T13:25:00 | 57.995859 | 9.663430 | 2.0 | 16.044 | 2 | 42.141 | 16.207 | 33.254 | 2 |
| 2025-09-14T13:26:00 | 57.994476 | 9.659758 | 2.0 | 16.061 | 2 | 42.143 | 16.216 | 33.248 | 2 |
| 2025-09-14T13:27:00 | 57.993057 | 9.656102 | 2.0 | 16.065 | 2 | 42.139 | 16.232 | 33.231 | 2 |
| 2025-09-14T13:28:00 | 57.991652 | 9.652451 | 2.0 | 16.060 | 2 | 42.126 | 16.235 | 33.217 | 2 |
| 2025-09-14T13:29:00 | 57.990270 | 9.648801 | 2.0 | 16.048 | 2 | 42.108 | 16.230 | 33.205 | 2 |
| 2025-09-14T13:30:00 | 57.988858 | 9.645211 | 2.0 | 16.025 | 2 | 42.109 | 16.214 | 33.220 | 2 |
| 2025-09-14T13:31:00 | 57.987459 | 9.641586 | 2.0 | 16.011 | 2 | 42.169 | 16.194 | 33.289 | 2 |
| 2025-09-14T13:32:00 | 57.986108 | 9.637963 | 2.0 | 16.014 | 2 | 42.256 | 16.184 | 33.374 | 2 |
| 2025-09-14T13:33:00 | 57.984691 | 9.634426 | 2.0 | 15.995 | 2 | 42.312 | 16.184 | 33.424 | 2 |
| 2025-09-14T13:34:00 | 57.983293 | 9.630848 | 2.0 | 15.979 | 2 | 42.381 | 16.165 | 33.501 | 2 |
| 2025-09-14T13:35:00 | 57.981936 | 9.627191 | 2.0 | 15.951 | 2 | 42.403 | 16.147 | 33.535 | 2 |
| 2025-09-14T13:36:00 | 57.980516 | 9.623588 | 2.0 | 15.920 | 2 | 42.378 | 16.120 | 33.536 | 2 |
| 2025-09-14T13:37:00 | 57.979112 | 9.619933 | 2.0 | 15.914 | 2 | 42.342 | 16.092 | 33.528 | 2 |
| 2025-09-14T13:38:00 | 57.977698 | 9.616323 | 2.0 | 15.910 | 2 | 42.337 | 16.087 | 33.528 | 2 |
| 2025-09-14T13:39:00 | 57.976286 | 9.612721 | 2.0 | 15.857 | 2 | 42.355 | 16.080 | 33.550 | 2 |
| 2025-09-14T13:40:00 | 57.974858 | 9.609171 | 2.0 | 15.869 | 2 | 42.303 | 16.024 | 33.551 | 2 |
| 2025-09-14T13:41:00 | 57.973438 | 9.605607 | 2.0 | 16.035 | 2 | 42.311 | 16.079 | 33.511 | 2 |
| 2025-09-14T13:42:00 | 57.972030 | 9.602066 | 2.0 | 16.082 | 2 | 42.248 | 16.205 | 33.350 | 2 |
| 2025-09-14T13:43:00 | 57.970656 | 9.598530 | 2.0 | 16.097 | 2 | 42.151 | 16.249 | 33.227 | 2 |
| 2025-09-14T13:44:00 | 57.969311 | 9.594951 | 2.0 | 16.093 | 2 | 42.094 | 16.264 | 33.165 | 2 |
| 2025-09-14T13:45:00 | 57.967945 | 9.591375 | 2.0 | 16.089 | 2 | 42.054 | 16.260 | 33.133 | 2 |
| 2025-09-14T13:46:00 | 57.966651 | 9.587647 | 2.0 | 16.083 | 2 | 42.030 | 16.257 | 33.114 | 2 |
| 2025-09-14T13:47:00 | 57.965396 | 9.583851 | 2.0 | 16.073 | 2 | 42.020 | 16.249 | 33.112 | 2 |
| 2025-09-14T13:48:00 | 57.964138 | 9.580072 | 2.0 | 16.077 | 2 | 42.004 | 16.243 | 33.103 | 2 |
| 2025-09-14T13:49:00 | 57.962821 | 9.576361 | 2.0 | 16.078 | 2 | 42.001 | 16.247 | 33.097 | 2 |
| 2025-09-14T13:50:00 | 57.961473 | 9.572685 | 2.0 | 16.081 | 2 | 42.003 | 16.248 | 33.098 | 2 |
| 2025-09-14T13:51:00 | 57.959899 | 9.569339 | 2.0 | 16.079 | 2 | 41.994 | 16.251 | 33.088 | 2 |
| 2025-09-14T13:52:00 | 57.957942 | 9.566606 | 2.0 | 16.111 | 2 | 41.986 | 16.254 | 33.078 | 2 |
| 2025-09-14T13:53:00 | 57.956009 | 9.563780 | 2.0 | 16.128 | 2 | 41.990 | 16.282 | 33.058 | 2 |
| 2025-09-14T13:54:00 | 57.954092 | 9.560887 | 2.0 | 16.142 | 2 | 41.991 | 16.299 | 33.045 | 2 |
| 2025-09-14T13:55:00 | 57.952155 | 9.558019 | 2.0 | 16.143 | 2 | 41.998 | 16.311 | 33.041 | 2 |
| 2025-09-14T13:56:00 | 57.950221 | 9.555153 | 2.0 | 16.147 | 2 | 41.999 | 16.315 | 33.039 | 2 |
| 2025-09-14T13:57:00 | 57.948306 | 9.552259 | 2.0 | 16.149 | 2 | 41.996 | 16.315 | 33.036 | 2 |
| 2025-09-14T13:58:00 | 57.946353 | 9.549439 | 2.0 | 16.152 | 2 | 41.993 | 16.320 | 33.029 | 2 |
| 2025-09-14T13:59:00 | 57.944389 | 9.546592 | 2.0 | 16.150 | 2 | 41.992 | 16.321 | 33.028 | 2 |
| 2025-09-14T14:00:00 | 57.942461 | 9.543666 | 2.0 | 16.144 | 2 | 42.007 | 16.318 | 33.043 | 2 |
| 2025-09-14T14:01:00 | 57.940554 | 9.540715 | 2.0 | 16.136 | 2 | 42.026 | 16.313 | 33.064 | 2 |
| 2025-09-14T14:02:00 | 57.938631 | 9.537859 | 2.0 | 16.109 | 2 | 42.038 | 16.302 | 33.084 | 2 |
| 2025-09-14T14:03:00 | 57.936683 | 9.535058 | 2.0 | 16.108 | 2 | 42.054 | 16.280 | 33.116 | 2 |
| 2025-09-14T14:04:00 | 57.934748 | 9.532203 | 2.0 | 16.125 | 2 | 42.077 | 16.284 | 33.133 | 2 |
| 2025-09-14T14:05:00 | 57.932802 | 9.529357 | 2.0 | 16.133 | 2 | 42.160 | 16.296 | 33.196 | 2 |
| 2025-09-14T14:06:00 | 57.930939 | 9.526404 | 2.0 | 16.106 | 2 | 42.439 | 16.298 | 33.440 | 2 |
| 2025-09-14T14:07:00 | 57.929032 | 9.523590 | 2.0 | 16.107 | 2 | 42.674 | 16.277 | 33.665 | 2 |
| 2025-09-14T14:08:00 | 57.927088 | 9.520805 | 2.0 | 16.114 | 2 | 42.727 | 16.276 | 33.712 | 2 |
| 2025-09-14T14:09:00 | 57.925145 | 9.518005 | 2.0 | 16.128 | 2 | 42.758 | 16.285 | 33.732 | 2 |
| 2025-09-14T14:10:00 | 57.923217 | 9.515132 | 2.0 | 16.125 | 2 | 42.803 | 16.296 | 33.762 | 2 |
| 2025-09-14T14:11:00 | 57.921304 | 9.512240 | 2.0 | 16.129 | 2 | 42.818 | 16.296 | 33.776 | 2 |
| 2025-09-14T14:12:00 | 57.919370 | 9.509348 | 2.0 | 16.129 | 2 | 42.821 | 16.299 | 33.776 | 2 |
| 2025-09-14T14:13:00 | 57.917422 | 9.506449 | 2.0 | 16.126 | 2 | 42.819 | 16.298 | 33.775 | 2 |
| 2025-09-14T14:14:00 | 57.915469 | 9.503601 | 2.0 | 16.120 | 2 | 42.815 | 16.294 | 33.775 | 2 |
| 2025-09-14T14:15:00 | 57.913523 | 9.500694 | 2.0 | 16.126 | 2 | 42.815 | 16.291 | 33.777 | 2 |
| 2025-09-14T14:16:00 | 57.911571 | 9.497764 | 2.0 | 16.119 | 2 | 42.821 | 16.294 | 33.780 | 2 |
| 2025-09-14T14:17:00 | 57.909604 | 9.494852 | 2.0 | 16.113 | 2 | 42.820 | 16.287 | 33.785 | 2 |
| 2025-09-14T14:18:00 | 57.907630 | 9.491901 | 2.0 | 16.121 | 2 | 42.829 | 16.287 | 33.793 | 2 |
| 2025-09-14T14:19:00 | 57.905628 | 9.489006 | 2.0 | 16.124 | 2 | 42.844 | 16.292 | 33.802 | 2 |
| 2025-09-14T14:20:00 | 57.903642 | 9.486080 | 2.0 | 16.124 | 2 | 42.850 | 16.294 | 33.806 | 2 |
| 2025-09-14T14:21:00 | 57.901667 | 9.483135 | 2.0 | 16.173 | 2 | 42.896 | 16.298 | 33.843 | 2 |
| 2025-09-14T14:22:00 | 57.899694 | 9.480206 | 2.0 | 16.233 | 2 | 43.075 | 16.351 | 33.956 | 2 |
| 2025-09-14T14:23:00 | 57.897761 | 9.477246 | 2.0 | 16.347 | 2 | 43.224 | 16.403 | 34.042 | 2 |
| 2025-09-14T14:24:00 | 57.895783 | 9.474410 | 2.0 | 16.610 | 2 | 43.563 | 16.586 | 34.184 | 2 |
| 2025-09-14T14:25:00 | 57.893862 | 9.471604 | 2.0 | 16.526 | 2 | 43.856 | 16.732 | 34.316 | 2 |
| 2025-09-14T14:26:00 | 57.891977 | 9.468759 | 2.0 | 16.525 | 2 | 43.781 | 16.692 | 34.285 | 2 |
| 2025-09-14T14:27:00 | 57.890075 | 9.465935 | 2.0 | 16.509 | 2 | 43.793 | 16.687 | 34.299 | 2 |
| 2025-09-14T14:28:00 | 57.888177 | 9.463148 | 2.0 | 16.499 | 2 | 43.768 | 16.674 | 34.289 | 2 |
| 2025-09-14T14:29:00 | 57.886297 | 9.460378 | 2.0 | 16.490 | 2 | 43.741 | 16.665 | 34.273 | 2 |
| 2025-09-14T14:30:00 | 57.884424 | 9.457538 | 2.0 | 16.466 | 2 | 43.720 | 16.654 | 34.264 | 2 |
| 2025-09-14T14:31:00 | 57.882544 | 9.454691 | 2.0 | 16.457 | 2 | 43.681 | 16.628 | 34.252 | 2 |
| 2025-09-14T14:32:00 | 57.880622 | 9.451949 | 2.0 | 16.433 | 2 | 43.679 | 16.623 | 34.254 | 2 |
| 2025-09-14T14:33:00 | 57.878724 | 9.449162 | 2.0 | 16.400 | 2 | 43.638 | 16.600 | 34.238 | 2 |
| 2025-09-14T14:34:00 | 57.876859 | 9.446328 | 2.0 | 16.397 | 2 | 43.590 | 16.572 | 34.220 | 2 |
| 2025-09-14T14:35:00 | 57.874970 | 9.443522 | 2.0 | 16.400 | 2 | 43.580 | 16.568 | 34.215 | 2 |
| 2025-09-14T14:36:00 | 57.873077 | 9.440736 | 2.0 | 16.428 | 2 | 43.582 | 16.571 | 34.214 | 2 |
| 2025-09-14T14:37:00 | 57.871194 | 9.437948 | 2.0 | 16.464 | 2 | 43.621 | 16.596 | 34.227 | 2 |
| 2025-09-14T14:38:00 | 57.869294 | 9.435204 | 2.0 | 16.478 | 2 | 43.698 | 16.637 | 34.259 | 2 |
| 2025-09-14T14:39:00 | 57.867424 | 9.432438 | 2.0 | 16.459 | 2 | 43.737 | 16.640 | 34.291 | 2 |
| 2025-09-14T14:40:00 | 57.865581 | 9.429667 | 2.0 | 16.460 | 2 | 43.736 | 16.629 | 34.299 | 2 |
| 2025-09-14T14:41:00 | 57.863740 | 9.426934 | 2.0 | 16.463 | 2 | 43.743 | 16.629 | 34.305 | 2 |
| 2025-09-14T14:42:00 | 57.861896 | 9.424258 | 2.0 | 16.464 | 2 | 43.743 | 16.631 | 34.304 | 2 |
| 2025-09-14T14:43:00 | 57.860065 | 9.421526 | 2.0 | 16.470 | 2 | 43.744 | 16.632 | 34.304 | 2 |
| 2025-09-14T14:44:00 | 57.858229 | 9.418840 | 2.0 | 16.476 | 2 | 43.750 | 16.637 | 34.305 | 2 |
| 2025-09-14T14:45:00 | 57.856396 | 9.416120 | 2.0 | 16.480 | 2 | 43.754 | 16.643 | 34.303 | 2 |
| 2025-09-14T14:46:00 | 57.854584 | 9.413374 | 2.0 | 16.480 | 2 | 43.759 | 16.648 | 34.303 | 2 |
| 2025-09-14T14:47:00 | 57.852745 | 9.410673 | 2.0 | 16.477 | 2 | 43.760 | 16.645 | 34.307 | 2 |
| 2025-09-14T14:48:00 | 57.850898 | 9.407957 | 2.0 | 16.487 | 2 | 43.757 | 16.645 | 34.304 | 2 |
| 2025-09-14T14:49:00 | 57.849044 | 9.405226 | 2.0 | 16.481 | 2 | 43.772 | 16.654 | 34.309 | 2 |
| 2025-09-14T14:50:00 | 57.847206 | 9.402504 | 2.0 | 16.480 | 2 | 43.766 | 16.647 | 34.310 | 2 |
| 2025-09-14T14:51:00 | 57.845360 | 9.399806 | 2.0 | 16.481 | 2 | 43.762 | 16.647 | 34.307 | 2 |
| 2025-09-14T14:52:00 | 57.843521 | 9.397076 | 2.0 | 16.490 | 2 | 43.766 | 16.649 | 34.308 | 2 |
| 2025-09-14T14:53:00 | 57.841675 | 9.394346 | 2.0 | 16.483 | 2 | 43.778 | 16.656 | 34.313 | 2 |
| 2025-09-14T14:54:00 | 57.839850 | 9.391580 | 2.0 | 16.467 | 2 | 43.777 | 16.649 | 34.318 | 2 |
| 2025-09-14T14:55:00 | 57.838012 | 9.388836 | 2.0 | 16.461 | 2 | 43.761 | 16.632 | 34.319 | 2 |
| 2025-09-14T14:56:00 | 57.836150 | 9.386138 | 2.0 | 16.457 | 2 | 43.757 | 16.630 | 34.317 | 2 |
| 2025-09-14T14:57:00 | 57.834309 | 9.383367 | 2.0 | 16.450 | 2 | 43.751 | 16.623 | 34.318 | 2 |
| 2025-09-14T14:58:00 | 57.832460 | 9.380598 | 2.0 | 16.448 | 2 | 43.742 | 16.617 | 34.315 | 2 |
| 2025-09-14T14:59:00 | 57.830589 | 9.377875 | 2.0 | 16.449 | 2 | 43.740 | 16.616 | 34.314 | 2 |
| 2025-09-14T15:00:00 | 57.828733 | 9.375143 | 2.0 | 16.459 | 2 | 43.742 | 16.617 | 34.315 | 2 |
| 2025-09-14T15:01:00 | 57.826880 | 9.372378 | 2.0 | 16.461 | 2 | 43.758 | 16.626 | 34.321 | 2 |
| 2025-09-14T15:02:00 | 57.825016 | 9.369616 | 2.0 | 16.465 | 2 | 43.762 | 16.630 | 34.321 | 2 |
| 2025-09-14T15:03:00 | 57.823138 | 9.366871 | 2.0 | 16.480 | 2 | 43.768 | 16.634 | 34.323 | 2 |
| 2025-09-14T15:04:00 | 57.821273 | 9.364097 | 2.0 | 16.460 | 2 | 43.781 | 16.646 | 34.324 | 2 |
| 2025-09-14T15:05:00 | 57.819421 | 9.361383 | 2.0 | 16.373 | 2 | 43.720 | 16.616 | 34.296 | 2 |
| 2025-09-14T15:06:00 | 57.817575 | 9.358743 | 2.0 | 16.284 | 2 | 43.549 | 16.530 | 34.220 | 2 |
| 2025-09-14T15:07:00 | 57.815787 | 9.356056 | 2.0 | 16.264 | 2 | 43.402 | 16.454 | 34.156 | 2 |
| 2025-09-14T15:08:00 | 57.814014 | 9.353379 | 2.0 | 16.245 | 2 | 43.377 | 16.440 | 34.146 | 2 |
| 2025-09-14T15:09:00 | 57.812243 | 9.350707 | 2.0 | 16.228 | 2 | 43.343 | 16.414 | 34.138 | 2 |
| 2025-09-14T15:10:00 | 57.810453 | 9.348062 | 2.0 | 16.227 | 2 | 43.317 | 16.399 | 34.128 | 2 |
| 2025-09-14T15:11:00 | 57.808662 | 9.345390 | 2.0 | 16.236 | 2 | 43.312 | 16.399 | 34.123 | 2 |
| 2025-09-14T15:12:00 | 57.806854 | 9.342734 | 2.0 | 16.233 | 2 | 43.311 | 16.405 | 34.117 | 2 |
| 2025-09-14T15:13:00 | 57.805041 | 9.340051 | 2.0 | 16.230 | 2 | 43.304 | 16.402 | 34.114 | 2 |
| 2025-09-14T15:14:00 | 57.803243 | 9.337356 | 2.0 | 16.228 | 2 | 43.301 | 16.400 | 34.113 | 2 |
| 2025-09-14T15:15:00 | 57.801431 | 9.334659 | 2.0 | 16.230 | 2 | 43.296 | 16.398 | 34.110 | 2 |
| 2025-09-14T15:16:00 | 57.799610 | 9.331947 | 2.0 | 16.230 | 2 | 43.293 | 16.400 | 34.106 | 2 |
| 2025-09-14T15:17:00 | 57.797788 | 9.329251 | 2.0 | 16.232 | 2 | 43.290 | 16.399 | 34.104 | 2 |
| 2025-09-14T15:18:00 | 57.795948 | 9.326593 | 2.0 | 16.237 | 2 | 43.288 | 16.402 | 34.100 | 2 |
| 2025-09-14T15:19:00 | 57.794125 | 9.323882 | 2.0 | 16.233 | 2 | 43.284 | 16.406 | 34.093 | 2 |
| 2025-09-14T15:20:00 | 57.792300 | 9.321175 | 2.0 | 16.233 | 2 | 43.280 | 16.401 | 34.093 | 2 |
| 2025-09-14T15:21:00 | 57.790473 | 9.318452 | 2.0 | 16.235 | 2 | 43.249 | 16.402 | 34.065 | 2 |
| 2025-09-14T15:22:00 | 57.788628 | 9.315767 | 2.0 | 16.241 | 2 | 43.235 | 16.405 | 34.050 | 2 |
| 2025-09-14T15:23:00 | 57.786811 | 9.313081 | 2.0 | 16.245 | 2 | 43.265 | 16.411 | 34.072 | 2 |
| 2025-09-14T15:24:00 | 57.784976 | 9.310379 | 2.0 | 16.249 | 2 | 43.257 | 16.414 | 34.062 | 2 |
| 2025-09-14T15:25:00 | 57.783144 | 9.307644 | 2.0 | 16.257 | 2 | 43.253 | 16.419 | 34.054 | 2 |
| 2025-09-14T15:26:00 | 57.781295 | 9.304921 | 2.0 | 16.268 | 2 | 43.262 | 16.428 | 34.055 | 2 |
| 2025-09-14T15:27:00 | 57.779434 | 9.302201 | 2.0 | 16.267 | 2 | 43.265 | 16.433 | 34.053 | 2 |
| 2025-09-14T15:28:00 | 57.777607 | 9.299421 | 2.0 | 16.271 | 2 | 43.262 | 16.437 | 34.047 | 2 |
| 2025-09-14T15:29:00 | 57.775761 | 9.296696 | 2.0 | 16.274 | 2 | 43.260 | 16.439 | 34.043 | 2 |
| 2025-09-14T15:30:00 | 57.773891 | 9.293932 | 2.0 | 16.280 | 2 | 43.260 | 16.444 | 34.039 | 2 |
| 2025-09-14T15:31:00 | 57.772003 | 9.291193 | 2.0 | 16.281 | 2 | 43.260 | 16.448 | 34.036 | 2 |
| 2025-09-14T15:32:00 | 57.770105 | 9.288464 | 2.0 | 16.282 | 2 | 43.260 | 16.449 | 34.035 | 2 |
| 2025-09-14T15:33:00 | 57.768203 | 9.285720 | 2.0 | 16.279 | 2 | 43.261 | 16.450 | 34.035 | 2 |
| 2025-09-14T15:34:00 | 57.766289 | 9.282923 | 2.0 | 16.275 | 2 | 43.264 | 16.445 | 34.042 | 2 |
| 2025-09-14T15:35:00 | 57.764352 | 9.280126 | 2.0 | 16.270 | 2 | 43.264 | 16.443 | 34.044 | 2 |
| 2025-09-14T15:36:00 | 57.762395 | 9.277352 | 2.0 | 16.265 | 2 | 43.265 | 16.439 | 34.048 | 2 |
| 2025-09-14T15:37:00 | 57.760485 | 9.274512 | 2.0 | 16.264 | 2 | 43.262 | 16.433 | 34.050 | 2 |
| 2025-09-14T15:38:00 | 57.758537 | 9.271753 | 2.0 | 16.270 | 2 | 43.260 | 16.432 | 34.049 | 2 |
| 2025-09-14T15:39:00 | 57.756608 | 9.268952 | 2.0 | 16.274 | 2 | 43.264 | 16.439 | 34.047 | 2 |
| 2025-09-14T15:40:00 | 57.754641 | 9.266166 | 2.0 | 16.261 | 2 | 43.264 | 16.440 | 34.046 | 2 |
| 2025-09-14T15:41:00 | 57.752673 | 9.263357 | 2.0 | 16.255 | 2 | 43.271 | 16.427 | 34.063 | 2 |
| 2025-09-14T15:42:00 | 57.750710 | 9.260514 | 2.0 | 16.254 | 2 | 43.277 | 16.424 | 34.071 | 2 |
| 2025-09-14T15:43:00 | 57.748737 | 9.257660 | 2.0 | 16.245 | 2 | 43.283 | 16.420 | 34.080 | 2 |
| 2025-09-14T15:44:00 | 57.746736 | 9.254859 | 2.0 | 16.199 | 2 | 43.293 | 16.409 | 34.098 | 2 |
| 2025-09-14T15:45:00 | 57.744734 | 9.252069 | 2.0 | 16.197 | 2 | 43.309 | 16.368 | 34.147 | 2 |
| 2025-09-14T15:46:00 | 57.742733 | 9.249329 | 2.0 | 16.224 | 2 | 43.324 | 16.373 | 34.156 | 2 |
| 2025-09-14T15:47:00 | 57.740833 | 9.246509 | 2.0 | 16.229 | 2 | 43.328 | 16.393 | 34.143 | 2 |
| 2025-09-14T15:48:00 | 57.738947 | 9.243693 | 2.0 | 16.229 | 2 | 43.323 | 16.397 | 34.135 | 2 |
| 2025-09-14T15:49:00 | 57.738137 | 9.239681 | 2.0 | 16.227 | 2 | 43.323 | 16.397 | 34.135 | 2 |
| 2025-09-14T15:50:00 | 57.739216 | 9.235639 | 2.0 | 16.221 | 2 | 43.326 | 16.393 | 34.141 | 2 |
| 2025-09-14T15:51:00 | 57.741623 | 9.233381 | 2.0 | 16.218 | 2 | 43.331 | 16.389 | 34.149 | 2 |
| 2025-09-14T15:52:00 | 57.744202 | 9.231295 | 2.0 | 16.220 | 2 | 43.337 | 16.384 | 34.158 | 2 |
| 2025-09-14T15:53:00 | 57.746793 | 9.229145 | 2.0 | 16.199 | 2 | 43.353 | 16.386 | 34.171 | 2 |
| 2025-09-14T15:54:00 | 57.749359 | 9.226897 | 2.0 | 16.183 | 2 | 43.360 | 16.359 | 34.200 | 2 |
| 2025-09-14T15:55:00 | 57.751983 | 9.224750 | 2.0 | 16.182 | 2 | 43.342 | 16.354 | 34.188 | 2 |
| 2025-09-14T15:56:00 | 57.754612 | 9.222586 | 2.0 | 16.165 | 2 | 43.352 | 16.349 | 34.202 | 2 |
| 2025-09-14T15:57:00 | 57.757239 | 9.220425 | 2.0 | 16.174 | 2 | 43.349 | 16.335 | 34.211 | 2 |
| 2025-09-14T15:58:00 | 57.759864 | 9.218261 | 2.0 | 16.193 | 2 | 43.357 | 16.345 | 34.209 | 2 |
| 2025-09-14T15:59:00 | 57.762474 | 9.216067 | 2.0 | 16.394 | 2 | 43.389 | 16.373 | 34.214 | 2 |
| 2025-09-14T16:00:00 | 57.765008 | 9.213862 | 2.0 | 16.440 | 2 | 43.690 | 16.567 | 34.312 | 2 |
| 2025-09-14T16:01:00 | 57.767542 | 9.211791 | 2.0 | 16.442 | 2 | 43.751 | 16.604 | 34.334 | 2 |
| 2025-09-14T16:02:00 | 57.770072 | 9.209712 | 2.0 | 16.444 | 2 | 43.752 | 16.606 | 34.333 | 2 |
| 2025-09-14T16:03:00 | 57.772602 | 9.207638 | 2.0 | 16.458 | 2 | 43.757 | 16.612 | 34.332 | 2 |
| 2025-09-14T16:04:00 | 57.775115 | 9.205515 | 2.0 | 16.473 | 2 | 43.775 | 16.623 | 34.339 | 2 |
| 2025-09-14T16:05:00 | 57.777641 | 9.203413 | 2.0 | 16.485 | 2 | 43.792 | 16.640 | 34.339 | 2 |
| 2025-09-14T16:06:00 | 57.780189 | 9.201354 | 2.0 | 16.545 | 2 | 43.817 | 16.657 | 34.346 | 2 |
| 2025-09-14T16:07:00 | 57.782723 | 9.199274 | 2.0 | 16.636 | 2 | 43.895 | 16.724 | 34.357 | 2 |
| 2025-09-14T16:08:00 | 57.785250 | 9.197140 | 2.0 | 16.673 | 2 | 43.994 | 16.805 | 34.374 | 2 |
| 2025-09-14T16:09:00 | 57.787790 | 9.195028 | 2.0 | 16.679 | 2 | 44.029 | 16.833 | 34.381 | 2 |
| 2025-09-14T16:10:00 | 57.790489 | 9.193722 | 2.0 | 16.686 | 2 | 44.034 | 16.842 | 34.378 | 2 |
| 2025-09-14T16:11:00 | 57.793422 | 9.193930 | 2.0 | 16.690 | 2 | 44.040 | 16.849 | 34.377 | 2 |
| 2025-09-14T16:12:00 | 57.796371 | 9.193880 | 2.0 | 16.691 | 2 | 44.041 | 16.854 | 34.373 | 2 |
| 2025-09-14T16:13:00 | 57.799349 | 9.193889 | 2.0 | 16.688 | 2 | 44.041 | 16.854 | 34.373 | 2 |
| 2025-09-14T16:14:00 | 57.802330 | 9.193902 | 2.0 | 16.694 | 2 | 44.039 | 16.852 | 34.373 | 2 |
| 2025-09-14T16:15:00 | 57.805309 | 9.193922 | 2.0 | 16.694 | 2 | 44.044 | 16.861 | 34.370 | 2 |
| 2025-09-14T16:16:00 | 57.808293 | 9.193907 | 2.0 | 16.645 | 2 | 44.036 | 16.852 | 34.371 | 2 |
| 2025-09-14T16:17:00 | 57.811291 | 9.193889 | 2.0 | 16.611 | 2 | 43.979 | 16.804 | 34.362 | 2 |
| 2025-09-14T16:18:00 | 57.814295 | 9.193892 | 2.0 | 16.604 | 2 | 43.936 | 16.776 | 34.348 | 2 |
| 2025-09-14T16:19:00 | 57.817303 | 9.193918 | 2.0 | 16.632 | 2 | 43.929 | 16.774 | 34.344 | 2 |
| 2025-09-14T16:20:00 | 57.820309 | 9.193868 | 2.0 | 16.668 | 2 | 43.986 | 16.804 | 34.368 | 2 |
| 2025-09-14T16:21:00 | 57.823318 | 9.193870 | 2.0 | 16.654 | 2 | 44.026 | 16.830 | 34.381 | 2 |
| 2025-09-14T16:22:00 | 57.826311 | 9.193805 | 2.0 | 16.658 | 2 | 44.014 | 16.818 | 34.381 | 2 |
| 2025-09-14T16:23:00 | 57.829305 | 9.193801 | 2.0 | 16.682 | 2 | 44.030 | 16.826 | 34.388 | 2 |
| 2025-09-14T16:24:00 | 57.832295 | 9.193820 | 2.0 | 16.663 | 2 | 44.050 | 16.843 | 34.391 | 2 |
| 2025-09-14T16:25:00 | 57.835265 | 9.193771 | 2.0 | 16.552 | 2 | 43.976 | 16.805 | 34.359 | 2 |
| 2025-09-14T16:26:00 | 57.838228 | 9.193669 | 2.0 | 16.458 | 2 | 43.795 | 16.712 | 34.280 | 2 |
| 2025-09-14T16:27:00 | 57.841206 | 9.193669 | 2.0 | 16.376 | 2 | 43.621 | 16.615 | 34.210 | 2 |
| 2025-09-14T16:28:00 | 57.844178 | 9.193655 | 2.0 | 16.375 | 2 | 43.508 | 16.551 | 34.166 | 2 |
| 2025-09-14T16:29:00 | 57.847167 | 9.193636 | 2.0 | 16.321 | 2 | 43.471 | 16.538 | 34.144 | 2 |
| 2025-09-14T16:30:00 | 57.850166 | 9.193655 | 2.0 | 16.284 | 2 | 43.383 | 16.488 | 34.110 | 2 |
| 2025-09-14T16:31:00 | 57.853160 | 9.193673 | 2.0 | 16.264 | 2 | 43.324 | 16.450 | 34.090 | 2 |
| 2025-09-14T16:32:00 | 57.856145 | 9.193668 | 2.0 | 16.289 | 2 | 43.238 | 16.439 | 34.024 | 2 |
| 2025-09-14T16:33:00 | 57.859121 | 9.193690 | 2.0 | 16.294 | 2 | 43.219 | 16.458 | 33.991 | 2 |
| 2025-09-14T16:34:00 | 57.862091 | 9.193670 | 2.0 | 16.322 | 2 | 43.219 | 16.467 | 33.983 | 2 |
| 2025-09-14T16:35:00 | 57.865068 | 9.193638 | 2.0 | 16.312 | 2 | 43.212 | 16.485 | 33.962 | 2 |
| 2025-09-14T16:36:00 | 57.868041 | 9.193662 | 2.0 | 16.333 | 2 | 42.827 | 16.476 | 33.631 | 2 |
| 2025-09-14T16:37:00 | 57.871023 | 9.193571 | 2.0 | 16.344 | 2 | 42.197 | 16.503 | 33.057 | 2 |
| 2025-09-14T16:38:00 | 57.873985 | 9.193563 | 2.0 | 16.336 | 2 | 42.019 | 16.507 | 32.898 | 2 |
| 2025-09-14T16:39:00 | 57.876400 | 9.193492 | 2.0 | 16.344 | 2 | 42.007 | 16.501 | 32.892 | 2 |
| 2025-09-14T16:40:00 | 57.878220 | 9.193177 | 2.0 | 16.349 | 2 | 41.755 | 16.509 | 32.665 | 2 |
| 2025-09-14T16:41:00 | 57.879808 | 9.193266 | 2.0 | 16.382 | 2 | 41.618 | 16.518 | 32.538 | 2 |
| 2025-09-14T16:42:00 | 57.881368 | 9.193565 | 2.0 | 16.399 | 2 | 41.547 | 16.546 | 32.454 | 2 |
| 2025-09-14T16:43:00 | 57.883025 | 9.193689 | 2.0 | 16.408 | 2 | 41.495 | 16.559 | 32.398 | 2 |
| 2025-09-14T16:44:00 | 57.885017 | 9.193644 | 2.0 | 16.406 | 2 | 41.471 | 16.571 | 32.367 | 2 |
| 2025-09-14T16:45:00 | 57.887257 | 9.193623 | 2.0 | 16.380 | 2 | 41.488 | 16.564 | 32.388 | 2 |
| 2025-09-14T16:46:00 | 57.889610 | 9.193614 | 2.0 | 16.345 | 2 | 41.530 | 16.538 | 32.445 | 2 |
| 2025-09-14T16:47:00 | 57.892005 | 9.193635 | 2.0 | 16.390 | 2 | 41.567 | 16.520 | 32.492 | 2 |
| 2025-09-14T16:48:00 | 57.894429 | 9.193642 | 2.0 | 16.389 | 2 | 41.380 | 16.553 | 32.303 | 2 |
| 2025-09-14T16:49:00 | 57.896877 | 9.193667 | 2.0 | 16.390 | 2 | 41.436 | 16.553 | 32.351 | 2 |
| 2025-09-14T16:51:00 | 57.901779 | 9.193681 | 2.0 | 16.397 | 2 | 41.167 | 16.560 | 32.111 | 2 |
| 2025-09-14T16:52:00 | 57.904223 | 9.193654 | 2.0 | 16.397 | 2 | 41.359 | 16.564 | 32.275 | 2 |
| 2025-09-14T16:53:00 | 57.906377 | 9.193649 | 2.0 | 16.398 | 2 | 41.352 | 16.563 | 32.270 | 2 |
| 2025-09-14T16:54:00 | 57.907775 | 9.194954 | 2.0 | 16.381 | 2 | 41.354 | 16.561 | 32.273 | 2 |
| 2025-09-14T16:55:00 | 57.907997 | 9.196496 | 2.0 | 16.206 | 2 | 41.602 | 16.507 | 32.533 | 2 |
| 2025-09-14T16:56:00 | 57.907897 | 9.197339 | 2.0 | 16.262 | 2 | 41.845 | 16.391 | 32.841 | 2 |
| 2025-09-14T16:57:00 | 57.907498 | 9.198092 | 2.0 | 16.296 | 2 | 41.803 | 16.424 | 32.777 | 2 |
| 2025-09-14T16:58:00 | 57.906961 | 9.198975 | 2.0 | 16.356 | 2 | 41.527 | 16.476 | 32.493 | 2 |
| 2025-09-14T16:59:00 | 57.906365 | 9.199965 | 2.0 | 16.366 | 2 | 41.471 | 16.520 | 32.409 | 2 |
| 2025-09-14T17:00:00 | 57.905750 | 9.200968 | 2.0 | 16.373 | 2 | 41.491 | 16.529 | 32.419 | 2 |
| 2025-09-14T17:01:00 | 57.905164 | 9.201977 | 2.0 | 16.366 | 2 | 41.332 | 16.533 | 32.277 | 2 |
| 2025-09-14T17:02:00 | 57.904624 | 9.202950 | 2.0 | 16.362 | 2 | 41.214 | 16.527 | 32.179 | 2 |
| 2025-09-14T17:03:00 | 57.904115 | 9.203892 | 2.0 | 16.363 | 2 | 41.390 | 16.525 | 32.334 | 2 |
| 2025-09-14T17:04:00 | 57.903618 | 9.204831 | 2.0 | 16.359 | 2 | 41.443 | 16.526 | 32.379 | 2 |
| 2025-09-14T17:05:00 | 57.903146 | 9.205748 | 2.0 | 16.356 | 2 | 41.306 | 16.522 | 32.263 | 2 |
| 2025-09-14T17:06:00 | 57.902709 | 9.206639 | 2.0 | 16.351 | 2 | 41.345 | 16.518 | 32.300 | 2 |
| 2025-09-14T17:07:00 | 57.902320 | 9.207535 | 2.0 | 16.339 | 2 | 41.401 | 16.509 | 32.356 | 2 |
| 2025-09-14T17:08:00 | 57.901958 | 9.208369 | 2.0 | 16.322 | 2 | 41.425 | 16.504 | 32.381 | 2 |
| 2025-09-14T17:09:00 | 57.901634 | 9.209190 | 2.0 | 16.329 | 2 | 41.370 | 16.467 | 32.363 | 2 |
| 2025-09-14T17:10:00 | 57.901324 | 9.210034 | 2.0 | 16.289 | 2 | 41.413 | 16.486 | 32.386 | 2 |
| 2025-09-14T17:11:00 | 57.901021 | 9.210812 | 2.0 | 16.212 | 2 | 41.590 | 16.425 | 32.590 | 2 |
| 2025-09-14T17:12:00 | 57.900713 | 9.211554 | 2.0 | 16.210 | 2 | 41.813 | 16.393 | 32.811 | 2 |
| 2025-09-14T17:13:00 | 57.900399 | 9.212263 | 2.0 | 16.181 | 2 | 41.902 | 16.374 | 32.905 | 2 |
| 2025-09-14T17:14:00 | 57.900077 | 9.212949 | 2.0 | 16.178 | 2 | 42.079 | 16.337 | 33.091 | 2 |
| 2025-09-14T17:15:00 | 57.899747 | 9.213627 | 2.0 | 16.216 | 2 | 42.030 | 16.353 | 33.035 | 2 |
| 2025-09-14T17:16:00 | 57.899401 | 9.214282 | 2.0 | 16.172 | 2 | 41.839 | 16.369 | 32.854 | 2 |
| 2025-09-14T17:17:00 | 57.899050 | 9.214965 | 2.0 | 16.171 | 2 | 41.989 | 16.347 | 33.004 | 2 |
| 2025-09-14T17:18:00 | 57.898696 | 9.215635 | 2.0 | 16.176 | 2 | 41.921 | 16.338 | 32.951 | 2 |
| 2025-09-14T17:19:00 | 57.898336 | 9.216317 | 2.0 | 16.209 | 2 | 41.879 | 16.358 | 32.898 | 2 |
| 2025-09-14T17:20:00 | 57.897974 | 9.216997 | 2.0 | 16.195 | 2 | 41.854 | 16.371 | 32.865 | 2 |
| 2025-09-14T17:21:00 | 57.897617 | 9.217668 | 2.0 | 16.202 | 2 | 41.975 | 16.360 | 32.980 | 2 |
| 2025-09-14T17:22:00 | 57.897266 | 9.218335 | 2.0 | 16.218 | 2 | 41.938 | 16.376 | 32.935 | 2 |
| 2025-09-14T17:23:00 | 57.896924 | 9.219028 | 2.0 | 16.236 | 2 | 41.938 | 16.388 | 32.925 | 2 |
| 2025-09-14T17:24:00 | 57.896584 | 9.219696 | 2.0 | 16.222 | 2 | 42.022 | 16.388 | 32.999 | 2 |
| 2025-09-14T17:25:00 | 57.896246 | 9.220394 | 2.0 | 16.266 | 2 | 41.900 | 16.409 | 32.874 | 2 |
| 2025-09-14T17:26:00 | 57.895907 | 9.221058 | 2.0 | 16.223 | 2 | 41.921 | 16.418 | 32.885 | 2 |
| 2025-09-14T17:27:00 | 57.895582 | 9.221735 | 2.0 | 16.237 | 2 | 42.162 | 16.394 | 33.116 | 2 |
| 2025-09-14T17:28:00 | 57.895266 | 9.222444 | 2.0 | 16.229 | 2 | 42.104 | 16.406 | 33.056 | 2 |
| 2025-09-14T17:29:00 | 57.894947 | 9.223090 | 2.0 | 16.225 | 2 | 42.216 | 16.396 | 33.162 | 2 |
| 2025-09-14T17:30:00 | 57.894618 | 9.223801 | 2.0 | 16.254 | 2 | 42.177 | 16.400 | 33.125 | 2 |
| 2025-09-14T17:31:00 | 57.894278 | 9.224435 | 2.0 | 16.230 | 2 | 42.169 | 16.406 | 33.113 | 2 |
| 2025-09-14T17:32:00 | 57.893940 | 9.225157 | 2.0 | 16.245 | 2 | 42.201 | 16.409 | 33.138 | 2 |
| 2025-09-14T17:33:00 | 57.893593 | 9.225805 | 2.0 | 16.223 | 2 | 42.237 | 16.408 | 33.171 | 2 |
| 2025-09-14T17:34:00 | 57.893249 | 9.226501 | 2.0 | 16.264 | 2 | 42.307 | 16.410 | 33.230 | 2 |
| 2025-09-14T17:35:00 | 57.892905 | 9.227184 | 2.0 | 16.229 | 2 | 42.283 | 16.417 | 33.203 | 2 |
| 2025-09-14T17:36:00 | 57.892566 | 9.227838 | 2.0 | 16.288 | 2 | 42.396 | 16.407 | 33.311 | 2 |
| 2025-09-14T17:37:00 | 57.892233 | 9.228538 | 2.0 | 16.236 | 2 | 42.074 | 16.446 | 32.996 | 2 |
| 2025-09-14T17:38:00 | 57.891903 | 9.229192 | 2.0 | 16.294 | 2 | 42.487 | 16.411 | 33.387 | 2 |
| 2025-09-14T17:39:00 | 57.891562 | 9.229886 | 2.0 | 16.265 | 2 | 41.856 | 16.460 | 32.794 | 2 |
| 2025-09-14T17:40:00 | 57.891208 | 9.230528 | 2.0 | 16.278 | 2 | 42.170 | 16.431 | 33.093 | 2 |
| 2025-09-14T17:41:00 | 57.890864 | 9.231234 | 2.0 | 16.268 | 2 | 42.012 | 16.447 | 32.941 | 2 |
| 2025-09-14T17:42:00 | 57.890509 | 9.231874 | 2.0 | 16.256 | 2 | 42.337 | 16.418 | 33.250 | 2 |
| 2025-09-14T17:43:00 | 57.890153 | 9.232577 | 2.0 | 16.265 | 2 | 42.153 | 16.428 | 33.080 | 2 |
| 2025-09-14T17:44:00 | 57.889794 | 9.233236 | 2.0 | 16.246 | 2 | 42.076 | 16.423 | 33.017 | 2 |
| 2025-09-14T17:45:00 | 57.889438 | 9.233960 | 2.0 | 16.250 | 2 | 42.187 | 16.414 | 33.122 | 2 |
| 2025-09-14T17:46:00 | 57.889075 | 9.234634 | 2.0 | 16.245 | 2 | 42.063 | 16.414 | 33.013 | 2 |
| 2025-09-14T17:47:00 | 57.888707 | 9.235360 | 2.0 | 16.249 | 2 | 42.243 | 16.409 | 33.175 | 2 |
| 2025-09-14T17:48:00 | 57.888331 | 9.236038 | 2.0 | 16.258 | 2 | 42.601 | 16.418 | 33.482 | 2 |
| 2025-09-14T17:49:00 | 57.887961 | 9.236751 | 2.0 | 16.279 | 2 | 42.490 | 16.423 | 33.380 | 2 |
| 2025-09-14T17:50:00 | 57.887594 | 9.237423 | 2.0 | 16.276 | 2 | 42.917 | 16.443 | 33.738 | 2 |
| 2025-09-14T17:51:00 | 57.887228 | 9.238131 | 2.0 | 16.260 | 2 | 42.703 | 16.437 | 33.555 | 2 |
| 2025-09-14T17:52:00 | 57.886870 | 9.238813 | 2.0 | 16.277 | 2 | 42.450 | 16.433 | 33.337 | 2 |
| 2025-09-14T17:53:00 | 57.886514 | 9.239508 | 2.0 | 16.291 | 2 | 42.365 | 16.433 | 33.262 | 2 |
| 2025-09-14T17:54:00 | 57.886160 | 9.240152 | 2.0 | 16.311 | 2 | 42.850 | 16.467 | 33.659 | 2 |
| 2025-09-14T17:55:00 | 57.885821 | 9.240881 | 2.0 | 16.323 | 2 | 43.004 | 16.476 | 33.787 | 2 |
| 2025-09-14T17:56:00 | 57.885478 | 9.241528 | 2.0 | 16.322 | 2 | 43.104 | 16.483 | 33.869 | 2 |
| 2025-09-14T17:57:00 | 57.885142 | 9.242242 | 2.0 | 16.312 | 2 | 43.068 | 16.481 | 33.839 | 2 |
| 2025-09-14T17:58:00 | 57.884792 | 9.242920 | 2.0 | 16.323 | 2 | 43.016 | 16.479 | 33.795 | 2 |
| 2025-09-14T17:59:00 | 57.884437 | 9.243605 | 2.0 | 16.324 | 2 | 43.135 | 16.486 | 33.893 | 2 |
| 2025-09-14T18:00:00 | 57.884074 | 9.244290 | 2.0 | 16.319 | 2 | 43.145 | 16.487 | 33.901 | 2 |
| 2025-09-14T18:01:00 | 57.883705 | 9.244992 | 2.0 | 16.319 | 2 | 43.171 | 16.483 | 33.928 | 2 |
| 2025-09-14T18:02:00 | 57.883330 | 9.245679 | 2.0 | 16.317 | 2 | 43.101 | 16.480 | 33.869 | 2 |
| 2025-09-14T18:03:00 | 57.882951 | 9.246402 | 2.0 | 16.312 | 2 | 43.168 | 16.480 | 33.928 | 2 |
| 2025-09-14T18:04:00 | 57.882570 | 9.247096 | 2.0 | 16.306 | 2 | 43.197 | 16.475 | 33.957 | 2 |
| 2025-09-14T18:05:00 | 57.882201 | 9.247850 | 2.0 | 16.310 | 2 | 43.227 | 16.471 | 33.987 | 2 |
| 2025-09-14T18:06:00 | 57.881843 | 9.248553 | 2.0 | 16.315 | 2 | 43.223 | 16.475 | 33.980 | 2 |
| 2025-09-14T18:07:00 | 57.881490 | 9.249296 | 2.0 | 16.316 | 2 | 43.294 | 16.479 | 34.039 | 2 |
| 2025-09-14T18:08:00 | 57.881138 | 9.249999 | 2.0 | 16.314 | 2 | 43.293 | 16.479 | 34.038 | 2 |
| 2025-09-14T18:09:00 | 57.880795 | 9.250673 | 2.0 | 16.310 | 2 | 43.303 | 16.478 | 34.048 | 2 |
| 2025-09-14T18:10:00 | 57.880466 | 9.251429 | 2.0 | 16.303 | 2 | 43.301 | 16.474 | 34.050 | 2 |
| 2025-09-14T18:11:00 | 57.880142 | 9.252078 | 2.0 | 16.296 | 2 | 43.303 | 16.464 | 34.060 | 2 |
| 2025-09-14T18:12:00 | 57.879830 | 9.252769 | 2.0 | 16.305 | 2 | 43.286 | 16.464 | 34.045 | 2 |
| 2025-09-14T18:13:00 | 57.879530 | 9.253507 | 2.0 | 16.298 | 2 | 43.287 | 16.465 | 34.045 | 2 |
| 2025-09-14T18:14:00 | 57.879236 | 9.254132 | 2.0 | 16.301 | 2 | 43.282 | 16.462 | 34.043 | 2 |
| 2025-09-14T18:15:00 | 57.878950 | 9.254853 | 2.0 | 16.297 | 2 | 43.270 | 16.464 | 34.031 | 2 |
| 2025-09-14T18:16:00 | 57.878650 | 9.255560 | 2.0 | 16.288 | 2 | 43.275 | 16.458 | 34.040 | 2 |
| 2025-09-14T18:17:00 | 57.878326 | 9.256247 | 2.0 | 16.287 | 2 | 43.257 | 16.451 | 34.031 | 2 |
| 2025-09-14T18:18:00 | 57.877983 | 9.256920 | 2.0 | 16.283 | 2 | 43.259 | 16.449 | 34.034 | 2 |
| 2025-09-14T18:19:00 | 57.877619 | 9.257592 | 2.0 | 16.279 | 2 | 43.242 | 16.446 | 34.022 | 2 |
| 2025-09-14T18:20:00 | 57.877239 | 9.258250 | 2.0 | 16.269 | 2 | 43.249 | 16.440 | 34.033 | 2 |
| 2025-09-14T18:21:00 | 57.876848 | 9.258936 | 2.0 | 16.263 | 2 | 43.198 | 16.432 | 33.995 | 2 |
| 2025-09-14T18:22:00 | 57.876452 | 9.259610 | 2.0 | 16.253 | 2 | 43.126 | 16.423 | 33.939 | 2 |
| 2025-09-14T18:23:00 | 57.876061 | 9.260331 | 2.0 | 16.256 | 2 | 43.108 | 16.409 | 33.935 | 2 |
| 2025-09-14T18:24:00 | 57.875685 | 9.261017 | 2.0 | 16.238 | 2 | 43.116 | 16.408 | 33.943 | 2 |
| 2025-09-14T18:25:00 | 57.875316 | 9.261741 | 2.0 | 16.231 | 2 | 43.114 | 16.400 | 33.948 | 2 |
| 2025-09-14T18:26:00 | 57.874963 | 9.262444 | 2.0 | 16.253 | 2 | 43.090 | 16.388 | 33.937 | 2 |
| 2025-09-14T18:27:00 | 57.874628 | 9.263185 | 2.0 | 16.197 | 2 | 43.138 | 16.394 | 33.974 | 2 |
| 2025-09-14T18:28:00 | 57.874303 | 9.263918 | 2.0 | 16.235 | 2 | 43.077 | 16.372 | 33.939 | 2 |
| 2025-09-14T18:29:00 | 57.873972 | 9.264634 | 2.0 | 16.246 | 2 | 43.180 | 16.404 | 34.003 | 2 |
| 2025-09-14T18:30:00 | 57.873629 | 9.265353 | 2.0 | 16.245 | 2 | 43.195 | 16.404 | 34.016 | 2 |
| 2025-09-14T18:31:00 | 57.873278 | 9.266048 | 2.0 | 16.234 | 2 | 43.179 | 16.396 | 34.009 | 2 |
| 2025-09-14T18:32:00 | 57.872912 | 9.266773 | 2.0 | 16.242 | 2 | 43.189 | 16.398 | 34.016 | 2 |
| 2025-09-14T18:33:00 | 57.872540 | 9.267481 | 2.0 | 16.239 | 2 | 43.196 | 16.398 | 34.022 | 2 |
| 2025-09-14T18:34:00 | 57.872163 | 9.268180 | 2.0 | 16.210 | 2 | 43.196 | 16.396 | 34.024 | 2 |
| 2025-09-14T18:35:00 | 57.871784 | 9.268829 | 2.0 | 16.199 | 2 | 43.147 | 16.372 | 34.001 | 2 |
| 2025-09-14T18:36:00 | 57.871403 | 9.269502 | 2.0 | 16.201 | 2 | 43.131 | 16.362 | 33.995 | 2 |
| 2025-09-14T18:37:00 | 57.871023 | 9.270141 | 2.0 | 16.171 | 2 | 43.142 | 16.362 | 34.005 | 2 |
| 2025-09-14T18:38:00 | 57.870636 | 9.270819 | 2.0 | 16.182 | 2 | 43.086 | 16.335 | 33.979 | 2 |
| 2025-09-14T18:39:00 | 57.870256 | 9.271492 | 2.0 | 16.261 | 2 | 43.165 | 16.359 | 34.028 | 2 |
| 2025-09-14T18:40:00 | 57.869871 | 9.272162 | 2.0 | 16.272 | 2 | 43.300 | 16.422 | 34.093 | 2 |
| 2025-09-14T18:41:00 | 57.869479 | 9.272827 | 2.0 | 16.295 | 2 | 43.338 | 16.441 | 34.110 | 2 |
| 2025-09-14T18:42:00 | 57.869082 | 9.273473 | 2.0 | 16.306 | 2 | 43.370 | 16.458 | 34.124 | 2 |
| 2025-09-14T18:43:00 | 57.868683 | 9.274154 | 2.0 | 16.317 | 2 | 43.395 | 16.470 | 34.136 | 2 |
| 2025-09-14T18:44:00 | 57.868296 | 9.274768 | 2.0 | 16.335 | 2 | 43.424 | 16.484 | 34.149 | 2 |
| 2025-09-14T18:45:00 | 57.867914 | 9.275465 | 2.0 | 16.346 | 2 | 43.452 | 16.498 | 34.162 | 2 |
| 2025-09-14T18:46:00 | 57.867550 | 9.276085 | 2.0 | 16.358 | 2 | 43.473 | 16.510 | 34.170 | 2 |
| 2025-09-14T18:47:00 | 57.867192 | 9.276740 | 2.0 | 16.362 | 2 | 43.496 | 16.523 | 34.179 | 2 |
| 2025-09-14T18:48:00 | 57.866839 | 9.277347 | 2.0 | 16.358 | 2 | 43.506 | 16.524 | 34.187 | 2 |
| 2025-09-14T18:49:00 | 57.866492 | 9.278004 | 2.0 | 16.356 | 2 | 43.507 | 16.522 | 34.190 | 2 |
| 2025-09-14T18:50:00 | 57.866149 | 9.278617 | 2.0 | 16.354 | 2 | 43.504 | 16.519 | 34.190 | 2 |
| 2025-09-14T18:51:00 | 57.865807 | 9.279311 | 2.0 | 16.357 | 2 | 43.503 | 16.517 | 34.191 | 2 |
| 2025-09-14T18:52:00 | 57.865464 | 9.279976 | 2.0 | 16.352 | 2 | 43.506 | 16.519 | 34.191 | 2 |
| 2025-09-14T18:53:00 | 57.865108 | 9.280681 | 2.0 | 16.354 | 2 | 43.508 | 16.517 | 34.195 | 2 |
| 2025-09-14T18:54:00 | 57.864749 | 9.281348 | 2.0 | 16.371 | 2 | 43.513 | 16.520 | 34.197 | 2 |
| 2025-09-14T18:55:00 | 57.864379 | 9.282027 | 2.0 | 16.384 | 2 | 43.536 | 16.535 | 34.204 | 2 |
| 2025-09-14T18:56:00 | 57.864012 | 9.282723 | 2.0 | 16.390 | 2 | 43.556 | 16.546 | 34.212 | 2 |
| 2025-09-14T18:57:00 | 57.863646 | 9.283406 | 2.0 | 16.401 | 2 | 43.559 | 16.552 | 34.210 | 2 |
| 2025-09-14T18:58:00 | 57.863274 | 9.284091 | 2.0 | 16.405 | 2 | 43.581 | 16.565 | 34.218 | 2 |
| 2025-09-14T18:59:00 | 57.862894 | 9.284730 | 2.0 | 16.410 | 2 | 43.590 | 16.567 | 34.224 | 2 |
| 2025-09-14T19:00:00 | 57.862387 | 9.285322 | 2.0 | 16.432 | 2 | 43.607 | 16.576 | 34.231 | 2 |
| 2025-09-14T19:01:00 | 57.861998 | 9.285964 | 2.0 | 16.441 | 2 | 43.641 | 16.597 | 34.243 | 2 |
| 2025-09-14T19:02:00 | 57.861614 | 9.286589 | 2.0 | 16.440 | 2 | 43.654 | 16.604 | 34.249 | 2 |
| 2025-09-14T19:03:00 | 57.861225 | 9.287238 | 2.0 | 16.443 | 2 | 43.653 | 16.604 | 34.248 | 2 |
| 2025-09-14T19:04:00 | 57.860841 | 9.287860 | 2.0 | 16.453 | 2 | 43.656 | 16.606 | 34.249 | 2 |
| 2025-09-14T19:05:00 | 57.860459 | 9.288524 | 2.0 | 16.470 | 2 | 43.684 | 16.624 | 34.258 | 2 |
| 2025-09-14T19:06:00 | 57.860082 | 9.289173 | 2.0 | 16.479 | 2 | 43.702 | 16.633 | 34.266 | 2 |
| 2025-09-14T19:07:00 | 57.859828 | 9.289881 | 2.0 | 16.490 | 2 | 43.721 | 16.641 | 34.276 | 2 |
| 2025-09-14T19:08:00 | 57.859454 | 9.290527 | 2.0 | 16.507 | 2 | 43.743 | 16.652 | 34.286 | 2 |
| 2025-09-14T19:09:00 | 57.859076 | 9.291201 | 2.0 | 16.538 | 2 | 43.775 | 16.672 | 34.297 | 2 |
| 2025-09-14T19:10:00 | 57.858693 | 9.291825 | 2.0 | 16.515 | 2 | 43.806 | 16.692 | 34.307 | 2 |
| 2025-09-14T19:11:00 | 57.858304 | 9.292500 | 2.0 | 16.539 | 2 | 43.795 | 16.683 | 34.305 | 2 |
| 2025-09-14T19:12:00 | 57.857917 | 9.293140 | 2.0 | 16.543 | 2 | 43.822 | 16.702 | 34.312 | 2 |
| 2025-09-14T19:13:00 | 57.857521 | 9.293801 | 2.0 | 16.554 | 2 | 43.834 | 16.708 | 34.317 | 2 |
| 2025-09-14T19:14:00 | 57.857129 | 9.294476 | 2.0 | 16.578 | 2 | 43.861 | 16.722 | 34.329 | 2 |
| 2025-09-14T19:15:00 | 57.856731 | 9.295195 | 2.0 | 16.616 | 2 | 43.912 | 16.743 | 34.356 | 2 |
| 2025-09-14T19:16:00 | 57.856330 | 9.295941 | 2.0 | 16.611 | 2 | 43.977 | 16.773 | 34.387 | 2 |
| 2025-09-14T19:17:00 | 57.855934 | 9.296672 | 2.0 | 16.602 | 2 | 43.973 | 16.769 | 34.387 | 2 |
| 2025-09-14T19:18:00 | 57.855538 | 9.297436 | 2.0 | 16.596 | 2 | 43.964 | 16.761 | 34.386 | 2 |
| 2025-09-14T19:19:00 | 57.855153 | 9.298177 | 2.0 | 16.588 | 2 | 43.958 | 16.759 | 34.382 | 2 |
| 2025-09-14T19:20:00 | 57.854782 | 9.298969 | 2.0 | 16.579 | 2 | 43.942 | 16.748 | 34.378 | 2 |
| 2025-09-14T19:21:00 | 57.854429 | 9.299694 | 2.0 | 16.594 | 2 | 43.936 | 16.744 | 34.376 | 2 |
| 2025-09-14T19:22:00 | 57.854082 | 9.300487 | 2.0 | 16.619 | 2 | 43.959 | 16.762 | 34.381 | 2 |
| 2025-09-14T19:23:00 | 57.853749 | 9.301207 | 2.0 | 16.617 | 2 | 43.981 | 16.778 | 34.386 | 2 |
| 2025-09-14T19:24:00 | 57.853429 | 9.301999 | 2.0 | 16.605 | 2 | 43.980 | 16.777 | 34.386 | 2 |
| 2025-09-14T19:25:00 | 57.853111 | 9.302734 | 2.0 | 16.603 | 2 | 43.955 | 16.763 | 34.376 | 2 |
| 2025-09-14T19:26:00 | 57.852795 | 9.303504 | 2.0 | 16.597 | 2 | 43.957 | 16.763 | 34.378 | 2 |
| 2025-09-14T19:27:00 | 57.852480 | 9.304262 | 2.0 | 16.594 | 2 | 43.952 | 16.758 | 34.378 | 2 |
| 2025-09-14T19:28:00 | 57.852174 | 9.305059 | 2.0 | 16.582 | 2 | 43.949 | 16.756 | 34.377 | 2 |
| 2025-09-14T19:29:00 | 57.851865 | 9.305813 | 2.0 | 16.564 | 2 | 43.930 | 16.741 | 34.373 | 2 |
| 2025-09-14T19:30:00 | 57.851560 | 9.306603 | 2.0 | 16.564 | 2 | 43.909 | 16.727 | 34.367 | 2 |
| 2025-09-14T19:31:00 | 57.851251 | 9.307403 | 2.0 | 16.567 | 2 | 43.902 | 16.725 | 34.362 | 2 |
| 2025-09-14T19:32:00 | 57.850947 | 9.308191 | 2.0 | 16.569 | 2 | 43.904 | 16.730 | 34.360 | 2 |
| 2025-09-14T19:33:00 | 57.850642 | 9.308986 | 2.0 | 16.559 | 2 | 43.903 | 16.729 | 34.360 | 2 |
| 2025-09-14T19:34:00 | 57.850341 | 9.309771 | 2.0 | 16.553 | 2 | 43.891 | 16.722 | 34.355 | 2 |
| 2025-09-14T19:35:00 | 57.850033 | 9.310541 | 2.0 | 16.549 | 2 | 43.880 | 16.717 | 34.350 | 2 |
| 2025-09-14T19:36:00 | 57.849716 | 9.311341 | 2.0 | 16.535 | 2 | 43.868 | 16.709 | 34.346 | 2 |
| 2025-09-14T19:37:00 | 57.849405 | 9.312159 | 2.0 | 16.530 | 2 | 43.850 | 16.697 | 34.341 | 2 |
| 2025-09-14T19:38:00 | 57.849098 | 9.312978 | 2.0 | 16.524 | 2 | 43.840 | 16.691 | 34.337 | 2 |
| 2025-09-14T19:39:00 | 57.848792 | 9.313794 | 2.0 | 16.513 | 2 | 43.829 | 16.684 | 34.334 | 2 |
| 2025-09-14T19:40:00 | 57.848496 | 9.314478 | 2.0 | 16.512 | 2 | 43.819 | 16.676 | 34.332 | 2 |
| 2025-09-14T19:41:00 | 57.848197 | 9.315234 | 2.0 | 16.509 | 2 | 43.809 | 16.675 | 34.324 | 2 |
| 2025-09-14T19:42:00 | 57.847893 | 9.315951 | 2.0 | 16.507 | 2 | 43.810 | 16.673 | 34.326 | 2 |
| 2025-09-14T19:43:00 | 57.847591 | 9.316676 | 2.0 | 16.506 | 2 | 43.809 | 16.671 | 34.327 | 2 |
| 2025-09-14T19:44:00 | 57.847282 | 9.317374 | 2.0 | 16.505 | 2 | 43.805 | 16.667 | 34.327 | 2 |
| 2025-09-14T19:45:00 | 57.846956 | 9.318079 | 2.0 | 16.514 | 2 | 43.809 | 16.670 | 34.328 | 2 |
| 2025-09-14T19:46:00 | 57.846604 | 9.318773 | 2.0 | 16.508 | 2 | 43.815 | 16.674 | 34.330 | 2 |
| 2025-09-14T19:47:00 | 57.846232 | 9.319499 | 2.0 | 16.514 | 2 | 43.815 | 16.673 | 34.331 | 2 |
| 2025-09-14T19:48:00 | 57.845842 | 9.320172 | 2.0 | 16.520 | 2 | 43.822 | 16.676 | 34.334 | 2 |
| 2025-09-14T19:49:00 | 57.845442 | 9.320906 | 2.0 | 16.530 | 2 | 43.836 | 16.686 | 34.338 | 2 |
| 2025-09-14T19:50:00 | 57.845038 | 9.321599 | 2.0 | 16.530 | 2 | 43.839 | 16.689 | 34.338 | 2 |
| 2025-09-14T19:51:00 | 57.844621 | 9.322334 | 2.0 | 16.536 | 2 | 43.846 | 16.695 | 34.339 | 2 |
| 2025-09-14T19:52:00 | 57.844207 | 9.323048 | 2.0 | 16.548 | 2 | 43.853 | 16.700 | 34.341 | 2 |
| 2025-09-14T19:53:00 | 57.843789 | 9.323770 | 2.0 | 16.558 | 2 | 43.863 | 16.708 | 34.343 | 2 |
| 2025-09-14T19:54:00 | 57.843370 | 9.324484 | 2.0 | 16.571 | 2 | 43.882 | 16.722 | 34.347 | 2 |
| 2025-09-14T19:55:00 | 57.842950 | 9.325165 | 2.0 | 16.577 | 2 | 43.898 | 16.731 | 34.354 | 2 |
| 2025-09-14T19:56:00 | 57.842521 | 9.325879 | 2.0 | 16.584 | 2 | 43.913 | 16.741 | 34.358 | 2 |
| 2025-09-14T19:57:00 | 57.842088 | 9.326566 | 2.0 | 16.586 | 2 | 43.914 | 16.743 | 34.357 | 2 |
| 2025-09-14T19:58:00 | 57.841647 | 9.327289 | 2.0 | 16.584 | 2 | 43.915 | 16.746 | 34.356 | 2 |
| 2025-09-14T19:59:00 | 57.841210 | 9.328002 | 2.0 | 16.581 | 2 | 43.908 | 16.743 | 34.352 | 2 |
| 2025-09-14T20:00:00 | 57.840780 | 9.328725 | 2.0 | 16.596 | 2 | 43.910 | 16.745 | 34.352 | 2 |
| 2025-09-14T20:01:00 | 57.840351 | 9.329406 | 2.0 | 16.612 | 2 | 43.932 | 16.759 | 34.360 | 2 |
| 2025-09-14T20:02:00 | 57.839933 | 9.330113 | 2.0 | 16.625 | 2 | 43.953 | 16.776 | 34.363 | 2 |
| 2025-09-14T20:03:00 | 57.839550 | 9.331119 | 2.0 | 16.626 | 2 | 43.963 | 16.785 | 34.364 | 2 |
| 2025-09-14T20:04:00 | 57.839283 | 9.332492 | 2.0 | 16.630 | 2 | 43.971 | 16.789 | 34.368 | 2 |
| 2025-09-14T20:05:00 | 57.839242 | 9.334120 | 2.0 | 16.630 | 2 | 43.975 | 16.791 | 34.370 | 2 |
| 2025-09-14T20:06:00 | 57.839487 | 9.335727 | 2.0 | 16.630 | 2 | 43.977 | 16.791 | 34.371 | 2 |
| 2025-09-14T20:07:00 | 57.839953 | 9.337026 | 2.0 | 16.628 | 2 | 43.976 | 16.789 | 34.372 | 2 |
| 2025-09-14T20:08:00 | 57.840539 | 9.337859 | 2.0 | 16.621 | 2 | 43.974 | 16.787 | 34.372 | 2 |
| 2025-09-14T20:09:00 | 57.841194 | 9.338220 | 2.0 | 16.621 | 2 | 43.968 | 16.782 | 34.371 | 2 |
| 2025-09-14T20:10:00 | 57.841766 | 9.338034 | 2.0 | 16.609 | 2 | 43.965 | 16.780 | 34.370 | 2 |
| 2025-09-14T20:11:00 | 57.842354 | 9.337504 | 2.0 | 16.592 | 2 | 43.949 | 16.768 | 34.367 | 2 |
| 2025-09-14T20:12:00 | 57.842910 | 9.336855 | 2.0 | 16.580 | 2 | 43.926 | 16.752 | 34.360 | 2 |
| 2025-09-14T20:13:00 | 57.843442 | 9.336199 | 2.0 | 16.574 | 2 | 43.908 | 16.743 | 34.352 | 2 |
| 2025-09-14T20:14:00 | 57.843909 | 9.335543 | 2.0 | 16.569 | 2 | 43.898 | 16.735 | 34.350 | 2 |
| 2025-09-14T20:15:00 | 57.844344 | 9.334898 | 2.0 | 16.564 | 2 | 43.893 | 16.730 | 34.350 | 2 |
| 2025-09-14T20:16:00 | 57.844734 | 9.334270 | 2.0 | 16.553 | 2 | 43.887 | 16.724 | 34.350 | 2 |
| 2025-09-14T20:17:00 | 57.845121 | 9.333652 | 2.0 | 16.553 | 2 | 43.873 | 16.715 | 34.346 | 2 |
| 2025-09-14T20:18:00 | 57.845492 | 9.332979 | 2.0 | 16.567 | 2 | 43.874 | 16.718 | 34.344 | 2 |
| 2025-09-14T20:19:00 | 57.845857 | 9.332238 | 2.0 | 16.542 | 2 | 43.887 | 16.724 | 34.350 | 2 |
| 2025-09-14T20:20:00 | 57.846247 | 9.331449 | 2.0 | 16.529 | 2 | 43.861 | 16.704 | 34.344 | 2 |
| 2025-09-14T20:21:00 | 57.846636 | 9.330635 | 2.0 | 16.508 | 2 | 43.833 | 16.685 | 34.336 | 2 |
| 2025-09-14T20:22:00 | 57.847026 | 9.329842 | 2.0 | 16.496 | 2 | 43.807 | 16.668 | 34.328 | 2 |
| 2025-09-14T20:23:00 | 57.847416 | 9.329073 | 2.0 | 16.492 | 2 | 43.791 | 16.659 | 34.322 | 2 |
| 2025-09-14T20:24:00 | 57.847812 | 9.328311 | 2.0 | 16.487 | 2 | 43.784 | 16.655 | 34.319 | 2 |
| 2025-09-14T20:25:00 | 57.848205 | 9.327563 | 2.0 | 16.484 | 2 | 43.776 | 16.650 | 34.316 | 2 |
| 2025-09-14T20:26:00 | 57.848587 | 9.326820 | 2.0 | 16.481 | 2 | 43.770 | 16.647 | 34.314 | 2 |
| 2025-09-14T20:27:00 | 57.848980 | 9.326081 | 2.0 | 16.476 | 2 | 43.767 | 16.645 | 34.313 | 2 |
| 2025-09-14T20:28:00 | 57.849378 | 9.325355 | 2.0 | 16.475 | 2 | 43.760 | 16.640 | 34.311 | 2 |
| 2025-09-14T20:29:00 | 57.849769 | 9.324651 | 2.0 | 16.473 | 2 | 43.756 | 16.637 | 34.310 | 2 |
| 2025-09-14T20:30:00 | 57.850160 | 9.323960 | 2.0 | 16.480 | 2 | 43.754 | 16.638 | 34.307 | 2 |
| 2025-09-14T20:31:00 | 57.850548 | 9.323275 | 2.0 | 16.478 | 2 | 43.763 | 16.643 | 34.311 | 2 |
| 2025-09-14T20:32:00 | 57.850932 | 9.322571 | 2.0 | 16.473 | 2 | 43.757 | 16.639 | 34.309 | 2 |
| 2025-09-14T20:33:00 | 57.851324 | 9.321865 | 2.0 | 16.473 | 2 | 43.752 | 16.635 | 34.308 | 2 |
| 2025-09-14T20:34:00 | 57.851715 | 9.321153 | 2.0 | 16.473 | 2 | 43.752 | 16.635 | 34.308 | 2 |
| 2025-09-14T20:35:00 | 57.852101 | 9.320419 | 2.0 | 16.471 | 2 | 43.752 | 16.635 | 34.308 | 2 |
| 2025-09-14T20:36:00 | 57.852485 | 9.319675 | 2.0 | 16.470 | 2 | 43.750 | 16.634 | 34.307 | 2 |
| 2025-09-14T20:37:00 | 57.852868 | 9.318933 | 2.0 | 16.474 | 2 | 43.749 | 16.633 | 34.307 | 2 |
| 2025-09-14T20:38:00 | 57.853255 | 9.318188 | 2.0 | 16.470 | 2 | 43.752 | 16.636 | 34.307 | 2 |
| 2025-09-14T20:39:00 | 57.853637 | 9.317436 | 2.0 | 16.472 | 2 | 43.748 | 16.633 | 34.306 | 2 |
| 2025-09-14T20:40:00 | 57.854030 | 9.316689 | 2.0 | 16.470 | 2 | 43.750 | 16.635 | 34.306 | 2 |
| 2025-09-14T20:41:00 | 57.854430 | 9.315944 | 2.0 | 16.466 | 2 | 43.743 | 16.632 | 34.303 | 2 |
| 2025-09-14T20:42:00 | 57.854850 | 9.315226 | 2.0 | 16.463 | 2 | 43.734 | 16.628 | 34.298 | 2 |
| 2025-09-14T20:43:00 | 57.855273 | 9.314563 | 2.0 | 16.463 | 2 | 43.731 | 16.626 | 34.297 | 2 |
| 2025-09-14T20:44:00 | 57.855694 | 9.313935 | 2.0 | 16.464 | 2 | 43.729 | 16.626 | 34.296 | 2 |
| 2025-09-14T20:45:00 | 57.856126 | 9.313347 | 2.0 | 16.460 | 2 | 43.730 | 16.626 | 34.297 | 2 |
| 2025-09-14T20:46:00 | 57.856538 | 9.312782 | 2.0 | 16.447 | 2 | 43.723 | 16.619 | 34.296 | 2 |
| 2025-09-14T20:47:00 | 57.856947 | 9.312200 | 2.0 | 16.443 | 2 | 43.712 | 16.609 | 34.295 | 2 |
| 2025-09-14T20:48:00 | 57.857360 | 9.311602 | 2.0 | 16.449 | 2 | 43.709 | 16.606 | 34.295 | 2 |
| 2025-09-14T20:49:00 | 57.857767 | 9.310996 | 2.0 | 16.451 | 2 | 43.716 | 16.611 | 34.297 | 2 |
| 2025-09-14T20:50:00 | 57.858168 | 9.310388 | 2.0 | 16.458 | 2 | 43.721 | 16.616 | 34.297 | 2 |
| 2025-09-14T20:51:00 | 57.858566 | 9.309771 | 2.0 | 16.456 | 2 | 43.725 | 16.617 | 34.300 | 2 |
| 2025-09-14T20:52:00 | 57.858950 | 9.309128 | 2.0 | 16.451 | 2 | 43.725 | 16.617 | 34.300 | 2 |
| 2025-09-14T20:53:00 | 57.859338 | 9.308480 | 2.0 | 16.447 | 2 | 43.714 | 16.611 | 34.295 | 2 |
| 2025-09-14T20:54:00 | 57.859716 | 9.307813 | 2.0 | 16.443 | 2 | 43.710 | 16.607 | 34.295 | 2 |
| 2025-09-14T20:55:00 | 57.860097 | 9.307133 | 2.0 | 16.445 | 2 | 43.708 | 16.606 | 34.294 | 2 |
| 2025-09-14T20:56:00 | 57.860484 | 9.306461 | 2.0 | 16.444 | 2 | 43.706 | 16.605 | 34.293 | 2 |
| 2025-09-14T20:57:00 | 57.860881 | 9.305790 | 2.0 | 16.443 | 2 | 43.704 | 16.605 | 34.292 | 2 |
| 2025-09-14T20:58:00 | 57.861274 | 9.305117 | 2.0 | 16.443 | 2 | 43.704 | 16.605 | 34.292 | 2 |
| 2025-09-14T20:59:00 | 57.861663 | 9.304446 | 2.0 | 16.436 | 2 | 43.700 | 16.602 | 34.291 | 2 |
| 2025-09-14T21:00:00 | 57.862043 | 9.303753 | 2.0 | 16.439 | 2 | 43.696 | 16.599 | 34.290 | 2 |
| 2025-09-14T21:01:00 | 57.862420 | 9.303040 | 2.0 | 16.438 | 2 | 43.697 | 16.600 | 34.290 | 2 |
| 2025-09-14T21:02:00 | 57.862782 | 9.302295 | 2.0 | 16.438 | 2 | 43.694 | 16.599 | 34.288 | 2 |
| 2025-09-14T21:03:00 | 57.863155 | 9.301517 | 2.0 | 16.435 | 2 | 43.693 | 16.600 | 34.286 | 2 |
| 2025-09-14T21:04:00 | 57.863541 | 9.300717 | 2.0 | 16.430 | 2 | 43.687 | 16.596 | 34.284 | 2 |
| 2025-09-14T21:05:00 | 57.863926 | 9.299896 | 2.0 | 16.428 | 2 | 43.679 | 16.592 | 34.281 | 2 |
| 2025-09-14T21:06:00 | 57.864294 | 9.299089 | 2.0 | 16.425 | 2 | 43.675 | 16.590 | 34.279 | 2 |
| 2025-09-14T21:07:00 | 57.864686 | 9.298294 | 2.0 | 16.425 | 2 | 43.670 | 16.587 | 34.277 | 2 |
| 2025-09-14T21:08:00 | 57.865093 | 9.297505 | 2.0 | 16.432 | 2 | 43.670 | 16.589 | 34.276 | 2 |
| 2025-09-14T21:09:00 | 57.865507 | 9.296737 | 2.0 | 16.428 | 2 | 43.676 | 16.593 | 34.277 | 2 |
| 2025-09-14T21:10:00 | 57.865925 | 9.296022 | 2.0 | 16.430 | 2 | 43.674 | 16.590 | 34.278 | 2 |
| 2025-09-14T21:11:00 | 57.866329 | 9.295358 | 2.0 | 16.437 | 2 | 43.676 | 16.594 | 34.277 | 2 |
| 2025-09-14T21:12:00 | 57.866715 | 9.294711 | 2.0 | 16.430 | 2 | 43.681 | 16.598 | 34.278 | 2 |
| 2025-09-14T21:13:00 | 57.867102 | 9.294068 | 2.0 | 16.428 | 2 | 43.665 | 16.592 | 34.269 | 2 |
| 2025-09-14T21:14:00 | 57.867479 | 9.293429 | 2.0 | 16.444 | 2 | 43.665 | 16.594 | 34.267 | 2 |
| 2025-09-14T21:15:00 | 57.867864 | 9.292794 | 2.0 | 16.446 | 2 | 43.678 | 16.605 | 34.269 | 2 |
| 2025-09-14T21:16:00 | 57.868231 | 9.292170 | 2.0 | 16.446 | 2 | 43.682 | 16.608 | 34.270 | 2 |
| 2025-09-14T21:17:00 | 57.868590 | 9.291528 | 2.0 | 16.448 | 2 | 43.683 | 16.609 | 34.270 | 2 |
| 2025-09-14T21:18:00 | 57.868938 | 9.290862 | 2.0 | 16.444 | 2 | 43.686 | 16.610 | 34.272 | 2 |
| 2025-09-14T21:19:00 | 57.869279 | 9.290132 | 2.0 | 16.438 | 2 | 43.680 | 16.604 | 34.271 | 2 |
| 2025-09-14T21:20:00 | 57.869617 | 9.289382 | 2.0 | 16.441 | 2 | 43.675 | 16.600 | 34.271 | 2 |
| 2025-09-14T21:21:00 | 57.869988 | 9.288620 | 2.0 | 16.446 | 2 | 43.680 | 16.604 | 34.271 | 2 |
| 2025-09-14T21:22:00 | 57.870366 | 9.287851 | 2.0 | 16.453 | 2 | 43.689 | 16.610 | 34.274 | 2 |
| 2025-09-14T21:23:00 | 57.870779 | 9.287068 | 2.0 | 16.463 | 2 | 43.697 | 16.617 | 34.275 | 2 |
| 2025-09-14T21:24:00 | 57.871175 | 9.286283 | 2.0 | 16.467 | 2 | 43.706 | 16.624 | 34.277 | 2 |
| 2025-09-14T21:25:00 | 57.871564 | 9.285506 | 2.0 | 16.467 | 2 | 43.714 | 16.629 | 34.280 | 2 |
| 2025-09-14T21:26:00 | 57.871954 | 9.284752 | 2.0 | 16.480 | 2 | 43.719 | 16.634 | 34.280 | 2 |
| 2025-09-14T21:27:00 | 57.872364 | 9.284046 | 2.0 | 16.479 | 2 | 43.727 | 16.640 | 34.282 | 2 |
| 2025-09-14T21:28:00 | 57.872770 | 9.283359 | 2.0 | 16.485 | 2 | 43.728 | 16.643 | 34.280 | 2 |
| 2025-09-14T21:29:00 | 57.873159 | 9.282672 | 2.0 | 16.490 | 2 | 43.733 | 16.649 | 34.279 | 2 |
| 2025-09-14T21:30:00 | 57.873552 | 9.281969 | 2.0 | 16.488 | 2 | 43.734 | 16.651 | 34.279 | 2 |
| 2025-09-14T21:31:00 | 57.873933 | 9.281255 | 2.0 | 16.475 | 2 | 43.729 | 16.651 | 34.274 | 2 |
| 2025-09-14T21:32:00 | 57.874326 | 9.280567 | 2.0 | 16.379 | 2 | 43.684 | 16.615 | 34.266 | 2 |
| 2025-09-14T21:33:00 | 57.874724 | 9.279918 | 2.0 | 16.359 | 2 | 43.573 | 16.542 | 34.231 | 2 |
| 2025-09-14T21:34:00 | 57.875121 | 9.279294 | 2.0 | 16.375 | 2 | 43.543 | 16.529 | 34.215 | 2 |
| 2025-09-14T21:35:00 | 57.875513 | 9.278670 | 2.0 | 16.346 | 2 | 43.547 | 16.533 | 34.215 | 2 |
| 2025-09-14T21:36:00 | 57.875900 | 9.278035 | 2.0 | 16.327 | 2 | 43.507 | 16.505 | 34.204 | 2 |
| 2025-09-14T21:37:00 | 57.876281 | 9.277387 | 2.0 | 16.320 | 2 | 43.483 | 16.490 | 34.196 | 2 |
| 2025-09-14T21:38:00 | 57.876668 | 9.276732 | 2.0 | 16.319 | 2 | 43.475 | 16.484 | 34.194 | 2 |
| 2025-09-14T21:39:00 | 57.877060 | 9.276093 | 2.0 | 16.313 | 2 | 43.469 | 16.480 | 34.192 | 2 |
| 2025-09-14T21:40:00 | 57.877437 | 9.275439 | 2.0 | 16.310 | 2 | 43.462 | 16.476 | 34.190 | 2 |
| 2025-09-14T21:41:00 | 57.877808 | 9.274762 | 2.0 | 16.306 | 2 | 43.455 | 16.471 | 34.188 | 2 |
| 2025-09-14T21:42:00 | 57.878188 | 9.274049 | 2.0 | 16.303 | 2 | 43.450 | 16.469 | 34.185 | 2 |
| 2025-09-14T21:43:00 | 57.878570 | 9.273328 | 2.0 | 16.300 | 2 | 43.446 | 16.466 | 34.184 | 2 |
| 2025-09-14T21:44:00 | 57.878953 | 9.272614 | 2.0 | 16.270 | 2 | 43.438 | 16.460 | 34.182 | 2 |
| 2025-09-14T21:45:00 | 57.879349 | 9.271917 | 2.0 | 16.256 | 2 | 43.398 | 16.433 | 34.170 | 2 |
| 2025-09-14T21:46:00 | 57.879749 | 9.271270 | 2.0 | 16.225 | 2 | 43.365 | 16.415 | 34.156 | 2 |
| 2025-09-14T21:47:00 | 57.880153 | 9.270671 | 2.0 | 16.221 | 2 | 43.312 | 16.391 | 34.130 | 2 |
| 2025-09-14T21:48:00 | 57.880555 | 9.270094 | 2.0 | 16.229 | 2 | 43.296 | 16.383 | 34.123 | 2 |
| 2025-09-14T21:49:00 | 57.880939 | 9.269527 | 2.0 | 16.245 | 2 | 43.313 | 16.397 | 34.126 | 2 |
| 2025-09-14T21:50:00 | 57.881313 | 9.268949 | 2.0 | 16.238 | 2 | 43.312 | 16.403 | 34.120 | 2 |
| 2025-09-14T21:51:00 | 57.881697 | 9.268349 | 2.0 | 16.265 | 2 | 43.302 | 16.407 | 34.108 | 2 |
| 2025-09-14T21:52:00 | 57.882079 | 9.267698 | 2.0 | 16.267 | 2 | 43.330 | 16.427 | 34.115 | 2 |
| 2025-09-14T21:53:00 | 57.882483 | 9.266996 | 2.0 | 16.252 | 2 | 43.320 | 16.425 | 34.108 | 2 |
| 2025-09-14T21:54:00 | 57.882862 | 9.266253 | 2.0 | 16.228 | 2 | 43.281 | 16.409 | 34.088 | 2 |
| 2025-09-14T21:55:00 | 57.883254 | 9.265471 | 2.0 | 16.213 | 2 | 43.231 | 16.389 | 34.061 | 2 |
| 2025-09-14T21:56:00 | 57.883644 | 9.264646 | 2.0 | 16.206 | 2 | 43.183 | 16.378 | 34.028 | 2 |
| 2025-09-14T21:57:00 | 57.884030 | 9.263793 | 2.0 | 16.208 | 2 | 43.156 | 16.371 | 34.010 | 2 |
| 2025-09-14T21:58:00 | 57.884409 | 9.262925 | 2.0 | 16.176 | 2 | 43.124 | 16.364 | 33.988 | 2 |
| 2025-09-14T21:59:00 | 57.884780 | 9.262068 | 2.0 | 16.136 | 2 | 43.066 | 16.336 | 33.960 | 2 |
| 2025-09-14T22:00:00 | 57.885149 | 9.261203 | 2.0 | 16.161 | 2 | 43.014 | 16.312 | 33.935 | 2 |
| 2025-09-14T22:01:00 | 57.885521 | 9.260347 | 2.0 | 16.156 | 2 | 43.053 | 16.325 | 33.958 | 2 |
| 2025-09-14T22:02:00 | 57.885899 | 9.259505 | 2.0 | 16.160 | 2 | 43.053 | 16.318 | 33.964 | 2 |
| 2025-09-14T22:03:00 | 57.886268 | 9.258655 | 2.0 | 16.176 | 2 | 43.069 | 16.326 | 33.972 | 2 |
| 2025-09-14T22:04:00 | 57.886651 | 9.257806 | 2.0 | 16.172 | 2 | 43.089 | 16.336 | 33.981 | 2 |
| 2025-09-14T22:05:00 | 57.887037 | 9.256959 | 2.0 | 16.180 | 2 | 43.090 | 16.334 | 33.983 | 2 |
| 2025-09-14T22:06:00 | 57.887420 | 9.256117 | 2.0 | 16.190 | 2 | 43.110 | 16.342 | 33.994 | 2 |
| 2025-09-14T22:07:00 | 57.887797 | 9.255273 | 2.0 | 16.201 | 2 | 43.139 | 16.355 | 34.009 | 2 |
| 2025-09-14T22:08:00 | 57.888173 | 9.254422 | 2.0 | 16.200 | 2 | 43.159 | 16.364 | 34.018 | 2 |
| 2025-09-14T22:09:00 | 57.888548 | 9.253580 | 2.0 | 16.167 | 2 | 43.156 | 16.357 | 34.022 | 2 |
| 2025-09-14T22:10:00 | 57.888915 | 9.252759 | 2.0 | 16.105 | 2 | 43.083 | 16.323 | 33.986 | 2 |
| 2025-09-14T22:11:00 | 57.889290 | 9.251970 | 2.0 | 16.065 | 2 | 42.967 | 16.270 | 33.929 | 2 |
| 2025-09-14T22:12:00 | 57.889650 | 9.251184 | 2.0 | 16.037 | 2 | 42.840 | 16.230 | 33.851 | 2 |
| 2025-09-14T22:13:00 | 57.890007 | 9.250405 | 2.0 | 16.016 | 2 | 42.700 | 16.199 | 33.754 | 2 |
| 2025-09-14T22:14:00 | 57.890353 | 9.249639 | 2.0 | 15.995 | 2 | 42.570 | 16.172 | 33.662 | 2 |
| 2025-09-14T22:15:00 | 57.890690 | 9.248875 | 2.0 | 16.000 | 2 | 42.446 | 16.162 | 33.561 | 2 |
| 2025-09-14T22:16:00 | 57.891027 | 9.248093 | 2.0 | 16.048 | 2 | 42.462 | 16.191 | 33.550 | 2 |
| 2025-09-14T22:17:00 | 57.891390 | 9.247316 | 2.0 | 16.029 | 2 | 42.498 | 16.214 | 33.563 | 2 |
| 2025-09-14T22:18:00 | 57.891753 | 9.246537 | 2.0 | 16.057 | 2 | 42.460 | 16.206 | 33.536 | 2 |
| 2025-09-14T22:19:00 | 57.892112 | 9.245746 | 2.0 | 16.090 | 2 | 42.559 | 16.231 | 33.602 | 2 |
| 2025-09-14T22:20:00 | 57.892484 | 9.244941 | 2.0 | 16.095 | 2 | 42.666 | 16.255 | 33.676 | 2 |
| 2025-09-14T22:21:00 | 57.892866 | 9.244131 | 2.0 | 16.107 | 2 | 42.700 | 16.261 | 33.701 | 2 |
| 2025-09-14T22:22:00 | 57.893257 | 9.243329 | 2.0 | 16.112 | 2 | 42.736 | 16.273 | 33.723 | 2 |
| 2025-09-14T22:23:00 | 57.893640 | 9.242525 | 2.0 | 16.143 | 2 | 42.762 | 16.279 | 33.741 | 2 |
| 2025-09-14T22:24:00 | 57.894018 | 9.241703 | 2.0 | 16.168 | 2 | 42.929 | 16.321 | 33.852 | 2 |
| 2025-09-14T22:25:00 | 57.894413 | 9.240883 | 2.0 | 16.086 | 2 | 42.908 | 16.303 | 33.849 | 2 |
| 2025-09-14T22:26:00 | 57.894806 | 9.240054 | 2.0 | 16.085 | 2 | 42.714 | 16.254 | 33.720 | 2 |
| 2025-09-14T22:27:00 | 57.895227 | 9.239254 | 2.0 | 16.093 | 2 | 42.682 | 16.251 | 33.694 | 2 |
| 2025-09-14T22:28:00 | 57.895637 | 9.238439 | 2.0 | 16.076 | 2 | 42.628 | 16.251 | 33.646 | 2 |
| 2025-09-14T22:29:00 | 57.896065 | 9.237640 | 2.0 | 16.052 | 2 | 42.559 | 16.235 | 33.599 | 2 |
| 2025-09-14T22:30:00 | 57.896465 | 9.236867 | 2.0 | 16.027 | 2 | 42.463 | 16.214 | 33.532 | 2 |
| 2025-09-14T22:31:00 | 57.896929 | 9.236182 | 2.0 | 16.009 | 2 | 42.311 | 16.192 | 33.416 | 2 |
| 2025-09-14T22:32:00 | 57.897359 | 9.235518 | 2.0 | 15.979 | 2 | 42.124 | 16.168 | 33.271 | 2 |
| 2025-09-14T22:33:00 | 57.897813 | 9.234896 | 2.0 | 15.949 | 2 | 41.990 | 16.148 | 33.170 | 2 |
| 2025-09-14T22:34:00 | 57.898186 | 9.234246 | 2.0 | 15.955 | 2 | 41.748 | 16.116 | 32.983 | 2 |
| 2025-09-14T22:35:00 | 57.898564 | 9.233631 | 2.0 | 16.007 | 2 | 41.484 | 16.126 | 32.742 | 2 |
| 2025-09-14T22:36:00 | 57.898910 | 9.233004 | 2.0 | 16.038 | 2 | 41.322 | 16.174 | 32.560 | 2 |
| 2025-09-14T22:37:00 | 57.899250 | 9.232388 | 2.0 | 16.047 | 2 | 41.216 | 16.200 | 32.446 | 2 |
| 2025-09-14T22:38:00 | 57.899587 | 9.231778 | 2.0 | 16.086 | 2 | 41.183 | 16.217 | 32.403 | 2 |
| 2025-09-14T22:39:00 | 57.899919 | 9.231155 | 2.0 | 16.084 | 2 | 41.109 | 16.244 | 32.316 | 2 |
| 2025-09-14T22:40:00 | 57.900258 | 9.230525 | 2.0 | 16.074 | 2 | 41.107 | 16.260 | 32.301 | 2 |
| 2025-09-14T22:41:00 | 57.900590 | 9.229883 | 2.0 | 16.077 | 2 | 40.979 | 16.241 | 32.204 | 2 |
| 2025-09-14T22:42:00 | 57.900912 | 9.229235 | 2.0 | 16.108 | 2 | 40.935 | 16.248 | 32.160 | 2 |
| 2025-09-14T22:43:00 | 57.901230 | 9.228576 | 2.0 | 16.118 | 2 | 40.927 | 16.272 | 32.134 | 2 |
| 2025-09-14T22:44:00 | 57.901547 | 9.227906 | 2.0 | 16.126 | 2 | 40.892 | 16.281 | 32.096 | 2 |
| 2025-09-14T22:45:00 | 57.901878 | 9.227192 | 2.0 | 16.144 | 2 | 40.860 | 16.290 | 32.060 | 2 |
| 2025-09-14T22:46:00 | 57.902224 | 9.226429 | 2.0 | 16.158 | 2 | 40.828 | 16.305 | 32.020 | 2 |
| 2025-09-14T22:47:00 | 57.902584 | 9.225622 | 2.0 | 16.175 | 2 | 40.790 | 16.323 | 31.973 | 2 |
| 2025-09-14T22:48:00 | 57.902959 | 9.224776 | 2.0 | 16.188 | 2 | 40.780 | 16.338 | 31.952 | 2 |
| 2025-09-14T22:49:00 | 57.903334 | 9.223900 | 2.0 | 16.193 | 2 | 40.774 | 16.348 | 31.939 | 2 |
| 2025-09-14T22:50:00 | 57.903710 | 9.223022 | 2.0 | 16.205 | 2 | 40.767 | 16.357 | 31.925 | 2 |
| 2025-09-14T22:51:00 | 57.904094 | 9.222146 | 2.0 | 16.204 | 2 | 40.770 | 16.365 | 31.922 | 2 |
| 2025-09-14T22:52:00 | 57.904499 | 9.221296 | 2.0 | 16.201 | 2 | 40.775 | 16.363 | 31.928 | 2 |
| 2025-09-14T22:53:00 | 57.904917 | 9.220440 | 2.0 | 16.183 | 2 | 40.779 | 16.362 | 31.932 | 2 |
| 2025-09-14T22:54:00 | 57.905324 | 9.219573 | 2.0 | 16.182 | 2 | 40.727 | 16.341 | 31.903 | 2 |
| 2025-09-14T22:55:00 | 57.905735 | 9.218721 | 2.0 | 16.203 | 2 | 40.679 | 16.349 | 31.855 | 2 |
| 2025-09-14T22:56:00 | 57.906145 | 9.217894 | 2.0 | 16.217 | 2 | 40.666 | 16.369 | 31.828 | 2 |
| 2025-09-14T22:57:00 | 57.906546 | 9.217081 | 2.0 | 16.224 | 2 | 40.643 | 16.377 | 31.801 | 2 |
| 2025-09-14T22:58:00 | 57.906947 | 9.216278 | 2.0 | 16.251 | 2 | 40.604 | 16.390 | 31.757 | 2 |
| 2025-09-14T22:59:00 | 57.907345 | 9.215466 | 2.0 | 16.267 | 2 | 40.600 | 16.414 | 31.734 | 2 |
| 2025-09-14T23:00:00 | 57.907730 | 9.214633 | 2.0 | 16.275 | 2 | 40.597 | 16.428 | 31.721 | 2 |
| 2025-09-14T23:01:00 | 57.908110 | 9.213782 | 2.0 | 16.280 | 2 | 40.593 | 16.437 | 31.710 | 2 |
| 2025-09-14T23:02:00 | 57.908507 | 9.212960 | 2.0 | 16.294 | 2 | 40.582 | 16.445 | 31.694 | 2 |
| 2025-09-14T23:03:00 | 57.908897 | 9.212141 | 2.0 | 16.299 | 2 | 40.576 | 16.454 | 31.682 | 2 |
| 2025-09-14T23:04:00 | 57.909291 | 9.211327 | 2.0 | 16.301 | 2 | 40.575 | 16.462 | 31.674 | 2 |
| 2025-09-14T23:05:00 | 57.909679 | 9.210509 | 2.0 | 16.301 | 2 | 40.565 | 16.462 | 31.666 | 2 |
| 2025-09-14T23:06:00 | 57.910069 | 9.209691 | 2.0 | 16.291 | 2 | 40.556 | 16.460 | 31.659 | 2 |
| 2025-09-14T23:07:00 | 57.910474 | 9.208903 | 2.0 | 16.294 | 2 | 40.543 | 16.453 | 31.654 | 2 |
| 2025-09-14T23:08:00 | 57.910867 | 9.208123 | 2.0 | 16.296 | 2 | 40.551 | 16.457 | 31.657 | 2 |
| 2025-09-14T23:09:00 | 57.911255 | 9.207325 | 2.0 | 16.298 | 2 | 40.563 | 16.459 | 31.666 | 2 |
| 2025-09-14T23:10:00 | 57.911660 | 9.206511 | 2.0 | 16.309 | 2 | 40.582 | 16.461 | 31.681 | 2 |
| 2025-09-14T23:11:00 | 57.912076 | 9.205685 | 2.0 | 16.295 | 2 | 40.605 | 16.464 | 31.699 | 2 |
| 2025-09-14T23:12:00 | 57.912489 | 9.204875 | 2.0 | 16.299 | 2 | 40.601 | 16.456 | 31.702 | 2 |
| 2025-09-14T23:13:00 | 57.912915 | 9.204068 | 2.0 | 16.302 | 2 | 40.642 | 16.461 | 31.734 | 2 |
| 2025-09-14T23:14:00 | 57.913342 | 9.203256 | 2.0 | 16.295 | 2 | 40.678 | 16.463 | 31.763 | 2 |
| 2025-09-14T23:15:00 | 57.913772 | 9.202435 | 2.0 | 16.284 | 2 | 40.667 | 16.455 | 31.760 | 2 |
| 2025-09-14T23:16:00 | 57.914218 | 9.201628 | 2.0 | 16.292 | 2 | 40.635 | 16.446 | 31.739 | 2 |
| 2025-09-14T23:17:00 | 57.914829 | 9.201173 | 2.0 | 16.292 | 2 | 40.634 | 16.454 | 31.732 | 2 |
| 2025-09-14T23:18:00 | 57.915512 | 9.201473 | 2.0 | 16.295 | 2 | 40.642 | 16.455 | 31.738 | 2 |
| 2025-09-14T23:19:00 | 57.916007 | 9.202427 | 2.0 | 16.291 | 2 | 40.663 | 16.455 | 31.757 | 2 |
| 2025-09-14T23:20:00 | 57.916400 | 9.203596 | 2.0 | 16.284 | 2 | 40.681 | 16.451 | 31.775 | 2 |
| 2025-09-14T23:21:00 | 57.916826 | 9.204811 | 2.0 | 16.278 | 2 | 40.689 | 16.444 | 31.788 | 2 |
| 2025-09-14T23:22:00 | 57.917300 | 9.206036 | 2.0 | 16.283 | 2 | 40.709 | 16.441 | 31.808 | 2 |
| 2025-09-14T23:23:00 | 57.917792 | 9.207264 | 2.0 | 16.282 | 2 | 40.739 | 16.444 | 31.832 | 2 |
| 2025-09-14T23:24:00 | 57.918300 | 9.208497 | 2.0 | 16.280 | 2 | 40.755 | 16.443 | 31.846 | 2 |
| 2025-09-14T23:25:00 | 57.918818 | 9.209746 | 2.0 | 16.271 | 2 | 40.767 | 16.439 | 31.860 | 2 |
| 2025-09-14T23:26:00 | 57.919346 | 9.211011 | 2.0 | 16.271 | 2 | 40.781 | 16.434 | 31.876 | 2 |
| 2025-09-14T23:27:00 | 57.919776 | 9.212351 | 2.0 | 16.284 | 2 | 40.814 | 16.437 | 31.902 | 2 |
| 2025-09-14T23:28:00 | 57.919932 | 9.213629 | 2.0 | 16.289 | 2 | 40.855 | 16.446 | 31.931 | 2 |
| 2025-09-14T23:29:00 | 57.919905 | 9.214752 | 2.0 | 16.281 | 2 | 40.869 | 16.450 | 31.940 | 2 |
| 2025-09-14T23:30:00 | 57.919777 | 9.215805 | 2.0 | 16.281 | 2 | 40.846 | 16.440 | 31.928 | 2 |
| 2025-09-14T23:31:00 | 57.919564 | 9.216752 | 2.0 | 16.278 | 2 | 40.856 | 16.442 | 31.935 | 2 |
| 2025-09-14T23:32:00 | 57.919292 | 9.217605 | 2.0 | 16.267 | 2 | 40.839 | 16.437 | 31.924 | 2 |
| 2025-09-14T23:33:00 | 57.918964 | 9.218368 | 2.0 | 16.262 | 2 | 40.787 | 16.427 | 31.887 | 2 |
| 2025-09-14T23:34:00 | 57.918563 | 9.219092 | 2.0 | 16.258 | 2 | 40.753 | 16.422 | 31.861 | 2 |
| 2025-09-14T23:35:00 | 57.918108 | 9.219729 | 2.0 | 16.247 | 2 | 40.730 | 16.416 | 31.846 | 2 |
| 2025-09-14T23:36:00 | 57.917626 | 9.220375 | 2.0 | 16.254 | 2 | 40.714 | 16.410 | 31.837 | 2 |
| 2025-09-14T23:37:00 | 57.917136 | 9.221030 | 2.0 | 16.245 | 2 | 40.708 | 16.413 | 31.829 | 2 |
| 2025-09-14T23:38:00 | 57.916645 | 9.221702 | 2.0 | 16.254 | 2 | 40.690 | 16.408 | 31.818 | 2 |
| 2025-09-14T23:39:00 | 57.916159 | 9.222361 | 2.0 | 16.261 | 2 | 40.690 | 16.416 | 31.811 | 2 |
| 2025-09-14T23:40:00 | 57.915694 | 9.223070 | 2.0 | 16.269 | 2 | 40.688 | 16.423 | 31.804 | 2 |
| 2025-09-14T23:41:00 | 57.915241 | 9.223725 | 2.0 | 16.275 | 2 | 40.693 | 16.432 | 31.801 | 2 |
| 2025-09-14T23:42:00 | 57.914803 | 9.224464 | 2.0 | 16.275 | 2 | 40.688 | 16.435 | 31.794 | 2 |
| 2025-09-14T23:43:00 | 57.914358 | 9.225127 | 2.0 | 16.296 | 2 | 40.726 | 16.444 | 31.820 | 2 |
| 2025-09-14T23:44:00 | 57.913933 | 9.225843 | 2.0 | 16.295 | 2 | 40.800 | 16.458 | 31.874 | 2 |
| 2025-09-14T23:45:00 | 57.913512 | 9.226510 | 2.0 | 16.291 | 2 | 40.731 | 16.454 | 31.817 | 2 |
| 2025-09-14T23:46:00 | 57.913101 | 9.227212 | 2.0 | 16.290 | 2 | 40.694 | 16.452 | 31.786 | 2 |
| 2025-09-14T23:47:00 | 57.912681 | 9.227860 | 2.0 | 16.292 | 2 | 40.682 | 16.453 | 31.775 | 2 |
| 2025-09-14T23:48:00 | 57.912274 | 9.228608 | 2.0 | 16.284 | 2 | 40.673 | 16.453 | 31.767 | 2 |
| 2025-09-14T23:49:00 | 57.911860 | 9.229298 | 2.0 | 16.284 | 2 | 40.656 | 16.449 | 31.755 | 2 |
| 2025-09-14T23:50:00 | 57.911446 | 9.230017 | 2.0 | 16.283 | 2 | 40.627 | 16.444 | 31.734 | 2 |
| 2025-09-14T23:51:00 | 57.911027 | 9.230720 | 2.0 | 16.289 | 2 | 40.621 | 16.447 | 31.726 | 2 |
| 2025-09-14T23:52:00 | 57.910611 | 9.231446 | 2.0 | 16.287 | 2 | 40.628 | 16.448 | 31.732 | 2 |
| 2025-09-14T23:53:00 | 57.910196 | 9.232152 | 2.0 | 16.274 | 2 | 40.617 | 16.445 | 31.724 | 2 |
| 2025-09-14T23:54:00 | 57.909786 | 9.232852 | 2.0 | 16.273 | 2 | 40.606 | 16.437 | 31.721 | 2 |
| 2025-09-14T23:55:00 | 57.909383 | 9.233542 | 2.0 | 16.252 | 2 | 40.614 | 16.432 | 31.732 | 2 |
| 2025-09-14T23:56:00 | 57.908981 | 9.234242 | 2.0 | 16.243 | 2 | 40.588 | 16.414 | 31.724 | 2 |
| 2025-09-14T23:57:00 | 57.908574 | 9.234941 | 2.0 | 16.242 | 2 | 40.583 | 16.404 | 31.727 | 2 |
| 2025-09-14T23:58:00 | 57.908154 | 9.235634 | 2.0 | 16.235 | 2 | 40.590 | 16.404 | 31.734 | 2 |
| 2025-09-14T23:59:00 | 57.907764 | 9.236428 | 2.0 | 16.219 | 2 | 40.597 | 16.394 | 31.748 | 2 |
| 2025-09-15T00:00:00 | 57.907368 | 9.237207 | 2.0 | 16.214 | 2 | 40.606 | 16.381 | 31.766 | 2 |
| 2025-09-15T00:01:00 | 57.906978 | 9.237994 | 2.0 | 16.186 | 2 | 40.636 | 16.372 | 31.799 | 2 |
| 2025-09-15T00:02:00 | 57.906595 | 9.238776 | 2.0 | 16.182 | 2 | 40.622 | 16.350 | 31.804 | 2 |
| 2025-09-15T00:03:00 | 57.906217 | 9.239554 | 2.0 | 16.172 | 2 | 40.652 | 16.344 | 31.835 | 2 |
| 2025-09-15T00:04:00 | 57.905833 | 9.240302 | 2.0 | 16.158 | 2 | 40.661 | 16.333 | 31.852 | 2 |
| 2025-09-15T00:05:00 | 57.905452 | 9.241055 | 2.0 | 16.142 | 2 | 40.681 | 16.319 | 31.881 | 2 |
| 2025-09-15T00:06:00 | 57.905067 | 9.241778 | 2.0 | 16.155 | 2 | 40.696 | 16.308 | 31.903 | 2 |
| 2025-09-15T00:07:00 | 57.904692 | 9.242544 | 2.0 | 16.156 | 2 | 40.734 | 16.318 | 31.928 | 2 |
| 2025-09-15T00:08:00 | 57.904308 | 9.243275 | 2.0 | 16.159 | 2 | 40.745 | 16.321 | 31.935 | 2 |
| 2025-09-15T00:09:00 | 57.903924 | 9.244024 | 2.0 | 16.216 | 2 | 40.773 | 16.325 | 31.956 | 2 |
| 2025-09-15T00:10:00 | 57.903540 | 9.244784 | 2.0 | 16.258 | 2 | 41.602 | 16.390 | 32.629 | 2 |
| 2025-09-15T00:11:00 | 57.903166 | 9.245549 | 2.0 | 16.245 | 2 | 42.000 | 16.412 | 32.959 | 2 |
| 2025-09-15T00:12:00 | 57.902795 | 9.246281 | 2.0 | 16.203 | 2 | 41.846 | 16.401 | 32.834 | 2 |
| 2025-09-15T00:13:00 | 57.902422 | 9.247036 | 2.0 | 16.230 | 2 | 41.468 | 16.371 | 32.527 | 2 |
| 2025-09-15T00:14:00 | 57.902039 | 9.247794 | 2.0 | 16.229 | 2 | 41.948 | 16.387 | 32.934 | 2 |
| 2025-09-15T00:15:00 | 57.901658 | 9.248522 | 2.0 | 16.217 | 2 | 41.953 | 16.388 | 32.938 | 2 |
| 2025-09-15T00:16:00 | 57.901272 | 9.249272 | 2.0 | 16.201 | 2 | 41.776 | 16.374 | 32.794 | 2 |
| 2025-09-15T00:17:00 | 57.900884 | 9.249999 | 2.0 | 16.189 | 2 | 41.652 | 16.356 | 32.701 | 2 |
| 2025-09-15T00:18:00 | 57.900500 | 9.250758 | 2.0 | 16.189 | 2 | 42.039 | 16.353 | 33.042 | 2 |
| 2025-09-15T00:19:00 | 57.900096 | 9.251387 | 2.0 | 16.157 | 2 | 41.936 | 16.345 | 32.959 | 2 |
| 2025-09-15T00:20:00 | 57.899735 | 9.252156 | 2.0 | 16.159 | 2 | 41.902 | 16.325 | 32.945 | 2 |
| 2025-09-15T00:21:00 | 57.899363 | 9.252884 | 2.0 | 16.113 | 2 | 41.665 | 16.314 | 32.746 | 2 |
| 2025-09-15T00:22:00 | 57.899006 | 9.253674 | 2.0 | 16.121 | 2 | 42.206 | 16.278 | 33.252 | 2 |
| 2025-09-15T00:23:00 | 57.898647 | 9.254415 | 2.0 | 16.124 | 2 | 42.145 | 16.287 | 33.190 | 2 |
| 2025-09-15T00:24:00 | 57.898296 | 9.255202 | 2.0 | 16.070 | 2 | 42.045 | 16.283 | 33.106 | 2 |
| 2025-09-15T00:25:00 | 57.897932 | 9.255969 | 2.0 | 16.084 | 2 | 42.247 | 16.238 | 33.321 | 2 |
| 2025-09-15T00:26:00 | 57.897571 | 9.256771 | 2.0 | 16.062 | 2 | 42.176 | 16.239 | 33.258 | 2 |
| 2025-09-15T00:27:00 | 57.897191 | 9.257519 | 2.0 | 16.065 | 2 | 42.233 | 16.230 | 33.316 | 2 |
| 2025-09-15T00:28:00 | 57.896830 | 9.258360 | 2.0 | 16.046 | 2 | 42.231 | 16.224 | 33.319 | 2 |
| 2025-09-15T00:29:00 | 57.896444 | 9.259076 | 2.0 | 16.045 | 2 | 42.303 | 16.211 | 33.393 | 2 |
| 2025-09-15T00:30:00 | 57.896075 | 9.259842 | 2.0 | 16.035 | 2 | 42.252 | 16.209 | 33.350 | 2 |
| 2025-09-15T00:31:00 | 57.895703 | 9.260589 | 2.0 | 16.042 | 2 | 42.432 | 16.199 | 33.517 | 2 |
| 2025-09-15T00:32:00 | 57.895333 | 9.261354 | 2.0 | 16.039 | 2 | 42.022 | 16.207 | 33.149 | 2 |
| 2025-09-15T00:33:00 | 57.894959 | 9.262113 | 2.0 | 16.032 | 2 | 42.167 | 16.202 | 33.281 | 2 |
| 2025-09-15T00:34:00 | 57.894590 | 9.262901 | 2.0 | 16.031 | 2 | 42.191 | 16.196 | 33.307 | 2 |
| 2025-09-15T00:35:00 | 57.894198 | 9.263619 | 2.0 | 16.038 | 2 | 42.159 | 16.196 | 33.279 | 2 |
| 2025-09-15T00:36:00 | 57.893802 | 9.264381 | 2.0 | 16.039 | 2 | 42.196 | 16.198 | 33.310 | 2 |
| 2025-09-15T00:37:00 | 57.893391 | 9.265108 | 2.0 | 16.041 | 2 | 42.204 | 16.195 | 33.319 | 2 |
| 2025-09-15T00:38:00 | 57.892991 | 9.265892 | 2.0 | 16.049 | 2 | 42.387 | 16.212 | 33.466 | 2 |
| 2025-09-15T00:39:00 | 57.892581 | 9.266594 | 2.0 | 16.037 | 2 | 42.425 | 16.206 | 33.505 | 2 |
| 2025-09-15T00:40:00 | 57.892206 | 9.267393 | 2.0 | 16.041 | 2 | 42.639 | 16.199 | 33.700 | 2 |
| 2025-09-15T00:41:00 | 57.891841 | 9.268196 | 2.0 | 16.054 | 2 | 42.904 | 16.210 | 33.925 | 2 |
| 2025-09-15T00:42:00 | 57.891489 | 9.268888 | 2.0 | 16.039 | 2 | 42.955 | 16.215 | 33.966 | 2 |
| 2025-09-15T00:43:00 | 57.891172 | 9.269723 | 2.0 | 16.018 | 2 | 42.936 | 16.201 | 33.961 | 2 |
| 2025-09-15T00:44:00 | 57.890854 | 9.270491 | 2.0 | 16.007 | 2 | 42.887 | 16.175 | 33.940 | 2 |
| 2025-09-15T00:45:00 | 57.890557 | 9.271296 | 2.0 | 16.063 | 2 | 42.905 | 16.180 | 33.951 | 2 |
| 2025-09-15T00:46:00 | 57.890246 | 9.272048 | 2.0 | 16.058 | 2 | 42.982 | 16.222 | 33.984 | 2 |
| 2025-09-15T00:47:00 | 57.889937 | 9.272836 | 2.0 | 16.038 | 2 | 42.978 | 16.216 | 33.985 | 2 |
| 2025-09-15T00:48:00 | 57.889634 | 9.273642 | 2.0 | 16.021 | 2 | 42.957 | 16.200 | 33.980 | 2 |
| 2025-09-15T00:49:00 | 57.889321 | 9.274385 | 2.0 | 16.014 | 2 | 42.935 | 16.183 | 33.975 | 2 |
| 2025-09-15T00:50:00 | 57.889001 | 9.275125 | 2.0 | 16.013 | 2 | 42.936 | 16.180 | 33.979 | 2 |
| 2025-09-15T00:51:00 | 57.888651 | 9.275851 | 2.0 | 16.025 | 2 | 42.938 | 16.176 | 33.984 | 2 |
| 2025-09-15T00:52:00 | 57.888261 | 9.276525 | 2.0 | 16.168 | 2 | 43.003 | 16.213 | 34.010 | 2 |
| 2025-09-15T00:53:00 | 57.887851 | 9.277191 | 2.0 | 16.182 | 2 | 43.180 | 16.319 | 34.075 | 2 |
| 2025-09-15T00:54:00 | 57.887425 | 9.277852 | 2.0 | 16.193 | 2 | 43.235 | 16.346 | 34.101 | 2 |
| 2025-09-15T00:55:00 | 57.886984 | 9.278511 | 2.0 | 16.176 | 2 | 43.245 | 16.348 | 34.108 | 2 |
| 2025-09-15T00:56:00 | 57.886541 | 9.279207 | 2.0 | 16.188 | 2 | 43.235 | 16.339 | 34.107 | 2 |
| 2025-09-15T00:57:00 | 57.886103 | 9.279915 | 2.0 | 16.223 | 2 | 43.267 | 16.360 | 34.117 | 2 |
| 2025-09-15T00:58:00 | 57.885663 | 9.280601 | 2.0 | 16.247 | 2 | 43.314 | 16.386 | 34.136 | 2 |
| 2025-09-15T00:59:00 | 57.885216 | 9.281318 | 2.0 | 16.260 | 2 | 43.353 | 16.409 | 34.151 | 2 |
| 2025-09-15T01:00:00 | 57.884766 | 9.282013 | 2.0 | 16.245 | 2 | 43.375 | 16.420 | 34.161 | 2 |
| 2025-09-15T01:01:00 | 57.884312 | 9.282702 | 2.0 | 16.230 | 2 | 43.353 | 16.402 | 34.157 | 2 |
| 2025-09-15T01:02:00 | 57.883863 | 9.283416 | 2.0 | 16.233 | 2 | 43.341 | 16.394 | 34.153 | 2 |
| 2025-09-15T01:03:00 | 57.883427 | 9.284104 | 2.0 | 16.236 | 2 | 43.343 | 16.396 | 34.153 | 2 |
| 2025-09-15T01:04:00 | 57.882990 | 9.284805 | 2.0 | 16.234 | 2 | 43.342 | 16.397 | 34.152 | 2 |
| 2025-09-15T01:05:00 | 57.882568 | 9.285555 | 2.0 | 16.236 | 2 | 43.337 | 16.395 | 34.149 | 2 |
| 2025-09-15T01:06:00 | 57.882140 | 9.286262 | 2.0 | 16.253 | 2 | 43.344 | 16.402 | 34.149 | 2 |
| 2025-09-15T01:07:00 | 57.881715 | 9.287020 | 2.0 | 16.236 | 2 | 43.361 | 16.413 | 34.155 | 2 |
| 2025-09-15T01:08:00 | 57.881278 | 9.287750 | 2.0 | 16.243 | 2 | 43.339 | 16.399 | 34.147 | 2 |
| 2025-09-15T01:09:00 | 57.880832 | 9.288465 | 2.0 | 16.253 | 2 | 43.340 | 16.406 | 34.142 | 2 |
| 2025-09-15T01:10:00 | 57.880386 | 9.289213 | 2.0 | 16.261 | 2 | 43.348 | 16.416 | 34.141 | 2 |
| 2025-09-15T01:11:00 | 57.879946 | 9.289962 | 2.0 | 16.255 | 2 | 43.354 | 16.421 | 34.142 | 2 |
| 2025-09-15T01:12:00 | 57.879509 | 9.290717 | 2.0 | 16.238 | 2 | 43.339 | 16.413 | 34.135 | 2 |
| 2025-09-15T01:13:00 | 57.879084 | 9.291525 | 2.0 | 16.239 | 2 | 43.320 | 16.401 | 34.129 | 2 |
| 2025-09-15T01:14:00 | 57.878657 | 9.292303 | 2.0 | 16.237 | 2 | 43.318 | 16.401 | 34.127 | 2 |
| 2025-09-15T01:15:00 | 57.878238 | 9.293084 | 2.0 | 16.223 | 2 | 43.314 | 16.397 | 34.127 | 2 |
| 2025-09-15T01:16:00 | 57.877826 | 9.293900 | 2.0 | 16.211 | 2 | 43.294 | 16.382 | 34.122 | 2 |
| 2025-09-15T01:17:00 | 57.877416 | 9.294683 | 2.0 | 16.217 | 2 | 43.279 | 16.375 | 34.115 | 2 |
| 2025-09-15T01:18:00 | 57.877014 | 9.295468 | 2.0 | 16.226 | 2 | 43.288 | 16.383 | 34.116 | 2 |
| 2025-09-15T01:19:00 | 57.876623 | 9.296254 | 2.0 | 16.229 | 2 | 43.297 | 16.388 | 34.120 | 2 |
| 2025-09-15T01:20:00 | 57.876225 | 9.296992 | 2.0 | 16.231 | 2 | 43.301 | 16.392 | 34.120 | 2 |
| 2025-09-15T01:21:00 | 57.875828 | 9.297703 | 2.0 | 16.237 | 2 | 43.304 | 16.393 | 34.121 | 2 |
| 2025-09-15T01:22:00 | 57.875453 | 9.298470 | 2.0 | 16.247 | 2 | 43.319 | 16.401 | 34.128 | 2 |
| 2025-09-15T01:23:00 | 57.875073 | 9.299218 | 2.0 | 16.240 | 2 | 43.345 | 16.408 | 34.145 | 2 |
| 2025-09-15T01:24:00 | 57.874682 | 9.299957 | 2.0 | 16.230 | 2 | 43.338 | 16.403 | 34.143 | 2 |
| 2025-09-15T01:25:00 | 57.874297 | 9.300740 | 2.0 | 16.215 | 2 | 43.318 | 16.390 | 34.136 | 2 |
| 2025-09-15T01:26:00 | 57.873909 | 9.301485 | 2.0 | 16.201 | 2 | 43.292 | 16.373 | 34.128 | 2 |
| 2025-09-15T01:27:00 | 57.873517 | 9.302234 | 2.0 | 16.204 | 2 | 43.273 | 16.364 | 34.119 | 2 |
| 2025-09-15T01:28:00 | 57.873121 | 9.302967 | 2.0 | 16.212 | 2 | 43.277 | 16.367 | 34.120 | 2 |
| 2025-09-15T01:29:00 | 57.872731 | 9.303668 | 2.0 | 16.161 | 2 | 43.271 | 16.362 | 34.119 | 2 |
| 2025-09-15T01:30:00 | 57.872361 | 9.304347 | 2.0 | 16.170 | 2 | 43.220 | 16.327 | 34.104 | 2 |
| 2025-09-15T01:31:00 | 57.872020 | 9.305065 | 2.0 | 16.186 | 2 | 43.242 | 16.340 | 34.112 | 2 |
| 2025-09-15T01:32:00 | 57.871694 | 9.305771 | 2.0 | 16.167 | 2 | 43.256 | 16.348 | 34.118 | 2 |
| 2025-09-15T01:33:00 | 57.871378 | 9.306476 | 2.0 | 16.163 | 2 | 43.234 | 16.330 | 34.114 | 2 |
| 2025-09-15T01:34:00 | 57.871065 | 9.307123 | 2.0 | 16.193 | 2 | 43.242 | 16.330 | 34.121 | 2 |
| 2025-09-15T01:35:00 | 57.870817 | 9.307740 | 2.0 | 16.207 | 2 | 43.292 | 16.358 | 34.141 | 2 |
| 2025-09-15T01:36:00 | 57.870641 | 9.308350 | 2.0 | 16.268 | 2 | 43.314 | 16.370 | 34.150 | 2 |
| 2025-09-15T01:37:00 | 57.870522 | 9.308925 | 2.0 | 16.298 | 2 | 43.414 | 16.438 | 34.180 | 2 |
| 2025-09-15T01:38:00 | 57.870450 | 9.309474 | 2.0 | 16.302 | 2 | 43.450 | 16.456 | 34.196 | 2 |
| 2025-09-15T01:39:00 | 57.870403 | 9.310025 | 2.0 | 16.321 | 2 | 43.465 | 16.465 | 34.202 | 2 |
| 2025-09-15T01:40:00 | 57.870213 | 9.310789 | 2.0 | 16.342 | 2 | 43.490 | 16.482 | 34.209 | 2 |
| 2025-09-15T01:41:00 | 57.869838 | 9.312673 | 2.0 | 16.365 | 2 | 43.513 | 16.506 | 34.209 | 2 |
| 2025-09-15T01:42:00 | 57.869032 | 9.314907 | 2.0 | 16.335 | 2 | 43.544 | 16.523 | 34.221 | 2 |
| 2025-09-15T01:43:00 | 57.867945 | 9.317272 | 2.0 | 16.267 | 2 | 43.494 | 16.484 | 34.211 | 2 |
| 2025-09-15T01:44:00 | 57.866772 | 9.319831 | 2.0 | 16.245 | 2 | 43.402 | 16.428 | 34.178 | 2 |
| 2025-09-15T01:45:00 | 57.865574 | 9.322503 | 2.0 | 16.225 | 2 | 43.358 | 16.402 | 34.161 | 2 |
| 2025-09-15T01:46:00 | 57.864372 | 9.325220 | 2.0 | 16.197 | 2 | 43.347 | 16.391 | 34.161 | 2 |
| 2025-09-15T01:47:00 | 57.863163 | 9.327945 | 2.0 | 16.170 | 2 | 43.289 | 16.351 | 34.144 | 2 |
| 2025-09-15T01:48:00 | 57.861941 | 9.330661 | 2.0 | 16.155 | 2 | 43.252 | 16.333 | 34.127 | 2 |
| 2025-09-15T01:49:00 | 57.860734 | 9.333419 | 2.0 | 16.144 | 2 | 43.232 | 16.318 | 34.122 | 2 |
| 2025-09-15T01:50:00 | 57.859515 | 9.336163 | 2.0 | 16.131 | 2 | 43.213 | 16.308 | 34.114 | 2 |
| 2025-09-15T01:51:00 | 57.858305 | 9.338917 | 2.0 | 16.136 | 2 | 43.197 | 16.297 | 34.109 | 2 |
| 2025-09-15T01:52:00 | 57.857091 | 9.341682 | 2.0 | 16.139 | 2 | 43.205 | 16.301 | 34.113 | 2 |
| 2025-09-15T01:53:00 | 57.855888 | 9.344474 | 2.0 | 16.146 | 2 | 43.207 | 16.303 | 34.113 | 2 |
| 2025-09-15T01:54:00 | 57.854666 | 9.347210 | 2.0 | 16.168 | 2 | 43.221 | 16.314 | 34.116 | 2 |
| 2025-09-15T01:55:00 | 57.853451 | 9.349942 | 2.0 | 16.183 | 2 | 43.246 | 16.334 | 34.121 | 2 |
| 2025-09-15T01:56:00 | 57.852334 | 9.352916 | 2.0 | 16.190 | 2 | 43.267 | 16.347 | 34.128 | 2 |
| 2025-09-15T01:57:00 | 57.851259 | 9.355953 | 2.0 | 16.201 | 2 | 43.287 | 16.352 | 34.142 | 2 |
| 2025-09-15T01:58:00 | 57.850166 | 9.358942 | 2.0 | 16.232 | 2 | 43.330 | 16.369 | 34.165 | 2 |
| 2025-09-15T01:59:00 | 57.849075 | 9.361964 | 2.0 | 16.273 | 2 | 43.396 | 16.400 | 34.197 | 2 |
| 2025-09-15T02:00:00 | 57.848017 | 9.365020 | 2.0 | 16.290 | 2 | 43.468 | 16.436 | 34.229 | 2 |
| 2025-09-15T02:01:00 | 57.846924 | 9.367973 | 2.0 | 16.305 | 2 | 43.499 | 16.450 | 34.244 | 2 |
| 2025-09-15T02:02:00 | 57.845802 | 9.370842 | 2.0 | 16.302 | 2 | 43.531 | 16.466 | 34.259 | 2 |
| 2025-09-15T02:03:00 | 57.844700 | 9.373766 | 2.0 | 16.307 | 2 | 43.539 | 16.462 | 34.269 | 2 |
| 2025-09-15T02:04:00 | 57.843578 | 9.376664 | 2.0 | 16.297 | 2 | 43.545 | 16.467 | 34.270 | 2 |
| 2025-09-15T02:05:00 | 57.842457 | 9.379566 | 2.0 | 16.300 | 2 | 43.541 | 16.458 | 34.275 | 2 |
| 2025-09-15T02:06:00 | 57.841339 | 9.382482 | 2.0 | 16.306 | 2 | 43.551 | 16.464 | 34.278 | 2 |
| 2025-09-15T02:07:00 | 57.840204 | 9.385382 | 2.0 | 16.305 | 2 | 43.561 | 16.467 | 34.284 | 2 |
| 2025-09-15T02:08:00 | 57.839050 | 9.388249 | 2.0 | 16.311 | 2 | 43.564 | 16.467 | 34.287 | 2 |
| 2025-09-15T02:09:00 | 57.837877 | 9.391082 | 2.0 | 16.330 | 2 | 43.577 | 16.476 | 34.291 | 2 |
| 2025-09-15T02:10:00 | 57.836704 | 9.393915 | 2.0 | 16.346 | 2 | 43.613 | 16.496 | 34.305 | 2 |
| 2025-09-15T02:11:00 | 57.835534 | 9.396763 | 2.0 | 16.316 | 2 | 43.625 | 16.502 | 34.311 | 2 |
| 2025-09-15T02:12:00 | 57.834378 | 9.399639 | 2.0 | 16.287 | 2 | 43.592 | 16.474 | 34.306 | 2 |
| 2025-09-15T02:13:00 | 57.833236 | 9.402522 | 2.0 | 16.280 | 2 | 43.565 | 16.448 | 34.304 | 2 |
| 2025-09-15T02:14:00 | 57.832063 | 9.405371 | 2.0 | 16.291 | 2 | 43.562 | 16.445 | 34.304 | 2 |
| 2025-09-15T02:15:00 | 57.830900 | 9.408240 | 2.0 | 16.296 | 2 | 43.571 | 16.454 | 34.304 | 2 |
| 2025-09-15T02:16:00 | 57.829729 | 9.411081 | 2.0 | 16.290 | 2 | 43.574 | 16.457 | 34.304 | 2 |
| 2025-09-15T02:17:00 | 57.828553 | 9.413912 | 2.0 | 16.295 | 2 | 43.574 | 16.452 | 34.309 | 2 |
| 2025-09-15T02:18:00 | 57.827427 | 9.416811 | 2.0 | 16.333 | 2 | 43.596 | 16.461 | 34.320 | 2 |
| 2025-09-15T02:19:00 | 57.826315 | 9.419680 | 2.0 | 16.357 | 2 | 43.639 | 16.494 | 34.330 | 2 |
| 2025-09-15T02:20:00 | 57.825157 | 9.422440 | 2.0 | 16.354 | 2 | 43.668 | 16.518 | 34.335 | 2 |
| 2025-09-15T02:21:00 | 57.824006 | 9.425206 | 2.0 | 16.313 | 2 | 43.664 | 16.513 | 34.336 | 2 |
| 2025-09-15T02:22:00 | 57.822891 | 9.428051 | 2.0 | 16.269 | 2 | 43.607 | 16.470 | 34.322 | 2 |
| 2025-09-15T02:23:00 | 57.821782 | 9.430905 | 2.0 | 16.206 | 2 | 43.541 | 16.425 | 34.303 | 2 |
| 2025-09-15T02:24:00 | 57.820682 | 9.433772 | 2.0 | 16.138 | 2 | 43.438 | 16.357 | 34.271 | 2 |
| 2025-09-15T02:25:00 | 57.819570 | 9.436662 | 2.0 | 16.131 | 2 | 43.311 | 16.303 | 34.205 | 2 |
| 2025-09-15T02:26:00 | 57.818419 | 9.439483 | 2.0 | 16.139 | 2 | 43.262 | 16.298 | 34.166 | 2 |
| 2025-09-15T02:27:00 | 57.817249 | 9.442225 | 2.0 | 16.149 | 2 | 43.253 | 16.306 | 34.151 | 2 |
| 2025-09-15T02:28:00 | 57.816075 | 9.444977 | 2.0 | 16.154 | 2 | 43.243 | 16.313 | 34.136 | 2 |
| 2025-09-15T02:29:00 | 57.814922 | 9.447787 | 2.0 | 16.158 | 2 | 43.239 | 16.318 | 34.128 | 2 |
| 2025-09-15T02:30:00 | 57.813768 | 9.450600 | 2.0 | 16.156 | 2 | 43.238 | 16.322 | 34.124 | 2 |
| 2025-09-15T02:31:00 | 57.812613 | 9.453394 | 2.0 | 16.147 | 2 | 43.236 | 16.317 | 34.127 | 2 |
| 2025-09-15T02:32:00 | 57.811440 | 9.456122 | 2.0 | 16.158 | 2 | 43.243 | 16.310 | 34.139 | 2 |
| 2025-09-15T02:33:00 | 57.810385 | 9.459001 | 2.0 | 16.259 | 2 | 43.171 | 16.346 | 34.044 | 2 |
| 2025-09-15T02:34:00 | 57.809362 | 9.461834 | 2.0 | 16.320 | 2 | 43.087 | 16.427 | 33.901 | 2 |
| 2025-09-15T02:35:00 | 57.808261 | 9.464442 | 2.0 | 16.363 | 2 | 43.078 | 16.483 | 33.846 | 2 |
| 2025-09-15T02:36:00 | 57.807157 | 9.466987 | 2.0 | 16.385 | 2 | 43.074 | 16.525 | 33.807 | 2 |
| 2025-09-15T02:37:00 | 57.806074 | 9.469570 | 2.0 | 16.394 | 2 | 43.075 | 16.545 | 33.791 | 2 |
| 2025-09-15T02:38:00 | 57.804982 | 9.472157 | 2.0 | 16.410 | 2 | 43.071 | 16.555 | 33.779 | 2 |
| 2025-09-15T02:39:00 | 57.803910 | 9.474826 | 2.0 | 16.425 | 2 | 43.068 | 16.571 | 33.763 | 2 |
| 2025-09-15T02:40:00 | 57.802844 | 9.477522 | 2.0 | 16.445 | 2 | 43.067 | 16.590 | 33.746 | 2 |
| 2025-09-15T02:41:00 | 57.801796 | 9.480201 | 2.0 | 16.452 | 2 | 43.068 | 16.606 | 33.733 | 2 |
| 2025-09-15T02:42:00 | 57.800703 | 9.482838 | 2.0 | 16.452 | 2 | 43.067 | 16.612 | 33.727 | 2 |
| 2025-09-15T02:43:00 | 57.799634 | 9.485502 | 2.0 | 16.453 | 2 | 43.057 | 16.612 | 33.718 | 2 |
| 2025-09-15T02:44:00 | 57.798552 | 9.488143 | 2.0 | 16.468 | 2 | 43.048 | 16.616 | 33.707 | 2 |
| 2025-09-15T02:45:00 | 57.797477 | 9.490785 | 2.0 | 16.470 | 2 | 43.055 | 16.630 | 33.702 | 2 |
| 2025-09-15T02:46:00 | 57.796369 | 9.493391 | 2.0 | 16.477 | 2 | 43.055 | 16.631 | 33.701 | 2 |
| 2025-09-15T02:47:00 | 57.795288 | 9.496064 | 2.0 | 16.484 | 2 | 43.046 | 16.639 | 33.686 | 2 |
| 2025-09-15T02:48:00 | 57.794224 | 9.498773 | 2.0 | 16.494 | 2 | 43.046 | 16.644 | 33.682 | 2 |
| 2025-09-15T02:49:00 | 57.793133 | 9.501450 | 2.0 | 16.487 | 2 | 43.068 | 16.653 | 33.694 | 2 |
| 2025-09-15T02:50:00 | 57.792016 | 9.504076 | 2.0 | 16.503 | 2 | 43.087 | 16.650 | 33.713 | 2 |
| 2025-09-15T02:51:00 | 57.790963 | 9.506798 | 2.0 | 16.520 | 2 | 43.075 | 16.665 | 33.690 | 2 |
| 2025-09-15T02:52:00 | 57.789901 | 9.509534 | 2.0 | 16.535 | 2 | 43.054 | 16.681 | 33.658 | 2 |
| 2025-09-15T02:53:00 | 57.788832 | 9.512213 | 2.0 | 16.546 | 2 | 43.030 | 16.696 | 33.624 | 2 |
| 2025-09-15T02:54:00 | 57.787728 | 9.514837 | 2.0 | 16.558 | 2 | 43.021 | 16.707 | 33.607 | 2 |
| 2025-09-15T02:55:00 | 57.786620 | 9.517479 | 2.0 | 16.566 | 2 | 43.022 | 16.718 | 33.599 | 2 |
| 2025-09-15T02:56:00 | 57.785541 | 9.520174 | 2.0 | 16.580 | 2 | 43.015 | 16.729 | 33.583 | 2 |
| 2025-09-15T02:57:00 | 57.784466 | 9.522878 | 2.0 | 16.586 | 2 | 43.005 | 16.739 | 33.566 | 2 |
| 2025-09-15T02:58:00 | 57.783365 | 9.525554 | 2.0 | 16.592 | 2 | 42.995 | 16.746 | 33.552 | 2 |
| 2025-09-15T02:59:00 | 57.782274 | 9.528249 | 2.0 | 16.601 | 2 | 42.985 | 16.753 | 33.537 | 2 |
| 2025-09-15T03:00:00 | 57.781171 | 9.530970 | 2.0 | 16.603 | 2 | 42.980 | 16.761 | 33.526 | 2 |
| 2025-09-15T03:01:00 | 57.780058 | 9.533651 | 2.0 | 16.594 | 2 | 42.980 | 16.761 | 33.526 | 2 |
| 2025-09-15T03:02:00 | 57.778957 | 9.536353 | 2.0 | 16.602 | 2 | 42.970 | 16.755 | 33.522 | 2 |
| 2025-09-15T03:03:00 | 57.777848 | 9.539063 | 2.0 | 16.607 | 2 | 42.982 | 16.762 | 33.527 | 2 |
| 2025-09-15T03:04:00 | 57.776743 | 9.541749 | 2.0 | 16.614 | 2 | 42.987 | 16.768 | 33.526 | 2 |
| 2025-09-15T03:05:00 | 57.775636 | 9.544379 | 2.0 | 16.618 | 2 | 42.984 | 16.774 | 33.519 | 2 |
| 2025-09-15T03:06:00 | 57.774542 | 9.547033 | 2.0 | 16.624 | 2 | 42.976 | 16.779 | 33.508 | 2 |
| 2025-09-15T03:07:00 | 57.773438 | 9.549661 | 2.0 | 16.626 | 2 | 42.985 | 16.784 | 33.511 | 2 |
| 2025-09-15T03:08:00 | 57.772343 | 9.552296 | 2.0 | 16.632 | 2 | 42.982 | 16.786 | 33.507 | 2 |
| 2025-09-15T03:09:00 | 57.771237 | 9.554924 | 2.0 | 16.640 | 2 | 42.981 | 16.791 | 33.502 | 2 |
| 2025-09-15T03:10:00 | 57.770137 | 9.557536 | 2.0 | 16.637 | 2 | 42.988 | 16.796 | 33.504 | 2 |
| 2025-09-15T03:11:00 | 57.769034 | 9.560161 | 2.0 | 16.641 | 2 | 42.978 | 16.797 | 33.494 | 2 |
| 2025-09-15T03:12:00 | 57.767912 | 9.562854 | 2.0 | 16.645 | 2 | 42.973 | 16.799 | 33.488 | 2 |
| 2025-09-15T03:13:00 | 57.766779 | 9.565596 | 2.0 | 16.649 | 2 | 42.979 | 16.805 | 33.488 | 2 |
| 2025-09-15T03:14:00 | 57.765626 | 9.568365 | 2.0 | 16.655 | 2 | 42.980 | 16.809 | 33.486 | 2 |
| 2025-09-15T03:15:00 | 57.764469 | 9.571127 | 2.0 | 16.660 | 2 | 42.994 | 16.816 | 33.492 | 2 |
| 2025-09-15T03:16:00 | 57.763291 | 9.573889 | 2.0 | 16.659 | 2 | 42.991 | 16.817 | 33.489 | 2 |
| 2025-09-15T03:17:00 | 57.762135 | 9.576707 | 2.0 | 16.658 | 2 | 42.984 | 16.818 | 33.482 | 2 |
| 2025-09-15T03:18:00 | 57.760964 | 9.579536 | 2.0 | 16.661 | 2 | 42.978 | 16.818 | 33.477 | 2 |
| 2025-09-15T03:19:00 | 57.759782 | 9.582357 | 2.0 | 16.659 | 2 | 42.974 | 16.819 | 33.472 | 2 |
| 2025-09-15T03:20:00 | 57.758591 | 9.585185 | 2.0 | 16.660 | 2 | 42.969 | 16.819 | 33.468 | 2 |
| 2025-09-15T03:21:00 | 57.757396 | 9.588026 | 2.0 | 16.659 | 2 | 42.966 | 16.819 | 33.465 | 2 |
| 2025-09-15T03:22:00 | 57.756183 | 9.590869 | 2.0 | 16.656 | 2 | 42.961 | 16.818 | 33.462 | 2 |
| 2025-09-15T03:23:00 | 57.754984 | 9.593728 | 2.0 | 16.651 | 2 | 42.960 | 16.815 | 33.464 | 2 |
| 2025-09-15T03:24:00 | 57.753795 | 9.596615 | 2.0 | 16.646 | 2 | 42.957 | 16.810 | 33.465 | 2 |
| 2025-09-15T03:25:00 | 57.752596 | 9.599465 | 2.0 | 16.642 | 2 | 42.971 | 16.804 | 33.482 | 2 |
| 2025-09-15T03:26:00 | 57.751407 | 9.602347 | 2.0 | 16.638 | 2 | 42.973 | 16.801 | 33.487 | 2 |
| 2025-09-15T03:27:00 | 57.750212 | 9.605253 | 2.0 | 16.635 | 2 | 42.959 | 16.796 | 33.479 | 2 |
| 2025-09-15T03:28:00 | 57.748995 | 9.608119 | 2.0 | 16.634 | 2 | 42.957 | 16.795 | 33.478 | 2 |
| 2025-09-15T03:29:00 | 57.747770 | 9.610984 | 2.0 | 16.629 | 2 | 42.951 | 16.793 | 33.474 | 2 |
| 2025-09-15T03:30:00 | 57.746584 | 9.613894 | 2.0 | 16.622 | 2 | 42.949 | 16.788 | 33.477 | 2 |
| 2025-09-15T03:31:00 | 57.745376 | 9.616763 | 2.0 | 16.620 | 2 | 42.949 | 16.782 | 33.482 | 2 |
| 2025-09-15T03:32:00 | 57.744150 | 9.619610 | 2.0 | 16.616 | 2 | 42.963 | 16.779 | 33.496 | 2 |
| 2025-09-15T03:33:00 | 57.742931 | 9.622496 | 2.0 | 16.614 | 2 | 42.969 | 16.776 | 33.504 | 2 |
| 2025-09-15T03:34:00 | 57.741738 | 9.625440 | 2.0 | 16.609 | 2 | 42.965 | 16.774 | 33.502 | 2 |
| 2025-09-15T03:35:00 | 57.740543 | 9.628365 | 2.0 | 16.601 | 2 | 42.964 | 16.768 | 33.506 | 2 |
| 2025-09-15T03:36:00 | 57.739317 | 9.631244 | 2.0 | 16.597 | 2 | 42.972 | 16.761 | 33.519 | 2 |
| 2025-09-15T03:37:00 | 57.738086 | 9.634105 | 2.0 | 16.592 | 2 | 42.969 | 16.755 | 33.522 | 2 |
| 2025-09-15T03:38:00 | 57.736892 | 9.637004 | 2.0 | 16.591 | 2 | 42.962 | 16.752 | 33.518 | 2 |
| 2025-09-15T03:39:00 | 57.735697 | 9.639899 | 2.0 | 16.588 | 2 | 42.968 | 16.751 | 33.524 | 2 |
| 2025-09-15T03:40:00 | 57.734494 | 9.642730 | 2.0 | 16.586 | 2 | 42.966 | 16.747 | 33.526 | 2 |
| 2025-09-15T03:41:00 | 57.733328 | 9.645552 | 2.0 | 16.595 | 2 | 42.941 | 16.747 | 33.504 | 2 |
| 2025-09-15T03:42:00 | 57.732157 | 9.648303 | 2.0 | 16.604 | 2 | 42.931 | 16.757 | 33.487 | 2 |
| 2025-09-15T03:43:00 | 57.730998 | 9.651051 | 2.0 | 16.611 | 2 | 42.934 | 16.765 | 33.483 | 2 |
| 2025-09-15T03:44:00 | 57.729843 | 9.653829 | 2.0 | 16.610 | 2 | 42.944 | 16.770 | 33.487 | 2 |
| 2025-09-15T03:45:00 | 57.728674 | 9.656601 | 2.0 | 16.610 | 2 | 42.945 | 16.770 | 33.488 | 2 |
| 2025-09-15T03:46:00 | 57.727497 | 9.659367 | 2.0 | 16.611 | 2 | 42.942 | 16.770 | 33.485 | 2 |
| 2025-09-15T03:47:00 | 57.726318 | 9.662136 | 2.0 | 16.613 | 2 | 42.943 | 16.771 | 33.485 | 2 |
| 2025-09-15T03:48:00 | 57.725139 | 9.664924 | 2.0 | 16.610 | 2 | 42.946 | 16.772 | 33.487 | 2 |
| 2025-09-15T03:49:00 | 57.723977 | 9.667716 | 2.0 | 16.616 | 2 | 42.945 | 16.772 | 33.486 | 2 |
| 2025-09-15T03:50:00 | 57.722790 | 9.670499 | 2.0 | 16.620 | 2 | 42.945 | 16.777 | 33.482 | 2 |
| 2025-09-15T03:51:00 | 57.721624 | 9.673324 | 2.0 | 16.620 | 2 | 42.944 | 16.780 | 33.479 | 2 |
| 2025-09-15T03:52:00 | 57.720459 | 9.676168 | 2.0 | 16.624 | 2 | 42.928 | 16.780 | 33.465 | 2 |
| 2025-09-15T03:53:00 | 57.719279 | 9.679002 | 2.0 | 16.628 | 2 | 42.928 | 16.785 | 33.461 | 2 |
| 2025-09-15T03:54:00 | 57.718125 | 9.681869 | 2.0 | 16.635 | 2 | 42.909 | 16.789 | 33.441 | 2 |
| 2025-09-15T03:55:00 | 57.716919 | 9.684664 | 2.0 | 16.637 | 2 | 42.895 | 16.794 | 33.424 | 2 |
| 2025-09-15T03:56:00 | 57.715707 | 9.687484 | 2.0 | 16.642 | 2 | 42.895 | 16.798 | 33.421 | 2 |
| 2025-09-15T03:57:00 | 57.714520 | 9.690357 | 2.0 | 16.645 | 2 | 42.890 | 16.802 | 33.413 | 2 |
| 2025-09-15T03:58:00 | 57.713335 | 9.693204 | 2.0 | 16.647 | 2 | 42.883 | 16.804 | 33.406 | 2 |
| 2025-09-15T03:59:00 | 57.712105 | 9.696003 | 2.0 | 16.650 | 2 | 42.883 | 16.806 | 33.404 | 2 |
| 2025-09-15T04:00:00 | 57.710903 | 9.698867 | 2.0 | 16.656 | 2 | 42.883 | 16.811 | 33.400 | 2 |
| 2025-09-15T04:01:00 | 57.709714 | 9.701744 | 2.0 | 16.661 | 2 | 42.877 | 16.816 | 33.390 | 2 |
| 2025-09-15T04:02:00 | 57.708508 | 9.704621 | 2.0 | 16.665 | 2 | 42.873 | 16.821 | 33.383 | 2 |
| 2025-09-15T04:03:00 | 57.707304 | 9.707516 | 2.0 | 16.673 | 2 | 42.874 | 16.826 | 33.380 | 2 |
| 2025-09-15T04:04:00 | 57.706101 | 9.710405 | 2.0 | 16.676 | 2 | 42.878 | 16.832 | 33.378 | 2 |
| 2025-09-15T04:05:00 | 57.704908 | 9.713276 | 2.0 | 16.681 | 2 | 42.880 | 16.836 | 33.376 | 2 |
| 2025-09-15T04:06:00 | 57.703713 | 9.716150 | 2.0 | 16.687 | 2 | 42.885 | 16.841 | 33.377 | 2 |
| 2025-09-15T04:07:00 | 57.702512 | 9.719035 | 2.0 | 16.691 | 2 | 42.893 | 16.846 | 33.379 | 2 |
| 2025-09-15T04:08:00 | 57.701292 | 9.721903 | 2.0 | 16.691 | 2 | 42.898 | 16.850 | 33.380 | 2 |
| 2025-09-15T04:09:00 | 57.700087 | 9.724792 | 2.0 | 16.687 | 2 | 42.890 | 16.847 | 33.376 | 2 |
| 2025-09-15T04:10:00 | 57.698905 | 9.727679 | 2.0 | 16.695 | 2 | 42.878 | 16.848 | 33.365 | 2 |
| 2025-09-15T04:11:00 | 57.697693 | 9.730522 | 2.0 | 16.725 | 2 | 42.873 | 16.858 | 33.352 | 2 |
| 2025-09-15T04:12:00 | 57.696505 | 9.733401 | 2.0 | 16.752 | 2 | 42.888 | 16.888 | 33.340 | 2 |
| 2025-09-15T04:13:00 | 57.695308 | 9.736269 | 2.0 | 16.777 | 2 | 42.905 | 16.913 | 33.334 | 2 |
| 2025-09-15T04:14:00 | 57.694132 | 9.739139 | 2.0 | 16.791 | 2 | 42.915 | 16.934 | 33.326 | 2 |
| 2025-09-15T04:15:00 | 57.692920 | 9.741938 | 2.0 | 16.801 | 2 | 42.919 | 16.950 | 33.316 | 2 |
| 2025-09-15T04:16:00 | 57.691727 | 9.744771 | 2.0 | 16.808 | 2 | 42.916 | 16.960 | 33.305 | 2 |
| 2025-09-15T04:17:00 | 57.690536 | 9.747597 | 2.0 | 16.816 | 2 | 42.912 | 16.967 | 33.296 | 2 |
| 2025-09-15T04:18:00 | 57.689334 | 9.750414 | 2.0 | 16.820 | 2 | 42.911 | 16.973 | 33.290 | 2 |
| 2025-09-15T04:19:00 | 57.688151 | 9.753235 | 2.0 | 16.827 | 2 | 42.904 | 16.979 | 33.279 | 2 |
| 2025-09-15T04:20:00 | 57.686994 | 9.756100 | 2.0 | 16.838 | 2 | 42.900 | 16.986 | 33.269 | 2 |
| 2025-09-15T04:21:00 | 57.685821 | 9.758936 | 2.0 | 16.848 | 2 | 42.899 | 16.997 | 33.260 | 2 |
| 2025-09-15T04:22:00 | 57.684642 | 9.761797 | 2.0 | 16.856 | 2 | 42.897 | 17.007 | 33.250 | 2 |
| 2025-09-15T04:23:00 | 57.683456 | 9.764651 | 2.0 | 16.860 | 2 | 42.890 | 17.013 | 33.239 | 2 |
| 2025-09-15T04:24:00 | 57.682252 | 9.767474 | 2.0 | 16.867 | 2 | 42.878 | 17.019 | 33.223 | 2 |
| 2025-09-15T04:25:00 | 57.681069 | 9.770297 | 2.0 | 16.871 | 2 | 42.864 | 17.024 | 33.207 | 2 |
| 2025-09-15T04:26:00 | 57.679883 | 9.773107 | 2.0 | 16.883 | 2 | 42.847 | 17.031 | 33.186 | 2 |
| 2025-09-15T04:27:00 | 57.678702 | 9.775906 | 2.0 | 16.893 | 2 | 42.839 | 17.042 | 33.170 | 2 |
| 2025-09-15T04:28:00 | 57.677537 | 9.778722 | 2.0 | 16.913 | 2 | 42.835 | 17.053 | 33.158 | 2 |
| 2025-09-15T04:29:00 | 57.676351 | 9.781466 | 2.0 | 16.931 | 2 | 42.844 | 17.072 | 33.150 | 2 |
| 2025-09-15T04:30:00 | 57.675191 | 9.784212 | 2.0 | 16.926 | 2 | 42.851 | 17.087 | 33.144 | 2 |
| 2025-09-15T04:31:00 | 57.674040 | 9.786988 | 2.0 | 16.923 | 2 | 42.838 | 17.083 | 33.136 | 2 |
| 2025-09-15T04:32:00 | 57.672876 | 9.789716 | 2.0 | 16.916 | 2 | 42.819 | 17.081 | 33.121 | 2 |
| 2025-09-15T04:33:00 | 57.671726 | 9.792473 | 2.0 | 16.919 | 2 | 42.793 | 17.074 | 33.104 | 2 |
| 2025-09-15T04:34:00 | 57.670572 | 9.795225 | 2.0 | 16.925 | 2 | 42.794 | 17.077 | 33.103 | 2 |
| 2025-09-15T04:35:00 | 57.669401 | 9.797993 | 2.0 | 16.937 | 2 | 42.813 | 17.086 | 33.112 | 2 |
| 2025-09-15T04:36:00 | 57.668221 | 9.800786 | 2.0 | 16.932 | 2 | 42.831 | 17.094 | 33.121 | 2 |
| 2025-09-15T04:37:00 | 57.667054 | 9.803602 | 2.0 | 16.937 | 2 | 42.827 | 17.090 | 33.121 | 2 |
| 2025-09-15T04:38:00 | 57.665890 | 9.806432 | 2.0 | 16.944 | 2 | 42.842 | 17.097 | 33.128 | 2 |
| 2025-09-15T04:39:00 | 57.664715 | 9.809278 | 2.0 | 16.922 | 2 | 42.852 | 17.099 | 33.135 | 2 |
| 2025-09-15T04:40:00 | 57.663575 | 9.812202 | 2.0 | 16.932 | 2 | 42.823 | 17.080 | 33.125 | 2 |
| 2025-09-15T04:41:00 | 57.662372 | 9.815040 | 2.0 | 16.946 | 2 | 42.820 | 17.091 | 33.114 | 2 |
| 2025-09-15T04:42:00 | 57.661147 | 9.817816 | 2.0 | 16.956 | 2 | 42.824 | 17.104 | 33.106 | 2 |
| 2025-09-15T04:43:00 | 57.659950 | 9.820600 | 2.0 | 16.967 | 2 | 42.833 | 17.115 | 33.105 | 2 |
| 2025-09-15T04:44:00 | 57.658792 | 9.823440 | 2.0 | 16.978 | 2 | 42.829 | 17.127 | 33.092 | 2 |
| 2025-09-15T04:45:00 | 57.657602 | 9.826237 | 2.0 | 16.981 | 2 | 42.827 | 17.136 | 33.083 | 2 |
| 2025-09-15T04:46:00 | 57.656408 | 9.829023 | 2.0 | 16.975 | 2 | 42.823 | 17.138 | 33.078 | 2 |
| 2025-09-15T04:47:00 | 57.655261 | 9.831913 | 2.0 | 16.983 | 2 | 42.805 | 17.133 | 33.066 | 2 |
| 2025-09-15T04:48:00 | 57.654065 | 9.834746 | 2.0 | 16.993 | 2 | 42.800 | 17.142 | 33.055 | 2 |
| 2025-09-15T04:49:00 | 57.652863 | 9.837570 | 2.0 | 17.008 | 2 | 42.806 | 17.153 | 33.051 | 2 |
| 2025-09-15T04:50:00 | 57.651659 | 9.840382 | 2.0 | 17.017 | 2 | 42.814 | 17.167 | 33.046 | 2 |
| 2025-09-15T04:51:00 | 57.650458 | 9.843178 | 2.0 | 17.022 | 2 | 42.814 | 17.174 | 33.040 | 2 |
| 2025-09-15T04:52:00 | 57.649279 | 9.846022 | 2.0 | 17.028 | 2 | 42.816 | 17.181 | 33.036 | 2 |
| 2025-09-15T04:53:00 | 57.648093 | 9.848851 | 2.0 | 17.021 | 2 | 42.814 | 17.183 | 33.033 | 2 |
| 2025-09-15T04:54:00 | 57.646910 | 9.851691 | 2.0 | 17.017 | 2 | 42.803 | 17.177 | 33.029 | 2 |
| 2025-09-15T04:55:00 | 57.645754 | 9.854550 | 2.0 | 17.012 | 2 | 42.793 | 17.174 | 33.022 | 2 |
| 2025-09-15T04:56:00 | 57.644710 | 9.857077 | 2.0 | 17.007 | 2 | 42.787 | 17.170 | 33.020 | 2 |
| 2025-09-15T04:57:00 | 57.643862 | 9.859082 | 2.0 | 17.008 | 2 | 42.786 | 17.167 | 33.022 | 2 |
| 2025-09-15T04:58:00 | 57.643206 | 9.860617 | 2.0 | 17.001 | 2 | 42.787 | 17.165 | 33.025 | 2 |
| 2025-09-15T04:59:00 | 57.642633 | 9.861400 | 2.0 | 16.982 | 2 | 42.775 | 17.155 | 33.022 | 2 |
| 2025-09-15T05:00:00 | 57.642196 | 9.861629 | 2.0 | 16.982 | 2 | 42.761 | 17.141 | 33.022 | 2 |
| 2025-09-15T05:01:00 | 57.641892 | 9.861604 | 2.0 | 16.982 | 2 | 42.772 | 17.148 | 33.026 | 2 |
| 2025-09-15T05:02:00 | 57.641717 | 9.861421 | 2.0 | 16.983 | 2 | 42.775 | 17.152 | 33.025 | 2 |
| 2025-09-15T05:03:00 | 57.641575 | 9.861164 | 2.0 | 16.984 | 2 | 42.779 | 17.156 | 33.025 | 2 |
| 2025-09-15T05:04:00 | 57.641298 | 9.860955 | 2.0 | 16.983 | 2 | 42.780 | 17.159 | 33.023 | 2 |
| 2025-09-15T05:05:00 | 57.640929 | 9.861446 | 2.0 | 16.988 | 2 | 42.783 | 17.162 | 33.024 | 2 |
| 2025-09-15T05:06:00 | 57.640609 | 9.862880 | 2.0 | 16.985 | 2 | 42.784 | 17.164 | 33.023 | 2 |
| 2025-09-15T05:07:00 | 57.640117 | 9.864974 | 2.0 | 16.983 | 2 | 42.779 | 17.163 | 33.019 | 2 |
| 2025-09-15T05:08:00 | 57.639538 | 9.867453 | 2.0 | 16.980 | 2 | 42.774 | 17.162 | 33.016 | 2 |
| 2025-09-19T15:12:00 | 57.646537 | 9.886330 | 2.0 | 16.858 | 2 | 42.790 | 17.388 | 32.845 | 2 |
| 2025-09-19T15:13:00 | 57.646479 | 9.886333 | 2.0 | 16.854 | 2 | 42.374 | 17.068 | 32.747 | 2 |
| 2025-09-19T15:14:00 | 57.646412 | 9.886365 | 2.0 | 16.854 | 2 | 42.486 | 17.041 | 32.866 | 2 |
| 2025-09-19T15:15:00 | 57.646367 | 9.886461 | 2.0 | 16.855 | 2 | 42.457 | 17.036 | 32.845 | 2 |
| 2025-09-19T15:16:00 | 57.646335 | 9.886534 | 2.0 | 16.861 | 2 | 42.426 | 17.033 | 32.821 | 2 |
| 2025-09-19T15:17:00 | 57.646306 | 9.886619 | 2.0 | 16.862 | 2 | 42.325 | 17.035 | 32.732 | 2 |
| 2025-09-19T15:18:00 | 57.646264 | 9.886679 | 2.0 | 16.860 | 2 | 42.319 | 17.035 | 32.727 | 2 |
| 2025-09-19T15:19:00 | 57.646233 | 9.886741 | 2.0 | 16.860 | 2 | 42.390 | 17.032 | 32.790 | 2 |
| 2025-09-19T15:20:00 | 57.646198 | 9.886844 | 2.0 | 16.859 | 2 | 42.424 | 17.030 | 32.821 | 2 |
| 2025-09-19T15:21:00 | 57.646121 | 9.886847 | 2.0 | 16.858 | 2 | 42.447 | 17.028 | 32.843 | 2 |
| 2025-09-19T15:22:00 | 57.646088 | 9.886877 | 2.0 | 16.858 | 2 | 42.477 | 17.027 | 32.870 | 2 |
| 2025-09-19T15:23:00 | 57.646082 | 9.886958 | 2.0 | 16.857 | 2 | 42.404 | 17.026 | 32.807 | 2 |
| 2025-09-19T15:24:00 | 57.646066 | 9.886974 | 2.0 | 16.857 | 2 | 42.439 | 17.026 | 32.838 | 2 |
| 2025-09-19T15:25:00 | 57.646067 | 9.886907 | 2.0 | 16.857 | 2 | 42.418 | 17.025 | 32.820 | 2 |
| 2025-09-19T15:26:00 | 57.646087 | 9.886966 | 2.0 | 16.857 | 2 | 42.406 | 17.025 | 32.810 | 2 |
| 2025-09-19T15:27:00 | 57.646108 | 9.887034 | 2.0 | 16.856 | 2 | 42.437 | 17.024 | 32.838 | 2 |
| 2025-09-19T15:28:00 | 57.646091 | 9.886979 | 2.0 | 16.856 | 2 | 42.461 | 17.024 | 32.858 | 2 |
| 2025-09-19T15:29:00 | 57.646054 | 9.886885 | 2.0 | 16.855 | 2 | 42.474 | 17.024 | 32.870 | 2 |
| 2025-09-19T15:30:00 | 57.646016 | 9.886865 | 2.0 | 16.856 | 2 | 42.461 | 17.024 | 32.858 | 2 |
| 2025-09-19T15:31:00 | 57.646021 | 9.886920 | 2.0 | 16.857 | 2 | 42.473 | 17.024 | 32.869 | 2 |
| 2025-09-19T15:32:00 | 57.646020 | 9.886922 | 2.0 | 16.857 | 2 | 42.486 | 17.024 | 32.880 | 2 |
| 2025-09-19T15:33:00 | 57.646007 | 9.886832 | 2.0 | 16.857 | 2 | 42.487 | 17.024 | 32.881 | 2 |
| 2025-09-19T15:34:00 | 57.645990 | 9.886737 | 2.0 | 16.861 | 2 | 42.479 | 17.025 | 32.873 | 2 |
| 2025-09-19T15:35:00 | 57.645991 | 9.886713 | 2.0 | 16.861 | 2 | 42.479 | 17.026 | 32.872 | 2 |
| 2025-09-19T15:36:00 | 57.645969 | 9.886682 | 2.0 | 16.861 | 2 | 42.461 | 17.026 | 32.857 | 2 |
| 2025-09-19T15:37:00 | 57.645927 | 9.886771 | 2.0 | 16.860 | 2 | 42.487 | 17.027 | 32.878 | 2 |
| 2025-09-19T15:38:00 | 57.645897 | 9.886812 | 2.0 | 16.860 | 2 | 42.486 | 17.026 | 32.878 | 2 |
| 2025-09-19T15:39:00 | 57.645836 | 9.886935 | 2.0 | 16.861 | 2 | 42.486 | 17.027 | 32.877 | 2 |
| 2025-09-19T15:40:00 | 57.645800 | 9.887022 | 2.0 | 16.860 | 2 | 42.484 | 17.028 | 32.875 | 2 |
| 2025-09-19T15:41:00 | 57.645757 | 9.887015 | 2.0 | 16.860 | 2 | 42.485 | 17.027 | 32.877 | 2 |
| 2025-09-19T15:42:00 | 57.645745 | 9.886954 | 2.0 | 16.860 | 2 | 42.488 | 17.027 | 32.879 | 2 |
| 2025-09-19T15:43:00 | 57.645729 | 9.886924 | 2.0 | 16.860 | 2 | 42.484 | 17.026 | 32.877 | 2 |
| 2025-09-19T15:44:00 | 57.645665 | 9.886992 | 2.0 | 16.860 | 2 | 42.487 | 17.026 | 32.879 | 2 |
| 2025-09-19T15:45:00 | 57.645600 | 9.887016 | 2.0 | 16.858 | 2 | 42.486 | 17.025 | 32.879 | 2 |
| 2025-09-19T15:46:00 | 57.645567 | 9.887025 | 2.0 | 16.859 | 2 | 42.485 | 17.024 | 32.879 | 2 |
| 2025-09-19T15:47:00 | 57.645535 | 9.887044 | 2.0 | 16.861 | 2 | 42.485 | 17.025 | 32.878 | 2 |
| 2025-09-19T15:48:00 | 57.645487 | 9.886964 | 2.0 | 16.861 | 2 | 42.485 | 17.026 | 32.877 | 2 |
| 2025-09-19T15:49:00 | 57.645367 | 9.885492 | 2.0 | 16.863 | 2 | 42.484 | 17.027 | 32.876 | 2 |
| 2025-09-19T15:50:00 | 57.646947 | 9.883497 | 2.0 | 16.874 | 2 | 42.486 | 17.031 | 32.874 | 2 |
| 2025-09-19T15:51:00 | 57.648985 | 9.881048 | 2.0 | 16.882 | 2 | 42.484 | 17.042 | 32.863 | 2 |
| 2025-09-19T15:52:00 | 57.650940 | 9.878179 | 2.0 | 16.891 | 2 | 42.481 | 17.050 | 32.854 | 2 |
| 2025-09-19T15:53:00 | 57.653065 | 9.875477 | 2.0 | 16.895 | 2 | 42.477 | 17.059 | 32.844 | 2 |
| 2025-09-19T15:54:00 | 57.655142 | 9.872779 | 2.0 | 16.898 | 2 | 42.476 | 17.062 | 32.840 | 2 |
| 2025-09-19T15:55:00 | 57.657212 | 9.870053 | 2.0 | 16.898 | 2 | 42.480 | 17.065 | 32.841 | 2 |
| 2025-09-19T15:56:00 | 57.659275 | 9.867329 | 2.0 | 16.897 | 2 | 42.492 | 17.065 | 32.852 | 2 |
| 2025-09-19T15:57:00 | 57.661380 | 9.864581 | 2.0 | 16.890 | 2 | 42.513 | 17.062 | 32.872 | 2 |
| 2025-09-19T15:58:00 | 57.663501 | 9.861824 | 2.0 | 16.885 | 2 | 42.530 | 17.056 | 32.892 | 2 |
| 2025-09-19T15:59:00 | 57.665625 | 9.859148 | 2.0 | 16.877 | 2 | 42.575 | 17.051 | 32.935 | 2 |
| 2025-09-19T16:00:00 | 57.667692 | 9.856397 | 2.0 | 16.865 | 2 | 42.625 | 17.042 | 32.985 | 2 |
| 2025-09-19T16:01:00 | 57.669796 | 9.853730 | 2.0 | 16.862 | 2 | 42.651 | 17.033 | 33.015 | 2 |
| 2025-09-19T16:02:00 | 57.671885 | 9.850999 | 2.0 | 16.849 | 2 | 42.677 | 17.024 | 33.045 | 2 |
| 2025-09-19T16:03:00 | 57.673908 | 9.848263 | 2.0 | 16.846 | 2 | 42.695 | 17.017 | 33.066 | 2 |
| 2025-09-19T16:04:00 | 57.675919 | 9.845590 | 2.0 | 16.840 | 2 | 42.673 | 17.013 | 33.051 | 2 |
| 2025-09-19T16:05:00 | 57.677979 | 9.842847 | 2.0 | 16.832 | 2 | 42.615 | 17.008 | 33.005 | 2 |
| 2025-09-19T16:06:00 | 57.680031 | 9.840145 | 2.0 | 16.824 | 2 | 42.611 | 16.999 | 33.008 | 2 |
| 2025-09-19T16:07:00 | 57.682127 | 9.837418 | 2.0 | 16.814 | 2 | 42.643 | 16.989 | 33.044 | 2 |
| 2025-09-19T16:08:00 | 57.684287 | 9.834677 | 2.0 | 16.809 | 2 | 42.604 | 16.981 | 33.017 | 2 |
| 2025-09-19T16:09:00 | 57.686464 | 9.831941 | 2.0 | 16.804 | 2 | 42.650 | 16.976 | 33.061 | 2 |
| 2025-09-19T16:10:00 | 57.688613 | 9.829125 | 2.0 | 16.797 | 2 | 42.641 | 16.970 | 33.058 | 2 |
| 2025-09-19T16:11:00 | 57.690806 | 9.826390 | 2.0 | 16.794 | 2 | 42.680 | 16.965 | 33.096 | 2 |
| 2025-09-19T16:12:00 | 57.692910 | 9.823612 | 2.0 | 16.758 | 2 | 42.683 | 16.953 | 33.109 | 2 |
| 2025-09-19T16:13:00 | 57.695002 | 9.820803 | 2.0 | 16.769 | 2 | 42.742 | 16.929 | 33.180 | 2 |
| 2025-09-19T16:14:00 | 57.697056 | 9.817989 | 2.0 | 16.762 | 2 | 42.769 | 16.939 | 33.195 | 2 |
| 2025-09-19T16:15:00 | 57.698666 | 9.814609 | 2.0 | 16.736 | 2 | 42.831 | 16.923 | 33.262 | 2 |
| 2025-09-19T16:16:00 | 57.700371 | 9.811310 | 2.0 | 16.730 | 2 | 42.937 | 16.907 | 33.367 | 2 |
| 2025-09-19T16:17:00 | 57.702102 | 9.808084 | 2.0 | 16.714 | 2 | 42.933 | 16.896 | 33.373 | 2 |
| 2025-09-19T16:18:00 | 57.703925 | 9.804709 | 2.0 | 16.709 | 2 | 42.953 | 16.884 | 33.400 | 2 |
| 2025-09-19T16:19:00 | 57.705596 | 9.801324 | 2.0 | 16.695 | 2 | 42.948 | 16.874 | 33.404 | 2 |
| 2025-09-19T16:20:00 | 57.707330 | 9.798072 | 2.0 | 16.693 | 2 | 42.975 | 16.864 | 33.436 | 2 |
| 2025-09-19T16:21:00 | 57.709019 | 9.794911 | 2.0 | 16.686 | 2 | 42.972 | 16.862 | 33.435 | 2 |
| 2025-09-19T16:22:00 | 57.709992 | 9.792383 | 2.0 | 16.682 | 2 | 42.962 | 16.853 | 33.434 | 2 |
| 2025-09-19T16:23:00 | 57.709863 | 9.791276 | 2.0 | 16.683 | 2 | 42.965 | 16.850 | 33.439 | 2 |
| 2025-09-19T16:24:00 | 57.709734 | 9.791008 | 2.0 | 16.681 | 2 | 42.969 | 16.848 | 33.444 | 2 |
| 2025-09-19T16:25:00 | 57.709668 | 9.790959 | 2.0 | 16.680 | 2 | 42.968 | 16.846 | 33.445 | 2 |
| 2025-09-19T16:26:00 | 57.709711 | 9.791151 | 2.0 | 16.681 | 2 | 42.973 | 16.845 | 33.450 | 2 |
| 2025-09-19T16:27:00 | 57.709699 | 9.791183 | 2.0 | 16.681 | 2 | 42.975 | 16.846 | 33.451 | 2 |
| 2025-09-19T16:28:00 | 57.709709 | 9.791340 | 2.0 | 16.679 | 2 | 42.975 | 16.846 | 33.451 | 2 |
| 2025-09-19T16:29:00 | 57.709635 | 9.791458 | 2.0 | 16.677 | 2 | 42.971 | 16.843 | 33.450 | 2 |
| 2025-09-19T16:30:00 | 57.709598 | 9.791454 | 2.0 | 16.674 | 2 | 42.968 | 16.841 | 33.449 | 2 |
| 2025-09-19T16:31:00 | 57.709585 | 9.791498 | 2.0 | 16.673 | 2 | 42.968 | 16.839 | 33.451 | 2 |
| 2025-09-19T16:32:00 | 57.709586 | 9.791589 | 2.0 | 16.681 | 2 | 42.968 | 16.838 | 33.451 | 2 |
| 2025-09-19T16:33:00 | 57.709616 | 9.791723 | 2.0 | 16.682 | 2 | 42.975 | 16.845 | 33.452 | 2 |
| 2025-09-19T16:34:00 | 57.709590 | 9.791734 | 2.0 | 16.684 | 2 | 42.978 | 16.847 | 33.453 | 2 |
| 2025-09-19T16:35:00 | 57.709533 | 9.791698 | 2.0 | 16.683 | 2 | 42.981 | 16.849 | 33.454 | 2 |
| 2025-09-19T16:36:00 | 57.709513 | 9.791654 | 2.0 | 16.683 | 2 | 42.979 | 16.848 | 33.453 | 2 |
| 2025-09-19T16:37:00 | 57.709525 | 9.791684 | 2.0 | 16.683 | 2 | 42.980 | 16.848 | 33.453 | 2 |
| 2025-09-19T16:38:00 | 57.709536 | 9.791927 | 2.0 | 16.683 | 2 | 42.978 | 16.848 | 33.452 | 2 |
| 2025-09-19T16:39:00 | 57.709505 | 9.792003 | 2.0 | 16.681 | 2 | 42.977 | 16.847 | 33.452 | 2 |
| 2025-09-19T16:40:00 | 57.709502 | 9.791943 | 2.0 | 16.681 | 2 | 42.977 | 16.846 | 33.453 | 2 |
| 2025-09-19T16:41:00 | 57.709473 | 9.791852 | 2.0 | 16.680 | 2 | 42.977 | 16.844 | 33.454 | 2 |
| 2025-09-19T16:42:00 | 57.709198 | 9.790892 | 2.0 | 16.679 | 2 | 42.975 | 16.844 | 33.452 | 2 |
| 2025-09-19T16:43:00 | 57.710208 | 9.788773 | 2.0 | 16.682 | 2 | 42.979 | 16.845 | 33.455 | 2 |
| 2025-09-19T16:44:00 | 57.712018 | 9.786361 | 2.0 | 16.686 | 2 | 42.990 | 16.849 | 33.461 | 2 |
| 2025-09-19T16:45:00 | 57.713962 | 9.783617 | 2.0 | 16.701 | 2 | 43.012 | 16.858 | 33.473 | 2 |
| 2025-09-19T16:46:00 | 57.715976 | 9.780910 | 2.0 | 16.706 | 2 | 43.035 | 16.868 | 33.485 | 2 |
| 2025-09-19T16:47:00 | 57.717965 | 9.778171 | 2.0 | 16.725 | 2 | 43.048 | 16.873 | 33.492 | 2 |
| 2025-09-19T16:48:00 | 57.719957 | 9.775399 | 2.0 | 16.730 | 2 | 43.075 | 16.892 | 33.499 | 2 |
| 2025-09-19T16:49:00 | 57.722014 | 9.772737 | 2.0 | 16.753 | 2 | 43.089 | 16.902 | 33.503 | 2 |
| 2025-09-19T16:50:00 | 57.724021 | 9.770094 | 2.0 | 16.753 | 2 | 43.101 | 16.918 | 33.500 | 2 |
| 2025-09-19T16:51:00 | 57.725950 | 9.767380 | 2.0 | 16.751 | 2 | 43.101 | 16.918 | 33.500 | 2 |
| 2025-09-19T16:52:00 | 57.727888 | 9.764686 | 2.0 | 16.749 | 2 | 43.101 | 16.916 | 33.502 | 2 |
| 2025-09-19T16:53:00 | 57.729826 | 9.762079 | 2.0 | 16.754 | 2 | 43.101 | 16.915 | 33.503 | 2 |
| 2025-09-19T16:54:00 | 57.731889 | 9.759600 | 2.0 | 16.751 | 2 | 43.100 | 16.919 | 33.499 | 2 |
| 2025-09-19T16:55:00 | 57.734008 | 9.757210 | 2.0 | 16.752 | 2 | 43.101 | 16.918 | 33.500 | 2 |
| 2025-09-19T16:56:00 | 57.736126 | 9.754796 | 2.0 | 16.755 | 2 | 43.102 | 16.918 | 33.501 | 2 |
| 2025-09-19T16:57:00 | 57.738091 | 9.752052 | 2.0 | 16.758 | 2 | 43.104 | 16.920 | 33.501 | 2 |
| 2025-09-19T16:58:00 | 57.740055 | 9.749235 | 2.0 | 16.764 | 2 | 43.103 | 16.926 | 33.495 | 2 |
| 2025-09-19T16:59:00 | 57.742018 | 9.746542 | 2.0 | 16.761 | 2 | 43.103 | 16.929 | 33.493 | 2 |
| 2025-09-19T17:00:00 | 57.743991 | 9.743794 | 2.0 | 16.758 | 2 | 43.105 | 16.926 | 33.497 | 2 |
| 2025-09-19T17:01:00 | 57.745917 | 9.740951 | 2.0 | 16.760 | 2 | 43.104 | 16.924 | 33.498 | 2 |
| 2025-09-19T17:02:00 | 57.747893 | 9.738198 | 2.0 | 16.764 | 2 | 43.100 | 16.927 | 33.492 | 2 |
| 2025-09-19T17:03:00 | 57.749874 | 9.735398 | 2.0 | 16.767 | 2 | 43.096 | 16.928 | 33.488 | 2 |
| 2025-09-19T17:04:00 | 57.751812 | 9.732595 | 2.0 | 16.768 | 2 | 43.096 | 16.932 | 33.484 | 2 |
| 2025-09-19T17:05:00 | 57.753799 | 9.729813 | 2.0 | 16.768 | 2 | 43.096 | 16.933 | 33.484 | 2 |
| 2025-09-19T17:06:00 | 57.755823 | 9.727002 | 2.0 | 16.769 | 2 | 43.094 | 16.934 | 33.481 | 2 |
| 2025-09-19T17:07:00 | 57.757835 | 9.724230 | 2.0 | 16.770 | 2 | 43.090 | 16.934 | 33.477 | 2 |
| 2025-09-19T17:08:00 | 57.759832 | 9.721449 | 2.0 | 16.772 | 2 | 43.088 | 16.937 | 33.473 | 2 |
| 2025-09-19T17:09:00 | 57.761774 | 9.718664 | 2.0 | 16.773 | 2 | 43.087 | 16.938 | 33.472 | 2 |
| 2025-09-19T17:10:00 | 57.763754 | 9.715847 | 2.0 | 16.775 | 2 | 43.087 | 16.939 | 33.471 | 2 |
| 2025-09-19T17:11:00 | 57.765634 | 9.712973 | 2.0 | 16.778 | 2 | 43.087 | 16.940 | 33.470 | 2 |
| 2025-09-19T17:12:00 | 57.767479 | 9.710016 | 2.0 | 16.779 | 2 | 43.086 | 16.943 | 33.467 | 2 |
| 2025-09-19T17:13:00 | 57.769352 | 9.706968 | 2.0 | 16.779 | 2 | 43.083 | 16.944 | 33.463 | 2 |
| 2025-09-19T17:14:00 | 57.771240 | 9.703985 | 2.0 | 16.731 | 2 | 43.082 | 16.945 | 33.461 | 2 |
| 2025-09-19T17:15:00 | 57.772983 | 9.701095 | 2.0 | 16.497 | 2 | 42.679 | 16.837 | 33.201 | 2 |
| 2025-09-19T17:16:00 | 57.774123 | 9.698877 | 2.0 | 16.506 | 2 | 42.101 | 16.685 | 32.823 | 2 |
| 2025-09-19T17:17:00 | 57.774942 | 9.697510 | 2.0 | 16.502 | 2 | 42.077 | 16.674 | 32.811 | 2 |
| 2025-09-19T17:18:00 | 57.775573 | 9.696640 | 2.0 | 16.506 | 2 | 42.075 | 16.671 | 32.812 | 2 |
| 2025-09-19T17:19:00 | 57.775861 | 9.696274 | 2.0 | 16.515 | 2 | 42.098 | 16.675 | 32.829 | 2 |
| 2025-09-19T17:20:00 | 57.775965 | 9.696262 | 2.0 | 16.520 | 2 | 42.122 | 16.682 | 32.844 | 2 |
| 2025-09-19T17:21:00 | 57.775866 | 9.696183 | 2.0 | 16.529 | 2 | 42.144 | 16.687 | 32.859 | 2 |
| 2025-09-19T17:22:00 | 57.775780 | 9.696079 | 2.0 | 16.535 | 2 | 42.170 | 16.695 | 32.875 | 2 |
| 2025-09-19T17:23:00 | 57.775740 | 9.696259 | 2.0 | 16.539 | 2 | 42.196 | 16.703 | 32.891 | 2 |
| 2025-09-19T17:24:00 | 57.775717 | 9.696392 | 2.0 | 16.535 | 2 | 42.202 | 16.704 | 32.895 | 2 |
| 2025-09-19T17:25:00 | 57.775725 | 9.696427 | 2.0 | 16.532 | 2 | 42.188 | 16.699 | 32.887 | 2 |
| 2025-09-19T17:26:00 | 57.775765 | 9.696498 | 2.0 | 16.531 | 2 | 42.180 | 16.697 | 32.882 | 2 |
| 2025-09-19T17:27:00 | 57.775684 | 9.696433 | 2.0 | 16.537 | 2 | 42.180 | 16.697 | 32.882 | 2 |
| 2025-09-19T17:28:00 | 57.775510 | 9.696284 | 2.0 | 16.548 | 2 | 42.199 | 16.702 | 32.894 | 2 |
| 2025-09-19T17:29:00 | 57.775334 | 9.696158 | 2.0 | 16.569 | 2 | 42.244 | 16.716 | 32.922 | 2 |
| 2025-09-19T17:30:00 | 57.775202 | 9.696108 | 2.0 | 16.603 | 2 | 42.317 | 16.737 | 32.968 | 2 |
| 2025-09-19T17:31:00 | 57.775125 | 9.696175 | 2.0 | 16.646 | 2 | 42.453 | 16.775 | 33.055 | 2 |
| 2025-09-19T17:32:00 | 57.775120 | 9.696229 | 2.0 | 16.662 | 2 | 42.587 | 16.812 | 33.142 | 2 |
| 2025-09-19T17:33:00 | 57.775068 | 9.696188 | 2.0 | 16.663 | 2 | 42.633 | 16.825 | 33.171 | 2 |
| 2025-09-19T17:34:00 | 57.775001 | 9.696134 | 2.0 | 16.664 | 2 | 42.636 | 16.826 | 33.173 | 2 |
| 2025-09-19T17:35:00 | 57.775281 | 9.695694 | 2.0 | 16.666 | 2 | 42.639 | 16.826 | 33.175 | 2 |
| 2025-09-19T17:36:00 | 57.776395 | 9.694263 | 2.0 | 16.636 | 2 | 42.643 | 16.828 | 33.177 | 2 |
| 2025-09-19T17:37:00 | 57.777969 | 9.691942 | 2.0 | 16.598 | 2 | 42.502 | 16.790 | 33.086 | 2 |
| 2025-09-19T17:38:00 | 57.779752 | 9.689180 | 2.0 | 16.590 | 2 | 42.419 | 16.768 | 33.032 | 2 |
| 2025-09-19T17:39:00 | 57.781604 | 9.686335 | 2.0 | 16.572 | 2 | 42.377 | 16.752 | 33.008 | 2 |
| 2025-09-19T17:40:00 | 57.783475 | 9.683407 | 2.0 | 16.618 | 2 | 42.388 | 16.748 | 33.021 | 2 |
| 2025-09-19T17:41:00 | 57.785360 | 9.680554 | 2.0 | 16.739 | 2 | 42.574 | 16.807 | 33.134 | 2 |
| 2025-09-19T17:42:00 | 57.787253 | 9.677761 | 2.0 | 16.762 | 2 | 42.820 | 16.895 | 33.275 | 2 |
| 2025-09-19T17:43:00 | 57.789159 | 9.674977 | 2.0 | 16.779 | 2 | 42.907 | 16.927 | 33.324 | 2 |
| 2025-09-19T17:44:00 | 57.791079 | 9.672214 | 2.0 | 16.796 | 2 | 42.952 | 16.944 | 33.349 | 2 |
| 2025-09-19T17:45:00 | 57.793030 | 9.669379 | 2.0 | 16.815 | 2 | 42.995 | 16.963 | 33.371 | 2 |
| 2025-09-19T17:46:00 | 57.795006 | 9.666574 | 2.0 | 16.822 | 2 | 43.024 | 16.979 | 33.383 | 2 |
| 2025-09-19T17:47:00 | 57.796950 | 9.663776 | 2.0 | 16.820 | 2 | 43.036 | 16.984 | 33.389 | 2 |
| 2025-09-19T17:48:00 | 57.798914 | 9.660990 | 2.0 | 16.816 | 2 | 43.035 | 16.984 | 33.388 | 2 |
| 2025-09-19T17:49:00 | 57.800857 | 9.658230 | 2.0 | 16.803 | 2 | 43.027 | 16.978 | 33.386 | 2 |
| 2025-09-19T17:50:00 | 57.802813 | 9.655486 | 2.0 | 16.803 | 2 | 43.010 | 16.969 | 33.379 | 2 |
| 2025-09-19T17:51:00 | 57.804770 | 9.652690 | 2.0 | 16.810 | 2 | 43.014 | 16.971 | 33.381 | 2 |
| 2025-09-19T17:52:00 | 57.806741 | 9.649876 | 2.0 | 16.805 | 2 | 43.020 | 16.973 | 33.384 | 2 |
| 2025-09-19T17:53:00 | 57.808714 | 9.647117 | 2.0 | 16.804 | 2 | 43.019 | 16.970 | 33.386 | 2 |
| 2025-09-19T17:54:00 | 57.810698 | 9.644360 | 2.0 | 16.805 | 2 | 43.021 | 16.970 | 33.388 | 2 |
| 2025-09-19T17:55:00 | 57.812695 | 9.641608 | 2.0 | 16.802 | 2 | 43.020 | 16.969 | 33.388 | 2 |
| 2025-09-19T17:56:00 | 57.814732 | 9.638836 | 2.0 | 16.806 | 2 | 43.020 | 16.968 | 33.388 | 2 |
| 2025-09-19T17:57:00 | 57.816766 | 9.636062 | 2.0 | 16.825 | 2 | 43.025 | 16.974 | 33.388 | 2 |
| 2025-09-19T17:58:00 | 57.818833 | 9.633286 | 2.0 | 16.849 | 2 | 43.038 | 16.993 | 33.383 | 2 |
| 2025-09-19T17:59:00 | 57.820865 | 9.630591 | 2.0 | 16.740 | 2 | 43.030 | 17.009 | 33.363 | 2 |
| 2025-09-19T18:00:00 | 57.822901 | 9.627939 | 2.0 | 16.554 | 2 | 42.700 | 16.881 | 33.183 | 2 |
| 2025-09-19T18:01:00 | 57.824892 | 9.625428 | 2.0 | 16.509 | 2 | 42.256 | 16.724 | 32.926 | 2 |
| 2025-09-19T18:02:00 | 57.826887 | 9.622993 | 2.0 | 16.476 | 2 | 42.118 | 16.673 | 32.848 | 2 |
| 2025-09-19T18:03:00 | 57.828877 | 9.620597 | 2.0 | 16.335 | 2 | 41.987 | 16.619 | 32.778 | 2 |
| 2025-09-19T18:04:00 | 57.830860 | 9.618239 | 2.0 | 16.317 | 2 | 41.636 | 16.509 | 32.561 | 2 |
| 2025-09-19T18:05:00 | 57.832854 | 9.615931 | 2.0 | 16.323 | 2 | 41.553 | 16.494 | 32.501 | 2 |
| 2025-09-19T18:06:00 | 57.834831 | 9.613578 | 2.0 | 16.314 | 2 | 41.450 | 16.487 | 32.417 | 2 |
| 2025-09-19T18:07:00 | 57.836824 | 9.611199 | 2.0 | 16.365 | 2 | 41.391 | 16.489 | 32.364 | 2 |
| 2025-09-19T18:08:00 | 57.838751 | 9.608928 | 2.0 | 16.339 | 2 | 41.513 | 16.534 | 32.434 | 2 |
| 2025-09-19T18:09:00 | 57.840522 | 9.606969 | 2.0 | 16.300 | 2 | 41.320 | 16.503 | 32.291 | 2 |
| 2025-09-19T18:10:00 | 57.841979 | 9.605667 | 2.0 | 16.283 | 2 | 41.162 | 16.473 | 32.177 | 2 |
| 2025-09-19T18:11:00 | 57.842494 | 9.604718 | 2.0 | 16.252 | 2 | 41.028 | 16.446 | 32.082 | 2 |
| 2025-09-19T18:12:00 | 57.842520 | 9.604246 | 2.0 | 16.245 | 2 | 40.928 | 16.423 | 32.013 | 2 |
| 2025-09-19T18:13:00 | 57.842467 | 9.603786 | 2.0 | 16.239 | 2 | 40.883 | 16.412 | 31.983 | 2 |
| 2025-09-19T18:14:00 | 57.842533 | 9.603741 | 2.0 | 16.241 | 2 | 40.869 | 16.408 | 31.974 | 2 |
| 2025-09-19T18:15:00 | 57.842511 | 9.603763 | 2.0 | 16.242 | 2 | 40.875 | 16.407 | 31.980 | 2 |
| 2025-09-19T18:16:00 | 57.842504 | 9.603857 | 2.0 | 16.244 | 2 | 40.907 | 16.410 | 32.005 | 2 |
| 2025-09-19T18:17:00 | 57.842504 | 9.603947 | 2.0 | 16.250 | 2 | 40.920 | 16.412 | 32.015 | 2 |
| 2025-09-19T18:18:00 | 57.842491 | 9.604025 | 2.0 | 16.254 | 2 | 40.946 | 16.416 | 32.034 | 2 |
| 2025-09-19T18:19:00 | 57.842478 | 9.604064 | 2.0 | 16.259 | 2 | 40.980 | 16.421 | 32.060 | 2 |
| 2025-09-19T18:20:00 | 57.842470 | 9.604103 | 2.0 | 16.264 | 2 | 41.015 | 16.426 | 32.087 | 2 |
| 2025-09-19T18:21:00 | 57.842490 | 9.604176 | 2.0 | 16.272 | 2 | 41.032 | 16.431 | 32.097 | 2 |
| 2025-09-19T18:22:00 | 57.842534 | 9.604319 | 2.0 | 16.278 | 2 | 41.042 | 16.439 | 32.100 | 2 |
| 2025-09-19T18:23:00 | 57.842587 | 9.604526 | 2.0 | 16.286 | 2 | 41.066 | 16.444 | 32.117 | 2 |
| 2025-09-19T18:24:00 | 57.842660 | 9.604720 | 2.0 | 16.291 | 2 | 41.103 | 16.452 | 32.142 | 2 |
| 2025-09-19T18:25:00 | 57.842700 | 9.604969 | 2.0 | 16.295 | 2 | 41.099 | 16.457 | 32.135 | 2 |
| 2025-09-19T18:26:00 | 57.842757 | 9.605244 | 2.0 | 16.299 | 2 | 41.096 | 16.461 | 32.129 | 2 |
| 2025-09-19T18:27:00 | 57.842788 | 9.605483 | 2.0 | 16.305 | 2 | 41.105 | 16.465 | 32.134 | 2 |
| 2025-09-19T18:28:00 | 57.842852 | 9.605761 | 2.0 | 16.313 | 2 | 41.127 | 16.471 | 32.148 | 2 |
| 2025-09-19T18:29:00 | 57.842901 | 9.605989 | 2.0 | 16.317 | 2 | 41.152 | 16.478 | 32.164 | 2 |
| 2025-09-19T18:30:00 | 57.843607 | 9.605692 | 2.0 | 16.316 | 2 | 41.160 | 16.481 | 32.169 | 2 |
| 2025-09-19T18:31:00 | 57.845037 | 9.604503 | 2.0 | 16.306 | 2 | 41.096 | 16.479 | 32.115 | 2 |
| 2025-09-19T18:32:00 | 57.846711 | 9.602443 | 2.0 | 16.295 | 2 | 40.924 | 16.470 | 31.972 | 2 |
| 2025-09-19T18:33:00 | 57.848792 | 9.600599 | 2.0 | 16.298 | 2 | 40.791 | 16.462 | 31.862 | 2 |
| 2025-09-19T18:34:00 | 57.851155 | 9.599437 | 2.0 | 16.294 | 2 | 40.733 | 16.467 | 31.808 | 2 |
| 2025-09-19T18:35:00 | 57.853528 | 9.598550 | 2.0 | 16.292 | 2 | 40.697 | 16.459 | 31.783 | 2 |
| 2025-09-19T18:36:00 | 57.855912 | 9.597707 | 2.0 | 16.288 | 2 | 40.763 | 16.467 | 31.834 | 2 |
| 2025-09-19T18:37:00 | 57.858300 | 9.596879 | 2.0 | 16.272 | 2 | 40.590 | 16.451 | 31.696 | 2 |
| 2025-09-19T18:38:00 | 57.860716 | 9.596035 | 2.0 | 16.252 | 2 | 40.394 | 16.439 | 31.535 | 2 |
| 2025-09-19T18:39:00 | 57.863129 | 9.595202 | 2.0 | 16.256 | 2 | 40.124 | 16.422 | 31.314 | 2 |
| 2025-09-19T18:40:00 | 57.865538 | 9.594422 | 2.0 | 16.239 | 2 | 40.039 | 16.423 | 31.239 | 2 |
| 2025-09-19T18:41:00 | 57.867935 | 9.593652 | 2.0 | 16.230 | 2 | 39.817 | 16.408 | 31.058 | 2 |
| 2025-09-19T18:42:00 | 57.870350 | 9.592848 | 2.0 | 16.220 | 2 | 39.614 | 16.396 | 30.891 | 2 |
| 2025-09-19T18:43:00 | 57.872771 | 9.592051 | 2.0 | 16.210 | 2 | 39.448 | 16.386 | 30.754 | 2 |
| 2025-09-19T18:44:00 | 57.875169 | 9.591280 | 2.0 | 16.207 | 2 | 39.185 | 16.377 | 30.533 | 2 |
| 2025-09-19T18:45:00 | 57.877471 | 9.590277 | 2.0 | 16.210 | 2 | 39.013 | 16.375 | 30.385 | 2 |
| 2025-09-19T18:46:00 | 57.879739 | 9.589156 | 2.0 | 16.214 | 2 | 38.892 | 16.377 | 30.279 | 2 |
| 2025-09-19T18:47:00 | 57.881897 | 9.587698 | 2.0 | 16.213 | 2 | 38.758 | 16.381 | 30.160 | 2 |
| 2025-09-19T18:48:00 | 57.883881 | 9.585881 | 2.0 | 16.214 | 2 | 38.680 | 16.380 | 30.093 | 2 |
| 2025-09-19T18:49:00 | 57.885848 | 9.583729 | 2.0 | 16.220 | 2 | 38.629 | 16.382 | 30.047 | 2 |
| 2025-09-19T18:50:00 | 57.887521 | 9.581033 | 2.0 | 16.227 | 2 | 38.563 | 16.388 | 29.986 | 2 |
| 2025-09-19T18:51:00 | 57.889012 | 9.578123 | 2.0 | 16.233 | 2 | 38.456 | 16.394 | 29.889 | 2 |
| 2025-09-19T18:52:00 | 57.890268 | 9.575048 | 2.0 | 16.236 | 2 | 38.369 | 16.400 | 29.809 | 2 |
| 2025-09-19T18:53:00 | 57.891208 | 9.571740 | 2.0 | 16.238 | 2 | 38.317 | 16.402 | 29.763 | 2 |
| 2025-09-19T18:54:00 | 57.892128 | 9.568572 | 2.0 | 16.241 | 2 | 38.264 | 16.406 | 29.714 | 2 |
| 2025-09-19T18:55:00 | 57.893017 | 9.565322 | 2.0 | 16.247 | 2 | 38.222 | 16.409 | 29.675 | 2 |
| 2025-09-19T18:56:00 | 57.893927 | 9.561911 | 2.0 | 16.250 | 2 | 38.174 | 16.414 | 29.630 | 2 |
| 2025-09-19T18:57:00 | 57.894830 | 9.558499 | 2.0 | 16.249 | 2 | 38.135 | 16.417 | 29.594 | 2 |
| 2025-09-19T18:58:00 | 57.895726 | 9.555227 | 2.0 | 16.249 | 2 | 38.110 | 16.415 | 29.574 | 2 |
| 2025-09-19T18:59:00 | 57.896625 | 9.551766 | 2.0 | 16.252 | 2 | 38.081 | 16.416 | 29.549 | 2 |
| 2025-09-19T19:00:00 | 57.897518 | 9.548269 | 2.0 | 16.270 | 2 | 38.021 | 16.421 | 29.493 | 2 |
| 2025-09-19T19:01:00 | 57.898408 | 9.544811 | 2.0 | 16.269 | 2 | 37.929 | 16.434 | 29.404 | 2 |
| 2025-09-19T19:02:00 | 57.899290 | 9.541337 | 2.0 | 16.268 | 2 | 37.924 | 16.435 | 29.399 | 2 |
| 2025-09-19T19:03:00 | 57.900174 | 9.537981 | 2.0 | 16.265 | 2 | 37.927 | 16.432 | 29.404 | 2 |
| 2025-09-19T19:04:00 | 57.901067 | 9.534594 | 2.0 | 16.270 | 2 | 37.905 | 16.432 | 29.385 | 2 |
| 2025-09-19T19:05:00 | 57.901963 | 9.531138 | 2.0 | 16.274 | 2 | 37.862 | 16.436 | 29.345 | 2 |
| 2025-09-19T19:06:00 | 57.902852 | 9.527632 | 2.0 | 16.277 | 2 | 37.828 | 16.440 | 29.313 | 2 |
| 2025-09-19T19:07:00 | 57.903735 | 9.524346 | 2.0 | 16.279 | 2 | 37.787 | 16.443 | 29.275 | 2 |
| 2025-09-19T19:08:00 | 57.904589 | 9.520982 | 2.0 | 16.281 | 2 | 37.746 | 16.444 | 29.239 | 2 |
| 2025-09-19T19:09:00 | 57.905429 | 9.517598 | 2.0 | 16.285 | 2 | 37.704 | 16.447 | 29.201 | 2 |
| 2025-09-19T19:10:00 | 57.906237 | 9.514363 | 2.0 | 16.286 | 2 | 37.643 | 16.452 | 29.145 | 2 |
| 2025-09-19T19:11:00 | 57.906931 | 9.511919 | 2.0 | 16.288 | 2 | 37.597 | 16.452 | 29.105 | 2 |
| 2025-09-19T19:12:00 | 57.907560 | 9.510338 | 2.0 | 16.287 | 2 | 37.556 | 16.453 | 29.069 | 2 |
| 2025-09-19T19:13:00 | 57.908177 | 9.509231 | 2.0 | 16.284 | 2 | 37.547 | 16.450 | 29.064 | 2 |
| 2025-09-19T19:14:00 | 57.908601 | 9.508119 | 2.0 | 16.288 | 2 | 37.541 | 16.448 | 29.060 | 2 |
| 2025-09-19T19:15:00 | 57.908431 | 9.506905 | 2.0 | 16.287 | 2 | 37.510 | 16.452 | 29.030 | 2 |
| 2025-09-19T19:16:00 | 57.908227 | 9.506191 | 2.0 | 16.287 | 2 | 37.493 | 16.452 | 29.016 | 2 |
| 2025-09-19T19:17:00 | 57.908234 | 9.506113 | 2.0 | 16.288 | 2 | 37.461 | 16.451 | 28.989 | 2 |
| 2025-09-19T19:18:00 | 57.908233 | 9.506216 | 2.0 | 16.288 | 2 | 37.442 | 16.451 | 28.973 | 2 |
| 2025-09-19T19:19:00 | 57.908250 | 9.506386 | 2.0 | 16.288 | 2 | 37.450 | 16.452 | 28.979 | 2 |
| 2025-09-19T19:20:00 | 57.908258 | 9.506611 | 2.0 | 16.289 | 2 | 37.428 | 16.452 | 28.960 | 2 |
| 2025-09-19T19:21:00 | 57.908167 | 9.506907 | 2.0 | 16.289 | 2 | 37.441 | 16.452 | 28.971 | 2 |
| 2025-09-19T19:22:00 | 57.908131 | 9.507169 | 2.0 | 16.289 | 2 | 37.430 | 16.453 | 28.961 | 2 |
| 2025-09-19T19:23:00 | 57.908082 | 9.507428 | 2.0 | 16.289 | 2 | 37.433 | 16.453 | 28.963 | 2 |
| 2025-09-19T19:24:00 | 57.908060 | 9.507644 | 2.0 | 16.289 | 2 | 37.429 | 16.452 | 28.961 | 2 |
| 2025-09-19T19:25:00 | 57.908080 | 9.507822 | 2.0 | 16.288 | 2 | 37.416 | 16.452 | 28.950 | 2 |
| 2025-09-19T19:26:00 | 57.908082 | 9.507976 | 2.0 | 16.288 | 2 | 37.421 | 16.452 | 28.954 | 2 |
| 2025-09-19T19:27:00 | 57.907983 | 9.508166 | 2.0 | 16.288 | 2 | 37.425 | 16.451 | 28.958 | 2 |
| 2025-09-19T19:28:00 | 57.907871 | 9.508374 | 2.0 | 16.288 | 2 | 37.423 | 16.451 | 28.956 | 2 |
| 2025-09-19T19:29:00 | 57.907808 | 9.508679 | 2.0 | 16.287 | 2 | 37.424 | 16.450 | 28.958 | 2 |
| 2025-09-19T19:30:00 | 57.907770 | 9.509057 | 2.0 | 16.287 | 2 | 37.427 | 16.450 | 28.960 | 2 |
| 2025-09-19T19:31:00 | 57.907707 | 9.509424 | 2.0 | 16.288 | 2 | 37.433 | 16.450 | 28.966 | 2 |
| 2025-09-19T19:32:00 | 57.907645 | 9.509785 | 2.0 | 16.288 | 2 | 37.428 | 16.451 | 28.961 | 2 |
| 2025-09-19T19:33:00 | 57.907610 | 9.510201 | 2.0 | 16.288 | 2 | 37.428 | 16.451 | 28.961 | 2 |
| 2025-09-19T19:34:00 | 57.907575 | 9.510618 | 2.0 | 16.287 | 2 | 37.427 | 16.451 | 28.960 | 2 |
| 2025-09-19T19:35:00 | 57.907513 | 9.510980 | 2.0 | 16.287 | 2 | 37.427 | 16.451 | 28.960 | 2 |
| 2025-09-19T19:36:00 | 57.907477 | 9.511328 | 2.0 | 16.287 | 2 | 37.424 | 16.451 | 28.957 | 2 |
| 2025-09-19T19:37:00 | 57.907403 | 9.511686 | 2.0 | 16.286 | 2 | 37.427 | 16.450 | 28.960 | 2 |
| 2025-09-19T19:38:00 | 57.907263 | 9.511669 | 2.0 | 16.286 | 2 | 37.425 | 16.449 | 28.959 | 2 |
| 2025-09-19T19:39:00 | 57.908053 | 9.511023 | 2.0 | 16.287 | 2 | 37.428 | 16.449 | 28.962 | 2 |
| 2025-09-19T19:40:00 | 57.909359 | 9.509648 | 2.0 | 16.286 | 2 | 37.404 | 16.450 | 28.941 | 2 |
| 2025-09-19T19:41:00 | 57.911004 | 9.507396 | 2.0 | 16.287 | 2 | 37.406 | 16.450 | 28.942 | 2 |
| 2025-09-19T19:42:00 | 57.912786 | 9.504868 | 2.0 | 16.287 | 2 | 37.381 | 16.452 | 28.919 | 2 |
| 2025-09-19T19:43:00 | 57.914605 | 9.502203 | 2.0 | 16.284 | 2 | 37.363 | 16.451 | 28.905 | 2 |
| 2025-09-19T19:44:00 | 57.916438 | 9.499498 | 2.0 | 16.286 | 2 | 37.333 | 16.449 | 28.880 | 2 |
| 2025-09-19T19:45:00 | 57.918294 | 9.496779 | 2.0 | 16.287 | 2 | 37.274 | 16.452 | 28.828 | 2 |
| 2025-09-19T19:46:00 | 57.920168 | 9.494038 | 2.0 | 16.284 | 2 | 37.118 | 16.452 | 28.694 | 2 |
| 2025-09-19T19:47:00 | 57.922039 | 9.491382 | 2.0 | 16.284 | 2 | 37.012 | 16.449 | 28.605 | 2 |
| 2025-09-19T19:48:00 | 57.923871 | 9.488773 | 2.0 | 16.281 | 2 | 36.909 | 16.449 | 28.516 | 2 |
| 2025-09-19T19:49:00 | 57.925718 | 9.486157 | 2.0 | 16.276 | 2 | 36.837 | 16.446 | 28.457 | 2 |
| 2025-09-19T19:50:00 | 57.927557 | 9.483599 | 2.0 | 16.275 | 2 | 36.788 | 16.441 | 28.418 | 2 |
| 2025-09-19T19:51:00 | 57.929394 | 9.481057 | 2.0 | 16.276 | 2 | 36.730 | 16.441 | 28.369 | 2 |
| 2025-09-19T19:52:00 | 57.931220 | 9.478555 | 2.0 | 16.275 | 2 | 36.690 | 16.442 | 28.334 | 2 |
| 2025-09-19T19:53:00 | 57.933044 | 9.475971 | 2.0 | 16.271 | 2 | 36.684 | 16.439 | 28.330 | 2 |
| 2025-09-19T19:54:00 | 57.934814 | 9.473351 | 2.0 | 16.271 | 2 | 36.692 | 16.437 | 28.339 | 2 |
| 2025-09-19T19:55:00 | 57.936447 | 9.470604 | 2.0 | 16.273 | 2 | 36.663 | 16.437 | 28.314 | 2 |
| 2025-09-19T19:56:00 | 57.938091 | 9.467793 | 2.0 | 16.275 | 2 | 36.343 | 16.439 | 28.038 | 2 |
| 2025-09-19T19:57:00 | 57.939730 | 9.465005 | 2.0 | 16.273 | 2 | 36.569 | 16.441 | 28.231 | 2 |
| 2025-09-19T19:58:00 | 57.941335 | 9.462309 | 2.0 | 16.271 | 2 | 36.429 | 16.438 | 28.113 | 2 |
| 2025-09-19T19:59:00 | 57.942945 | 9.459584 | 2.0 | 16.271 | 2 | 36.404 | 16.436 | 28.093 | 2 |
| 2025-09-19T20:00:00 | 57.944580 | 9.456851 | 2.0 | 16.275 | 2 | 36.504 | 16.437 | 28.178 | 2 |
| 2025-09-19T20:01:00 | 57.946240 | 9.454020 | 2.0 | 16.280 | 2 | 36.347 | 16.441 | 28.040 | 2 |
| 2025-09-19T20:02:00 | 57.947882 | 9.451258 | 2.0 | 16.280 | 2 | 36.412 | 16.445 | 28.093 | 2 |
| 2025-09-19T20:03:00 | 57.949531 | 9.448519 | 2.0 | 16.282 | 2 | 36.520 | 16.446 | 28.185 | 2 |
| 2025-09-19T20:04:00 | 57.951236 | 9.445772 | 2.0 | 16.284 | 2 | 36.564 | 16.448 | 28.221 | 2 |
| 2025-09-19T20:05:00 | 57.953077 | 9.443209 | 2.0 | 16.283 | 2 | 36.534 | 16.449 | 28.195 | 2 |
| 2025-09-19T20:06:00 | 57.954923 | 9.440657 | 2.0 | 16.278 | 2 | 36.578 | 16.448 | 28.233 | 2 |
| 2025-09-19T20:07:00 | 57.956773 | 9.438051 | 2.0 | 16.269 | 2 | 36.632 | 16.442 | 28.284 | 2 |
| 2025-09-19T20:08:00 | 57.958622 | 9.435486 | 2.0 | 16.259 | 2 | 36.710 | 16.433 | 28.357 | 2 |
| 2025-09-19T20:09:00 | 57.960473 | 9.432954 | 2.0 | 16.255 | 2 | 36.829 | 16.425 | 28.465 | 2 |
| 2025-09-19T20:10:00 | 57.962300 | 9.430426 | 2.0 | 16.251 | 2 | 36.865 | 16.420 | 28.499 | 2 |
| 2025-09-19T20:11:00 | 57.964136 | 9.427803 | 2.0 | 16.247 | 2 | 36.887 | 16.417 | 28.520 | 2 |
| 2025-09-19T20:12:00 | 57.965826 | 9.424950 | 2.0 | 16.242 | 2 | 36.971 | 16.413 | 28.595 | 2 |
| 2025-09-19T20:13:00 | 57.967490 | 9.422110 | 2.0 | 16.240 | 2 | 37.044 | 16.407 | 28.662 | 2 |
| 2025-09-19T20:14:00 | 57.969165 | 9.419317 | 2.0 | 16.236 | 2 | 37.096 | 16.404 | 28.709 | 2 |
| 2025-09-19T20:15:00 | 57.970739 | 9.416664 | 2.0 | 16.235 | 2 | 37.063 | 16.403 | 28.681 | 2 |
| 2025-09-19T20:16:00 | 57.972159 | 9.414431 | 2.0 | 16.235 | 2 | 37.058 | 16.401 | 28.679 | 2 |
| 2025-09-19T20:17:00 | 57.973389 | 9.412727 | 2.0 | 16.234 | 2 | 37.086 | 16.400 | 28.703 | 2 |
| 2025-09-19T20:18:00 | 57.973925 | 9.411855 | 2.0 | 16.233 | 2 | 37.072 | 16.398 | 28.693 | 2 |
| 2025-09-19T20:19:00 | 57.973974 | 9.411663 | 2.0 | 16.234 | 2 | 37.063 | 16.397 | 28.686 | 2 |
| 2025-09-19T20:20:00 | 57.973968 | 9.411453 | 2.0 | 16.234 | 2 | 37.069 | 16.397 | 28.691 | 2 |
| 2025-09-19T20:21:00 | 57.973894 | 9.411419 | 2.0 | 16.234 | 2 | 37.063 | 16.397 | 28.686 | 2 |
| 2025-09-19T20:22:00 | 57.973837 | 9.411676 | 2.0 | 16.233 | 2 | 37.092 | 16.397 | 28.711 | 2 |
| 2025-09-19T20:23:00 | 57.973777 | 9.412014 | 2.0 | 16.234 | 2 | 37.080 | 16.397 | 28.700 | 2 |
| 2025-09-19T20:24:00 | 57.973717 | 9.412352 | 2.0 | 16.233 | 2 | 37.089 | 16.397 | 28.708 | 2 |
| 2025-09-19T20:25:00 | 57.973654 | 9.412699 | 2.0 | 16.233 | 2 | 37.090 | 16.397 | 28.709 | 2 |
| 2025-09-19T20:26:00 | 57.973649 | 9.413071 | 2.0 | 16.233 | 2 | 37.096 | 16.397 | 28.714 | 2 |
| 2025-09-19T20:27:00 | 57.973615 | 9.413377 | 2.0 | 16.233 | 2 | 37.098 | 16.396 | 28.717 | 2 |
| 2025-09-19T20:28:00 | 57.973533 | 9.413595 | 2.0 | 16.233 | 2 | 37.089 | 16.396 | 28.709 | 2 |
| 2025-09-19T20:29:00 | 57.973479 | 9.413890 | 2.0 | 16.232 | 2 | 36.942 | 16.395 | 28.583 | 2 |
| 2025-09-19T20:30:00 | 57.973457 | 9.414219 | 2.0 | 16.232 | 2 | 37.040 | 16.395 | 28.667 | 2 |
| 2025-09-19T20:31:00 | 57.973536 | 9.414754 | 2.0 | 16.231 | 2 | 37.030 | 16.394 | 28.660 | 2 |
| 2025-09-19T20:32:00 | 57.973553 | 9.415188 | 2.0 | 16.232 | 2 | 37.062 | 16.394 | 28.687 | 2 |
| 2025-09-19T20:33:00 | 57.973520 | 9.415430 | 2.0 | 16.231 | 2 | 37.073 | 16.395 | 28.696 | 2 |
| 2025-09-19T20:34:00 | 57.973470 | 9.415560 | 2.0 | 16.232 | 2 | 37.043 | 16.395 | 28.670 | 2 |
| 2025-09-19T20:35:00 | 57.973423 | 9.415724 | 2.0 | 16.232 | 2 | 37.021 | 16.394 | 28.652 | 2 |
| 2025-09-19T20:36:00 | 57.973348 | 9.415817 | 2.0 | 16.231 | 2 | 37.071 | 16.395 | 28.694 | 2 |
| 2025-09-19T20:37:00 | 57.973250 | 9.415828 | 2.0 | 16.232 | 2 | 37.043 | 16.394 | 28.671 | 2 |
| 2025-09-19T20:38:00 | 57.973152 | 9.415812 | 2.0 | 16.233 | 2 | 37.032 | 16.396 | 28.660 | 2 |
| 2025-09-19T20:39:00 | 57.973172 | 9.415983 | 2.0 | 16.232 | 2 | 37.043 | 16.395 | 28.670 | 2 |
| 2025-09-19T20:40:00 | 57.973152 | 9.416132 | 2.0 | 16.233 | 2 | 37.061 | 16.395 | 28.685 | 2 |
| 2025-09-19T20:41:00 | 57.973124 | 9.416248 | 2.0 | 16.232 | 2 | 37.043 | 16.396 | 28.669 | 2 |
| 2025-09-19T20:42:00 | 57.973124 | 9.416399 | 2.0 | 16.233 | 2 | 37.058 | 16.395 | 28.683 | 2 |
| 2025-09-19T20:43:00 | 57.973116 | 9.416519 | 2.0 | 16.232 | 2 | 37.057 | 16.396 | 28.681 | 2 |
| 2025-09-19T20:44:00 | 57.973061 | 9.416647 | 2.0 | 16.233 | 2 | 37.057 | 16.395 | 28.682 | 2 |
| 2025-09-19T20:45:00 | 57.972998 | 9.416791 | 2.0 | 16.233 | 2 | 37.056 | 16.396 | 28.680 | 2 |
| 2025-09-19T20:46:00 | 57.972967 | 9.416959 | 2.0 | 16.234 | 2 | 37.054 | 16.397 | 28.678 | 2 |
| 2025-09-19T20:47:00 | 57.972975 | 9.416699 | 2.0 | 16.234 | 2 | 37.046 | 16.396 | 28.672 | 2 |
| 2025-09-19T20:48:00 | 57.973711 | 9.415686 | 2.0 | 16.234 | 2 | 37.045 | 16.397 | 28.670 | 2 |
| 2025-09-19T20:49:00 | 57.974704 | 9.413949 | 2.0 | 16.237 | 2 | 37.052 | 16.397 | 28.676 | 2 |
| 2025-09-19T20:50:00 | 57.975855 | 9.411267 | 2.0 | 16.242 | 2 | 37.048 | 16.402 | 28.669 | 2 |
| 2025-09-19T20:51:00 | 57.977274 | 9.408257 | 2.0 | 16.246 | 2 | 37.000 | 16.407 | 28.624 | 2 |
| 2025-09-19T20:52:00 | 57.978897 | 9.405306 | 2.0 | 16.247 | 2 | 37.021 | 16.411 | 28.640 | 2 |
| 2025-09-19T20:53:00 | 57.980531 | 9.402330 | 2.0 | 16.245 | 2 | 37.032 | 16.412 | 28.648 | 2 |
| 2025-09-19T20:54:00 | 57.982192 | 9.399391 | 2.0 | 16.240 | 2 | 37.028 | 16.409 | 28.647 | 2 |
| 2025-09-19T20:55:00 | 57.983835 | 9.396459 | 2.0 | 16.234 | 2 | 36.927 | 16.403 | 28.565 | 2 |
| 2025-09-19T20:56:00 | 57.985467 | 9.393435 | 2.0 | 16.228 | 2 | 36.905 | 16.398 | 28.549 | 2 |
| 2025-09-19T20:57:00 | 57.987094 | 9.390372 | 2.0 | 16.227 | 2 | 36.955 | 16.393 | 28.596 | 2 |
| 2025-09-19T20:58:00 | 57.988778 | 9.387380 | 2.0 | 16.226 | 2 | 36.923 | 16.392 | 28.569 | 2 |
| 2025-09-19T20:59:00 | 57.990585 | 9.384505 | 2.0 | 16.220 | 2 | 36.981 | 16.390 | 28.620 | 2 |
| 2025-09-19T21:00:00 | 57.992435 | 9.381642 | 2.0 | 16.210 | 2 | 36.984 | 16.383 | 28.628 | 2 |
| 2025-09-19T21:01:00 | 57.994265 | 9.378756 | 2.0 | 16.204 | 2 | 37.094 | 16.374 | 28.729 | 2 |
| 2025-09-19T21:02:00 | 57.996079 | 9.375830 | 2.0 | 16.197 | 2 | 37.174 | 16.368 | 28.802 | 2 |
| 2025-09-19T21:03:00 | 57.997903 | 9.372952 | 2.0 | 16.192 | 2 | 37.293 | 16.361 | 28.910 | 2 |
| 2025-09-19T21:04:00 | 57.999755 | 9.370099 | 2.0 | 16.186 | 2 | 37.361 | 16.356 | 28.972 | 2 |
| 2025-09-19T21:05:00 | 58.001786 | 9.367563 | 2.0 | 16.181 | 2 | 37.451 | 16.351 | 29.053 | 2 |
| 2025-09-19T21:06:00 | 58.003836 | 9.365038 | 2.0 | 16.178 | 2 | 37.524 | 16.347 | 29.119 | 2 |
| 2025-09-19T21:07:00 | 58.005844 | 9.362507 | 2.0 | 16.173 | 2 | 37.583 | 16.343 | 29.173 | 2 |
| 2025-09-19T21:08:00 | 58.007785 | 9.359915 | 2.0 | 16.162 | 2 | 37.645 | 16.338 | 29.230 | 2 |
| 2025-09-19T21:09:00 | 58.009796 | 9.357423 | 2.0 | 16.146 | 2 | 37.747 | 16.326 | 29.327 | 2 |
| 2025-09-19T21:10:00 | 58.011826 | 9.354940 | 2.0 | 16.138 | 2 | 37.868 | 16.311 | 29.442 | 2 |
| 2025-09-19T21:11:00 | 58.013808 | 9.352387 | 2.0 | 16.134 | 2 | 37.913 | 16.305 | 29.485 | 2 |
| 2025-09-19T21:12:00 | 58.015781 | 9.349797 | 2.0 | 16.134 | 2 | 37.911 | 16.301 | 29.487 | 2 |
| 2025-09-19T21:13:00 | 58.017762 | 9.347250 | 2.0 | 16.136 | 2 | 37.777 | 16.300 | 29.372 | 2 |
| 2025-09-19T21:14:00 | 58.019755 | 9.344738 | 2.0 | 16.139 | 2 | 37.888 | 16.303 | 29.465 | 2 |
| 2025-09-19T21:15:00 | 58.021790 | 9.342182 | 2.0 | 16.143 | 2 | 37.839 | 16.306 | 29.421 | 2 |
| 2025-09-19T21:16:00 | 58.023796 | 9.339623 | 2.0 | 16.147 | 2 | 37.853 | 16.310 | 29.430 | 2 |
| 2025-09-19T21:17:00 | 58.025788 | 9.337083 | 2.0 | 16.149 | 2 | 37.835 | 16.314 | 29.411 | 2 |
| 2025-09-19T21:18:00 | 58.027784 | 9.334475 | 2.0 | 16.149 | 2 | 38.009 | 16.314 | 29.562 | 2 |
| 2025-09-19T21:19:00 | 58.029779 | 9.331866 | 2.0 | 16.152 | 2 | 37.801 | 16.315 | 29.381 | 2 |
| 2025-09-19T21:20:00 | 58.031788 | 9.329299 | 2.0 | 16.151 | 2 | 37.883 | 16.317 | 29.451 | 2 |
| 2025-09-19T21:21:00 | 58.033797 | 9.326745 | 2.0 | 16.149 | 2 | 38.185 | 16.317 | 29.712 | 2 |
| 2025-09-19T21:22:00 | 58.035798 | 9.324196 | 2.0 | 16.147 | 2 | 38.189 | 16.315 | 29.717 | 2 |
| 2025-09-19T21:23:00 | 58.037611 | 9.321933 | 2.0 | 16.145 | 2 | 38.170 | 16.313 | 29.702 | 2 |
| 2025-09-19T21:24:00 | 58.039021 | 9.320011 | 2.0 | 16.142 | 2 | 38.221 | 16.310 | 29.748 | 2 |
| 2025-09-19T21:25:00 | 58.039975 | 9.318642 | 2.0 | 16.141 | 2 | 38.413 | 16.307 | 29.917 | 2 |
| 2025-09-19T21:26:00 | 58.040264 | 9.318186 | 2.0 | 16.139 | 2 | 38.388 | 16.304 | 29.897 | 2 |
| 2025-09-19T21:27:00 | 58.040445 | 9.318302 | 2.0 | 16.140 | 2 | 38.396 | 16.303 | 29.905 | 2 |
| 2025-09-19T21:28:00 | 58.040415 | 9.318431 | 2.0 | 16.140 | 2 | 38.421 | 16.303 | 29.927 | 2 |
| 2025-09-19T21:29:00 | 58.040364 | 9.318583 | 2.0 | 16.140 | 2 | 38.599 | 16.304 | 30.080 | 2 |
| 2025-09-19T21:30:00 | 58.040346 | 9.318895 | 2.0 | 16.140 | 2 | 38.557 | 16.304 | 30.044 | 2 |
| 2025-09-19T21:31:00 | 58.040331 | 9.319275 | 2.0 | 16.140 | 2 | 38.512 | 16.304 | 30.005 | 2 |
| 2025-09-19T21:32:00 | 58.040313 | 9.319584 | 2.0 | 16.140 | 2 | 38.444 | 16.304 | 29.946 | 2 |
| 2025-09-19T21:33:00 | 58.040264 | 9.319855 | 2.0 | 16.141 | 2 | 38.425 | 16.304 | 29.929 | 2 |
| 2025-09-19T21:34:00 | 58.040181 | 9.320111 | 2.0 | 16.141 | 2 | 38.475 | 16.305 | 29.972 | 2 |
| 2025-09-19T21:35:00 | 58.040124 | 9.320433 | 2.0 | 16.141 | 2 | 38.460 | 16.304 | 29.960 | 2 |
| 2025-09-19T21:36:00 | 58.040127 | 9.320830 | 2.0 | 16.141 | 2 | 38.492 | 16.305 | 29.987 | 2 |
| 2025-09-19T21:37:00 | 58.040135 | 9.321268 | 2.0 | 16.142 | 2 | 38.446 | 16.305 | 29.947 | 2 |
| 2025-09-19T21:38:00 | 58.040076 | 9.321621 | 2.0 | 16.142 | 2 | 38.513 | 16.305 | 30.005 | 2 |
| 2025-09-19T21:39:00 | 58.039991 | 9.321895 | 2.0 | 16.142 | 2 | 38.485 | 16.305 | 29.981 | 2 |
| 2025-09-19T21:40:00 | 58.039954 | 9.322263 | 2.0 | 16.142 | 2 | 38.496 | 16.305 | 29.990 | 2 |
| 2025-09-19T21:41:00 | 58.039959 | 9.322666 | 2.0 | 16.142 | 2 | 38.501 | 16.305 | 29.994 | 2 |
| 2025-09-19T21:42:00 | 58.039924 | 9.323034 | 2.0 | 16.142 | 2 | 38.523 | 16.306 | 30.013 | 2 |
| 2025-09-19T21:43:00 | 58.039873 | 9.323418 | 2.0 | 16.142 | 2 | 38.499 | 16.305 | 29.993 | 2 |
| 2025-09-19T21:44:00 | 58.039848 | 9.323743 | 2.0 | 16.142 | 2 | 38.550 | 16.305 | 30.037 | 2 |
| 2025-09-19T21:45:00 | 58.039859 | 9.324156 | 2.0 | 16.142 | 2 | 38.535 | 16.305 | 30.024 | 2 |
| 2025-09-19T21:46:00 | 58.039815 | 9.324543 | 2.0 | 16.142 | 2 | 38.538 | 16.305 | 30.026 | 2 |
| 2025-09-19T21:47:00 | 58.039811 | 9.324935 | 2.0 | 16.142 | 2 | 38.545 | 16.305 | 30.033 | 2 |
| 2025-09-19T21:48:00 | 58.039783 | 9.325303 | 2.0 | 16.142 | 2 | 38.560 | 16.305 | 30.046 | 2 |
| 2025-09-19T21:49:00 | 58.039756 | 9.325691 | 2.0 | 16.142 | 2 | 38.546 | 16.305 | 30.033 | 2 |
| 2025-09-19T21:50:00 | 58.039712 | 9.326033 | 2.0 | 16.142 | 2 | 38.576 | 16.305 | 30.059 | 2 |
| 2025-09-19T21:51:00 | 58.039590 | 9.326248 | 2.0 | 16.143 | 2 | 38.556 | 16.305 | 30.042 | 2 |
| 2025-09-19T21:52:00 | 58.039507 | 9.326510 | 2.0 | 16.143 | 2 | 38.550 | 16.306 | 30.036 | 2 |
| 2025-09-19T21:53:00 | 58.039445 | 9.326815 | 2.0 | 16.143 | 2 | 38.553 | 16.306 | 30.039 | 2 |
| 2025-09-19T21:54:00 | 58.039387 | 9.327200 | 2.0 | 16.143 | 2 | 38.555 | 16.306 | 30.040 | 2 |
| 2025-09-19T21:55:00 | 58.039343 | 9.327532 | 2.0 | 16.143 | 2 | 38.551 | 16.305 | 30.038 | 2 |
| 2025-09-19T21:56:00 | 58.039282 | 9.327894 | 2.0 | 16.143 | 2 | 38.561 | 16.305 | 30.046 | 2 |
| 2025-09-19T21:57:00 | 58.039199 | 9.328190 | 2.0 | 16.142 | 2 | 38.556 | 16.306 | 30.041 | 2 |
| 2025-09-19T21:58:00 | 58.039132 | 9.328535 | 2.0 | 16.143 | 2 | 38.554 | 16.305 | 30.040 | 2 |
| 2025-09-19T21:59:00 | 58.039044 | 9.328897 | 2.0 | 16.143 | 2 | 38.552 | 16.306 | 30.038 | 2 |
| 2025-09-19T22:00:00 | 58.039050 | 9.329315 | 2.0 | 16.143 | 2 | 38.550 | 16.305 | 30.037 | 2 |
| 2025-09-19T22:01:00 | 58.038977 | 9.329717 | 2.0 | 16.143 | 2 | 38.547 | 16.305 | 30.034 | 2 |
| 2025-09-19T22:02:00 | 58.038842 | 9.330034 | 2.0 | 16.143 | 2 | 38.556 | 16.306 | 30.041 | 2 |
| 2025-09-19T22:03:00 | 58.038794 | 9.330367 | 2.0 | 16.143 | 2 | 38.548 | 16.306 | 30.034 | 2 |
| 2025-09-19T22:04:00 | 58.038838 | 9.330308 | 2.0 | 16.143 | 2 | 38.545 | 16.306 | 30.032 | 2 |
| 2025-09-19T22:05:00 | 58.038921 | 9.329898 | 2.0 | 16.143 | 2 | 38.548 | 16.306 | 30.034 | 2 |
| 2025-09-19T22:06:00 | 58.038988 | 9.329139 | 2.0 | 16.144 | 2 | 38.529 | 16.306 | 30.018 | 2 |
| 2025-09-19T22:07:00 | 58.039183 | 9.328142 | 2.0 | 16.145 | 2 | 38.513 | 16.307 | 30.003 | 2 |
| 2025-09-19T22:08:00 | 58.039535 | 9.327039 | 2.0 | 16.144 | 2 | 38.515 | 16.308 | 30.004 | 2 |
| 2025-09-19T22:09:00 | 58.039991 | 9.326004 | 2.0 | 16.139 | 2 | 38.470 | 16.307 | 29.966 | 2 |
| 2025-09-19T22:10:00 | 58.040665 | 9.324828 | 2.0 | 16.122 | 2 | 38.386 | 16.299 | 29.899 | 2 |
| 2025-09-19T22:11:00 | 58.041413 | 9.323445 | 2.0 | 16.116 | 2 | 38.372 | 16.284 | 29.898 | 2 |
| 2025-09-19T22:12:00 | 58.042421 | 9.321615 | 2.0 | 16.118 | 2 | 37.624 | 16.280 | 29.254 | 2 |
| 2025-09-19T22:13:00 | 58.043763 | 9.319569 | 2.0 | 16.130 | 2 | 37.838 | 16.282 | 29.438 | 2 |
| 2025-09-19T22:14:00 | 58.045346 | 9.317108 | 2.0 | 16.139 | 2 | 38.021 | 16.296 | 29.586 | 2 |
| 2025-09-19T22:15:00 | 58.047038 | 9.314430 | 2.0 | 16.161 | 2 | 37.617 | 16.308 | 29.228 | 2 |
| 2025-09-19T22:16:00 | 58.048732 | 9.311640 | 2.0 | 16.168 | 2 | 37.662 | 16.324 | 29.255 | 2 |
| 2025-09-19T22:17:00 | 58.050458 | 9.308806 | 2.0 | 16.183 | 2 | 37.636 | 16.334 | 29.225 | 2 |
| 2025-09-19T22:18:00 | 58.052170 | 9.306022 | 2.0 | 16.191 | 2 | 37.333 | 16.348 | 28.953 | 2 |
| 2025-09-19T22:19:00 | 58.053905 | 9.303261 | 2.0 | 16.195 | 2 | 37.275 | 16.354 | 28.899 | 2 |
| 2025-09-19T22:20:00 | 58.055633 | 9.300522 | 2.0 | 16.196 | 2 | 37.445 | 16.358 | 29.043 | 2 |
| 2025-09-19T22:21:00 | 58.057377 | 9.297927 | 2.0 | 16.193 | 2 | 37.206 | 16.359 | 28.836 | 2 |
| 2025-09-19T22:22:00 | 58.059106 | 9.295310 | 2.0 | 16.191 | 2 | 37.373 | 16.357 | 28.981 | 2 |
| 2025-09-19T22:23:00 | 58.060840 | 9.292587 | 2.0 | 16.202 | 2 | 37.534 | 16.357 | 29.120 | 2 |
| 2025-09-19T22:24:00 | 58.062574 | 9.289853 | 2.0 | 16.215 | 2 | 37.586 | 16.368 | 29.157 | 2 |
| 2025-09-19T22:25:00 | 58.064281 | 9.287130 | 2.0 | 16.229 | 2 | 37.381 | 16.381 | 28.971 | 2 |
| 2025-09-19T22:26:00 | 58.066001 | 9.284308 | 2.0 | 16.270 | 2 | 37.423 | 16.401 | 28.993 | 2 |
| 2025-09-19T22:27:00 | 58.067717 | 9.281447 | 2.0 | 16.291 | 2 | 37.153 | 16.433 | 28.737 | 2 |
| 2025-09-19T22:28:00 | 58.069438 | 9.278612 | 2.0 | 16.305 | 2 | 37.526 | 16.456 | 29.041 | 2 |
| 2025-09-19T22:29:00 | 58.071132 | 9.275858 | 2.0 | 16.321 | 2 | 37.458 | 16.472 | 28.971 | 2 |
| 2025-09-19T22:30:00 | 58.072814 | 9.273055 | 2.0 | 16.331 | 2 | 36.866 | 16.483 | 28.455 | 2 |
| 2025-09-19T22:31:00 | 58.074490 | 9.270193 | 2.0 | 16.346 | 2 | 36.561 | 16.495 | 28.186 | 2 |
| 2025-09-19T22:32:00 | 58.076172 | 9.267287 | 2.0 | 16.356 | 2 | 37.241 | 16.509 | 28.758 | 2 |
| 2025-09-19T22:33:00 | 58.077840 | 9.264418 | 2.0 | 16.367 | 2 | 37.083 | 16.521 | 28.614 | 2 |
| 2025-09-19T22:34:00 | 58.079485 | 9.261553 | 2.0 | 16.375 | 2 | 36.868 | 16.529 | 28.424 | 2 |
| 2025-09-19T22:35:00 | 58.081133 | 9.258691 | 2.0 | 16.390 | 2 | 37.131 | 16.539 | 28.642 | 2 |
| 2025-09-19T22:36:00 | 58.082767 | 9.255815 | 2.0 | 16.402 | 2 | 36.974 | 16.553 | 28.498 | 2 |
| 2025-09-19T22:37:00 | 58.084428 | 9.252899 | 2.0 | 16.406 | 2 | 36.946 | 16.563 | 28.467 | 2 |
| 2025-09-19T22:38:00 | 58.086097 | 9.249949 | 2.0 | 16.409 | 2 | 36.907 | 16.568 | 28.430 | 2 |
| 2025-09-19T22:39:00 | 58.087866 | 9.247186 | 2.0 | 16.414 | 2 | 36.742 | 16.572 | 28.286 | 2 |
| 2025-09-19T22:40:00 | 58.089664 | 9.244539 | 2.0 | 16.420 | 2 | 36.847 | 16.577 | 28.372 | 2 |
| 2025-09-19T22:41:00 | 58.091442 | 9.241877 | 2.0 | 16.427 | 2 | 36.891 | 16.583 | 28.406 | 2 |
| 2025-09-19T22:42:00 | 58.093206 | 9.239217 | 2.0 | 16.435 | 2 | 36.960 | 16.589 | 28.460 | 2 |
| 2025-09-19T22:43:00 | 58.094997 | 9.236519 | 2.0 | 16.445 | 2 | 36.883 | 16.598 | 28.388 | 2 |
| 2025-09-19T22:44:00 | 58.096724 | 9.233710 | 2.0 | 16.441 | 2 | 36.768 | 16.606 | 28.284 | 2 |
| 2025-09-19T22:45:00 | 58.098364 | 9.230800 | 2.0 | 16.441 | 2 | 36.963 | 16.603 | 28.453 | 2 |
| 2025-09-19T22:46:00 | 58.099878 | 9.227911 | 2.0 | 16.433 | 2 | 36.963 | 16.603 | 28.453 | 2 |
| 2025-09-19T22:47:00 | 58.101224 | 9.225136 | 2.0 | 16.424 | 2 | 36.929 | 16.594 | 28.430 | 2 |
| 2025-09-19T22:48:00 | 58.102704 | 9.222588 | 2.0 | 16.424 | 2 | 36.887 | 16.588 | 28.399 | 2 |
| 2025-09-19T22:49:00 | 58.104058 | 9.220312 | 2.0 | 16.420 | 2 | 36.795 | 16.586 | 28.322 | 2 |
| 2025-09-19T22:50:00 | 58.105031 | 9.218649 | 2.0 | 16.415 | 2 | 36.944 | 16.581 | 28.452 | 2 |
| 2025-09-19T22:51:00 | 58.105494 | 9.217285 | 2.0 | 16.408 | 2 | 37.226 | 16.576 | 28.697 | 2 |
| 2025-09-19T22:52:00 | 58.105570 | 9.216598 | 2.0 | 16.406 | 2 | 37.243 | 16.570 | 28.716 | 2 |
| 2025-09-19T22:53:00 | 58.105587 | 9.216518 | 2.0 | 16.405 | 2 | 37.115 | 16.568 | 28.608 | 2 |
| 2025-09-19T22:54:00 | 58.105589 | 9.216646 | 2.0 | 16.404 | 2 | 37.121 | 16.567 | 28.614 | 2 |
| 2025-09-19T22:55:00 | 58.105638 | 9.217027 | 2.0 | 16.403 | 2 | 37.035 | 16.565 | 28.542 | 2 |
| 2025-09-19T22:56:00 | 58.105616 | 9.217543 | 2.0 | 16.399 | 2 | 37.184 | 16.565 | 28.669 | 2 |
| 2025-09-19T22:57:00 | 58.105535 | 9.217938 | 2.0 | 16.399 | 2 | 37.076 | 16.555 | 28.584 | 2 |
| 2025-09-19T22:58:00 | 58.105470 | 9.218321 | 2.0 | 16.398 | 2 | 37.223 | 16.560 | 28.706 | 2 |
| 2025-09-19T22:59:00 | 58.105398 | 9.218715 | 2.0 | 16.400 | 2 | 37.289 | 16.559 | 28.763 | 2 |
| 2025-09-19T23:00:00 | 58.105327 | 9.219062 | 2.0 | 16.397 | 2 | 37.277 | 16.561 | 28.752 | 2 |
| 2025-09-19T23:01:00 | 58.105234 | 9.219462 | 2.0 | 16.398 | 2 | 37.243 | 16.559 | 28.724 | 2 |
| 2025-09-19T23:02:00 | 58.105198 | 9.219821 | 2.0 | 16.399 | 2 | 37.272 | 16.561 | 28.747 | 2 |
| 2025-09-19T23:03:00 | 58.105174 | 9.220182 | 2.0 | 16.399 | 2 | 37.173 | 16.561 | 28.663 | 2 |
| 2025-09-19T23:04:00 | 58.105070 | 9.220582 | 2.0 | 16.395 | 2 | 37.177 | 16.560 | 28.667 | 2 |
| 2025-09-19T23:05:00 | 58.104967 | 9.220880 | 2.0 | 16.395 | 2 | 37.251 | 16.555 | 28.734 | 2 |
| 2025-09-19T23:06:00 | 58.104835 | 9.221211 | 2.0 | 16.397 | 2 | 37.274 | 16.558 | 28.751 | 2 |
| 2025-09-19T23:07:00 | 58.104661 | 9.221495 | 2.0 | 16.398 | 2 | 37.163 | 16.558 | 28.656 | 2 |
| 2025-09-19T23:08:00 | 58.104521 | 9.221773 | 2.0 | 16.398 | 2 | 37.187 | 16.559 | 28.676 | 2 |
| 2025-09-19T23:09:00 | 58.104459 | 9.222112 | 2.0 | 16.398 | 2 | 37.181 | 16.559 | 28.671 | 2 |
| 2025-09-19T23:10:00 | 58.104418 | 9.222444 | 2.0 | 16.398 | 2 | 37.163 | 16.560 | 28.655 | 2 |
| 2025-09-19T23:11:00 | 58.104336 | 9.222747 | 2.0 | 16.396 | 2 | 37.248 | 16.559 | 28.728 | 2 |
| 2025-09-19T23:12:00 | 58.104141 | 9.222934 | 2.0 | 16.397 | 2 | 37.231 | 16.558 | 28.714 | 2 |
| 2025-09-19T23:13:00 | 58.103935 | 9.223089 | 2.0 | 16.397 | 2 | 37.248 | 16.558 | 28.729 | 2 |
| 2025-09-19T23:14:00 | 58.103803 | 9.223313 | 2.0 | 16.397 | 2 | 37.222 | 16.559 | 28.706 | 2 |
| 2025-09-19T23:15:00 | 58.103702 | 9.223626 | 2.0 | 16.396 | 2 | 37.276 | 16.559 | 28.752 | 2 |
| 2025-09-19T23:16:00 | 58.103566 | 9.224020 | 2.0 | 16.395 | 2 | 37.265 | 16.557 | 28.744 | 2 |
| 2025-09-19T23:17:00 | 58.103448 | 9.224336 | 2.0 | 16.395 | 2 | 37.255 | 16.557 | 28.736 | 2 |
| 2025-09-19T23:18:00 | 58.103389 | 9.224736 | 2.0 | 16.395 | 2 | 37.268 | 16.557 | 28.747 | 2 |
| 2025-09-19T23:19:00 | 58.103326 | 9.225044 | 2.0 | 16.394 | 2 | 37.303 | 16.556 | 28.778 | 2 |
| 2025-09-19T23:20:00 | 58.103187 | 9.225273 | 2.0 | 16.394 | 2 | 37.306 | 16.555 | 28.781 | 2 |
| 2025-09-19T23:21:00 | 58.102956 | 9.225440 | 2.0 | 16.394 | 2 | 37.304 | 16.555 | 28.779 | 2 |
| 2025-09-19T23:22:00 | 58.102738 | 9.225585 | 2.0 | 16.394 | 2 | 37.307 | 16.555 | 28.782 | 2 |
| 2025-09-19T23:23:00 | 58.102547 | 9.225694 | 2.0 | 16.394 | 2 | 37.313 | 16.556 | 28.786 | 2 |
| 2025-09-19T23:24:00 | 58.102488 | 9.225992 | 2.0 | 16.394 | 2 | 37.307 | 16.556 | 28.781 | 2 |
| 2025-09-19T23:25:00 | 58.102395 | 9.226364 | 2.0 | 16.393 | 2 | 37.305 | 16.555 | 28.780 | 2 |
| 2025-09-19T23:26:00 | 58.102271 | 9.226701 | 2.0 | 16.392 | 2 | 37.337 | 16.554 | 28.808 | 2 |
| 2025-09-19T23:27:00 | 58.102146 | 9.226942 | 2.0 | 16.392 | 2 | 37.337 | 16.553 | 28.809 | 2 |
| 2025-09-19T23:28:00 | 58.101987 | 9.227226 | 2.0 | 16.391 | 2 | 37.224 | 16.554 | 28.711 | 2 |
| 2025-09-19T23:29:00 | 58.101871 | 9.227581 | 2.0 | 16.388 | 2 | 37.320 | 16.552 | 28.795 | 2 |
| 2025-09-19T23:30:00 | 58.101688 | 9.227819 | 2.0 | 16.391 | 2 | 37.115 | 16.549 | 28.622 | 2 |
| 2025-09-19T23:31:00 | 58.101486 | 9.228037 | 2.0 | 16.391 | 2 | 37.168 | 16.553 | 28.664 | 2 |
| 2025-09-19T23:32:00 | 58.101311 | 9.228188 | 2.0 | 16.391 | 2 | 37.236 | 16.553 | 28.722 | 2 |
| 2025-09-19T23:33:00 | 58.101140 | 9.228376 | 2.0 | 16.392 | 2 | 37.299 | 16.553 | 28.776 | 2 |
| 2025-09-19T23:34:00 | 58.101022 | 9.228644 | 2.0 | 16.391 | 2 | 37.184 | 16.554 | 28.677 | 2 |
| 2025-09-19T23:35:00 | 58.100931 | 9.228978 | 2.0 | 16.391 | 2 | 37.211 | 16.553 | 28.701 | 2 |
| 2025-09-19T23:36:00 | 58.100719 | 9.229150 | 2.0 | 16.391 | 2 | 37.216 | 16.553 | 28.705 | 2 |
| 2025-09-19T23:37:00 | 58.100522 | 9.229338 | 2.0 | 16.390 | 2 | 37.235 | 16.552 | 28.722 | 2 |
| 2025-09-19T23:38:00 | 58.100367 | 9.229617 | 2.0 | 16.390 | 2 | 37.245 | 16.552 | 28.731 | 2 |
| 2025-09-19T23:39:00 | 58.100256 | 9.229850 | 2.0 | 16.390 | 2 | 37.259 | 16.552 | 28.743 | 2 |
| 2025-09-19T23:40:00 | 58.100333 | 9.230082 | 2.0 | 16.388 | 2 | 37.198 | 16.551 | 28.691 | 2 |
| 2025-09-19T23:41:00 | 58.100479 | 9.230197 | 2.0 | 16.386 | 2 | 37.264 | 16.549 | 28.749 | 2 |
| 2025-09-19T23:42:00 | 58.100452 | 9.229944 | 2.0 | 16.385 | 2 | 37.226 | 16.548 | 28.717 | 2 |
| 2025-09-19T23:43:00 | 58.100348 | 9.229373 | 2.0 | 16.382 | 2 | 37.045 | 16.547 | 28.563 | 2 |
| 2025-09-19T23:44:00 | 58.100550 | 9.228579 | 2.0 | 16.380 | 2 | 37.381 | 16.545 | 28.852 | 2 |
| 2025-09-19T23:45:00 | 58.101016 | 9.227543 | 2.0 | 16.376 | 2 | 37.406 | 16.541 | 28.877 | 2 |
| 2025-09-19T23:46:00 | 58.101707 | 9.226259 | 2.0 | 16.371 | 2 | 37.427 | 16.537 | 28.898 | 2 |
| 2025-09-19T23:47:00 | 58.102743 | 9.224471 | 2.0 | 16.363 | 2 | 37.392 | 16.532 | 28.871 | 2 |
| 2025-09-19T23:48:00 | 58.104070 | 9.222262 | 2.0 | 16.353 | 2 | 37.499 | 16.524 | 28.969 | 2 |
| 2025-09-19T23:49:00 | 58.105624 | 9.219482 | 2.0 | 16.339 | 2 | 37.544 | 16.514 | 29.015 | 2 |
| 2025-09-19T23:50:00 | 58.107245 | 9.216449 | 2.0 | 16.319 | 2 | 37.583 | 16.500 | 29.058 | 2 |
| 2025-09-19T23:51:00 | 58.108953 | 9.213339 | 2.0 | 16.295 | 2 | 37.678 | 16.480 | 29.154 | 2 |
| 2025-09-19T23:52:00 | 58.110771 | 9.210394 | 2.0 | 16.271 | 2 | 37.840 | 16.456 | 29.311 | 2 |
| 2025-09-19T23:53:00 | 58.112629 | 9.207532 | 2.0 | 16.245 | 2 | 37.910 | 16.432 | 29.389 | 2 |
| 2025-09-19T23:54:00 | 58.114492 | 9.204709 | 2.0 | 16.245 | 2 | 37.963 | 16.411 | 29.450 | 2 |
| 2025-09-19T23:55:00 | 58.116329 | 9.201857 | 2.0 | 16.253 | 2 | 37.878 | 16.413 | 29.376 | 2 |
| 2025-09-19T23:56:00 | 58.118172 | 9.199071 | 2.0 | 16.258 | 2 | 37.302 | 16.418 | 28.876 | 2 |
| 2025-09-19T23:57:00 | 58.119996 | 9.196245 | 2.0 | 16.262 | 2 | 37.082 | 16.423 | 28.683 | 2 |
| 2025-09-19T23:58:00 | 58.121857 | 9.193430 | 2.0 | 16.268 | 2 | 37.691 | 16.428 | 29.204 | 2 |
| 2025-09-19T23:59:00 | 58.123748 | 9.190665 | 2.0 | 16.267 | 2 | 37.129 | 16.431 | 28.718 | 2 |
| 2025-09-20T00:00:00 | 58.125695 | 9.187889 | 2.0 | 16.268 | 2 | 37.745 | 16.432 | 29.247 | 2 |
| 2025-09-20T00:01:00 | 58.127663 | 9.185150 | 2.0 | 16.266 | 2 | 37.824 | 16.431 | 29.316 | 2 |
| 2025-09-20T00:02:00 | 58.129650 | 9.182465 | 2.0 | 16.270 | 2 | 37.650 | 16.432 | 29.165 | 2 |
| 2025-09-20T00:03:00 | 58.131635 | 9.179719 | 2.0 | 16.265 | 2 | 37.731 | 16.433 | 29.234 | 2 |
| 2025-09-20T00:04:00 | 58.133632 | 9.176951 | 2.0 | 16.256 | 2 | 37.413 | 16.427 | 28.965 | 2 |
| 2025-09-20T00:05:00 | 58.135632 | 9.174141 | 2.0 | 16.250 | 2 | 37.913 | 16.419 | 29.401 | 2 |
| 2025-09-20T00:06:00 | 58.137630 | 9.171273 | 2.0 | 16.246 | 2 | 38.485 | 16.415 | 29.898 | 2 |
| 2025-09-20T00:07:00 | 58.139611 | 9.168420 | 2.0 | 16.232 | 2 | 38.739 | 16.408 | 30.123 | 2 |
| 2025-09-20T00:08:00 | 58.141570 | 9.165594 | 2.0 | 16.230 | 2 | 38.931 | 16.397 | 30.297 | 2 |
| 2025-09-20T00:09:00 | 58.143542 | 9.162846 | 2.0 | 16.234 | 2 | 38.976 | 16.396 | 30.337 | 2 |
| 2025-09-20T00:10:00 | 58.145522 | 9.160190 | 2.0 | 16.243 | 2 | 39.145 | 16.400 | 30.481 | 2 |
| 2025-09-20T00:11:00 | 58.147510 | 9.157376 | 2.0 | 16.250 | 2 | 39.127 | 16.409 | 30.458 | 2 |
| 2025-09-20T00:12:00 | 58.149501 | 9.154569 | 2.0 | 16.248 | 2 | 39.176 | 16.414 | 30.497 | 2 |
| 2025-09-20T00:13:00 | 58.151483 | 9.151746 | 2.0 | 16.245 | 2 | 39.321 | 16.412 | 30.624 | 2 |
| 2025-09-20T00:14:00 | 58.153472 | 9.148967 | 2.0 | 16.255 | 2 | 39.338 | 16.411 | 30.639 | 2 |
| 2025-09-20T00:15:00 | 58.155441 | 9.146194 | 2.0 | 16.267 | 2 | 39.364 | 16.422 | 30.654 | 2 |
| 2025-09-20T00:16:00 | 58.157413 | 9.143359 | 2.0 | 16.269 | 2 | 39.344 | 16.432 | 30.629 | 2 |
| 2025-09-20T00:17:00 | 58.159410 | 9.140558 | 2.0 | 16.272 | 2 | 39.314 | 16.434 | 30.601 | 2 |
| 2025-09-20T00:18:00 | 58.161333 | 9.137826 | 2.0 | 16.272 | 2 | 39.178 | 16.435 | 30.482 | 2 |
| 2025-09-20T00:19:00 | 58.163288 | 9.135017 | 2.0 | 16.301 | 2 | 39.071 | 16.442 | 30.385 | 2 |
| 2025-09-20T00:20:00 | 58.165171 | 9.132255 | 2.0 | 16.320 | 2 | 38.778 | 16.467 | 30.112 | 2 |
| 2025-09-20T00:21:00 | 58.166883 | 9.129699 | 2.0 | 16.333 | 2 | 38.590 | 16.486 | 29.936 | 2 |
| 2025-09-20T00:22:00 | 58.168244 | 9.127511 | 2.0 | 16.336 | 2 | 38.447 | 16.496 | 29.805 | 2 |
| 2025-09-20T00:23:00 | 58.169275 | 9.125419 | 2.0 | 16.335 | 2 | 38.341 | 16.498 | 29.712 | 2 |
| 2025-09-20T00:24:00 | 58.170165 | 9.123595 | 2.0 | 16.337 | 2 | 38.390 | 16.498 | 29.754 | 2 |
| 2025-09-20T00:25:00 | 58.170804 | 9.122016 | 2.0 | 16.337 | 2 | 38.182 | 16.500 | 29.574 | 2 |
| 2025-09-20T00:26:00 | 58.171035 | 9.120866 | 2.0 | 16.337 | 2 | 38.357 | 16.500 | 29.724 | 2 |
| 2025-09-20T00:27:00 | 58.171121 | 9.120252 | 2.0 | 16.336 | 2 | 38.369 | 16.499 | 29.735 | 2 |
| 2025-09-20T00:28:00 | 58.171198 | 9.119983 | 2.0 | 16.335 | 2 | 38.378 | 16.498 | 29.744 | 2 |
| 2025-09-20T00:29:00 | 58.171252 | 9.119916 | 2.0 | 16.335 | 2 | 38.387 | 16.497 | 29.752 | 2 |
| 2025-09-20T00:30:00 | 58.171187 | 9.120047 | 2.0 | 16.335 | 2 | 38.051 | 16.498 | 29.462 | 2 |
| 2025-09-20T00:31:00 | 58.171095 | 9.120248 | 2.0 | 16.334 | 2 | 38.212 | 16.497 | 29.602 | 2 |
| 2025-09-20T00:32:00 | 58.171011 | 9.120508 | 2.0 | 16.334 | 2 | 38.408 | 16.497 | 29.770 | 2 |
| 2025-09-20T00:33:00 | 58.170905 | 9.120684 | 2.0 | 16.332 | 2 | 38.423 | 16.496 | 29.784 | 2 |
| 2025-09-20T00:34:00 | 58.170840 | 9.120950 | 2.0 | 16.330 | 2 | 38.475 | 16.494 | 29.830 | 2 |
| 2025-09-20T00:35:00 | 58.170736 | 9.121095 | 2.0 | 16.330 | 2 | 38.249 | 16.492 | 29.637 | 2 |
| 2025-09-20T00:36:00 | 58.170590 | 9.121237 | 2.0 | 16.331 | 2 | 38.481 | 16.492 | 29.837 | 2 |
| 2025-09-20T00:37:00 | 58.170420 | 9.121362 | 2.0 | 16.332 | 2 | 38.314 | 16.493 | 29.692 | 2 |
| 2025-09-20T00:38:00 | 58.170289 | 9.121511 | 2.0 | 16.330 | 2 | 38.282 | 16.494 | 29.664 | 2 |
| 2025-09-20T00:39:00 | 58.170237 | 9.121883 | 2.0 | 16.327 | 2 | 38.525 | 16.491 | 29.876 | 2 |
| 2025-09-20T00:40:00 | 58.170192 | 9.122255 | 2.0 | 16.328 | 2 | 38.679 | 16.492 | 30.008 | 2 |
| 2025-09-20T00:41:00 | 58.170114 | 9.122581 | 2.0 | 16.318 | 2 | 38.513 | 16.488 | 29.868 | 2 |
| 2025-09-20T00:42:00 | 58.170093 | 9.122859 | 2.0 | 16.319 | 2 | 38.787 | 16.478 | 30.112 | 2 |
| 2025-09-20T00:43:00 | 58.170118 | 9.123187 | 2.0 | 16.326 | 2 | 38.510 | 16.483 | 29.869 | 2 |
| 2025-09-20T00:44:00 | 58.170195 | 9.123563 | 2.0 | 16.327 | 2 | 38.468 | 16.488 | 29.829 | 2 |
| 2025-09-20T00:45:00 | 58.170144 | 9.123823 | 2.0 | 16.328 | 2 | 38.363 | 16.489 | 29.738 | 2 |
| 2025-09-20T00:46:00 | 58.169995 | 9.124126 | 2.0 | 16.327 | 2 | 38.481 | 16.490 | 29.839 | 2 |
| 2025-09-20T00:47:00 | 58.169798 | 9.124509 | 2.0 | 16.327 | 2 | 38.181 | 16.488 | 29.582 | 2 |
| 2025-09-20T00:48:00 | 58.169580 | 9.124950 | 2.0 | 16.326 | 2 | 38.345 | 16.488 | 29.723 | 2 |
| 2025-09-20T00:49:00 | 58.169380 | 9.125232 | 2.0 | 16.324 | 2 | 38.405 | 16.487 | 29.775 | 2 |
| 2025-09-20T00:50:00 | 58.169208 | 9.125434 | 2.0 | 16.325 | 2 | 38.366 | 16.487 | 29.742 | 2 |
| 2025-09-20T00:51:00 | 58.169042 | 9.125433 | 2.0 | 16.324 | 2 | 38.480 | 16.488 | 29.839 | 2 |
| 2025-09-20T00:52:00 | 58.168959 | 9.125633 | 2.0 | 16.317 | 2 | 38.498 | 16.485 | 29.857 | 2 |
| 2025-09-20T00:53:00 | 58.168899 | 9.125799 | 2.0 | 16.320 | 2 | 38.810 | 16.479 | 30.131 | 2 |
| 2025-09-20T00:54:00 | 58.168781 | 9.125920 | 2.0 | 16.316 | 2 | 38.458 | 16.481 | 29.825 | 2 |
| 2025-09-20T00:55:00 | 58.168594 | 9.126050 | 2.0 | 16.307 | 2 | 38.649 | 16.477 | 29.993 | 2 |
| 2025-09-20T00:56:00 | 58.168438 | 9.126108 | 2.0 | 16.310 | 2 | 38.943 | 16.472 | 30.251 | 2 |
| 2025-09-20T00:57:00 | 58.168321 | 9.126173 | 2.0 | 16.323 | 2 | 38.642 | 16.475 | 29.989 | 2 |
| 2025-09-20T00:58:00 | 58.168191 | 9.126273 | 2.0 | 16.324 | 2 | 38.481 | 16.484 | 29.843 | 2 |
| 2025-09-20T00:59:00 | 58.168129 | 9.126423 | 2.0 | 16.324 | 2 | 38.435 | 16.486 | 29.802 | 2 |
| 2025-09-20T01:00:00 | 58.168033 | 9.126545 | 2.0 | 16.323 | 2 | 38.488 | 16.486 | 29.848 | 2 |
| 2025-09-20T01:01:00 | 58.167860 | 9.126636 | 2.0 | 16.320 | 2 | 38.430 | 16.485 | 29.798 | 2 |
| 2025-09-20T01:02:00 | 58.167694 | 9.126730 | 2.0 | 16.318 | 2 | 38.534 | 16.483 | 29.890 | 2 |
| 2025-09-20T01:03:00 | 58.167512 | 9.126909 | 2.0 | 16.318 | 2 | 38.617 | 16.480 | 29.963 | 2 |
| 2025-09-20T01:04:00 | 58.167314 | 9.127104 | 2.0 | 16.321 | 2 | 38.581 | 16.481 | 29.932 | 2 |
| 2025-09-20T01:05:00 | 58.167173 | 9.127234 | 2.0 | 16.321 | 2 | 38.516 | 16.483 | 29.874 | 2 |
| 2025-09-20T01:06:00 | 58.167043 | 9.127381 | 2.0 | 16.321 | 2 | 38.476 | 16.483 | 29.840 | 2 |
| 2025-09-20T01:07:00 | 58.166865 | 9.127630 | 2.0 | 16.319 | 2 | 38.509 | 16.483 | 29.868 | 2 |
| 2025-09-20T01:08:00 | 58.166681 | 9.127905 | 2.0 | 16.320 | 2 | 38.584 | 16.482 | 29.933 | 2 |
| 2025-09-20T01:09:00 | 58.166513 | 9.128011 | 2.0 | 16.317 | 2 | 38.589 | 16.482 | 29.938 | 2 |
| 2025-09-20T01:10:00 | 58.166352 | 9.127980 | 2.0 | 16.312 | 2 | 38.658 | 16.478 | 30.000 | 2 |
| 2025-09-20T01:11:00 | 58.166238 | 9.128034 | 2.0 | 16.312 | 2 | 38.769 | 16.474 | 30.099 | 2 |
| 2025-09-20T01:12:00 | 58.166075 | 9.128163 | 2.0 | 16.314 | 2 | 38.743 | 16.475 | 30.076 | 2 |
| 2025-09-20T01:13:00 | 58.165974 | 9.128053 | 2.0 | 16.318 | 2 | 38.657 | 16.478 | 29.999 | 2 |
| 2025-09-20T01:14:00 | 58.165995 | 9.127443 | 2.0 | 16.316 | 2 | 38.580 | 16.479 | 29.932 | 2 |
| 2025-09-20T01:15:00 | 58.166184 | 9.126193 | 2.0 | 16.314 | 2 | 38.582 | 16.478 | 29.935 | 2 |
| 2025-09-20T01:16:00 | 58.166652 | 9.124635 | 2.0 | 16.312 | 2 | 38.447 | 16.476 | 29.820 | 2 |
| 2025-09-20T01:17:00 | 58.167481 | 9.123005 | 2.0 | 16.314 | 2 | 38.243 | 16.474 | 29.645 | 2 |
| 2025-09-20T01:18:00 | 58.168697 | 9.121200 | 2.0 | 16.314 | 2 | 38.645 | 16.476 | 29.991 | 2 |
| 2025-09-20T01:19:00 | 58.170170 | 9.119032 | 2.0 | 16.319 | 2 | 38.688 | 16.478 | 30.026 | 2 |
| 2025-09-20T01:20:00 | 58.171770 | 9.116695 | 2.0 | 16.318 | 2 | 38.103 | 16.481 | 29.519 | 2 |
| 2025-09-20T01:21:00 | 58.173615 | 9.113992 | 2.0 | 16.318 | 2 | 38.685 | 16.482 | 30.021 | 2 |
| 2025-09-20T01:22:00 | 58.175488 | 9.111218 | 2.0 | 16.320 | 2 | 38.478 | 16.482 | 29.842 | 2 |
| 2025-09-20T01:23:00 | 58.177402 | 9.108428 | 2.0 | 16.323 | 2 | 38.399 | 16.484 | 29.772 | 2 |
| 2025-09-20T01:24:00 | 58.179326 | 9.105650 | 2.0 | 16.331 | 2 | 38.582 | 16.487 | 29.928 | 2 |
| 2025-09-20T01:25:00 | 58.181244 | 9.102898 | 2.0 | 16.335 | 2 | 38.409 | 16.494 | 29.774 | 2 |
| 2025-09-20T01:26:00 | 58.183144 | 9.100102 | 2.0 | 16.341 | 2 | 38.576 | 16.499 | 29.914 | 2 |
| 2025-09-20T01:27:00 | 58.185056 | 9.097269 | 2.0 | 16.344 | 2 | 38.262 | 16.504 | 29.639 | 2 |
| 2025-09-20T01:28:00 | 58.186973 | 9.094487 | 2.0 | 16.338 | 2 | 38.293 | 16.507 | 29.664 | 2 |
| 2025-09-20T01:29:00 | 58.188876 | 9.091709 | 2.0 | 16.332 | 2 | 38.484 | 16.500 | 29.834 | 2 |
| 2025-09-20T01:30:00 | 58.190716 | 9.089156 | 2.0 | 16.329 | 2 | 38.125 | 16.494 | 29.529 | 2 |
| 2025-09-20T01:31:00 | 58.192545 | 9.086392 | 2.0 | 16.324 | 2 | 38.398 | 16.493 | 29.765 | 2 |
| 2025-09-20T01:32:00 | 58.194453 | 9.083753 | 2.0 | 16.332 | 2 | 38.303 | 16.489 | 29.686 | 2 |
| 2025-09-20T01:33:00 | 58.196405 | 9.081292 | 2.0 | 16.336 | 2 | 38.449 | 16.496 | 29.807 | 2 |
| 2025-09-20T01:34:00 | 58.198484 | 9.078962 | 2.0 | 16.342 | 2 | 38.426 | 16.501 | 29.783 | 2 |
| 2025-09-20T01:35:00 | 58.200529 | 9.076637 | 2.0 | 16.338 | 2 | 38.107 | 16.505 | 29.505 | 2 |
| 2025-09-20T01:36:00 | 58.202571 | 9.074374 | 2.0 | 16.333 | 2 | 38.245 | 16.502 | 29.626 | 2 |
| 2025-09-20T01:37:00 | 58.204454 | 9.071990 | 2.0 | 16.328 | 2 | 38.233 | 16.496 | 29.620 | 2 |
| 2025-09-20T01:38:00 | 58.206414 | 9.069603 | 2.0 | 16.327 | 2 | 38.440 | 16.492 | 29.802 | 2 |
| 2025-09-20T01:39:00 | 58.208435 | 9.067176 | 2.0 | 16.325 | 2 | 38.425 | 16.491 | 29.790 | 2 |
| 2025-09-20T01:40:00 | 58.210487 | 9.064812 | 2.0 | 16.327 | 2 | 38.385 | 16.489 | 29.757 | 2 |
| 2025-09-20T01:41:00 | 58.212504 | 9.062404 | 2.0 | 16.332 | 2 | 38.066 | 16.491 | 29.480 | 2 |
| 2025-09-20T01:42:00 | 58.214549 | 9.059928 | 2.0 | 16.341 | 2 | 38.329 | 16.497 | 29.702 | 2 |
| 2025-09-20T01:43:00 | 58.216538 | 9.057421 | 2.0 | 16.349 | 2 | 38.125 | 16.505 | 29.521 | 2 |
| 2025-09-20T01:44:00 | 58.218576 | 9.055148 | 2.0 | 16.358 | 2 | 38.229 | 16.515 | 29.603 | 2 |
| 2025-09-20T01:45:00 | 58.220525 | 9.052696 | 2.0 | 16.367 | 2 | 38.117 | 16.523 | 29.501 | 2 |
| 2025-09-20T01:46:00 | 58.222423 | 9.050160 | 2.0 | 16.372 | 2 | 38.109 | 16.531 | 29.488 | 2 |
| 2025-09-20T01:47:00 | 58.224356 | 9.047699 | 2.0 | 16.375 | 2 | 38.186 | 16.536 | 29.550 | 2 |
| 2025-09-20T01:48:00 | 58.226294 | 9.045152 | 2.0 | 16.376 | 2 | 38.146 | 16.540 | 29.513 | 2 |
| 2025-09-20T01:49:00 | 58.228305 | 9.042617 | 2.0 | 16.376 | 2 | 38.186 | 16.540 | 29.547 | 2 |
| 2025-09-20T01:50:00 | 58.230292 | 9.040066 | 2.0 | 16.376 | 2 | 37.674 | 16.539 | 29.108 | 2 |
| 2025-09-20T01:51:00 | 58.232274 | 9.037424 | 2.0 | 16.376 | 2 | 37.678 | 16.541 | 29.110 | 2 |
| 2025-09-20T01:52:00 | 58.233907 | 9.034967 | 2.0 | 16.374 | 2 | 38.026 | 16.539 | 29.411 | 2 |
| 2025-09-20T01:53:00 | 58.235093 | 9.033066 | 2.0 | 16.373 | 2 | 38.002 | 16.536 | 29.392 | 2 |
| 2025-09-20T01:54:00 | 58.236148 | 9.031459 | 2.0 | 16.371 | 2 | 38.238 | 16.535 | 29.596 | 2 |
| 2025-09-20T01:55:00 | 58.236627 | 9.029776 | 2.0 | 16.369 | 2 | 37.835 | 16.532 | 29.251 | 2 |
| 2025-09-20T01:56:00 | 58.236570 | 9.028724 | 2.0 | 16.368 | 2 | 37.935 | 16.530 | 29.339 | 2 |
| 2025-09-20T01:57:00 | 58.236540 | 9.028297 | 2.0 | 16.367 | 2 | 38.260 | 16.529 | 29.619 | 2 |
| 2025-09-20T01:58:00 | 58.236544 | 9.027857 | 2.0 | 16.368 | 2 | 38.007 | 16.527 | 29.403 | 2 |
| 2025-09-20T01:59:00 | 58.236522 | 9.027390 | 2.0 | 16.368 | 2 | 38.273 | 16.530 | 29.630 | 2 |
| 2025-09-20T02:00:00 | 58.236461 | 9.027062 | 2.0 | 16.368 | 2 | 38.114 | 16.530 | 29.493 | 2 |
| 2025-09-20T02:01:00 | 58.236400 | 9.026893 | 2.0 | 16.368 | 2 | 38.446 | 16.530 | 29.779 | 2 |
| 2025-09-20T02:02:00 | 58.236374 | 9.026869 | 2.0 | 16.369 | 2 | 38.463 | 16.529 | 29.794 | 2 |
| 2025-09-20T02:03:00 | 58.236205 | 9.026469 | 2.0 | 16.370 | 2 | 38.248 | 16.532 | 29.607 | 2 |
| 2025-09-20T02:04:00 | 58.236051 | 9.026417 | 2.0 | 16.371 | 2 | 38.175 | 16.532 | 29.544 | 2 |
| 2025-09-20T02:05:00 | 58.235805 | 9.026264 | 2.0 | 16.372 | 2 | 38.111 | 16.532 | 29.489 | 2 |
| 2025-09-20T02:06:00 | 58.235522 | 9.026103 | 2.0 | 16.371 | 2 | 38.331 | 16.533 | 29.677 | 2 |
| 2025-09-20T02:07:00 | 58.235269 | 9.026089 | 2.0 | 16.368 | 2 | 38.389 | 16.531 | 29.729 | 2 |
| 2025-09-20T02:08:00 | 58.235016 | 9.026101 | 2.0 | 16.375 | 2 | 38.463 | 16.531 | 29.793 | 2 |
| 2025-09-20T02:09:00 | 58.234777 | 9.026109 | 2.0 | 16.375 | 2 | 38.324 | 16.535 | 29.670 | 2 |
| 2025-09-20T02:10:00 | 58.234674 | 9.026275 | 2.0 | 16.376 | 2 | 38.355 | 16.537 | 29.695 | 2 |
| 2025-09-20T02:11:00 | 58.234427 | 9.026557 | 2.0 | 16.374 | 2 | 38.391 | 16.536 | 29.727 | 2 |
| 2025-09-20T02:12:00 | 58.234058 | 9.026791 | 2.0 | 16.374 | 2 | 38.194 | 16.535 | 29.558 | 2 |
| 2025-09-20T02:13:00 | 58.233795 | 9.026730 | 2.0 | 16.380 | 2 | 38.288 | 16.537 | 29.637 | 2 |
| 2025-09-20T02:14:00 | 58.233735 | 9.026548 | 2.0 | 16.374 | 2 | 38.432 | 16.540 | 29.759 | 2 |
| 2025-09-20T02:15:00 | 58.233670 | 9.026111 | 2.0 | 16.374 | 2 | 38.405 | 16.536 | 29.739 | 2 |
| 2025-09-20T02:16:00 | 58.233598 | 9.025788 | 2.0 | 16.374 | 2 | 38.337 | 16.536 | 29.680 | 2 |
| 2025-09-20T02:17:00 | 58.233570 | 9.025671 | 2.0 | 16.374 | 2 | 38.386 | 16.535 | 29.723 | 2 |
| 2025-09-20T02:18:00 | 58.233551 | 9.025356 | 2.0 | 16.373 | 2 | 38.332 | 16.535 | 29.677 | 2 |
| 2025-09-20T02:19:00 | 58.233621 | 9.025161 | 2.0 | 16.373 | 2 | 38.298 | 16.533 | 29.649 | 2 |
| 2025-09-20T02:20:00 | 58.233699 | 9.024663 | 2.0 | 16.373 | 2 | 38.352 | 16.535 | 29.694 | 2 |
| 2025-09-20T02:21:00 | 58.233734 | 9.024200 | 2.0 | 16.373 | 2 | 38.240 | 16.534 | 29.598 | 2 |
| 2025-09-20T02:22:00 | 58.233677 | 9.023700 | 2.0 | 16.373 | 2 | 38.426 | 16.536 | 29.757 | 2 |
| 2025-09-20T02:23:00 | 58.233583 | 9.023739 | 2.0 | 16.375 | 2 | 38.159 | 16.536 | 29.527 | 2 |
| 2025-09-20T02:24:00 | 58.233404 | 9.023937 | 2.0 | 16.373 | 2 | 38.359 | 16.536 | 29.699 | 2 |
| 2025-09-20T02:25:00 | 58.233201 | 9.024191 | 2.0 | 16.372 | 2 | 38.137 | 16.534 | 29.510 | 2 |
| 2025-09-20T02:26:00 | 58.232956 | 9.024577 | 2.0 | 16.372 | 2 | 38.312 | 16.534 | 29.660 | 2 |
| 2025-09-20T02:27:00 | 58.232695 | 9.024952 | 2.0 | 16.372 | 2 | 38.420 | 16.534 | 29.753 | 2 |
| 2025-09-20T02:28:00 | 58.232360 | 9.025303 | 2.0 | 16.373 | 2 | 37.931 | 16.533 | 29.333 | 2 |
| 2025-09-20T02:29:00 | 58.231946 | 9.025486 | 2.0 | 16.374 | 2 | 38.300 | 16.535 | 29.649 | 2 |
| 2025-09-20T02:30:00 | 58.231620 | 9.025514 | 2.0 | 16.374 | 2 | 38.379 | 16.536 | 29.716 | 2 |
| 2025-09-20T02:31:00 | 58.231363 | 9.025562 | 2.0 | 16.375 | 2 | 38.189 | 16.536 | 29.553 | 2 |
| 2025-09-20T02:32:00 | 58.231091 | 9.025451 | 2.0 | 16.381 | 2 | 38.360 | 16.538 | 29.699 | 2 |
| 2025-09-20T02:33:00 | 58.230917 | 9.025061 | 2.0 | 16.375 | 2 | 38.327 | 16.541 | 29.668 | 2 |
| 2025-09-20T02:34:00 | 58.230791 | 9.024721 | 2.0 | 16.371 | 2 | 38.315 | 16.536 | 29.661 | 2 |
| 2025-09-20T02:35:00 | 58.230706 | 9.024591 | 2.0 | 16.374 | 2 | 38.422 | 16.533 | 29.756 | 2 |
| 2025-09-20T02:36:00 | 58.230665 | 9.024625 | 2.0 | 16.374 | 2 | 38.384 | 16.536 | 29.721 | 2 |
| 2025-09-20T02:37:00 | 58.230640 | 9.024559 | 2.0 | 16.374 | 2 | 38.259 | 16.534 | 29.615 | 2 |
| 2025-09-20T02:38:00 | 58.230544 | 9.022642 | 2.0 | 16.374 | 2 | 38.354 | 16.534 | 29.696 | 2 |
| 2025-09-20T02:39:00 | 58.231482 | 9.019621 | 2.0 | 16.374 | 2 | 38.272 | 16.536 | 29.624 | 2 |
| 2025-09-20T02:40:00 | 58.233146 | 9.016735 | 2.0 | 16.371 | 2 | 38.431 | 16.537 | 29.761 | 2 |
| 2025-09-20T02:41:00 | 58.235152 | 9.014428 | 2.0 | 16.370 | 2 | 38.353 | 16.534 | 29.696 | 2 |
| 2025-09-20T02:42:00 | 58.237137 | 9.012108 | 2.0 | 16.365 | 2 | 38.489 | 16.533 | 29.813 | 2 |
| 2025-09-20T02:43:00 | 58.239139 | 9.009804 | 2.0 | 16.361 | 2 | 38.435 | 16.528 | 29.771 | 2 |
| 2025-09-20T02:44:00 | 58.241159 | 9.007426 | 2.0 | 16.358 | 2 | 38.613 | 16.525 | 29.926 | 2 |
| 2025-09-20T02:45:00 | 58.243189 | 9.004975 | 2.0 | 16.353 | 2 | 38.679 | 16.520 | 29.987 | 2 |
| 2025-09-20T02:46:00 | 58.245196 | 9.002733 | 2.0 | 16.352 | 2 | 38.691 | 16.517 | 30.000 | 2 |
| 2025-09-20T02:47:00 | 58.247151 | 9.000283 | 2.0 | 16.345 | 2 | 38.737 | 16.514 | 30.041 | 2 |
| 2025-09-20T02:48:00 | 58.249136 | 8.997824 | 2.0 | 16.352 | 2 | 38.677 | 16.510 | 29.993 | 2 |
| 2025-09-20T02:49:00 | 58.251086 | 8.995450 | 2.0 | 16.360 | 2 | 38.808 | 16.517 | 30.101 | 2 |
| 2025-09-20T02:50:00 | 58.253124 | 8.993163 | 2.0 | 16.373 | 2 | 38.911 | 16.526 | 30.183 | 2 |
| 2025-09-20T02:51:00 | 58.255138 | 8.990924 | 2.0 | 16.386 | 2 | 39.066 | 16.538 | 30.307 | 2 |
| 2025-09-20T02:52:00 | 58.257091 | 8.988428 | 2.0 | 16.399 | 2 | 39.199 | 16.552 | 30.412 | 2 |
| 2025-09-20T02:53:00 | 58.259098 | 8.986005 | 2.0 | 16.404 | 2 | 39.450 | 16.562 | 30.621 | 2 |
| 2025-09-20T02:54:00 | 58.261176 | 8.983660 | 2.0 | 16.402 | 2 | 39.601 | 16.566 | 30.748 | 2 |
| 2025-09-20T02:55:00 | 58.263216 | 8.981190 | 2.0 | 16.406 | 2 | 39.773 | 16.567 | 30.896 | 2 |
| 2025-09-20T02:56:00 | 58.265252 | 8.978759 | 2.0 | 16.419 | 2 | 40.004 | 16.571 | 31.093 | 2 |
| 2025-09-20T02:57:00 | 58.267286 | 8.976382 | 2.0 | 16.422 | 2 | 40.180 | 16.581 | 31.238 | 2 |
| 2025-09-20T02:58:00 | 58.269323 | 8.973931 | 2.0 | 16.421 | 2 | 40.269 | 16.585 | 31.312 | 2 |
| 2025-09-20T02:59:00 | 58.271404 | 8.971591 | 2.0 | 16.408 | 2 | 40.446 | 16.582 | 31.468 | 2 |
| 2025-09-20T03:00:00 | 58.273278 | 8.968906 | 2.0 | 16.408 | 2 | 40.976 | 16.572 | 31.936 | 2 |
| 2025-09-20T03:01:00 | 58.275257 | 8.966280 | 2.0 | 16.405 | 2 | 41.063 | 16.570 | 32.013 | 2 |
| 2025-09-20T03:02:00 | 58.277322 | 8.963783 | 2.0 | 16.401 | 2 | 41.135 | 16.568 | 32.077 | 2 |
| 2025-09-20T03:03:00 | 58.279286 | 8.961185 | 2.0 | 16.397 | 2 | 41.371 | 16.563 | 32.287 | 2 |
| 2025-09-20T03:04:00 | 58.281253 | 8.958678 | 2.0 | 16.387 | 2 | 41.573 | 16.559 | 32.466 | 2 |
| 2025-09-20T03:05:00 | 58.283156 | 8.956196 | 2.0 | 16.385 | 2 | 41.687 | 16.550 | 32.573 | 2 |
| 2025-09-20T03:06:00 | 58.285062 | 8.953665 | 2.0 | 16.379 | 2 | 41.402 | 16.547 | 32.327 | 2 |
| 2025-09-20T03:07:00 | 58.286975 | 8.951131 | 2.0 | 16.378 | 2 | 41.637 | 16.542 | 32.535 | 2 |
| 2025-09-20T03:08:00 | 58.288947 | 8.948691 | 2.0 | 16.373 | 2 | 41.648 | 16.540 | 32.547 | 2 |
| 2025-09-20T03:09:00 | 58.290902 | 8.946269 | 2.0 | 16.367 | 2 | 41.412 | 16.535 | 32.345 | 2 |
| 2025-09-20T03:10:00 | 58.292847 | 8.943785 | 2.0 | 16.341 | 2 | 41.888 | 16.526 | 32.768 | 2 |
| 2025-09-20T03:11:00 | 58.294752 | 8.941325 | 2.0 | 16.332 | 2 | 41.910 | 16.505 | 32.804 | 2 |
| 2025-09-20T03:12:00 | 58.296659 | 8.938794 | 2.0 | 16.314 | 2 | 42.139 | 16.493 | 33.014 | 2 |
| 2025-09-20T03:13:00 | 58.298534 | 8.936536 | 2.0 | 16.301 | 2 | 41.946 | 16.475 | 32.860 | 2 |
| 2025-09-20T03:14:00 | 58.299970 | 8.934755 | 2.0 | 16.302 | 2 | 42.178 | 16.466 | 33.071 | 2 |
| 2025-09-20T03:15:00 | 58.301010 | 8.933369 | 2.0 | 16.296 | 2 | 41.971 | 16.464 | 32.891 | 2 |
| 2025-09-20T03:16:00 | 58.301792 | 8.932342 | 2.0 | 16.303 | 2 | 42.050 | 16.461 | 32.963 | 2 |
| 2025-09-20T03:17:00 | 58.302045 | 8.931329 | 2.0 | 16.299 | 2 | 42.204 | 16.464 | 33.095 | 2 |
| 2025-09-20T03:18:00 | 58.301994 | 8.930617 | 2.0 | 16.295 | 2 | 42.111 | 16.459 | 33.018 | 2 |
| 2025-09-20T03:19:00 | 58.301867 | 8.930082 | 2.0 | 16.296 | 2 | 42.052 | 16.458 | 32.967 | 2 |
| 2025-09-20T03:20:00 | 58.301699 | 8.929932 | 2.0 | 16.296 | 2 | 42.141 | 16.458 | 33.045 | 2 |
| 2025-09-20T03:21:00 | 58.301473 | 8.930045 | 2.0 | 16.293 | 2 | 42.124 | 16.457 | 33.031 | 2 |
| 2025-09-20T03:22:00 | 58.301240 | 8.930125 | 2.0 | 16.293 | 2 | 42.037 | 16.455 | 32.956 | 2 |
| 2025-09-20T03:23:00 | 58.301091 | 8.930175 | 2.0 | 16.294 | 2 | 41.992 | 16.454 | 32.918 | 2 |
| 2025-09-20T03:24:00 | 58.300933 | 8.930165 | 2.0 | 16.296 | 2 | 42.158 | 16.456 | 33.061 | 2 |
| 2025-09-20T03:25:00 | 58.300779 | 8.930229 | 2.0 | 16.296 | 2 | 41.926 | 16.458 | 32.857 | 2 |
| 2025-09-20T03:26:00 | 58.300657 | 8.930346 | 2.0 | 16.298 | 2 | 41.906 | 16.458 | 32.839 | 2 |
| 2025-09-20T03:27:00 | 58.300523 | 8.930409 | 2.0 | 16.299 | 2 | 41.901 | 16.459 | 32.834 | 2 |
| 2025-09-20T03:28:00 | 58.300328 | 8.930558 | 2.0 | 16.300 | 2 | 41.987 | 16.460 | 32.908 | 2 |
| 2025-09-20T03:29:00 | 58.300086 | 8.930804 | 2.0 | 16.302 | 2 | 42.228 | 16.462 | 33.118 | 2 |
| 2025-09-20T03:30:00 | 58.299447 | 8.931105 | 2.0 | 16.302 | 2 | 42.157 | 16.462 | 33.056 | 2 |
| 2025-09-20T03:31:00 | 58.298437 | 8.929657 | 2.0 | 16.304 | 2 | 42.019 | 16.466 | 32.932 | 2 |
| 2025-09-20T03:32:00 | 58.299235 | 8.926960 | 2.0 | 16.312 | 2 | 42.111 | 16.468 | 33.010 | 2 |
| 2025-09-20T03:33:00 | 58.300682 | 8.923895 | 2.0 | 16.300 | 2 | 42.256 | 16.475 | 33.132 | 2 |
| 2025-09-20T03:34:00 | 58.302455 | 8.920901 | 2.0 | 16.291 | 2 | 42.088 | 16.462 | 32.995 | 2 |
| 2025-09-20T03:35:00 | 58.304423 | 8.918395 | 2.0 | 16.296 | 2 | 42.205 | 16.457 | 33.102 | 2 |
| 2025-09-20T03:36:00 | 58.306370 | 8.915846 | 2.0 | 16.300 | 2 | 42.115 | 16.460 | 33.021 | 2 |
| 2025-09-20T03:37:00 | 58.308398 | 8.913407 | 2.0 | 16.292 | 2 | 42.053 | 16.462 | 32.965 | 2 |
| 2025-09-20T03:38:00 | 58.310316 | 8.910917 | 2.0 | 16.283 | 2 | 42.111 | 16.456 | 33.020 | 2 |
| 2025-09-20T03:39:00 | 58.312317 | 8.908364 | 2.0 | 16.280 | 2 | 42.096 | 16.447 | 33.015 | 2 |
| 2025-09-20T03:40:00 | 58.314327 | 8.905789 | 2.0 | 16.276 | 2 | 42.137 | 16.445 | 33.052 | 2 |
| 2025-09-20T03:41:00 | 58.316336 | 8.903287 | 2.0 | 16.276 | 2 | 42.137 | 16.441 | 33.056 | 2 |
| 2025-09-20T03:42:00 | 58.318379 | 8.900615 | 2.0 | 16.276 | 2 | 42.102 | 16.443 | 33.023 | 2 |
| 2025-09-20T03:43:00 | 58.320427 | 8.898002 | 2.0 | 16.264 | 2 | 42.136 | 16.437 | 33.058 | 2 |
| 2025-09-20T03:44:00 | 58.322426 | 8.895367 | 2.0 | 16.260 | 2 | 42.162 | 16.427 | 33.089 | 2 |
| 2025-09-20T03:45:00 | 58.324437 | 8.892812 | 2.0 | 16.256 | 2 | 42.193 | 16.426 | 33.117 | 2 |
| 2025-09-20T03:46:00 | 58.326519 | 8.890216 | 2.0 | 16.248 | 2 | 42.216 | 16.420 | 33.142 | 2 |
| 2025-09-20T03:47:00 | 58.328596 | 8.887513 | 2.0 | 16.243 | 2 | 42.196 | 16.412 | 33.131 | 2 |
| 2025-09-20T03:48:00 | 58.330661 | 8.884807 | 2.0 | 16.236 | 2 | 42.248 | 16.407 | 33.181 | 2 |
| 2025-09-20T03:49:00 | 58.332756 | 8.882193 | 2.0 | 16.222 | 2 | 42.256 | 16.397 | 33.196 | 2 |
| 2025-09-20T03:50:00 | 58.334804 | 8.879481 | 2.0 | 16.214 | 2 | 42.257 | 16.387 | 33.206 | 2 |
| 2025-09-20T03:51:00 | 58.336909 | 8.876840 | 2.0 | 16.199 | 2 | 42.296 | 16.377 | 33.248 | 2 |
| 2025-09-20T03:52:00 | 58.339035 | 8.874261 | 2.0 | 16.129 | 2 | 42.298 | 16.343 | 33.278 | 2 |
| 2025-09-20T03:53:00 | 58.341107 | 8.871583 | 2.0 | 15.998 | 2 | 42.247 | 16.285 | 33.282 | 2 |
| 2025-09-20T03:54:00 | 58.343195 | 8.868965 | 2.0 | 15.958 | 2 | 42.089 | 16.170 | 33.239 | 2 |
| 2025-09-20T03:55:00 | 58.345250 | 8.866251 | 2.0 | 15.953 | 2 | 42.049 | 16.131 | 33.236 | 2 |
| 2025-09-20T03:56:00 | 58.347330 | 8.863634 | 2.0 | 15.946 | 2 | 42.078 | 16.124 | 33.268 | 2 |
| 2025-09-20T03:57:00 | 58.349404 | 8.860966 | 2.0 | 15.949 | 2 | 42.131 | 16.114 | 33.323 | 2 |
| 2025-09-20T03:58:00 | 58.351489 | 8.858250 | 2.0 | 15.956 | 2 | 42.166 | 16.121 | 33.348 | 2 |
| 2025-09-20T03:59:00 | 58.353600 | 8.855677 | 2.0 | 15.956 | 2 | 42.230 | 16.122 | 33.404 | 2 |
| 2025-09-20T04:00:00 | 58.355667 | 8.852904 | 2.0 | 15.970 | 2 | 42.261 | 16.124 | 33.429 | 2 |
| 2025-09-20T04:01:00 | 58.357757 | 8.850178 | 2.0 | 15.940 | 2 | 42.332 | 16.134 | 33.484 | 2 |
| 2025-09-20T04:02:00 | 58.359898 | 8.847525 | 2.0 | 15.936 | 2 | 42.278 | 16.107 | 33.459 | 2 |
| 2025-09-20T04:03:00 | 58.362002 | 8.844791 | 2.0 | 15.957 | 2 | 42.334 | 16.109 | 33.506 | 2 |
| 2025-09-20T04:04:00 | 58.363967 | 8.842078 | 2.0 | 15.947 | 2 | 42.412 | 16.124 | 33.563 | 2 |
| 2025-09-20T04:05:00 | 58.365419 | 8.840063 | 2.0 | 15.929 | 2 | 42.355 | 16.106 | 33.528 | 2 |
| 2025-09-20T04:06:00 | 58.366438 | 8.838539 | 2.0 | 15.917 | 2 | 42.348 | 16.092 | 33.533 | 2 |
| 2025-09-20T04:07:00 | 58.366963 | 8.837270 | 2.0 | 15.907 | 2 | 42.332 | 16.080 | 33.529 | 2 |
| 2025-09-20T04:08:00 | 58.366909 | 8.836448 | 2.0 | 15.916 | 2 | 42.330 | 16.072 | 33.534 | 2 |
| 2025-09-20T04:09:00 | 58.366833 | 8.836013 | 2.0 | 15.921 | 2 | 42.352 | 16.079 | 33.548 | 2 |
| 2025-09-20T04:10:00 | 58.366777 | 8.835610 | 2.0 | 15.920 | 2 | 42.383 | 16.085 | 33.570 | 2 |
| 2025-09-20T04:11:00 | 58.366722 | 8.835228 | 2.0 | 15.917 | 2 | 42.385 | 16.083 | 33.574 | 2 |
| 2025-09-20T04:12:00 | 58.366599 | 8.834919 | 2.0 | 15.922 | 2 | 42.384 | 16.083 | 33.573 | 2 |
| 2025-09-20T04:13:00 | 58.366448 | 8.834766 | 2.0 | 15.921 | 2 | 42.342 | 16.085 | 33.534 | 2 |
| 2025-09-20T04:14:00 | 58.366244 | 8.834714 | 2.0 | 15.920 | 2 | 42.362 | 16.085 | 33.552 | 2 |
| 2025-09-20T04:15:00 | 58.366015 | 8.834678 | 2.0 | 15.921 | 2 | 42.337 | 16.084 | 33.530 | 2 |
| 2025-09-20T04:16:00 | 58.365813 | 8.834753 | 2.0 | 15.923 | 2 | 42.357 | 16.085 | 33.547 | 2 |
| 2025-09-20T04:17:00 | 58.365596 | 8.834773 | 2.0 | 15.931 | 2 | 42.365 | 16.089 | 33.551 | 2 |
| 2025-09-20T04:18:00 | 58.365364 | 8.834763 | 2.0 | 15.933 | 2 | 42.364 | 16.095 | 33.545 | 2 |
| 2025-09-20T04:19:00 | 58.365137 | 8.834750 | 2.0 | 15.929 | 2 | 42.361 | 16.095 | 33.542 | 2 |
| 2025-09-20T04:20:00 | 58.364937 | 8.834765 | 2.0 | 15.928 | 2 | 42.393 | 16.093 | 33.572 | 2 |
| 2025-09-20T04:21:00 | 58.364755 | 8.834759 | 2.0 | 15.924 | 2 | 42.357 | 16.091 | 33.542 | 2 |
| 2025-09-20T04:22:00 | 58.364556 | 8.834664 | 2.0 | 15.925 | 2 | 42.354 | 16.088 | 33.542 | 2 |
| 2025-09-20T04:23:00 | 58.364370 | 8.834528 | 2.0 | 15.922 | 2 | 42.373 | 16.086 | 33.560 | 2 |
| 2025-09-20T04:24:00 | 58.364194 | 8.834344 | 2.0 | 15.923 | 2 | 42.371 | 16.086 | 33.559 | 2 |
| 2025-09-20T04:25:00 | 58.364035 | 8.834197 | 2.0 | 15.924 | 2 | 42.383 | 16.087 | 33.568 | 2 |
| 2025-09-20T04:26:00 | 58.363872 | 8.834082 | 2.0 | 15.926 | 2 | 42.373 | 16.087 | 33.560 | 2 |
| 2025-09-20T04:27:00 | 58.363707 | 8.833961 | 2.0 | 15.936 | 2 | 42.399 | 16.093 | 33.577 | 2 |
| 2025-09-20T04:28:00 | 58.363537 | 8.833831 | 2.0 | 15.934 | 2 | 42.420 | 16.099 | 33.591 | 2 |
| 2025-09-20T04:29:00 | 58.363332 | 8.833724 | 2.0 | 15.934 | 2 | 42.420 | 16.098 | 33.592 | 2 |
| 2025-09-20T04:30:00 | 58.363171 | 8.833630 | 2.0 | 15.929 | 2 | 42.418 | 16.097 | 33.591 | 2 |
| 2025-09-20T04:31:00 | 58.362953 | 8.833246 | 2.0 | 15.927 | 2 | 42.401 | 16.089 | 33.583 | 2 |
| 2025-09-20T04:32:00 | 58.362190 | 8.831832 | 2.0 | 15.933 | 2 | 42.406 | 16.091 | 33.585 | 2 |
| 2025-09-20T04:33:00 | 58.360812 | 8.829183 | 2.0 | 15.922 | 2 | 42.423 | 16.095 | 33.597 | 2 |
| 2025-09-20T04:34:00 | 58.359368 | 8.826008 | 2.0 | 15.922 | 2 | 42.397 | 16.089 | 33.579 | 2 |
| 2025-09-20T04:39:00 | 58.351433 | 8.809195 | 2.0 | 15.901 | 2 | 42.517 | 16.082 | 33.691 | 2 |
| 2025-09-20T04:40:00 | 58.349732 | 8.805534 | 2.0 | 15.896 | 2 | 42.513 | 16.072 | 33.696 | 2 |
| 2025-09-20T04:41:00 | 58.348036 | 8.802028 | 2.0 | 15.869 | 2 | 42.520 | 16.059 | 33.713 | 2 |
| 2025-09-20T04:42:00 | 58.346483 | 8.798760 | 2.0 | 15.878 | 2 | 42.517 | 16.038 | 33.729 | 2 |
| 2025-09-20T04:43:00 | 58.344981 | 8.795513 | 2.0 | 15.887 | 2 | 42.526 | 16.047 | 33.729 | 2 |
| 2025-09-20T04:44:00 | 58.343428 | 8.792136 | 2.0 | 15.882 | 2 | 42.533 | 16.054 | 33.729 | 2 |
| 2025-09-20T04:45:00 | 58.341765 | 8.788805 | 2.0 | 15.889 | 2 | 42.389 | 16.049 | 33.606 | 2 |
| 2025-09-20T04:48:00 | 58.336474 | 8.778498 | 2.0 | 15.886 | 2 | 42.509 | 16.054 | 33.708 | 2 |
| 2025-09-20T04:49:00 | 58.334770 | 8.775547 | 2.0 | 15.883 | 2 | 42.521 | 16.054 | 33.719 | 2 |
| 2025-09-20T04:50:00 | 58.332962 | 8.772406 | 2.0 | 15.883 | 2 | 42.521 | 16.050 | 33.722 | 2 |
| 2025-09-20T04:51:00 | 58.331238 | 8.769461 | 2.0 | 15.880 | 2 | 42.528 | 16.048 | 33.730 | 2 |
| 2025-09-20T04:52:00 | 58.329409 | 8.766372 | 2.0 | 15.880 | 2 | 42.544 | 16.047 | 33.745 | 2 |
| 2025-09-20T04:53:00 | 58.327544 | 8.763134 | 2.0 | 15.879 | 2 | 42.552 | 16.044 | 33.755 | 2 |
| 2025-09-20T04:54:00 | 58.325668 | 8.759847 | 2.0 | 15.877 | 2 | 42.531 | 16.046 | 33.734 | 2 |
| 2025-09-20T04:55:00 | 58.323916 | 8.756914 | 2.0 | 15.872 | 2 | 42.543 | 16.046 | 33.745 | 2 |
| 2025-09-20T04:56:00 | 58.322199 | 8.754041 | 2.0 | 15.884 | 2 | 42.550 | 16.041 | 33.755 | 2 |
| 2025-09-20T04:57:00 | 58.320353 | 8.751219 | 2.0 | 15.887 | 2 | 42.303 | 16.052 | 33.527 | 2 |
| 2025-09-20T04:58:00 | 58.318600 | 8.748115 | 2.0 | 15.886 | 2 | 42.263 | 16.051 | 33.493 | 2 |
| 2025-09-20T04:59:00 | 58.316725 | 8.744930 | 2.0 | 15.898 | 2 | 42.222 | 16.053 | 33.455 | 2 |
| 2025-09-20T05:12:00 | 58.293029 | 8.704444 | 2.0 | 15.866 | 2 | 42.234 | 16.034 | 33.481 | 2 |
| 2025-09-20T05:13:00 | 58.291130 | 8.701134 | 2.0 | 15.866 | 2 | 42.288 | 16.033 | 33.530 | 2 |
| 2025-09-20T05:14:00 | 58.289280 | 8.697927 | 2.0 | 15.860 | 2 | 42.320 | 16.028 | 33.563 | 2 |
| 2025-09-20T05:15:00 | 58.287354 | 8.694591 | 2.0 | 15.873 | 2 | 42.332 | 16.030 | 33.571 | 2 |
| 2025-09-20T05:16:00 | 58.285401 | 8.691276 | 2.0 | 15.867 | 2 | 42.346 | 16.038 | 33.577 | 2 |
| 2025-09-20T05:17:00 | 58.283426 | 8.688072 | 2.0 | 15.867 | 2 | 42.283 | 16.034 | 33.525 | 2 |
| 2025-09-20T05:18:00 | 58.281694 | 8.685064 | 2.0 | 15.869 | 2 | 42.263 | 16.033 | 33.508 | 2 |
| 2025-09-20T05:19:00 | 58.279868 | 8.682010 | 2.0 | 15.879 | 2 | 42.272 | 16.035 | 33.514 | 2 |
| 2025-09-20T05:20:00 | 58.278006 | 8.678827 | 2.0 | 15.886 | 2 | 42.297 | 16.044 | 33.529 | 2 |
| 2025-09-20T05:21:00 | 58.276193 | 8.675579 | 2.0 | 15.892 | 2 | 42.240 | 16.054 | 33.470 | 2 |
| 2025-09-20T05:22:00 | 58.274377 | 8.672514 | 2.0 | 15.899 | 2 | 42.323 | 16.058 | 33.540 | 2 |
| 2025-09-20T05:23:00 | 58.272507 | 8.669370 | 2.0 | 15.907 | 2 | 42.339 | 16.066 | 33.547 | 2 |
| 2025-09-20T05:24:00 | 58.270623 | 8.666070 | 2.0 | 15.909 | 2 | 42.249 | 16.072 | 33.462 | 2 |
| 2025-09-20T05:25:00 | 58.268718 | 8.662862 | 2.0 | 15.905 | 2 | 42.351 | 16.074 | 33.551 | 2 |
| 2025-09-20T05:26:00 | 58.266824 | 8.659656 | 2.0 | 15.913 | 2 | 42.228 | 16.072 | 33.444 | 2 |
| 2025-09-20T05:27:00 | 58.264953 | 8.656445 | 2.0 | 15.921 | 2 | 42.228 | 16.078 | 33.439 | 2 |
| 2025-09-20T05:28:00 | 58.263025 | 8.653193 | 2.0 | 15.931 | 2 | 42.263 | 16.086 | 33.463 | 2 |
| 2025-09-20T05:29:00 | 58.261123 | 8.649882 | 2.0 | 15.936 | 2 | 42.318 | 16.094 | 33.505 | 2 |
| 2025-09-20T05:30:00 | 58.259161 | 8.646474 | 2.0 | 15.929 | 2 | 42.368 | 16.102 | 33.542 | 2 |
| 2025-09-20T05:31:00 | 58.257173 | 8.643179 | 2.0 | 15.920 | 2 | 42.338 | 16.092 | 33.524 | 2 |
| 2025-09-20T05:32:00 | 58.255262 | 8.639897 | 2.0 | 15.931 | 2 | 42.308 | 16.087 | 33.502 | 2 |
| 2025-09-20T05:33:00 | 58.253420 | 8.636656 | 2.0 | 15.943 | 2 | 42.315 | 16.098 | 33.499 | 2 |
| 2025-09-20T05:34:00 | 58.251570 | 8.633501 | 2.0 | 15.925 | 2 | 42.339 | 16.102 | 33.517 | 2 |
| 2025-09-20T05:35:00 | 58.249676 | 8.630335 | 2.0 | 15.919 | 2 | 42.298 | 16.087 | 33.493 | 2 |
| 2025-09-20T05:36:00 | 58.247733 | 8.626988 | 2.0 | 15.928 | 2 | 42.244 | 16.087 | 33.445 | 2 |
| 2025-09-20T05:44:00 | 58.232466 | 8.600889 | 2.0 | 15.935 | 2 | 42.214 | 16.094 | 33.413 | 2 |
| 2025-09-20T05:45:00 | 58.230496 | 8.597506 | 2.0 | 15.922 | 2 | 42.242 | 16.098 | 33.434 | 2 |
| 2025-09-20T05:46:00 | 58.228551 | 8.594182 | 2.0 | 15.912 | 2 | 42.244 | 16.080 | 33.451 | 2 |
| 2025-09-20T05:47:00 | 58.226580 | 8.590723 | 2.0 | 15.945 | 2 | 42.261 | 16.085 | 33.462 | 2 |
| 2025-09-20T05:48:00 | 58.224662 | 8.587456 | 2.0 | 15.950 | 2 | 42.308 | 16.111 | 33.482 | 2 |
| 2025-09-20T06:00:00 | 58.200683 | 8.553258 | 2.0 | 16.051 | 2 | 42.424 | 16.241 | 33.475 | 2 |
| 2025-09-20T06:01:00 | 58.198277 | 8.555126 | 2.0 | 16.095 | 2 | 42.394 | 16.225 | 33.462 | 2 |
| 2025-09-20T06:02:00 | 58.196066 | 8.557777 | 2.0 | 16.109 | 2 | 42.416 | 16.259 | 33.453 | 2 |
| 2025-09-20T06:03:00 | 58.193845 | 8.560455 | 2.0 | 16.114 | 2 | 42.418 | 16.271 | 33.444 | 2 |
| 2025-09-20T06:04:00 | 58.191601 | 8.563230 | 2.0 | 16.117 | 2 | 42.402 | 16.276 | 33.426 | 2 |
| 2025-09-20T06:05:00 | 58.189316 | 8.565902 | 2.0 | 16.118 | 2 | 42.384 | 16.279 | 33.408 | 2 |
| 2025-09-20T06:06:00 | 58.187029 | 8.568604 | 2.0 | 16.121 | 2 | 42.371 | 16.281 | 33.394 | 2 |
| 2025-09-20T06:07:00 | 58.184718 | 8.571306 | 2.0 | 16.129 | 2 | 42.364 | 16.286 | 33.384 | 2 |
| 2025-09-20T06:08:00 | 58.182421 | 8.574038 | 2.0 | 16.143 | 2 | 42.369 | 16.293 | 33.383 | 2 |
| 2025-09-20T06:09:00 | 58.180097 | 8.576736 | 2.0 | 16.169 | 2 | 42.385 | 16.313 | 33.380 | 2 |
| 2025-09-20T06:10:00 | 58.177785 | 8.579428 | 2.0 | 16.177 | 2 | 42.405 | 16.332 | 33.382 | 2 |
| 2025-09-20T06:11:00 | 58.175484 | 8.582101 | 2.0 | 16.180 | 2 | 42.400 | 16.339 | 33.371 | 2 |
| 2025-09-20T06:12:00 | 58.173176 | 8.584791 | 2.0 | 16.180 | 2 | 42.386 | 16.342 | 33.357 | 2 |
| 2025-09-20T06:13:00 | 58.170891 | 8.587548 | 2.0 | 16.180 | 2 | 42.372 | 16.343 | 33.343 | 2 |
| 2025-09-20T06:14:00 | 58.168570 | 8.590323 | 2.0 | 16.182 | 2 | 42.351 | 16.344 | 33.324 | 2 |
| 2025-09-20T06:15:00 | 58.166221 | 8.593047 | 2.0 | 16.184 | 2 | 42.344 | 16.345 | 33.317 | 2 |
| 2025-09-20T06:16:00 | 58.163897 | 8.595773 | 2.0 | 16.188 | 2 | 42.338 | 16.349 | 33.308 | 2 |
| 2025-09-20T06:17:00 | 58.161574 | 8.598474 | 2.0 | 16.195 | 2 | 42.342 | 16.351 | 33.310 | 2 |
| 2025-09-20T06:18:00 | 58.159276 | 8.601151 | 2.0 | 16.201 | 2 | 42.365 | 16.357 | 33.325 | 2 |
| 2025-09-20T06:19:00 | 58.156990 | 8.603886 | 2.0 | 16.216 | 2 | 42.385 | 16.363 | 33.338 | 2 |
| 2025-09-20T06:20:00 | 58.154706 | 8.606673 | 2.0 | 16.262 | 2 | 42.362 | 16.388 | 33.297 | 2 |
| 2025-09-20T06:21:00 | 58.152380 | 8.609278 | 2.0 | 16.294 | 2 | 42.313 | 16.427 | 33.221 | 2 |
| 2025-09-20T06:22:00 | 58.150107 | 8.612012 | 2.0 | 16.307 | 2 | 42.293 | 16.456 | 33.180 | 2 |
| 2025-09-20T06:23:00 | 58.147807 | 8.614674 | 2.0 | 16.311 | 2 | 42.279 | 16.467 | 33.158 | 2 |
| 2025-09-20T06:24:00 | 58.145516 | 8.617429 | 2.0 | 16.322 | 2 | 42.249 | 16.474 | 33.126 | 2 |
| 2025-09-20T06:25:00 | 58.143239 | 8.620134 | 2.0 | 16.326 | 2 | 42.219 | 16.485 | 33.091 | 2 |
| 2025-09-20T06:26:00 | 58.140982 | 8.622825 | 2.0 | 16.340 | 2 | 42.184 | 16.487 | 33.059 | 2 |
| 2025-09-20T06:27:00 | 58.138661 | 8.625412 | 2.0 | 16.362 | 2 | 42.158 | 16.509 | 33.018 | 2 |
| 2025-09-20T06:28:00 | 58.136390 | 8.628188 | 2.0 | 16.365 | 2 | 42.142 | 16.522 | 32.993 | 2 |
| 2025-09-20T06:29:00 | 58.134040 | 8.630837 | 2.0 | 16.372 | 2 | 42.121 | 16.529 | 32.969 | 2 |
| 2025-09-20T06:30:00 | 58.131776 | 8.633555 | 2.0 | 16.369 | 2 | 42.100 | 16.533 | 32.947 | 2 |
| 2025-09-20T06:31:00 | 58.129478 | 8.636260 | 2.0 | 16.364 | 2 | 42.076 | 16.530 | 32.929 | 2 |
| 2025-09-20T06:32:00 | 58.127195 | 8.639029 | 2.0 | 16.362 | 2 | 42.045 | 16.527 | 32.904 | 2 |
| 2025-09-20T06:33:00 | 58.124856 | 8.641652 | 2.0 | 16.359 | 2 | 42.023 | 16.525 | 32.886 | 2 |
| 2025-09-20T06:34:00 | 58.122576 | 8.644376 | 2.0 | 16.359 | 2 | 41.997 | 16.521 | 32.867 | 2 |
| 2025-09-20T06:35:00 | 58.120332 | 8.647174 | 2.0 | 16.366 | 2 | 41.943 | 16.524 | 32.817 | 2 |
| 2025-09-20T06:36:00 | 58.118112 | 8.649895 | 2.0 | 16.364 | 2 | 41.874 | 16.528 | 32.754 | 2 |
| 2025-09-20T06:37:00 | 58.115856 | 8.652504 | 2.0 | 16.368 | 2 | 41.757 | 16.528 | 32.652 | 2 |
| 2025-09-20T06:38:00 | 58.113605 | 8.655116 | 2.0 | 16.377 | 2 | 41.652 | 16.531 | 32.558 | 2 |
| 2025-09-20T06:39:00 | 58.111316 | 8.657813 | 2.0 | 16.381 | 2 | 41.504 | 16.540 | 32.421 | 2 |
| 2025-09-20T06:40:00 | 58.109056 | 8.660495 | 2.0 | 16.380 | 2 | 41.470 | 16.543 | 32.389 | 2 |
| 2025-09-20T06:41:00 | 58.106825 | 8.663248 | 2.0 | 16.370 | 2 | 41.363 | 16.541 | 32.297 | 2 |
| 2025-09-20T06:42:00 | 58.104547 | 8.665943 | 2.0 | 16.365 | 2 | 41.040 | 16.531 | 32.024 | 2 |
| 2025-09-20T06:43:00 | 58.102199 | 8.668596 | 2.0 | 16.355 | 2 | 40.854 | 16.526 | 31.866 | 2 |
| 2025-09-20T06:44:00 | 58.099907 | 8.671295 | 2.0 | 16.352 | 2 | 40.708 | 16.518 | 31.746 | 2 |
| 2025-09-20T06:45:00 | 58.097623 | 8.674054 | 2.0 | 16.340 | 2 | 40.538 | 16.511 | 31.603 | 2 |
| 2025-09-20T06:46:00 | 58.095337 | 8.676811 | 2.0 | 16.339 | 2 | 40.327 | 16.503 | 31.426 | 2 |
| 2025-09-20T06:47:00 | 58.093011 | 8.679500 | 2.0 | 16.332 | 2 | 39.977 | 16.502 | 31.123 | 2 |
| 2025-09-20T06:48:00 | 58.090720 | 8.682179 | 2.0 | 16.322 | 2 | 39.747 | 16.492 | 30.932 | 2 |
| 2025-09-20T06:49:00 | 58.088448 | 8.684908 | 2.0 | 16.320 | 2 | 39.547 | 16.484 | 30.765 | 2 |
| 2025-09-20T06:50:00 | 58.086167 | 8.687643 | 2.0 | 16.323 | 2 | 39.381 | 16.483 | 30.622 | 2 |
| 2025-09-20T06:51:00 | 58.083830 | 8.690336 | 2.0 | 16.319 | 2 | 39.267 | 16.483 | 30.523 | 2 |
| 2025-09-20T06:52:00 | 58.081525 | 8.693146 | 2.0 | 16.333 | 2 | 39.196 | 16.485 | 30.460 | 2 |
| 2025-09-20T06:53:00 | 58.079236 | 8.695776 | 2.0 | 16.338 | 2 | 39.184 | 16.496 | 30.441 | 2 |
| 2025-09-20T06:54:00 | 58.076970 | 8.698427 | 2.0 | 16.343 | 2 | 39.175 | 16.501 | 30.430 | 2 |
| 2025-09-20T06:55:00 | 58.074700 | 8.701126 | 2.0 | 16.351 | 2 | 39.156 | 16.506 | 30.409 | 2 |
| 2025-09-20T06:56:00 | 58.072382 | 8.703738 | 2.0 | 16.325 | 2 | 39.186 | 16.511 | 30.432 | 2 |
| 2025-09-20T06:57:00 | 58.070102 | 8.706514 | 2.0 | 16.297 | 2 | 39.216 | 16.478 | 30.483 | 2 |
| 2025-09-20T06:58:00 | 58.067815 | 8.709184 | 2.0 | 16.298 | 2 | 39.058 | 16.462 | 30.358 | 2 |
| 2025-09-20T06:59:00 | 58.065563 | 8.711913 | 2.0 | 16.295 | 2 | 38.964 | 16.461 | 30.278 | 2 |
| 2025-09-20T07:00:00 | 58.063262 | 8.714609 | 2.0 | 16.302 | 2 | 38.935 | 16.459 | 30.254 | 2 |
| 2025-09-20T07:01:00 | 58.060944 | 8.717279 | 2.0 | 16.309 | 2 | 38.842 | 16.467 | 30.168 | 2 |
| 2025-09-20T07:02:00 | 58.058662 | 8.720061 | 2.0 | 16.314 | 2 | 38.853 | 16.469 | 30.176 | 2 |
| 2025-09-20T07:03:00 | 58.056385 | 8.722901 | 2.0 | 16.332 | 2 | 38.885 | 16.482 | 30.193 | 2 |
| 2025-09-20T07:04:00 | 58.054037 | 8.725578 | 2.0 | 16.334 | 2 | 38.731 | 16.494 | 30.051 | 2 |
| 2025-09-20T07:05:00 | 58.051712 | 8.728260 | 2.0 | 16.337 | 2 | 38.611 | 16.496 | 29.946 | 2 |
| 2025-09-20T07:06:00 | 58.049400 | 8.730987 | 2.0 | 16.341 | 2 | 38.521 | 16.499 | 29.866 | 2 |
| 2025-09-20T07:07:00 | 58.047100 | 8.733680 | 2.0 | 16.346 | 2 | 38.421 | 16.503 | 29.777 | 2 |
| 2025-09-20T07:08:00 | 58.044826 | 8.736373 | 2.0 | 16.351 | 2 | 38.342 | 16.508 | 29.705 | 2 |
| 2025-09-20T07:09:00 | 58.042548 | 8.739060 | 2.0 | 16.350 | 2 | 38.282 | 16.512 | 29.651 | 2 |
| 2025-09-20T07:10:00 | 58.040282 | 8.741736 | 2.0 | 16.349 | 2 | 38.226 | 16.511 | 29.603 | 2 |
| 2025-09-20T07:11:00 | 58.038017 | 8.744435 | 2.0 | 16.348 | 2 | 38.179 | 16.511 | 29.563 | 2 |
| 2025-09-20T07:12:00 | 58.035712 | 8.747140 | 2.0 | 16.343 | 2 | 38.135 | 16.508 | 29.527 | 2 |
| 2025-09-20T07:13:00 | 58.033433 | 8.749894 | 2.0 | 16.351 | 2 | 38.080 | 16.506 | 29.481 | 2 |
| 2025-09-20T07:14:00 | 58.031158 | 8.752552 | 2.0 | 16.353 | 2 | 38.030 | 16.513 | 29.433 | 2 |
| 2025-09-20T07:15:00 | 58.028892 | 8.755231 | 2.0 | 16.355 | 2 | 38.002 | 16.513 | 29.409 | 2 |
| 2025-09-20T07:16:00 | 58.026614 | 8.757967 | 2.0 | 16.358 | 2 | 38.002 | 16.516 | 29.407 | 2 |
| 2025-09-20T07:17:00 | 58.024306 | 8.760642 | 2.0 | 16.354 | 2 | 38.076 | 16.518 | 29.469 | 2 |
| 2025-09-20T07:18:00 | 58.021980 | 8.763344 | 2.0 | 16.357 | 2 | 38.091 | 16.516 | 29.483 | 2 |
| 2025-09-20T07:19:00 | 58.019671 | 8.766042 | 2.0 | 16.358 | 2 | 38.018 | 16.518 | 29.419 | 2 |
| 2025-09-20T07:20:00 | 58.017357 | 8.768824 | 2.0 | 16.358 | 2 | 37.972 | 16.518 | 29.380 | 2 |
| 2025-09-20T07:21:00 | 58.015033 | 8.771629 | 2.0 | 16.362 | 2 | 37.958 | 16.520 | 29.366 | 2 |
| 2025-09-20T07:22:00 | 58.012722 | 8.774334 | 2.0 | 16.365 | 2 | 37.953 | 16.525 | 29.358 | 2 |
| 2025-09-20T07:23:00 | 58.010461 | 8.776980 | 2.0 | 16.365 | 2 | 37.928 | 16.526 | 29.336 | 2 |
| 2025-09-20T07:24:00 | 58.008207 | 8.779664 | 2.0 | 16.372 | 2 | 37.935 | 16.527 | 29.341 | 2 |
| 2025-09-20T07:25:00 | 58.006014 | 8.782594 | 2.0 | 16.374 | 2 | 38.006 | 16.536 | 29.396 | 2 |
| 2025-09-20T07:26:00 | 58.004552 | 8.786679 | 2.0 | 16.362 | 2 | 38.039 | 16.533 | 29.426 | 2 |
| 2025-09-20T07:27:00 | 58.003868 | 8.791451 | 2.0 | 16.363 | 2 | 38.000 | 16.524 | 29.399 | 2 |
| 2025-09-20T07:28:00 | 58.003193 | 8.796305 | 2.0 | 16.356 | 2 | 38.010 | 16.524 | 29.408 | 2 |
| 2025-09-20T07:29:00 | 58.002475 | 8.801193 | 2.0 | 16.354 | 2 | 38.023 | 16.518 | 29.423 | 2 |
| 2025-09-20T07:30:00 | 58.001787 | 8.806163 | 2.0 | 16.356 | 2 | 38.009 | 16.516 | 29.413 | 2 |
| 2025-09-20T07:31:00 | 58.001044 | 8.811100 | 2.0 | 16.365 | 2 | 38.010 | 16.519 | 29.411 | 2 |
| 2025-09-20T07:32:00 | 58.000361 | 8.816052 | 2.0 | 16.366 | 2 | 38.024 | 16.525 | 29.419 | 2 |
| 2025-09-20T07:33:00 | 57.999659 | 8.821010 | 2.0 | 16.364 | 2 | 38.040 | 16.526 | 29.432 | 2 |
| 2025-09-20T07:34:00 | 57.998946 | 8.825985 | 2.0 | 16.365 | 2 | 38.054 | 16.525 | 29.445 | 2 |
| 2025-09-20T07:35:00 | 57.998247 | 8.830990 | 2.0 | 16.384 | 2 | 38.103 | 16.529 | 29.484 | 2 |
| 2025-09-20T07:36:00 | 57.997521 | 8.836000 | 2.0 | 16.392 | 2 | 38.244 | 16.547 | 29.592 | 2 |
| 2025-09-20T07:37:00 | 57.996818 | 8.841018 | 2.0 | 16.399 | 2 | 38.262 | 16.553 | 29.603 | 2 |
| 2025-09-20T07:38:00 | 57.996127 | 8.846086 | 2.0 | 16.410 | 2 | 38.300 | 16.566 | 29.626 | 2 |
| 2025-09-20T07:39:00 | 57.995441 | 8.851143 | 2.0 | 16.396 | 2 | 38.350 | 16.568 | 29.668 | 2 |
| 2025-09-20T07:40:00 | 57.994752 | 8.856176 | 2.0 | 16.402 | 2 | 38.221 | 16.559 | 29.564 | 2 |
| 2025-09-20T07:41:00 | 57.994041 | 8.861205 | 2.0 | 16.421 | 2 | 38.135 | 16.568 | 29.483 | 2 |
| 2025-09-20T07:42:00 | 57.993308 | 8.866230 | 2.0 | 16.422 | 2 | 38.076 | 16.582 | 29.422 | 2 |
| 2025-09-20T07:43:00 | 57.992595 | 8.871306 | 2.0 | 16.439 | 2 | 37.999 | 16.586 | 29.353 | 2 |
| 2025-09-20T07:44:00 | 57.991885 | 8.876432 | 2.0 | 16.441 | 2 | 37.946 | 16.599 | 29.298 | 2 |
| 2025-09-20T07:45:00 | 57.991143 | 8.881537 | 2.0 | 16.440 | 2 | 37.843 | 16.602 | 29.207 | 2 |
| 2025-09-20T07:46:00 | 57.990435 | 8.886633 | 2.0 | 16.437 | 2 | 37.735 | 16.601 | 29.115 | 2 |
| 2025-09-20T07:47:00 | 57.989734 | 8.891715 | 2.0 | 16.434 | 2 | 37.658 | 16.598 | 29.052 | 2 |
| 2025-09-20T07:48:00 | 57.989001 | 8.896802 | 2.0 | 16.424 | 2 | 37.597 | 16.596 | 29.001 | 2 |
| 2025-09-20T07:49:00 | 57.988286 | 8.901920 | 2.0 | 16.411 | 2 | 37.516 | 16.583 | 28.941 | 2 |
| 2025-09-20T07:50:00 | 57.987561 | 8.907017 | 2.0 | 16.417 | 2 | 37.453 | 16.576 | 28.892 | 2 |
| 2025-09-20T07:51:00 | 57.986766 | 8.912069 | 2.0 | 16.401 | 2 | 37.461 | 16.578 | 28.897 | 2 |
| 2025-09-20T07:52:00 | 57.985030 | 8.915902 | 2.0 | 16.410 | 2 | 37.514 | 16.562 | 28.954 | 2 |
| 2025-09-20T07:53:00 | 57.982488 | 8.917112 | 2.0 | 16.437 | 2 | 37.613 | 16.577 | 29.028 | 2 |
| 2025-09-20T07:54:00 | 57.980074 | 8.915958 | 2.0 | 16.459 | 2 | 37.631 | 16.602 | 29.026 | 2 |
| 2025-09-20T07:55:00 | 57.978297 | 8.912909 | 2.0 | 16.470 | 2 | 37.593 | 16.622 | 28.979 | 2 |
| 2025-09-20T07:56:00 | 57.977599 | 8.908631 | 2.0 | 16.469 | 2 | 37.583 | 16.631 | 28.963 | 2 |
| 2025-09-20T07:57:00 | 57.977678 | 8.904001 | 2.0 | 16.460 | 2 | 37.521 | 16.629 | 28.912 | 2 |
| 2025-09-20T07:58:00 | 57.977721 | 8.899292 | 2.0 | 16.452 | 2 | 37.568 | 16.622 | 28.957 | 2 |
| 2025-09-20T07:59:00 | 57.977801 | 8.894575 | 2.0 | 16.441 | 2 | 37.559 | 16.612 | 28.957 | 2 |
| 2025-09-20T08:00:00 | 57.977892 | 8.889789 | 2.0 | 16.427 | 2 | 37.573 | 16.602 | 28.976 | 2 |
| 2025-09-20T08:01:00 | 57.977966 | 8.885100 | 2.0 | 16.412 | 2 | 37.590 | 16.587 | 29.001 | 2 |
| 2025-09-20T08:02:00 | 57.978038 | 8.880430 | 2.0 | 16.406 | 2 | 37.536 | 16.574 | 28.964 | 2 |
| 2025-09-20T08:03:00 | 57.978358 | 8.875772 | 2.0 | 16.425 | 2 | 37.549 | 16.572 | 28.977 | 2 |
| 2025-09-20T08:04:00 | 57.979445 | 8.871407 | 2.0 | 16.422 | 2 | 37.450 | 16.586 | 28.882 | 2 |
| 2025-09-20T08:05:00 | 57.981276 | 8.867819 | 2.0 | 16.422 | 2 | 37.444 | 16.584 | 28.878 | 2 |
| 2025-09-20T08:06:00 | 57.983365 | 8.864560 | 2.0 | 16.442 | 2 | 37.488 | 16.588 | 28.913 | 2 |
| 2025-09-20T08:07:00 | 57.985439 | 8.861178 | 2.0 | 16.449 | 2 | 37.575 | 16.605 | 28.975 | 2 |
| 2025-09-20T08:08:00 | 57.987531 | 8.857814 | 2.0 | 16.454 | 2 | 37.668 | 16.612 | 29.050 | 2 |
| 2025-09-20T08:09:00 | 57.989919 | 8.855183 | 2.0 | 16.433 | 2 | 37.830 | 16.613 | 29.188 | 2 |
| 2025-09-20T08:10:00 | 57.992647 | 8.854398 | 2.0 | 16.424 | 2 | 37.994 | 16.598 | 29.340 | 2 |
| 2025-09-20T08:11:00 | 57.995336 | 8.855572 | 2.0 | 16.407 | 2 | 38.118 | 16.583 | 29.457 | 2 |
| 2025-09-20T08:12:00 | 57.997661 | 8.858395 | 2.0 | 16.410 | 2 | 38.135 | 16.572 | 29.480 | 2 |
| 2025-09-20T08:13:00 | 57.999030 | 8.862880 | 2.0 | 16.408 | 2 | 38.205 | 16.573 | 29.539 | 2 |
| 2025-09-20T08:14:00 | 57.999793 | 8.867902 | 2.0 | 16.409 | 2 | 38.201 | 16.572 | 29.537 | 2 |
| 2025-09-20T08:15:00 | 57.999705 | 8.873088 | 2.0 | 16.412 | 2 | 38.162 | 16.572 | 29.503 | 2 |
| 2025-09-20T08:16:00 | 57.998470 | 8.877693 | 2.0 | 16.425 | 2 | 38.136 | 16.578 | 29.476 | 2 |
| 2025-09-20T08:17:00 | 57.996749 | 8.881721 | 2.0 | 16.431 | 2 | 38.039 | 16.588 | 29.386 | 2 |
| 2025-09-20T08:18:00 | 57.994533 | 8.884580 | 2.0 | 16.444 | 2 | 37.968 | 16.596 | 29.319 | 2 |
| 2025-09-20T08:19:00 | 57.992014 | 8.885899 | 2.0 | 16.446 | 2 | 37.898 | 16.607 | 29.251 | 2 |
| 2025-09-20T08:20:00 | 57.989488 | 8.885751 | 2.0 | 16.443 | 2 | 37.718 | 16.608 | 29.096 | 2 |
| 2025-09-20T08:21:00 | 57.987075 | 8.884276 | 2.0 | 16.442 | 2 | 37.625 | 16.606 | 29.018 | 2 |
| 2025-09-20T08:22:00 | 57.984979 | 8.881606 | 2.0 | 16.430 | 2 | 37.563 | 16.602 | 28.967 | 2 |
| 2025-09-20T08:23:00 | 57.983435 | 8.877872 | 2.0 | 16.422 | 2 | 37.509 | 16.591 | 28.929 | 2 |
| 2025-09-20T08:24:00 | 57.982846 | 8.873187 | 2.0 | 16.426 | 2 | 37.483 | 16.585 | 28.911 | 2 |
| 2025-09-20T08:25:00 | 57.983110 | 8.868335 | 2.0 | 16.435 | 2 | 37.493 | 16.590 | 28.916 | 2 |
| 2025-09-20T08:26:00 | 57.984339 | 8.863949 | 2.0 | 16.451 | 2 | 37.373 | 16.601 | 28.805 | 2 |
| 2025-09-20T08:27:00 | 57.986246 | 8.860342 | 2.0 | 16.451 | 2 | 37.536 | 16.612 | 28.937 | 2 |
| 2025-09-20T08:28:00 | 57.988400 | 8.857159 | 2.0 | 16.450 | 2 | 37.599 | 16.613 | 28.990 | 2 |
| 2025-09-20T08:29:00 | 57.990920 | 8.854971 | 2.0 | 16.435 | 2 | 37.870 | 16.608 | 29.226 | 2 |
| 2025-09-20T08:30:00 | 57.993623 | 8.853594 | 2.0 | 16.412 | 2 | 38.062 | 16.596 | 29.400 | 2 |
| 2025-09-20T08:31:00 | 57.996340 | 8.852219 | 2.0 | 16.411 | 2 | 38.064 | 16.576 | 29.416 | 2 |
| 2025-09-20T08:32:00 | 57.999045 | 8.850770 | 2.0 | 16.387 | 2 | 38.165 | 16.571 | 29.507 | 2 |
| 2025-09-20T08:33:00 | 58.001743 | 8.849383 | 2.0 | 16.370 | 2 | 38.121 | 16.548 | 29.486 | 2 |
| 2025-09-20T08:34:00 | 58.004427 | 8.847986 | 2.0 | 16.363 | 2 | 38.108 | 16.534 | 29.485 | 2 |
| 2025-09-20T08:35:00 | 58.006869 | 8.846739 | 2.0 | 16.355 | 2 | 38.043 | 16.528 | 29.433 | 2 |
| 2025-09-20T08:36:00 | 58.008613 | 8.845517 | 2.0 | 16.347 | 2 | 38.017 | 16.517 | 29.419 | 2 |
| 2025-09-20T08:37:00 | 58.010003 | 8.844642 | 2.0 | 16.344 | 2 | 38.028 | 16.509 | 29.434 | 2 |
| 2025-09-20T08:38:00 | 58.011342 | 8.843878 | 2.0 | 16.341 | 2 | 38.017 | 16.504 | 29.429 | 2 |
| 2025-09-20T08:39:00 | 58.012604 | 8.842665 | 2.0 | 16.341 | 2 | 38.025 | 16.501 | 29.438 | 2 |
| 2025-09-20T08:40:00 | 58.013529 | 8.842422 | 2.0 | 16.340 | 2 | 38.030 | 16.501 | 29.442 | 2 |
| 2025-09-20T08:41:00 | 58.013594 | 8.842975 | 2.0 | 16.341 | 2 | 38.028 | 16.506 | 29.437 | 2 |
| 2025-09-20T08:42:00 | 58.013427 | 8.843174 | 2.0 | 16.342 | 2 | 38.041 | 16.514 | 29.442 | 2 |
| 2025-09-20T08:43:00 | 58.013249 | 8.842901 | 2.0 | 16.340 | 2 | 38.047 | 16.517 | 29.445 | 2 |
| 2025-09-20T08:44:00 | 58.013122 | 8.842569 | 2.0 | 16.339 | 2 | 38.049 | 16.517 | 29.446 | 2 |
| 2025-09-20T08:45:00 | 58.012913 | 8.841933 | 2.0 | 16.341 | 2 | 38.050 | 16.518 | 29.447 | 2 |
| 2025-09-20T08:46:00 | 58.012750 | 8.841042 | 2.0 | 16.339 | 2 | 38.054 | 16.521 | 29.448 | 2 |
| 2025-09-20T08:47:00 | 58.012512 | 8.840332 | 2.0 | 16.341 | 2 | 38.060 | 16.521 | 29.453 | 2 |
| 2025-09-20T08:48:00 | 58.012253 | 8.839842 | 2.0 | 16.342 | 2 | 38.056 | 16.522 | 29.449 | 2 |
| 2025-09-20T08:49:00 | 58.012042 | 8.839455 | 2.0 | 16.342 | 2 | 38.058 | 16.524 | 29.449 | 2 |
| 2025-09-20T08:50:00 | 58.011917 | 8.839144 | 2.0 | 16.342 | 2 | 38.059 | 16.525 | 29.449 | 2 |
| 2025-09-20T08:51:00 | 58.011860 | 8.838920 | 2.0 | 16.342 | 2 | 38.059 | 16.525 | 29.449 | 2 |
| 2025-09-20T08:52:00 | 58.011834 | 8.838717 | 2.0 | 16.343 | 2 | 38.060 | 16.526 | 29.449 | 2 |
| 2025-09-20T08:53:00 | 58.011783 | 8.838478 | 2.0 | 16.343 | 2 | 38.061 | 16.527 | 29.449 | 2 |
| 2025-09-20T08:54:00 | 58.011758 | 8.838219 | 2.0 | 16.343 | 2 | 38.061 | 16.527 | 29.449 | 2 |
| 2025-09-20T08:55:00 | 58.011730 | 8.837983 | 2.0 | 16.343 | 2 | 38.059 | 16.526 | 29.448 | 2 |
| 2025-09-20T08:56:00 | 58.011637 | 8.837794 | 2.0 | 16.342 | 2 | 38.059 | 16.527 | 29.448 | 2 |
| 2025-09-20T08:57:00 | 58.011461 | 8.837555 | 2.0 | 16.342 | 2 | 38.058 | 16.525 | 29.448 | 2 |
| 2025-09-20T08:58:00 | 58.011201 | 8.837136 | 2.0 | 16.341 | 2 | 38.058 | 16.525 | 29.448 | 2 |
| 2025-09-20T08:59:00 | 58.010859 | 8.835605 | 2.0 | 16.342 | 2 | 38.057 | 16.525 | 29.447 | 2 |
| 2025-09-20T09:00:00 | 58.011557 | 8.834105 | 2.0 | 16.346 | 2 | 38.053 | 16.528 | 29.442 | 2 |
| 2025-09-20T09:01:00 | 58.013269 | 8.833309 | 2.0 | 16.350 | 2 | 38.037 | 16.534 | 29.424 | 2 |
| 2025-09-20T09:02:00 | 58.015552 | 8.833683 | 2.0 | 16.355 | 2 | 38.014 | 16.541 | 29.399 | 2 |
| 2025-09-20T09:03:00 | 58.017597 | 8.834184 | 2.0 | 16.356 | 2 | 38.002 | 16.545 | 29.386 | 2 |
| 2025-09-20T09:04:00 | 58.019230 | 8.834668 | 2.0 | 16.354 | 2 | 37.521 | 16.543 | 28.974 | 2 |
| 2025-09-20T09:05:00 | 58.019717 | 8.836033 | 2.0 | 16.352 | 2 | 37.705 | 16.535 | 29.138 | 2 |
| 2025-09-20T09:06:00 | 58.019249 | 8.837383 | 2.0 | 16.353 | 2 | 37.709 | 16.528 | 29.146 | 2 |
| 2025-09-20T09:07:00 | 58.018307 | 8.838592 | 2.0 | 16.353 | 2 | 38.051 | 16.527 | 29.441 | 2 |
| 2025-09-20T09:08:00 | 58.017113 | 8.839896 | 2.0 | 16.353 | 2 | 37.631 | 16.526 | 29.081 | 2 |
| 2025-09-20T09:09:00 | 58.015904 | 8.841187 | 2.0 | 16.350 | 2 | 37.534 | 16.525 | 28.998 | 2 |
| 2025-09-20T09:10:00 | 58.014699 | 8.842467 | 2.0 | 16.347 | 2 | 38.009 | 16.521 | 29.409 | 2 |
| 2025-09-20T09:11:00 | 58.013495 | 8.843753 | 2.0 | 16.346 | 2 | 38.010 | 16.519 | 29.411 | 2 |
| 2025-09-20T09:12:00 | 58.012276 | 8.845060 | 2.0 | 16.344 | 2 | 38.028 | 16.516 | 29.429 | 2 |
| 2025-09-20T09:13:00 | 58.011046 | 8.846371 | 2.0 | 16.343 | 2 | 37.608 | 16.513 | 29.070 | 2 |
| 2025-09-20T09:14:00 | 58.009849 | 8.847684 | 2.0 | 16.346 | 2 | 37.889 | 16.512 | 29.313 | 2 |
| 2025-09-20T09:15:00 | 58.008640 | 8.848989 | 2.0 | 16.350 | 2 | 37.954 | 16.515 | 29.366 | 2 |
| 2025-09-20T09:16:00 | 58.007449 | 8.850285 | 2.0 | 16.355 | 2 | 38.065 | 16.519 | 29.459 | 2 |
| 2025-09-20T09:17:00 | 58.006237 | 8.851611 | 2.0 | 16.358 | 2 | 37.776 | 16.523 | 29.207 | 2 |
| 2025-09-20T09:18:00 | 58.005036 | 8.852934 | 2.0 | 16.359 | 2 | 37.893 | 16.525 | 29.306 | 2 |
| 2025-09-20T09:19:00 | 58.003844 | 8.854259 | 2.0 | 16.381 | 2 | 37.869 | 16.531 | 29.281 | 2 |
| 2025-09-20T09:20:00 | 58.002650 | 8.855588 | 2.0 | 16.384 | 2 | 37.957 | 16.546 | 29.346 | 2 |
| 2025-09-20T09:21:00 | 58.001299 | 8.857096 | 2.0 | 16.411 | 2 | 38.143 | 16.554 | 29.500 | 2 |
| 2025-09-20T09:22:00 | 57.999394 | 8.859200 | 2.0 | 16.422 | 2 | 37.970 | 16.578 | 29.334 | 2 |
| 2025-09-20T09:23:00 | 57.997319 | 8.861896 | 2.0 | 16.436 | 2 | 37.991 | 16.591 | 29.342 | 2 |
| 2025-09-20T09:24:00 | 57.995211 | 8.864752 | 2.0 | 16.443 | 2 | 38.136 | 16.604 | 29.457 | 2 |
| 2025-09-20T09:25:00 | 57.993102 | 8.867638 | 2.0 | 16.463 | 2 | 38.043 | 16.610 | 29.373 | 2 |
| 2025-09-20T09:26:00 | 57.990990 | 8.870582 | 2.0 | 16.471 | 2 | 37.908 | 16.633 | 29.240 | 2 |
| 2025-09-20T09:27:00 | 57.988882 | 8.873504 | 2.0 | 16.466 | 2 | 37.622 | 16.636 | 28.993 | 2 |
| 2025-09-20T09:28:00 | 57.986751 | 8.876439 | 2.0 | 16.462 | 2 | 37.502 | 16.632 | 28.893 | 2 |
| 2025-09-20T09:29:00 | 57.984625 | 8.879378 | 2.0 | 16.445 | 2 | 37.586 | 16.625 | 28.970 | 2 |
| 2025-09-20T09:30:00 | 57.982481 | 8.882304 | 2.0 | 16.441 | 2 | 37.387 | 16.609 | 28.812 | 2 |
| 2025-09-20T09:31:00 | 57.980320 | 8.885249 | 2.0 | 16.443 | 2 | 37.287 | 16.610 | 28.725 | 2 |
| 2025-09-20T09:32:00 | 57.978334 | 8.887977 | 2.0 | 16.456 | 2 | 37.525 | 16.611 | 28.928 | 2 |
| 2025-09-20T09:33:00 | 57.976540 | 8.889546 | 2.0 | 16.481 | 2 | 37.534 | 16.627 | 28.924 | 2 |
| 2025-09-20T09:34:00 | 57.975006 | 8.890225 | 2.0 | 16.493 | 2 | 37.585 | 16.647 | 28.954 | 2 |
| 2025-09-20T09:35:00 | 57.973958 | 8.890117 | 2.0 | 16.500 | 2 | 37.505 | 16.658 | 28.877 | 2 |
| 2025-09-20T09:36:00 | 57.973883 | 8.889051 | 2.0 | 16.500 | 2 | 37.498 | 16.664 | 28.867 | 2 |
| 2025-09-20T09:37:00 | 57.974202 | 8.888125 | 2.0 | 16.497 | 2 | 37.436 | 16.664 | 28.814 | 2 |
| 2025-09-20T09:38:00 | 57.974512 | 8.887305 | 2.0 | 16.495 | 2 | 37.375 | 16.661 | 28.764 | 2 |
| 2025-09-20T09:39:00 | 57.974809 | 8.886631 | 2.0 | 16.494 | 2 | 37.447 | 16.658 | 28.828 | 2 |
| 2025-09-20T09:40:00 | 57.975118 | 8.886084 | 2.0 | 16.493 | 2 | 37.579 | 16.657 | 28.941 | 2 |
| 2025-09-20T09:41:00 | 57.975465 | 8.885617 | 2.0 | 16.491 | 2 | 37.501 | 16.655 | 28.876 | 2 |
| 2025-09-20T09:42:00 | 57.975807 | 8.885155 | 2.0 | 16.486 | 2 | 37.564 | 16.653 | 28.931 | 2 |
| 2025-09-20T09:43:00 | 57.976150 | 8.884693 | 2.0 | 16.486 | 2 | 37.539 | 16.650 | 28.912 | 2 |
| 2025-09-20T09:44:00 | 57.976500 | 8.884236 | 2.0 | 16.483 | 2 | 37.497 | 16.650 | 28.876 | 2 |
| 2025-09-20T09:45:00 | 57.976849 | 8.883792 | 2.0 | 16.481 | 2 | 37.555 | 16.647 | 28.928 | 2 |
| 2025-09-20T09:46:00 | 57.977221 | 8.883395 | 2.0 | 16.478 | 2 | 37.520 | 16.644 | 28.900 | 2 |
| 2025-09-20T09:47:00 | 57.977599 | 8.883015 | 2.0 | 16.467 | 2 | 37.562 | 16.642 | 28.938 | 2 |
| 2025-09-20T09:48:00 | 57.977968 | 8.882626 | 2.0 | 16.454 | 2 | 37.517 | 16.628 | 28.909 | 2 |
| 2025-09-20T09:49:00 | 57.978340 | 8.882225 | 2.0 | 16.450 | 2 | 37.511 | 16.618 | 28.911 | 2 |
| 2025-09-20T09:50:00 | 57.978697 | 8.881833 | 2.0 | 16.446 | 2 | 37.529 | 16.613 | 28.930 | 2 |
| 2025-09-20T09:51:00 | 57.979060 | 8.881457 | 2.0 | 16.471 | 2 | 37.506 | 16.614 | 28.910 | 2 |
| 2025-09-20T09:52:00 | 57.979429 | 8.881085 | 2.0 | 16.472 | 2 | 37.461 | 16.633 | 28.858 | 2 |
| 2025-09-20T09:53:00 | 57.979798 | 8.880731 | 2.0 | 16.470 | 2 | 37.447 | 16.636 | 28.843 | 2 |
| 2025-09-20T09:54:00 | 57.980162 | 8.880359 | 2.0 | 16.471 | 2 | 37.432 | 16.634 | 28.832 | 2 |
| 2025-09-20T09:55:00 | 57.980533 | 8.880002 | 2.0 | 16.471 | 2 | 37.459 | 16.634 | 28.855 | 2 |
| 2025-09-20T09:56:00 | 57.980885 | 8.879622 | 2.0 | 16.470 | 2 | 37.457 | 16.635 | 28.853 | 2 |
| 2025-09-20T09:57:00 | 57.981250 | 8.879252 | 2.0 | 16.472 | 2 | 37.460 | 16.634 | 28.856 | 2 |
| 2025-09-20T09:58:00 | 57.981601 | 8.878884 | 2.0 | 16.474 | 2 | 37.469 | 16.636 | 28.862 | 2 |
| 2025-09-20T09:59:00 | 57.981954 | 8.878512 | 2.0 | 16.469 | 2 | 37.452 | 16.637 | 28.847 | 2 |
| 2025-09-20T10:00:00 | 57.982318 | 8.878114 | 2.0 | 16.470 | 2 | 37.476 | 16.632 | 28.871 | 2 |
| 2025-09-20T10:01:00 | 57.982685 | 8.877707 | 2.0 | 16.469 | 2 | 37.474 | 16.634 | 28.868 | 2 |
| 2025-09-20T10:02:00 | 57.983073 | 8.877332 | 2.0 | 16.468 | 2 | 37.482 | 16.633 | 28.876 | 2 |
| 2025-09-20T10:03:00 | 57.983432 | 8.876941 | 2.0 | 16.471 | 2 | 37.488 | 16.631 | 28.882 | 2 |
| 2025-09-20T10:04:00 | 57.983813 | 8.876563 | 2.0 | 16.471 | 2 | 37.500 | 16.633 | 28.891 | 2 |
| 2025-09-20T10:05:00 | 57.984178 | 8.876175 | 2.0 | 16.474 | 2 | 37.510 | 16.635 | 28.898 | 2 |
| 2025-09-20T10:06:00 | 57.984560 | 8.875796 | 2.0 | 16.478 | 2 | 37.519 | 16.637 | 28.904 | 2 |
| 2025-09-20T10:07:00 | 57.984952 | 8.875398 | 2.0 | 16.481 | 2 | 37.534 | 16.641 | 28.914 | 2 |
| 2025-09-20T10:08:00 | 57.985334 | 8.874987 | 2.0 | 16.485 | 2 | 37.541 | 16.644 | 28.918 | 2 |
| 2025-09-20T10:09:00 | 57.985727 | 8.874599 | 2.0 | 16.488 | 2 | 37.553 | 16.647 | 28.926 | 2 |
| 2025-09-20T10:10:00 | 57.986124 | 8.874207 | 2.0 | 16.490 | 2 | 37.567 | 16.650 | 28.936 | 2 |
| 2025-09-20T10:11:00 | 57.986496 | 8.873793 | 2.0 | 16.493 | 2 | 37.577 | 16.653 | 28.942 | 2 |
| 2025-09-20T10:12:00 | 57.986890 | 8.873407 | 2.0 | 16.496 | 2 | 37.580 | 16.655 | 28.944 | 2 |
| 2025-09-20T10:13:00 | 57.987284 | 8.872995 | 2.0 | 16.499 | 2 | 37.585 | 16.659 | 28.945 | 2 |
| 2025-09-20T10:14:00 | 57.987680 | 8.872578 | 2.0 | 16.502 | 2 | 37.601 | 16.662 | 28.957 | 2 |
| 2025-09-20T10:15:00 | 57.988082 | 8.872159 | 2.0 | 16.507 | 2 | 37.622 | 16.666 | 28.972 | 2 |
| 2025-09-20T10:16:00 | 57.988476 | 8.871702 | 2.0 | 16.509 | 2 | 37.630 | 16.669 | 28.976 | 2 |
| 2025-09-20T10:17:00 | 57.988881 | 8.871244 | 2.0 | 16.516 | 2 | 37.642 | 16.673 | 28.984 | 2 |
| 2025-09-20T10:18:00 | 57.989244 | 8.870777 | 2.0 | 16.518 | 2 | 37.666 | 16.679 | 29.000 | 2 |
| 2025-09-20T10:19:00 | 57.989643 | 8.870361 | 2.0 | 16.513 | 2 | 37.682 | 16.679 | 29.014 | 2 |
| 2025-09-20T10:20:00 | 57.990028 | 8.869900 | 2.0 | 16.516 | 2 | 37.698 | 16.674 | 29.031 | 2 |
| 2025-09-20T10:21:00 | 57.990408 | 8.869438 | 2.0 | 16.517 | 2 | 37.716 | 16.677 | 29.044 | 2 |
| 2025-09-20T10:22:00 | 57.990809 | 8.868983 | 2.0 | 16.521 | 2 | 37.727 | 16.680 | 29.051 | 2 |
| 2025-09-20T10:23:00 | 57.991195 | 8.868536 | 2.0 | 16.525 | 2 | 37.742 | 16.684 | 29.061 | 2 |
| 2025-09-20T10:24:00 | 57.991591 | 8.868110 | 2.0 | 16.527 | 2 | 37.755 | 16.687 | 29.070 | 2 |
| 2025-09-20T10:25:00 | 57.991968 | 8.867663 | 2.0 | 16.528 | 2 | 37.772 | 16.689 | 29.083 | 2 |
| 2025-09-20T10:26:00 | 57.992354 | 8.867252 | 2.0 | 16.533 | 2 | 37.783 | 16.691 | 29.091 | 2 |
| 2025-09-20T10:27:00 | 57.992741 | 8.866832 | 2.0 | 16.528 | 2 | 37.800 | 16.695 | 29.103 | 2 |
| 2025-09-20T10:28:00 | 57.993115 | 8.866395 | 2.0 | 16.529 | 2 | 37.823 | 16.685 | 29.130 | 2 |
| 2025-09-20T10:29:00 | 57.993511 | 8.865984 | 2.0 | 16.545 | 2 | 37.850 | 16.696 | 29.145 | 2 |
| 2025-09-20T10:30:00 | 57.993899 | 8.865555 | 2.0 | 16.546 | 2 | 37.848 | 16.705 | 29.137 | 2 |
| 2025-09-20T10:31:00 | 57.994299 | 8.865140 | 2.0 | 16.549 | 2 | 37.861 | 16.710 | 29.144 | 2 |
| 2025-09-20T10:32:00 | 57.994695 | 8.864708 | 2.0 | 16.551 | 2 | 37.898 | 16.711 | 29.175 | 2 |
| 2025-09-20T10:33:00 | 57.995107 | 8.864278 | 2.0 | 16.539 | 2 | 37.921 | 16.710 | 29.196 | 2 |
| 2025-09-20T10:34:00 | 57.995485 | 8.863827 | 2.0 | 16.552 | 2 | 37.930 | 16.704 | 29.208 | 2 |
| 2025-09-20T10:35:00 | 57.995879 | 8.863403 | 2.0 | 16.525 | 2 | 37.943 | 16.713 | 29.212 | 2 |
| 2025-09-20T10:36:00 | 57.996276 | 8.862948 | 2.0 | 16.508 | 2 | 38.059 | 16.679 | 29.336 | 2 |
| 2025-09-20T10:37:00 | 57.996660 | 8.862472 | 2.0 | 16.509 | 2 | 38.087 | 16.671 | 29.366 | 2 |
| 2025-09-20T10:38:00 | 57.997076 | 8.862009 | 2.0 | 16.510 | 2 | 38.106 | 16.674 | 29.380 | 2 |
| 2025-09-20T10:39:00 | 57.997486 | 8.861510 | 2.0 | 16.514 | 2 | 38.116 | 16.673 | 29.390 | 2 |
| 2025-09-20T10:40:00 | 57.997898 | 8.860997 | 2.0 | 16.516 | 2 | 38.133 | 16.677 | 29.401 | 2 |
| 2025-09-20T10:41:00 | 57.998332 | 8.860484 | 2.0 | 16.516 | 2 | 38.146 | 16.676 | 29.413 | 2 |
| 2025-09-20T10:42:00 | 57.998775 | 8.859963 | 2.0 | 16.507 | 2 | 38.161 | 16.680 | 29.423 | 2 |
| 2025-09-20T10:43:00 | 57.999211 | 8.859435 | 2.0 | 16.504 | 2 | 38.195 | 16.670 | 29.459 | 2 |
| 2025-09-20T10:44:00 | 57.999644 | 8.858935 | 2.0 | 16.506 | 2 | 38.197 | 16.667 | 29.463 | 2 |
| 2025-09-20T10:45:00 | 58.000073 | 8.858443 | 2.0 | 16.492 | 2 | 38.228 | 16.665 | 29.491 | 2 |
| 2025-09-20T10:46:00 | 58.000478 | 8.857935 | 2.0 | 16.486 | 2 | 38.223 | 16.653 | 29.496 | 2 |
| 2025-09-20T10:47:00 | 58.000876 | 8.857437 | 2.0 | 16.489 | 2 | 38.224 | 16.649 | 29.500 | 2 |
| 2025-09-20T10:48:00 | 58.001292 | 8.856964 | 2.0 | 16.492 | 2 | 38.223 | 16.651 | 29.497 | 2 |
| 2025-09-20T10:49:00 | 58.001708 | 8.856479 | 2.0 | 16.495 | 2 | 38.239 | 16.655 | 29.508 | 2 |
| 2025-09-20T10:50:00 | 58.002117 | 8.856006 | 2.0 | 16.501 | 2 | 38.265 | 16.658 | 29.528 | 2 |
| 2025-09-20T10:51:00 | 58.002466 | 8.855496 | 2.0 | 16.488 | 2 | 38.290 | 16.660 | 29.548 | 2 |
| 2025-09-20T10:52:00 | 58.002778 | 8.854971 | 2.0 | 16.489 | 2 | 38.287 | 16.650 | 29.553 | 2 |
| 2025-09-20T10:53:00 | 58.003088 | 8.854438 | 2.0 | 16.478 | 2 | 38.282 | 16.651 | 29.548 | 2 |
| 2025-09-20T10:54:00 | 58.003420 | 8.853898 | 2.0 | 16.478 | 2 | 38.263 | 16.642 | 29.538 | 2 |
| 2025-09-20T10:55:00 | 58.003788 | 8.853430 | 2.0 | 16.473 | 2 | 38.250 | 16.639 | 29.529 | 2 |
| 2025-09-20T10:56:00 | 58.004154 | 8.852954 | 2.0 | 16.453 | 2 | 38.244 | 16.634 | 29.528 | 2 |
| 2025-09-20T10:57:00 | 58.004513 | 8.852450 | 2.0 | 16.446 | 2 | 38.236 | 16.616 | 29.534 | 2 |
| 2025-09-20T10:58:00 | 58.004882 | 8.851950 | 2.0 | 16.461 | 2 | 38.233 | 16.609 | 29.537 | 2 |
| 2025-09-20T10:59:00 | 58.005262 | 8.851459 | 2.0 | 16.468 | 2 | 38.253 | 16.629 | 29.539 | 2 |
| 2025-09-20T11:00:00 | 58.005630 | 8.850970 | 2.0 | 16.450 | 2 | 38.229 | 16.625 | 29.522 | 2 |
| 2025-09-20T11:01:00 | 58.005979 | 8.850449 | 2.0 | 16.438 | 2 | 38.198 | 16.609 | 29.507 | 2 |
| 2025-09-20T11:02:00 | 58.006362 | 8.849903 | 2.0 | 16.450 | 2 | 38.179 | 16.605 | 29.494 | 2 |
| 2025-09-20T11:03:00 | 58.006815 | 8.849415 | 2.0 | 16.444 | 2 | 38.160 | 16.610 | 29.474 | 2 |
| 2025-09-20T11:04:00 | 58.007252 | 8.848888 | 2.0 | 16.438 | 2 | 38.150 | 16.605 | 29.469 | 2 |
| 2025-09-20T11:05:00 | 58.007684 | 8.848394 | 2.0 | 16.439 | 2 | 38.142 | 16.599 | 29.466 | 2 |
| 2025-09-20T11:06:00 | 58.008149 | 8.847935 | 2.0 | 16.440 | 2 | 38.143 | 16.600 | 29.466 | 2 |
| 2025-09-20T11:07:00 | 58.008626 | 8.847473 | 2.0 | 16.440 | 2 | 38.146 | 16.602 | 29.467 | 2 |
| 2025-09-20T11:08:00 | 58.009096 | 8.847034 | 2.0 | 16.435 | 2 | 38.146 | 16.600 | 29.469 | 2 |
| 2025-09-20T11:09:00 | 58.009573 | 8.846602 | 2.0 | 16.434 | 2 | 38.146 | 16.598 | 29.470 | 2 |
| 2025-09-20T11:10:00 | 58.010049 | 8.846143 | 2.0 | 16.436 | 2 | 38.149 | 16.599 | 29.472 | 2 |
| 2025-09-20T11:11:00 | 58.010495 | 8.845677 | 2.0 | 16.442 | 2 | 38.152 | 16.598 | 29.475 | 2 |
| 2025-09-20T11:12:00 | 58.010951 | 8.845255 | 2.0 | 16.430 | 2 | 38.156 | 16.600 | 29.477 | 2 |
| 2025-09-20T11:13:00 | 58.011425 | 8.844819 | 2.0 | 16.428 | 2 | 38.153 | 16.593 | 29.480 | 2 |
| 2025-09-20T11:14:00 | 58.011868 | 8.844368 | 2.0 | 16.430 | 2 | 38.152 | 16.592 | 29.480 | 2 |
| 2025-09-20T11:15:00 | 58.012309 | 8.843931 | 2.0 | 16.435 | 2 | 38.152 | 16.593 | 29.479 | 2 |
| 2025-09-20T11:16:00 | 58.012741 | 8.843480 | 2.0 | 16.433 | 2 | 38.137 | 16.597 | 29.463 | 2 |
| 2025-09-20T11:17:00 | 58.013165 | 8.843080 | 2.0 | 16.427 | 2 | 38.117 | 16.593 | 29.449 | 2 |
| 2025-09-20T11:18:00 | 58.013592 | 8.842682 | 2.0 | 16.427 | 2 | 38.107 | 16.588 | 29.444 | 2 |
| 2025-09-20T11:19:00 | 58.014002 | 8.842252 | 2.0 | 16.427 | 2 | 38.108 | 16.588 | 29.445 | 2 |
| 2025-09-20T11:20:00 | 58.014407 | 8.841835 | 2.0 | 16.426 | 2 | 38.107 | 16.588 | 29.444 | 2 |
| 2025-09-20T11:21:00 | 58.014817 | 8.841431 | 2.0 | 16.431 | 2 | 38.108 | 16.589 | 29.444 | 2 |
| 2025-09-20T11:22:00 | 58.015233 | 8.841010 | 2.0 | 16.429 | 2 | 38.109 | 16.592 | 29.443 | 2 |
| 2025-09-20T11:23:00 | 58.015654 | 8.840590 | 2.0 | 16.428 | 2 | 38.102 | 16.590 | 29.438 | 2 |
| 2025-09-20T11:24:00 | 58.016077 | 8.840169 | 2.0 | 16.429 | 2 | 38.098 | 16.589 | 29.436 | 2 |
| 2025-09-20T11:25:00 | 58.016498 | 8.839758 | 2.0 | 16.434 | 2 | 38.097 | 16.592 | 29.433 | 2 |
| 2025-09-20T11:26:00 | 58.016923 | 8.839347 | 2.0 | 16.440 | 2 | 38.104 | 16.597 | 29.435 | 2 |
| 2025-09-20T11:27:00 | 58.017333 | 8.838944 | 2.0 | 16.441 | 2 | 38.114 | 16.601 | 29.441 | 2 |
| 2025-09-20T11:28:00 | 58.017748 | 8.838581 | 2.0 | 16.444 | 2 | 38.122 | 16.602 | 29.447 | 2 |
| 2025-09-20T11:29:00 | 58.018156 | 8.838174 | 2.0 | 16.448 | 2 | 38.131 | 16.607 | 29.451 | 2 |
| 2025-09-20T11:30:00 | 58.018573 | 8.837770 | 2.0 | 16.447 | 2 | 38.141 | 16.609 | 29.458 | 2 |
| 2025-09-20T11:31:00 | 58.018995 | 8.837361 | 2.0 | 16.448 | 2 | 38.154 | 16.608 | 29.470 | 2 |
| 2025-09-20T11:32:00 | 58.019417 | 8.836974 | 2.0 | 16.448 | 2 | 38.172 | 16.611 | 29.483 | 2 |
| 2025-09-20T11:33:00 | 58.019838 | 8.836569 | 2.0 | 16.449 | 2 | 38.188 | 16.609 | 29.498 | 2 |
| 2025-09-20T11:34:00 | 58.020251 | 8.836120 | 2.0 | 16.454 | 2 | 38.204 | 16.612 | 29.510 | 2 |
| 2025-09-20T11:35:00 | 58.020655 | 8.835675 | 2.0 | 16.453 | 2 | 38.222 | 16.615 | 29.523 | 2 |
| 2025-09-20T11:36:00 | 58.021058 | 8.835241 | 2.0 | 16.447 | 2 | 38.242 | 16.612 | 29.542 | 2 |
| 2025-09-20T11:37:00 | 58.021482 | 8.834814 | 2.0 | 16.452 | 2 | 38.260 | 16.609 | 29.560 | 2 |
| 2025-09-20T11:38:00 | 58.021898 | 8.834404 | 2.0 | 16.456 | 2 | 38.280 | 16.612 | 29.575 | 2 |
| 2025-09-20T11:39:00 | 58.022306 | 8.833994 | 2.0 | 16.455 | 2 | 38.306 | 16.619 | 29.592 | 2 |
| 2025-09-20T11:40:00 | 58.022706 | 8.833530 | 2.0 | 16.443 | 2 | 38.324 | 16.612 | 29.613 | 2 |
| 2025-09-20T11:41:00 | 58.023108 | 8.833047 | 2.0 | 16.436 | 2 | 38.314 | 16.603 | 29.611 | 2 |
| 2025-09-20T11:42:00 | 58.023510 | 8.832557 | 2.0 | 16.430 | 2 | 38.306 | 16.597 | 29.609 | 2 |
| 2025-09-20T11:43:00 | 58.023900 | 8.832079 | 2.0 | 16.431 | 2 | 38.302 | 16.594 | 29.607 | 2 |
| 2025-09-20T11:44:00 | 58.024270 | 8.831594 | 2.0 | 16.430 | 2 | 38.299 | 16.592 | 29.606 | 2 |
| 2025-09-20T11:45:00 | 58.024587 | 8.831130 | 2.0 | 16.441 | 2 | 38.299 | 16.592 | 29.606 | 2 |
| 2025-09-20T11:46:00 | 58.024901 | 8.830723 | 2.0 | 16.446 | 2 | 38.305 | 16.604 | 29.603 | 2 |
| 2025-09-20T11:47:00 | 58.025231 | 8.830311 | 2.0 | 16.439 | 2 | 38.290 | 16.604 | 29.590 | 2 |
| 2025-09-20T11:48:00 | 58.025727 | 8.829715 | 2.0 | 16.436 | 2 | 38.279 | 16.598 | 29.585 | 2 |
| 2025-09-20T11:49:00 | 58.026435 | 8.828813 | 2.0 | 16.450 | 2 | 38.276 | 16.601 | 29.580 | 2 |
| 2025-09-20T11:50:00 | 58.027364 | 8.827635 | 2.0 | 16.452 | 2 | 38.262 | 16.612 | 29.560 | 2 |
| 2025-09-20T11:51:00 | 58.028472 | 8.826199 | 2.0 | 16.449 | 2 | 38.234 | 16.611 | 29.536 | 2 |
| 2025-09-20T11:52:00 | 58.029832 | 8.824389 | 2.0 | 16.447 | 2 | 38.211 | 16.609 | 29.518 | 2 |
| 2025-09-20T11:53:00 | 58.031507 | 8.822356 | 2.0 | 16.449 | 2 | 38.214 | 16.609 | 29.521 | 2 |
| 2025-09-20T11:54:00 | 58.033566 | 8.820093 | 2.0 | 16.457 | 2 | 38.229 | 16.612 | 29.531 | 2 |
| 2025-09-20T11:55:00 | 58.035785 | 8.817633 | 2.0 | 16.463 | 2 | 38.276 | 16.618 | 29.567 | 2 |
| 2025-09-20T11:56:00 | 58.038054 | 8.815165 | 2.0 | 16.468 | 2 | 38.337 | 16.626 | 29.614 | 2 |
| 2025-09-20T11:57:00 | 58.040351 | 8.812660 | 2.0 | 16.480 | 2 | 38.397 | 16.632 | 29.661 | 2 |
| 2025-09-20T11:58:00 | 58.042666 | 8.810164 | 2.0 | 16.482 | 2 | 38.456 | 16.647 | 29.700 | 2 |
| 2025-09-20T11:59:00 | 58.044948 | 8.807586 | 2.0 | 16.450 | 2 | 38.777 | 16.637 | 29.984 | 2 |
| 2025-09-20T12:00:00 | 58.047203 | 8.805004 | 2.0 | 16.449 | 2 | 38.827 | 16.611 | 30.046 | 2 |
| 2025-09-20T12:01:00 | 58.049461 | 8.802460 | 2.0 | 16.459 | 2 | 38.880 | 16.614 | 30.090 | 2 |
| 2025-09-20T12:02:00 | 58.051715 | 8.799921 | 2.0 | 16.477 | 2 | 38.979 | 16.626 | 30.166 | 2 |
| 2025-09-20T12:03:00 | 58.053959 | 8.797331 | 2.0 | 16.449 | 2 | 39.079 | 16.627 | 30.251 | 2 |
| 2025-09-20T12:04:00 | 58.056175 | 8.794743 | 2.0 | 16.447 | 2 | 39.092 | 16.613 | 30.273 | 2 |
| 2025-09-20T12:05:00 | 58.058393 | 8.792205 | 2.0 | 16.409 | 2 | 39.152 | 16.607 | 30.329 | 2 |
| 2025-09-20T12:06:00 | 58.060606 | 8.789667 | 2.0 | 16.425 | 2 | 39.178 | 16.580 | 30.372 | 2 |
| 2025-09-20T12:07:00 | 58.062841 | 8.787147 | 2.0 | 16.444 | 2 | 39.218 | 16.590 | 30.399 | 2 |
| 2025-09-20T12:08:00 | 58.065076 | 8.784628 | 2.0 | 16.454 | 2 | 39.293 | 16.607 | 30.451 | 2 |
| 2025-09-20T12:09:00 | 58.067303 | 8.782123 | 2.0 | 16.458 | 2 | 39.348 | 16.617 | 30.491 | 2 |
| 2025-09-20T12:10:00 | 58.069531 | 8.779636 | 2.0 | 16.463 | 2 | 39.374 | 16.620 | 30.511 | 2 |
| 2025-09-20T12:11:00 | 58.071776 | 8.777159 | 2.0 | 16.483 | 2 | 39.398 | 16.625 | 30.528 | 2 |
| 2025-09-20T12:12:00 | 58.073978 | 8.774550 | 2.0 | 16.490 | 2 | 39.317 | 16.650 | 30.439 | 2 |
| 2025-09-20T12:13:00 | 58.076171 | 8.771848 | 2.0 | 16.463 | 2 | 39.059 | 16.644 | 30.221 | 2 |
| 2025-09-20T12:14:00 | 58.078361 | 8.769119 | 2.0 | 16.462 | 2 | 38.960 | 16.626 | 30.150 | 2 |
| 2025-09-20T12:15:00 | 58.080570 | 8.766473 | 2.0 | 16.458 | 2 | 38.939 | 16.624 | 30.133 | 2 |
| 2025-09-20T12:16:00 | 58.082789 | 8.763834 | 2.0 | 16.460 | 2 | 39.004 | 16.621 | 30.191 | 2 |
| 2025-09-20T12:17:00 | 58.084991 | 8.761246 | 2.0 | 16.454 | 2 | 39.141 | 16.622 | 30.309 | 2 |
| 2025-09-20T12:18:00 | 58.086923 | 8.758972 | 2.0 | 16.460 | 2 | 39.225 | 16.620 | 30.382 | 2 |
| 2025-09-20T12:19:00 | 58.088501 | 8.757064 | 2.0 | 16.472 | 2 | 39.337 | 16.624 | 30.476 | 2 |
| 2025-09-20T12:20:00 | 58.089763 | 8.755472 | 2.0 | 16.485 | 2 | 39.413 | 16.634 | 30.534 | 2 |
| 2025-09-20T12:21:00 | 58.090810 | 8.754137 | 2.0 | 16.498 | 2 | 39.517 | 16.649 | 30.612 | 2 |
| 2025-09-20T12:22:00 | 58.091773 | 8.752753 | 2.0 | 16.501 | 2 | 39.641 | 16.656 | 30.714 | 2 |
| 2025-09-20T12:23:00 | 58.092987 | 8.751434 | 2.0 | 16.528 | 2 | 39.749 | 16.666 | 30.799 | 2 |
| 2025-09-20T12:24:00 | 58.094388 | 8.749958 | 2.0 | 16.513 | 2 | 39.911 | 16.687 | 30.923 | 2 |
| 2025-09-20T12:25:00 | 58.095878 | 8.748378 | 2.0 | 16.514 | 2 | 40.015 | 16.671 | 31.025 | 2 |
| 2025-09-20T12:26:00 | 58.097385 | 8.746743 | 2.0 | 16.495 | 2 | 40.088 | 16.672 | 31.087 | 2 |
| 2025-09-20T12:27:00 | 58.098892 | 8.745028 | 2.0 | 16.497 | 2 | 40.042 | 16.656 | 31.060 | 2 |
| 2025-09-20T12:28:00 | 58.100524 | 8.743106 | 2.0 | 16.470 | 2 | 40.054 | 16.663 | 31.065 | 2 |
| 2025-09-20T12:29:00 | 58.102506 | 8.740756 | 2.0 | 16.403 | 2 | 39.986 | 16.619 | 31.040 | 2 |
| 2025-09-20T12:30:00 | 58.104654 | 8.738296 | 2.0 | 16.397 | 2 | 39.878 | 16.564 | 30.989 | 2 |
| 2025-09-20T12:31:00 | 58.106829 | 8.735868 | 2.0 | 16.410 | 2 | 39.834 | 16.563 | 30.952 | 2 |
| 2025-09-20T12:32:00 | 58.109033 | 8.733406 | 2.0 | 16.422 | 2 | 39.845 | 16.574 | 30.953 | 2 |
| 2025-09-20T12:33:00 | 58.111288 | 8.730941 | 2.0 | 16.458 | 2 | 39.885 | 16.591 | 30.975 | 2 |
| 2025-09-20T12:34:00 | 58.113590 | 8.728426 | 2.0 | 16.479 | 2 | 39.984 | 16.623 | 31.036 | 2 |
| 2025-09-20T12:35:00 | 58.115970 | 8.725876 | 2.0 | 16.475 | 2 | 40.156 | 16.641 | 31.170 | 2 |
| 2025-09-20T12:36:00 | 58.118398 | 8.723298 | 2.0 | 16.511 | 2 | 40.310 | 16.644 | 31.301 | 2 |
| 2025-09-20T12:37:00 | 58.120843 | 8.720713 | 2.0 | 16.524 | 2 | 40.458 | 16.675 | 31.405 | 2 |
| 2025-09-20T12:38:00 | 58.123258 | 8.718090 | 2.0 | 16.469 | 2 | 40.973 | 16.672 | 31.853 | 2 |
| 2025-09-20T12:39:00 | 58.125596 | 8.715384 | 2.0 | 16.440 | 2 | 41.619 | 16.634 | 32.445 | 2 |
| 2025-09-20T12:40:00 | 58.127933 | 8.712772 | 2.0 | 16.466 | 2 | 41.716 | 16.608 | 32.551 | 2 |
| 2025-09-20T12:41:00 | 58.130297 | 8.710231 | 2.0 | 16.475 | 2 | 41.806 | 16.626 | 32.614 | 2 |
| 2025-09-20T12:42:00 | 58.132663 | 8.707690 | 2.0 | 16.447 | 2 | 41.906 | 16.635 | 32.694 | 2 |
| 2025-09-20T12:43:00 | 58.135018 | 8.705147 | 2.0 | 16.442 | 2 | 41.954 | 16.614 | 32.753 | 2 |
| 2025-09-20T12:44:00 | 58.137326 | 8.702540 | 2.0 | 16.509 | 2 | 41.977 | 16.612 | 32.775 | 2 |
| 2025-09-20T12:45:00 | 58.139545 | 8.699675 | 2.0 | 16.522 | 2 | 41.714 | 16.675 | 32.495 | 2 |
| 2025-09-20T12:46:00 | 58.141730 | 8.696796 | 2.0 | 16.499 | 2 | 41.424 | 16.678 | 32.240 | 2 |
| 2025-09-20T12:47:00 | 58.143892 | 8.693884 | 2.0 | 16.505 | 2 | 41.314 | 16.662 | 32.157 | 2 |
| 2025-09-20T12:48:00 | 58.146067 | 8.690964 | 2.0 | 16.494 | 2 | 41.299 | 16.665 | 32.142 | 2 |
| 2025-09-20T12:49:00 | 58.148244 | 8.688061 | 2.0 | 16.472 | 2 | 41.362 | 16.655 | 32.205 | 2 |
| 2025-09-20T12:50:00 | 58.150424 | 8.685177 | 2.0 | 16.474 | 2 | 41.423 | 16.637 | 32.272 | 2 |
| 2025-09-20T12:51:00 | 58.152614 | 8.682305 | 2.0 | 16.477 | 2 | 41.468 | 16.635 | 32.313 | 2 |
| 2025-09-20T12:52:00 | 58.154820 | 8.679453 | 2.0 | 16.475 | 2 | 41.534 | 16.641 | 32.365 | 2 |
| 2025-09-20T12:53:00 | 58.157061 | 8.676620 | 2.0 | 16.484 | 2 | 41.583 | 16.640 | 32.409 | 2 |
| 2025-09-20T12:54:00 | 58.159116 | 8.674009 | 2.0 | 16.481 | 2 | 41.622 | 16.647 | 32.437 | 2 |
| 2025-09-20T12:55:00 | 58.160823 | 8.671799 | 2.0 | 16.488 | 2 | 41.663 | 16.645 | 32.474 | 2 |
| 2025-09-20T12:56:00 | 58.162119 | 8.669857 | 2.0 | 16.490 | 2 | 41.690 | 16.651 | 32.493 | 2 |
| 2025-09-20T12:57:00 | 58.163106 | 8.668941 | 2.0 | 16.482 | 2 | 41.739 | 16.650 | 32.537 | 2 |
| 2025-09-20T12:58:00 | 58.163498 | 8.669938 | 2.0 | 16.483 | 2 | 41.778 | 16.643 | 32.576 | 2 |
| 2025-09-20T12:59:00 | 58.163232 | 8.671280 | 2.0 | 16.488 | 2 | 41.757 | 16.647 | 32.555 | 2 |
| 2025-09-20T13:00:00 | 58.162693 | 8.672110 | 2.0 | 16.494 | 2 | 41.709 | 16.651 | 32.510 | 2 |
| 2025-09-20T13:01:00 | 58.162227 | 8.672710 | 2.0 | 16.491 | 2 | 41.670 | 16.656 | 32.472 | 2 |
| 2025-09-20T13:02:00 | 58.161840 | 8.673177 | 2.0 | 16.489 | 2 | 41.656 | 16.652 | 32.463 | 2 |
| 2025-09-20T13:03:00 | 58.161526 | 8.673617 | 2.0 | 16.490 | 2 | 41.638 | 16.652 | 32.447 | 2 |
| 2025-09-20T13:04:00 | 58.161212 | 8.674000 | 2.0 | 16.489 | 2 | 41.624 | 16.652 | 32.435 | 2 |
| 2025-09-20T13:05:00 | 58.160909 | 8.674425 | 2.0 | 16.487 | 2 | 41.621 | 16.650 | 32.434 | 2 |
| 2025-09-20T13:06:00 | 58.160594 | 8.674861 | 2.0 | 16.486 | 2 | 41.618 | 16.648 | 32.433 | 2 |
| 2025-09-20T13:07:00 | 58.160268 | 8.675313 | 2.0 | 16.487 | 2 | 41.601 | 16.649 | 32.417 | 2 |
| 2025-09-20T13:08:00 | 58.159939 | 8.675773 | 2.0 | 16.485 | 2 | 41.588 | 16.649 | 32.406 | 2 |
| 2025-09-20T13:09:00 | 58.159616 | 8.676255 | 2.0 | 16.486 | 2 | 41.582 | 16.647 | 32.402 | 2 |
| 2025-09-20T13:10:00 | 58.159294 | 8.676720 | 2.0 | 16.489 | 2 | 41.575 | 16.649 | 32.395 | 2 |
| 2025-09-20T13:11:00 | 58.158977 | 8.677203 | 2.0 | 16.484 | 2 | 41.567 | 16.649 | 32.388 | 2 |
| 2025-09-20T13:12:00 | 58.158644 | 8.677658 | 2.0 | 16.484 | 2 | 41.547 | 16.646 | 32.373 | 2 |
| 2025-09-20T13:13:00 | 58.158309 | 8.678120 | 2.0 | 16.480 | 2 | 41.526 | 16.646 | 32.355 | 2 |
| 2025-09-20T13:14:00 | 58.157973 | 8.678618 | 2.0 | 16.471 | 2 | 41.515 | 16.640 | 32.350 | 2 |
| 2025-09-20T13:15:00 | 58.157652 | 8.679124 | 2.0 | 16.468 | 2 | 41.491 | 16.631 | 32.336 | 2 |
| 2025-09-20T13:16:00 | 58.157302 | 8.679583 | 2.0 | 16.471 | 2 | 41.476 | 16.630 | 32.324 | 2 |
| 2025-09-20T13:17:00 | 58.156972 | 8.680040 | 2.0 | 16.476 | 2 | 41.465 | 16.633 | 32.312 | 2 |
| 2025-09-20T13:18:00 | 58.156622 | 8.680461 | 2.0 | 16.468 | 2 | 41.446 | 16.636 | 32.293 | 2 |
| 2025-09-20T13:19:00 | 58.156280 | 8.680872 | 2.0 | 16.467 | 2 | 41.437 | 16.629 | 32.291 | 2 |
| 2025-09-20T13:20:00 | 58.155936 | 8.681245 | 2.0 | 16.477 | 2 | 41.410 | 16.629 | 32.267 | 2 |
| 2025-09-20T13:21:00 | 58.155574 | 8.681631 | 2.0 | 16.482 | 2 | 41.383 | 16.640 | 32.235 | 2 |
| 2025-09-20T13:22:00 | 58.155214 | 8.682071 | 2.0 | 16.491 | 2 | 41.360 | 16.646 | 32.210 | 2 |
| 2025-09-20T13:23:00 | 58.154845 | 8.682493 | 2.0 | 16.493 | 2 | 41.346 | 16.652 | 32.193 | 2 |
| 2025-09-20T13:24:00 | 58.154466 | 8.682910 | 2.0 | 16.490 | 2 | 41.321 | 16.653 | 32.171 | 2 |
| 2025-09-20T13:25:00 | 58.154085 | 8.683336 | 2.0 | 16.498 | 2 | 41.288 | 16.653 | 32.142 | 2 |
| 2025-09-20T13:26:00 | 58.153707 | 8.683765 | 2.0 | 16.497 | 2 | 41.261 | 16.659 | 32.114 | 2 |
| 2025-09-20T13:27:00 | 58.153333 | 8.684203 | 2.0 | 16.497 | 2 | 41.245 | 16.658 | 32.101 | 2 |
| 2025-09-20T13:28:00 | 58.152928 | 8.684646 | 2.0 | 16.496 | 2 | 41.251 | 16.656 | 32.107 | 2 |
| 2025-09-20T13:29:00 | 58.152502 | 8.685056 | 2.0 | 16.481 | 2 | 41.258 | 16.656 | 32.114 | 2 |
| 2025-09-20T13:30:00 | 58.152107 | 8.685505 | 2.0 | 16.480 | 2 | 41.269 | 16.645 | 32.132 | 2 |
| 2025-09-20T13:31:00 | 58.151675 | 8.685895 | 2.0 | 16.487 | 2 | 41.265 | 16.643 | 32.130 | 2 |
| 2025-09-20T13:32:00 | 58.151271 | 8.686342 | 2.0 | 16.484 | 2 | 41.256 | 16.648 | 32.118 | 2 |
| 2025-09-20T13:33:00 | 58.150866 | 8.686789 | 2.0 | 16.480 | 2 | 41.247 | 16.647 | 32.111 | 2 |
| 2025-09-20T13:34:00 | 58.150446 | 8.687219 | 2.0 | 16.478 | 2 | 41.237 | 16.642 | 32.107 | 2 |
| 2025-09-20T13:35:00 | 58.150030 | 8.687678 | 2.0 | 16.479 | 2 | 41.223 | 16.639 | 32.097 | 2 |
| 2025-09-20T13:36:00 | 58.149580 | 8.688129 | 2.0 | 16.475 | 2 | 41.188 | 16.640 | 32.066 | 2 |
| 2025-09-20T13:37:00 | 58.149119 | 8.688554 | 2.0 | 16.475 | 2 | 41.168 | 16.637 | 32.051 | 2 |
| 2025-09-20T13:38:00 | 58.148682 | 8.689005 | 2.0 | 16.476 | 2 | 41.158 | 16.637 | 32.042 | 2 |
| 2025-09-20T13:39:00 | 58.148227 | 8.689426 | 2.0 | 16.474 | 2 | 41.168 | 16.637 | 32.051 | 2 |
| 2025-09-20T13:40:00 | 58.147785 | 8.689879 | 2.0 | 16.476 | 2 | 41.152 | 16.637 | 32.037 | 2 |
| 2025-09-20T13:41:00 | 58.147335 | 8.690307 | 2.0 | 16.473 | 2 | 41.122 | 16.636 | 32.011 | 2 |
| 2025-09-20T13:42:00 | 58.146901 | 8.690732 | 2.0 | 16.475 | 2 | 41.095 | 16.635 | 31.989 | 2 |
| 2025-09-20T13:43:00 | 58.146453 | 8.691137 | 2.0 | 16.477 | 2 | 41.081 | 16.638 | 31.974 | 2 |
| 2025-09-20T13:44:00 | 58.146019 | 8.691562 | 2.0 | 16.480 | 2 | 41.063 | 16.639 | 31.958 | 2 |
| 2025-09-20T13:45:00 | 58.145581 | 8.692003 | 2.0 | 16.481 | 2 | 41.038 | 16.642 | 31.934 | 2 |
| 2025-09-20T13:46:00 | 58.145132 | 8.692449 | 2.0 | 16.482 | 2 | 41.017 | 16.643 | 31.915 | 2 |
| 2025-09-20T13:47:00 | 58.144689 | 8.692868 | 2.0 | 16.483 | 2 | 40.996 | 16.644 | 31.896 | 2 |
| 2025-09-20T13:48:00 | 58.144247 | 8.693295 | 2.0 | 16.484 | 2 | 40.980 | 16.645 | 31.881 | 2 |
| 2025-09-20T13:49:00 | 58.143799 | 8.693739 | 2.0 | 16.492 | 2 | 40.958 | 16.648 | 31.860 | 2 |
| 2025-09-20T13:50:00 | 58.143334 | 8.694159 | 2.0 | 16.488 | 2 | 40.939 | 16.652 | 31.840 | 2 |
| 2025-09-20T13:51:00 | 58.142882 | 8.694618 | 2.0 | 16.484 | 2 | 40.919 | 16.649 | 31.825 | 2 |
| 2025-09-20T13:52:00 | 58.142387 | 8.695052 | 2.0 | 16.478 | 2 | 40.903 | 16.644 | 31.815 | 2 |
| 2025-09-20T13:53:00 | 58.141897 | 8.695435 | 2.0 | 16.478 | 2 | 40.876 | 16.641 | 31.794 | 2 |
| 2025-09-20T13:54:00 | 58.141452 | 8.695840 | 2.0 | 16.477 | 2 | 40.889 | 16.639 | 31.807 | 2 |
| 2025-09-20T13:55:00 | 58.141026 | 8.696208 | 2.0 | 16.480 | 2 | 40.871 | 16.640 | 31.790 | 2 |
| 2025-09-20T13:56:00 | 58.140658 | 8.696596 | 2.0 | 16.482 | 2 | 40.875 | 16.641 | 31.793 | 2 |
| 2025-09-20T13:57:00 | 58.140289 | 8.696894 | 2.0 | 16.485 | 2 | 40.863 | 16.644 | 31.780 | 2 |
| 2025-09-20T13:58:00 | 58.139915 | 8.697208 | 2.0 | 16.489 | 2 | 40.848 | 16.648 | 31.764 | 2 |
| 2025-09-20T13:59:00 | 58.139538 | 8.697542 | 2.0 | 16.490 | 2 | 40.824 | 16.651 | 31.741 | 2 |
| 2025-09-20T14:00:00 | 58.139164 | 8.697872 | 2.0 | 16.494 | 2 | 40.805 | 16.652 | 31.724 | 2 |
| 2025-09-20T14:01:00 | 58.138774 | 8.698204 | 2.0 | 16.494 | 2 | 40.782 | 16.657 | 31.700 | 2 |
| 2025-09-20T14:02:00 | 58.138379 | 8.698526 | 2.0 | 16.492 | 2 | 40.760 | 16.655 | 31.682 | 2 |
| 2025-09-20T14:03:00 | 58.137979 | 8.698886 | 2.0 | 16.494 | 2 | 40.597 | 16.652 | 31.543 | 2 |
| 2025-09-20T14:04:00 | 58.137537 | 8.699296 | 2.0 | 16.505 | 2 | 40.511 | 16.657 | 31.465 | 2 |
| 2025-09-20T14:05:00 | 58.137064 | 8.699740 | 2.0 | 16.508 | 2 | 40.478 | 16.666 | 31.429 | 2 |
| 2025-09-20T14:06:00 | 58.136573 | 8.700221 | 2.0 | 16.507 | 2 | 40.408 | 16.669 | 31.366 | 2 |
| 2025-09-20T14:07:00 | 58.136096 | 8.700754 | 2.0 | 16.515 | 2 | 40.312 | 16.669 | 31.283 | 2 |
| 2025-09-20T14:08:00 | 58.135565 | 8.701233 | 2.0 | 16.517 | 2 | 40.324 | 16.676 | 31.288 | 2 |
| 2025-09-20T14:09:00 | 58.135028 | 8.701775 | 2.0 | 16.518 | 2 | 40.436 | 16.677 | 31.384 | 2 |
| 2025-09-20T14:10:00 | 58.134475 | 8.702327 | 2.0 | 16.509 | 2 | 40.072 | 16.676 | 31.071 | 2 |
| 2025-09-20T14:11:00 | 58.133916 | 8.702903 | 2.0 | 16.507 | 2 | 40.349 | 16.669 | 31.315 | 2 |
| 2025-09-20T14:12:00 | 58.133362 | 8.703467 | 2.0 | 16.502 | 2 | 40.195 | 16.667 | 31.184 | 2 |
| 2025-09-20T14:13:00 | 58.132825 | 8.704053 | 2.0 | 16.513 | 2 | 40.230 | 16.664 | 31.216 | 2 |
| 2025-09-20T14:14:00 | 58.132285 | 8.704630 | 2.0 | 16.484 | 2 | 40.155 | 16.673 | 31.145 | 2 |
| 2025-09-20T14:15:00 | 58.131720 | 8.705189 | 2.0 | 16.480 | 2 | 40.309 | 16.641 | 31.303 | 2 |
| 2025-09-20T14:16:00 | 58.131163 | 8.705787 | 2.0 | 16.470 | 2 | 40.350 | 16.644 | 31.336 | 2 |
| 2025-09-20T14:17:00 | 58.130596 | 8.706394 | 2.0 | 16.474 | 2 | 40.305 | 16.624 | 31.313 | 2 |
| 2025-09-20T14:18:00 | 58.130040 | 8.707034 | 2.0 | 16.486 | 2 | 40.164 | 16.638 | 31.180 | 2 |
| 2025-09-20T14:19:00 | 58.129470 | 8.707673 | 2.0 | 16.506 | 2 | 40.131 | 16.644 | 31.146 | 2 |
| 2025-09-20T14:20:00 | 58.128924 | 8.708361 | 2.0 | 16.520 | 2 | 40.156 | 16.667 | 31.150 | 2 |
| 2025-09-20T14:21:00 | 58.128366 | 8.709057 | 2.0 | 16.545 | 2 | 40.033 | 16.684 | 31.031 | 2 |
| 2025-09-20T14:22:00 | 58.127837 | 8.709808 | 2.0 | 16.542 | 2 | 40.022 | 16.703 | 31.006 | 2 |
| 2025-09-20T14:23:00 | 58.127303 | 8.710523 | 2.0 | 16.546 | 2 | 40.036 | 16.703 | 31.019 | 2 |
| 2025-09-20T14:24:00 | 58.126787 | 8.711248 | 2.0 | 16.553 | 2 | 40.052 | 16.708 | 31.028 | 2 |
| 2025-09-20T14:25:00 | 58.126277 | 8.711980 | 2.0 | 16.553 | 2 | 40.070 | 16.713 | 31.040 | 2 |
| 2025-09-20T14:26:00 | 58.125756 | 8.712706 | 2.0 | 16.557 | 2 | 40.109 | 16.714 | 31.073 | 2 |
| 2025-09-20T14:27:00 | 58.125205 | 8.713459 | 2.0 | 16.559 | 2 | 40.225 | 16.718 | 31.170 | 2 |
| 2025-09-20T14:28:00 | 58.124660 | 8.714274 | 2.0 | 16.548 | 2 | 40.353 | 16.718 | 31.281 | 2 |
| 2025-09-20T14:29:00 | 58.124138 | 8.715209 | 2.0 | 16.488 | 2 | 40.505 | 16.695 | 31.430 | 2 |
| 2025-09-20T14:30:00 | 58.123638 | 8.716235 | 2.0 | 16.480 | 2 | 40.458 | 16.650 | 31.425 | 2 |
| 2025-09-20T14:31:00 | 58.123148 | 8.717323 | 2.0 | 16.475 | 2 | 40.355 | 16.642 | 31.342 | 2 |
| 2025-09-20T14:32:00 | 58.122643 | 8.718368 | 2.0 | 16.471 | 2 | 40.210 | 16.636 | 31.221 | 2 |
| 2025-09-20T14:33:00 | 58.122131 | 8.719252 | 2.0 | 16.468 | 2 | 40.179 | 16.633 | 31.196 | 2 |
| 2025-09-20T14:34:00 | 58.121646 | 8.720061 | 2.0 | 16.464 | 2 | 40.164 | 16.629 | 31.187 | 2 |
| 2025-09-20T14:35:00 | 58.121138 | 8.720803 | 2.0 | 16.461 | 2 | 40.112 | 16.626 | 31.144 | 2 |
| 2025-09-20T14:36:00 | 58.120622 | 8.721498 | 2.0 | 16.459 | 2 | 40.122 | 16.623 | 31.155 | 2 |
| 2025-09-20T14:37:00 | 58.120092 | 8.722169 | 2.0 | 16.457 | 2 | 40.111 | 16.621 | 31.147 | 2 |
| 2025-09-20T14:38:00 | 58.119562 | 8.722876 | 2.0 | 16.454 | 2 | 40.099 | 16.619 | 31.138 | 2 |
| 2025-09-20T14:39:00 | 58.119024 | 8.723573 | 2.0 | 16.454 | 2 | 40.106 | 16.616 | 31.146 | 2 |
| 2025-09-20T14:40:00 | 58.118498 | 8.724236 | 2.0 | 16.452 | 2 | 40.057 | 16.615 | 31.105 | 2 |
| 2025-09-20T14:41:00 | 58.117971 | 8.724893 | 2.0 | 16.450 | 2 | 40.075 | 16.613 | 31.122 | 2 |
| 2025-09-20T14:42:00 | 58.117451 | 8.725546 | 2.0 | 16.448 | 2 | 40.110 | 16.612 | 31.153 | 2 |
| 2025-09-20T14:43:00 | 58.116953 | 8.726190 | 2.0 | 16.448 | 2 | 40.082 | 16.610 | 31.130 | 2 |
| 2025-09-20T14:44:00 | 58.116476 | 8.726850 | 2.0 | 16.447 | 2 | 40.002 | 16.609 | 31.062 | 2 |
| 2025-09-20T14:45:00 | 58.115969 | 8.727452 | 2.0 | 16.444 | 2 | 39.958 | 16.608 | 31.025 | 2 |
| 2025-09-20T14:46:00 | 58.115450 | 8.728041 | 2.0 | 16.445 | 2 | 40.025 | 16.606 | 31.084 | 2 |
| 2025-09-20T14:47:00 | 58.114932 | 8.728675 | 2.0 | 16.445 | 2 | 39.909 | 16.607 | 30.983 | 2 |
| 2025-09-20T14:48:00 | 58.114421 | 8.729299 | 2.0 | 16.445 | 2 | 39.853 | 16.607 | 30.935 | 2 |
| 2025-09-20T14:49:00 | 58.113898 | 8.729902 | 2.0 | 16.442 | 2 | 39.909 | 16.605 | 30.985 | 2 |
| 2025-09-20T14:50:00 | 58.113352 | 8.730485 | 2.0 | 16.446 | 2 | 39.968 | 16.604 | 31.036 | 2 |
| 2025-09-20T14:51:00 | 58.112775 | 8.731090 | 2.0 | 16.444 | 2 | 39.876 | 16.607 | 30.955 | 2 |
| 2025-09-20T14:52:00 | 58.112196 | 8.731730 | 2.0 | 16.443 | 2 | 39.905 | 16.605 | 30.981 | 2 |
| 2025-09-20T14:53:00 | 58.111591 | 8.732324 | 2.0 | 16.439 | 2 | 39.917 | 16.604 | 30.992 | 2 |
| 2025-09-20T14:54:00 | 58.110974 | 8.732952 | 2.0 | 16.439 | 2 | 39.969 | 16.600 | 31.040 | 2 |
| 2025-09-20T14:55:00 | 58.110356 | 8.733588 | 2.0 | 16.448 | 2 | 39.941 | 16.602 | 31.015 | 2 |
| 2025-09-20T14:56:00 | 58.109751 | 8.734262 | 2.0 | 16.449 | 2 | 39.727 | 16.608 | 30.825 | 2 |
| 2025-09-20T14:57:00 | 58.109158 | 8.734917 | 2.0 | 16.451 | 2 | 39.706 | 16.611 | 30.804 | 2 |
| 2025-09-20T14:58:00 | 58.108581 | 8.735588 | 2.0 | 16.448 | 2 | 39.647 | 16.611 | 30.754 | 2 |
| 2025-09-20T14:59:00 | 58.107996 | 8.736260 | 2.0 | 16.449 | 2 | 39.611 | 16.609 | 30.724 | 2 |
| 2025-09-20T15:00:00 | 58.107411 | 8.736945 | 2.0 | 16.451 | 2 | 39.543 | 16.610 | 30.664 | 2 |
| 2025-09-20T15:01:00 | 58.106836 | 8.737656 | 2.0 | 16.453 | 2 | 39.499 | 16.613 | 30.624 | 2 |
| 2025-09-20T15:02:00 | 58.106246 | 8.738342 | 2.0 | 16.456 | 2 | 39.456 | 16.615 | 30.586 | 2 |
| 2025-09-20T15:03:00 | 58.105635 | 8.739039 | 2.0 | 16.452 | 2 | 39.407 | 16.617 | 30.542 | 2 |
| 2025-09-20T15:04:00 | 58.105029 | 8.739759 | 2.0 | 16.452 | 2 | 39.376 | 16.614 | 30.517 | 2 |
| 2025-09-20T15:05:00 | 58.104413 | 8.740466 | 2.0 | 16.452 | 2 | 39.335 | 16.613 | 30.483 | 2 |
| 2025-09-20T15:06:00 | 58.103800 | 8.741161 | 2.0 | 16.452 | 2 | 39.271 | 16.614 | 30.427 | 2 |
| 2025-09-20T15:07:00 | 58.103178 | 8.741848 | 2.0 | 16.452 | 2 | 39.227 | 16.613 | 30.389 | 2 |
| 2025-09-20T15:08:00 | 58.102551 | 8.742534 | 2.0 | 16.446 | 2 | 39.193 | 16.613 | 30.360 | 2 |
| 2025-09-20T15:09:00 | 58.101919 | 8.743235 | 2.0 | 16.451 | 2 | 39.189 | 16.609 | 30.360 | 2 |
| 2025-09-20T15:10:00 | 58.101293 | 8.743938 | 2.0 | 16.452 | 2 | 39.151 | 16.612 | 30.325 | 2 |
| 2025-09-20T15:11:00 | 58.100651 | 8.744584 | 2.0 | 16.450 | 2 | 39.146 | 16.614 | 30.319 | 2 |
| 2025-09-20T15:12:00 | 58.100010 | 8.745203 | 2.0 | 16.451 | 2 | 39.162 | 16.613 | 30.333 | 2 |
| 2025-09-20T15:13:00 | 58.099472 | 8.745755 | 2.0 | 16.445 | 2 | 39.147 | 16.611 | 30.322 | 2 |
| 2025-09-20T15:14:00 | 58.099025 | 8.746150 | 2.0 | 16.445 | 2 | 39.156 | 16.608 | 30.332 | 2 |
| 2025-09-20T15:15:00 | 58.098598 | 8.746593 | 2.0 | 16.449 | 2 | 39.146 | 16.606 | 30.325 | 2 |
| 2025-09-20T15:16:00 | 58.097634 | 8.747529 | 2.0 | 16.449 | 2 | 39.125 | 16.609 | 30.305 | 2 |
| 2025-09-20T15:17:00 | 58.095618 | 8.749151 | 2.0 | 16.461 | 2 | 39.114 | 16.615 | 30.291 | 2 |
| 2025-09-20T15:18:00 | 58.093206 | 8.751316 | 2.0 | 16.450 | 2 | 39.096 | 16.621 | 30.270 | 2 |
| 2025-09-20T15:19:00 | 58.090722 | 8.753793 | 2.0 | 16.440 | 2 | 39.023 | 16.612 | 30.214 | 2 |
| 2025-09-20T15:20:00 | 58.088213 | 8.756375 | 2.0 | 16.441 | 2 | 38.945 | 16.604 | 30.153 | 2 |
| 2025-09-20T15:21:00 | 58.085687 | 8.758993 | 2.0 | 16.462 | 2 | 38.892 | 16.609 | 30.104 | 2 |
| 2025-09-20T15:22:00 | 58.083162 | 8.761575 | 2.0 | 16.457 | 2 | 38.927 | 16.623 | 30.123 | 2 |
| 2025-09-20T15:23:00 | 58.080610 | 8.764136 | 2.0 | 16.478 | 2 | 39.041 | 16.624 | 30.221 | 2 |
| 2025-09-20T15:24:00 | 58.078081 | 8.766818 | 2.0 | 16.481 | 2 | 39.185 | 16.642 | 30.331 | 2 |
| 2025-09-20T15:25:00 | 58.075508 | 8.769407 | 2.0 | 16.479 | 2 | 39.134 | 16.643 | 30.287 | 2 |
| 2025-09-20T15:26:00 | 58.072939 | 8.771978 | 2.0 | 16.480 | 2 | 39.032 | 16.644 | 30.198 | 2 |
| 2025-09-20T15:27:00 | 58.070380 | 8.774538 | 2.0 | 16.481 | 2 | 38.931 | 16.645 | 30.110 | 2 |
| 2025-09-20T15:28:00 | 58.067810 | 8.777059 | 2.0 | 16.467 | 2 | 38.817 | 16.640 | 30.016 | 2 |
| 2025-09-20T15:29:00 | 58.065268 | 8.779605 | 2.0 | 16.478 | 2 | 38.767 | 16.633 | 29.978 | 2 |
| 2025-09-20T15:30:00 | 58.062741 | 8.782150 | 2.0 | 16.479 | 2 | 38.702 | 16.642 | 29.916 | 2 |
| 2025-09-20T15:31:00 | 58.060198 | 8.784627 | 2.0 | 16.490 | 2 | 38.657 | 16.645 | 29.875 | 2 |
| 2025-09-20T15:32:00 | 58.057660 | 8.787196 | 2.0 | 16.499 | 2 | 38.629 | 16.655 | 29.843 | 2 |
| 2025-09-20T15:33:00 | 58.055131 | 8.789778 | 2.0 | 16.505 | 2 | 38.654 | 16.664 | 29.858 | 2 |
| 2025-09-20T15:34:00 | 58.052588 | 8.792304 | 2.0 | 16.531 | 2 | 38.737 | 16.667 | 29.927 | 2 |
| 2025-09-20T15:35:00 | 58.050054 | 8.794917 | 2.0 | 16.562 | 2 | 38.930 | 16.708 | 30.062 | 2 |
| 2025-09-20T15:36:00 | 58.047499 | 8.797611 | 2.0 | 16.501 | 2 | 39.002 | 16.713 | 30.120 | 2 |
| 2025-09-20T15:37:00 | 58.044914 | 8.800140 | 2.0 | 16.468 | 2 | 39.291 | 16.661 | 30.408 | 2 |
| 2025-09-20T15:38:00 | 58.042362 | 8.802636 | 2.0 | 16.451 | 2 | 39.193 | 16.629 | 30.348 | 2 |
| 2025-09-20T15:39:00 | 58.039821 | 8.805143 | 2.0 | 16.452 | 2 | 39.133 | 16.619 | 30.304 | 2 |
| 2025-09-20T15:40:00 | 58.037256 | 8.807679 | 2.0 | 16.452 | 2 | 39.075 | 16.615 | 30.257 | 2 |
| 2025-09-20T15:41:00 | 58.034695 | 8.810284 | 2.0 | 16.475 | 2 | 39.020 | 16.624 | 30.203 | 2 |
| 2025-09-20T15:42:00 | 58.032132 | 8.812923 | 2.0 | 16.471 | 2 | 38.958 | 16.637 | 30.140 | 2 |
| 2025-09-20T15:43:00 | 58.029563 | 8.815502 | 2.0 | 16.483 | 2 | 38.900 | 16.637 | 30.090 | 2 |
| 2025-09-20T15:44:00 | 58.026979 | 8.818109 | 2.0 | 16.480 | 2 | 38.789 | 16.646 | 29.987 | 2 |
| 2025-09-20T15:45:00 | 58.024376 | 8.820668 | 2.0 | 16.476 | 2 | 38.571 | 16.644 | 29.801 | 2 |
| 2025-09-20T15:46:00 | 58.021785 | 8.823243 | 2.0 | 16.467 | 2 | 38.423 | 16.637 | 29.680 | 2 |
| 2025-09-20T15:47:00 | 58.019178 | 8.825855 | 2.0 | 16.458 | 2 | 38.391 | 16.630 | 29.657 | 2 |
| 2025-09-20T15:48:00 | 58.016591 | 8.828465 | 2.0 | 16.443 | 2 | 38.215 | 16.619 | 29.514 | 2 |
| 2025-09-20T15:49:00 | 58.014068 | 8.830941 | 2.0 | 16.434 | 2 | 38.177 | 16.608 | 29.490 | 2 |
| 2025-09-20T15:50:00 | 58.012006 | 8.832089 | 2.0 | 16.434 | 2 | 38.224 | 16.601 | 29.535 | 2 |
| 2025-09-20T15:51:00 | 58.010517 | 8.832417 | 2.0 | 16.449 | 2 | 38.145 | 16.609 | 29.461 | 2 |
| 2025-09-20T15:52:00 | 58.009403 | 8.833115 | 2.0 | 16.461 | 2 | 38.176 | 16.626 | 29.476 | 2 |
| 2025-09-20T15:53:00 | 58.008759 | 8.833257 | 2.0 | 16.455 | 2 | 38.210 | 16.634 | 29.499 | 2 |
| 2025-09-20T15:54:00 | 58.008506 | 8.833140 | 2.0 | 16.454 | 2 | 38.199 | 16.632 | 29.491 | 2 |
| 2025-09-20T15:55:00 | 58.008415 | 8.832808 | 2.0 | 16.455 | 2 | 38.212 | 16.633 | 29.501 | 2 |
| 2025-09-20T15:56:00 | 58.008310 | 8.832401 | 2.0 | 16.458 | 2 | 38.208 | 16.635 | 29.496 | 2 |
| 2025-09-20T15:57:00 | 58.008208 | 8.832184 | 2.0 | 16.458 | 2 | 38.224 | 16.638 | 29.508 | 2 |
| 2025-09-20T15:58:00 | 58.008172 | 8.831942 | 2.0 | 16.460 | 2 | 38.225 | 16.638 | 29.509 | 2 |
| 2025-09-20T15:59:00 | 58.008155 | 8.831855 | 2.0 | 16.460 | 2 | 38.223 | 16.640 | 29.506 | 2 |
| 2025-09-20T16:00:00 | 58.008161 | 8.832007 | 2.0 | 16.459 | 2 | 38.224 | 16.642 | 29.505 | 2 |
| 2025-09-20T16:01:00 | 58.008199 | 8.832258 | 2.0 | 16.458 | 2 | 38.244 | 16.641 | 29.523 | 2 |
| 2025-09-20T16:02:00 | 58.008397 | 8.832304 | 2.0 | 16.454 | 2 | 38.250 | 16.639 | 29.529 | 2 |
| 2025-09-20T16:03:00 | 58.008493 | 8.833057 | 2.0 | 16.458 | 2 | 38.263 | 16.637 | 29.542 | 2 |
| 2025-09-20T16:04:00 | 58.007653 | 8.833743 | 2.0 | 16.455 | 2 | 38.258 | 16.640 | 29.536 | 2 |
| 2025-09-20T16:05:00 | 58.005838 | 8.834408 | 2.0 | 16.467 | 2 | 38.270 | 16.638 | 29.547 | 2 |
| 2025-09-20T16:06:00 | 58.003692 | 8.835043 | 2.0 | 16.467 | 2 | 38.278 | 16.654 | 29.542 | 2 |
| 2025-09-20T16:07:00 | 58.001849 | 8.835634 | 2.0 | 16.462 | 2 | 38.240 | 16.652 | 29.511 | 2 |
| 2025-09-20T16:08:00 | 58.000345 | 8.836155 | 2.0 | 16.453 | 2 | 38.202 | 16.647 | 29.482 | 2 |
| 2025-09-20T16:09:00 | 57.999184 | 8.836745 | 2.0 | 16.444 | 2 | 38.162 | 16.638 | 29.455 | 2 |
| 2025-09-20T16:10:00 | 57.998310 | 8.837132 | 2.0 | 16.438 | 2 | 38.138 | 16.629 | 29.441 | 2 |
| 2025-09-20T16:11:00 | 57.997872 | 8.837034 | 2.0 | 16.437 | 2 | 38.137 | 16.623 | 29.444 | 2 |
| 2025-09-20T16:12:00 | 57.997654 | 8.836592 | 2.0 | 16.436 | 2 | 38.138 | 16.623 | 29.445 | 2 |
| 2025-09-20T16:13:00 | 57.997531 | 8.835986 | 2.0 | 16.436 | 2 | 38.134 | 16.621 | 29.443 | 2 |
| 2025-09-20T16:14:00 | 57.997443 | 8.835324 | 2.0 | 16.439 | 2 | 38.133 | 16.623 | 29.441 | 2 |
| 2025-09-20T16:15:00 | 57.997357 | 8.834639 | 2.0 | 16.441 | 2 | 38.131 | 16.625 | 29.438 | 2 |
| 2025-09-20T16:16:00 | 57.997327 | 8.834131 | 2.0 | 16.441 | 2 | 38.124 | 16.626 | 29.431 | 2 |
| 2025-09-20T16:17:00 | 57.997285 | 8.834063 | 2.0 | 16.440 | 2 | 38.136 | 16.626 | 29.441 | 2 |
| 2025-09-20T16:18:00 | 57.997230 | 8.834322 | 2.0 | 16.436 | 2 | 38.160 | 16.623 | 29.464 | 2 |
| 2025-09-20T16:19:00 | 57.997184 | 8.834762 | 2.0 | 16.439 | 2 | 38.159 | 16.624 | 29.462 | 2 |
| 2025-09-20T16:20:00 | 57.997140 | 8.835311 | 2.0 | 16.441 | 2 | 38.152 | 16.627 | 29.454 | 2 |
| 2025-09-20T16:21:00 | 57.997160 | 8.835613 | 2.0 | 16.441 | 2 | 38.147 | 16.628 | 29.449 | 2 |
| 2025-09-20T16:22:00 | 57.997154 | 8.835736 | 2.0 | 16.443 | 2 | 38.146 | 16.629 | 29.448 | 2 |
| 2025-09-20T16:23:00 | 57.997099 | 8.835770 | 2.0 | 16.443 | 2 | 38.144 | 16.631 | 29.444 | 2 |
| 2025-09-20T16:24:00 | 57.997028 | 8.835714 | 2.0 | 16.444 | 2 | 38.144 | 16.632 | 29.444 | 2 |
| 2025-09-20T16:25:00 | 57.996924 | 8.835549 | 2.0 | 16.445 | 2 | 38.159 | 16.632 | 29.457 | 2 |
| 2025-09-20T16:26:00 | 57.996984 | 8.835181 | 2.0 | 16.447 | 2 | 38.162 | 16.632 | 29.459 | 2 |
| 2025-09-20T16:27:00 | 57.997148 | 8.836116 | 2.0 | 16.449 | 2 | 38.173 | 16.635 | 29.466 | 2 |
| 2025-09-20T16:28:00 | 57.997303 | 8.838676 | 2.0 | 16.450 | 2 | 38.176 | 16.638 | 29.467 | 2 |
| 2025-09-20T16:29:00 | 57.997664 | 8.842195 | 2.0 | 16.451 | 2 | 38.182 | 16.640 | 29.470 | 2 |
| 2025-09-20T16:30:00 | 57.998011 | 8.846246 | 2.0 | 16.448 | 2 | 38.189 | 16.640 | 29.476 | 2 |
| 2025-09-20T16:31:00 | 57.998309 | 8.851070 | 2.0 | 16.446 | 2 | 38.200 | 16.638 | 29.487 | 2 |
| 2025-09-20T16:32:00 | 57.998637 | 8.856360 | 2.0 | 16.444 | 2 | 38.212 | 16.636 | 29.499 | 2 |
| 2025-09-20T16:33:00 | 57.998976 | 8.861757 | 2.0 | 16.437 | 2 | 38.211 | 16.634 | 29.500 | 2 |
| 2025-09-20T16:34:00 | 57.999330 | 8.867206 | 2.0 | 16.435 | 2 | 38.211 | 16.629 | 29.503 | 2 |
| 2025-09-20T16:35:00 | 57.999762 | 8.872628 | 2.0 | 16.432 | 2 | 38.210 | 16.627 | 29.504 | 2 |
| 2025-09-20T16:36:00 | 58.000217 | 8.878053 | 2.0 | 16.430 | 2 | 38.222 | 16.624 | 29.516 | 2 |
| 2025-09-20T16:37:00 | 58.000671 | 8.883461 | 2.0 | 16.426 | 2 | 38.222 | 16.622 | 29.518 | 2 |
| 2025-09-20T16:38:00 | 58.001102 | 8.888848 | 2.0 | 16.420 | 2 | 38.226 | 16.617 | 29.525 | 2 |
| 2025-09-20T16:39:00 | 58.001529 | 8.893967 | 2.0 | 16.419 | 2 | 38.222 | 16.614 | 29.524 | 2 |
| 2025-09-20T16:40:00 | 58.001832 | 8.897857 | 2.0 | 16.419 | 2 | 38.221 | 16.611 | 29.525 | 2 |
| 2025-09-20T16:41:00 | 58.001977 | 8.900984 | 2.0 | 16.421 | 2 | 38.227 | 16.610 | 29.531 | 2 |
| 2025-09-20T16:42:00 | 58.002250 | 8.903445 | 2.0 | 16.421 | 2 | 38.229 | 16.610 | 29.533 | 2 |
| 2025-09-20T16:43:00 | 58.002698 | 8.904566 | 2.0 | 16.419 | 2 | 38.234 | 16.610 | 29.537 | 2 |
| 2025-09-20T16:44:00 | 58.002840 | 8.905130 | 2.0 | 16.418 | 2 | 38.238 | 16.611 | 29.540 | 2 |
| 2025-09-20T16:45:00 | 58.002956 | 8.905477 | 2.0 | 16.416 | 2 | 38.242 | 16.608 | 29.545 | 2 |
| 2025-09-20T16:46:00 | 58.003083 | 8.905781 | 2.0 | 16.416 | 2 | 38.242 | 16.608 | 29.545 | 2 |
| 2025-09-20T16:47:00 | 58.003119 | 8.905929 | 2.0 | 16.411 | 2 | 38.272 | 16.607 | 29.572 | 2 |
| 2025-09-20T16:48:00 | 58.003060 | 8.906246 | 2.0 | 16.413 | 2 | 38.263 | 16.608 | 29.563 | 2 |
| 2025-09-20T16:49:00 | 58.002905 | 8.906643 | 2.0 | 16.402 | 2 | 38.281 | 16.602 | 29.583 | 2 |
| 2025-09-20T16:50:00 | 58.002546 | 8.906894 | 2.0 | 16.413 | 2 | 38.313 | 16.598 | 29.614 | 2 |
| 2025-09-20T16:51:00 | 58.002210 | 8.907144 | 2.0 | 16.420 | 2 | 38.209 | 16.611 | 29.515 | 2 |
| 2025-09-20T16:52:00 | 58.002006 | 8.907198 | 2.0 | 16.419 | 2 | 38.229 | 16.616 | 29.528 | 2 |
| 2025-09-20T16:53:00 | 58.002004 | 8.906942 | 2.0 | 16.414 | 2 | 38.180 | 16.616 | 29.486 | 2 |
| 2025-09-20T16:54:00 | 58.002047 | 8.906634 | 2.0 | 16.412 | 2 | 38.225 | 16.611 | 29.529 | 2 |
| 2025-09-20T16:55:00 | 58.002108 | 8.906391 | 2.0 | 16.405 | 2 | 38.199 | 16.609 | 29.508 | 2 |
| 2025-09-20T16:56:00 | 58.002140 | 8.906035 | 2.0 | 16.413 | 2 | 38.265 | 16.604 | 29.568 | 2 |
| 2025-09-20T16:57:00 | 58.002303 | 8.904410 | 2.0 | 16.412 | 2 | 38.212 | 16.611 | 29.517 | 2 |
| 2025-09-20T16:58:00 | 58.002335 | 8.901869 | 2.0 | 16.410 | 2 | 38.204 | 16.610 | 29.511 | 2 |
| 2025-09-20T16:59:00 | 58.002158 | 8.899010 | 2.0 | 16.417 | 2 | 38.207 | 16.611 | 29.513 | 2 |
| 2025-09-20T17:00:00 | 58.001963 | 8.896730 | 2.0 | 16.422 | 2 | 38.240 | 16.617 | 29.537 | 2 |
| 2025-09-20T17:01:00 | 58.001887 | 8.895127 | 2.0 | 16.428 | 2 | 38.247 | 16.621 | 29.540 | 2 |
| 2025-09-20T17:02:00 | 58.001875 | 8.893900 | 2.0 | 16.432 | 2 | 38.275 | 16.627 | 29.560 | 2 |
| 2025-09-20T17:03:00 | 58.001813 | 8.893044 | 2.0 | 16.434 | 2 | 38.290 | 16.630 | 29.570 | 2 |
| 2025-09-20T17:04:00 | 58.001742 | 8.892878 | 2.0 | 16.434 | 2 | 38.293 | 16.631 | 29.572 | 2 |
| 2025-09-20T17:05:00 | 58.001661 | 8.893106 | 2.0 | 16.434 | 2 | 38.283 | 16.631 | 29.564 | 2 |
| 2025-09-20T17:06:00 | 58.001357 | 8.892983 | 2.0 | 16.428 | 2 | 38.307 | 16.631 | 29.584 | 2 |
| 2025-09-20T17:07:00 | 58.001283 | 8.892476 | 2.0 | 16.434 | 2 | 38.330 | 16.624 | 29.609 | 2 |
| 2025-09-20T17:08:00 | 58.001354 | 8.891798 | 2.0 | 16.436 | 2 | 38.308 | 16.632 | 29.584 | 2 |
| 2025-09-20T17:09:00 | 58.001475 | 8.890967 | 2.0 | 16.437 | 2 | 38.244 | 16.636 | 29.527 | 2 |
| 2025-09-20T17:10:00 | 58.001611 | 8.890634 | 2.0 | 16.437 | 2 | 38.294 | 16.638 | 29.568 | 2 |
| 2025-09-20T17:11:00 | 58.001603 | 8.891019 | 2.0 | 16.436 | 2 | 38.121 | 16.637 | 29.420 | 2 |
| 2025-09-20T17:12:00 | 58.001617 | 8.891431 | 2.0 | 16.436 | 2 | 38.128 | 16.636 | 29.427 | 2 |
| 2025-09-20T17:13:00 | 58.001933 | 8.891726 | 2.0 | 16.436 | 2 | 38.046 | 16.636 | 29.357 | 2 |
| 2025-09-20T17:14:00 | 58.002446 | 8.892447 | 2.0 | 16.434 | 2 | 38.235 | 16.637 | 29.518 | 2 |
| 2025-09-20T17:15:00 | 58.002986 | 8.892808 | 2.0 | 16.431 | 2 | 38.313 | 16.635 | 29.587 | 2 |
| 2025-09-20T17:16:00 | 58.003312 | 8.893557 | 2.0 | 16.431 | 2 | 38.392 | 16.632 | 29.657 | 2 |
| 2025-09-20T17:17:00 | 58.003257 | 8.894666 | 2.0 | 16.430 | 2 | 38.328 | 16.632 | 29.602 | 2 |
| 2025-09-20T17:18:00 | 58.002960 | 8.895893 | 2.0 | 16.433 | 2 | 38.393 | 16.632 | 29.657 | 2 |
| 2025-09-20T17:19:00 | 58.002548 | 8.896780 | 2.0 | 16.434 | 2 | 38.237 | 16.633 | 29.523 | 2 |
| 2025-09-20T17:20:00 | 58.002229 | 8.897253 | 2.0 | 16.435 | 2 | 38.252 | 16.634 | 29.535 | 2 |
| 2025-09-20T17:21:00 | 58.001912 | 8.897184 | 2.0 | 16.435 | 2 | 38.216 | 16.635 | 29.503 | 2 |
| 2025-09-20T17:22:00 | 58.001679 | 8.896809 | 2.0 | 16.434 | 2 | 38.227 | 16.636 | 29.512 | 2 |
| 2025-09-20T17:23:00 | 58.001639 | 8.896523 | 2.0 | 16.433 | 2 | 38.235 | 16.635 | 29.520 | 2 |
| 2025-09-20T17:24:00 | 58.001633 | 8.896145 | 2.0 | 16.433 | 2 | 38.208 | 16.633 | 29.498 | 2 |
| 2025-09-20T17:25:00 | 58.001549 | 8.895589 | 2.0 | 16.433 | 2 | 38.303 | 16.635 | 29.578 | 2 |
| 2025-09-20T17:26:00 | 58.001376 | 8.894619 | 2.0 | 16.432 | 2 | 38.259 | 16.632 | 29.542 | 2 |
| 2025-09-20T17:27:00 | 58.001184 | 8.892399 | 2.0 | 16.429 | 2 | 38.268 | 16.633 | 29.549 | 2 |
| 2025-09-20T17:28:00 | 58.001117 | 8.889340 | 2.0 | 16.432 | 2 | 38.270 | 16.631 | 29.553 | 2 |
| 2025-09-20T17:29:00 | 58.001105 | 8.885926 | 2.0 | 16.435 | 2 | 38.293 | 16.635 | 29.569 | 2 |
| 2025-09-20T17:30:00 | 58.001093 | 8.882106 | 2.0 | 16.430 | 2 | 38.294 | 16.637 | 29.569 | 2 |
| 2025-09-20T17:31:00 | 58.001148 | 8.879166 | 2.0 | 16.427 | 2 | 38.311 | 16.632 | 29.587 | 2 |
| 2025-09-20T17:32:00 | 58.001283 | 8.876979 | 2.0 | 16.427 | 2 | 38.320 | 16.630 | 29.596 | 2 |
| 2025-09-20T17:33:00 | 58.001270 | 8.875475 | 2.0 | 16.426 | 2 | 38.292 | 16.628 | 29.574 | 2 |
| 2025-09-20T17:34:00 | 58.001298 | 8.874350 | 2.0 | 16.425 | 2 | 38.301 | 16.627 | 29.582 | 2 |
| 2025-09-20T17:35:00 | 58.001295 | 8.873600 | 2.0 | 16.425 | 2 | 38.290 | 16.625 | 29.574 | 2 |
| 2025-09-20T17:36:00 | 58.001167 | 8.873400 | 2.0 | 16.427 | 2 | 38.288 | 16.627 | 29.571 | 2 |
| 2025-09-20T17:37:00 | 58.000817 | 8.873769 | 2.0 | 16.425 | 2 | 38.306 | 16.627 | 29.586 | 2 |
| 2025-09-20T17:38:00 | 58.000322 | 8.873937 | 2.0 | 16.424 | 2 | 38.294 | 16.624 | 29.578 | 2 |
| 2025-09-20T17:39:00 | 58.000017 | 8.873944 | 2.0 | 16.425 | 2 | 38.341 | 16.625 | 29.618 | 2 |
| 2025-09-20T17:40:00 | 57.999817 | 8.873780 | 2.0 | 16.425 | 2 | 38.316 | 16.624 | 29.597 | 2 |
| 2025-09-20T17:41:00 | 57.999676 | 8.873413 | 2.0 | 16.424 | 2 | 38.340 | 16.625 | 29.617 | 2 |
| 2025-09-20T17:42:00 | 57.999694 | 8.872937 | 2.0 | 16.424 | 2 | 38.350 | 16.624 | 29.626 | 2 |
| 2025-09-20T17:43:00 | 57.999864 | 8.872857 | 2.0 | 16.424 | 2 | 38.323 | 16.624 | 29.603 | 2 |
| 2025-09-20T17:44:00 | 58.000110 | 8.872320 | 2.0 | 16.427 | 2 | 38.347 | 16.626 | 29.622 | 2 |
| 2025-09-20T17:45:00 | 58.000378 | 8.871419 | 2.0 | 16.427 | 2 | 38.355 | 16.629 | 29.627 | 2 |
| 2025-09-20T17:46:00 | 58.000665 | 8.870352 | 2.0 | 16.422 | 2 | 38.349 | 16.628 | 29.623 | 2 |
| 2025-09-20T17:47:00 | 58.000940 | 8.869076 | 2.0 | 16.422 | 2 | 38.362 | 16.624 | 29.637 | 2 |
| 2025-09-20T17:48:00 | 58.000729 | 8.867608 | 2.0 | 16.424 | 2 | 38.350 | 16.625 | 29.626 | 2 |
| 2025-09-20T17:49:00 | 57.999688 | 8.865651 | 2.0 | 16.423 | 2 | 38.341 | 16.627 | 29.616 | 2 |
| 2025-09-20T17:50:00 | 57.998232 | 8.863011 | 2.0 | 16.428 | 2 | 38.354 | 16.629 | 29.626 | 2 |
| 2025-09-20T17:51:00 | 57.996575 | 8.859972 | 2.0 | 16.424 | 2 | 38.360 | 16.631 | 29.630 | 2 |
| 2025-09-20T17:52:00 | 57.994841 | 8.856810 | 2.0 | 16.418 | 2 | 38.350 | 16.620 | 29.629 | 2 |
| 2025-09-20T17:53:00 | 57.993066 | 8.853560 | 2.0 | 16.421 | 2 | 38.345 | 16.611 | 29.632 | 2 |
| 2025-09-20T17:54:00 | 57.991321 | 8.850341 | 2.0 | 16.431 | 2 | 38.349 | 16.610 | 29.636 | 2 |
| 2025-09-20T17:55:00 | 57.989548 | 8.847062 | 2.0 | 16.442 | 2 | 38.335 | 16.619 | 29.617 | 2 |
| 2025-09-20T17:56:00 | 57.987778 | 8.843805 | 2.0 | 16.442 | 2 | 38.308 | 16.626 | 29.589 | 2 |
| 2025-09-20T17:57:00 | 57.986034 | 8.840605 | 2.0 | 16.439 | 2 | 38.275 | 16.625 | 29.561 | 2 |
| 2025-09-20T17:58:00 | 57.984277 | 8.837371 | 2.0 | 16.435 | 2 | 38.238 | 16.620 | 29.533 | 2 |
| 2025-09-20T17:59:00 | 57.982505 | 8.834114 | 2.0 | 16.429 | 2 | 38.206 | 16.617 | 29.508 | 2 |
| 2025-09-20T18:00:00 | 57.980759 | 8.830889 | 2.0 | 16.422 | 2 | 38.160 | 16.609 | 29.474 | 2 |
| 2025-09-20T18:01:00 | 57.978991 | 8.827633 | 2.0 | 16.409 | 2 | 38.044 | 16.599 | 29.382 | 2 |
| 2025-09-20T18:02:00 | 57.977210 | 8.824324 | 2.0 | 16.412 | 2 | 37.999 | 16.589 | 29.351 | 2 |
| 2025-09-20T18:03:00 | 57.975431 | 8.821033 | 2.0 | 16.424 | 2 | 38.052 | 16.593 | 29.393 | 2 |
| 2025-09-20T18:04:00 | 57.973667 | 8.817771 | 2.0 | 16.438 | 2 | 38.018 | 16.604 | 29.356 | 2 |
| 2025-09-20T18:05:00 | 57.971913 | 8.814537 | 2.0 | 16.450 | 2 | 38.050 | 16.618 | 29.373 | 2 |
| 2025-09-20T18:06:00 | 57.970191 | 8.811310 | 2.0 | 16.456 | 2 | 38.061 | 16.628 | 29.375 | 2 |
| 2025-09-20T18:07:00 | 57.968413 | 8.808089 | 2.0 | 16.472 | 2 | 38.079 | 16.633 | 29.387 | 2 |
| 2025-09-20T18:08:00 | 57.966659 | 8.804937 | 2.0 | 16.539 | 2 | 38.129 | 16.666 | 29.406 | 2 |
| 2025-09-20T18:09:00 | 57.964906 | 8.801749 | 2.0 | 16.549 | 2 | 38.243 | 16.711 | 29.471 | 2 |
| 2025-09-20T18:10:00 | 57.963152 | 8.798509 | 2.0 | 16.522 | 2 | 38.273 | 16.721 | 29.489 | 2 |
| 2025-09-20T18:11:00 | 57.961374 | 8.795351 | 2.0 | 16.486 | 2 | 38.214 | 16.688 | 29.463 | 2 |
| 2025-09-20T18:12:00 | 57.959612 | 8.792109 | 2.0 | 16.527 | 2 | 38.180 | 16.671 | 29.446 | 2 |
| 2025-09-20T18:13:00 | 57.957836 | 8.788856 | 2.0 | 16.518 | 2 | 38.264 | 16.696 | 29.500 | 2 |
| 2025-09-20T18:14:00 | 57.956066 | 8.785635 | 2.0 | 16.515 | 2 | 38.243 | 16.693 | 29.484 | 2 |
| 2025-09-20T18:15:00 | 57.954274 | 8.782447 | 2.0 | 16.513 | 2 | 38.219 | 16.690 | 29.465 | 2 |
| 2025-09-20T18:16:00 | 57.952533 | 8.779156 | 2.0 | 16.506 | 2 | 38.192 | 16.687 | 29.444 | 2 |
| 2025-09-20T18:17:00 | 57.950755 | 8.775909 | 2.0 | 16.501 | 2 | 38.148 | 16.680 | 29.412 | 2 |
| 2025-09-20T18:18:00 | 57.949033 | 8.772656 | 2.0 | 16.499 | 2 | 38.086 | 16.674 | 29.363 | 2 |
| 2025-09-20T18:19:00 | 57.947318 | 8.769443 | 2.0 | 16.501 | 2 | 38.039 | 16.674 | 29.323 | 2 |
| 2025-09-20T18:20:00 | 57.945589 | 8.766214 | 2.0 | 16.497 | 2 | 38.011 | 16.674 | 29.299 | 2 |
| 2025-09-20T18:21:00 | 57.943878 | 8.762984 | 2.0 | 16.494 | 2 | 37.985 | 16.670 | 29.279 | 2 |
| 2025-09-20T18:22:00 | 57.942187 | 8.759801 | 2.0 | 16.500 | 2 | 37.968 | 16.668 | 29.266 | 2 |
| 2025-09-20T18:23:00 | 57.940500 | 8.756622 | 2.0 | 16.514 | 2 | 37.972 | 16.676 | 29.264 | 2 |
| 2025-09-20T18:24:00 | 57.938808 | 8.753424 | 2.0 | 16.522 | 2 | 37.955 | 16.689 | 29.240 | 2 |
| 2025-09-20T18:25:00 | 57.937129 | 8.750271 | 2.0 | 16.525 | 2 | 37.924 | 16.696 | 29.208 | 2 |
| 2025-09-20T18:26:00 | 57.935458 | 8.747029 | 2.0 | 16.532 | 2 | 37.898 | 16.698 | 29.185 | 2 |
| 2025-09-20T18:27:00 | 57.933744 | 8.743798 | 2.0 | 16.553 | 2 | 37.895 | 16.708 | 29.175 | 2 |
| 2025-09-20T18:28:00 | 57.932072 | 8.740613 | 2.0 | 16.571 | 2 | 37.916 | 16.728 | 29.178 | 2 |
| 2025-09-20T18:29:00 | 57.930388 | 8.737396 | 2.0 | 16.582 | 2 | 37.944 | 16.745 | 29.190 | 2 |
| 2025-09-20T18:30:00 | 57.928698 | 8.734121 | 2.0 | 16.587 | 2 | 37.974 | 16.755 | 29.208 | 2 |
| 2025-09-20T18:31:00 | 57.926997 | 8.730889 | 2.0 | 16.582 | 2 | 38.001 | 16.758 | 29.229 | 2 |
| 2025-09-20T18:32:00 | 57.925273 | 8.727657 | 2.0 | 16.565 | 2 | 38.060 | 16.751 | 29.285 | 2 |
| 2025-09-20T18:33:00 | 57.923562 | 8.724402 | 2.0 | 16.547 | 2 | 38.156 | 16.738 | 29.376 | 2 |
| 2025-09-20T18:34:00 | 57.921853 | 8.721209 | 2.0 | 16.538 | 2 | 38.212 | 16.715 | 29.441 | 2 |
| 2025-09-20T18:35:00 | 57.920150 | 8.718033 | 2.0 | 16.512 | 2 | 38.283 | 16.706 | 29.508 | 2 |
| 2025-09-20T18:36:00 | 57.918453 | 8.714797 | 2.0 | 16.491 | 2 | 38.321 | 16.686 | 29.556 | 2 |
| 2025-09-20T18:37:00 | 57.916745 | 8.711616 | 2.0 | 16.431 | 2 | 38.354 | 16.652 | 29.609 | 2 |
| 2025-09-20T18:38:00 | 57.915098 | 8.708521 | 2.0 | 16.435 | 2 | 38.368 | 16.607 | 29.654 | 2 |
| 2025-09-20T18:39:00 | 57.913373 | 8.705334 | 2.0 | 16.452 | 2 | 38.411 | 16.613 | 29.687 | 2 |
| 2025-09-20T18:40:00 | 57.911649 | 8.702063 | 2.0 | 16.455 | 2 | 38.478 | 16.622 | 29.738 | 2 |
| 2025-09-20T18:41:00 | 57.909922 | 8.698816 | 2.0 | 16.456 | 2 | 38.470 | 16.627 | 29.727 | 2 |
| 2025-09-20T18:42:00 | 57.908172 | 8.695596 | 2.0 | 16.453 | 2 | 38.453 | 16.629 | 29.711 | 2 |
| 2025-09-20T18:43:00 | 57.906411 | 8.692334 | 2.0 | 16.441 | 2 | 38.430 | 16.624 | 29.695 | 2 |
| 2025-09-20T18:44:00 | 57.904669 | 8.689005 | 2.0 | 16.418 | 2 | 38.383 | 16.609 | 29.666 | 2 |
| 2025-09-20T18:45:00 | 57.902923 | 8.685710 | 2.0 | 16.418 | 2 | 38.337 | 16.588 | 29.642 | 2 |
| 2025-09-20T18:46:00 | 57.901157 | 8.682439 | 2.0 | 16.429 | 2 | 38.354 | 16.594 | 29.652 | 2 |
| 2025-09-20T18:47:00 | 57.899376 | 8.679167 | 2.0 | 16.427 | 2 | 38.397 | 16.598 | 29.686 | 2 |
| 2025-09-20T18:48:00 | 57.897618 | 8.675984 | 2.0 | 16.436 | 2 | 38.376 | 16.601 | 29.666 | 2 |
| 2025-09-20T18:49:00 | 57.895896 | 8.672796 | 2.0 | 16.434 | 2 | 38.353 | 16.607 | 29.642 | 2 |
| 2025-09-20T18:50:00 | 57.894138 | 8.669588 | 2.0 | 16.426 | 2 | 38.288 | 16.605 | 29.587 | 2 |
| 2025-09-20T18:51:00 | 57.892372 | 8.666337 | 2.0 | 16.419 | 2 | 38.153 | 16.597 | 29.477 | 2 |
| 2025-09-20T18:52:00 | 57.890634 | 8.663095 | 2.0 | 16.418 | 2 | 38.069 | 16.589 | 29.411 | 2 |
| 2025-09-20T18:53:00 | 57.888893 | 8.659870 | 2.0 | 16.419 | 2 | 37.953 | 16.591 | 29.310 | 2 |
| 2025-09-20T18:54:00 | 57.887130 | 8.656621 | 2.0 | 16.412 | 2 | 37.872 | 16.588 | 29.242 | 2 |
| 2025-09-20T18:55:00 | 57.885375 | 8.653346 | 2.0 | 16.407 | 2 | 37.779 | 16.582 | 29.167 | 2 |
| 2025-09-20T18:56:00 | 57.883623 | 8.650067 | 2.0 | 16.407 | 2 | 37.675 | 16.578 | 29.081 | 2 |
| 2025-09-20T18:57:00 | 57.881846 | 8.646849 | 2.0 | 16.405 | 2 | 37.610 | 16.578 | 29.025 | 2 |
| 2025-09-20T18:58:00 | 57.880108 | 8.643576 | 2.0 | 16.405 | 2 | 37.549 | 16.576 | 28.974 | 2 |
| 2025-09-20T18:59:00 | 57.878315 | 8.640322 | 2.0 | 16.409 | 2 | 37.492 | 16.577 | 28.924 | 2 |
| 2025-09-20T19:00:00 | 57.876551 | 8.637094 | 2.0 | 16.405 | 2 | 37.437 | 16.579 | 28.876 | 2 |
| 2025-09-20T19:01:00 | 57.874783 | 8.633786 | 2.0 | 16.413 | 2 | 37.384 | 16.577 | 28.832 | 2 |
| 2025-09-20T19:02:00 | 57.872996 | 8.630518 | 2.0 | 16.434 | 2 | 37.320 | 16.587 | 28.770 | 2 |
| 2025-09-20T19:03:00 | 57.871231 | 8.627260 | 2.0 | 16.446 | 2 | 37.211 | 16.606 | 28.663 | 2 |
| 2025-09-20T19:04:00 | 57.869478 | 8.623977 | 2.0 | 16.452 | 2 | 37.138 | 16.616 | 28.593 | 2 |
| 2025-09-20T19:05:00 | 57.867695 | 8.620711 | 2.0 | 16.465 | 2 | 37.074 | 16.624 | 28.533 | 2 |
| 2025-09-20T19:06:00 | 57.865933 | 8.617470 | 2.0 | 16.481 | 2 | 37.007 | 16.637 | 28.467 | 2 |
| 2025-09-20T19:07:00 | 57.864175 | 8.614174 | 2.0 | 16.497 | 2 | 36.949 | 16.653 | 28.406 | 2 |
| 2025-09-20T19:08:00 | 57.862413 | 8.610894 | 2.0 | 16.509 | 2 | 36.821 | 16.668 | 28.286 | 2 |
| 2025-09-20T19:09:00 | 57.860622 | 8.607607 | 2.0 | 16.513 | 2 | 36.813 | 16.678 | 28.272 | 2 |
| 2025-09-20T19:10:00 | 57.858841 | 8.604281 | 2.0 | 16.515 | 2 | 36.766 | 16.681 | 28.230 | 2 |
| 2025-09-20T19:11:00 | 57.857057 | 8.601009 | 2.0 | 16.518 | 2 | 36.686 | 16.684 | 28.160 | 2 |
| 2025-09-20T19:12:00 | 57.855272 | 8.597645 | 2.0 | 16.521 | 2 | 36.706 | 16.688 | 28.174 | 2 |
| 2025-09-20T19:13:00 | 57.853453 | 8.594283 | 2.0 | 16.513 | 2 | 36.145 | 16.689 | 27.696 | 2 |
| 2025-09-20T19:14:00 | 57.851673 | 8.590937 | 2.0 | 16.515 | 2 | 36.640 | 16.682 | 28.122 | 2 |
| 2025-09-20T19:15:00 | 57.849871 | 8.587573 | 2.0 | 16.530 | 2 | 36.702 | 16.687 | 28.171 | 2 |
| 2025-09-20T19:16:00 | 57.848106 | 8.584180 | 2.0 | 16.541 | 2 | 36.561 | 16.700 | 28.042 | 2 |
| 2025-09-20T19:17:00 | 57.846310 | 8.580791 | 2.0 | 16.556 | 2 | 36.637 | 16.712 | 28.098 | 2 |
| 2025-09-20T19:18:00 | 57.844545 | 8.577447 | 2.0 | 16.566 | 2 | 36.595 | 16.725 | 28.053 | 2 |
| 2025-09-20T19:19:00 | 57.842755 | 8.574115 | 2.0 | 16.572 | 2 | 36.558 | 16.734 | 28.016 | 2 |
| 2025-09-20T19:20:00 | 57.840958 | 8.570763 | 2.0 | 16.572 | 2 | 36.537 | 16.739 | 27.994 | 2 |
| 2025-09-20T19:21:00 | 57.839165 | 8.567420 | 2.0 | 16.573 | 2 | 36.364 | 16.739 | 27.847 | 2 |
| 2025-09-20T19:22:00 | 57.837370 | 8.564073 | 2.0 | 16.570 | 2 | 36.523 | 16.740 | 27.982 | 2 |
| 2025-09-20T19:23:00 | 57.835574 | 8.560760 | 2.0 | 16.571 | 2 | 36.374 | 16.737 | 27.857 | 2 |
| 2025-09-20T19:24:00 | 57.833786 | 8.557436 | 2.0 | 16.569 | 2 | 36.366 | 16.738 | 27.850 | 2 |
| 2025-09-20T19:25:00 | 57.832015 | 8.554122 | 2.0 | 16.566 | 2 | 36.208 | 16.735 | 27.718 | 2 |
| 2025-09-20T19:26:00 | 57.830200 | 8.550778 | 2.0 | 16.569 | 2 | 36.185 | 16.735 | 27.698 | 2 |
| 2025-09-20T19:27:00 | 57.828396 | 8.547420 | 2.0 | 16.572 | 2 | 36.534 | 16.737 | 27.993 | 2 |
| 2025-09-20T19:28:00 | 57.826621 | 8.544077 | 2.0 | 16.579 | 2 | 36.337 | 16.741 | 27.823 | 2 |
| 2025-09-20T19:29:00 | 57.824808 | 8.540753 | 2.0 | 16.580 | 2 | 36.345 | 16.747 | 27.826 | 2 |
| 2025-09-20T19:30:00 | 57.823001 | 8.537393 | 2.0 | 16.579 | 2 | 36.496 | 16.747 | 27.954 | 2 |
| 2025-09-20T19:31:00 | 57.821158 | 8.534073 | 2.0 | 16.574 | 2 | 36.274 | 16.745 | 27.767 | 2 |
| 2025-09-20T19:32:00 | 57.819346 | 8.530752 | 2.0 | 16.566 | 2 | 36.416 | 16.741 | 27.890 | 2 |
| 2025-09-20T19:33:00 | 57.817545 | 8.527448 | 2.0 | 16.559 | 2 | 36.515 | 16.733 | 27.980 | 2 |
| 2025-09-20T19:34:00 | 57.815732 | 8.524127 | 2.0 | 16.559 | 2 | 36.408 | 16.727 | 27.893 | 2 |
| 2025-09-20T19:35:00 | 57.813902 | 8.520829 | 2.0 | 16.564 | 2 | 36.471 | 16.728 | 27.946 | 2 |
| 2025-09-20T19:36:00 | 57.812083 | 8.517542 | 2.0 | 16.559 | 2 | 36.544 | 16.732 | 28.005 | 2 |
| 2025-09-20T19:37:00 | 57.810271 | 8.514198 | 2.0 | 16.554 | 2 | 36.342 | 16.725 | 27.838 | 2 |
| 2025-09-20T19:38:00 | 57.808463 | 8.510889 | 2.0 | 16.555 | 2 | 36.456 | 16.722 | 27.937 | 2 |
| 2025-09-20T19:39:00 | 57.806661 | 8.507560 | 2.0 | 16.556 | 2 | 36.474 | 16.723 | 27.952 | 2 |
| 2025-09-20T19:40:00 | 57.804819 | 8.504209 | 2.0 | 16.559 | 2 | 36.522 | 16.724 | 27.992 | 2 |
| 2025-09-20T19:41:00 | 57.802980 | 8.500853 | 2.0 | 16.562 | 2 | 36.468 | 16.727 | 27.944 | 2 |
| 2025-09-20T19:42:00 | 57.801149 | 8.497475 | 2.0 | 16.562 | 2 | 36.492 | 16.730 | 27.962 | 2 |
| 2025-09-20T19:43:00 | 57.799295 | 8.494168 | 2.0 | 16.559 | 2 | 36.461 | 16.730 | 27.936 | 2 |
| 2025-09-20T19:44:00 | 57.797457 | 8.490823 | 2.0 | 16.548 | 2 | 36.434 | 16.726 | 27.916 | 2 |
| 2025-09-20T19:45:00 | 57.795633 | 8.487455 | 2.0 | 16.546 | 2 | 36.585 | 16.716 | 28.051 | 2 |
| 2025-09-20T19:46:00 | 57.793806 | 8.484102 | 2.0 | 16.564 | 2 | 36.638 | 16.719 | 28.094 | 2 |
| 2025-09-20T19:47:00 | 57.791975 | 8.480742 | 2.0 | 16.561 | 2 | 36.622 | 16.730 | 28.073 | 2 |
| 2025-09-20T19:48:00 | 57.790129 | 8.477415 | 2.0 | 16.561 | 2 | 36.574 | 16.729 | 28.033 | 2 |
| 2025-09-20T19:49:00 | 57.788303 | 8.474110 | 2.0 | 16.565 | 2 | 36.561 | 16.728 | 28.022 | 2 |
| 2025-09-20T19:50:00 | 57.786501 | 8.470803 | 2.0 | 16.561 | 2 | 36.617 | 16.731 | 28.068 | 2 |
| 2025-09-20T19:51:00 | 57.784750 | 8.467465 | 2.0 | 16.565 | 2 | 36.597 | 16.728 | 28.053 | 2 |
| 2025-09-20T19:52:00 | 57.782986 | 8.464056 | 2.0 | 16.572 | 2 | 36.622 | 16.731 | 28.072 | 2 |
| 2025-09-20T19:53:00 | 57.781233 | 8.460600 | 2.0 | 16.577 | 2 | 36.620 | 16.739 | 28.065 | 2 |
| 2025-09-20T19:54:00 | 57.779459 | 8.457134 | 2.0 | 16.575 | 2 | 36.679 | 16.743 | 28.112 | 2 |
| 2025-09-20T19:55:00 | 57.777664 | 8.453699 | 2.0 | 16.568 | 2 | 36.688 | 16.740 | 28.122 | 2 |
| 2025-09-20T19:56:00 | 57.775892 | 8.450195 | 2.0 | 16.563 | 2 | 36.682 | 16.733 | 28.122 | 2 |
| 2025-09-20T19:57:00 | 57.774092 | 8.446739 | 2.0 | 16.568 | 2 | 36.679 | 16.732 | 28.120 | 2 |
| 2025-09-20T19:58:00 | 57.772309 | 8.443241 | 2.0 | 16.577 | 2 | 36.669 | 16.736 | 28.109 | 2 |
| 2025-09-20T19:59:00 | 57.770548 | 8.439759 | 2.0 | 16.579 | 2 | 36.707 | 16.744 | 28.135 | 2 |
| 2025-09-20T20:00:00 | 57.768836 | 8.436492 | 2.0 | 16.577 | 2 | 36.685 | 16.745 | 28.116 | 2 |
| 2025-09-20T20:01:00 | 57.767198 | 8.433185 | 2.0 | 16.579 | 2 | 36.689 | 16.745 | 28.119 | 2 |
| 2025-09-20T20:02:00 | 57.765541 | 8.429981 | 2.0 | 16.575 | 2 | 36.604 | 16.745 | 28.047 | 2 |
| 2025-09-20T20:03:00 | 57.763880 | 8.426815 | 2.0 | 16.577 | 2 | 36.589 | 16.742 | 28.037 | 2 |
| 2025-09-20T20:04:00 | 57.762236 | 8.423634 | 2.0 | 16.578 | 2 | 36.573 | 16.745 | 28.021 | 2 |
| 2025-09-20T20:05:00 | 57.760579 | 8.420497 | 2.0 | 16.576 | 2 | 36.558 | 16.744 | 28.009 | 2 |
| 2025-09-20T20:06:00 | 57.758902 | 8.417285 | 2.0 | 16.575 | 2 | 36.584 | 16.742 | 28.032 | 2 |
| 2025-09-20T20:07:00 | 57.757215 | 8.414031 | 2.0 | 16.567 | 2 | 36.623 | 16.741 | 28.066 | 2 |
| 2025-09-20T20:08:00 | 57.755528 | 8.410814 | 2.0 | 16.560 | 2 | 36.626 | 16.730 | 28.076 | 2 |
| 2025-09-20T20:09:00 | 57.753858 | 8.407602 | 2.0 | 16.563 | 2 | 36.688 | 16.726 | 28.132 | 2 |
| 2025-09-20T20:10:00 | 57.752159 | 8.404454 | 2.0 | 16.580 | 2 | 36.510 | 16.733 | 27.976 | 2 |
| 2025-09-20T20:11:00 | 57.750461 | 8.401257 | 2.0 | 16.594 | 2 | 36.406 | 16.747 | 27.877 | 2 |
| 2025-09-20T20:12:00 | 57.748748 | 8.398071 | 2.0 | 16.601 | 2 | 36.379 | 16.760 | 27.846 | 2 |
| 2025-09-20T20:13:00 | 57.747040 | 8.394920 | 2.0 | 16.593 | 2 | 36.373 | 16.764 | 27.838 | 2 |
| 2025-09-20T20:14:00 | 57.745353 | 8.391792 | 2.0 | 16.587 | 2 | 36.455 | 16.757 | 27.912 | 2 |
| 2025-09-20T20:15:00 | 57.743686 | 8.388683 | 2.0 | 16.589 | 2 | 36.504 | 16.753 | 27.957 | 2 |
| 2025-09-20T20:16:00 | 57.742027 | 8.385602 | 2.0 | 16.599 | 2 | 36.479 | 16.756 | 27.933 | 2 |
| 2025-09-20T20:17:00 | 57.740396 | 8.382551 | 2.0 | 16.604 | 2 | 36.424 | 16.765 | 27.880 | 2 |
| 2025-09-20T20:18:00 | 57.738730 | 8.379486 | 2.0 | 16.605 | 2 | 36.402 | 16.769 | 27.859 | 2 |
| 2025-09-20T20:19:00 | 57.737077 | 8.376418 | 2.0 | 16.598 | 2 | 36.386 | 16.771 | 27.844 | 2 |
| 2025-09-20T20:20:00 | 57.735424 | 8.373337 | 2.0 | 16.597 | 2 | 36.453 | 16.763 | 27.906 | 2 |
| 2025-09-20T20:21:00 | 57.733771 | 8.370290 | 2.0 | 16.586 | 2 | 36.533 | 16.760 | 27.976 | 2 |
| 2025-09-20T20:22:00 | 57.732168 | 8.367261 | 2.0 | 16.592 | 2 | 36.547 | 16.753 | 27.993 | 2 |
| 2025-09-20T20:23:00 | 57.730555 | 8.364220 | 2.0 | 16.584 | 2 | 36.519 | 16.756 | 27.967 | 2 |
| 2025-09-20T20:24:00 | 57.728937 | 8.361237 | 2.0 | 16.582 | 2 | 36.567 | 16.751 | 28.012 | 2 |
| 2025-09-20T20:25:00 | 57.727428 | 8.358469 | 2.0 | 16.582 | 2 | 36.636 | 16.748 | 28.072 | 2 |
| 2025-09-20T20:26:00 | 57.726131 | 8.355211 | 2.0 | 16.592 | 2 | 36.664 | 16.748 | 28.096 | 2 |
| 2025-09-20T20:27:00 | 57.725430 | 8.350989 | 2.0 | 16.604 | 2 | 36.641 | 16.759 | 28.069 | 2 |
| 2025-09-20T20:28:00 | 57.724474 | 8.346809 | 2.0 | 16.612 | 2 | 36.613 | 16.771 | 28.037 | 2 |
| 2025-09-20T20:29:00 | 57.723387 | 8.342630 | 2.0 | 16.632 | 2 | 36.544 | 16.780 | 27.972 | 2 |
| 2025-09-20T20:30:00 | 57.722352 | 8.338390 | 2.0 | 16.649 | 2 | 36.490 | 16.799 | 27.913 | 2 |
| 2025-09-20T20:31:00 | 57.721300 | 8.334116 | 2.0 | 16.661 | 2 | 36.446 | 16.815 | 27.864 | 2 |
| 2025-09-20T20:32:00 | 57.720242 | 8.329911 | 2.0 | 16.662 | 2 | 36.372 | 16.824 | 27.795 | 2 |
| 2025-09-20T20:33:00 | 57.719174 | 8.325676 | 2.0 | 16.654 | 2 | 36.356 | 16.824 | 27.782 | 2 |
| 2025-09-20T20:34:00 | 57.718114 | 8.321424 | 2.0 | 16.633 | 2 | 36.377 | 16.816 | 27.805 | 2 |
| 2025-09-20T20:35:00 | 57.716814 | 8.317414 | 2.0 | 16.632 | 2 | 36.416 | 16.799 | 27.850 | 2 |
| 2025-09-20T20:36:00 | 57.715410 | 8.313528 | 2.0 | 16.645 | 2 | 36.452 | 16.801 | 27.879 | 2 |
| 2025-09-20T20:37:00 | 57.713596 | 8.310246 | 2.0 | 16.621 | 2 | 36.454 | 16.807 | 27.877 | 2 |
| 2025-09-20T20:38:00 | 57.711825 | 8.306860 | 2.0 | 16.613 | 2 | 36.540 | 16.784 | 27.966 | 2 |
| 2025-09-20T20:39:00 | 57.710032 | 8.303527 | 2.0 | 16.613 | 2 | 36.596 | 16.779 | 28.017 | 2 |
| 2025-09-20T20:40:00 | 57.708244 | 8.300201 | 2.0 | 16.606 | 2 | 36.606 | 16.778 | 28.026 | 2 |
| 2025-09-20T20:41:00 | 57.706458 | 8.296849 | 2.0 | 16.604 | 2 | 36.625 | 16.771 | 28.047 | 2 |
| 2025-09-20T20:42:00 | 57.704664 | 8.293523 | 2.0 | 16.607 | 2 | 36.638 | 16.770 | 28.059 | 2 |
| 2025-09-20T20:43:00 | 57.702877 | 8.290164 | 2.0 | 16.602 | 2 | 36.645 | 16.770 | 28.065 | 2 |
| 2025-09-20T20:44:00 | 57.701077 | 8.286797 | 2.0 | 16.592 | 2 | 36.665 | 16.766 | 28.084 | 2 |
| 2025-09-20T20:45:00 | 57.699267 | 8.283429 | 2.0 | 16.535 | 2 | 36.699 | 16.750 | 28.124 | 2 |
| 2025-09-20T20:46:00 | 57.697476 | 8.280079 | 2.0 | 16.519 | 2 | 36.848 | 16.698 | 28.288 | 2 |
| 2025-09-20T20:47:00 | 57.695692 | 8.276738 | 2.0 | 16.528 | 2 | 36.929 | 16.687 | 28.365 | 2 |
| 2025-09-20T20:48:00 | 57.693915 | 8.273470 | 2.0 | 16.536 | 2 | 36.937 | 16.695 | 28.366 | 2 |
| 2025-09-20T20:49:00 | 57.692147 | 8.270108 | 2.0 | 16.552 | 2 | 36.943 | 16.703 | 28.365 | 2 |
| 2025-09-20T20:50:00 | 57.690356 | 8.266828 | 2.0 | 16.567 | 2 | 36.949 | 16.719 | 28.359 | 2 |
| 2025-09-20T20:51:00 | 57.688511 | 8.263635 | 2.0 | 16.566 | 2 | 36.948 | 16.731 | 28.350 | 2 |
| 2025-09-20T20:52:00 | 57.686720 | 8.260328 | 2.0 | 16.566 | 2 | 36.921 | 16.732 | 28.326 | 2 |
| 2025-09-20T20:53:00 | 57.684919 | 8.257019 | 2.0 | 16.558 | 2 | 36.925 | 16.729 | 28.332 | 2 |
| 2025-09-20T20:54:00 | 57.683094 | 8.253785 | 2.0 | 16.550 | 2 | 36.966 | 16.723 | 28.371 | 2 |
| 2025-09-20T20:55:00 | 57.681297 | 8.250560 | 2.0 | 16.544 | 2 | 36.977 | 16.714 | 28.386 | 2 |
| 2025-09-20T20:56:00 | 57.679505 | 8.247379 | 2.0 | 16.475 | 2 | 37.026 | 16.706 | 28.434 | 2 |
| 2025-09-20T20:57:00 | 57.677740 | 8.244175 | 2.0 | 16.422 | 2 | 37.009 | 16.626 | 28.476 | 2 |
| 2025-09-20T20:58:00 | 57.676006 | 8.240975 | 2.0 | 16.414 | 2 | 36.943 | 16.589 | 28.446 | 2 |
| 2025-09-20T20:59:00 | 57.674214 | 8.237832 | 2.0 | 16.410 | 2 | 36.877 | 16.581 | 28.395 | 2 |
| 2025-09-20T21:00:00 | 57.672427 | 8.234621 | 2.0 | 16.405 | 2 | 36.811 | 16.577 | 28.342 | 2 |
| 2025-09-20T21:01:00 | 57.670620 | 8.231366 | 2.0 | 16.395 | 2 | 36.758 | 16.570 | 28.301 | 2 |
| 2025-09-20T21:02:00 | 57.668819 | 8.228088 | 2.0 | 16.385 | 2 | 36.723 | 16.559 | 28.279 | 2 |
| 2025-09-20T21:03:00 | 57.667026 | 8.224874 | 2.0 | 16.383 | 2 | 36.704 | 16.551 | 28.268 | 2 |
| 2025-09-20T21:04:00 | 57.665220 | 8.221565 | 2.0 | 16.388 | 2 | 36.686 | 16.552 | 28.252 | 2 |
| 2025-09-20T21:05:00 | 57.663414 | 8.218263 | 2.0 | 16.391 | 2 | 36.679 | 16.554 | 28.245 | 2 |
| 2025-09-20T21:06:00 | 57.661623 | 8.215012 | 2.0 | 16.420 | 2 | 36.685 | 16.561 | 28.245 | 2 |
| 2025-09-20T21:07:00 | 57.659818 | 8.211760 | 2.0 | 16.427 | 2 | 36.692 | 16.585 | 28.234 | 2 |
| 2025-09-20T21:08:00 | 57.657998 | 8.208570 | 2.0 | 16.429 | 2 | 36.688 | 16.591 | 28.227 | 2 |
| 2025-09-20T21:09:00 | 57.656193 | 8.205323 | 2.0 | 16.436 | 2 | 36.691 | 16.595 | 28.226 | 2 |
| 2025-09-20T21:10:00 | 57.654386 | 8.202053 | 2.0 | 16.419 | 2 | 36.679 | 16.598 | 28.214 | 2 |
| 2025-09-20T21:11:00 | 57.652589 | 8.198756 | 2.0 | 16.395 | 2 | 36.661 | 16.580 | 28.211 | 2 |
| 2025-09-20T21:12:00 | 57.650773 | 8.195488 | 2.0 | 16.374 | 2 | 36.637 | 16.559 | 28.206 | 2 |
| 2025-09-20T21:13:00 | 57.648949 | 8.192276 | 2.0 | 16.375 | 2 | 36.631 | 16.541 | 28.213 | 2 |
| 2025-09-20T21:14:00 | 57.647121 | 8.188959 | 2.0 | 16.373 | 2 | 36.653 | 16.540 | 28.233 | 2 |
| 2025-09-20T21:15:00 | 57.645331 | 8.185674 | 2.0 | 16.391 | 2 | 36.681 | 16.545 | 28.253 | 2 |
| 2025-09-20T21:16:00 | 57.643484 | 8.182399 | 2.0 | 16.393 | 2 | 36.536 | 16.555 | 28.122 | 2 |
| 2025-09-20T21:17:00 | 57.641608 | 8.179079 | 2.0 | 16.396 | 2 | 36.682 | 16.560 | 28.243 | 2 |
| 2025-09-20T21:18:00 | 57.639766 | 8.175699 | 2.0 | 16.403 | 2 | 36.591 | 16.560 | 28.166 | 2 |
| 2025-09-20T21:19:00 | 57.637899 | 8.172342 | 2.0 | 16.412 | 2 | 36.683 | 16.572 | 28.236 | 2 |
| 2025-09-20T21:20:00 | 57.636023 | 8.168995 | 2.0 | 16.429 | 2 | 36.626 | 16.581 | 28.181 | 2 |
| 2025-09-20T21:21:00 | 57.634222 | 8.165696 | 2.0 | 16.430 | 2 | 36.629 | 16.593 | 28.175 | 2 |
| 2025-09-20T21:22:00 | 57.632400 | 8.162393 | 2.0 | 16.430 | 2 | 36.542 | 16.595 | 28.099 | 2 |
| 2025-09-20T21:23:00 | 57.630607 | 8.159028 | 2.0 | 16.431 | 2 | 36.495 | 16.596 | 28.058 | 2 |
| 2025-09-20T21:24:00 | 57.628745 | 8.155727 | 2.0 | 16.433 | 2 | 36.461 | 16.597 | 28.029 | 2 |
| 2025-09-20T21:25:00 | 57.626878 | 8.152423 | 2.0 | 16.426 | 2 | 36.448 | 16.596 | 28.018 | 2 |
| 2025-09-20T21:26:00 | 57.625027 | 8.149034 | 2.0 | 16.427 | 2 | 36.455 | 16.592 | 28.027 | 2 |
| 2025-09-20T21:27:00 | 57.623192 | 8.145683 | 2.0 | 16.426 | 2 | 36.423 | 16.591 | 28.000 | 2 |
| 2025-09-20T21:28:00 | 57.621356 | 8.142340 | 2.0 | 16.430 | 2 | 36.413 | 16.592 | 27.991 | 2 |
| 2025-09-20T21:29:00 | 57.619484 | 8.139016 | 2.0 | 16.428 | 2 | 36.403 | 16.593 | 27.982 | 2 |
| 2025-09-20T21:30:00 | 57.617653 | 8.135678 | 2.0 | 16.433 | 2 | 36.341 | 16.594 | 27.928 | 2 |
| 2025-09-20T21:31:00 | 57.615808 | 8.132309 | 2.0 | 16.432 | 2 | 36.324 | 16.597 | 27.912 | 2 |
| 2025-09-20T21:32:00 | 57.613904 | 8.129024 | 2.0 | 16.433 | 2 | 36.296 | 16.597 | 27.888 | 2 |
| 2025-09-20T21:33:00 | 57.612068 | 8.125606 | 2.0 | 16.429 | 2 | 36.268 | 16.597 | 27.864 | 2 |
| 2025-09-20T21:34:00 | 57.610222 | 8.122221 | 2.0 | 16.429 | 2 | 36.219 | 16.594 | 27.824 | 2 |
| 2025-09-20T21:35:00 | 57.608360 | 8.118815 | 2.0 | 16.434 | 2 | 36.193 | 16.596 | 27.801 | 2 |
| 2025-09-20T21:36:00 | 57.606503 | 8.115502 | 2.0 | 16.439 | 2 | 36.198 | 16.599 | 27.803 | 2 |
| 2025-09-20T21:37:00 | 57.604615 | 8.112165 | 2.0 | 16.444 | 2 | 36.161 | 16.604 | 27.768 | 2 |
| 2025-09-20T21:38:00 | 57.602747 | 8.108776 | 2.0 | 16.448 | 2 | 36.185 | 16.608 | 27.786 | 2 |
| 2025-09-20T21:39:00 | 57.600853 | 8.105376 | 2.0 | 16.447 | 2 | 36.158 | 16.612 | 27.760 | 2 |
| 2025-09-20T21:40:00 | 57.598989 | 8.101979 | 2.0 | 16.447 | 2 | 36.134 | 16.612 | 27.740 | 2 |
| 2025-09-20T21:41:00 | 57.597140 | 8.098591 | 2.0 | 16.445 | 2 | 36.111 | 16.611 | 27.721 | 2 |
| 2025-09-20T21:42:00 | 57.595284 | 8.095223 | 2.0 | 16.450 | 2 | 36.101 | 16.611 | 27.712 | 2 |
| 2025-09-20T21:43:00 | 57.593394 | 8.091906 | 2.0 | 16.446 | 2 | 36.105 | 16.614 | 27.713 | 2 |
| 2025-09-20T21:44:00 | 57.591521 | 8.088620 | 2.0 | 16.446 | 2 | 36.123 | 16.612 | 27.730 | 2 |
| 2025-09-20T21:45:00 | 57.589670 | 8.085192 | 2.0 | 16.445 | 2 | 36.126 | 16.611 | 27.733 | 2 |
| 2025-09-20T21:46:00 | 57.587775 | 8.081787 | 2.0 | 16.447 | 2 | 36.101 | 16.610 | 27.713 | 2 |
| 2025-09-20T21:47:00 | 57.585900 | 8.078425 | 2.0 | 16.450 | 2 | 36.096 | 16.612 | 27.707 | 2 |
| 2025-09-20T21:48:00 | 57.584035 | 8.075009 | 2.0 | 16.452 | 2 | 36.087 | 16.614 | 27.698 | 2 |
| 2025-09-20T21:49:00 | 57.582158 | 8.071624 | 2.0 | 16.453 | 2 | 36.112 | 16.617 | 27.717 | 2 |
| 2025-09-20T21:50:00 | 57.580302 | 8.068193 | 2.0 | 16.454 | 2 | 36.116 | 16.617 | 27.721 | 2 |
| 2025-09-20T21:51:00 | 57.578387 | 8.064835 | 2.0 | 16.459 | 2 | 36.120 | 16.620 | 27.722 | 2 |
| 2025-09-20T21:52:00 | 57.576495 | 8.061426 | 2.0 | 16.461 | 2 | 36.127 | 16.624 | 27.725 | 2 |
| 2025-09-20T21:53:00 | 57.574623 | 8.058058 | 2.0 | 16.463 | 2 | 36.125 | 16.626 | 27.722 | 2 |
| 2025-09-20T21:54:00 | 57.572736 | 8.054672 | 2.0 | 16.465 | 2 | 36.116 | 16.628 | 27.713 | 2 |
| 2025-09-20T21:55:00 | 57.570843 | 8.051292 | 2.0 | 16.470 | 2 | 36.104 | 16.631 | 27.701 | 2 |
| 2025-09-20T21:56:00 | 57.568939 | 8.047883 | 2.0 | 16.471 | 2 | 36.090 | 16.635 | 27.686 | 2 |
| 2025-09-20T21:57:00 | 57.567026 | 8.044446 | 2.0 | 16.468 | 2 | 36.076 | 16.635 | 27.674 | 2 |
| 2025-09-20T21:58:00 | 57.565119 | 8.040973 | 2.0 | 16.463 | 2 | 36.037 | 16.631 | 27.644 | 2 |
| 2025-09-20T21:59:00 | 57.563193 | 8.037539 | 2.0 | 16.458 | 2 | 36.101 | 16.626 | 27.702 | 2 |
| 2025-09-20T22:00:00 | 57.561313 | 8.034139 | 2.0 | 16.452 | 2 | 36.119 | 16.621 | 27.721 | 2 |
| 2025-09-20T22:01:00 | 57.559427 | 8.030716 | 2.0 | 16.441 | 2 | 36.082 | 16.616 | 27.693 | 2 |
| 2025-09-20T22:02:00 | 57.557510 | 8.027299 | 2.0 | 16.426 | 2 | 36.179 | 16.605 | 27.783 | 2 |
| 2025-09-20T22:03:00 | 57.555589 | 8.023863 | 2.0 | 16.402 | 2 | 36.205 | 16.587 | 27.817 | 2 |
| 2025-09-20T22:04:00 | 57.553697 | 8.020366 | 2.0 | 16.408 | 2 | 36.213 | 16.569 | 27.837 | 2 |
| 2025-09-20T22:05:00 | 57.551771 | 8.016930 | 2.0 | 16.409 | 2 | 36.320 | 16.574 | 27.924 | 2 |
| 2025-09-20T22:06:00 | 57.549822 | 8.013441 | 2.0 | 16.406 | 2 | 36.220 | 16.573 | 27.840 | 2 |
| 2025-09-20T22:07:00 | 57.547882 | 8.009949 | 2.0 | 16.413 | 2 | 36.496 | 16.570 | 28.077 | 2 |
| 2025-09-20T22:08:00 | 57.545961 | 8.006450 | 2.0 | 16.419 | 2 | 36.423 | 16.578 | 28.010 | 2 |
| 2025-09-20T22:09:00 | 57.544031 | 8.002965 | 2.0 | 16.421 | 2 | 36.507 | 16.584 | 28.077 | 2 |
| 2025-09-20T22:10:00 | 57.542075 | 7.999460 | 2.0 | 16.417 | 2 | 36.402 | 16.584 | 27.987 | 2 |
| 2025-09-20T22:11:00 | 57.540135 | 7.995909 | 2.0 | 16.409 | 2 | 36.633 | 16.580 | 28.187 | 2 |
| 2025-09-20T22:12:00 | 57.538171 | 7.992398 | 2.0 | 16.400 | 2 | 36.504 | 16.572 | 28.083 | 2 |
| 2025-09-20T22:13:00 | 57.536208 | 7.988886 | 2.0 | 16.400 | 2 | 36.556 | 16.566 | 28.131 | 2 |
| 2025-09-20T22:14:00 | 57.534235 | 7.985373 | 2.0 | 16.397 | 2 | 36.623 | 16.564 | 28.190 | 2 |
| 2025-09-20T22:15:00 | 57.532280 | 7.981823 | 2.0 | 16.401 | 2 | 36.838 | 16.563 | 28.375 | 2 |
| 2025-09-20T22:16:00 | 57.530302 | 7.978280 | 2.0 | 16.407 | 2 | 36.908 | 16.568 | 28.431 | 2 |
| 2025-09-20T22:17:00 | 57.528324 | 7.974766 | 2.0 | 16.397 | 2 | 36.734 | 16.571 | 28.280 | 2 |
| 2025-09-20T22:18:00 | 57.526348 | 7.971267 | 2.0 | 16.375 | 2 | 37.017 | 16.557 | 28.532 | 2 |
| 2025-09-20T22:19:00 | 57.524386 | 7.967722 | 2.0 | 16.369 | 2 | 37.011 | 16.541 | 28.538 | 2 |
| 2025-09-20T22:20:00 | 57.522438 | 7.964185 | 2.0 | 16.370 | 2 | 36.892 | 16.534 | 28.441 | 2 |
| 2025-09-20T22:21:00 | 57.520472 | 7.960666 | 2.0 | 16.372 | 2 | 37.012 | 16.536 | 28.543 | 2 |
| 2025-09-20T22:22:00 | 57.518484 | 7.957164 | 2.0 | 16.371 | 2 | 36.818 | 16.536 | 28.377 | 2 |
| 2025-09-20T22:23:00 | 57.516505 | 7.953626 | 2.0 | 16.365 | 2 | 37.033 | 16.535 | 28.561 | 2 |
| 2025-09-20T22:24:00 | 57.514851 | 7.949566 | 2.0 | 16.360 | 2 | 37.039 | 16.530 | 28.570 | 2 |
| 2025-09-20T22:25:00 | 57.513255 | 7.945402 | 2.0 | 16.352 | 2 | 37.163 | 16.524 | 28.681 | 2 |
| 2025-09-20T22:26:00 | 57.511665 | 7.941259 | 2.0 | 16.342 | 2 | 37.179 | 16.518 | 28.699 | 2 |
| 2025-09-20T22:27:00 | 57.510052 | 7.937173 | 2.0 | 16.345 | 2 | 37.118 | 16.508 | 28.653 | 2 |
| 2025-09-20T22:28:00 | 57.508407 | 7.933059 | 2.0 | 16.339 | 2 | 37.052 | 16.508 | 28.597 | 2 |
| 2025-09-20T22:29:00 | 57.506816 | 7.928887 | 2.0 | 16.332 | 2 | 37.204 | 16.503 | 28.731 | 2 |
| 2025-09-20T22:30:00 | 57.505224 | 7.924723 | 2.0 | 16.327 | 2 | 37.409 | 16.497 | 28.911 | 2 |
| 2025-09-20T22:31:00 | 57.503641 | 7.920609 | 2.0 | 16.321 | 2 | 37.486 | 16.491 | 28.981 | 2 |
| 2025-09-20T22:32:00 | 57.502040 | 7.916564 | 2.0 | 16.309 | 2 | 37.639 | 16.484 | 29.118 | 2 |
| 2025-09-20T22:33:00 | 57.500185 | 7.913008 | 2.0 | 16.271 | 2 | 37.743 | 16.467 | 29.220 | 2 |
| 2025-09-20T22:34:00 | 57.498219 | 7.909640 | 2.0 | 16.244 | 2 | 38.366 | 16.432 | 29.783 | 2 |
| 2025-09-20T22:35:00 | 57.496335 | 7.906208 | 2.0 | 16.129 | 2 | 39.100 | 16.375 | 30.461 | 2 |
| 2025-09-20T22:36:00 | 57.494461 | 7.902769 | 2.0 | 16.106 | 2 | 39.820 | 16.313 | 31.134 | 2 |
| 2025-09-20T22:37:00 | 57.492557 | 7.899383 | 2.0 | 16.096 | 2 | 40.288 | 16.265 | 31.580 | 2 |
| 2025-09-20T22:38:00 | 57.490667 | 7.895960 | 2.0 | 16.079 | 2 | 40.262 | 16.254 | 31.566 | 2 |
| 2025-09-20T22:39:00 | 57.488792 | 7.892565 | 2.0 | 16.067 | 2 | 40.262 | 16.250 | 31.569 | 2 |
| 2025-09-20T22:40:00 | 57.486887 | 7.889235 | 2.0 | 16.025 | 2 | 40.484 | 16.228 | 31.781 | 2 |
| 2025-09-20T22:41:00 | 57.485021 | 7.885908 | 2.0 | 15.999 | 2 | 40.897 | 16.184 | 32.178 | 2 |
| 2025-09-20T22:42:00 | 57.483185 | 7.882588 | 2.0 | 15.974 | 2 | 40.968 | 16.166 | 32.255 | 2 |
| 2025-09-20T22:43:00 | 57.481320 | 7.879254 | 2.0 | 15.935 | 2 | 41.095 | 16.134 | 32.393 | 2 |
| 2025-09-20T22:44:00 | 57.479451 | 7.875945 | 2.0 | 15.854 | 2 | 41.532 | 16.084 | 32.819 | 2 |
| 2025-09-20T22:45:00 | 57.477607 | 7.872684 | 2.0 | 15.804 | 2 | 41.985 | 16.024 | 33.269 | 2 |
| 2025-09-20T22:46:00 | 57.475793 | 7.869413 | 2.0 | 15.786 | 2 | 42.279 | 15.983 | 33.564 | 2 |
| 2025-09-20T22:47:00 | 57.473934 | 7.866200 | 2.0 | 15.758 | 2 | 42.430 | 15.954 | 33.723 | 2 |
| 2025-09-20T22:48:00 | 57.472050 | 7.863085 | 2.0 | 15.730 | 2 | 42.586 | 15.929 | 33.883 | 2 |
| 2025-09-20T22:49:00 | 57.470168 | 7.860020 | 2.0 | 15.710 | 2 | 42.811 | 15.896 | 34.112 | 2 |
| 2025-09-20T22:50:00 | 57.468357 | 7.856945 | 2.0 | 15.708 | 2 | 42.857 | 15.880 | 34.166 | 2 |
| 2025-09-20T22:51:00 | 57.466544 | 7.853915 | 2.0 | 15.705 | 2 | 42.811 | 15.878 | 34.127 | 2 |
| 2025-09-20T22:52:00 | 57.464728 | 7.850897 | 2.0 | 15.702 | 2 | 42.794 | 15.874 | 34.115 | 2 |
| 2025-09-20T22:53:00 | 57.462869 | 7.847922 | 2.0 | 15.696 | 2 | 42.754 | 15.870 | 34.083 | 2 |
| 2025-09-20T22:54:00 | 57.460946 | 7.845030 | 2.0 | 15.690 | 2 | 42.756 | 15.864 | 34.090 | 2 |
| 2025-09-20T22:55:00 | 57.459074 | 7.842073 | 2.0 | 15.692 | 2 | 42.745 | 15.860 | 34.084 | 2 |
| 2025-09-20T22:56:00 | 57.457180 | 7.839167 | 2.0 | 15.699 | 2 | 42.768 | 15.863 | 34.102 | 2 |
| 2025-09-20T22:57:00 | 57.455289 | 7.836226 | 2.0 | 15.698 | 2 | 42.748 | 15.870 | 34.078 | 2 |
| 2025-09-20T22:58:00 | 57.453427 | 7.833212 | 2.0 | 15.688 | 2 | 42.725 | 15.864 | 34.063 | 2 |
| 2025-09-20T22:59:00 | 57.451661 | 7.829963 | 2.0 | 15.690 | 2 | 42.698 | 15.858 | 34.044 | 2 |
| 2025-09-20T23:00:00 | 57.449847 | 7.826774 | 2.0 | 15.697 | 2 | 42.661 | 15.862 | 34.007 | 2 |
| 2025-09-20T23:01:00 | 57.448067 | 7.823587 | 2.0 | 15.698 | 2 | 42.610 | 15.867 | 33.957 | 2 |
| 2025-09-20T23:02:00 | 57.446271 | 7.820347 | 2.0 | 15.699 | 2 | 42.576 | 15.867 | 33.927 | 2 |
| 2025-09-20T23:03:00 | 57.444467 | 7.817106 | 2.0 | 15.710 | 2 | 42.539 | 15.869 | 33.893 | 2 |
| 2025-09-20T23:04:00 | 57.442656 | 7.813908 | 2.0 | 15.713 | 2 | 42.546 | 15.878 | 33.891 | 2 |
| 2025-09-20T23:05:00 | 57.440847 | 7.810647 | 2.0 | 15.705 | 2 | 42.518 | 15.879 | 33.865 | 2 |
| 2025-09-20T23:06:00 | 57.439049 | 7.807380 | 2.0 | 15.703 | 2 | 42.463 | 15.872 | 33.822 | 2 |
| 2025-09-20T23:07:00 | 57.437218 | 7.804139 | 2.0 | 15.706 | 2 | 42.472 | 15.870 | 33.832 | 2 |
| 2025-09-20T23:08:00 | 57.435426 | 7.800818 | 2.0 | 15.700 | 2 | 42.559 | 15.873 | 33.907 | 2 |
| 2025-09-20T23:09:00 | 57.433618 | 7.797466 | 2.0 | 15.705 | 2 | 42.530 | 15.870 | 33.884 | 2 |
| 2025-09-20T23:10:00 | 57.431798 | 7.794122 | 2.0 | 15.708 | 2 | 42.554 | 15.872 | 33.903 | 2 |
| 2025-09-20T23:11:00 | 57.429982 | 7.790774 | 2.0 | 15.704 | 2 | 42.598 | 15.873 | 33.942 | 2 |
| 2025-09-20T23:12:00 | 57.428188 | 7.787386 | 2.0 | 15.705 | 2 | 42.569 | 15.874 | 33.915 | 2 |
| 2025-09-20T23:13:00 | 57.426366 | 7.784024 | 2.0 | 15.699 | 2 | 42.666 | 15.872 | 34.003 | 2 |
| 2025-09-20T23:14:00 | 57.424565 | 7.780670 | 2.0 | 15.691 | 2 | 42.674 | 15.865 | 34.016 | 2 |
| 2025-09-20T23:15:00 | 57.422752 | 7.777317 | 2.0 | 15.682 | 2 | 42.643 | 15.859 | 33.994 | 2 |
| 2025-09-20T23:16:00 | 57.420914 | 7.773965 | 2.0 | 15.684 | 2 | 42.604 | 15.852 | 33.965 | 2 |
| 2025-09-20T23:17:00 | 57.419103 | 7.770599 | 2.0 | 15.679 | 2 | 42.681 | 15.851 | 34.034 | 2 |
| 2025-09-20T23:18:00 | 57.417287 | 7.767210 | 2.0 | 15.671 | 2 | 42.751 | 15.847 | 34.100 | 2 |
| 2025-09-20T23:19:00 | 57.415465 | 7.763901 | 2.0 | 15.674 | 2 | 42.799 | 15.841 | 34.148 | 2 |
| 2025-09-20T23:20:00 | 57.413645 | 7.760601 | 2.0 | 15.674 | 2 | 42.822 | 15.841 | 34.169 | 2 |
| 2025-09-20T23:21:00 | 57.411840 | 7.757323 | 2.0 | 15.668 | 2 | 42.859 | 15.841 | 34.202 | 2 |
| 2025-09-20T23:22:00 | 57.410033 | 7.753995 | 2.0 | 15.663 | 2 | 42.843 | 15.835 | 34.193 | 2 |
| 2025-09-20T23:23:00 | 57.408239 | 7.750672 | 2.0 | 15.658 | 2 | 42.838 | 15.831 | 34.192 | 2 |
| 2025-09-20T23:24:00 | 57.406447 | 7.747443 | 2.0 | 15.648 | 2 | 42.869 | 15.825 | 34.225 | 2 |
| 2025-09-20T23:25:00 | 57.404681 | 7.744136 | 2.0 | 15.630 | 2 | 42.871 | 15.814 | 34.236 | 2 |
| 2025-09-20T23:26:00 | 57.402921 | 7.740830 | 2.0 | 15.615 | 2 | 42.862 | 15.796 | 34.244 | 2 |
| 2025-09-20T23:27:00 | 57.401181 | 7.737618 | 2.0 | 15.610 | 2 | 42.907 | 15.784 | 34.294 | 2 |
| 2025-09-20T23:28:00 | 57.399456 | 7.734424 | 2.0 | 15.610 | 2 | 42.928 | 15.779 | 34.317 | 2 |
| 2025-09-20T23:29:00 | 57.397732 | 7.731203 | 2.0 | 15.620 | 2 | 42.937 | 15.779 | 34.325 | 2 |
| 2025-09-20T23:30:00 | 57.396015 | 7.728019 | 2.0 | 15.631 | 2 | 42.927 | 15.790 | 34.307 | 2 |
| 2025-09-20T23:31:00 | 57.394301 | 7.724773 | 2.0 | 15.641 | 2 | 42.928 | 15.796 | 34.303 | 2 |
| 2025-09-20T23:32:00 | 57.392554 | 7.721501 | 2.0 | 15.683 | 2 | 42.933 | 15.817 | 34.289 | 2 |
| 2025-09-20T23:33:00 | 57.390789 | 7.718228 | 2.0 | 15.706 | 2 | 42.995 | 15.852 | 34.314 | 2 |
| 2025-09-20T23:34:00 | 57.389034 | 7.714992 | 2.0 | 15.720 | 2 | 43.053 | 15.876 | 34.345 | 2 |
| 2025-09-20T23:35:00 | 57.387243 | 7.711790 | 2.0 | 15.754 | 2 | 43.080 | 15.884 | 34.362 | 2 |
| 2025-09-20T23:36:00 | 57.385506 | 7.708508 | 2.0 | 15.820 | 2 | 43.134 | 15.932 | 34.368 | 2 |
| 2025-09-20T23:37:00 | 57.383784 | 7.705312 | 2.0 | 15.842 | 2 | 43.173 | 15.991 | 34.352 | 2 |
| 2025-09-20T23:38:00 | 57.382051 | 7.702143 | 2.0 | 15.845 | 2 | 43.180 | 16.005 | 34.346 | 2 |
| 2025-09-20T23:39:00 | 57.380333 | 7.698940 | 2.0 | 15.854 | 2 | 43.175 | 16.010 | 34.337 | 2 |
| 2025-09-20T23:40:00 | 57.378602 | 7.695737 | 2.0 | 15.860 | 2 | 43.177 | 16.020 | 34.330 | 2 |
| 2025-09-20T23:41:00 | 57.376870 | 7.692511 | 2.0 | 15.882 | 2 | 43.182 | 16.028 | 34.328 | 2 |
| 2025-09-20T23:42:00 | 57.375134 | 7.689276 | 2.0 | 15.900 | 2 | 43.188 | 16.050 | 34.314 | 2 |
| 2025-09-20T23:43:00 | 57.373388 | 7.686058 | 2.0 | 15.908 | 2 | 43.203 | 16.066 | 34.314 | 2 |
| 2025-09-20T23:44:00 | 57.371642 | 7.682773 | 2.0 | 15.918 | 2 | 43.210 | 16.074 | 34.313 | 2 |
| 2025-09-20T23:45:00 | 57.369894 | 7.679512 | 2.0 | 15.928 | 2 | 43.218 | 16.084 | 34.311 | 2 |
| 2025-09-20T23:46:00 | 57.368153 | 7.676279 | 2.0 | 15.927 | 2 | 43.229 | 16.092 | 34.314 | 2 |
| 2025-09-20T23:47:00 | 57.366380 | 7.673083 | 2.0 | 15.907 | 2 | 43.230 | 16.088 | 34.318 | 2 |
| 2025-09-20T23:48:00 | 57.364623 | 7.669751 | 2.0 | 15.873 | 2 | 43.215 | 16.068 | 34.322 | 2 |
| 2025-09-20T23:49:00 | 57.362803 | 7.666536 | 2.0 | 15.870 | 2 | 43.203 | 16.044 | 34.333 | 2 |
| 2025-09-20T23:50:00 | 57.360997 | 7.663254 | 2.0 | 15.876 | 2 | 43.206 | 16.039 | 34.340 | 2 |
| 2025-09-20T23:51:00 | 57.359229 | 7.659879 | 2.0 | 15.892 | 2 | 43.207 | 16.048 | 34.333 | 2 |
| 2025-09-20T23:52:00 | 57.357440 | 7.656562 | 2.0 | 15.862 | 2 | 43.209 | 16.054 | 34.329 | 2 |
| 2025-09-20T23:53:00 | 57.355651 | 7.653232 | 2.0 | 15.822 | 2 | 43.184 | 16.024 | 34.333 | 2 |
| 2025-09-20T23:54:00 | 57.353878 | 7.649906 | 2.0 | 15.778 | 2 | 43.154 | 15.982 | 34.343 | 2 |
| 2025-09-20T23:55:00 | 57.352109 | 7.646632 | 2.0 | 15.759 | 2 | 43.143 | 15.943 | 34.367 | 2 |
| 2025-09-20T23:56:00 | 57.350316 | 7.643469 | 2.0 | 15.754 | 2 | 43.182 | 15.929 | 34.414 | 2 |
| 2025-09-20T23:57:00 | 57.348577 | 7.640213 | 2.0 | 15.759 | 2 | 43.171 | 15.924 | 34.408 | 2 |
| 2025-09-20T23:58:00 | 57.346882 | 7.636948 | 2.0 | 15.776 | 2 | 43.165 | 15.929 | 34.399 | 2 |
| 2025-09-20T23:59:00 | 57.345139 | 7.633784 | 2.0 | 15.784 | 2 | 43.172 | 15.944 | 34.392 | 2 |
| 2025-09-21T00:00:00 | 57.343384 | 7.630586 | 2.0 | 15.777 | 2 | 43.180 | 15.952 | 34.392 | 2 |
| 2025-09-21T00:01:00 | 57.341616 | 7.627383 | 2.0 | 15.765 | 2 | 43.182 | 15.941 | 34.403 | 2 |
| 2025-09-21T00:02:00 | 57.339882 | 7.624122 | 2.0 | 15.821 | 2 | 43.156 | 15.941 | 34.380 | 2 |
| 2025-09-21T00:03:00 | 57.338153 | 7.620903 | 2.0 | 15.849 | 2 | 43.158 | 15.987 | 34.342 | 2 |
| 2025-09-21T00:04:00 | 57.336421 | 7.617712 | 2.0 | 15.868 | 2 | 43.172 | 16.015 | 34.330 | 2 |
| 2025-09-21T00:05:00 | 57.334697 | 7.614529 | 2.0 | 15.877 | 2 | 43.186 | 16.034 | 34.326 | 2 |
| 2025-09-21T00:06:00 | 57.332977 | 7.611318 | 2.0 | 15.892 | 2 | 43.191 | 16.044 | 34.322 | 2 |
| 2025-09-21T00:07:00 | 57.331266 | 7.608109 | 2.0 | 15.903 | 2 | 43.201 | 16.059 | 34.318 | 2 |
| 2025-09-21T00:08:00 | 57.329532 | 7.604875 | 2.0 | 15.910 | 2 | 43.208 | 16.070 | 34.314 | 2 |
| 2025-09-21T00:09:00 | 57.327784 | 7.601678 | 2.0 | 15.913 | 2 | 43.213 | 16.076 | 34.314 | 2 |
| 2025-09-21T00:10:00 | 57.326043 | 7.598449 | 2.0 | 15.916 | 2 | 43.215 | 16.079 | 34.313 | 2 |
| 2025-09-21T00:11:00 | 57.324324 | 7.595172 | 2.0 | 15.921 | 2 | 43.218 | 16.083 | 34.312 | 2 |
| 2025-09-21T00:12:00 | 57.322562 | 7.591959 | 2.0 | 15.923 | 2 | 43.223 | 16.086 | 34.314 | 2 |
| 2025-09-21T00:13:00 | 57.320835 | 7.588682 | 2.0 | 15.928 | 2 | 43.223 | 16.089 | 34.311 | 2 |
| 2025-09-21T00:14:00 | 57.319093 | 7.585505 | 2.0 | 15.931 | 2 | 43.226 | 16.093 | 34.311 | 2 |
| 2025-09-21T00:15:00 | 57.317345 | 7.582256 | 2.0 | 15.933 | 2 | 43.229 | 16.096 | 34.311 | 2 |
| 2025-09-21T00:16:00 | 57.315576 | 7.579015 | 2.0 | 15.937 | 2 | 43.233 | 16.099 | 34.312 | 2 |
| 2025-09-21T00:17:00 | 57.313786 | 7.575727 | 2.0 | 15.935 | 2 | 43.237 | 16.101 | 34.313 | 2 |
| 2025-09-21T00:18:00 | 57.311991 | 7.572427 | 2.0 | 15.937 | 2 | 43.236 | 16.101 | 34.313 | 2 |
| 2025-09-21T00:19:00 | 57.310213 | 7.569102 | 2.0 | 15.945 | 2 | 43.240 | 16.104 | 34.314 | 2 |
| 2025-09-21T00:20:00 | 57.308432 | 7.565756 | 2.0 | 15.947 | 2 | 43.246 | 16.110 | 34.314 | 2 |
| 2025-09-21T00:21:00 | 57.306624 | 7.562420 | 2.0 | 15.952 | 2 | 43.247 | 16.113 | 34.312 | 2 |
| 2025-09-21T00:22:00 | 57.304797 | 7.559115 | 2.0 | 15.947 | 2 | 43.248 | 16.116 | 34.310 | 2 |
| 2025-09-21T00:23:00 | 57.302957 | 7.555756 | 2.0 | 15.941 | 2 | 43.248 | 16.112 | 34.314 | 2 |
| 2025-09-21T00:24:00 | 57.301132 | 7.552355 | 2.0 | 15.934 | 2 | 43.244 | 16.106 | 34.315 | 2 |
| 2025-09-21T00:25:00 | 57.299301 | 7.549017 | 2.0 | 15.929 | 2 | 43.242 | 16.099 | 34.320 | 2 |
| 2025-09-21T00:26:00 | 57.297493 | 7.545666 | 2.0 | 15.929 | 2 | 43.242 | 16.094 | 34.324 | 2 |
| 2025-09-21T00:27:00 | 57.295671 | 7.542313 | 2.0 | 15.942 | 2 | 43.253 | 16.096 | 34.332 | 2 |
| 2025-09-21T00:28:00 | 57.293857 | 7.538903 | 2.0 | 15.950 | 2 | 43.268 | 16.108 | 34.335 | 2 |
| 2025-09-21T00:29:00 | 57.292055 | 7.535518 | 2.0 | 15.950 | 2 | 43.279 | 16.114 | 34.339 | 2 |
| 2025-09-21T00:30:00 | 57.290255 | 7.532182 | 2.0 | 15.946 | 2 | 43.283 | 16.114 | 34.343 | 2 |
| 2025-09-21T00:31:00 | 57.288398 | 7.528863 | 2.0 | 15.952 | 2 | 43.285 | 16.110 | 34.348 | 2 |
| 2025-09-21T00:32:00 | 57.286554 | 7.525524 | 2.0 | 15.977 | 2 | 43.315 | 16.118 | 34.368 | 2 |
| 2025-09-21T00:33:00 | 57.284737 | 7.522157 | 2.0 | 16.004 | 2 | 43.299 | 16.145 | 34.330 | 2 |
| 2025-09-21T00:34:00 | 57.282895 | 7.518803 | 2.0 | 16.005 | 2 | 43.377 | 16.167 | 34.381 | 2 |
| 2025-09-21T00:35:00 | 57.281072 | 7.515405 | 2.0 | 16.005 | 2 | 43.335 | 16.170 | 34.341 | 2 |
| 2025-09-21T00:36:00 | 57.279257 | 7.512005 | 2.0 | 16.012 | 2 | 43.295 | 16.169 | 34.306 | 2 |
| 2025-09-21T00:37:00 | 57.277462 | 7.508667 | 2.0 | 16.014 | 2 | 43.324 | 16.176 | 34.326 | 2 |
| 2025-09-21T00:38:00 | 57.275684 | 7.505328 | 2.0 | 16.014 | 2 | 43.369 | 16.178 | 34.364 | 2 |
| 2025-09-21T00:39:00 | 57.273873 | 7.501979 | 2.0 | 16.014 | 2 | 43.330 | 16.179 | 34.329 | 2 |
| 2025-09-21T00:40:00 | 57.272046 | 7.498653 | 2.0 | 16.015 | 2 | 43.313 | 16.178 | 34.314 | 2 |
| 2025-09-21T00:41:00 | 57.270250 | 7.495259 | 2.0 | 16.020 | 2 | 43.115 | 16.180 | 34.137 | 2 |
| 2025-09-21T00:42:00 | 57.268433 | 7.491902 | 2.0 | 16.021 | 2 | 43.121 | 16.185 | 34.138 | 2 |
| 2025-09-21T00:43:00 | 57.266612 | 7.488608 | 2.0 | 16.017 | 2 | 43.158 | 16.185 | 34.171 | 2 |
| 2025-09-21T00:45:00 | 57.262996 | 7.481889 | 2.0 | 16.025 | 2 | 43.132 | 16.185 | 34.148 | 2 |
| 2025-09-21T00:46:00 | 57.261183 | 7.478544 | 2.0 | 16.033 | 2 | 43.289 | 16.191 | 34.282 | 2 |
| 2025-09-21T00:48:00 | 57.257537 | 7.471822 | 2.0 | 16.023 | 2 | 43.236 | 16.191 | 34.235 | 2 |
| 2025-09-21T00:49:00 | 57.255724 | 7.468442 | 2.0 | 16.022 | 2 | 43.315 | 16.189 | 34.307 | 2 |
| 2025-09-21T00:52:00 | 57.250220 | 7.458285 | 2.0 | 16.033 | 2 | 43.381 | 16.196 | 34.359 | 2 |
| 2025-09-21T00:54:00 | 57.246569 | 7.451559 | 2.0 | 16.042 | 2 | 43.424 | 16.204 | 34.390 | 2 |
| 2025-09-21T00:55:00 | 57.244732 | 7.448248 | 2.0 | 16.041 | 2 | 43.221 | 16.206 | 34.209 | 2 |
| 2025-09-21T00:56:00 | 57.242909 | 7.444891 | 2.0 | 16.037 | 2 | 43.201 | 16.205 | 34.192 | 2 |
| 2025-09-21T00:57:00 | 57.241096 | 7.441549 | 2.0 | 16.035 | 2 | 43.453 | 16.202 | 34.418 | 2 |
| 2025-09-21T00:58:00 | 57.239283 | 7.438160 | 2.0 | 16.035 | 2 | 43.161 | 16.200 | 34.161 | 2 |
| 2025-09-21T00:59:00 | 57.237470 | 7.434804 | 2.0 | 16.030 | 2 | 43.215 | 16.198 | 34.210 | 2 |
| 2025-09-21T01:00:00 | 57.235631 | 7.431451 | 2.0 | 16.024 | 2 | 43.465 | 16.194 | 34.435 | 2 |
| 2025-09-21T01:02:00 | 57.231996 | 7.424698 | 2.0 | 16.008 | 2 | 43.423 | 16.181 | 34.409 | 2 |
| 2025-09-21T01:03:00 | 57.230119 | 7.421340 | 2.0 | 16.001 | 2 | 43.384 | 16.172 | 34.382 | 2 |
| 2025-09-21T01:04:00 | 57.228257 | 7.417882 | 2.0 | 15.993 | 2 | 43.253 | 16.165 | 34.272 | 2 |
| 2025-09-21T01:06:00 | 57.224618 | 7.411193 | 2.0 | 15.973 | 2 | 43.099 | 16.148 | 34.151 | 2 |
| 2025-09-21T01:07:00 | 57.222793 | 7.407779 | 2.0 | 15.962 | 2 | 43.289 | 16.138 | 34.328 | 2 |
| 2025-09-21T01:08:00 | 57.220905 | 7.404400 | 2.0 | 15.955 | 2 | 43.116 | 16.128 | 34.183 | 2 |
| 2025-09-21T01:09:00 | 57.219066 | 7.400928 | 2.0 | 15.949 | 2 | 43.153 | 16.120 | 34.222 | 2 |
| 2025-09-21T01:10:00 | 57.217238 | 7.397556 | 2.0 | 15.947 | 2 | 43.307 | 16.115 | 34.363 | 2 |
| 2025-09-21T01:11:00 | 57.215407 | 7.394178 | 2.0 | 15.943 | 2 | 43.166 | 16.112 | 34.241 | 2 |
| 2025-09-21T01:12:00 | 57.213578 | 7.390780 | 2.0 | 15.940 | 2 | 43.050 | 16.108 | 34.141 | 2 |
| 2025-09-21T01:13:00 | 57.211732 | 7.387380 | 2.0 | 15.938 | 2 | 43.322 | 16.105 | 34.385 | 2 |
| 2025-09-21T01:14:00 | 57.209844 | 7.384031 | 2.0 | 15.939 | 2 | 43.159 | 16.104 | 34.242 | 2 |
| 2025-09-21T01:15:00 | 57.207996 | 7.380606 | 2.0 | 15.952 | 2 | 43.280 | 16.107 | 34.346 | 2 |
| 2025-09-21T01:16:00 | 57.206159 | 7.377213 | 2.0 | 15.964 | 2 | 43.116 | 16.118 | 34.191 | 2 |
| 2025-09-21T01:17:00 | 57.204336 | 7.373838 | 2.0 | 15.969 | 2 | 43.229 | 16.129 | 34.282 | 2 |
| 2025-09-21T01:18:00 | 57.202504 | 7.370518 | 2.0 | 15.971 | 2 | 43.366 | 16.135 | 34.399 | 2 |
| 2025-09-21T01:19:00 | 57.200679 | 7.367123 | 2.0 | 15.974 | 2 | 43.204 | 16.135 | 34.255 | 2 |
| 2025-09-21T01:20:00 | 57.198876 | 7.363749 | 2.0 | 15.972 | 2 | 43.362 | 16.139 | 34.391 | 2 |
| 2025-09-21T01:21:00 | 57.197070 | 7.360380 | 2.0 | 15.966 | 2 | 43.208 | 16.135 | 34.258 | 2 |
| 2025-09-21T01:22:00 | 57.195230 | 7.357069 | 2.0 | 15.958 | 2 | 43.274 | 16.129 | 34.322 | 2 |
| 2025-09-21T01:23:00 | 57.193392 | 7.353682 | 2.0 | 15.954 | 2 | 43.068 | 16.122 | 34.145 | 2 |
| 2025-09-21T01:24:00 | 57.191547 | 7.350299 | 2.0 | 15.949 | 2 | 43.253 | 16.118 | 34.313 | 2 |
| 2025-09-21T01:25:00 | 57.189703 | 7.346944 | 2.0 | 15.946 | 2 | 43.173 | 16.115 | 34.245 | 2 |
| 2025-09-21T01:26:00 | 57.187860 | 7.343515 | 2.0 | 15.952 | 2 | 43.160 | 16.111 | 34.236 | 2 |
| 2025-09-21T01:27:00 | 57.186003 | 7.340108 | 2.0 | 15.952 | 2 | 43.196 | 16.118 | 34.262 | 2 |
| 2025-09-21T01:28:00 | 57.184134 | 7.336706 | 2.0 | 15.946 | 2 | 43.121 | 16.116 | 34.198 | 2 |
| 2025-09-21T01:29:00 | 57.182285 | 7.333234 | 2.0 | 15.937 | 2 | 43.109 | 16.112 | 34.190 | 2 |
| 2025-09-21T01:30:00 | 57.180445 | 7.329797 | 2.0 | 15.932 | 2 | 43.118 | 16.100 | 34.209 | 2 |
| 2025-09-21T01:31:00 | 57.178578 | 7.326464 | 2.0 | 15.941 | 2 | 43.148 | 16.100 | 34.235 | 2 |
| 2025-09-21T01:32:00 | 57.176728 | 7.323040 | 2.0 | 15.936 | 2 | 43.119 | 16.104 | 34.206 | 2 |
| 2025-09-21T01:33:00 | 57.174860 | 7.319592 | 2.0 | 15.933 | 2 | 43.142 | 16.101 | 34.229 | 2 |
| 2025-09-21T01:34:00 | 57.173015 | 7.316100 | 2.0 | 15.937 | 2 | 43.129 | 16.100 | 34.218 | 2 |
| 2025-09-21T01:35:00 | 57.171153 | 7.312677 | 2.0 | 15.940 | 2 | 43.175 | 16.103 | 34.257 | 2 |
| 2025-09-21T01:36:00 | 57.169295 | 7.309305 | 2.0 | 15.947 | 2 | 43.187 | 16.108 | 34.263 | 2 |
| 2025-09-21T01:37:00 | 57.167467 | 7.305938 | 2.0 | 15.962 | 2 | 43.183 | 16.116 | 34.253 | 2 |
| 2025-09-21T01:38:00 | 57.165629 | 7.302562 | 2.0 | 15.963 | 2 | 43.227 | 16.126 | 34.283 | 2 |
| 2025-09-21T01:39:00 | 57.163770 | 7.299210 | 2.0 | 15.961 | 2 | 43.234 | 16.128 | 34.287 | 2 |
| 2025-09-21T01:40:00 | 57.161946 | 7.295821 | 2.0 | 15.975 | 2 | 43.241 | 16.128 | 34.294 | 2 |
| 2025-09-21T01:41:00 | 57.160100 | 7.292438 | 2.0 | 15.977 | 2 | 43.288 | 16.141 | 34.324 | 2 |
| 2025-09-21T01:42:00 | 57.158262 | 7.289038 | 2.0 | 15.974 | 2 | 43.310 | 16.141 | 34.344 | 2 |
| 2025-09-21T01:43:00 | 57.156398 | 7.285713 | 2.0 | 15.975 | 2 | 43.317 | 16.139 | 34.352 | 2 |
| 2025-09-21T01:44:00 | 57.154079 | 7.283737 | 2.0 | 15.983 | 2 | 43.304 | 16.141 | 34.338 | 2 |
| 2025-09-21T01:45:00 | 57.151452 | 7.283850 | 2.0 | 15.995 | 2 | 43.353 | 16.149 | 34.375 | 2 |
| 2025-09-21T01:46:00 | 57.148751 | 7.283590 | 2.0 | 16.010 | 2 | 43.373 | 16.161 | 34.382 | 2 |
| 2025-09-21T01:47:00 | 57.146019 | 7.283202 | 2.0 | 16.015 | 2 | 43.392 | 16.177 | 34.385 | 2 |
| 2025-09-21T01:48:00 | 57.143273 | 7.282853 | 2.0 | 16.007 | 2 | 43.408 | 16.179 | 34.398 | 2 |
| 2025-09-21T01:49:00 | 57.140535 | 7.282502 | 2.0 | 15.994 | 2 | 43.378 | 16.168 | 34.381 | 2 |
| 2025-09-21T01:50:00 | 57.137789 | 7.282153 | 2.0 | 15.999 | 2 | 43.383 | 16.161 | 34.391 | 2 |
| 2025-09-21T01:51:00 | 57.135052 | 7.281769 | 2.0 | 16.014 | 2 | 43.396 | 16.166 | 34.398 | 2 |
| 2025-09-21T01:52:00 | 57.132304 | 7.281423 | 2.0 | 16.026 | 2 | 43.431 | 16.180 | 34.417 | 2 |
| 2025-09-21T01:53:00 | 57.129580 | 7.281043 | 2.0 | 16.026 | 2 | 43.429 | 16.190 | 34.407 | 2 |
| 2025-09-21T01:54:00 | 57.126850 | 7.280694 | 2.0 | 16.038 | 2 | 43.435 | 16.191 | 34.411 | 2 |
| 2025-09-21T01:55:00 | 57.124112 | 7.280337 | 2.0 | 16.045 | 2 | 43.453 | 16.204 | 34.416 | 2 |
| 2025-09-21T01:56:00 | 57.121389 | 7.279931 | 2.0 | 16.042 | 2 | 43.463 | 16.208 | 34.421 | 2 |
| 2025-09-21T01:57:00 | 57.118675 | 7.279562 | 2.0 | 16.042 | 2 | 43.456 | 16.206 | 34.417 | 2 |
| 2025-09-21T01:58:00 | 57.115964 | 7.279231 | 2.0 | 16.041 | 2 | 43.452 | 16.204 | 34.415 | 2 |
| 2025-09-21T01:59:00 | 57.113245 | 7.279032 | 2.0 | 16.041 | 2 | 43.454 | 16.206 | 34.415 | 2 |
| 2025-09-21T02:00:00 | 57.110509 | 7.279046 | 2.0 | 16.046 | 2 | 43.448 | 16.206 | 34.410 | 2 |
| 2025-09-21T02:01:00 | 57.107752 | 7.279036 | 2.0 | 16.052 | 2 | 43.463 | 16.212 | 34.418 | 2 |
| 2025-09-21T02:02:00 | 57.105009 | 7.279028 | 2.0 | 16.057 | 2 | 43.468 | 16.216 | 34.419 | 2 |
| 2025-09-21T02:03:00 | 57.102232 | 7.278985 | 2.0 | 16.058 | 2 | 43.474 | 16.220 | 34.421 | 2 |
| 2025-09-21T02:04:00 | 57.099455 | 7.278989 | 2.0 | 16.059 | 2 | 43.483 | 16.223 | 34.426 | 2 |
| 2025-09-21T02:05:00 | 57.096711 | 7.279002 | 2.0 | 16.062 | 2 | 43.495 | 16.223 | 34.437 | 2 |
| 2025-09-21T02:06:00 | 57.093963 | 7.278969 | 2.0 | 16.064 | 2 | 43.519 | 16.226 | 34.455 | 2 |
| 2025-09-21T02:07:00 | 57.091218 | 7.278951 | 2.0 | 16.069 | 2 | 43.536 | 16.229 | 34.468 | 2 |
| 2025-09-21T02:08:00 | 57.088501 | 7.278986 | 2.0 | 16.082 | 2 | 43.547 | 16.233 | 34.474 | 2 |
| 2025-09-21T02:09:00 | 57.085779 | 7.278984 | 2.0 | 16.083 | 2 | 43.562 | 16.245 | 34.477 | 2 |
| 2025-09-21T02:10:00 | 57.083056 | 7.278922 | 2.0 | 16.080 | 2 | 43.564 | 16.246 | 34.478 | 2 |
| 2025-09-21T02:11:00 | 57.080325 | 7.278928 | 2.0 | 16.071 | 2 | 43.560 | 16.243 | 34.477 | 2 |
| 2025-09-21T02:12:00 | 57.077611 | 7.278884 | 2.0 | 16.098 | 2 | 43.555 | 16.231 | 34.483 | 2 |
| 2025-09-21T02:13:00 | 57.074917 | 7.279002 | 2.0 | 16.298 | 2 | 43.617 | 16.299 | 34.479 | 2 |
| 2025-09-21T02:14:00 | 57.072213 | 7.279082 | 2.0 | 16.427 | 2 | 43.783 | 16.466 | 34.481 | 2 |
| 2025-09-21T02:15:00 | 57.069509 | 7.279004 | 2.0 | 16.481 | 2 | 43.890 | 16.595 | 34.464 | 2 |
| 2025-09-21T02:16:00 | 57.066854 | 7.279065 | 2.0 | 16.495 | 2 | 43.930 | 16.637 | 34.463 | 2 |
| 2025-09-21T02:17:00 | 57.064189 | 7.279071 | 2.0 | 16.504 | 2 | 43.943 | 16.655 | 34.459 | 2 |
| 2025-09-21T02:18:00 | 57.061545 | 7.279037 | 2.0 | 16.498 | 2 | 43.949 | 16.662 | 34.458 | 2 |
| 2025-09-21T02:19:00 | 57.058982 | 7.279004 | 2.0 | 16.485 | 2 | 43.946 | 16.655 | 34.461 | 2 |
| 2025-09-21T02:20:00 | 57.056390 | 7.279048 | 2.0 | 16.497 | 2 | 43.942 | 16.650 | 34.462 | 2 |
| 2025-09-21T02:21:00 | 57.053745 | 7.278979 | 2.0 | 16.517 | 2 | 43.942 | 16.658 | 34.455 | 2 |
| 2025-09-21T02:22:00 | 57.051102 | 7.278964 | 2.0 | 16.533 | 2 | 43.950 | 16.679 | 34.444 | 2 |
| 2025-09-21T02:23:00 | 57.048450 | 7.278920 | 2.0 | 16.539 | 2 | 43.960 | 16.694 | 34.440 | 2 |
| 2025-09-21T02:24:00 | 57.045786 | 7.278935 | 2.0 | 16.542 | 2 | 43.963 | 16.700 | 34.437 | 2 |
| 2025-09-21T02:25:00 | 57.043100 | 7.278955 | 2.0 | 16.541 | 2 | 43.965 | 16.703 | 34.437 | 2 |
| 2025-09-21T02:26:00 | 57.040490 | 7.278904 | 2.0 | 16.537 | 2 | 43.961 | 16.701 | 34.435 | 2 |
| 2025-09-21T02:27:00 | 57.037905 | 7.278903 | 2.0 | 16.528 | 2 | 43.965 | 16.697 | 34.442 | 2 |
| 2025-09-21T02:28:00 | 57.035316 | 7.278920 | 2.0 | 16.514 | 2 | 43.962 | 16.687 | 34.448 | 2 |
| 2025-09-21T02:29:00 | 57.032708 | 7.278918 | 2.0 | 16.493 | 2 | 43.930 | 16.672 | 34.432 | 2 |
| 2025-09-21T02:30:00 | 57.030059 | 7.278923 | 2.0 | 16.487 | 2 | 43.909 | 16.655 | 34.429 | 2 |
| 2025-09-21T02:31:00 | 57.027390 | 7.278928 | 2.0 | 16.480 | 2 | 43.900 | 16.648 | 34.427 | 2 |
| 2025-09-21T02:32:00 | 57.024791 | 7.278941 | 2.0 | 16.464 | 2 | 43.931 | 16.640 | 34.461 | 2 |
| 2025-09-21T02:33:00 | 57.022203 | 7.278965 | 2.0 | 16.429 | 2 | 43.924 | 16.620 | 34.472 | 2 |
| 2025-09-21T02:34:00 | 57.019658 | 7.278966 | 2.0 | 16.443 | 2 | 43.900 | 16.594 | 34.473 | 2 |
| 2025-09-21T02:35:00 | 57.017010 | 7.278961 | 2.0 | 16.465 | 2 | 43.902 | 16.611 | 34.460 | 2 |
| 2025-09-21T02:36:00 | 57.014322 | 7.279005 | 2.0 | 16.449 | 2 | 43.926 | 16.625 | 34.469 | 2 |
| 2025-09-21T02:37:00 | 57.011688 | 7.279012 | 2.0 | 16.397 | 2 | 43.923 | 16.602 | 34.487 | 2 |
| 2025-09-21T02:38:00 | 57.009069 | 7.279027 | 2.0 | 16.391 | 2 | 43.909 | 16.560 | 34.511 | 2 |
| 2025-09-21T02:39:00 | 57.006438 | 7.278983 | 2.0 | 16.387 | 2 | 43.911 | 16.554 | 34.518 | 2 |
| 2025-09-21T02:40:00 | 57.003825 | 7.278989 | 2.0 | 16.384 | 2 | 43.919 | 16.550 | 34.528 | 2 |
| 2025-09-21T02:41:00 | 57.001287 | 7.278959 | 2.0 | 16.381 | 2 | 43.912 | 16.546 | 34.525 | 2 |
| 2025-09-21T02:42:00 | 56.998692 | 7.278974 | 2.0 | 16.396 | 2 | 43.909 | 16.547 | 34.522 | 2 |
| 2025-09-21T02:43:00 | 56.996101 | 7.279021 | 2.0 | 16.400 | 2 | 43.927 | 16.559 | 34.527 | 2 |
| 2025-09-21T02:44:00 | 56.993493 | 7.279042 | 2.0 | 16.387 | 2 | 43.934 | 16.558 | 34.534 | 2 |
| 2025-09-21T02:45:00 | 56.990908 | 7.278975 | 2.0 | 16.380 | 2 | 43.926 | 16.550 | 34.534 | 2 |
| 2025-09-21T02:46:00 | 56.988362 | 7.279003 | 2.0 | 16.392 | 2 | 43.915 | 16.544 | 34.530 | 2 |
| 2025-09-21T02:47:00 | 56.985769 | 7.279083 | 2.0 | 16.416 | 2 | 43.918 | 16.556 | 34.522 | 2 |
| 2025-09-21T02:48:00 | 56.983180 | 7.279149 | 2.0 | 16.500 | 2 | 43.921 | 16.589 | 34.496 | 2 |
| 2025-09-21T02:49:00 | 56.980604 | 7.279151 | 2.0 | 16.546 | 2 | 43.933 | 16.665 | 34.441 | 2 |
| 2025-09-21T02:50:00 | 56.978036 | 7.279090 | 2.0 | 16.553 | 2 | 43.947 | 16.704 | 34.420 | 2 |
| 2025-09-21T02:51:00 | 56.975520 | 7.279079 | 2.0 | 16.557 | 2 | 43.944 | 16.716 | 34.407 | 2 |
| 2025-09-21T02:52:00 | 56.972967 | 7.279087 | 2.0 | 16.557 | 2 | 43.939 | 16.719 | 34.400 | 2 |
| 2025-09-21T02:53:00 | 56.970414 | 7.279065 | 2.0 | 16.563 | 2 | 43.935 | 16.719 | 34.396 | 2 |
| 2025-09-21T02:54:00 | 56.967841 | 7.279078 | 2.0 | 16.569 | 2 | 43.942 | 16.726 | 34.397 | 2 |
| 2025-09-21T02:55:00 | 56.965323 | 7.279034 | 2.0 | 16.570 | 2 | 43.945 | 16.730 | 34.396 | 2 |
| 2025-09-21T02:56:00 | 56.962815 | 7.279033 | 2.0 | 16.568 | 2 | 43.945 | 16.731 | 34.395 | 2 |
| 2025-09-21T02:57:00 | 56.960274 | 7.279079 | 2.0 | 16.583 | 2 | 43.944 | 16.732 | 34.393 | 2 |
| 2025-09-21T02:58:00 | 56.957698 | 7.279022 | 2.0 | 16.585 | 2 | 43.957 | 16.744 | 34.394 | 2 |
| 2025-09-21T02:59:00 | 56.955103 | 7.279000 | 2.0 | 16.586 | 2 | 43.962 | 16.748 | 34.395 | 2 |
| 2025-09-21T03:00:00 | 56.952521 | 7.279058 | 2.0 | 16.584 | 2 | 43.962 | 16.747 | 34.396 | 2 |
| 2025-09-21T03:01:00 | 56.949973 | 7.279008 | 2.0 | 16.573 | 2 | 43.864 | 16.744 | 34.313 | 2 |
| 2025-09-21T03:02:00 | 56.947380 | 7.278984 | 2.0 | 16.566 | 2 | 43.908 | 16.734 | 34.360 | 2 |
| 2025-09-21T03:03:00 | 56.944845 | 7.279194 | 2.0 | 16.564 | 2 | 43.824 | 16.728 | 34.292 | 2 |
| 2025-09-21T03:04:00 | 56.942296 | 7.279351 | 2.0 | 16.572 | 2 | 43.873 | 16.728 | 34.334 | 2 |
| 2025-09-21T03:05:00 | 56.939736 | 7.279472 | 2.0 | 16.568 | 2 | 43.885 | 16.733 | 34.341 | 2 |
| 2025-09-21T03:06:00 | 56.937227 | 7.279666 | 2.0 | 16.566 | 2 | 43.863 | 16.729 | 34.325 | 2 |
| 2025-09-21T03:07:00 | 56.934716 | 7.279873 | 2.0 | 16.564 | 2 | 43.916 | 16.728 | 34.372 | 2 |
| 2025-09-21T03:08:00 | 56.932173 | 7.280025 | 2.0 | 16.560 | 2 | 43.900 | 16.726 | 34.360 | 2 |
| 2025-09-21T03:09:00 | 56.929652 | 7.280162 | 2.0 | 16.558 | 2 | 43.940 | 16.722 | 34.398 | 2 |
| 2025-09-21T03:10:00 | 56.927132 | 7.280315 | 2.0 | 16.565 | 2 | 43.892 | 16.721 | 34.357 | 2 |
| 2025-09-21T03:11:00 | 56.924632 | 7.280500 | 2.0 | 16.564 | 2 | 43.942 | 16.727 | 34.396 | 2 |
| 2025-09-21T03:12:00 | 56.922133 | 7.280634 | 2.0 | 16.564 | 2 | 43.911 | 16.726 | 34.369 | 2 |
| 2025-09-21T03:13:00 | 56.919674 | 7.280836 | 2.0 | 16.562 | 2 | 43.928 | 16.726 | 34.384 | 2 |
| 2025-09-21T03:14:00 | 56.917195 | 7.281007 | 2.0 | 16.562 | 2 | 43.924 | 16.724 | 34.383 | 2 |
| 2025-09-21T03:15:00 | 56.914766 | 7.281121 | 2.0 | 16.564 | 2 | 43.928 | 16.725 | 34.385 | 2 |
| 2025-09-21T03:16:00 | 56.912430 | 7.281279 | 2.0 | 16.563 | 2 | 43.935 | 16.726 | 34.390 | 2 |
| 2025-09-21T03:17:00 | 56.910057 | 7.281391 | 2.0 | 16.558 | 2 | 43.934 | 16.724 | 34.391 | 2 |
| 2025-09-21T03:18:00 | 56.907592 | 7.281566 | 2.0 | 16.561 | 2 | 43.930 | 16.721 | 34.390 | 2 |
| 2025-09-21T03:19:00 | 56.905287 | 7.281757 | 2.0 | 16.558 | 2 | 43.929 | 16.722 | 34.389 | 2 |
| 2025-09-21T03:20:00 | 56.902919 | 7.281902 | 2.0 | 16.566 | 2 | 43.938 | 16.722 | 34.397 | 2 |
| 2025-09-21T03:21:00 | 56.900628 | 7.282052 | 2.0 | 16.568 | 2 | 43.952 | 16.728 | 34.404 | 2 |
| 2025-09-21T03:22:00 | 56.898244 | 7.282180 | 2.0 | 16.564 | 2 | 43.961 | 16.730 | 34.410 | 2 |
| 2025-09-21T03:23:00 | 56.895807 | 7.282332 | 2.0 | 16.561 | 2 | 43.960 | 16.726 | 34.412 | 2 |
| 2025-09-21T03:24:00 | 56.893483 | 7.282502 | 2.0 | 16.564 | 2 | 43.963 | 16.724 | 34.417 | 2 |
| 2025-09-21T03:25:00 | 56.891087 | 7.282649 | 2.0 | 16.563 | 2 | 43.973 | 16.726 | 34.424 | 2 |
| 2025-09-21T03:26:00 | 56.888717 | 7.282793 | 2.0 | 16.562 | 2 | 43.980 | 16.725 | 34.431 | 2 |
| 2025-09-21T03:27:00 | 56.886390 | 7.283004 | 2.0 | 16.564 | 2 | 43.990 | 16.725 | 34.439 | 2 |
| 2025-09-21T03:28:00 | 56.884064 | 7.283107 | 2.0 | 16.570 | 2 | 43.998 | 16.726 | 34.446 | 2 |
| 2025-09-21T03:29:00 | 56.881759 | 7.283241 | 2.0 | 16.601 | 2 | 44.012 | 16.737 | 34.448 | 2 |
| 2025-09-21T03:30:00 | 56.879517 | 7.283404 | 2.0 | 16.638 | 2 | 44.048 | 16.768 | 34.453 | 2 |
| 2025-09-21T03:31:00 | 56.877279 | 7.283531 | 2.0 | 16.656 | 2 | 44.077 | 16.800 | 34.451 | 2 |
| 2025-09-21T03:32:00 | 56.875085 | 7.283706 | 2.0 | 16.676 | 2 | 43.870 | 16.820 | 34.253 | 2 |
| 2025-09-21T03:33:00 | 56.872897 | 7.283921 | 2.0 | 16.677 | 2 | 43.904 | 16.837 | 34.268 | 2 |
| 2025-09-21T03:36:00 | 56.866303 | 7.284213 | 2.0 | 16.715 | 2 | 44.052 | 16.862 | 34.376 | 2 |
| 2025-09-21T03:37:00 | 56.864191 | 7.284402 | 2.0 | 16.725 | 2 | 44.159 | 16.876 | 34.458 | 2 |
| 2025-09-21T03:39:00 | 56.859747 | 7.284723 | 2.0 | 16.737 | 2 | 43.893 | 16.894 | 34.210 | 2 |
| 2025-09-21T03:42:00 | 56.852895 | 7.285142 | 2.0 | 16.770 | 2 | 43.895 | 16.916 | 34.193 | 2 |
| 2025-09-21T03:47:00 | 56.842292 | 7.285837 | 2.0 | 16.815 | 2 | 44.166 | 16.972 | 34.381 | 2 |
| 2025-09-21T03:48:00 | 56.840141 | 7.285915 | 2.0 | 16.823 | 2 | 44.172 | 16.976 | 34.383 | 2 |
| 2025-09-21T03:49:00 | 56.837912 | 7.286103 | 2.0 | 16.827 | 2 | 44.170 | 16.984 | 34.375 | 2 |
| 2025-09-21T03:50:00 | 56.835780 | 7.286251 | 2.0 | 16.827 | 2 | 44.150 | 16.990 | 34.352 | 2 |
| 2025-09-21T03:51:00 | 56.833576 | 7.286334 | 2.0 | 16.830 | 2 | 44.163 | 16.989 | 34.364 | 2 |
| 2025-09-21T03:52:00 | 56.831250 | 7.286538 | 2.0 | 16.828 | 2 | 44.174 | 16.991 | 34.372 | 2 |
| 2025-09-21T03:53:00 | 56.829083 | 7.286757 | 2.0 | 16.827 | 2 | 44.180 | 16.994 | 34.375 | 2 |
| 2025-09-21T03:54:00 | 56.826982 | 7.286914 | 2.0 | 16.831 | 2 | 44.191 | 16.989 | 34.389 | 2 |
| 2025-09-21T03:55:00 | 56.824798 | 7.286956 | 2.0 | 16.836 | 2 | 44.197 | 16.993 | 34.391 | 2 |
| 2025-09-21T03:56:00 | 56.822436 | 7.287073 | 2.0 | 16.841 | 2 | 44.196 | 16.998 | 34.385 | 2 |
| 2025-09-21T03:57:00 | 56.820169 | 7.287280 | 2.0 | 16.845 | 2 | 44.194 | 17.003 | 34.379 | 2 |
| 2025-09-21T03:58:00 | 56.817808 | 7.287418 | 2.0 | 16.856 | 2 | 44.193 | 17.008 | 34.374 | 2 |
| 2025-09-21T03:59:00 | 56.815615 | 7.287569 | 2.0 | 16.866 | 2 | 44.180 | 17.023 | 34.350 | 2 |
| 2025-09-21T04:01:00 | 56.811234 | 7.287840 | 2.0 | 16.876 | 2 | 44.200 | 17.029 | 34.362 | 2 |
| 2025-09-21T04:02:00 | 56.808850 | 7.288001 | 2.0 | 16.871 | 2 | 44.201 | 17.035 | 34.358 | 2 |
| 2025-09-21T04:03:00 | 56.806545 | 7.288130 | 2.0 | 16.868 | 2 | 44.199 | 17.032 | 34.359 | 2 |
| 2025-09-21T04:04:00 | 56.804260 | 7.288269 | 2.0 | 16.867 | 2 | 44.194 | 17.030 | 34.356 | 2 |
| 2025-09-21T04:05:00 | 56.801902 | 7.288407 | 2.0 | 16.866 | 2 | 44.196 | 17.028 | 34.360 | 2 |
| 2025-09-21T04:06:00 | 56.799520 | 7.288542 | 2.0 | 16.866 | 2 | 44.199 | 17.027 | 34.363 | 2 |
| 2025-09-21T04:07:00 | 56.797427 | 7.288772 | 2.0 | 16.865 | 2 | 44.200 | 17.026 | 34.365 | 2 |
| 2025-09-21T04:08:00 | 56.795348 | 7.288963 | 2.0 | 16.862 | 2 | 44.202 | 17.026 | 34.367 | 2 |
| 2025-09-21T04:10:00 | 56.791563 | 7.289176 | 2.0 | 16.873 | 2 | 44.177 | 17.033 | 34.339 | 2 |
| 2025-09-21T04:11:00 | 56.789889 | 7.289287 | 2.0 | 16.875 | 2 | 44.193 | 17.035 | 34.351 | 2 |
| 2025-09-21T04:12:00 | 56.788033 | 7.289359 | 2.0 | 16.874 | 2 | 44.202 | 17.035 | 34.359 | 2 |
| 2025-09-21T04:13:00 | 56.785837 | 7.289508 | 2.0 | 16.877 | 2 | 44.194 | 17.037 | 34.350 | 2 |
| 2025-09-21T04:14:00 | 56.783615 | 7.289631 | 2.0 | 16.891 | 2 | 44.198 | 17.041 | 34.350 | 2 |
| 2025-09-21T04:15:00 | 56.781437 | 7.289782 | 2.0 | 16.890 | 2 | 44.199 | 17.052 | 34.342 | 2 |
| 2025-09-21T04:16:00 | 56.779234 | 7.289928 | 2.0 | 16.883 | 2 | 44.138 | 17.053 | 34.288 | 2 |
| 2025-09-21T04:17:00 | 56.777079 | 7.290077 | 2.0 | 16.872 | 2 | 44.191 | 17.044 | 34.342 | 2 |
| 2025-09-21T04:18:00 | 56.774858 | 7.290188 | 2.0 | 16.865 | 2 | 44.218 | 17.032 | 34.375 | 2 |
| 2025-09-21T04:19:00 | 56.772797 | 7.290409 | 2.0 | 16.865 | 2 | 44.226 | 17.029 | 34.385 | 2 |
| 2025-09-21T04:20:00 | 56.770791 | 7.290493 | 2.0 | 16.865 | 2 | 44.218 | 17.030 | 34.377 | 2 |
| 2025-09-21T04:21:00 | 56.768856 | 7.290649 | 2.0 | 16.854 | 2 | 44.227 | 17.025 | 34.389 | 2 |
| 2025-09-21T04:22:00 | 56.766723 | 7.290802 | 2.0 | 16.846 | 2 | 44.232 | 17.015 | 34.402 | 2 |
| 2025-09-21T04:23:00 | 56.764532 | 7.290909 | 2.0 | 16.849 | 2 | 44.223 | 17.009 | 34.399 | 2 |
| 2025-09-21T04:24:00 | 56.762467 | 7.291125 | 2.0 | 16.843 | 2 | 44.220 | 17.010 | 34.396 | 2 |
| 2025-09-21T04:25:00 | 56.760534 | 7.291256 | 2.0 | 16.839 | 2 | 44.213 | 17.010 | 34.390 | 2 |
| 2025-09-21T04:26:00 | 56.758559 | 7.291307 | 2.0 | 16.839 | 2 | 44.205 | 17.002 | 34.390 | 2 |
| 2025-09-21T04:27:00 | 56.756463 | 7.291486 | 2.0 | 16.831 | 2 | 44.209 | 16.999 | 34.396 | 2 |
| 2025-09-21T04:28:00 | 56.754394 | 7.291612 | 2.0 | 16.822 | 2 | 44.222 | 16.990 | 34.415 | 2 |
| 2025-09-21T04:29:00 | 56.752158 | 7.291713 | 2.0 | 16.820 | 2 | 44.225 | 16.984 | 34.423 | 2 |
| 2025-09-21T04:30:00 | 56.749973 | 7.291848 | 2.0 | 16.820 | 2 | 44.224 | 16.982 | 34.423 | 2 |
| 2025-09-21T04:31:00 | 56.748018 | 7.291983 | 2.0 | 16.818 | 2 | 44.215 | 16.984 | 34.414 | 2 |
| 2025-09-21T04:33:00 | 56.744006 | 7.292182 | 2.0 | 16.821 | 2 | 43.970 | 16.983 | 34.201 | 2 |
| 2025-09-21T04:34:00 | 56.741906 | 7.292393 | 2.0 | 16.822 | 2 | 44.217 | 16.984 | 34.416 | 2 |
| 2025-09-21T04:35:00 | 56.739761 | 7.292557 | 2.0 | 16.822 | 2 | 44.211 | 16.984 | 34.410 | 2 |
| 2025-09-21T04:36:00 | 56.737619 | 7.292648 | 2.0 | 16.829 | 2 | 44.202 | 16.986 | 34.401 | 2 |
| 2025-09-21T04:37:00 | 56.735477 | 7.292776 | 2.0 | 16.840 | 2 | 44.204 | 16.996 | 34.394 | 2 |
| 2025-09-21T04:38:00 | 56.733494 | 7.292991 | 2.0 | 16.852 | 2 | 44.197 | 17.004 | 34.381 | 2 |
| 2025-09-21T04:43:00 | 56.723977 | 7.293426 | 2.0 | 16.897 | 2 | 44.210 | 17.056 | 34.348 | 2 |
| 2025-09-21T04:44:00 | 56.721848 | 7.293490 | 2.0 | 16.896 | 2 | 44.211 | 17.059 | 34.346 | 2 |
| 2025-09-21T04:45:00 | 56.719867 | 7.293701 | 2.0 | 16.895 | 2 | 44.207 | 17.057 | 34.345 | 2 |
| 2025-09-21T04:46:00 | 56.718007 | 7.293856 | 2.0 | 16.891 | 2 | 44.206 | 17.058 | 34.343 | 2 |
| 2025-09-21T04:52:00 | 56.707881 | 7.294370 | 2.0 | 16.909 | 2 | 44.021 | 17.066 | 34.175 | 2 |
| 2025-09-21T04:53:00 | 56.705692 | 7.294556 | 2.0 | 16.920 | 2 | 44.158 | 17.074 | 34.287 | 2 |
| 2025-09-21T04:54:00 | 56.703603 | 7.294693 | 2.0 | 16.918 | 2 | 44.172 | 17.081 | 34.294 | 2 |
| 2025-09-21T04:55:00 | 56.701628 | 7.294843 | 2.0 | 16.920 | 2 | 44.172 | 17.078 | 34.296 | 2 |
| 2025-09-21T04:56:00 | 56.699532 | 7.295028 | 2.0 | 16.909 | 2 | 44.178 | 17.079 | 34.301 | 2 |
| 2025-09-21T04:57:00 | 56.697506 | 7.295181 | 2.0 | 16.901 | 2 | 44.167 | 17.069 | 34.300 | 2 |
| 2025-09-21T04:58:00 | 56.695338 | 7.295248 | 2.0 | 16.900 | 2 | 44.182 | 17.062 | 34.319 | 2 |
| 2025-09-21T04:59:00 | 56.693295 | 7.295401 | 2.0 | 16.888 | 2 | 44.185 | 17.061 | 34.322 | 2 |
| 2025-09-21T05:00:00 | 56.691250 | 7.295492 | 2.0 | 16.879 | 2 | 44.162 | 17.050 | 34.311 | 2 |
| 2025-09-21T05:01:00 | 56.689195 | 7.295641 | 2.0 | 16.870 | 2 | 44.108 | 17.040 | 34.273 | 2 |
| 2025-09-21T05:02:00 | 56.687164 | 7.295813 | 2.0 | 16.865 | 2 | 44.133 | 17.030 | 34.303 | 2 |
| 2025-09-21T05:03:00 | 56.685010 | 7.295997 | 2.0 | 16.864 | 2 | 44.158 | 17.028 | 34.327 | 2 |
| 2025-09-21T05:05:00 | 56.681094 | 7.296300 | 2.0 | 16.855 | 2 | 44.107 | 17.019 | 34.290 | 2 |
| 2025-09-21T05:06:00 | 56.679252 | 7.296412 | 2.0 | 16.846 | 2 | 44.133 | 17.016 | 34.315 | 2 |
| 2025-09-21T05:07:00 | 56.677413 | 7.296523 | 2.0 | 16.839 | 2 | 44.014 | 17.013 | 34.214 | 2 |
| 2025-09-21T05:08:00 | 56.675699 | 7.296652 | 2.0 | 16.842 | 2 | 43.806 | 17.005 | 34.040 | 2 |
| 2025-09-21T05:10:00 | 56.672187 | 7.296789 | 2.0 | 16.848 | 2 | 44.114 | 17.011 | 34.303 | 2 |
| 2025-09-21T05:13:00 | 56.666143 | 7.297288 | 2.0 | 16.877 | 2 | 43.995 | 17.028 | 34.185 | 2 |
| 2025-09-21T05:14:00 | 56.664083 | 7.297424 | 2.0 | 16.893 | 2 | 44.184 | 17.041 | 34.338 | 2 |
| 2025-09-21T05:15:00 | 56.662076 | 7.297493 | 2.0 | 16.907 | 2 | 44.178 | 17.059 | 34.318 | 2 |
| 2025-09-21T05:16:00 | 56.659910 | 7.297701 | 2.0 | 16.921 | 2 | 44.142 | 17.071 | 34.276 | 2 |
| 2025-09-21T05:20:00 | 56.651709 | 7.298187 | 2.0 | 16.964 | 2 | 44.224 | 17.110 | 34.314 | 2 |
| 2025-09-21T05:21:00 | 56.649506 | 7.298367 | 2.0 | 16.965 | 2 | 44.230 | 17.129 | 34.303 | 2 |
| 2025-09-21T05:22:00 | 56.647526 | 7.298546 | 2.0 | 16.967 | 2 | 44.225 | 17.128 | 34.300 | 2 |
| 2025-09-21T05:23:00 | 56.645460 | 7.298629 | 2.0 | 16.964 | 2 | 44.175 | 17.153 | 34.235 | 2 |
| 2025-09-21T05:25:00 | 56.641896 | 7.298804 | 2.0 | 16.969 | 2 | 44.117 | 17.130 | 34.204 | 2 |
| 2025-09-21T05:26:00 | 56.639808 | 7.298827 | 2.0 | 16.970 | 2 | 43.896 | 17.131 | 34.012 | 2 |
| 2025-09-21T05:29:00 | 56.634044 | 7.299272 | 2.0 | 16.992 | 2 | 44.065 | 17.151 | 34.141 | 2 |
| 2025-09-21T05:33:00 | 56.626150 | 7.299738 | 2.0 | 17.014 | 2 | 44.050 | 17.170 | 34.112 | 2 |
| 2025-09-21T05:37:00 | 56.618792 | 7.300165 | 2.0 | 17.028 | 2 | 44.176 | 17.194 | 34.201 | 2 |
| 2025-09-21T05:38:00 | 56.616757 | 7.300328 | 2.0 | 17.031 | 2 | 44.148 | 17.193 | 34.178 | 2 |
| 2025-09-21T05:39:00 | 56.614694 | 7.300518 | 2.0 | 17.024 | 2 | 43.855 | 17.193 | 33.924 | 2 |
| 2025-09-21T05:41:00 | 56.610762 | 7.300778 | 2.0 | 17.007 | 2 | 44.104 | 17.181 | 34.150 | 2 |
| 2025-09-21T05:42:00 | 56.608668 | 7.300864 | 2.0 | 17.007 | 2 | 44.202 | 17.169 | 34.245 | 2 |
| 2025-09-21T05:43:00 | 56.606539 | 7.301116 | 2.0 | 17.019 | 2 | 44.186 | 17.171 | 34.229 | 2 |
| 2025-09-21T05:44:00 | 56.604574 | 7.301209 | 2.0 | 17.035 | 2 | 44.011 | 17.183 | 34.068 | 2 |
| 2025-09-21T05:45:00 | 56.602559 | 7.301346 | 2.0 | 17.048 | 2 | 44.152 | 17.196 | 34.179 | 2 |
| 2025-09-21T05:50:00 | 56.592885 | 7.301949 | 2.0 | 17.093 | 2 | 44.073 | 17.251 | 34.064 | 2 |
| 2025-09-21T05:51:00 | 56.590805 | 7.302007 | 2.0 | 17.097 | 2 | 44.145 | 17.253 | 34.124 | 2 |
| 2025-09-21T05:54:00 | 56.584956 | 7.302494 | 2.0 | 17.086 | 2 | 44.149 | 17.251 | 34.130 | 2 |
| 2025-09-21T05:55:00 | 56.582844 | 7.302593 | 2.0 | 17.089 | 2 | 44.133 | 17.249 | 34.117 | 2 |
| 2025-09-21T05:57:00 | 56.578828 | 7.302901 | 2.0 | 17.084 | 2 | 43.800 | 17.247 | 33.831 | 2 |
| 2025-09-21T06:02:00 | 56.568478 | 7.303755 | 2.0 | 17.079 | 2 | 44.177 | 17.366 | 34.057 | 2 |
| 2025-09-21T06:06:00 | 56.561110 | 7.304064 | 2.0 | 17.090 | 2 | 44.092 | 17.275 | 34.060 | 2 |
| 2025-09-21T06:07:00 | 56.559298 | 7.304174 | 2.0 | 17.064 | 2 | 44.142 | 17.253 | 34.122 | 2 |
| 2025-09-21T06:10:00 | 56.553789 | 7.304681 | 2.0 | 17.023 | 2 | 44.132 | 17.201 | 34.157 | 2 |
| 2025-09-21T06:14:00 | 56.547394 | 7.304956 | 2.0 | 16.973 | 2 | 44.393 | 17.589 | 34.055 | 2 |
| 2025-09-21T06:15:00 | 56.545459 | 7.305023 | 2.0 | 16.975 | 2 | 43.852 | 17.180 | 33.932 | 2 |
| 2025-09-21T06:16:00 | 56.543565 | 7.305186 | 2.0 | 16.975 | 2 | 44.032 | 17.151 | 34.113 | 2 |
| 2025-09-21T06:20:00 | 56.535478 | 7.305678 | 2.0 | 16.986 | 2 | 43.954 | 17.163 | 34.035 | 2 |
| 2025-09-21T06:26:00 | 56.524611 | 7.306435 | 2.0 | 17.001 | 2 | 44.267 | 17.174 | 34.297 | 2 |
| 2025-09-21T06:27:00 | 56.522644 | 7.306545 | 2.0 | 17.004 | 2 | 44.162 | 17.168 | 34.211 | 2 |
| 2025-09-21T06:28:00 | 56.520671 | 7.306763 | 2.0 | 17.012 | 2 | 44.176 | 17.168 | 34.223 | 2 |
| 2025-09-21T06:32:00 | 56.512876 | 7.307211 | 2.0 | 17.027 | 2 | 44.256 | 17.182 | 34.281 | 2 |
| 2025-09-21T06:33:00 | 56.510632 | 7.307311 | 2.0 | 17.030 | 2 | 44.247 | 17.187 | 34.269 | 2 |
| 2025-09-21T06:34:00 | 56.508292 | 7.307399 | 2.0 | 17.035 | 2 | 44.239 | 17.191 | 34.258 | 2 |
| 2025-09-21T06:35:00 | 56.506029 | 7.307637 | 2.0 | 17.042 | 2 | 44.231 | 17.194 | 34.249 | 2 |
| 2025-09-21T06:37:00 | 56.501552 | 7.307896 | 2.0 | 17.057 | 2 | 44.033 | 17.219 | 34.056 | 2 |
| 2025-09-21T06:38:00 | 56.499265 | 7.308007 | 2.0 | 17.069 | 2 | 44.222 | 17.220 | 34.219 | 2 |
| 2025-09-21T06:41:00 | 56.492924 | 7.308578 | 2.0 | 17.082 | 2 | 44.164 | 17.249 | 34.144 | 2 |
| 2025-09-21T06:42:00 | 56.491015 | 7.308670 | 2.0 | 17.087 | 2 | 44.354 | 17.343 | 34.229 | 2 |
| 2025-09-21T06:43:00 | 56.488927 | 7.308706 | 2.0 | 17.088 | 2 | 44.213 | 17.253 | 34.183 | 2 |
| 2025-09-21T06:45:00 | 56.484706 | 7.309061 | 2.0 | 17.090 | 2 | 44.134 | 17.251 | 34.117 | 2 |
| 2025-09-21T06:46:00 | 56.482577 | 7.309222 | 2.0 | 17.089 | 2 | 44.081 | 17.250 | 34.072 | 2 |
| 2025-09-21T06:48:00 | 56.478218 | 7.309473 | 2.0 | 17.089 | 2 | 44.131 | 17.256 | 34.110 | 2 |
| 2025-09-21T06:51:00 | 56.472045 | 7.310106 | 2.0 | 17.108 | 2 | 43.777 | 17.267 | 33.795 | 2 |
| 2025-09-21T06:59:00 | 56.455245 | 7.310951 | 2.0 | 17.128 | 2 | 43.972 | 17.294 | 33.940 | 2 |
| 2025-09-21T07:03:00 | 56.446451 | 7.310981 | 2.0 | 17.107 | 2 | 43.768 | 17.274 | 33.781 | 2 |
| 2025-09-21T07:04:00 | 56.444164 | 7.310988 | 2.0 | 17.114 | 2 | 43.661 | 17.283 | 33.681 | 2 |
| 2025-09-21T07:06:00 | 56.440050 | 7.311058 | 2.0 | 17.124 | 2 | 43.935 | 17.283 | 33.918 | 2 |
| 2025-09-21T07:12:00 | 56.426914 | 7.311151 | 2.0 | 17.106 | 2 | 43.626 | 17.276 | 33.657 | 2 |
| 2025-09-21T07:13:00 | 56.424616 | 7.311153 | 2.0 | 17.102 | 2 | 43.489 | 17.276 | 33.538 | 2 |
| 2025-09-21T07:15:00 | 56.420395 | 7.311084 | 2.0 | 17.106 | 2 | 43.698 | 17.265 | 33.728 | 2 |
| 2025-09-21T07:16:00 | 56.418209 | 7.311155 | 2.0 | 17.115 | 2 | 44.128 | 17.267 | 34.098 | 2 |
| 2025-09-21T07:18:00 | 56.413815 | 7.311119 | 2.0 | 17.125 | 2 | 43.970 | 17.280 | 33.950 | 2 |
| 2025-09-21T07:19:00 | 56.411583 | 7.311157 | 2.0 | 17.130 | 2 | 43.700 | 17.307 | 33.695 | 2 |
| 2025-09-21T07:23:00 | 56.402619 | 7.310986 | 2.0 | 17.149 | 2 | 43.472 | 17.300 | 33.504 | 2 |
| 2025-09-21T07:24:00 | 56.400292 | 7.310639 | 2.0 | 17.151 | 2 | 43.616 | 17.315 | 33.616 | 2 |
| 2025-09-21T07:25:00 | 56.397899 | 7.310471 | 2.0 | 17.148 | 2 | 44.138 | 17.313 | 34.068 | 2 |
| 2025-09-21T07:26:00 | 56.395691 | 7.310346 | 2.0 | 17.140 | 2 | 43.927 | 17.308 | 33.890 | 2 |
| 2025-09-21T07:27:00 | 56.393370 | 7.310090 | 2.0 | 17.134 | 2 | 44.096 | 17.300 | 34.042 | 2 |
| 2025-09-21T07:32:00 | 56.381970 | 7.308973 | 2.0 | 17.119 | 2 | 43.852 | 17.281 | 33.848 | 2 |
| 2025-09-21T07:33:00 | 56.379646 | 7.308776 | 2.0 | 17.117 | 2 | 43.931 | 17.281 | 33.916 | 2 |
| 2025-09-21T07:34:00 | 56.377313 | 7.308574 | 2.0 | 17.114 | 2 | 43.916 | 17.278 | 33.905 | 2 |
| 2025-09-21T07:36:00 | 56.372887 | 7.308236 | 2.0 | 17.111 | 2 | 43.509 | 17.276 | 33.556 | 2 |
| 2025-09-21T07:37:00 | 56.370630 | 7.308060 | 2.0 | 17.104 | 2 | 43.552 | 17.269 | 33.599 | 2 |
| 2025-09-21T07:38:00 | 56.368281 | 7.307760 | 2.0 | 17.103 | 2 | 43.616 | 17.265 | 33.657 | 2 |
| 2025-09-21T07:39:00 | 56.365874 | 7.307519 | 2.0 | 17.100 | 2 | 43.618 | 17.265 | 33.659 | 2 |
| 2025-09-21T07:40:00 | 56.363592 | 7.307273 | 2.0 | 17.102 | 2 | 43.788 | 17.263 | 33.807 | 2 |
| 2025-09-21T07:41:00 | 56.361227 | 7.307042 | 2.0 | 17.113 | 2 | 43.812 | 17.263 | 33.828 | 2 |
| 2025-09-21T07:42:00 | 56.358899 | 7.306802 | 2.0 | 17.113 | 2 | 43.804 | 17.277 | 33.809 | 2 |
| 2025-09-21T07:43:00 | 56.356569 | 7.306591 | 2.0 | 17.120 | 2 | 43.798 | 17.275 | 33.806 | 2 |
| 2025-09-21T07:46:00 | 56.349904 | 7.305961 | 2.0 | 17.122 | 2 | 43.467 | 17.284 | 33.513 | 2 |
| 2025-09-21T07:47:00 | 56.347845 | 7.305910 | 2.0 | 17.120 | 2 | 43.635 | 17.294 | 33.649 | 2 |
| 2025-09-21T07:52:00 | 56.336549 | 7.305480 | 2.0 | 17.102 | 2 | 43.570 | 17.273 | 33.611 | 2 |
| 2025-09-21T07:53:00 | 56.334286 | 7.305535 | 2.0 | 17.100 | 2 | 43.812 | 17.268 | 33.824 | 2 |
| 2025-09-21T07:54:00 | 56.332000 | 7.305655 | 2.0 | 17.100 | 2 | 43.841 | 17.265 | 33.851 | 2 |
| 2025-09-21T07:55:00 | 56.329678 | 7.305500 | 2.0 | 17.106 | 2 | 43.861 | 17.261 | 33.872 | 2 |
| 2025-09-21T07:56:00 | 56.327246 | 7.305705 | 2.0 | 17.126 | 2 | 43.886 | 17.272 | 33.884 | 2 |
| 2025-09-21T07:57:00 | 56.324805 | 7.305581 | 2.0 | 17.137 | 2 | 43.946 | 17.288 | 33.923 | 2 |
| 2025-09-21T07:58:00 | 56.322401 | 7.305515 | 2.0 | 17.169 | 2 | 44.014 | 17.301 | 33.971 | 2 |
| 2025-09-21T08:00:00 | 56.317652 | 7.305643 | 2.0 | 17.177 | 2 | 43.832 | 17.340 | 33.781 | 2 |
| 2025-09-21T08:01:00 | 56.315204 | 7.305545 | 2.0 | 17.171 | 2 | 43.831 | 17.336 | 33.783 | 2 |
| 2025-09-21T08:02:00 | 56.312752 | 7.305599 | 2.0 | 17.156 | 2 | 43.838 | 17.329 | 33.795 | 2 |
| 2025-09-21T08:03:00 | 56.310381 | 7.305717 | 2.0 | 17.153 | 2 | 43.809 | 17.315 | 33.782 | 2 |
| 2025-09-21T08:07:00 | 56.300992 | 7.305632 | 2.0 | 17.153 | 2 | 44.037 | 17.312 | 33.981 | 2 |
| 2025-09-21T08:08:00 | 56.298701 | 7.305573 | 2.0 | 17.157 | 2 | 43.747 | 17.322 | 33.723 | 2 |
| 2025-09-21T08:09:00 | 56.296414 | 7.305605 | 2.0 | 17.163 | 2 | 44.051 | 17.316 | 33.990 | 2 |
| 2025-09-21T08:10:00 | 56.294006 | 7.305653 | 2.0 | 17.166 | 2 | 44.053 | 17.323 | 33.986 | 2 |
| 2025-09-21T08:11:00 | 56.291621 | 7.305765 | 2.0 | 17.168 | 2 | 44.043 | 17.330 | 33.971 | 2 |
| 2025-09-21T08:12:00 | 56.289203 | 7.305668 | 2.0 | 17.167 | 2 | 44.049 | 17.328 | 33.978 | 2 |
| 2025-09-21T08:13:00 | 56.286716 | 7.305480 | 2.0 | 17.170 | 2 | 43.926 | 17.328 | 33.872 | 2 |
| 2025-09-21T08:14:00 | 56.284161 | 7.305648 | 2.0 | 17.171 | 2 | 43.988 | 17.330 | 33.924 | 2 |
| 2025-09-21T08:17:00 | 56.277388 | 7.305583 | 2.0 | 17.168 | 2 | 44.013 | 17.333 | 33.943 | 2 |
| 2025-09-21T08:19:00 | 56.272861 | 7.305585 | 2.0 | 17.170 | 2 | 44.027 | 17.331 | 33.957 | 2 |
| 2025-09-21T08:21:00 | 56.268135 | 7.305559 | 2.0 | 17.169 | 2 | 43.906 | 17.326 | 33.856 | 2 |
| 2025-09-21T08:22:00 | 56.265572 | 7.305658 | 2.0 | 17.172 | 2 | 43.849 | 17.330 | 33.804 | 2 |
| 2025-09-21T08:23:00 | 56.263099 | 7.305649 | 2.0 | 17.168 | 2 | 43.987 | 17.332 | 33.921 | 2 |
| 2025-09-21T08:24:00 | 56.260604 | 7.305660 | 2.0 | 17.170 | 2 | 43.987 | 17.331 | 33.922 | 2 |
| 2025-09-21T08:26:00 | 56.255895 | 7.305623 | 2.0 | 17.170 | 2 | 43.664 | 17.332 | 33.643 | 2 |
| 2025-09-21T08:27:00 | 56.253648 | 7.305600 | 2.0 | 17.166 | 2 | 43.862 | 17.333 | 33.813 | 2 |
| 2025-09-21T08:28:00 | 56.251223 | 7.305686 | 2.0 | 17.167 | 2 | 43.983 | 17.329 | 33.920 | 2 |
| 2025-09-21T08:31:00 | 56.244397 | 7.305665 | 2.0 | 17.163 | 2 | 43.974 | 17.327 | 33.914 | 2 |
| 2025-09-21T08:32:00 | 56.242066 | 7.305694 | 2.0 | 17.162 | 2 | 43.944 | 17.324 | 33.891 | 2 |
| 2025-09-21T08:33:00 | 56.239695 | 7.305780 | 2.0 | 17.160 | 2 | 43.957 | 17.324 | 33.902 | 2 |
| 2025-09-21T08:36:00 | 56.233056 | 7.305731 | 2.0 | 17.156 | 2 | 43.531 | 17.320 | 33.538 | 2 |
| 2025-09-21T08:41:00 | 56.221883 | 7.305686 | 2.0 | 17.148 | 2 | 43.884 | 17.310 | 33.851 | 2 |
| 2025-09-21T08:42:00 | 56.219480 | 7.305805 | 2.0 | 17.149 | 2 | 43.873 | 17.309 | 33.842 | 2 |
| 2025-09-21T08:43:00 | 56.217231 | 7.306020 | 2.0 | 17.154 | 2 | 43.854 | 17.311 | 33.824 | 2 |
| 2025-09-21T08:44:00 | 56.214931 | 7.305842 | 2.0 | 17.156 | 2 | 43.844 | 17.315 | 33.812 | 2 |
| 2025-09-21T08:47:00 | 56.208102 | 7.305868 | 2.0 | 17.162 | 2 | 43.818 | 17.321 | 33.785 | 2 |
| 2025-09-21T08:48:00 | 56.205730 | 7.305838 | 2.0 | 17.165 | 2 | 43.803 | 17.323 | 33.770 | 2 |
| 2025-09-21T08:50:00 | 56.201100 | 7.305841 | 2.0 | 17.167 | 2 | 43.634 | 17.326 | 33.622 | 2 |
| 2025-09-21T08:51:00 | 56.198707 | 7.305773 | 2.0 | 17.168 | 2 | 43.762 | 17.327 | 33.731 | 2 |
| 2025-09-21T08:52:00 | 56.196214 | 7.305789 | 2.0 | 17.169 | 2 | 43.759 | 17.330 | 33.726 | 2 |
| 2025-09-21T08:53:00 | 56.193885 | 7.305912 | 2.0 | 17.168 | 2 | 43.746 | 17.331 | 33.714 | 2 |
| 2025-09-21T08:54:00 | 56.191686 | 7.305890 | 2.0 | 17.173 | 2 | 43.732 | 17.330 | 33.703 | 2 |
| 2025-09-21T08:55:00 | 56.189427 | 7.305742 | 2.0 | 17.173 | 2 | 43.722 | 17.332 | 33.693 | 2 |
| 2025-09-21T08:56:00 | 56.187099 | 7.305859 | 2.0 | 17.175 | 2 | 43.715 | 17.335 | 33.684 | 2 |
| 2025-09-21T08:57:00 | 56.184728 | 7.305849 | 2.0 | 17.179 | 2 | 43.706 | 17.337 | 33.675 | 2 |
| 2025-09-21T08:58:00 | 56.182438 | 7.305826 | 2.0 | 17.183 | 2 | 43.712 | 17.342 | 33.676 | 2 |
| 2025-09-21T08:59:00 | 56.180123 | 7.305767 | 2.0 | 17.190 | 2 | 43.717 | 17.345 | 33.678 | 2 |
| 2025-09-21T09:01:00 | 56.175411 | 7.306152 | 2.0 | 17.193 | 2 | 43.678 | 17.354 | 33.637 | 2 |
| 2025-09-21T09:03:00 | 56.171053 | 7.305890 | 2.0 | 17.193 | 2 | 43.556 | 17.354 | 33.532 | 2 |
| 2025-09-21T09:04:00 | 56.168722 | 7.305756 | 2.0 | 17.196 | 2 | 43.781 | 17.355 | 33.724 | 2 |
| 2025-09-21T09:05:00 | 56.166297 | 7.305887 | 2.0 | 17.201 | 2 | 43.798 | 17.360 | 33.735 | 2 |
| 2025-09-21T09:06:00 | 56.163973 | 7.305951 | 2.0 | 17.207 | 2 | 43.647 | 17.362 | 33.603 | 2 |
| 2025-09-21T09:08:00 | 56.159403 | 7.305809 | 2.0 | 17.215 | 2 | 43.838 | 17.461 | 33.685 | 2 |
| 2025-09-21T09:09:00 | 56.157035 | 7.305742 | 2.0 | 17.216 | 2 | 43.875 | 17.385 | 33.780 | 2 |
| 2025-09-21T09:10:00 | 56.154716 | 7.305746 | 2.0 | 17.228 | 2 | 43.899 | 17.378 | 33.807 | 2 |
| 2025-09-21T09:11:00 | 56.152240 | 7.305792 | 2.0 | 17.235 | 2 | 43.879 | 17.388 | 33.781 | 2 |
| 2025-09-21T09:12:00 | 56.149805 | 7.305867 | 2.0 | 17.238 | 2 | 43.943 | 17.397 | 33.829 | 2 |
| 2025-09-21T09:13:00 | 56.147391 | 7.305801 | 2.0 | 17.235 | 2 | 43.936 | 17.395 | 33.825 | 2 |
| 2025-09-21T09:14:00 | 56.145033 | 7.305842 | 2.0 | 17.229 | 2 | 43.929 | 17.394 | 33.819 | 2 |
| 2025-09-21T09:15:00 | 56.142638 | 7.305825 | 2.0 | 17.230 | 2 | 43.528 | 17.390 | 33.478 | 2 |
| 2025-09-21T09:16:00 | 56.140212 | 7.305773 | 2.0 | 17.227 | 2 | 43.521 | 17.389 | 33.472 | 2 |
| 2025-09-21T09:18:00 | 56.135435 | 7.305833 | 2.0 | 17.217 | 2 | 43.649 | 17.383 | 33.588 | 2 |
| 2025-09-21T09:19:00 | 56.133133 | 7.305878 | 2.0 | 17.218 | 2 | 43.892 | 17.377 | 33.802 | 2 |
| 2025-09-21T09:20:00 | 56.130841 | 7.305981 | 2.0 | 17.217 | 2 | 43.838 | 17.380 | 33.753 | 2 |
| 2025-09-21T09:21:00 | 56.128478 | 7.305889 | 2.0 | 17.211 | 2 | 43.766 | 17.376 | 33.694 | 2 |
| 2025-09-21T09:22:00 | 56.126138 | 7.306031 | 2.0 | 17.208 | 2 | 43.843 | 17.370 | 33.765 | 2 |
| 2025-09-21T09:23:00 | 56.123747 | 7.305968 | 2.0 | 17.205 | 2 | 43.817 | 17.370 | 33.743 | 2 |
| 2025-09-21T09:24:00 | 56.121375 | 7.305860 | 2.0 | 17.203 | 2 | 43.797 | 17.365 | 33.730 | 2 |
| 2025-09-21T09:25:00 | 56.118929 | 7.305846 | 2.0 | 17.204 | 2 | 43.777 | 17.365 | 33.713 | 2 |
| 2025-09-21T09:26:00 | 56.116487 | 7.305927 | 2.0 | 17.207 | 2 | 43.761 | 17.366 | 33.698 | 2 |
| 2025-09-21T09:27:00 | 56.114046 | 7.305970 | 2.0 | 17.207 | 2 | 43.748 | 17.368 | 33.685 | 2 |
| 2025-09-21T09:28:00 | 56.111591 | 7.306164 | 2.0 | 17.211 | 2 | 43.735 | 17.369 | 33.673 | 2 |
| 2025-09-21T09:29:00 | 56.109238 | 7.306072 | 2.0 | 17.214 | 2 | 43.724 | 17.373 | 33.660 | 2 |
| 2025-09-21T09:30:00 | 56.106926 | 7.305936 | 2.0 | 17.218 | 2 | 43.715 | 17.377 | 33.649 | 2 |
| 2025-09-21T09:31:00 | 56.104661 | 7.306171 | 2.0 | 17.222 | 2 | 43.707 | 17.380 | 33.640 | 2 |
| 2025-09-21T09:35:00 | 56.095338 | 7.306110 | 2.0 | 17.230 | 2 | 43.527 | 17.383 | 33.483 | 2 |
| 2025-09-21T09:36:00 | 56.092971 | 7.305946 | 2.0 | 17.234 | 2 | 43.653 | 17.391 | 33.584 | 2 |
| 2025-09-21T09:37:00 | 56.090555 | 7.305837 | 2.0 | 17.233 | 2 | 43.475 | 17.393 | 33.430 | 2 |
| 2025-09-21T09:38:00 | 56.088110 | 7.305822 | 2.0 | 17.231 | 2 | 43.441 | 17.393 | 33.400 | 2 |
| 2025-09-21T09:40:00 | 56.083430 | 7.305998 | 2.0 | 17.240 | 2 | 43.617 | 17.395 | 33.550 | 2 |
| 2025-09-21T09:41:00 | 56.080987 | 7.306005 | 2.0 | 17.236 | 2 | 43.385 | 17.399 | 33.347 | 2 |
| 2025-09-21T09:42:00 | 56.078569 | 7.306075 | 2.0 | 17.235 | 2 | 43.510 | 17.400 | 33.454 | 2 |
| 2025-09-21T09:46:00 | 56.069088 | 7.305948 | 2.0 | 17.245 | 2 | 43.783 | 17.395 | 33.693 | 2 |
| 2025-09-21T09:47:00 | 56.066641 | 7.306004 | 2.0 | 17.250 | 2 | 43.928 | 17.405 | 33.809 | 2 |
| 2025-09-21T09:48:00 | 56.064174 | 7.306061 | 2.0 | 17.248 | 2 | 43.937 | 17.409 | 33.814 | 2 |
| 2025-09-21T09:49:00 | 56.061678 | 7.305887 | 2.0 | 17.252 | 2 | 43.939 | 17.409 | 33.816 | 2 |
| 2025-09-21T09:50:00 | 56.059273 | 7.306018 | 2.0 | 17.245 | 2 | 43.934 | 17.410 | 33.810 | 2 |
| 2025-09-21T09:51:00 | 56.057042 | 7.306177 | 2.0 | 17.243 | 2 | 43.918 | 17.404 | 33.802 | 2 |
| 2025-09-21T09:52:00 | 56.054930 | 7.306187 | 2.0 | 17.226 | 2 | 43.906 | 17.401 | 33.794 | 2 |
| 2025-09-21T09:53:00 | 56.052583 | 7.305908 | 2.0 | 17.234 | 2 | 43.858 | 17.389 | 33.762 | 2 |
| 2025-09-21T09:54:00 | 56.050187 | 7.306098 | 2.0 | 17.216 | 2 | 43.797 | 17.390 | 33.709 | 2 |
| 2025-09-21T09:55:00 | 56.047746 | 7.306116 | 2.0 | 17.229 | 2 | 43.629 | 17.381 | 33.572 | 2 |
| 2025-09-21T09:56:00 | 56.045244 | 7.306166 | 2.0 | 17.234 | 2 | 43.579 | 17.393 | 33.519 | 2 |
| 2025-09-21T09:57:00 | 56.042888 | 7.306269 | 2.0 | 17.231 | 2 | 43.387 | 17.397 | 33.351 | 2 |
| 2025-09-21T09:58:00 | 56.040571 | 7.306509 | 2.0 | 17.233 | 2 | 43.569 | 17.392 | 33.511 | 2 |
| 2025-09-21T09:59:00 | 56.038186 | 7.306479 | 2.0 | 17.231 | 2 | 43.573 | 17.393 | 33.514 | 2 |
| 2025-09-21T10:00:00 | 56.035876 | 7.306686 | 2.0 | 17.228 | 2 | 43.591 | 17.391 | 33.531 | 2 |
| 2025-09-21T10:01:00 | 56.033546 | 7.306598 | 2.0 | 17.225 | 2 | 43.414 | 17.387 | 33.382 | 2 |
| 2025-09-21T10:02:00 | 56.031126 | 7.306671 | 2.0 | 17.221 | 2 | 43.346 | 17.389 | 33.322 | 2 |
| 2025-09-21T10:03:00 | 56.028775 | 7.306971 | 2.0 | 17.221 | 2 | 43.505 | 17.385 | 33.462 | 2 |
| 2025-09-21T10:04:00 | 56.026457 | 7.306998 | 2.0 | 17.216 | 2 | 43.618 | 17.383 | 33.561 | 2 |
| 2025-09-21T10:05:00 | 56.024126 | 7.306927 | 2.0 | 17.209 | 2 | 43.638 | 17.378 | 33.582 | 2 |
| 2025-09-21T10:06:00 | 56.021845 | 7.306858 | 2.0 | 17.206 | 2 | 43.657 | 17.371 | 33.604 | 2 |
| 2025-09-21T10:07:00 | 56.019472 | 7.307321 | 2.0 | 17.220 | 2 | 43.695 | 17.370 | 33.638 | 2 |
| 2025-09-21T10:08:00 | 56.017217 | 7.307487 | 2.0 | 17.219 | 2 | 43.761 | 17.381 | 33.686 | 2 |
| 2025-09-21T10:09:00 | 56.014915 | 7.307595 | 2.0 | 17.225 | 2 | 43.778 | 17.381 | 33.700 | 2 |
| 2025-09-21T10:10:00 | 56.012648 | 7.307463 | 2.0 | 17.224 | 2 | 43.779 | 17.386 | 33.697 | 2 |
| 2025-09-21T10:11:00 | 56.010246 | 7.307579 | 2.0 | 17.228 | 2 | 43.785 | 17.387 | 33.701 | 2 |
| 2025-09-21T10:12:00 | 56.007785 | 7.307710 | 2.0 | 17.226 | 2 | 43.798 | 17.388 | 33.712 | 2 |
| 2025-09-21T10:13:00 | 56.005352 | 7.307848 | 2.0 | 17.228 | 2 | 43.791 | 17.388 | 33.706 | 2 |
| 2025-09-21T10:14:00 | 56.002862 | 7.307753 | 2.0 | 17.229 | 2 | 43.798 | 17.390 | 33.710 | 2 |
| 2025-09-21T10:15:00 | 56.000399 | 7.307761 | 2.0 | 17.228 | 2 | 43.814 | 17.388 | 33.725 | 2 |
| 2025-09-21T10:16:00 | 55.997912 | 7.307993 | 2.0 | 17.249 | 2 | 43.836 | 17.390 | 33.743 | 2 |
| 2025-09-21T10:17:00 | 55.995522 | 7.308155 | 2.0 | 17.260 | 2 | 43.873 | 17.409 | 33.759 | 2 |
| 2025-09-21T10:18:00 | 55.993106 | 7.308226 | 2.0 | 17.259 | 2 | 43.884 | 17.419 | 33.760 | 2 |
| 2025-09-21T10:19:00 | 55.990604 | 7.308201 | 2.0 | 17.254 | 2 | 43.864 | 17.420 | 33.742 | 2 |
| 2025-09-21T10:20:00 | 55.988167 | 7.308379 | 2.0 | 17.250 | 2 | 43.826 | 17.414 | 33.714 | 2 |
| 2025-09-21T10:21:00 | 55.985680 | 7.308373 | 2.0 | 17.242 | 2 | 43.764 | 17.410 | 33.664 | 2 |
| 2025-09-21T10:22:00 | 55.983283 | 7.308401 | 2.0 | 17.243 | 2 | 43.681 | 17.403 | 33.598 | 2 |
| 2025-09-21T10:23:00 | 55.980827 | 7.308696 | 2.0 | 17.246 | 2 | 43.624 | 17.405 | 33.548 | 2 |
| 2025-09-21T10:24:00 | 55.978407 | 7.308803 | 2.0 | 17.258 | 2 | 43.563 | 17.408 | 33.493 | 2 |
| 2025-09-21T10:25:00 | 55.976059 | 7.308810 | 2.0 | 17.265 | 2 | 43.504 | 17.419 | 33.433 | 2 |
| 2025-09-21T10:26:00 | 55.973752 | 7.308856 | 2.0 | 17.281 | 2 | 43.459 | 17.427 | 33.388 | 2 |
| 2025-09-21T10:27:00 | 55.971370 | 7.308896 | 2.0 | 17.275 | 2 | 43.432 | 17.439 | 33.355 | 2 |
| 2025-09-21T10:28:00 | 55.968920 | 7.308825 | 2.0 | 17.280 | 2 | 43.388 | 17.436 | 33.319 | 2 |
| 2025-09-21T10:29:00 | 55.966610 | 7.309162 | 2.0 | 17.279 | 2 | 43.343 | 17.438 | 33.279 | 2 |
| 2025-09-21T10:30:00 | 55.964205 | 7.309189 | 2.0 | 17.283 | 2 | 43.308 | 17.441 | 33.247 | 2 |
| 2025-09-21T10:31:00 | 55.961765 | 7.309281 | 2.0 | 17.281 | 2 | 43.291 | 17.442 | 33.231 | 2 |
| 2025-09-21T10:32:00 | 55.959327 | 7.309568 | 2.0 | 17.277 | 2 | 43.276 | 17.441 | 33.219 | 2 |
| 2025-09-21T10:33:00 | 55.957046 | 7.309914 | 2.0 | 17.276 | 2 | 43.259 | 17.437 | 33.208 | 2 |
| 2025-09-21T10:34:00 | 55.954638 | 7.309686 | 2.0 | 17.276 | 2 | 43.273 | 17.437 | 33.220 | 2 |
| 2025-09-21T10:35:00 | 55.952204 | 7.309930 | 2.0 | 17.266 | 2 | 43.294 | 17.434 | 33.240 | 2 |
| 2025-09-21T10:36:00 | 55.949736 | 7.309941 | 2.0 | 17.264 | 2 | 43.310 | 17.428 | 33.259 | 2 |
| 2025-09-21T10:37:00 | 55.947271 | 7.309879 | 2.0 | 17.273 | 2 | 43.336 | 17.426 | 33.283 | 2 |
| 2025-09-21T10:38:00 | 55.944766 | 7.309907 | 2.0 | 17.264 | 2 | 43.379 | 17.432 | 33.315 | 2 |
| 2025-09-21T10:39:00 | 55.942369 | 7.309878 | 2.0 | 17.258 | 2 | 43.412 | 17.425 | 33.349 | 2 |
| 2025-09-21T10:40:00 | 55.939927 | 7.309834 | 2.0 | 17.247 | 2 | 43.459 | 17.418 | 33.395 | 2 |
| 2025-09-21T10:41:00 | 55.937552 | 7.309959 | 2.0 | 17.241 | 2 | 43.493 | 17.407 | 33.433 | 2 |
| 2025-09-21T10:42:00 | 55.935294 | 7.310186 | 2.0 | 17.232 | 2 | 43.532 | 17.400 | 33.473 | 2 |
| 2025-09-21T10:43:00 | 55.933064 | 7.310209 | 2.0 | 17.226 | 2 | 43.567 | 17.392 | 33.510 | 2 |
| 2025-09-21T10:44:00 | 55.930736 | 7.310063 | 2.0 | 17.223 | 2 | 43.597 | 17.387 | 33.539 | 2 |
| 2025-09-21T10:45:00 | 55.928400 | 7.310023 | 2.0 | 17.220 | 2 | 43.640 | 17.384 | 33.579 | 2 |
| 2025-09-21T10:46:00 | 55.926131 | 7.309997 | 2.0 | 17.224 | 2 | 43.644 | 17.383 | 33.583 | 2 |
| 2025-09-21T10:47:00 | 55.923786 | 7.309950 | 2.0 | 17.224 | 2 | 43.629 | 17.386 | 33.568 | 2 |
| 2025-09-21T10:48:00 | 55.921401 | 7.309943 | 2.0 | 17.221 | 2 | 43.751 | 17.384 | 33.674 | 2 |
| 2025-09-21T10:49:00 | 55.919059 | 7.309939 | 2.0 | 17.219 | 2 | 43.282 | 17.383 | 33.272 | 2 |
| 2025-09-21T10:50:00 | 55.916792 | 7.310010 | 2.0 | 17.219 | 2 | 43.326 | 17.380 | 33.312 | 2 |
| 2025-09-21T10:51:00 | 55.914382 | 7.309990 | 2.0 | 17.221 | 2 | 43.605 | 17.380 | 33.552 | 2 |
| 2025-09-21T10:52:00 | 55.911990 | 7.309950 | 2.0 | 17.222 | 2 | 43.472 | 17.385 | 33.434 | 2 |
| 2025-09-21T10:53:00 | 55.909570 | 7.309995 | 2.0 | 17.229 | 2 | 43.785 | 17.384 | 33.704 | 2 |
| 2025-09-21T10:54:00 | 55.907202 | 7.310112 | 2.0 | 17.241 | 2 | 43.799 | 17.391 | 33.710 | 2 |
| 2025-09-21T10:55:00 | 55.904911 | 7.310174 | 2.0 | 17.246 | 2 | 43.322 | 17.408 | 33.286 | 2 |
| 2025-09-21T10:56:00 | 55.902744 | 7.309948 | 2.0 | 17.247 | 2 | 43.762 | 17.410 | 33.662 | 2 |
| 2025-09-21T10:57:00 | 55.900534 | 7.310015 | 2.0 | 17.249 | 2 | 43.837 | 17.407 | 33.729 | 2 |
| 2025-09-21T10:58:00 | 55.898190 | 7.310114 | 2.0 | 17.254 | 2 | 43.841 | 17.410 | 33.730 | 2 |
| 2025-09-21T10:59:00 | 55.895824 | 7.310063 | 2.0 | 17.259 | 2 | 43.845 | 17.416 | 33.729 | 2 |
| 2025-09-21T11:00:00 | 55.893523 | 7.310109 | 2.0 | 17.263 | 2 | 43.847 | 17.420 | 33.727 | 2 |
| 2025-09-21T11:01:00 | 55.891208 | 7.310090 | 2.0 | 17.267 | 2 | 43.847 | 17.423 | 33.725 | 2 |
| 2025-09-21T11:02:00 | 55.888856 | 7.310035 | 2.0 | 17.268 | 2 | 43.848 | 17.427 | 33.722 | 2 |
| 2025-09-21T11:03:00 | 55.886425 | 7.310082 | 2.0 | 17.267 | 2 | 43.846 | 17.428 | 33.720 | 2 |
| 2025-09-21T11:04:00 | 55.884043 | 7.310403 | 2.0 | 17.264 | 2 | 43.840 | 17.427 | 33.715 | 2 |
| 2025-09-21T11:05:00 | 55.881750 | 7.310316 | 2.0 | 17.260 | 2 | 43.831 | 17.425 | 33.709 | 2 |
| 2025-09-21T11:06:00 | 55.879485 | 7.309982 | 2.0 | 17.260 | 2 | 43.823 | 17.421 | 33.706 | 2 |
| 2025-09-21T11:07:00 | 55.877121 | 7.310225 | 2.0 | 17.261 | 2 | 43.819 | 17.420 | 33.703 | 2 |
| 2025-09-21T11:08:00 | 55.874848 | 7.310399 | 2.0 | 17.266 | 2 | 43.816 | 17.422 | 33.699 | 2 |
| 2025-09-21T11:09:00 | 55.872574 | 7.310121 | 2.0 | 17.271 | 2 | 43.817 | 17.427 | 33.696 | 2 |
| 2025-09-21T11:10:00 | 55.870284 | 7.310194 | 2.0 | 17.274 | 2 | 43.817 | 17.432 | 33.691 | 2 |
| 2025-09-21T11:11:00 | 55.868018 | 7.310282 | 2.0 | 17.276 | 2 | 43.816 | 17.435 | 33.688 | 2 |
| 2025-09-21T11:12:00 | 55.865707 | 7.310089 | 2.0 | 17.277 | 2 | 43.815 | 17.437 | 33.685 | 2 |
| 2025-09-21T11:13:00 | 55.863442 | 7.309946 | 2.0 | 17.276 | 2 | 43.812 | 17.438 | 33.682 | 2 |
| 2025-09-21T11:14:00 | 55.861120 | 7.310167 | 2.0 | 17.273 | 2 | 43.808 | 17.437 | 33.679 | 2 |
| 2025-09-21T11:15:00 | 55.858724 | 7.310217 | 2.0 | 17.269 | 2 | 43.803 | 17.433 | 33.678 | 2 |
| 2025-09-21T11:16:00 | 55.856468 | 7.310225 | 2.0 | 17.266 | 2 | 43.795 | 17.428 | 33.676 | 2 |
| 2025-09-21T11:17:00 | 55.854157 | 7.310116 | 2.0 | 17.265 | 2 | 43.793 | 17.426 | 33.676 | 2 |
| 2025-09-21T11:18:00 | 55.851783 | 7.310029 | 2.0 | 17.263 | 2 | 43.793 | 17.425 | 33.677 | 2 |
| 2025-09-21T11:19:00 | 55.849422 | 7.310046 | 2.0 | 17.261 | 2 | 43.793 | 17.424 | 33.677 | 2 |
| 2025-09-21T11:20:00 | 55.847040 | 7.310010 | 2.0 | 17.263 | 2 | 43.790 | 17.423 | 33.676 | 2 |
| 2025-09-21T11:21:00 | 55.844688 | 7.310044 | 2.0 | 17.263 | 2 | 43.786 | 17.422 | 33.673 | 2 |
| 2025-09-21T11:22:00 | 55.842273 | 7.310185 | 2.0 | 17.268 | 2 | 43.786 | 17.425 | 33.671 | 2 |
| 2025-09-21T11:23:00 | 55.839941 | 7.310241 | 2.0 | 17.270 | 2 | 43.787 | 17.429 | 33.668 | 2 |
| 2025-09-21T11:24:00 | 55.837538 | 7.310142 | 2.0 | 17.274 | 2 | 43.789 | 17.432 | 33.667 | 2 |
| 2025-09-21T11:25:00 | 55.835134 | 7.310141 | 2.0 | 17.277 | 2 | 43.792 | 17.435 | 33.667 | 2 |
| 2025-09-21T11:26:00 | 55.832744 | 7.310148 | 2.0 | 17.279 | 2 | 43.794 | 17.436 | 33.668 | 2 |
| 2025-09-21T11:27:00 | 55.830365 | 7.310104 | 2.0 | 17.283 | 2 | 43.797 | 17.440 | 33.667 | 2 |
| 2025-09-21T11:28:00 | 55.828041 | 7.310348 | 2.0 | 17.288 | 2 | 43.800 | 17.444 | 33.667 | 2 |
| 2025-09-21T11:29:00 | 55.825896 | 7.310399 | 2.0 | 17.289 | 2 | 43.802 | 17.446 | 33.667 | 2 |
| 2025-09-21T11:30:00 | 55.823691 | 7.310069 | 2.0 | 17.289 | 2 | 43.800 | 17.450 | 33.662 | 2 |
| 2025-09-21T11:31:00 | 55.821349 | 7.310017 | 2.0 | 17.290 | 2 | 43.803 | 17.451 | 33.664 | 2 |
| 2025-09-21T11:32:00 | 55.819042 | 7.310218 | 2.0 | 17.289 | 2 | 43.797 | 17.450 | 33.659 | 2 |
| 2025-09-21T11:33:00 | 55.816713 | 7.310134 | 2.0 | 17.290 | 2 | 43.792 | 17.451 | 33.654 | 2 |
| 2025-09-21T11:34:00 | 55.814395 | 7.310033 | 2.0 | 17.297 | 2 | 43.794 | 17.452 | 33.655 | 2 |
| 2025-09-21T11:35:00 | 55.812018 | 7.310138 | 2.0 | 17.300 | 2 | 43.312 | 17.459 | 33.235 | 2 |
| 2025-09-21T11:36:00 | 55.809649 | 7.310178 | 2.0 | 17.296 | 2 | 43.735 | 17.461 | 33.597 | 2 |
| 2025-09-21T11:37:00 | 55.807316 | 7.310056 | 2.0 | 17.288 | 2 | 43.208 | 17.455 | 33.149 | 2 |
| 2025-09-21T11:38:00 | 55.805045 | 7.309967 | 2.0 | 17.277 | 2 | 43.436 | 17.447 | 33.352 | 2 |
| 2025-09-21T11:39:00 | 55.802738 | 7.309954 | 2.0 | 17.267 | 2 | 43.734 | 17.436 | 33.617 | 2 |
| 2025-09-21T11:40:00 | 55.800415 | 7.310119 | 2.0 | 17.261 | 2 | 42.836 | 17.426 | 32.854 | 2 |
| 2025-09-21T11:41:00 | 55.798149 | 7.310265 | 2.0 | 17.258 | 2 | 43.668 | 17.421 | 33.572 | 2 |
| 2025-09-21T11:42:00 | 55.795887 | 7.310139 | 2.0 | 17.258 | 2 | 43.128 | 17.419 | 33.110 | 2 |
| 2025-09-21T11:43:00 | 55.793625 | 7.310077 | 2.0 | 17.262 | 2 | 43.632 | 17.420 | 33.542 | 2 |
| 2025-09-21T11:44:00 | 55.791402 | 7.310251 | 2.0 | 17.267 | 2 | 43.411 | 17.422 | 33.351 | 2 |
| 2025-09-21T11:45:00 | 55.789153 | 7.310288 | 2.0 | 17.268 | 2 | 43.380 | 17.427 | 33.320 | 2 |
| 2025-09-21T11:46:00 | 55.786837 | 7.310143 | 2.0 | 17.266 | 2 | 42.902 | 17.428 | 32.909 | 2 |
| 2025-09-21T11:47:00 | 55.784492 | 7.309985 | 2.0 | 17.261 | 2 | 43.198 | 17.426 | 33.164 | 2 |
| 2025-09-21T11:48:00 | 55.782206 | 7.310019 | 2.0 | 17.257 | 2 | 43.569 | 17.422 | 33.486 | 2 |
| 2025-09-21T11:49:00 | 55.779922 | 7.310148 | 2.0 | 17.253 | 2 | 43.294 | 17.418 | 33.253 | 2 |
| 2025-09-21T11:50:00 | 55.777599 | 7.310123 | 2.0 | 17.252 | 2 | 43.317 | 17.415 | 33.276 | 2 |
| 2025-09-21T11:51:00 | 55.775352 | 7.310227 | 2.0 | 17.253 | 2 | 43.355 | 17.413 | 33.310 | 2 |
| 2025-09-21T11:52:00 | 55.773176 | 7.310117 | 2.0 | 17.254 | 2 | 43.200 | 17.413 | 33.177 | 2 |
| 2025-09-21T11:53:00 | 55.770731 | 7.309855 | 2.0 | 17.257 | 2 | 43.379 | 17.417 | 33.327 | 2 |
| 2025-09-21T11:54:00 | 55.768332 | 7.309977 | 2.0 | 17.265 | 2 | 42.542 | 17.419 | 32.608 | 2 |
| 2025-09-21T11:55:00 | 55.765982 | 7.310148 | 2.0 | 17.278 | 2 | 42.445 | 17.428 | 32.518 | 2 |
| 2025-09-21T11:56:00 | 55.763704 | 7.310094 | 2.0 | 17.279 | 2 | 42.914 | 17.438 | 32.911 | 2 |
| 2025-09-21T11:57:00 | 55.761462 | 7.310165 | 2.0 | 17.277 | 2 | 42.338 | 17.438 | 32.418 | 2 |
| 2025-09-21T11:58:00 | 55.759412 | 7.310339 | 2.0 | 17.277 | 2 | 42.135 | 17.438 | 32.245 | 2 |
| 2025-09-21T12:00:00 | 55.754773 | 7.310035 | 2.0 | 17.289 | 2 | 43.214 | 17.445 | 33.163 | 2 |
| 2025-09-21T12:01:00 | 55.752400 | 7.309990 | 2.0 | 17.287 | 2 | 42.544 | 17.448 | 32.586 | 2 |
| 2025-09-21T12:02:00 | 55.750022 | 7.310070 | 2.0 | 17.286 | 2 | 42.543 | 17.448 | 32.585 | 2 |
| 2025-09-21T12:03:00 | 55.747730 | 7.310075 | 2.0 | 17.282 | 2 | 43.206 | 17.445 | 33.156 | 2 |
| 2025-09-21T12:04:00 | 55.745561 | 7.310278 | 2.0 | 17.280 | 2 | 43.021 | 17.441 | 33.000 | 2 |
| 2025-09-21T12:05:00 | 55.743431 | 7.310641 | 2.0 | 17.277 | 2 | 42.983 | 17.439 | 32.969 | 2 |
| 2025-09-21T12:06:00 | 55.741239 | 7.310770 | 2.0 | 17.280 | 2 | 43.011 | 17.439 | 32.993 | 2 |
| 2025-09-21T12:07:00 | 55.739009 | 7.310875 | 2.0 | 17.274 | 2 | 43.346 | 17.439 | 33.281 | 2 |
| 2025-09-21T12:08:00 | 55.736701 | 7.310807 | 2.0 | 17.275 | 2 | 42.625 | 17.434 | 32.667 | 2 |
| 2025-09-21T12:09:00 | 55.734547 | 7.311055 | 2.0 | 17.273 | 2 | 42.372 | 17.436 | 32.449 | 2 |
| 2025-09-21T12:10:00 | 55.732372 | 7.311230 | 2.0 | 17.272 | 2 | 42.979 | 17.434 | 32.970 | 2 |
| 2025-09-21T12:11:00 | 55.730076 | 7.311224 | 2.0 | 17.270 | 2 | 43.504 | 17.432 | 33.422 | 2 |
| 2025-09-21T12:12:00 | 55.727822 | 7.311318 | 2.0 | 17.274 | 2 | 43.476 | 17.431 | 33.399 | 2 |
| 2025-09-21T12:13:00 | 55.725509 | 7.311548 | 2.0 | 17.271 | 2 | 43.443 | 17.433 | 33.369 | 2 |
| 2025-09-21T12:14:00 | 55.723198 | 7.311608 | 2.0 | 17.271 | 2 | 43.398 | 17.432 | 33.331 | 2 |
| 2025-09-21T12:15:00 | 55.720897 | 7.311932 | 2.0 | 17.263 | 2 | 43.362 | 17.431 | 33.301 | 2 |
| 2025-09-21T12:16:00 | 55.718643 | 7.312240 | 2.0 | 17.266 | 2 | 43.343 | 17.423 | 33.291 | 2 |
| 2025-09-21T12:17:00 | 55.716354 | 7.312065 | 2.0 | 17.272 | 2 | 43.235 | 17.428 | 33.195 | 2 |
| 2025-09-21T12:18:00 | 55.714047 | 7.312264 | 2.0 | 17.277 | 2 | 43.219 | 17.434 | 33.176 | 2 |
| 2025-09-21T12:19:00 | 55.711751 | 7.312307 | 2.0 | 17.278 | 2 | 43.316 | 17.437 | 33.257 | 2 |
| 2025-09-21T12:20:00 | 55.709384 | 7.312507 | 2.0 | 17.274 | 2 | 43.341 | 17.437 | 33.278 | 2 |
| 2025-09-21T12:21:00 | 55.707101 | 7.312733 | 2.0 | 17.267 | 2 | 43.346 | 17.433 | 33.286 | 2 |
| 2025-09-21T12:22:00 | 55.704724 | 7.312543 | 2.0 | 17.265 | 2 | 43.495 | 17.428 | 33.418 | 2 |
| 2025-09-21T12:23:00 | 55.702415 | 7.312367 | 2.0 | 17.265 | 2 | 43.516 | 17.425 | 33.438 | 2 |
| 2025-09-21T12:24:00 | 55.700156 | 7.312370 | 2.0 | 17.266 | 2 | 43.446 | 17.426 | 33.377 | 2 |
| 2025-09-21T12:25:00 | 55.697901 | 7.312392 | 2.0 | 17.265 | 2 | 43.441 | 17.425 | 33.374 | 2 |
| 2025-09-21T12:26:00 | 55.695782 | 7.312452 | 2.0 | 17.268 | 2 | 43.428 | 17.426 | 33.362 | 2 |
| 2025-09-21T12:27:00 | 55.693636 | 7.312120 | 2.0 | 17.273 | 2 | 43.419 | 17.429 | 33.352 | 2 |
| 2025-09-21T12:28:00 | 55.691520 | 7.312066 | 2.0 | 17.279 | 2 | 43.395 | 17.433 | 33.328 | 2 |
| 2025-09-21T12:29:00 | 55.689471 | 7.312144 | 2.0 | 17.287 | 2 | 43.351 | 17.440 | 33.284 | 2 |
| 2025-09-21T12:30:00 | 55.687299 | 7.312194 | 2.0 | 17.285 | 2 | 43.347 | 17.446 | 33.276 | 2 |
| 2025-09-21T12:31:00 | 55.685158 | 7.311943 | 2.0 | 17.287 | 2 | 43.315 | 17.445 | 33.249 | 2 |
| 2025-09-21T12:32:00 | 55.683065 | 7.311973 | 2.0 | 17.290 | 2 | 43.145 | 17.447 | 33.102 | 2 |
| 2025-09-21T12:33:00 | 55.680911 | 7.311921 | 2.0 | 17.292 | 2 | 43.246 | 17.451 | 33.185 | 2 |
| 2025-09-21T12:34:00 | 55.678833 | 7.311891 | 2.0 | 17.291 | 2 | 43.198 | 17.452 | 33.143 | 2 |
| 2025-09-21T12:35:00 | 55.676795 | 7.311852 | 2.0 | 17.285 | 2 | 43.204 | 17.450 | 33.150 | 2 |
| 2025-09-21T12:36:00 | 55.674686 | 7.311688 | 2.0 | 17.298 | 2 | 43.125 | 17.447 | 33.085 | 2 |
| 2025-09-21T12:37:00 | 55.672527 | 7.311486 | 2.0 | 17.306 | 2 | 43.013 | 17.459 | 32.979 | 2 |
| 2025-09-21T12:38:00 | 55.670410 | 7.311645 | 2.0 | 17.316 | 2 | 42.953 | 17.466 | 32.922 | 2 |
| 2025-09-21T12:39:00 | 55.668333 | 7.311546 | 2.0 | 17.318 | 2 | 42.972 | 17.476 | 32.930 | 2 |
| 2025-09-21T12:40:00 | 55.666180 | 7.311311 | 2.0 | 17.331 | 2 | 42.954 | 17.479 | 32.912 | 2 |
| 2025-09-21T12:41:00 | 55.664102 | 7.311166 | 2.0 | 17.336 | 2 | 42.862 | 17.491 | 32.824 | 2 |
| 2025-09-21T12:42:00 | 55.661965 | 7.311222 | 2.0 | 17.343 | 2 | 42.754 | 17.496 | 32.727 | 2 |
| 2025-09-21T12:43:00 | 55.659861 | 7.311396 | 2.0 | 17.351 | 2 | 42.850 | 17.504 | 32.803 | 2 |
| 2025-09-21T12:44:00 | 55.657744 | 7.311247 | 2.0 | 17.353 | 2 | 42.803 | 17.512 | 32.756 | 2 |
| 2025-09-21T12:45:00 | 55.655651 | 7.311106 | 2.0 | 17.354 | 2 | 42.763 | 17.511 | 32.723 | 2 |
| 2025-09-21T12:46:00 | 55.653551 | 7.310813 | 2.0 | 17.359 | 2 | 42.753 | 17.514 | 32.712 | 2 |
| 2025-09-21T12:47:00 | 55.651434 | 7.311031 | 2.0 | 17.364 | 2 | 42.745 | 17.519 | 32.701 | 2 |
| 2025-09-21T12:48:00 | 55.649234 | 7.311025 | 2.0 | 17.366 | 2 | 42.253 | 17.523 | 32.278 | 2 |
| 2025-09-21T12:49:00 | 55.647204 | 7.310871 | 2.0 | 17.363 | 2 | 42.710 | 17.525 | 32.666 | 2 |
| 2025-09-21T12:50:00 | 55.645134 | 7.310600 | 2.0 | 17.367 | 2 | 42.583 | 17.523 | 32.559 | 2 |
| 2025-09-21T12:51:00 | 55.643029 | 7.310472 | 2.0 | 17.368 | 2 | 42.462 | 17.527 | 32.453 | 2 |
| 2025-09-21T12:52:00 | 55.640927 | 7.310434 | 2.0 | 17.369 | 2 | 42.695 | 17.528 | 32.651 | 2 |
| 2025-09-21T12:53:00 | 55.638791 | 7.310389 | 2.0 | 17.368 | 2 | 42.274 | 17.528 | 32.292 | 2 |
| 2025-09-21T12:54:00 | 55.636766 | 7.310354 | 2.0 | 17.368 | 2 | 42.550 | 17.528 | 32.527 | 2 |
| 2025-09-21T12:55:00 | 55.634804 | 7.310133 | 2.0 | 17.367 | 2 | 42.700 | 17.527 | 32.656 | 2 |
| 2025-09-21T12:57:00 | 55.630701 | 7.309625 | 2.0 | 17.369 | 2 | 42.328 | 17.527 | 32.339 | 2 |
| 2025-09-21T12:58:00 | 55.628550 | 7.309569 | 2.0 | 17.365 | 2 | 42.218 | 17.529 | 32.243 | 2 |
| 2025-09-21T12:59:00 | 55.626438 | 7.309448 | 2.0 | 17.364 | 2 | 42.517 | 17.525 | 32.501 | 2 |
| 2025-09-21T13:00:00 | 55.624426 | 7.309229 | 2.0 | 17.365 | 2 | 42.671 | 17.526 | 32.632 | 2 |
| 2025-09-21T13:01:00 | 55.622404 | 7.308949 | 2.0 | 17.368 | 2 | 42.669 | 17.526 | 32.630 | 2 |
| 2025-09-21T13:02:00 | 55.620261 | 7.308910 | 2.0 | 17.375 | 2 | 42.635 | 17.528 | 32.600 | 2 |
| 2025-09-21T13:03:00 | 55.618132 | 7.308806 | 2.0 | 17.379 | 2 | 42.600 | 17.536 | 32.563 | 2 |
| 2025-09-21T13:04:00 | 55.615980 | 7.308651 | 2.0 | 17.384 | 2 | 42.575 | 17.539 | 32.540 | 2 |
| 2025-09-21T13:05:00 | 55.613800 | 7.308503 | 2.0 | 17.386 | 2 | 42.561 | 17.544 | 32.524 | 2 |
| 2025-09-21T13:06:00 | 55.611742 | 7.308519 | 2.0 | 17.386 | 2 | 42.543 | 17.544 | 32.508 | 2 |
| 2025-09-21T13:07:00 | 55.609634 | 7.308458 | 2.0 | 17.388 | 2 | 42.527 | 17.545 | 32.494 | 2 |
| 2025-09-21T13:08:00 | 55.607509 | 7.308560 | 2.0 | 17.390 | 2 | 42.509 | 17.547 | 32.477 | 2 |
| 2025-09-21T13:09:00 | 55.605311 | 7.308438 | 2.0 | 17.392 | 2 | 42.495 | 17.550 | 32.463 | 2 |
| 2025-09-21T13:10:00 | 55.603102 | 7.308414 | 2.0 | 17.395 | 2 | 42.502 | 17.552 | 32.467 | 2 |
| 2025-09-21T13:11:00 | 55.600892 | 7.308480 | 2.0 | 17.396 | 2 | 42.514 | 17.554 | 32.476 | 2 |
| 2025-09-21T13:12:00 | 55.598684 | 7.308463 | 2.0 | 17.395 | 2 | 42.528 | 17.555 | 32.487 | 2 |
| 2025-09-21T13:13:00 | 55.596471 | 7.308527 | 2.0 | 17.393 | 2 | 42.539 | 17.555 | 32.496 | 2 |
| 2025-09-21T13:14:00 | 55.594260 | 7.308558 | 2.0 | 17.391 | 2 | 42.553 | 17.552 | 32.511 | 2 |
| 2025-09-21T13:15:00 | 55.592142 | 7.308503 | 2.0 | 17.388 | 2 | 42.563 | 17.551 | 32.520 | 2 |
| 2025-09-21T13:16:00 | 55.589973 | 7.308463 | 2.0 | 17.383 | 2 | 42.576 | 17.547 | 32.534 | 2 |
| 2025-09-21T13:17:00 | 55.587829 | 7.308503 | 2.0 | 17.377 | 2 | 42.605 | 17.542 | 32.563 | 2 |
| 2025-09-21T13:18:00 | 55.585612 | 7.308433 | 2.0 | 17.371 | 2 | 42.625 | 17.537 | 32.584 | 2 |
| 2025-09-21T13:19:00 | 55.583423 | 7.308405 | 2.0 | 17.365 | 2 | 42.649 | 17.531 | 32.609 | 2 |
| 2025-09-21T13:20:00 | 55.581156 | 7.308561 | 2.0 | 17.355 | 2 | 42.690 | 17.525 | 32.649 | 2 |
| 2025-09-21T13:21:00 | 55.579035 | 7.308511 | 2.0 | 17.345 | 2 | 42.731 | 17.515 | 32.692 | 2 |
| 2025-09-21T13:22:00 | 55.576982 | 7.308378 | 2.0 | 17.334 | 2 | 42.772 | 17.504 | 32.736 | 2 |
| 2025-09-21T13:23:00 | 55.574821 | 7.308421 | 2.0 | 17.328 | 2 | 42.811 | 17.494 | 32.778 | 2 |
| 2025-09-21T13:24:00 | 55.572574 | 7.308496 | 2.0 | 17.318 | 2 | 42.844 | 17.488 | 32.811 | 2 |
| 2025-09-21T13:25:00 | 55.570360 | 7.308522 | 2.0 | 17.306 | 2 | 42.902 | 17.478 | 32.868 | 2 |
| 2025-09-21T13:26:00 | 55.568156 | 7.308502 | 2.0 | 17.288 | 2 | 42.981 | 17.466 | 32.946 | 2 |
| 2025-09-21T13:27:00 | 55.565979 | 7.308575 | 2.0 | 17.285 | 2 | 43.154 | 17.448 | 33.109 | 2 |
| 2025-09-21T13:28:00 | 55.563787 | 7.308462 | 2.0 | 17.283 | 2 | 43.175 | 17.447 | 33.128 | 2 |
| 2025-09-21T13:29:00 | 55.561598 | 7.308536 | 2.0 | 17.280 | 2 | 43.170 | 17.444 | 33.126 | 2 |
| 2025-09-21T13:30:00 | 55.559422 | 7.308702 | 2.0 | 17.277 | 2 | 43.175 | 17.440 | 33.133 | 2 |
| 2025-09-21T13:31:00 | 55.557276 | 7.308705 | 2.0 | 17.276 | 2 | 43.189 | 17.438 | 33.147 | 2 |
| 2025-09-21T13:32:00 | 55.555130 | 7.308667 | 2.0 | 17.275 | 2 | 43.207 | 17.436 | 33.164 | 2 |
| 2025-09-21T13:33:00 | 55.553023 | 7.308531 | 2.0 | 17.292 | 2 | 43.195 | 17.439 | 33.151 | 2 |
| 2025-09-21T13:34:00 | 55.550935 | 7.308660 | 2.0 | 17.295 | 2 | 43.109 | 17.452 | 33.067 | 2 |
| 2025-09-21T13:35:00 | 55.548814 | 7.309457 | 2.0 | 17.303 | 2 | 43.085 | 17.458 | 33.041 | 2 |
| 2025-09-21T13:36:00 | 55.546769 | 7.310373 | 2.0 | 17.310 | 2 | 42.682 | 17.464 | 32.691 | 2 |
| 2025-09-21T13:37:00 | 55.544638 | 7.311306 | 2.0 | 17.313 | 2 | 43.073 | 17.471 | 33.021 | 2 |
| 2025-09-21T13:38:00 | 55.542477 | 7.312419 | 2.0 | 17.312 | 2 | 43.060 | 17.473 | 33.008 | 2 |
| 2025-09-21T13:39:00 | 55.540264 | 7.313174 | 2.0 | 17.311 | 2 | 43.042 | 17.472 | 32.993 | 2 |
| 2025-09-21T13:40:00 | 55.538075 | 7.314046 | 2.0 | 17.308 | 2 | 43.030 | 17.471 | 32.984 | 2 |
| 2025-09-21T13:41:00 | 55.536023 | 7.315162 | 2.0 | 17.308 | 2 | 43.017 | 17.469 | 32.974 | 2 |
| 2025-09-21T13:42:00 | 55.533856 | 7.316123 | 2.0 | 17.310 | 2 | 43.008 | 17.469 | 32.967 | 2 |
| 2025-09-21T13:43:00 | 55.531704 | 7.316953 | 2.0 | 17.310 | 2 | 43.010 | 17.470 | 32.967 | 2 |
| 2025-09-21T13:44:00 | 55.529588 | 7.318025 | 2.0 | 17.305 | 2 | 43.006 | 17.470 | 32.964 | 2 |
| 2025-09-21T13:45:00 | 55.527392 | 7.319051 | 2.0 | 17.301 | 2 | 43.022 | 17.466 | 32.981 | 2 |
| 2025-09-21T13:46:00 | 55.525201 | 7.319915 | 2.0 | 17.297 | 2 | 43.022 | 17.462 | 32.984 | 2 |
| 2025-09-21T13:47:00 | 55.522902 | 7.320714 | 2.0 | 17.291 | 2 | 43.031 | 17.457 | 32.996 | 2 |
| 2025-09-21T13:48:00 | 55.520643 | 7.321779 | 2.0 | 17.283 | 2 | 43.043 | 17.451 | 33.011 | 2 |
| 2025-09-21T13:49:00 | 55.518449 | 7.322874 | 2.0 | 17.271 | 2 | 43.071 | 17.443 | 33.042 | 2 |
| 2025-09-21T13:50:00 | 55.516205 | 7.323862 | 2.0 | 17.270 | 2 | 43.264 | 17.432 | 33.216 | 2 |
| 2025-09-21T13:51:00 | 55.514016 | 7.325215 | 2.0 | 17.286 | 2 | 43.397 | 17.434 | 33.329 | 2 |
| 2025-09-21T13:52:00 | 55.511692 | 7.326076 | 2.0 | 17.289 | 2 | 43.537 | 17.446 | 33.439 | 2 |
| 2025-09-21T13:53:00 | 55.509336 | 7.326880 | 2.0 | 17.292 | 2 | 43.557 | 17.450 | 33.453 | 2 |
| 2025-09-21T13:54:00 | 55.506982 | 7.327995 | 2.0 | 17.298 | 2 | 43.565 | 17.454 | 33.457 | 2 |
| 2025-09-21T13:55:00 | 55.504637 | 7.329106 | 2.0 | 17.304 | 2 | 43.575 | 17.459 | 33.461 | 2 |
| 2025-09-21T13:56:00 | 55.502253 | 7.329992 | 2.0 | 17.309 | 2 | 43.583 | 17.464 | 33.464 | 2 |
| 2025-09-21T13:57:00 | 55.499874 | 7.330937 | 2.0 | 17.313 | 2 | 43.591 | 17.469 | 33.466 | 2 |
| 2025-09-21T13:58:00 | 55.497503 | 7.332127 | 2.0 | 17.320 | 2 | 43.600 | 17.475 | 33.469 | 2 |
| 2025-09-21T13:59:00 | 55.495164 | 7.333302 | 2.0 | 17.327 | 2 | 43.611 | 17.480 | 33.475 | 2 |
| 2025-09-21T14:00:00 | 55.492790 | 7.334184 | 2.0 | 17.333 | 2 | 43.623 | 17.488 | 33.478 | 2 |
| 2025-09-21T14:01:00 | 55.490494 | 7.335155 | 2.0 | 17.339 | 2 | 43.632 | 17.494 | 33.481 | 2 |
| 2025-09-21T14:02:00 | 55.488155 | 7.336286 | 2.0 | 17.349 | 2 | 43.644 | 17.502 | 33.485 | 2 |
| 2025-09-21T14:03:00 | 55.485853 | 7.337303 | 2.0 | 17.355 | 2 | 43.658 | 17.510 | 33.490 | 2 |
| 2025-09-21T14:04:00 | 55.483562 | 7.338380 | 2.0 | 17.360 | 2 | 43.666 | 17.515 | 33.493 | 2 |
| 2025-09-21T14:05:00 | 55.481290 | 7.339353 | 2.0 | 17.367 | 2 | 43.676 | 17.521 | 33.496 | 2 |
| 2025-09-21T14:06:00 | 55.478938 | 7.340097 | 2.0 | 17.374 | 2 | 43.686 | 17.529 | 33.498 | 2 |
| 2025-09-21T14:07:00 | 55.476673 | 7.341338 | 2.0 | 17.380 | 2 | 43.696 | 17.534 | 33.503 | 2 |
| 2025-09-21T14:08:00 | 55.474295 | 7.342340 | 2.0 | 17.386 | 2 | 43.707 | 17.541 | 33.507 | 2 |
| 2025-09-21T14:09:00 | 55.471936 | 7.343266 | 2.0 | 17.390 | 2 | 43.716 | 17.547 | 33.509 | 2 |
| 2025-09-21T14:10:00 | 55.469583 | 7.344405 | 2.0 | 17.392 | 2 | 43.723 | 17.551 | 33.512 | 2 |
| 2025-09-21T14:11:00 | 55.467230 | 7.345411 | 2.0 | 17.390 | 2 | 43.723 | 17.551 | 33.512 | 2 |
| 2025-09-21T14:12:00 | 55.464932 | 7.346350 | 2.0 | 17.389 | 2 | 43.719 | 17.550 | 33.509 | 2 |
| 2025-09-21T14:13:00 | 55.462641 | 7.347366 | 2.0 | 17.391 | 2 | 43.718 | 17.550 | 33.509 | 2 |
| 2025-09-21T14:14:00 | 55.460295 | 7.348610 | 2.0 | 17.392 | 2 | 43.718 | 17.551 | 33.508 | 2 |
| 2025-09-21T14:15:00 | 55.458007 | 7.349629 | 2.0 | 17.396 | 2 | 43.718 | 17.553 | 33.506 | 2 |
| 2025-09-21T14:16:00 | 55.455672 | 7.350567 | 2.0 | 17.397 | 2 | 43.717 | 17.556 | 33.503 | 2 |
| 2025-09-21T14:17:00 | 55.453368 | 7.351698 | 2.0 | 17.397 | 2 | 43.716 | 17.557 | 33.501 | 2 |
| 2025-09-21T14:18:00 | 55.451051 | 7.352687 | 2.0 | 17.397 | 2 | 43.713 | 17.556 | 33.499 | 2 |
| 2025-09-21T14:19:00 | 55.448659 | 7.353653 | 2.0 | 17.397 | 2 | 43.710 | 17.557 | 33.496 | 2 |
| 2025-09-21T14:20:00 | 55.446305 | 7.354626 | 2.0 | 17.396 | 2 | 43.708 | 17.556 | 33.495 | 2 |
| 2025-09-21T14:21:00 | 55.443972 | 7.355614 | 2.0 | 17.398 | 2 | 43.706 | 17.557 | 33.492 | 2 |
| 2025-09-21T14:22:00 | 55.441631 | 7.356721 | 2.0 | 17.398 | 2 | 43.707 | 17.558 | 33.493 | 2 |
| 2025-09-21T14:23:00 | 55.439367 | 7.357876 | 2.0 | 17.400 | 2 | 43.704 | 17.560 | 33.488 | 2 |
| 2025-09-21T14:24:00 | 55.437086 | 7.358803 | 2.0 | 17.403 | 2 | 43.704 | 17.561 | 33.487 | 2 |
| 2025-09-21T14:25:00 | 55.434782 | 7.359954 | 2.0 | 17.411 | 2 | 43.708 | 17.564 | 33.488 | 2 |
| 2025-09-21T14:26:00 | 55.432489 | 7.360905 | 2.0 | 17.419 | 2 | 43.718 | 17.572 | 33.490 | 2 |
| 2025-09-21T14:27:00 | 55.430198 | 7.361867 | 2.0 | 17.425 | 2 | 43.731 | 17.579 | 33.496 | 2 |
| 2025-09-21T14:28:00 | 55.427951 | 7.363194 | 2.0 | 17.429 | 2 | 43.738 | 17.585 | 33.497 | 2 |
| 2025-09-21T14:29:00 | 55.425713 | 7.364698 | 2.0 | 17.433 | 2 | 43.746 | 17.589 | 33.500 | 2 |
| 2025-09-21T14:30:00 | 55.423482 | 7.366333 | 2.0 | 17.441 | 2 | 43.757 | 17.594 | 33.506 | 2 |
| 2025-09-21T14:31:00 | 55.421390 | 7.368640 | 2.0 | 17.445 | 2 | 43.772 | 17.601 | 33.513 | 2 |
| 2025-09-21T14:32:00 | 55.419173 | 7.370730 | 2.0 | 17.447 | 2 | 43.783 | 17.606 | 33.518 | 2 |
| 2025-09-21T14:33:00 | 55.417089 | 7.372920 | 2.0 | 17.437 | 2 | 43.780 | 17.604 | 33.517 | 2 |
| 2025-09-21T14:34:00 | 55.415016 | 7.375209 | 2.0 | 17.432 | 2 | 43.754 | 17.596 | 33.501 | 2 |
| 2025-09-21T14:35:00 | 55.412888 | 7.377212 | 2.0 | 17.432 | 2 | 43.743 | 17.592 | 33.495 | 2 |
| 2025-09-21T14:36:00 | 55.410657 | 7.379321 | 2.0 | 17.430 | 2 | 43.736 | 17.593 | 33.488 | 2 |
| 2025-09-21T14:37:00 | 55.408559 | 7.381659 | 2.0 | 17.430 | 2 | 43.732 | 17.590 | 33.488 | 2 |
| 2025-09-21T14:38:00 | 55.406442 | 7.383998 | 2.0 | 17.431 | 2 | 43.726 | 17.591 | 33.482 | 2 |
| 2025-09-21T14:39:00 | 55.404328 | 7.386136 | 2.0 | 17.431 | 2 | 43.722 | 17.591 | 33.478 | 2 |
| 2025-09-21T14:40:00 | 55.402168 | 7.388124 | 2.0 | 17.432 | 2 | 43.719 | 17.591 | 33.476 | 2 |
| 2025-09-21T14:41:00 | 55.400045 | 7.390302 | 2.0 | 17.431 | 2 | 43.717 | 17.592 | 33.473 | 2 |
| 2025-09-21T14:42:00 | 55.397904 | 7.392527 | 2.0 | 17.430 | 2 | 43.714 | 17.592 | 33.470 | 2 |
| 2025-09-21T14:43:00 | 55.395763 | 7.394605 | 2.0 | 17.428 | 2 | 43.709 | 17.591 | 33.467 | 2 |
| 2025-09-21T14:44:00 | 55.393714 | 7.396880 | 2.0 | 17.426 | 2 | 43.694 | 17.589 | 33.456 | 2 |
| 2025-09-21T14:45:00 | 55.391644 | 7.399037 | 2.0 | 17.428 | 2 | 43.672 | 17.587 | 33.439 | 2 |
| 2025-09-21T14:46:00 | 55.389495 | 7.400993 | 2.0 | 17.426 | 2 | 43.692 | 17.588 | 33.455 | 2 |
| 2025-09-21T14:47:00 | 55.387330 | 7.403131 | 2.0 | 17.428 | 2 | 43.653 | 17.587 | 33.422 | 2 |
| 2025-09-21T14:48:00 | 55.385140 | 7.405396 | 2.0 | 17.433 | 2 | 43.687 | 17.590 | 33.449 | 2 |
| 2025-09-21T14:49:00 | 55.382940 | 7.407476 | 2.0 | 17.430 | 2 | 43.687 | 17.592 | 33.447 | 2 |
| 2025-09-21T14:50:00 | 55.380793 | 7.409787 | 2.0 | 17.430 | 2 | 43.683 | 17.591 | 33.445 | 2 |
| 2025-09-21T14:51:00 | 55.378641 | 7.411966 | 2.0 | 17.432 | 2 | 43.679 | 17.592 | 33.440 | 2 |
| 2025-09-21T14:52:00 | 55.376509 | 7.414096 | 2.0 | 17.432 | 2 | 43.677 | 17.593 | 33.438 | 2 |
| 2025-09-21T14:53:00 | 55.374324 | 7.416239 | 2.0 | 17.433 | 2 | 43.676 | 17.594 | 33.436 | 2 |
| 2025-09-21T14:54:00 | 55.372183 | 7.418485 | 2.0 | 17.431 | 2 | 43.669 | 17.594 | 33.430 | 2 |
| 2025-09-21T14:55:00 | 55.370087 | 7.420684 | 2.0 | 17.430 | 2 | 43.659 | 17.592 | 33.423 | 2 |
| 2025-09-21T14:56:00 | 55.368064 | 7.422894 | 2.0 | 17.432 | 2 | 43.653 | 17.591 | 33.419 | 2 |
| 2025-09-21T14:57:00 | 55.365892 | 7.424981 | 2.0 | 17.430 | 2 | 43.650 | 17.591 | 33.416 | 2 |
| 2025-09-21T14:58:00 | 55.363888 | 7.427111 | 2.0 | 17.428 | 2 | 43.642 | 17.590 | 33.410 | 2 |
| 2025-09-21T14:59:00 | 55.361763 | 7.429305 | 2.0 | 17.427 | 2 | 43.638 | 17.589 | 33.408 | 2 |
| 2025-09-21T15:00:00 | 55.359598 | 7.431457 | 2.0 | 17.429 | 2 | 43.632 | 17.588 | 33.404 | 2 |
| 2025-09-21T15:01:00 | 55.357467 | 7.433592 | 2.0 | 17.425 | 2 | 43.630 | 17.589 | 33.401 | 2 |
| 2025-09-21T15:02:00 | 55.355301 | 7.435740 | 2.0 | 17.421 | 2 | 43.620 | 17.585 | 33.396 | 2 |
| 2025-09-21T15:03:00 | 55.353134 | 7.437736 | 2.0 | 17.416 | 2 | 43.604 | 17.581 | 33.385 | 2 |
| 2025-09-21T15:04:00 | 55.350974 | 7.440007 | 2.0 | 17.408 | 2 | 43.589 | 17.574 | 33.378 | 2 |
| 2025-09-21T15:05:00 | 55.348901 | 7.442438 | 2.0 | 17.401 | 2 | 43.571 | 17.568 | 33.368 | 2 |
| 2025-09-21T15:06:00 | 55.346735 | 7.444559 | 2.0 | 17.397 | 2 | 43.551 | 17.561 | 33.356 | 2 |
| 2025-09-21T15:07:00 | 55.344478 | 7.446606 | 2.0 | 17.390 | 2 | 43.537 | 17.557 | 33.348 | 2 |
| 2025-09-21T15:08:00 | 55.342238 | 7.448841 | 2.0 | 17.383 | 2 | 43.411 | 17.551 | 33.245 | 2 |
| 2025-09-21T15:09:00 | 55.340109 | 7.451077 | 2.0 | 17.378 | 2 | 43.269 | 17.543 | 33.130 | 2 |
| 2025-09-21T15:10:00 | 55.337995 | 7.453378 | 2.0 | 17.368 | 2 | 43.332 | 17.537 | 33.189 | 2 |
| 2025-09-21T15:11:00 | 55.335899 | 7.455592 | 2.0 | 17.360 | 2 | 43.385 | 17.528 | 33.241 | 2 |
| 2025-09-21T15:12:00 | 55.333729 | 7.457651 | 2.0 | 17.356 | 2 | 43.296 | 17.520 | 33.172 | 2 |
| 2025-09-21T15:13:00 | 55.331575 | 7.459731 | 2.0 | 17.350 | 2 | 43.296 | 17.516 | 33.175 | 2 |
| 2025-09-21T15:14:00 | 55.329455 | 7.461961 | 2.0 | 17.349 | 2 | 43.279 | 17.511 | 33.164 | 2 |
| 2025-09-21T15:15:00 | 55.327263 | 7.464095 | 2.0 | 17.346 | 2 | 43.287 | 17.509 | 33.173 | 2 |
| 2025-09-21T15:16:00 | 55.325194 | 7.466437 | 2.0 | 17.344 | 2 | 43.280 | 17.507 | 33.169 | 2 |
| 2025-09-21T15:17:00 | 55.323026 | 7.468595 | 2.0 | 17.343 | 2 | 43.255 | 17.505 | 33.149 | 2 |
| 2025-09-21T15:18:00 | 55.320803 | 7.470706 | 2.0 | 17.345 | 2 | 43.298 | 17.506 | 33.185 | 2 |
| 2025-09-21T15:19:00 | 55.318624 | 7.472976 | 2.0 | 17.352 | 2 | 43.293 | 17.509 | 33.178 | 2 |
| 2025-09-21T15:20:00 | 55.316484 | 7.475170 | 2.0 | 17.359 | 2 | 43.303 | 17.513 | 33.183 | 2 |
| 2025-09-21T15:21:00 | 55.314309 | 7.477425 | 2.0 | 17.371 | 2 | 43.358 | 17.521 | 33.224 | 2 |
| 2025-09-21T15:22:00 | 55.312111 | 7.479658 | 2.0 | 17.380 | 2 | 43.326 | 17.531 | 33.188 | 2 |
| 2025-09-21T15:23:00 | 55.309968 | 7.481872 | 2.0 | 17.390 | 2 | 43.390 | 17.542 | 33.234 | 2 |
| 2025-09-21T15:24:00 | 55.307805 | 7.484040 | 2.0 | 17.398 | 2 | 43.409 | 17.551 | 33.243 | 2 |
| 2025-09-21T15:25:00 | 55.305608 | 7.486254 | 2.0 | 17.403 | 2 | 43.422 | 17.558 | 33.248 | 2 |
| 2025-09-21T15:26:00 | 55.303526 | 7.488398 | 2.0 | 17.404 | 2 | 43.424 | 17.562 | 33.247 | 2 |
| 2025-09-21T15:27:00 | 55.301338 | 7.490637 | 2.0 | 17.403 | 2 | 43.403 | 17.564 | 33.227 | 2 |
| 2025-09-21T15:28:00 | 55.299177 | 7.492810 | 2.0 | 17.405 | 2 | 43.435 | 17.564 | 33.255 | 2 |
| 2025-09-21T15:29:00 | 55.296983 | 7.494839 | 2.0 | 17.401 | 2 | 43.404 | 17.565 | 33.227 | 2 |
| 2025-09-21T15:30:00 | 55.294761 | 7.497018 | 2.0 | 17.401 | 2 | 43.424 | 17.562 | 33.247 | 2 |
| 2025-09-21T15:31:00 | 55.292583 | 7.499433 | 2.0 | 17.399 | 2 | 43.421 | 17.561 | 33.245 | 2 |
| 2025-09-21T15:32:00 | 55.290347 | 7.501871 | 2.0 | 17.399 | 2 | 43.415 | 17.560 | 33.241 | 2 |
| 2025-09-21T15:33:00 | 55.288080 | 7.503952 | 2.0 | 17.400 | 2 | 43.421 | 17.561 | 33.245 | 2 |
| 2025-09-21T15:34:00 | 55.285964 | 7.506147 | 2.0 | 17.400 | 2 | 43.422 | 17.561 | 33.246 | 2 |
| 2025-09-21T15:35:00 | 55.283764 | 7.508378 | 2.0 | 17.404 | 2 | 43.424 | 17.563 | 33.246 | 2 |
| 2025-09-21T15:36:00 | 55.281522 | 7.510552 | 2.0 | 17.407 | 2 | 43.428 | 17.565 | 33.248 | 2 |
| 2025-09-21T15:37:00 | 55.279375 | 7.512639 | 2.0 | 17.411 | 2 | 43.435 | 17.568 | 33.251 | 2 |
| 2025-09-21T15:38:00 | 55.277181 | 7.514855 | 2.0 | 17.414 | 2 | 43.444 | 17.572 | 33.256 | 2 |
| 2025-09-21T15:39:00 | 55.274960 | 7.517188 | 2.0 | 17.415 | 2 | 43.449 | 17.575 | 33.258 | 2 |
| 2025-09-21T15:40:00 | 55.272671 | 7.519420 | 2.0 | 17.423 | 2 | 43.455 | 17.578 | 33.260 | 2 |
| 2025-09-21T15:41:00 | 55.270448 | 7.521724 | 2.0 | 17.425 | 2 | 43.461 | 17.583 | 33.261 | 2 |
| 2025-09-21T15:42:00 | 55.268174 | 7.523927 | 2.0 | 17.425 | 2 | 43.464 | 17.586 | 33.261 | 2 |
| 2025-09-21T15:43:00 | 55.265970 | 7.526185 | 2.0 | 17.422 | 2 | 43.462 | 17.585 | 33.261 | 2 |
| 2025-09-21T15:44:00 | 55.263770 | 7.528570 | 2.0 | 17.422 | 2 | 43.456 | 17.584 | 33.256 | 2 |
| 2025-09-21T15:45:00 | 55.261480 | 7.530802 | 2.0 | 17.417 | 2 | 43.450 | 17.581 | 33.254 | 2 |
| 2025-09-21T15:46:00 | 55.259269 | 7.533133 | 2.0 | 17.412 | 2 | 43.440 | 17.578 | 33.247 | 2 |
| 2025-09-21T15:47:00 | 55.257083 | 7.535384 | 2.0 | 17.408 | 2 | 43.429 | 17.573 | 33.242 | 2 |
| 2025-09-21T15:48:00 | 55.254851 | 7.537615 | 2.0 | 17.403 | 2 | 43.414 | 17.568 | 33.233 | 2 |
| 2025-09-21T15:49:00 | 55.252622 | 7.539794 | 2.0 | 17.395 | 2 | 43.398 | 17.563 | 33.224 | 2 |
| 2025-09-21T15:50:00 | 55.250387 | 7.541964 | 2.0 | 17.390 | 2 | 43.377 | 17.556 | 33.212 | 2 |
| 2025-09-21T15:51:00 | 55.248119 | 7.544251 | 2.0 | 17.384 | 2 | 43.356 | 17.551 | 33.198 | 2 |
| 2025-09-21T15:52:00 | 55.245838 | 7.546516 | 2.0 | 17.382 | 2 | 43.337 | 17.545 | 33.186 | 2 |
| 2025-09-21T15:53:00 | 55.243553 | 7.548916 | 2.0 | 17.387 | 2 | 43.330 | 17.544 | 33.181 | 2 |
| 2025-09-21T15:54:00 | 55.241268 | 7.551213 | 2.0 | 17.387 | 2 | 43.329 | 17.547 | 33.178 | 2 |
| 2025-09-21T15:55:00 | 55.239055 | 7.553423 | 2.0 | 17.383 | 2 | 43.328 | 17.547 | 33.177 | 2 |
| 2025-09-21T15:56:00 | 55.236811 | 7.555621 | 2.0 | 17.383 | 2 | 43.313 | 17.545 | 33.166 | 2 |
| 2025-09-21T15:57:00 | 55.234529 | 7.557993 | 2.0 | 17.382 | 2 | 43.307 | 17.543 | 33.162 | 2 |
| 2025-09-21T15:58:00 | 55.232268 | 7.560353 | 2.0 | 17.377 | 2 | 43.298 | 17.542 | 33.155 | 2 |
| 2025-09-21T15:59:00 | 55.229995 | 7.562653 | 2.0 | 17.373 | 2 | 43.284 | 17.538 | 33.147 | 2 |
| 2025-09-21T16:00:00 | 55.227755 | 7.564938 | 2.0 | 17.370 | 2 | 43.264 | 17.533 | 33.134 | 2 |
| 2025-09-21T16:01:00 | 55.225514 | 7.567211 | 2.0 | 17.364 | 2 | 43.243 | 17.529 | 33.119 | 2 |
| 2025-09-21T16:02:00 | 55.223218 | 7.569398 | 2.0 | 17.362 | 2 | 43.217 | 17.525 | 33.100 | 2 |
| 2025-09-21T16:03:00 | 55.220964 | 7.571677 | 2.0 | 17.359 | 2 | 43.197 | 17.522 | 33.085 | 2 |
| 2025-09-21T16:04:00 | 55.218762 | 7.573977 | 2.0 | 17.364 | 2 | 43.185 | 17.521 | 33.076 | 2 |
| 2025-09-21T16:05:00 | 55.216521 | 7.576169 | 2.0 | 17.371 | 2 | 43.185 | 17.526 | 33.072 | 2 |
| 2025-09-21T16:06:00 | 55.214330 | 7.578475 | 2.0 | 17.374 | 2 | 43.187 | 17.531 | 33.069 | 2 |
| 2025-09-21T16:07:00 | 55.212106 | 7.580820 | 2.0 | 17.381 | 2 | 43.168 | 17.535 | 33.050 | 2 |
| 2025-09-21T16:08:00 | 55.209792 | 7.583009 | 2.0 | 17.388 | 2 | 43.151 | 17.543 | 33.029 | 2 |
| 2025-09-21T16:09:00 | 55.207593 | 7.585401 | 2.0 | 17.399 | 2 | 43.133 | 17.550 | 33.008 | 2 |
| 2025-09-21T16:10:00 | 55.205275 | 7.587630 | 2.0 | 17.407 | 2 | 43.105 | 17.561 | 32.975 | 2 |
| 2025-09-21T16:11:00 | 55.202957 | 7.589984 | 2.0 | 17.412 | 2 | 43.079 | 17.568 | 32.947 | 2 |
| 2025-09-21T16:12:00 | 55.200706 | 7.592226 | 2.0 | 17.415 | 2 | 43.055 | 17.572 | 32.923 | 2 |
| 2025-09-21T16:13:00 | 55.198391 | 7.594615 | 2.0 | 17.415 | 2 | 43.037 | 17.574 | 32.906 | 2 |
| 2025-09-21T16:14:00 | 55.196146 | 7.597015 | 2.0 | 17.417 | 2 | 43.018 | 17.576 | 32.888 | 2 |
| 2025-09-21T16:15:00 | 55.193900 | 7.599221 | 2.0 | 17.420 | 2 | 42.997 | 17.577 | 32.869 | 2 |
| 2025-09-21T16:16:00 | 55.191565 | 7.601471 | 2.0 | 17.423 | 2 | 42.993 | 17.582 | 32.862 | 2 |
| 2025-09-21T16:17:00 | 55.189274 | 7.603832 | 2.0 | 17.424 | 2 | 43.001 | 17.584 | 32.867 | 2 |
| 2025-09-21T16:18:00 | 55.186999 | 7.606140 | 2.0 | 17.423 | 2 | 43.000 | 17.585 | 32.866 | 2 |
| 2025-09-21T16:19:00 | 55.184738 | 7.608494 | 2.0 | 17.425 | 2 | 42.994 | 17.584 | 32.861 | 2 |
| 2025-09-21T16:20:00 | 55.182418 | 7.610693 | 2.0 | 17.435 | 2 | 43.021 | 17.587 | 32.882 | 2 |
| 2025-09-21T16:21:00 | 55.180136 | 7.612978 | 2.0 | 17.434 | 2 | 43.064 | 17.595 | 32.912 | 2 |
| 2025-09-21T16:22:00 | 55.177871 | 7.615296 | 2.0 | 17.433 | 2 | 43.086 | 17.596 | 32.930 | 2 |
| 2025-09-21T16:23:00 | 55.175583 | 7.617647 | 2.0 | 17.433 | 2 | 43.061 | 17.594 | 32.910 | 2 |
| 2025-09-21T16:24:00 | 55.173241 | 7.619959 | 2.0 | 17.431 | 2 | 43.005 | 17.593 | 32.863 | 2 |
| 2025-09-21T16:25:00 | 55.170977 | 7.622302 | 2.0 | 17.434 | 2 | 42.960 | 17.592 | 32.826 | 2 |
| 2025-09-21T16:26:00 | 55.168689 | 7.624558 | 2.0 | 17.436 | 2 | 42.929 | 17.595 | 32.797 | 2 |
| 2025-09-21T16:27:00 | 55.166413 | 7.626918 | 2.0 | 17.435 | 2 | 42.910 | 17.596 | 32.780 | 2 |
| 2025-09-21T16:28:00 | 55.164136 | 7.629125 | 2.0 | 17.432 | 2 | 42.904 | 17.593 | 32.777 | 2 |
| 2025-09-21T16:29:00 | 55.161867 | 7.631493 | 2.0 | 17.436 | 2 | 42.912 | 17.593 | 32.784 | 2 |
| 2025-09-21T16:30:00 | 55.159633 | 7.633887 | 2.0 | 17.443 | 2 | 42.903 | 17.597 | 32.773 | 2 |
| 2025-09-21T16:31:00 | 55.157309 | 7.636085 | 2.0 | 17.449 | 2 | 42.880 | 17.604 | 32.748 | 2 |
| 2025-09-21T16:32:00 | 55.154947 | 7.638359 | 2.0 | 17.458 | 2 | 42.843 | 17.612 | 32.710 | 2 |
| 2025-09-21T16:33:00 | 55.152729 | 7.640607 | 2.0 | 17.456 | 2 | 42.819 | 17.617 | 32.685 | 2 |
| 2025-09-21T16:34:00 | 55.150462 | 7.642957 | 2.0 | 17.456 | 2 | 42.803 | 17.616 | 32.672 | 2 |
| 2025-09-21T16:35:00 | 55.148111 | 7.645245 | 2.0 | 17.452 | 2 | 42.793 | 17.615 | 32.665 | 2 |
| 2025-09-21T16:36:00 | 55.145785 | 7.647549 | 2.0 | 17.452 | 2 | 42.774 | 17.613 | 32.650 | 2 |
| 2025-09-21T16:37:00 | 55.143473 | 7.649865 | 2.0 | 17.447 | 2 | 42.755 | 17.610 | 32.636 | 2 |
| 2025-09-21T16:38:00 | 55.141221 | 7.652285 | 2.0 | 17.450 | 2 | 42.736 | 17.608 | 32.622 | 2 |
| 2025-09-21T16:39:00 | 55.138933 | 7.654494 | 2.0 | 17.450 | 2 | 42.725 | 17.610 | 32.611 | 2 |
| 2025-09-21T16:40:00 | 55.136633 | 7.656763 | 2.0 | 17.454 | 2 | 42.716 | 17.611 | 32.602 | 2 |
| 2025-09-21T16:41:00 | 55.134337 | 7.659149 | 2.0 | 17.453 | 2 | 42.702 | 17.614 | 32.588 | 2 |
| 2025-09-21T16:42:00 | 55.132013 | 7.661538 | 2.0 | 17.456 | 2 | 42.691 | 17.613 | 32.579 | 2 |
| 2025-09-21T16:43:00 | 55.129648 | 7.663851 | 2.0 | 17.459 | 2 | 42.669 | 17.616 | 32.558 | 2 |
| 2025-09-21T16:44:00 | 55.127096 | 7.665171 | 2.0 | 17.462 | 2 | 42.654 | 17.620 | 32.542 | 2 |
| 2025-09-21T16:45:00 | 55.124466 | 7.665795 | 2.0 | 17.464 | 2 | 42.644 | 17.623 | 32.531 | 2 |
| 2025-09-21T16:46:00 | 55.121881 | 7.666624 | 2.0 | 17.468 | 2 | 42.613 | 17.623 | 32.505 | 2 |
| 2025-09-21T16:47:00 | 55.119268 | 7.667454 | 2.0 | 17.465 | 2 | 42.614 | 17.628 | 32.502 | 2 |
| 2025-09-21T16:48:00 | 55.116686 | 7.668264 | 2.0 | 17.454 | 2 | 42.627 | 17.623 | 32.517 | 2 |
| 2025-09-21T16:49:00 | 55.114094 | 7.669150 | 2.0 | 17.445 | 2 | 42.646 | 17.613 | 32.541 | 2 |
| 2025-09-21T16:50:00 | 55.111491 | 7.669859 | 2.0 | 17.436 | 2 | 42.659 | 17.605 | 32.558 | 2 |
| 2025-09-21T16:51:00 | 55.108895 | 7.670718 | 2.0 | 17.419 | 2 | 42.656 | 17.594 | 32.565 | 2 |
| 2025-09-21T16:52:00 | 55.106293 | 7.671376 | 2.0 | 17.432 | 2 | 42.686 | 17.580 | 32.602 | 2 |
| 2025-09-21T16:53:00 | 55.103680 | 7.672140 | 2.0 | 17.450 | 2 | 42.677 | 17.596 | 32.581 | 2 |
| 2025-09-21T16:54:00 | 55.101182 | 7.673123 | 2.0 | 17.453 | 2 | 42.645 | 17.609 | 32.543 | 2 |
| 2025-09-21T16:55:00 | 55.098703 | 7.673801 | 2.0 | 17.452 | 2 | 42.632 | 17.612 | 32.530 | 2 |
| 2025-09-21T16:56:00 | 55.096150 | 7.674541 | 2.0 | 17.452 | 2 | 42.645 | 17.612 | 32.541 | 2 |
| 2025-09-21T16:57:00 | 55.093576 | 7.675410 | 2.0 | 17.447 | 2 | 42.603 | 17.613 | 32.504 | 2 |
| 2025-09-21T16:58:00 | 55.090939 | 7.676241 | 2.0 | 17.436 | 2 | 42.653 | 17.608 | 32.551 | 2 |
| 2025-09-21T16:59:00 | 55.088332 | 7.676963 | 2.0 | 17.423 | 2 | 42.433 | 17.595 | 32.374 | 2 |
| 2025-09-21T17:04:00 | 55.075589 | 7.680998 | 2.0 | 17.382 | 2 | 42.710 | 17.546 | 32.649 | 2 |
| 2025-09-21T17:06:00 | 55.070288 | 7.682529 | 2.0 | 17.384 | 2 | 42.734 | 17.546 | 32.670 | 2 |
| 2025-09-21T17:07:00 | 55.067642 | 7.683391 | 2.0 | 17.416 | 2 | 42.641 | 17.552 | 32.586 | 2 |
| 2025-09-21T17:08:00 | 55.064955 | 7.684215 | 2.0 | 17.434 | 2 | 42.786 | 17.583 | 32.684 | 2 |
| 2025-09-21T17:09:00 | 55.062263 | 7.685090 | 2.0 | 17.431 | 2 | 42.634 | 17.592 | 32.548 | 2 |
| 2025-09-21T17:10:00 | 55.059569 | 7.685957 | 2.0 | 17.428 | 2 | 42.651 | 17.590 | 32.564 | 2 |
| 2025-09-21T17:11:00 | 55.056793 | 7.686819 | 2.0 | 17.425 | 2 | 42.730 | 17.588 | 32.633 | 2 |
| 2025-09-21T17:12:00 | 55.053960 | 7.687651 | 2.0 | 17.422 | 2 | 42.976 | 17.585 | 32.845 | 2 |
| 2025-09-21T17:13:00 | 55.051222 | 7.688576 | 2.0 | 17.420 | 2 | 42.964 | 17.581 | 32.838 | 2 |
| 2025-09-21T17:14:00 | 55.048476 | 7.689338 | 2.0 | 17.423 | 2 | 42.769 | 17.582 | 32.671 | 2 |
| 2025-09-21T17:15:00 | 55.045622 | 7.690102 | 2.0 | 17.425 | 2 | 42.745 | 17.583 | 32.649 | 2 |
| 2025-09-21T17:16:00 | 55.042764 | 7.691045 | 2.0 | 17.433 | 2 | 42.642 | 17.586 | 32.559 | 2 |
| 2025-09-21T17:17:00 | 55.039859 | 7.691857 | 2.0 | 17.440 | 2 | 42.882 | 17.595 | 32.757 | 2 |
| 2025-09-21T17:18:00 | 55.036942 | 7.692786 | 2.0 | 17.450 | 2 | 42.722 | 17.601 | 32.615 | 2 |
| 2025-09-21T17:19:00 | 55.034094 | 7.693803 | 2.0 | 17.457 | 2 | 42.758 | 17.613 | 32.636 | 2 |
| 2025-09-21T17:20:00 | 55.031224 | 7.694598 | 2.0 | 17.459 | 2 | 42.796 | 17.617 | 32.666 | 2 |
| 2025-09-21T17:21:00 | 55.028393 | 7.695456 | 2.0 | 17.458 | 2 | 42.777 | 17.617 | 32.649 | 2 |
| 2025-09-21T17:22:00 | 55.025501 | 7.696411 | 2.0 | 17.450 | 2 | 42.854 | 17.618 | 32.714 | 2 |
| 2025-09-21T17:23:00 | 55.022604 | 7.697318 | 2.0 | 17.445 | 2 | 43.062 | 17.612 | 32.897 | 2 |
| 2025-09-21T17:24:00 | 55.019699 | 7.698147 | 2.0 | 17.440 | 2 | 42.774 | 17.605 | 32.657 | 2 |
| 2025-09-21T17:25:00 | 55.016763 | 7.698993 | 2.0 | 17.439 | 2 | 42.824 | 17.601 | 32.702 | 2 |
| 2025-09-21T17:26:00 | 55.013815 | 7.699962 | 2.0 | 17.442 | 2 | 42.894 | 17.601 | 32.762 | 2 |
| 2025-09-21T17:27:00 | 55.010868 | 7.700905 | 2.0 | 17.445 | 2 | 42.952 | 17.604 | 32.809 | 2 |
| 2025-09-21T17:28:00 | 55.007923 | 7.701771 | 2.0 | 17.451 | 2 | 42.652 | 17.608 | 32.550 | 2 |
| 2025-09-21T17:29:00 | 55.005069 | 7.702657 | 2.0 | 17.452 | 2 | 42.730 | 17.612 | 32.613 | 2 |
| 2025-09-21T17:30:00 | 55.002205 | 7.703444 | 2.0 | 17.455 | 2 | 42.811 | 17.614 | 32.681 | 2 |
| 2025-09-21T17:31:00 | 54.999309 | 7.704323 | 2.0 | 17.459 | 2 | 42.740 | 17.617 | 32.618 | 2 |
| 2025-09-21T17:32:00 | 54.996364 | 7.705288 | 2.0 | 17.464 | 2 | 42.727 | 17.620 | 32.604 | 2 |
| 2025-09-21T17:33:00 | 54.993407 | 7.706171 | 2.0 | 17.463 | 2 | 42.708 | 17.623 | 32.586 | 2 |
| 2025-09-21T17:34:00 | 54.990479 | 7.707210 | 2.0 | 17.470 | 2 | 42.630 | 17.625 | 32.518 | 2 |
| 2025-09-21T17:35:00 | 54.987538 | 7.708074 | 2.0 | 17.475 | 2 | 42.668 | 17.630 | 32.546 | 2 |
| 2025-09-21T17:36:00 | 54.984607 | 7.708901 | 2.0 | 17.475 | 2 | 42.646 | 17.635 | 32.523 | 2 |
| 2025-09-21T17:37:00 | 54.981781 | 7.709847 | 2.0 | 17.476 | 2 | 42.691 | 17.636 | 32.561 | 2 |
| 2025-09-21T17:38:00 | 54.978957 | 7.710699 | 2.0 | 17.482 | 2 | 42.683 | 17.639 | 32.552 | 2 |
| 2025-09-21T17:39:00 | 54.976105 | 7.711603 | 2.0 | 17.482 | 2 | 42.638 | 17.642 | 32.511 | 2 |
| 2025-09-21T17:40:00 | 54.973112 | 7.712367 | 2.0 | 17.478 | 2 | 42.669 | 17.643 | 32.537 | 2 |
| 2025-09-21T17:41:00 | 54.970161 | 7.713350 | 2.0 | 17.466 | 2 | 42.685 | 17.637 | 32.555 | 2 |
| 2025-09-21T17:42:00 | 54.967200 | 7.714213 | 2.0 | 17.457 | 2 | 42.734 | 17.626 | 32.606 | 2 |
| 2025-09-21T17:43:00 | 54.964228 | 7.715150 | 2.0 | 17.471 | 2 | 42.828 | 17.623 | 32.688 | 2 |
| 2025-09-21T17:44:00 | 54.961298 | 7.716105 | 2.0 | 17.469 | 2 | 42.878 | 17.630 | 32.725 | 2 |
| 2025-09-21T17:45:00 | 54.958351 | 7.716952 | 2.0 | 17.470 | 2 | 42.874 | 17.630 | 32.722 | 2 |
| 2025-09-21T17:46:00 | 54.955393 | 7.717861 | 2.0 | 17.472 | 2 | 42.836 | 17.633 | 32.687 | 2 |
| 2025-09-21T17:47:00 | 54.952469 | 7.718833 | 2.0 | 17.470 | 2 | 42.800 | 17.634 | 32.655 | 2 |
| 2025-09-21T17:48:00 | 54.949521 | 7.719613 | 2.0 | 17.473 | 2 | 42.763 | 17.633 | 32.625 | 2 |
| 2025-09-21T17:49:00 | 54.946587 | 7.720481 | 2.0 | 17.477 | 2 | 42.739 | 17.634 | 32.603 | 2 |
| 2025-09-21T17:50:00 | 54.943618 | 7.721359 | 2.0 | 17.481 | 2 | 42.739 | 17.639 | 32.599 | 2 |
| 2025-09-21T17:51:00 | 54.940720 | 7.722392 | 2.0 | 17.485 | 2 | 42.713 | 17.641 | 32.576 | 2 |
| 2025-09-21T17:52:00 | 54.937827 | 7.723298 | 2.0 | 17.481 | 2 | 42.721 | 17.643 | 32.581 | 2 |
| 2025-09-21T17:53:00 | 54.934891 | 7.724205 | 2.0 | 17.478 | 2 | 42.737 | 17.641 | 32.596 | 2 |
| 2025-09-21T17:54:00 | 54.931916 | 7.724979 | 2.0 | 17.481 | 2 | 42.748 | 17.639 | 32.607 | 2 |
| 2025-09-21T17:55:00 | 54.928938 | 7.725840 | 2.0 | 17.482 | 2 | 42.709 | 17.640 | 32.573 | 2 |
| 2025-09-21T17:56:00 | 54.925960 | 7.726769 | 2.0 | 17.487 | 2 | 42.672 | 17.642 | 32.540 | 2 |
| 2025-09-21T17:57:00 | 54.922975 | 7.727710 | 2.0 | 17.494 | 2 | 42.654 | 17.649 | 32.519 | 2 |
| 2025-09-21T17:58:00 | 54.920051 | 7.728695 | 2.0 | 17.494 | 2 | 42.642 | 17.654 | 32.505 | 2 |
| 2025-09-21T17:59:00 | 54.917119 | 7.729676 | 2.0 | 17.494 | 2 | 42.632 | 17.655 | 32.495 | 2 |
| 2025-09-21T18:00:00 | 54.914307 | 7.730682 | 2.0 | 17.490 | 2 | 42.628 | 17.654 | 32.493 | 2 |
| 2025-09-21T18:01:00 | 54.911513 | 7.731440 | 2.0 | 17.487 | 2 | 42.626 | 17.650 | 32.494 | 2 |
| 2025-09-21T18:02:00 | 54.908576 | 7.732171 | 2.0 | 17.490 | 2 | 42.623 | 17.651 | 32.491 | 2 |
| 2025-09-21T18:03:00 | 54.905564 | 7.733082 | 2.0 | 17.492 | 2 | 42.617 | 17.652 | 32.485 | 2 |
| 2025-09-21T18:04:00 | 54.902584 | 7.734175 | 2.0 | 17.485 | 2 | 42.609 | 17.651 | 32.479 | 2 |
| 2025-09-21T18:05:00 | 54.899684 | 7.735009 | 2.0 | 17.483 | 2 | 42.616 | 17.647 | 32.488 | 2 |
| 2025-09-21T18:06:00 | 54.896745 | 7.735839 | 2.0 | 17.487 | 2 | 42.636 | 17.645 | 32.507 | 2 |
| 2025-09-21T18:07:00 | 54.893857 | 7.736732 | 2.0 | 17.486 | 2 | 42.637 | 17.648 | 32.505 | 2 |
| 2025-09-21T18:08:00 | 54.891014 | 7.737658 | 2.0 | 17.490 | 2 | 42.620 | 17.647 | 32.492 | 2 |
| 2025-09-21T18:09:00 | 54.888082 | 7.738438 | 2.0 | 17.487 | 2 | 42.620 | 17.650 | 32.489 | 2 |
| 2025-09-21T18:10:00 | 54.885132 | 7.739338 | 2.0 | 17.487 | 2 | 42.631 | 17.648 | 32.500 | 2 |
| 2025-09-21T18:11:00 | 54.882190 | 7.740241 | 2.0 | 17.489 | 2 | 42.642 | 17.649 | 32.509 | 2 |
| 2025-09-21T18:12:00 | 54.879214 | 7.741113 | 2.0 | 17.483 | 2 | 42.651 | 17.648 | 32.517 | 2 |
| 2025-09-21T18:13:00 | 54.876245 | 7.742061 | 2.0 | 17.468 | 2 | 42.668 | 17.643 | 32.536 | 2 |
| 2025-09-21T18:14:00 | 54.873348 | 7.742942 | 2.0 | 17.463 | 2 | 42.702 | 17.629 | 32.576 | 2 |
| 2025-09-21T18:15:00 | 54.870389 | 7.743996 | 2.0 | 17.464 | 2 | 42.746 | 17.626 | 32.616 | 2 |
| 2025-09-21T18:16:00 | 54.867478 | 7.744937 | 2.0 | 17.465 | 2 | 42.760 | 17.626 | 32.628 | 2 |
| 2025-09-21T18:17:00 | 54.864499 | 7.745661 | 2.0 | 17.460 | 2 | 42.777 | 17.627 | 32.641 | 2 |
| 2025-09-21T18:18:00 | 54.861547 | 7.746584 | 2.0 | 17.457 | 2 | 42.778 | 17.622 | 32.646 | 2 |
| 2025-09-21T18:19:00 | 54.858571 | 7.747588 | 2.0 | 17.456 | 2 | 42.766 | 17.619 | 32.638 | 2 |
| 2025-09-21T18:20:00 | 54.855524 | 7.748449 | 2.0 | 17.456 | 2 | 42.755 | 17.617 | 32.631 | 2 |
| 2025-09-21T18:21:00 | 54.852504 | 7.749427 | 2.0 | 17.451 | 2 | 42.752 | 17.616 | 32.629 | 2 |
| 2025-09-21T18:22:00 | 54.849482 | 7.750274 | 2.0 | 17.451 | 2 | 42.752 | 17.612 | 32.632 | 2 |
| 2025-09-21T18:23:00 | 54.846462 | 7.751224 | 2.0 | 17.451 | 2 | 42.762 | 17.612 | 32.641 | 2 |
| 2025-09-21T18:24:00 | 54.843537 | 7.752306 | 2.0 | 17.456 | 2 | 42.762 | 17.612 | 32.641 | 2 |
| 2025-09-21T18:25:00 | 54.840634 | 7.753056 | 2.0 | 17.462 | 2 | 42.743 | 17.616 | 32.621 | 2 |
| 2025-09-21T18:26:00 | 54.837664 | 7.753925 | 2.0 | 17.460 | 2 | 42.708 | 17.622 | 32.587 | 2 |
| 2025-09-21T18:27:00 | 54.834723 | 7.754812 | 2.0 | 17.459 | 2 | 42.675 | 17.622 | 32.559 | 2 |
| 2025-09-21T18:28:00 | 54.831798 | 7.755745 | 2.0 | 17.464 | 2 | 42.648 | 17.621 | 32.536 | 2 |
| 2025-09-21T18:29:00 | 54.828755 | 7.756644 | 2.0 | 17.472 | 2 | 42.634 | 17.626 | 32.520 | 2 |
| 2025-09-21T18:30:00 | 54.825751 | 7.757657 | 2.0 | 17.477 | 2 | 42.627 | 17.633 | 32.509 | 2 |
| 2025-09-21T18:31:00 | 54.822719 | 7.758416 | 2.0 | 17.473 | 2 | 42.619 | 17.635 | 32.500 | 2 |
| 2025-09-21T18:32:00 | 54.819683 | 7.759325 | 2.0 | 17.475 | 2 | 42.612 | 17.634 | 32.495 | 2 |
| 2025-09-21T18:33:00 | 54.816731 | 7.760323 | 2.0 | 17.469 | 2 | 42.609 | 17.635 | 32.492 | 2 |
| 2025-09-21T18:34:00 | 54.813706 | 7.761153 | 2.0 | 17.457 | 2 | 42.608 | 17.627 | 32.497 | 2 |
| 2025-09-21T18:35:00 | 54.810704 | 7.762114 | 2.0 | 17.453 | 2 | 42.615 | 17.619 | 32.510 | 2 |
| 2025-09-21T18:36:00 | 54.807702 | 7.763022 | 2.0 | 17.444 | 2 | 42.632 | 17.613 | 32.529 | 2 |
| 2025-09-21T18:37:00 | 54.804690 | 7.763973 | 2.0 | 17.447 | 2 | 42.652 | 17.606 | 32.552 | 2 |
| 2025-09-21T18:38:00 | 54.801655 | 7.764858 | 2.0 | 17.446 | 2 | 42.669 | 17.607 | 32.565 | 2 |
| 2025-09-21T18:39:00 | 54.798622 | 7.765761 | 2.0 | 17.444 | 2 | 42.680 | 17.607 | 32.575 | 2 |
| 2025-09-21T18:40:00 | 54.795608 | 7.766761 | 2.0 | 17.445 | 2 | 42.688 | 17.606 | 32.582 | 2 |
| 2025-09-21T18:41:00 | 54.792617 | 7.767591 | 2.0 | 17.442 | 2 | 42.680 | 17.605 | 32.576 | 2 |
| 2025-09-21T18:42:00 | 54.789551 | 7.768613 | 2.0 | 17.447 | 2 | 42.667 | 17.605 | 32.565 | 2 |
| 2025-09-21T18:43:00 | 54.786558 | 7.769679 | 2.0 | 17.457 | 2 | 42.639 | 17.610 | 32.537 | 2 |
| 2025-09-21T18:44:00 | 54.783571 | 7.770628 | 2.0 | 17.464 | 2 | 42.603 | 17.618 | 32.500 | 2 |
| 2025-09-21T18:45:00 | 54.780578 | 7.771268 | 2.0 | 17.464 | 2 | 42.565 | 17.625 | 32.462 | 2 |
| 2025-09-21T18:46:00 | 54.777555 | 7.772253 | 2.0 | 17.461 | 2 | 42.534 | 17.624 | 32.437 | 2 |
| 2025-09-21T18:47:00 | 54.774487 | 7.773189 | 2.0 | 17.462 | 2 | 42.509 | 17.623 | 32.416 | 2 |
| 2025-09-21T18:48:00 | 54.771397 | 7.774173 | 2.0 | 17.455 | 2 | 42.501 | 17.620 | 32.412 | 2 |
| 2025-09-21T18:49:00 | 54.768331 | 7.775136 | 2.0 | 17.454 | 2 | 42.501 | 17.615 | 32.416 | 2 |
| 2025-09-21T18:50:00 | 54.765331 | 7.776118 | 2.0 | 17.464 | 2 | 42.480 | 17.617 | 32.396 | 2 |
| 2025-09-21T18:51:00 | 54.762309 | 7.777014 | 2.0 | 17.475 | 2 | 42.437 | 17.626 | 32.353 | 2 |
| 2025-09-21T18:52:00 | 54.759323 | 7.777845 | 2.0 | 17.473 | 2 | 42.410 | 17.635 | 32.322 | 2 |
| 2025-09-21T18:53:00 | 54.756345 | 7.778768 | 2.0 | 17.469 | 2 | 42.323 | 17.632 | 32.251 | 2 |
| 2025-09-21T18:54:00 | 54.753331 | 7.779703 | 2.0 | 17.470 | 2 | 42.372 | 17.631 | 32.293 | 2 |
| 2025-09-21T18:55:00 | 54.750260 | 7.780578 | 2.0 | 17.472 | 2 | 42.234 | 17.631 | 32.176 | 2 |
| 2025-09-21T18:56:00 | 54.747207 | 7.781668 | 2.0 | 17.484 | 2 | 42.085 | 17.636 | 32.045 | 2 |
| 2025-09-21T18:57:00 | 54.744135 | 7.782480 | 2.0 | 17.492 | 2 | 42.148 | 17.644 | 32.092 | 2 |
| 2025-09-21T18:58:00 | 54.741062 | 7.783415 | 2.0 | 17.498 | 2 | 42.161 | 17.655 | 32.095 | 2 |
| 2025-09-21T18:59:00 | 54.737950 | 7.784343 | 2.0 | 17.506 | 2 | 42.155 | 17.662 | 32.084 | 2 |
| 2025-09-21T19:00:00 | 54.734859 | 7.785364 | 2.0 | 17.511 | 2 | 42.102 | 17.668 | 32.034 | 2 |
| 2025-09-21T19:01:00 | 54.731755 | 7.786298 | 2.0 | 17.511 | 2 | 42.071 | 17.671 | 32.006 | 2 |
| 2025-09-21T19:02:00 | 54.728683 | 7.787272 | 2.0 | 17.508 | 2 | 42.098 | 17.670 | 32.030 | 2 |
| 2025-09-21T19:03:00 | 54.725605 | 7.788216 | 2.0 | 17.504 | 2 | 42.067 | 17.669 | 32.004 | 2 |
| 2025-09-21T19:04:00 | 54.722492 | 7.789117 | 2.0 | 17.501 | 2 | 42.121 | 17.666 | 32.052 | 2 |
| 2025-09-21T19:05:00 | 54.719404 | 7.790060 | 2.0 | 17.496 | 2 | 42.062 | 17.661 | 32.006 | 2 |
| 2025-09-21T19:06:00 | 54.716335 | 7.791043 | 2.0 | 17.489 | 2 | 42.067 | 17.656 | 32.014 | 2 |
| 2025-09-21T19:07:00 | 54.713255 | 7.791903 | 2.0 | 17.484 | 2 | 42.087 | 17.651 | 32.035 | 2 |
| 2025-09-21T19:08:00 | 54.710156 | 7.792843 | 2.0 | 17.480 | 2 | 42.023 | 17.644 | 31.986 | 2 |
| 2025-09-21T19:09:00 | 54.707121 | 7.793850 | 2.0 | 17.470 | 2 | 42.063 | 17.639 | 32.024 | 2 |
| 2025-09-21T19:10:00 | 54.704098 | 7.794839 | 2.0 | 17.462 | 2 | 42.039 | 17.630 | 32.011 | 2 |
| 2025-09-21T19:11:00 | 54.701134 | 7.795705 | 2.0 | 17.453 | 2 | 42.012 | 17.624 | 31.993 | 2 |
| 2025-09-21T19:12:00 | 54.698071 | 7.796585 | 2.0 | 17.448 | 2 | 41.946 | 17.614 | 31.944 | 2 |
| 2025-09-21T19:13:00 | 54.694979 | 7.797448 | 2.0 | 17.441 | 2 | 41.925 | 17.609 | 31.930 | 2 |
| 2025-09-21T19:14:00 | 54.691875 | 7.798447 | 2.0 | 17.435 | 2 | 41.911 | 17.603 | 31.923 | 2 |
| 2025-09-21T19:15:00 | 54.688789 | 7.799372 | 2.0 | 17.432 | 2 | 41.871 | 17.596 | 31.895 | 2 |
| 2025-09-21T19:16:00 | 54.685708 | 7.800355 | 2.0 | 17.430 | 2 | 41.845 | 17.593 | 31.875 | 2 |
| 2025-09-21T19:17:00 | 54.682592 | 7.801238 | 2.0 | 17.428 | 2 | 41.864 | 17.591 | 31.893 | 2 |
| 2025-09-21T19:18:00 | 54.679468 | 7.802168 | 2.0 | 17.421 | 2 | 41.877 | 17.589 | 31.905 | 2 |
| 2025-09-21T19:19:00 | 54.676405 | 7.803175 | 2.0 | 17.424 | 2 | 41.892 | 17.584 | 31.922 | 2 |
| 2025-09-21T19:20:00 | 54.673309 | 7.804094 | 2.0 | 17.424 | 2 | 41.911 | 17.585 | 31.937 | 2 |
| 2025-09-21T19:21:00 | 54.670231 | 7.805059 | 2.0 | 17.424 | 2 | 41.912 | 17.586 | 31.938 | 2 |
| 2025-09-21T19:22:00 | 54.667180 | 7.806124 | 2.0 | 17.426 | 2 | 41.903 | 17.585 | 31.931 | 2 |
| 2025-09-21T19:23:00 | 54.664105 | 7.806917 | 2.0 | 17.425 | 2 | 41.892 | 17.587 | 31.920 | 2 |
| 2025-09-21T19:24:00 | 54.661015 | 7.807827 | 2.0 | 17.423 | 2 | 41.882 | 17.586 | 31.912 | 2 |
| 2025-09-21T19:25:00 | 54.657967 | 7.808868 | 2.0 | 17.424 | 2 | 41.868 | 17.585 | 31.901 | 2 |
| 2025-09-21T19:26:00 | 54.654837 | 7.809781 | 2.0 | 17.423 | 2 | 41.825 | 17.585 | 31.864 | 2 |
| 2025-09-21T19:27:00 | 54.651764 | 7.810667 | 2.0 | 17.423 | 2 | 41.781 | 17.584 | 31.828 | 2 |
| 2025-09-21T19:28:00 | 54.648665 | 7.811707 | 2.0 | 17.421 | 2 | 41.739 | 17.584 | 31.792 | 2 |
| 2025-09-21T19:29:00 | 54.645608 | 7.812688 | 2.0 | 17.425 | 2 | 41.704 | 17.584 | 31.762 | 2 |
| 2025-09-21T19:30:00 | 54.642530 | 7.813585 | 2.0 | 17.429 | 2 | 41.685 | 17.585 | 31.745 | 2 |
| 2025-09-21T19:31:00 | 54.639416 | 7.814559 | 2.0 | 17.435 | 2 | 41.683 | 17.590 | 31.740 | 2 |
| 2025-09-21T19:32:00 | 54.636330 | 7.815497 | 2.0 | 17.449 | 2 | 41.686 | 17.598 | 31.736 | 2 |
| 2025-09-21T19:33:00 | 54.633238 | 7.816370 | 2.0 | 17.452 | 2 | 41.649 | 17.611 | 31.694 | 2 |
| 2025-09-21T19:34:00 | 54.630138 | 7.817422 | 2.0 | 17.450 | 2 | 41.603 | 17.614 | 31.653 | 2 |
| 2025-09-21T19:35:00 | 54.627046 | 7.818263 | 2.0 | 17.450 | 2 | 41.561 | 17.612 | 31.619 | 2 |
| 2025-09-21T19:36:00 | 54.624007 | 7.819269 | 2.0 | 17.448 | 2 | 41.527 | 17.610 | 31.592 | 2 |
| 2025-09-21T19:37:00 | 54.620963 | 7.820132 | 2.0 | 17.443 | 2 | 41.484 | 17.608 | 31.557 | 2 |
| 2025-09-21T19:38:00 | 54.617955 | 7.821077 | 2.0 | 17.438 | 2 | 41.438 | 17.603 | 31.522 | 2 |
| 2025-09-21T19:39:00 | 54.614901 | 7.821959 | 2.0 | 17.434 | 2 | 41.393 | 17.599 | 31.486 | 2 |
| 2025-09-21T19:40:00 | 54.611820 | 7.822944 | 2.0 | 17.426 | 2 | 41.357 | 17.593 | 31.461 | 2 |
| 2025-09-21T19:41:00 | 54.608698 | 7.823769 | 2.0 | 17.422 | 2 | 41.333 | 17.589 | 31.443 | 2 |
| 2025-09-21T19:42:00 | 54.605579 | 7.824755 | 2.0 | 17.416 | 2 | 41.304 | 17.583 | 31.423 | 2 |
| 2025-09-21T19:43:00 | 54.602461 | 7.825772 | 2.0 | 17.413 | 2 | 41.266 | 17.577 | 31.396 | 2 |
| 2025-09-21T19:44:00 | 54.599325 | 7.826671 | 2.0 | 17.401 | 2 | 41.231 | 17.572 | 31.370 | 2 |
| 2025-09-21T19:45:00 | 54.596201 | 7.827698 | 2.0 | 17.397 | 2 | 41.190 | 17.563 | 31.342 | 2 |
| 2025-09-21T19:46:00 | 54.593057 | 7.828607 | 2.0 | 17.389 | 2 | 41.159 | 17.558 | 31.320 | 2 |
| 2025-09-21T19:47:00 | 54.589957 | 7.829558 | 2.0 | 17.382 | 2 | 41.118 | 17.548 | 31.293 | 2 |
| 2025-09-21T19:48:00 | 54.586828 | 7.830465 | 2.0 | 17.365 | 2 | 41.074 | 17.541 | 31.261 | 2 |
| 2025-09-21T19:49:00 | 54.583691 | 7.831523 | 2.0 | 17.344 | 2 | 41.008 | 17.524 | 31.218 | 2 |
| 2025-09-21T19:50:00 | 54.580535 | 7.832474 | 2.0 | 17.320 | 2 | 40.916 | 17.503 | 31.156 | 2 |
| 2025-09-21T19:51:00 | 54.577353 | 7.833484 | 2.0 | 17.299 | 2 | 40.806 | 17.480 | 31.080 | 2 |
| 2025-09-21T19:52:00 | 54.574199 | 7.834434 | 2.0 | 17.293 | 2 | 40.710 | 17.462 | 31.012 | 2 |
| 2025-09-21T19:53:00 | 54.571009 | 7.835319 | 2.0 | 17.285 | 2 | 40.650 | 17.455 | 30.967 | 2 |
| 2025-09-21T19:54:00 | 54.567825 | 7.836403 | 2.0 | 17.275 | 2 | 40.611 | 17.448 | 30.939 | 2 |
| 2025-09-21T19:55:00 | 54.564649 | 7.837336 | 2.0 | 17.272 | 2 | 40.576 | 17.436 | 30.918 | 2 |
| 2025-09-21T19:56:00 | 54.561484 | 7.838288 | 2.0 | 17.269 | 2 | 40.546 | 17.435 | 30.894 | 2 |
| 2025-09-21T19:57:00 | 54.558305 | 7.839281 | 2.0 | 17.259 | 2 | 40.533 | 17.431 | 30.886 | 2 |
| 2025-09-21T19:58:00 | 54.555164 | 7.840291 | 2.0 | 17.241 | 2 | 40.547 | 17.422 | 30.904 | 2 |
| 2025-09-21T19:59:00 | 54.551994 | 7.841276 | 2.0 | 17.220 | 2 | 40.497 | 17.400 | 30.879 | 2 |
| 2025-09-21T20:00:00 | 54.548796 | 7.842172 | 2.0 | 17.191 | 2 | 40.428 | 17.379 | 30.836 | 2 |
| 2025-09-21T20:01:00 | 54.545627 | 7.843137 | 2.0 | 17.165 | 2 | 40.395 | 17.352 | 30.828 | 2 |
| 2025-09-21T20:02:00 | 54.542464 | 7.844069 | 2.0 | 17.152 | 2 | 40.360 | 17.326 | 30.818 | 2 |
| 2025-09-21T20:03:00 | 54.539343 | 7.845097 | 2.0 | 17.156 | 2 | 40.399 | 17.317 | 30.858 | 2 |
| 2025-09-21T20:04:00 | 54.536341 | 7.845986 | 2.0 | 17.172 | 2 | 40.473 | 17.321 | 30.918 | 2 |
| 2025-09-21T20:05:00 | 54.533238 | 7.846833 | 2.0 | 17.179 | 2 | 40.554 | 17.335 | 30.977 | 2 |
| 2025-09-21T20:06:00 | 54.530075 | 7.847761 | 2.0 | 17.190 | 2 | 40.632 | 17.343 | 31.037 | 2 |
| 2025-09-21T20:07:00 | 54.526926 | 7.848798 | 2.0 | 17.221 | 2 | 40.729 | 17.358 | 31.108 | 2 |
| 2025-09-21T20:08:00 | 54.523815 | 7.849764 | 2.0 | 17.248 | 2 | 40.820 | 17.387 | 31.163 | 2 |
| 2025-09-21T20:09:00 | 54.520660 | 7.850592 | 2.0 | 17.249 | 2 | 40.886 | 17.409 | 31.202 | 2 |
| 2025-09-21T20:10:00 | 54.517503 | 7.851635 | 2.0 | 17.248 | 2 | 40.913 | 17.409 | 31.225 | 2 |
| 2025-09-21T20:11:00 | 54.514316 | 7.852534 | 2.0 | 17.254 | 2 | 40.939 | 17.410 | 31.247 | 2 |
| 2025-09-21T20:12:00 | 54.511153 | 7.853518 | 2.0 | 17.260 | 2 | 40.966 | 17.417 | 31.264 | 2 |
| 2025-09-21T20:13:00 | 54.508105 | 7.854537 | 2.0 | 17.262 | 2 | 40.998 | 17.421 | 31.288 | 2 |
| 2025-09-21T20:14:00 | 54.505111 | 7.855490 | 2.0 | 17.266 | 2 | 41.031 | 17.424 | 31.314 | 2 |
| 2025-09-21T20:15:00 | 54.502041 | 7.856307 | 2.0 | 17.264 | 2 | 41.064 | 17.426 | 31.341 | 2 |
| 2025-09-21T20:16:00 | 54.498934 | 7.857293 | 2.0 | 17.262 | 2 | 41.096 | 17.426 | 31.368 | 2 |
| 2025-09-21T20:17:00 | 54.495837 | 7.858326 | 2.0 | 17.265 | 2 | 41.137 | 17.425 | 31.404 | 2 |
| 2025-09-21T20:18:00 | 54.492871 | 7.859278 | 2.0 | 17.271 | 2 | 41.181 | 17.427 | 31.440 | 2 |
| 2025-09-21T20:19:00 | 54.489797 | 7.860015 | 2.0 | 17.293 | 2 | 41.230 | 17.436 | 31.474 | 2 |
| 2025-09-21T20:20:00 | 54.486739 | 7.861000 | 2.0 | 17.306 | 2 | 41.269 | 17.454 | 31.494 | 2 |
| 2025-09-21T20:21:00 | 54.483751 | 7.862048 | 2.0 | 17.301 | 2 | 41.288 | 17.466 | 31.500 | 2 |
| 2025-09-21T20:22:00 | 54.480672 | 7.862796 | 2.0 | 17.296 | 2 | 41.273 | 17.461 | 31.492 | 2 |
| 2025-09-21T20:23:00 | 54.477554 | 7.863806 | 2.0 | 17.299 | 2 | 41.265 | 17.458 | 31.487 | 2 |
| 2025-09-21T20:24:00 | 54.474556 | 7.864781 | 2.0 | 17.304 | 2 | 41.291 | 17.462 | 31.506 | 2 |
| 2025-09-21T20:25:00 | 54.471460 | 7.865636 | 2.0 | 17.303 | 2 | 41.329 | 17.466 | 31.535 | 2 |
| 2025-09-21T20:26:00 | 54.468375 | 7.866528 | 2.0 | 17.300 | 2 | 41.365 | 17.464 | 31.567 | 2 |
| 2025-09-21T20:27:00 | 54.465267 | 7.867515 | 2.0 | 17.300 | 2 | 41.415 | 17.464 | 31.610 | 2 |
| 2025-09-21T20:28:00 | 54.462198 | 7.868423 | 2.0 | 17.344 | 2 | 41.476 | 17.464 | 31.662 | 2 |
| 2025-09-21T20:29:00 | 54.459135 | 7.869316 | 2.0 | 17.360 | 2 | 41.599 | 17.505 | 31.735 | 2 |
| 2025-09-21T20:30:00 | 54.456103 | 7.870232 | 2.0 | 17.368 | 2 | 41.616 | 17.522 | 31.736 | 2 |
| 2025-09-21T20:31:00 | 54.453017 | 7.871122 | 2.0 | 17.375 | 2 | 41.617 | 17.530 | 31.730 | 2 |
| 2025-09-21T20:32:00 | 54.449960 | 7.872029 | 2.0 | 17.375 | 2 | 41.615 | 17.535 | 31.725 | 2 |
| 2025-09-21T20:33:00 | 54.446895 | 7.872928 | 2.0 | 17.375 | 2 | 41.619 | 17.536 | 31.727 | 2 |
| 2025-09-21T20:34:00 | 54.443897 | 7.873953 | 2.0 | 17.373 | 2 | 41.639 | 17.535 | 31.745 | 2 |
| 2025-09-21T20:35:00 | 54.440866 | 7.874680 | 2.0 | 17.369 | 2 | 41.659 | 17.535 | 31.762 | 2 |
| 2025-09-21T20:36:00 | 54.437814 | 7.874574 | 2.0 | 17.363 | 2 | 41.676 | 17.529 | 31.781 | 2 |
| 2025-09-21T20:37:00 | 54.434775 | 7.874632 | 2.0 | 17.366 | 2 | 41.701 | 17.523 | 31.807 | 2 |
| 2025-09-21T20:38:00 | 54.431735 | 7.875571 | 2.0 | 17.383 | 2 | 41.765 | 17.531 | 31.856 | 2 |
| 2025-09-21T20:39:00 | 54.428666 | 7.876556 | 2.0 | 17.373 | 2 | 41.813 | 17.541 | 31.889 | 2 |
| 2025-09-21T20:40:00 | 54.425569 | 7.877495 | 2.0 | 17.364 | 2 | 41.815 | 17.534 | 31.896 | 2 |
| 2025-09-21T20:41:00 | 54.422499 | 7.878401 | 2.0 | 17.355 | 2 | 41.736 | 17.526 | 31.835 | 2 |
| 2025-09-21T20:42:00 | 54.419428 | 7.879289 | 2.0 | 17.348 | 2 | 41.720 | 17.516 | 31.829 | 2 |
| 2025-09-21T20:43:00 | 54.416357 | 7.880123 | 2.0 | 17.344 | 2 | 41.778 | 17.511 | 31.882 | 2 |
| 2025-09-21T20:44:00 | 54.413313 | 7.881019 | 2.0 | 17.336 | 2 | 41.808 | 17.504 | 31.913 | 2 |
| 2025-09-21T20:45:00 | 54.410275 | 7.881900 | 2.0 | 17.324 | 2 | 41.830 | 17.495 | 31.939 | 2 |
| 2025-09-21T20:46:00 | 54.407223 | 7.882870 | 2.0 | 17.315 | 2 | 41.858 | 17.485 | 31.971 | 2 |
| 2025-09-21T20:47:00 | 54.404179 | 7.883854 | 2.0 | 17.311 | 2 | 41.904 | 17.477 | 32.017 | 2 |
| 2025-09-21T20:48:00 | 54.401151 | 7.884736 | 2.0 | 17.347 | 2 | 41.958 | 17.475 | 32.064 | 2 |
| 2025-09-21T20:49:00 | 54.398070 | 7.885696 | 2.0 | 17.375 | 2 | 42.130 | 17.517 | 32.178 | 2 |
| 2025-09-21T20:50:00 | 54.395008 | 7.886649 | 2.0 | 17.368 | 2 | 42.191 | 17.532 | 32.218 | 2 |
| 2025-09-21T20:51:00 | 54.391921 | 7.887571 | 2.0 | 17.367 | 2 | 42.229 | 17.532 | 32.250 | 2 |
| 2025-09-21T20:52:00 | 54.388907 | 7.888593 | 2.0 | 17.363 | 2 | 42.244 | 17.528 | 32.266 | 2 |
| 2025-09-21T20:53:00 | 54.385880 | 7.889459 | 2.0 | 17.384 | 2 | 42.288 | 17.531 | 32.301 | 2 |
| 2025-09-21T20:54:00 | 54.382855 | 7.890403 | 2.0 | 17.366 | 2 | 42.316 | 17.541 | 32.317 | 2 |
| 2025-09-21T20:55:00 | 54.379884 | 7.891332 | 2.0 | 17.358 | 2 | 42.273 | 17.530 | 32.289 | 2 |
| 2025-09-21T20:56:00 | 54.376887 | 7.892181 | 2.0 | 17.356 | 2 | 42.242 | 17.520 | 32.271 | 2 |
| 2025-09-21T20:57:00 | 54.373892 | 7.893029 | 2.0 | 17.368 | 2 | 42.222 | 17.522 | 32.252 | 2 |
| 2025-09-21T20:58:00 | 54.370891 | 7.893937 | 2.0 | 17.373 | 2 | 42.215 | 17.531 | 32.239 | 2 |
| 2025-09-21T20:59:00 | 54.367874 | 7.894821 | 2.0 | 17.377 | 2 | 42.218 | 17.535 | 32.238 | 2 |
| 2025-09-21T21:00:00 | 54.364888 | 7.895793 | 2.0 | 17.386 | 2 | 42.238 | 17.540 | 32.251 | 2 |
| 2025-09-21T21:01:00 | 54.361869 | 7.896690 | 2.0 | 17.396 | 2 | 42.273 | 17.549 | 32.274 | 2 |
| 2025-09-21T21:02:00 | 54.358839 | 7.897576 | 2.0 | 17.410 | 2 | 42.303 | 17.561 | 32.290 | 2 |
| 2025-09-21T21:03:00 | 54.355876 | 7.898530 | 2.0 | 17.439 | 2 | 42.338 | 17.578 | 32.306 | 2 |
| 2025-09-21T21:04:00 | 54.352907 | 7.899357 | 2.0 | 17.464 | 2 | 42.383 | 17.604 | 32.324 | 2 |
| 2025-09-21T21:05:00 | 54.349955 | 7.900171 | 2.0 | 17.481 | 2 | 42.411 | 17.628 | 32.329 | 2 |
| 2025-09-21T21:06:00 | 54.346996 | 7.901138 | 2.0 | 17.489 | 2 | 42.426 | 17.643 | 32.330 | 2 |
| 2025-09-21T21:07:00 | 54.344029 | 7.902027 | 2.0 | 17.480 | 2 | 42.431 | 17.647 | 32.331 | 2 |
| 2025-09-21T21:08:00 | 54.341084 | 7.902889 | 2.0 | 17.484 | 2 | 42.411 | 17.642 | 32.318 | 2 |
| 2025-09-21T21:09:00 | 54.338168 | 7.903752 | 2.0 | 17.485 | 2 | 42.409 | 17.645 | 32.314 | 2 |
| 2025-09-21T21:10:00 | 54.335311 | 7.904697 | 2.0 | 17.480 | 2 | 42.428 | 17.646 | 32.329 | 2 |
| 2025-09-21T21:11:00 | 54.332385 | 7.905553 | 2.0 | 17.479 | 2 | 42.443 | 17.642 | 32.345 | 2 |
| 2025-09-21T21:12:00 | 54.329435 | 7.906448 | 2.0 | 17.483 | 2 | 42.453 | 17.643 | 32.353 | 2 |
| 2025-09-21T21:13:00 | 54.326473 | 7.907310 | 2.0 | 17.488 | 2 | 42.456 | 17.644 | 32.354 | 2 |
| 2025-09-21T21:14:00 | 54.323551 | 7.908259 | 2.0 | 17.483 | 2 | 42.474 | 17.648 | 32.367 | 2 |
| 2025-09-21T21:15:00 | 54.320586 | 7.909086 | 2.0 | 17.483 | 2 | 42.478 | 17.643 | 32.374 | 2 |
| 2025-09-21T21:16:00 | 54.317615 | 7.909999 | 2.0 | 17.489 | 2 | 42.473 | 17.646 | 32.367 | 2 |
| 2025-09-21T21:17:00 | 54.314667 | 7.910897 | 2.0 | 17.482 | 2 | 42.480 | 17.649 | 32.371 | 2 |
| 2025-09-21T21:18:00 | 54.311753 | 7.911855 | 2.0 | 17.481 | 2 | 42.488 | 17.642 | 32.383 | 2 |
| 2025-09-21T21:19:00 | 54.308826 | 7.912594 | 2.0 | 17.489 | 2 | 42.505 | 17.644 | 32.396 | 2 |
| 2025-09-21T21:20:00 | 54.305880 | 7.913477 | 2.0 | 17.492 | 2 | 42.521 | 17.650 | 32.405 | 2 |
| 2025-09-21T21:21:00 | 54.302940 | 7.914395 | 2.0 | 17.497 | 2 | 42.526 | 17.654 | 32.406 | 2 |
| 2025-09-21T21:22:00 | 54.300062 | 7.915394 | 2.0 | 17.497 | 2 | 42.526 | 17.657 | 32.404 | 2 |
| 2025-09-21T21:23:00 | 54.297157 | 7.916138 | 2.0 | 17.509 | 2 | 42.530 | 17.661 | 32.404 | 2 |
| 2025-09-21T21:24:00 | 54.294249 | 7.917384 | 2.0 | 17.526 | 2 | 42.550 | 17.674 | 32.411 | 2 |
| 2025-09-21T21:25:00 | 54.291381 | 7.918701 | 2.0 | 17.532 | 2 | 42.576 | 17.688 | 32.421 | 2 |
| 2025-09-21T21:26:00 | 54.288556 | 7.919848 | 2.0 | 17.546 | 2 | 42.605 | 17.695 | 32.441 | 2 |
| 2025-09-21T21:27:00 | 54.285697 | 7.921081 | 2.0 | 17.562 | 2 | 42.636 | 17.708 | 32.457 | 2 |
| 2025-09-21T21:28:00 | 54.282842 | 7.922415 | 2.0 | 17.591 | 2 | 42.668 | 17.726 | 32.469 | 2 |
| 2025-09-21T21:29:00 | 54.280016 | 7.923614 | 2.0 | 17.622 | 2 | 42.710 | 17.755 | 32.482 | 2 |
| 2025-09-21T21:30:00 | 54.277211 | 7.924778 | 2.0 | 17.639 | 2 | 42.748 | 17.783 | 32.492 | 2 |
| 2025-09-21T21:31:00 | 54.274427 | 7.925967 | 2.0 | 17.652 | 2 | 42.773 | 17.798 | 32.501 | 2 |
| 2025-09-21T21:32:00 | 54.271571 | 7.927069 | 2.0 | 17.660 | 2 | 42.796 | 17.812 | 32.510 | 2 |
| 2025-09-21T21:33:00 | 54.268736 | 7.928311 | 2.0 | 17.658 | 2 | 42.813 | 17.817 | 32.520 | 2 |
| 2025-09-21T21:34:00 | 54.265872 | 7.929511 | 2.0 | 17.659 | 2 | 42.826 | 17.817 | 32.531 | 2 |
| 2025-09-21T21:35:00 | 54.263045 | 7.930710 | 2.0 | 17.659 | 2 | 42.847 | 17.819 | 32.547 | 2 |
| 2025-09-21T21:36:00 | 54.260167 | 7.931868 | 2.0 | 17.670 | 2 | 42.876 | 17.823 | 32.569 | 2 |
| 2025-09-21T21:37:00 | 54.257264 | 7.933151 | 2.0 | 17.671 | 2 | 42.905 | 17.829 | 32.588 | 2 |
| 2025-09-21T21:38:00 | 54.254479 | 7.934437 | 2.0 | 17.677 | 2 | 42.930 | 17.832 | 32.607 | 2 |
| 2025-09-21T21:39:00 | 54.251681 | 7.935527 | 2.0 | 17.679 | 2 | 42.954 | 17.838 | 32.623 | 2 |
| 2025-09-21T21:40:00 | 54.248843 | 7.936782 | 2.0 | 17.682 | 2 | 42.968 | 17.840 | 32.633 | 2 |
| 2025-09-21T21:41:00 | 54.246119 | 7.938029 | 2.0 | 17.683 | 2 | 42.997 | 17.842 | 32.656 | 2 |
| 2025-09-21T21:42:00 | 54.243322 | 7.939170 | 2.0 | 17.681 | 2 | 43.010 | 17.842 | 32.667 | 2 |
| 2025-09-21T21:43:00 | 54.240492 | 7.940381 | 2.0 | 17.673 | 2 | 43.022 | 17.838 | 32.681 | 2 |
| 2025-09-21T21:44:00 | 54.237603 | 7.941519 | 2.0 | 17.663 | 2 | 43.039 | 17.832 | 32.700 | 2 |
| 2025-09-21T21:45:00 | 54.234691 | 7.942707 | 2.0 | 17.645 | 2 | 43.025 | 17.821 | 32.697 | 2 |
| 2025-09-21T21:46:00 | 54.231799 | 7.943968 | 2.0 | 17.643 | 2 | 43.003 | 17.803 | 32.692 | 2 |
| 2025-09-21T21:47:00 | 54.229057 | 7.945234 | 2.0 | 17.677 | 2 | 43.015 | 17.810 | 32.697 | 2 |
| 2025-09-21T21:48:00 | 54.226226 | 7.946303 | 2.0 | 17.687 | 2 | 43.053 | 17.838 | 32.707 | 2 |
| 2025-09-21T21:49:00 | 54.223351 | 7.947419 | 2.0 | 17.679 | 2 | 43.077 | 17.847 | 32.720 | 2 |
| 2025-09-21T21:50:00 | 54.220536 | 7.948704 | 2.0 | 17.660 | 2 | 43.079 | 17.838 | 32.729 | 2 |
| 2025-09-21T21:51:00 | 54.217699 | 7.949825 | 2.0 | 17.636 | 2 | 43.066 | 17.819 | 32.733 | 2 |
| 2025-09-21T21:52:00 | 54.214831 | 7.951005 | 2.0 | 17.623 | 2 | 43.044 | 17.795 | 32.734 | 2 |
| 2025-09-21T21:53:00 | 54.211986 | 7.952175 | 2.0 | 17.608 | 2 | 43.032 | 17.782 | 32.734 | 2 |
| 2025-09-21T21:54:00 | 54.209150 | 7.953359 | 2.0 | 17.596 | 2 | 43.012 | 17.768 | 32.728 | 2 |
| 2025-09-21T21:55:00 | 54.206289 | 7.954589 | 2.0 | 17.593 | 2 | 42.998 | 17.757 | 32.725 | 2 |
| 2025-09-21T21:56:00 | 54.203431 | 7.955776 | 2.0 | 17.588 | 2 | 42.990 | 17.752 | 32.722 | 2 |
| 2025-09-21T21:57:00 | 54.200629 | 7.956992 | 2.0 | 17.584 | 2 | 42.994 | 17.750 | 32.727 | 2 |
| 2025-09-21T21:58:00 | 54.197858 | 7.958069 | 2.0 | 17.579 | 2 | 42.997 | 17.743 | 32.736 | 2 |
| 2025-09-21T21:59:00 | 54.195182 | 7.959331 | 2.0 | 17.578 | 2 | 42.997 | 17.737 | 32.740 | 2 |
| 2025-09-21T22:00:00 | 54.192540 | 7.960428 | 2.0 | 17.568 | 2 | 43.005 | 17.739 | 32.746 | 2 |
| 2025-09-21T22:01:00 | 54.189903 | 7.961528 | 2.0 | 17.520 | 2 | 42.995 | 17.727 | 32.747 | 2 |
| 2025-09-21T22:02:00 | 54.187255 | 7.962769 | 2.0 | 17.572 | 2 | 42.934 | 17.694 | 32.721 | 2 |
| 2025-09-21T22:03:00 | 54.184632 | 7.963974 | 2.0 | 17.592 | 2 | 42.865 | 17.729 | 32.635 | 2 |
| 2025-09-21T22:04:00 | 54.182007 | 7.964929 | 2.0 | 17.622 | 2 | 42.835 | 17.758 | 32.586 | 2 |
| 2025-09-21T22:05:00 | 54.179425 | 7.965983 | 2.0 | 17.614 | 2 | 42.844 | 17.783 | 32.573 | 2 |
| 2025-09-21T22:06:00 | 54.176892 | 7.967083 | 2.0 | 17.599 | 2 | 42.815 | 17.770 | 32.559 | 2 |
| 2025-09-21T22:07:00 | 54.174371 | 7.968089 | 2.0 | 17.597 | 2 | 42.812 | 17.764 | 32.561 | 2 |
| 2025-09-21T22:08:00 | 54.171884 | 7.969384 | 2.0 | 17.644 | 2 | 42.866 | 17.765 | 32.607 | 2 |
| 2025-09-21T22:09:00 | 54.169401 | 7.970595 | 2.0 | 17.650 | 2 | 42.963 | 17.800 | 32.661 | 2 |
| 2025-09-21T22:10:00 | 54.166854 | 7.971016 | 2.0 | 17.653 | 2 | 42.987 | 17.811 | 32.672 | 2 |
| 2025-09-21T22:11:00 | 54.164338 | 7.970916 | 2.0 | 17.686 | 2 | 42.989 | 17.815 | 32.671 | 2 |
| 2025-09-21T22:12:00 | 54.161767 | 7.971152 | 2.0 | 17.728 | 2 | 43.039 | 17.851 | 32.685 | 2 |
| 2025-09-21T22:13:00 | 54.159242 | 7.971223 | 2.0 | 17.755 | 2 | 43.093 | 17.889 | 32.700 | 2 |
| 2025-09-21T22:14:00 | 54.156746 | 7.971229 | 2.0 | 17.774 | 2 | 43.103 | 17.914 | 32.688 | 2 |
| 2025-09-21T22:15:00 | 54.154283 | 7.971142 | 2.0 | 17.759 | 2 | 43.105 | 17.927 | 32.680 | 2 |
| 2025-09-21T22:16:00 | 54.151862 | 7.971028 | 2.0 | 17.758 | 2 | 43.085 | 17.923 | 32.666 | 2 |
| 2025-09-21T22:17:00 | 54.149427 | 7.971195 | 2.0 | 17.749 | 2 | 43.069 | 17.916 | 32.658 | 2 |
| 2025-09-21T22:18:00 | 54.146981 | 7.971248 | 2.0 | 17.698 | 2 | 43.041 | 17.908 | 32.641 | 2 |
| 2025-09-21T22:19:00 | 54.144584 | 7.971111 | 2.0 | 17.619 | 2 | 42.929 | 17.837 | 32.602 | 2 |
| 2025-09-21T22:20:00 | 54.142197 | 7.971110 | 2.0 | 17.582 | 2 | 42.799 | 17.778 | 32.539 | 2 |
| 2025-09-21T22:21:00 | 54.139819 | 7.970981 | 2.0 | 17.571 | 2 | 42.732 | 17.741 | 32.512 | 2 |
| 2025-09-21T22:22:00 | 54.137493 | 7.970735 | 2.0 | 17.577 | 2 | 42.691 | 17.733 | 32.483 | 2 |
| 2025-09-21T22:23:00 | 54.135155 | 7.970540 | 2.0 | 17.588 | 2 | 42.676 | 17.740 | 32.465 | 2 |
| 2025-09-21T22:24:00 | 54.132804 | 7.970378 | 2.0 | 17.598 | 2 | 42.679 | 17.748 | 32.461 | 2 |
| 2025-09-21T22:25:00 | 54.130421 | 7.970298 | 2.0 | 17.610 | 2 | 42.701 | 17.762 | 32.469 | 2 |
| 2025-09-21T22:26:00 | 54.128022 | 7.970197 | 2.0 | 17.615 | 2 | 42.718 | 17.770 | 32.477 | 2 |
| 2025-09-21T22:27:00 | 54.125612 | 7.970057 | 2.0 | 17.616 | 2 | 42.727 | 17.775 | 32.480 | 2 |
| 2025-09-21T22:28:00 | 54.123203 | 7.969828 | 2.0 | 17.629 | 2 | 42.721 | 17.777 | 32.474 | 2 |
| 2025-09-21T22:29:00 | 54.120787 | 7.969625 | 2.0 | 17.623 | 2 | 42.731 | 17.786 | 32.475 | 2 |
| 2025-09-21T22:30:00 | 54.118358 | 7.969418 | 2.0 | 17.628 | 2 | 42.722 | 17.784 | 32.469 | 2 |
| 2025-09-21T22:31:00 | 54.115922 | 7.969202 | 2.0 | 17.634 | 2 | 42.726 | 17.787 | 32.470 | 2 |
| 2025-09-21T22:32:00 | 54.113502 | 7.968970 | 2.0 | 17.634 | 2 | 42.732 | 17.795 | 32.469 | 2 |
| 2025-09-21T22:33:00 | 54.111068 | 7.968720 | 2.0 | 17.637 | 2 | 42.731 | 17.792 | 32.470 | 2 |
| 2025-09-21T22:34:00 | 54.108629 | 7.968524 | 2.0 | 17.637 | 2 | 42.734 | 17.795 | 32.470 | 2 |
| 2025-09-21T22:35:00 | 54.106180 | 7.968285 | 2.0 | 17.627 | 2 | 42.736 | 17.795 | 32.472 | 2 |
| 2025-09-21T22:36:00 | 54.103735 | 7.968036 | 2.0 | 17.632 | 2 | 42.722 | 17.787 | 32.467 | 2 |
| 2025-09-21T22:37:00 | 54.101276 | 7.967892 | 2.0 | 17.638 | 2 | 42.718 | 17.792 | 32.459 | 2 |
| 2025-09-21T22:38:00 | 54.098780 | 7.967673 | 2.0 | 17.633 | 2 | 42.718 | 17.797 | 32.455 | 2 |
| 2025-09-21T22:39:00 | 54.096304 | 7.967485 | 2.0 | 17.614 | 2 | 42.699 | 17.788 | 32.446 | 2 |
| 2025-09-21T22:40:00 | 54.093842 | 7.967255 | 2.0 | 17.619 | 2 | 42.665 | 17.776 | 32.427 | 2 |
| 2025-09-21T22:41:00 | 54.091361 | 7.967038 | 2.0 | 17.624 | 2 | 42.657 | 17.777 | 32.419 | 2 |
| 2025-09-21T22:42:00 | 54.088873 | 7.966809 | 2.0 | 17.626 | 2 | 42.655 | 17.782 | 32.414 | 2 |
| 2025-09-21T22:43:00 | 54.086368 | 7.966571 | 2.0 | 17.631 | 2 | 42.659 | 17.787 | 32.413 | 2 |
| 2025-09-21T22:44:00 | 54.083867 | 7.966288 | 2.0 | 17.629 | 2 | 42.667 | 17.789 | 32.418 | 2 |
| 2025-09-21T22:45:00 | 54.081387 | 7.966123 | 2.0 | 17.627 | 2 | 42.668 | 17.789 | 32.419 | 2 |
| 2025-09-21T22:46:00 | 54.078893 | 7.965898 | 2.0 | 17.622 | 2 | 42.666 | 17.786 | 32.420 | 2 |
| 2025-09-21T22:47:00 | 54.076405 | 7.965631 | 2.0 | 17.614 | 2 | 42.662 | 17.779 | 32.422 | 2 |
| 2025-09-21T22:48:00 | 54.073910 | 7.965390 | 2.0 | 17.615 | 2 | 42.657 | 17.773 | 32.423 | 2 |
| 2025-09-21T22:49:00 | 54.071375 | 7.965261 | 2.0 | 17.622 | 2 | 42.658 | 17.777 | 32.420 | 2 |
| 2025-09-21T22:50:00 | 54.068869 | 7.965042 | 2.0 | 17.645 | 2 | 42.666 | 17.784 | 32.422 | 2 |
| 2025-09-21T22:51:00 | 54.066377 | 7.964836 | 2.0 | 17.628 | 2 | 42.690 | 17.799 | 32.430 | 2 |
| 2025-09-21T22:52:00 | 54.063888 | 7.964517 | 2.0 | 17.635 | 2 | 42.687 | 17.790 | 32.435 | 2 |
| 2025-09-21T22:53:00 | 54.061399 | 7.964311 | 2.0 | 17.645 | 2 | 42.700 | 17.795 | 32.442 | 2 |
| 2025-09-21T22:54:00 | 54.058914 | 7.964164 | 2.0 | 17.650 | 2 | 42.720 | 17.805 | 32.451 | 2 |
| 2025-09-21T22:55:00 | 54.056444 | 7.963930 | 2.0 | 17.657 | 2 | 42.733 | 17.808 | 32.459 | 2 |
| 2025-09-21T22:56:00 | 54.053966 | 7.963777 | 2.0 | 17.665 | 2 | 42.751 | 17.819 | 32.466 | 2 |
| 2025-09-21T22:57:00 | 54.051499 | 7.963463 | 2.0 | 17.674 | 2 | 42.764 | 17.826 | 32.471 | 2 |
| 2025-09-21T22:58:00 | 54.049016 | 7.963199 | 2.0 | 17.671 | 2 | 42.772 | 17.831 | 32.474 | 2 |
| 2025-09-21T22:59:00 | 54.046519 | 7.963026 | 2.0 | 17.673 | 2 | 42.772 | 17.831 | 32.474 | 2 |
| 2025-09-21T23:00:00 | 54.044031 | 7.962779 | 2.0 | 17.668 | 2 | 42.771 | 17.829 | 32.475 | 2 |
| 2025-09-21T23:01:00 | 54.041554 | 7.962506 | 2.0 | 17.677 | 2 | 42.772 | 17.830 | 32.475 | 2 |
| 2025-09-21T23:02:00 | 54.039075 | 7.962321 | 2.0 | 17.673 | 2 | 42.769 | 17.833 | 32.470 | 2 |
| 2025-09-21T23:03:00 | 54.036612 | 7.962120 | 2.0 | 17.667 | 2 | 42.760 | 17.831 | 32.464 | 2 |
| 2025-09-21T23:04:00 | 54.034141 | 7.961876 | 2.0 | 17.659 | 2 | 42.745 | 17.824 | 32.457 | 2 |
| 2025-09-21T23:05:00 | 54.031655 | 7.961617 | 2.0 | 17.654 | 2 | 42.729 | 17.815 | 32.450 | 2 |
| 2025-09-21T23:06:00 | 54.029165 | 7.961406 | 2.0 | 17.655 | 2 | 42.719 | 17.815 | 32.442 | 2 |
| 2025-09-21T23:07:00 | 54.026664 | 7.961190 | 2.0 | 17.660 | 2 | 42.711 | 17.816 | 32.434 | 2 |
| 2025-09-21T23:08:00 | 54.024208 | 7.961056 | 2.0 | 17.657 | 2 | 42.709 | 17.818 | 32.431 | 2 |
| 2025-09-21T23:09:00 | 54.021748 | 7.960757 | 2.0 | 17.682 | 2 | 42.709 | 17.820 | 32.429 | 2 |
| 2025-09-21T23:10:00 | 54.019279 | 7.960534 | 2.0 | 17.696 | 2 | 42.734 | 17.846 | 32.430 | 2 |
| 2025-09-21T23:11:00 | 54.016802 | 7.960264 | 2.0 | 17.724 | 2 | 42.750 | 17.859 | 32.433 | 2 |
| 2025-09-21T23:12:00 | 54.014299 | 7.960008 | 2.0 | 17.746 | 2 | 42.783 | 17.885 | 32.440 | 2 |
| 2025-09-21T23:13:00 | 54.011817 | 7.959765 | 2.0 | 17.768 | 2 | 42.814 | 17.908 | 32.448 | 2 |
| 2025-09-21T23:14:00 | 54.009313 | 7.959572 | 2.0 | 17.806 | 2 | 42.856 | 17.936 | 32.462 | 2 |
| 2025-09-21T23:15:00 | 54.006833 | 7.959387 | 2.0 | 17.839 | 2 | 42.903 | 17.969 | 32.475 | 2 |
| 2025-09-21T23:16:00 | 54.004334 | 7.959090 | 2.0 | 17.841 | 2 | 42.943 | 17.993 | 32.490 | 2 |
| 2025-09-21T23:17:00 | 54.001828 | 7.958889 | 2.0 | 17.833 | 2 | 42.953 | 17.996 | 32.496 | 2 |
| 2025-09-21T23:18:00 | 53.999362 | 7.958742 | 2.0 | 17.815 | 2 | 42.950 | 17.988 | 32.500 | 2 |
| 2025-09-21T23:19:00 | 53.996890 | 7.958431 | 2.0 | 17.809 | 2 | 42.944 | 17.974 | 32.506 | 2 |
| 2025-09-21T23:20:00 | 53.994388 | 7.958192 | 2.0 | 17.797 | 2 | 42.940 | 17.965 | 32.510 | 2 |
| 2025-09-21T23:21:00 | 53.991886 | 7.958005 | 2.0 | 17.786 | 2 | 42.931 | 17.953 | 32.512 | 2 |
| 2025-09-21T23:22:00 | 53.989424 | 7.957764 | 2.0 | 17.779 | 2 | 42.925 | 17.944 | 32.514 | 2 |
| 2025-09-21T23:23:00 | 53.986938 | 7.957543 | 2.0 | 17.774 | 2 | 42.923 | 17.938 | 32.517 | 2 |
| 2025-09-21T23:24:00 | 53.984499 | 7.957286 | 2.0 | 17.769 | 2 | 42.922 | 17.933 | 32.520 | 2 |
| 2025-09-21T23:25:00 | 53.982018 | 7.957053 | 2.0 | 17.788 | 2 | 42.927 | 17.935 | 32.523 | 2 |
| 2025-09-21T23:26:00 | 53.979557 | 7.956861 | 2.0 | 17.819 | 2 | 42.945 | 17.951 | 32.525 | 2 |
| 2025-09-21T23:27:00 | 53.977120 | 7.956692 | 2.0 | 17.824 | 2 | 42.976 | 17.975 | 32.532 | 2 |
| 2025-09-21T23:28:00 | 53.974716 | 7.956438 | 2.0 | 17.824 | 2 | 42.986 | 17.982 | 32.535 | 2 |
| 2025-09-21T23:29:00 | 53.972328 | 7.956294 | 2.0 | 17.825 | 2 | 42.987 | 17.982 | 32.536 | 2 |
| 2025-09-21T23:30:00 | 53.969938 | 7.956004 | 2.0 | 17.822 | 2 | 42.989 | 17.982 | 32.538 | 2 |
| 2025-09-21T23:31:00 | 53.967554 | 7.955873 | 2.0 | 17.829 | 2 | 42.991 | 17.980 | 32.541 | 2 |
| 2025-09-21T23:32:00 | 53.965148 | 7.955627 | 2.0 | 17.836 | 2 | 43.003 | 17.986 | 32.546 | 2 |
| 2025-09-21T23:33:00 | 53.962731 | 7.955395 | 2.0 | 17.836 | 2 | 43.014 | 17.993 | 32.550 | 2 |
| 2025-09-21T23:34:00 | 53.960288 | 7.955128 | 2.0 | 17.843 | 2 | 43.020 | 17.995 | 32.553 | 2 |
| 2025-09-21T23:35:00 | 53.957853 | 7.955010 | 2.0 | 17.853 | 2 | 43.034 | 18.005 | 32.557 | 2 |
| 2025-09-21T23:36:00 | 53.955413 | 7.954853 | 2.0 | 17.849 | 2 | 43.042 | 18.008 | 32.562 | 2 |
| 2025-09-21T23:37:00 | 53.952957 | 7.954546 | 2.0 | 17.853 | 2 | 43.043 | 18.006 | 32.564 | 2 |
| 2025-09-21T23:38:00 | 53.950507 | 7.954952 | 2.0 | 17.858 | 2 | 43.050 | 18.011 | 32.566 | 2 |
| 2025-09-21T23:39:00 | 53.948199 | 7.956421 | 2.0 | 17.859 | 2 | 43.057 | 18.017 | 32.567 | 2 |
| 2025-09-21T23:40:00 | 53.945889 | 7.957923 | 2.0 | 17.862 | 2 | 43.060 | 18.019 | 32.568 | 2 |
| 2025-09-21T23:41:00 | 53.943522 | 7.959210 | 2.0 | 17.860 | 2 | 43.059 | 18.019 | 32.567 | 2 |
| 2025-09-21T23:42:00 | 53.941200 | 7.960711 | 2.0 | 17.866 | 2 | 43.058 | 18.019 | 32.566 | 2 |
| 2025-09-21T23:43:00 | 53.938929 | 7.962195 | 2.0 | 17.864 | 2 | 43.062 | 18.024 | 32.566 | 2 |
| 2025-09-21T23:44:00 | 53.936611 | 7.963507 | 2.0 | 17.863 | 2 | 43.060 | 18.022 | 32.566 | 2 |
| 2025-09-21T23:45:00 | 53.934296 | 7.964876 | 2.0 | 17.867 | 2 | 43.059 | 18.021 | 32.566 | 2 |
| 2025-09-21T23:46:00 | 53.932025 | 7.966304 | 2.0 | 17.862 | 2 | 43.060 | 18.024 | 32.564 | 2 |
| 2025-09-21T23:47:00 | 53.929746 | 7.967711 | 2.0 | 17.867 | 2 | 43.055 | 18.021 | 32.562 | 2 |
| 2025-09-21T23:48:00 | 53.927456 | 7.969086 | 2.0 | 17.866 | 2 | 43.058 | 18.025 | 32.562 | 2 |
| 2025-09-21T23:49:00 | 53.925246 | 7.970656 | 2.0 | 17.873 | 2 | 43.052 | 18.024 | 32.557 | 2 |
| 2025-09-21T23:50:00 | 53.923117 | 7.972367 | 2.0 | 17.865 | 2 | 43.054 | 18.031 | 32.553 | 2 |
| 2025-09-21T23:51:00 | 53.920976 | 7.974040 | 2.0 | 17.858 | 2 | 43.043 | 18.019 | 32.554 | 2 |
| 2025-09-21T23:52:00 | 53.918965 | 7.976222 | 2.0 | 17.868 | 2 | 43.039 | 18.020 | 32.550 | 2 |
| 2025-09-21T23:53:00 | 53.917386 | 7.979201 | 2.0 | 17.860 | 2 | 43.041 | 18.025 | 32.547 | 2 |
| 2025-09-21T23:54:00 | 53.916218 | 7.982734 | 2.0 | 17.860 | 2 | 43.032 | 18.018 | 32.545 | 2 |
| 2025-09-21T23:55:00 | 53.914998 | 7.986243 | 2.0 | 17.857 | 2 | 43.027 | 18.017 | 32.542 | 2 |
| 2025-09-21T23:56:00 | 53.913633 | 7.989555 | 2.0 | 17.859 | 2 | 43.022 | 18.017 | 32.538 | 2 |
| 2025-09-21T23:57:00 | 53.912356 | 7.993000 | 2.0 | 17.844 | 2 | 43.011 | 18.016 | 32.529 | 2 |
| 2025-09-21T23:58:00 | 53.911125 | 7.996437 | 2.0 | 17.839 | 2 | 42.991 | 18.005 | 32.521 | 2 |
| 2025-09-21T23:59:00 | 53.909838 | 7.999861 | 2.0 | 17.829 | 2 | 42.971 | 17.995 | 32.512 | 2 |
| 2025-09-22T00:00:00 | 53.908578 | 8.003245 | 2.0 | 17.816 | 2 | 42.942 | 17.987 | 32.494 | 2 |
| 2025-09-22T00:01:00 | 53.907310 | 8.006604 | 2.0 | 17.801 | 2 | 42.899 | 17.974 | 32.468 | 2 |
| 2025-09-22T00:02:00 | 53.906130 | 8.009952 | 2.0 | 17.797 | 2 | 42.863 | 17.963 | 32.446 | 2 |
| 2025-09-22T00:03:00 | 53.904922 | 8.013324 | 2.0 | 17.791 | 2 | 42.836 | 17.955 | 32.430 | 2 |
| 2025-09-22T00:04:00 | 53.903634 | 8.016658 | 2.0 | 17.787 | 2 | 42.808 | 17.950 | 32.410 | 2 |
| 2025-09-22T00:05:00 | 53.902390 | 8.020046 | 2.0 | 17.780 | 2 | 42.787 | 17.945 | 32.396 | 2 |
| 2025-09-22T00:06:00 | 53.901125 | 8.023412 | 2.0 | 17.772 | 2 | 42.763 | 17.938 | 32.381 | 2 |
| 2025-09-22T00:07:00 | 53.899909 | 8.026716 | 2.0 | 17.763 | 2 | 42.748 | 17.932 | 32.373 | 2 |
| 2025-09-22T00:08:00 | 53.898748 | 8.030042 | 2.0 | 17.754 | 2 | 42.727 | 17.922 | 32.364 | 2 |
| 2025-09-22T00:09:00 | 53.897623 | 8.033432 | 2.0 | 17.744 | 2 | 42.709 | 17.912 | 32.356 | 2 |
| 2025-09-22T00:10:00 | 53.896772 | 8.036975 | 2.0 | 17.730 | 2 | 42.690 | 17.900 | 32.350 | 2 |
| 2025-09-22T00:11:00 | 53.895836 | 8.040503 | 2.0 | 17.719 | 2 | 42.666 | 17.889 | 32.338 | 2 |
| 2025-09-22T00:12:00 | 53.894913 | 8.044057 | 2.0 | 17.710 | 2 | 42.645 | 17.879 | 32.328 | 2 |
| 2025-09-22T00:13:00 | 53.894081 | 8.047615 | 2.0 | 17.703 | 2 | 42.617 | 17.870 | 32.312 | 2 |
| 2025-09-22T00:14:00 | 53.893159 | 8.051147 | 2.0 | 17.700 | 2 | 42.593 | 17.863 | 32.297 | 2 |
| 2025-09-22T00:15:00 | 53.892292 | 8.054664 | 2.0 | 17.684 | 2 | 42.573 | 17.856 | 32.286 | 2 |
| 2025-09-22T00:16:00 | 53.891476 | 8.058174 | 2.0 | 17.677 | 2 | 42.544 | 17.842 | 32.272 | 2 |
| 2025-09-22T00:17:00 | 53.890624 | 8.061705 | 2.0 | 17.671 | 2 | 42.531 | 17.836 | 32.266 | 2 |
| 2025-09-22T00:18:00 | 53.889673 | 8.065106 | 2.0 | 17.661 | 2 | 42.518 | 17.828 | 32.261 | 2 |
| 2025-09-22T00:19:00 | 53.888786 | 8.068588 | 2.0 | 17.663 | 2 | 42.508 | 17.823 | 32.257 | 2 |
| 2025-09-22T00:20:00 | 53.887948 | 8.072012 | 2.0 | 17.647 | 2 | 42.484 | 17.821 | 32.238 | 2 |
| 2025-09-22T00:21:00 | 53.887090 | 8.075453 | 2.0 | 17.626 | 2 | 42.427 | 17.804 | 32.203 | 2 |
| 2025-09-22T00:22:00 | 53.886218 | 8.078910 | 2.0 | 17.594 | 2 | 42.367 | 17.783 | 32.169 | 2 |
| 2025-09-22T00:23:00 | 53.885327 | 8.082345 | 2.0 | 17.560 | 2 | 42.280 | 17.749 | 32.122 | 2 |
| 2025-09-22T00:24:00 | 53.884498 | 8.085704 | 2.0 | 17.543 | 2 | 42.197 | 17.721 | 32.073 | 2 |
| 2025-09-22T00:25:00 | 53.883638 | 8.089071 | 2.0 | 17.525 | 2 | 42.127 | 17.702 | 32.029 | 2 |
| 2025-09-22T00:26:00 | 53.882773 | 8.092410 | 2.0 | 17.514 | 2 | 42.063 | 17.686 | 31.987 | 2 |
| 2025-09-22T00:27:00 | 53.881986 | 8.095720 | 2.0 | 17.496 | 2 | 42.023 | 17.674 | 31.963 | 2 |
| 2025-09-22T00:28:00 | 53.881177 | 8.099094 | 2.0 | 17.483 | 2 | 41.992 | 17.658 | 31.949 | 2 |
| 2025-09-22T00:29:00 | 53.880367 | 8.102548 | 2.0 | 17.488 | 2 | 41.975 | 17.647 | 31.943 | 2 |
| 2025-09-22T00:30:00 | 53.879289 | 8.105864 | 2.0 | 17.497 | 2 | 41.994 | 17.650 | 31.957 | 2 |
| 2025-09-22T00:31:00 | 53.877444 | 8.107881 | 2.0 | 17.483 | 2 | 42.019 | 17.656 | 31.973 | 2 |
